<?xml version="1.0" encoding="UTF-8" standalone="no" ?>
<gpx xmlns="http://www.topografix.com/GPX/1/1" xmlns:xsi="http://www.w3.org/2001/XMLSchema-instance" xsi:schemaLocation="http://www.topografix.com/GPX/1/1 http://www.topografix.com/GPX/1/1/gpx.xsd" version="1.1" creator="VisuGPX - https://www.visugpx.com">
  <metadata>
    <name>J2 Mönichkirchen - Edlich</name>
  </metadata>
  <trk>
    <name><![CDATA[J2 Mönichkirchen - Edlich]]></name>
    <trkseg>
      <trkpt lat="47.5187" lon="16.00736">
        <ele>1182.254733</ele>
        <time>2026-07-08T06:57:24.000Z</time>
      </trkpt>
      <trkpt lat="47.5187" lon="16.00739">
        <ele>1182.254733</ele>
        <time>2026-07-08T06:57:25.000Z</time>
      </trkpt>
      <trkpt lat="47.51871" lon="16.00742">
        <ele>1182.254733</ele>
        <time>2026-07-08T06:57:26.000Z</time>
      </trkpt>
      <trkpt lat="47.51872" lon="16.00745">
        <ele>1182.254733</ele>
        <time>2026-07-08T06:57:27.000Z</time>
      </trkpt>
      <trkpt lat="47.51874" lon="16.00748">
        <ele>1182.254733</ele>
        <time>2026-07-08T06:57:28.000Z</time>
      </trkpt>
      <trkpt lat="47.51875" lon="16.00752">
        <ele>1182.254733</ele>
        <time>2026-07-08T06:57:29.000Z</time>
      </trkpt>
      <trkpt lat="47.51877" lon="16.00757">
        <ele>1182.254733</ele>
        <time>2026-07-08T06:57:30.000Z</time>
      </trkpt>
      <trkpt lat="47.51879" lon="16.00761">
        <ele>1182.254733</ele>
        <time>2026-07-08T06:57:31.000Z</time>
      </trkpt>
      <trkpt lat="47.5188" lon="16.00766">
        <ele>1182.254733</ele>
        <time>2026-07-08T06:57:32.000Z</time>
      </trkpt>
      <trkpt lat="47.51881" lon="16.00771">
        <ele>1182.254733</ele>
        <time>2026-07-08T06:57:33.000Z</time>
      </trkpt>
      <trkpt lat="47.51882" lon="16.00777">
        <ele>1182.254733</ele>
        <time>2026-07-08T06:57:34.000Z</time>
      </trkpt>
      <trkpt lat="47.51882" lon="16.00782">
        <ele>1182.254733</ele>
        <time>2026-07-08T06:57:35.000Z</time>
      </trkpt>
      <trkpt lat="47.51883" lon="16.00788">
        <ele>1182.254733</ele>
        <time>2026-07-08T06:57:36.000Z</time>
      </trkpt>
      <trkpt lat="47.51884" lon="16.00794">
        <ele>1182.254733</ele>
        <time>2026-07-08T06:57:37.000Z</time>
      </trkpt>
      <trkpt lat="47.51885" lon="16.00799">
        <ele>1182.254733</ele>
        <time>2026-07-08T06:57:38.000Z</time>
      </trkpt>
      <trkpt lat="47.51886" lon="16.00803">
        <ele>1182.254733</ele>
        <time>2026-07-08T06:57:39.000Z</time>
      </trkpt>
      <trkpt lat="47.51886" lon="16.00807">
        <ele>1182.254733</ele>
        <time>2026-07-08T06:57:40.000Z</time>
      </trkpt>
      <trkpt lat="47.51887" lon="16.0081">
        <ele>1182.254733</ele>
        <time>2026-07-08T06:57:41.000Z</time>
      </trkpt>
      <trkpt lat="47.51887" lon="16.00812">
        <ele>1182.254733</ele>
        <time>2026-07-08T06:57:42.000Z</time>
      </trkpt>
      <trkpt lat="47.51887" lon="16.00812">
        <ele>1182.254733</ele>
        <time>2026-07-08T06:57:43.000Z</time>
      </trkpt>
      <trkpt lat="47.51889" lon="16.00817">
        <ele>1182.254733</ele>
        <time>2026-07-08T06:58:07.000Z</time>
      </trkpt>
      <trkpt lat="47.51889" lon="16.0082">
        <ele>1182.254733</ele>
        <time>2026-07-08T06:58:08.000Z</time>
      </trkpt>
      <trkpt lat="47.5189" lon="16.00823">
        <ele>1182.254733</ele>
        <time>2026-07-08T06:58:09.000Z</time>
      </trkpt>
      <trkpt lat="47.51891" lon="16.00826">
        <ele>1182.254733</ele>
        <time>2026-07-08T06:58:10.000Z</time>
      </trkpt>
      <trkpt lat="47.51891" lon="16.0083">
        <ele>1182.254733</ele>
        <time>2026-07-08T06:58:11.000Z</time>
      </trkpt>
      <trkpt lat="47.51892" lon="16.00834">
        <ele>1182.254733</ele>
        <time>2026-07-08T06:58:12.000Z</time>
      </trkpt>
      <trkpt lat="47.51893" lon="16.00839">
        <ele>1182.254733</ele>
        <time>2026-07-08T06:58:13.000Z</time>
      </trkpt>
      <trkpt lat="47.51894" lon="16.00844">
        <ele>1182.254733</ele>
        <time>2026-07-08T06:58:14.000Z</time>
      </trkpt>
      <trkpt lat="47.51895" lon="16.00849">
        <ele>1182.254733</ele>
        <time>2026-07-08T06:58:15.000Z</time>
      </trkpt>
      <trkpt lat="47.51896" lon="16.00855">
        <ele>1182.254733</ele>
        <time>2026-07-08T06:58:16.000Z</time>
      </trkpt>
      <trkpt lat="47.51897" lon="16.00861">
        <ele>1182.254733</ele>
        <time>2026-07-08T06:58:17.000Z</time>
      </trkpt>
      <trkpt lat="47.51898" lon="16.00867">
        <ele>1182.102886</ele>
        <time>2026-07-08T06:58:18.000Z</time>
      </trkpt>
      <trkpt lat="47.519" lon="16.00874">
        <ele>1181.939534</ele>
        <time>2026-07-08T06:58:19.000Z</time>
      </trkpt>
      <trkpt lat="47.51901" lon="16.00879">
        <ele>1181.787923</ele>
        <time>2026-07-08T06:58:20.000Z</time>
      </trkpt>
      <trkpt lat="47.51902" lon="16.00885">
        <ele>1181.650984</ele>
        <time>2026-07-08T06:58:21.000Z</time>
      </trkpt>
      <trkpt lat="47.51903" lon="16.0089">
        <ele>1181.514046</ele>
        <time>2026-07-08T06:58:22.000Z</time>
      </trkpt>
      <trkpt lat="47.51904" lon="16.00895">
        <ele>1181.379541</ele>
        <time>2026-07-08T06:58:23.000Z</time>
      </trkpt>
      <trkpt lat="47.51904" lon="16.009">
        <ele>1181.239521</ele>
        <time>2026-07-08T06:58:24.000Z</time>
      </trkpt>
      <trkpt lat="47.51905" lon="16.00905">
        <ele>1181.107447</ele>
        <time>2026-07-08T06:58:25.000Z</time>
      </trkpt>
      <trkpt lat="47.51907" lon="16.0091">
        <ele>1180.979656</ele>
        <time>2026-07-08T06:58:26.000Z</time>
      </trkpt>
      <trkpt lat="47.51908" lon="16.00915">
        <ele>1180.854849</ele>
        <time>2026-07-08T06:58:27.000Z</time>
      </trkpt>
      <trkpt lat="47.51909" lon="16.00919">
        <ele>1180.723866</ele>
        <time>2026-07-08T06:58:28.000Z</time>
      </trkpt>
      <trkpt lat="47.5191" lon="16.00924">
        <ele>1180.58947</ele>
        <time>2026-07-08T06:58:29.000Z</time>
      </trkpt>
      <trkpt lat="47.51911" lon="16.00929">
        <ele>1180.456282</ele>
        <time>2026-07-08T06:58:30.000Z</time>
      </trkpt>
      <trkpt lat="47.51913" lon="16.00934">
        <ele>1180.32462</ele>
        <time>2026-07-08T06:58:31.000Z</time>
      </trkpt>
      <trkpt lat="47.51914" lon="16.00939">
        <ele>1180.19752</ele>
        <time>2026-07-08T06:58:32.000Z</time>
      </trkpt>
      <trkpt lat="47.51916" lon="16.00943">
        <ele>1180.07042</ele>
        <time>2026-07-08T06:58:33.000Z</time>
      </trkpt>
      <trkpt lat="47.51917" lon="16.00947">
        <ele>1179.947841</ele>
        <time>2026-07-08T06:58:34.000Z</time>
      </trkpt>
      <trkpt lat="47.51919" lon="16.00952">
        <ele>1179.824651</ele>
        <time>2026-07-08T06:58:35.000Z</time>
      </trkpt>
      <trkpt lat="47.5192" lon="16.00956">
        <ele>1179.700688</ele>
        <time>2026-07-08T06:58:36.000Z</time>
      </trkpt>
      <trkpt lat="47.51921" lon="16.00961">
        <ele>1179.58373</ele>
        <time>2026-07-08T06:58:37.000Z</time>
      </trkpt>
      <trkpt lat="47.51921" lon="16.00964">
        <ele>1179.490643</ele>
        <time>2026-07-08T06:58:38.000Z</time>
      </trkpt>
      <trkpt lat="47.51921" lon="16.00966">
        <ele>1179.447424</ele>
        <time>2026-07-08T06:58:39.000Z</time>
      </trkpt>
      <trkpt lat="47.51921" lon="16.00966">
        <ele>1179.442358</ele>
        <time>2026-07-08T06:58:40.000Z</time>
      </trkpt>
      <trkpt lat="47.51922" lon="16.0097">
        <ele>1179.336837</ele>
        <time>2026-07-08T06:58:56.000Z</time>
      </trkpt>
      <trkpt lat="47.51922" lon="16.00973">
        <ele>1179.261031</ele>
        <time>2026-07-08T06:58:57.000Z</time>
      </trkpt>
      <trkpt lat="47.51923" lon="16.00976">
        <ele>1179.178244</ele>
        <time>2026-07-08T06:58:58.000Z</time>
      </trkpt>
      <trkpt lat="47.51924" lon="16.00979">
        <ele>1179.096553</ele>
        <time>2026-07-08T06:58:59.000Z</time>
      </trkpt>
      <trkpt lat="47.51925" lon="16.00982">
        <ele>1179.015719</ele>
        <time>2026-07-08T06:59:00.000Z</time>
      </trkpt>
      <trkpt lat="47.51926" lon="16.00986">
        <ele>1178.92411</ele>
        <time>2026-07-08T06:59:01.000Z</time>
      </trkpt>
      <trkpt lat="47.51927" lon="16.00989">
        <ele>1178.823173</ele>
        <time>2026-07-08T06:59:02.000Z</time>
      </trkpt>
      <trkpt lat="47.51928" lon="16.00993">
        <ele>1178.713787</ele>
        <time>2026-07-08T06:59:03.000Z</time>
      </trkpt>
      <trkpt lat="47.51929" lon="16.00998">
        <ele>1178.592883</ele>
        <time>2026-07-08T06:59:04.000Z</time>
      </trkpt>
      <trkpt lat="47.51931" lon="16.01002">
        <ele>1178.465783</ele>
        <time>2026-07-08T06:59:05.000Z</time>
      </trkpt>
      <trkpt lat="47.51932" lon="16.01007">
        <ele>1178.336979</ele>
        <time>2026-07-08T06:59:06.000Z</time>
      </trkpt>
      <trkpt lat="47.51934" lon="16.01011">
        <ele>1178.206386</ele>
        <time>2026-07-08T06:59:07.000Z</time>
      </trkpt>
      <trkpt lat="47.51936" lon="16.01015">
        <ele>1178.074149</ele>
        <time>2026-07-08T06:59:08.000Z</time>
      </trkpt>
      <trkpt lat="47.51938" lon="16.01019">
        <ele>1177.958269</ele>
        <time>2026-07-08T06:59:09.000Z</time>
      </trkpt>
      <trkpt lat="47.51939" lon="16.01023">
        <ele>1177.85328</ele>
        <time>2026-07-08T06:59:10.000Z</time>
      </trkpt>
      <trkpt lat="47.51941" lon="16.01026">
        <ele>1177.748291</ele>
        <time>2026-07-08T06:59:11.000Z</time>
      </trkpt>
      <trkpt lat="47.51942" lon="16.0103">
        <ele>1177.634619</ele>
        <time>2026-07-08T06:59:12.000Z</time>
      </trkpt>
      <trkpt lat="47.51943" lon="16.01034">
        <ele>1177.519902</ele>
        <time>2026-07-08T06:59:13.000Z</time>
      </trkpt>
      <trkpt lat="47.51945" lon="16.01039">
        <ele>1177.392802</ele>
        <time>2026-07-08T06:59:14.000Z</time>
      </trkpt>
      <trkpt lat="47.51946" lon="16.01043">
        <ele>1177.265702</ele>
        <time>2026-07-08T06:59:15.000Z</time>
      </trkpt>
      <trkpt lat="47.51948" lon="16.01048">
        <ele>1177.140217</ele>
        <time>2026-07-08T06:59:16.000Z</time>
      </trkpt>
      <trkpt lat="47.51949" lon="16.01053">
        <ele>1177.014233</ele>
        <time>2026-07-08T06:59:17.000Z</time>
      </trkpt>
      <trkpt lat="47.51949" lon="16.01057">
        <ele>1176.891225</ele>
        <time>2026-07-08T06:59:18.000Z</time>
      </trkpt>
      <trkpt lat="47.5195" lon="16.01063">
        <ele>1176.758195</ele>
        <time>2026-07-08T06:59:19.000Z</time>
      </trkpt>
      <trkpt lat="47.5195" lon="16.01068">
        <ele>1176.622657</ele>
        <time>2026-07-08T06:59:20.000Z</time>
      </trkpt>
      <trkpt lat="47.5195" lon="16.01073">
        <ele>1176.485838</ele>
        <time>2026-07-08T06:59:21.000Z</time>
      </trkpt>
      <trkpt lat="47.5195" lon="16.01079">
        <ele>1176.338749</ele>
        <time>2026-07-08T06:59:22.000Z</time>
      </trkpt>
      <trkpt lat="47.5195" lon="16.01085">
        <ele>1176.1866</ele>
        <time>2026-07-08T06:59:23.000Z</time>
      </trkpt>
      <trkpt lat="47.5195" lon="16.01091">
        <ele>1176.029168</ele>
        <time>2026-07-08T06:59:24.000Z</time>
      </trkpt>
      <trkpt lat="47.5195" lon="16.01098">
        <ele>1175.869607</ele>
        <time>2026-07-08T06:59:25.000Z</time>
      </trkpt>
      <trkpt lat="47.51949" lon="16.01104">
        <ele>1175.703915</ele>
        <time>2026-07-08T06:59:26.000Z</time>
      </trkpt>
      <trkpt lat="47.51948" lon="16.01111">
        <ele>1175.536576</ele>
        <time>2026-07-08T06:59:27.000Z</time>
      </trkpt>
      <trkpt lat="47.51947" lon="16.01117">
        <ele>1175.095907</ele>
        <time>2026-07-08T06:59:28.000Z</time>
      </trkpt>
      <trkpt lat="47.51945" lon="16.01123">
        <ele>1174.585717</ele>
        <time>2026-07-08T06:59:29.000Z</time>
      </trkpt>
      <trkpt lat="47.51943" lon="16.01129">
        <ele>1174.089393</ele>
        <time>2026-07-08T06:59:30.000Z</time>
      </trkpt>
      <trkpt lat="47.51941" lon="16.01135">
        <ele>1173.569221</ele>
        <time>2026-07-08T06:59:31.000Z</time>
      </trkpt>
      <trkpt lat="47.51937" lon="16.0114">
        <ele>1173.008858</ele>
        <time>2026-07-08T06:59:32.000Z</time>
      </trkpt>
      <trkpt lat="47.51934" lon="16.01145">
        <ele>1172.474832</ele>
        <time>2026-07-08T06:59:33.000Z</time>
      </trkpt>
      <trkpt lat="47.5193" lon="16.01149">
        <ele>1171.95707</ele>
        <time>2026-07-08T06:59:34.000Z</time>
      </trkpt>
      <trkpt lat="47.51926" lon="16.01154">
        <ele>1171.408149</ele>
        <time>2026-07-08T06:59:35.000Z</time>
      </trkpt>
      <trkpt lat="47.51922" lon="16.01158">
        <ele>1170.845805</ele>
        <time>2026-07-08T06:59:36.000Z</time>
      </trkpt>
      <trkpt lat="47.51918" lon="16.01163">
        <ele>1170.210869</ele>
        <time>2026-07-08T06:59:37.000Z</time>
      </trkpt>
      <trkpt lat="47.51914" lon="16.0117">
        <ele>1169.551631</ele>
        <time>2026-07-08T06:59:38.000Z</time>
      </trkpt>
      <trkpt lat="47.5191" lon="16.01177">
        <ele>1168.866754</ele>
        <time>2026-07-08T06:59:39.000Z</time>
      </trkpt>
      <trkpt lat="47.51906" lon="16.01183">
        <ele>1168.207516</ele>
        <time>2026-07-08T06:59:40.000Z</time>
      </trkpt>
      <trkpt lat="47.51902" lon="16.0119">
        <ele>1167.564848</ele>
        <time>2026-07-08T06:59:41.000Z</time>
      </trkpt>
      <trkpt lat="47.51899" lon="16.01197">
        <ele>1166.900745</ele>
        <time>2026-07-08T06:59:42.000Z</time>
      </trkpt>
      <trkpt lat="47.51896" lon="16.01205">
        <ele>1166.18013</ele>
        <time>2026-07-08T06:59:43.000Z</time>
      </trkpt>
      <trkpt lat="47.51893" lon="16.01213">
        <ele>1165.501529</ele>
        <time>2026-07-08T06:59:44.000Z</time>
      </trkpt>
      <trkpt lat="47.51891" lon="16.01221">
        <ele>1164.863706</ele>
        <time>2026-07-08T06:59:45.000Z</time>
      </trkpt>
      <trkpt lat="47.51888" lon="16.01228">
        <ele>1164.231403</ele>
        <time>2026-07-08T06:59:46.000Z</time>
      </trkpt>
      <trkpt lat="47.51886" lon="16.01236">
        <ele>1163.5991</ele>
        <time>2026-07-08T06:59:47.000Z</time>
      </trkpt>
      <trkpt lat="47.51883" lon="16.01243">
        <ele>1163.010592</ele>
        <time>2026-07-08T06:59:48.000Z</time>
      </trkpt>
      <trkpt lat="47.51881" lon="16.01249">
        <ele>1162.4439</ele>
        <time>2026-07-08T06:59:49.000Z</time>
      </trkpt>
      <trkpt lat="47.51878" lon="16.01256">
        <ele>1161.872775</ele>
        <time>2026-07-08T06:59:50.000Z</time>
      </trkpt>
      <trkpt lat="47.51876" lon="16.01263">
        <ele>1161.269899</ele>
        <time>2026-07-08T06:59:51.000Z</time>
      </trkpt>
      <trkpt lat="47.51873" lon="16.0127">
        <ele>1160.673552</ele>
        <time>2026-07-08T06:59:52.000Z</time>
      </trkpt>
      <trkpt lat="47.51871" lon="16.01277">
        <ele>1160.085043</ele>
        <time>2026-07-08T06:59:53.000Z</time>
      </trkpt>
      <trkpt lat="47.51868" lon="16.01284">
        <ele>1159.501344</ele>
        <time>2026-07-08T06:59:54.000Z</time>
      </trkpt>
      <trkpt lat="47.51866" lon="16.0129">
        <ele>1158.936064</ele>
        <time>2026-07-08T06:59:55.000Z</time>
      </trkpt>
      <trkpt lat="47.51864" lon="16.01297">
        <ele>1158.361453</ele>
        <time>2026-07-08T06:59:56.000Z</time>
      </trkpt>
      <trkpt lat="47.51862" lon="16.01304">
        <ele>1157.808026</ele>
        <time>2026-07-08T06:59:57.000Z</time>
      </trkpt>
      <trkpt lat="47.51861" lon="16.01311">
        <ele>1157.273743</ele>
        <time>2026-07-08T06:59:58.000Z</time>
      </trkpt>
      <trkpt lat="47.51859" lon="16.01317">
        <ele>1156.732934</ele>
        <time>2026-07-08T06:59:59.000Z</time>
      </trkpt>
      <trkpt lat="47.51858" lon="16.01325">
        <ele>1156.163301</ele>
        <time>2026-07-08T07:00:00.000Z</time>
      </trkpt>
      <trkpt lat="47.51856" lon="16.01331">
        <ele>1155.622491</ele>
        <time>2026-07-08T07:00:01.000Z</time>
      </trkpt>
      <trkpt lat="47.51855" lon="16.01338">
        <ele>1155.073701</ele>
        <time>2026-07-08T07:00:02.000Z</time>
      </trkpt>
      <trkpt lat="47.51853" lon="16.01345">
        <ele>1154.502159</ele>
        <time>2026-07-08T07:00:03.000Z</time>
      </trkpt>
      <trkpt lat="47.51852" lon="16.01352">
        <ele>1153.87115</ele>
        <time>2026-07-08T07:00:04.000Z</time>
      </trkpt>
      <trkpt lat="47.51851" lon="16.01361">
        <ele>1153.168025</ele>
        <time>2026-07-08T07:00:05.000Z</time>
      </trkpt>
      <trkpt lat="47.51849" lon="16.01369">
        <ele>1152.461208</ele>
        <time>2026-07-08T07:00:06.000Z</time>
      </trkpt>
      <trkpt lat="47.51848" lon="16.01377">
        <ele>1151.761014</ele>
        <time>2026-07-08T07:00:07.000Z</time>
      </trkpt>
      <trkpt lat="47.51847" lon="16.01386">
        <ele>1151.039704</ele>
        <time>2026-07-08T07:00:08.000Z</time>
      </trkpt>
      <trkpt lat="47.51846" lon="16.01395">
        <ele>1150.316076</ele>
        <time>2026-07-08T07:00:09.000Z</time>
      </trkpt>
      <trkpt lat="47.51844" lon="16.01403">
        <ele>1149.631613</ele>
        <time>2026-07-08T07:00:10.000Z</time>
      </trkpt>
      <trkpt lat="47.51842" lon="16.01411">
        <ele>1148.93259</ele>
        <time>2026-07-08T07:00:11.000Z</time>
      </trkpt>
      <trkpt lat="47.51841" lon="16.01419">
        <ele>1148.245413</ele>
        <time>2026-07-08T07:00:12.000Z</time>
      </trkpt>
      <trkpt lat="47.51839" lon="16.01427">
        <ele>1147.585234</ele>
        <time>2026-07-08T07:00:13.000Z</time>
      </trkpt>
      <trkpt lat="47.51837" lon="16.01435">
        <ele>1146.920911</ele>
        <time>2026-07-08T07:00:14.000Z</time>
      </trkpt>
      <trkpt lat="47.51836" lon="16.01443">
        <ele>1146.221887</ele>
        <time>2026-07-08T07:00:15.000Z</time>
      </trkpt>
      <trkpt lat="47.51833" lon="16.01451">
        <ele>1145.505817</ele>
        <time>2026-07-08T07:00:16.000Z</time>
      </trkpt>
      <trkpt lat="47.51831" lon="16.01459">
        <ele>1144.818271</ele>
        <time>2026-07-08T07:00:17.000Z</time>
      </trkpt>
      <trkpt lat="47.51829" lon="16.01466">
        <ele>1144.144423</ele>
        <time>2026-07-08T07:00:18.000Z</time>
      </trkpt>
      <trkpt lat="47.51827" lon="16.01475">
        <ele>1143.425376</ele>
        <time>2026-07-08T07:00:19.000Z</time>
      </trkpt>
      <trkpt lat="47.51825" lon="16.01483">
        <ele>1142.714884</ele>
        <time>2026-07-08T07:00:20.000Z</time>
      </trkpt>
      <trkpt lat="47.51823" lon="16.01491">
        <ele>1142.015419</ele>
        <time>2026-07-08T07:00:21.000Z</time>
      </trkpt>
      <trkpt lat="47.51822" lon="16.01499">
        <ele>1141.306208</ele>
        <time>2026-07-08T07:00:22.000Z</time>
      </trkpt>
      <trkpt lat="47.51821" lon="16.01508">
        <ele>1140.580066</ele>
        <time>2026-07-08T07:00:23.000Z</time>
      </trkpt>
      <trkpt lat="47.5182" lon="16.01516">
        <ele>1139.90101</ele>
        <time>2026-07-08T07:00:24.000Z</time>
      </trkpt>
      <trkpt lat="47.51819" lon="16.01524">
        <ele>1139.24361</ele>
        <time>2026-07-08T07:00:25.000Z</time>
      </trkpt>
      <trkpt lat="47.51819" lon="16.01533">
        <ele>1138.550493</ele>
        <time>2026-07-08T07:00:26.000Z</time>
      </trkpt>
      <trkpt lat="47.5182" lon="16.01541">
        <ele>1137.86724</ele>
        <time>2026-07-08T07:00:27.000Z</time>
      </trkpt>
      <trkpt lat="47.51821" lon="16.0155">
        <ele>1137.166082</ele>
        <time>2026-07-08T07:00:28.000Z</time>
      </trkpt>
      <trkpt lat="47.51822" lon="16.01558">
        <ele>1136.487026</ele>
        <time>2026-07-08T07:00:29.000Z</time>
      </trkpt>
      <trkpt lat="47.51823" lon="16.01566">
        <ele>1135.779562</ele>
        <time>2026-07-08T07:00:30.000Z</time>
      </trkpt>
      <trkpt lat="47.51823" lon="16.01575">
        <ele>1135.049366</ele>
        <time>2026-07-08T07:00:31.000Z</time>
      </trkpt>
      <trkpt lat="47.51824" lon="16.01585">
        <ele>1134.266189</ele>
        <time>2026-07-08T07:00:32.000Z</time>
      </trkpt>
      <trkpt lat="47.51823" lon="16.01594">
        <ele>1133.543398</ele>
        <time>2026-07-08T07:00:33.000Z</time>
      </trkpt>
      <trkpt lat="47.51823" lon="16.01603">
        <ele>1132.942113</ele>
        <time>2026-07-08T07:00:34.000Z</time>
      </trkpt>
      <trkpt lat="47.51821" lon="16.01611">
        <ele>1132.393818</ele>
        <time>2026-07-08T07:00:35.000Z</time>
      </trkpt>
      <trkpt lat="47.51819" lon="16.0162">
        <ele>1131.830946</ele>
        <time>2026-07-08T07:00:36.000Z</time>
      </trkpt>
      <trkpt lat="47.51817" lon="16.01628">
        <ele>1131.277345</ele>
        <time>2026-07-08T07:00:37.000Z</time>
      </trkpt>
      <trkpt lat="47.51815" lon="16.01636">
        <ele>1130.691674</ele>
        <time>2026-07-08T07:00:38.000Z</time>
      </trkpt>
      <trkpt lat="47.51812" lon="16.01643">
        <ele>1130.132237</ele>
        <time>2026-07-08T07:00:39.000Z</time>
      </trkpt>
      <trkpt lat="47.51809" lon="16.01651">
        <ele>1129.545255</ele>
        <time>2026-07-08T07:00:40.000Z</time>
      </trkpt>
      <trkpt lat="47.51806" lon="16.0166">
        <ele>1128.901302</ele>
        <time>2026-07-08T07:00:41.000Z</time>
      </trkpt>
      <trkpt lat="47.51802" lon="16.01669">
        <ele>1128.187018</ele>
        <time>2026-07-08T07:00:42.000Z</time>
      </trkpt>
      <trkpt lat="47.51798" lon="16.01679">
        <ele>1127.429318</ele>
        <time>2026-07-08T07:00:43.000Z</time>
      </trkpt>
      <trkpt lat="47.51793" lon="16.01689">
        <ele>1126.628418</ele>
        <time>2026-07-08T07:00:44.000Z</time>
      </trkpt>
      <trkpt lat="47.51788" lon="16.01698">
        <ele>1125.84376</ele>
        <time>2026-07-08T07:00:45.000Z</time>
      </trkpt>
      <trkpt lat="47.51784" lon="16.01709">
        <ele>1125.063886</ele>
        <time>2026-07-08T07:00:46.000Z</time>
      </trkpt>
      <trkpt lat="47.5178" lon="16.01718">
        <ele>1124.316364</ele>
        <time>2026-07-08T07:00:47.000Z</time>
      </trkpt>
      <trkpt lat="47.51775" lon="16.01728">
        <ele>1123.503522</ele>
        <time>2026-07-08T07:00:48.000Z</time>
      </trkpt>
      <trkpt lat="47.5177" lon="16.01739">
        <ele>1122.664963</ele>
        <time>2026-07-08T07:00:49.000Z</time>
      </trkpt>
      <trkpt lat="47.51765" lon="16.0175">
        <ele>1121.777585</ele>
        <time>2026-07-08T07:00:50.000Z</time>
      </trkpt>
      <trkpt lat="47.51761" lon="16.01762">
        <ele>1120.919463</ele>
        <time>2026-07-08T07:00:51.000Z</time>
      </trkpt>
      <trkpt lat="47.51756" lon="16.01773">
        <ele>1120.063084</ele>
        <time>2026-07-08T07:00:52.000Z</time>
      </trkpt>
      <trkpt lat="47.51752" lon="16.01785">
        <ele>1119.209666</ele>
        <time>2026-07-08T07:00:53.000Z</time>
      </trkpt>
      <trkpt lat="47.51749" lon="16.01796">
        <ele>1118.424912</ele>
        <time>2026-07-08T07:00:54.000Z</time>
      </trkpt>
      <trkpt lat="47.51745" lon="16.01806">
        <ele>1117.690699</ele>
        <time>2026-07-08T07:00:55.000Z</time>
      </trkpt>
      <trkpt lat="47.51742" lon="16.01815">
        <ele>1116.996038</ele>
        <time>2026-07-08T07:00:56.000Z</time>
      </trkpt>
      <trkpt lat="47.51739" lon="16.01824">
        <ele>1116.351118</ele>
        <time>2026-07-08T07:00:57.000Z</time>
      </trkpt>
      <trkpt lat="47.51735" lon="16.01832">
        <ele>1116.002168</ele>
        <time>2026-07-08T07:00:58.000Z</time>
      </trkpt>
      <trkpt lat="47.51732" lon="16.01839">
        <ele>1115.693729</ele>
        <time>2026-07-08T07:00:59.000Z</time>
      </trkpt>
      <trkpt lat="47.51729" lon="16.01847">
        <ele>1115.387371</ele>
        <time>2026-07-08T07:01:00.000Z</time>
      </trkpt>
      <trkpt lat="47.51726" lon="16.01855">
        <ele>1115.075608</ele>
        <time>2026-07-08T07:01:01.000Z</time>
      </trkpt>
      <trkpt lat="47.51722" lon="16.01863">
        <ele>1114.760956</ele>
        <time>2026-07-08T07:01:02.000Z</time>
      </trkpt>
      <trkpt lat="47.51719" lon="16.01871">
        <ele>1114.454134</ele>
        <time>2026-07-08T07:01:03.000Z</time>
      </trkpt>
      <trkpt lat="47.51717" lon="16.0188">
        <ele>1114.146038</ele>
        <time>2026-07-08T07:01:04.000Z</time>
      </trkpt>
      <trkpt lat="47.51714" lon="16.01888">
        <ele>1113.832768</ele>
        <time>2026-07-08T07:01:05.000Z</time>
      </trkpt>
      <trkpt lat="47.51712" lon="16.01897">
        <ele>1113.530956</ele>
        <time>2026-07-08T07:01:06.000Z</time>
      </trkpt>
      <trkpt lat="47.5171" lon="16.01905">
        <ele>1113.235468</ele>
        <time>2026-07-08T07:01:07.000Z</time>
      </trkpt>
      <trkpt lat="47.51708" lon="16.01913">
        <ele>1112.93998</ele>
        <time>2026-07-08T07:01:08.000Z</time>
      </trkpt>
      <trkpt lat="47.51706" lon="16.01922">
        <ele>1112.637885</ele>
        <time>2026-07-08T07:01:09.000Z</time>
      </trkpt>
      <trkpt lat="47.51704" lon="16.0193">
        <ele>1112.336072</ele>
        <time>2026-07-08T07:01:10.000Z</time>
      </trkpt>
      <trkpt lat="47.51703" lon="16.01939">
        <ele>1112.040573</ele>
        <time>2026-07-08T07:01:11.000Z</time>
      </trkpt>
      <trkpt lat="47.51701" lon="16.01947">
        <ele>1111.743539</ele>
        <time>2026-07-08T07:01:12.000Z</time>
      </trkpt>
      <trkpt lat="47.51699" lon="16.01956">
        <ele>1111.441725</ele>
        <time>2026-07-08T07:01:13.000Z</time>
      </trkpt>
      <trkpt lat="47.51697" lon="16.01964">
        <ele>1111.139831</ele>
        <time>2026-07-08T07:01:14.000Z</time>
      </trkpt>
      <trkpt lat="47.51696" lon="16.01974">
        <ele>1110.820755</ele>
        <time>2026-07-08T07:01:15.000Z</time>
      </trkpt>
      <trkpt lat="47.51695" lon="16.01983">
        <ele>1110.498367</ele>
        <time>2026-07-08T07:01:16.000Z</time>
      </trkpt>
      <trkpt lat="47.51694" lon="16.01993">
        <ele>1110.173352</ele>
        <time>2026-07-08T07:01:17.000Z</time>
      </trkpt>
      <trkpt lat="47.51693" lon="16.02003">
        <ele>1109.831756</ele>
        <time>2026-07-08T07:01:18.000Z</time>
      </trkpt>
      <trkpt lat="47.51692" lon="16.02013">
        <ele>1109.477113</ele>
        <time>2026-07-08T07:01:19.000Z</time>
      </trkpt>
      <trkpt lat="47.5169" lon="16.02023">
        <ele>1109.13036</ele>
        <time>2026-07-08T07:01:20.000Z</time>
      </trkpt>
      <trkpt lat="47.51688" lon="16.02034">
        <ele>1108.760618</ele>
        <time>2026-07-08T07:01:21.000Z</time>
      </trkpt>
      <trkpt lat="47.51686" lon="16.02045">
        <ele>1108.389644</ele>
        <time>2026-07-08T07:01:22.000Z</time>
      </trkpt>
      <trkpt lat="47.51684" lon="16.02055">
        <ele>1108.023836</ele>
        <time>2026-07-08T07:01:23.000Z</time>
      </trkpt>
      <trkpt lat="47.51682" lon="16.02065">
        <ele>1107.672692</ele>
        <time>2026-07-08T07:01:24.000Z</time>
      </trkpt>
      <trkpt lat="47.51679" lon="16.02075">
        <ele>1107.253313</ele>
        <time>2026-07-08T07:01:25.000Z</time>
      </trkpt>
      <trkpt lat="47.51677" lon="16.02085">
        <ele>1106.371626</ele>
        <time>2026-07-08T07:01:26.000Z</time>
      </trkpt>
      <trkpt lat="47.51674" lon="16.02095">
        <ele>1105.480606</ele>
        <time>2026-07-08T07:01:27.000Z</time>
      </trkpt>
      <trkpt lat="47.51672" lon="16.02105">
        <ele>1104.62464</ele>
        <time>2026-07-08T07:01:28.000Z</time>
      </trkpt>
      <trkpt lat="47.51669" lon="16.02114">
        <ele>1103.80593</ele>
        <time>2026-07-08T07:01:29.000Z</time>
      </trkpt>
      <trkpt lat="47.51666" lon="16.02122">
        <ele>1103.006828</ele>
        <time>2026-07-08T07:01:30.000Z</time>
      </trkpt>
      <trkpt lat="47.51663" lon="16.0213">
        <ele>1102.244191</ele>
        <time>2026-07-08T07:01:31.000Z</time>
      </trkpt>
      <trkpt lat="47.5166" lon="16.02138">
        <ele>1101.452295</ele>
        <time>2026-07-08T07:01:32.000Z</time>
      </trkpt>
      <trkpt lat="47.51656" lon="16.02146">
        <ele>1100.648892</ele>
        <time>2026-07-08T07:01:33.000Z</time>
      </trkpt>
      <trkpt lat="47.51652" lon="16.02154">
        <ele>1099.893529</ele>
        <time>2026-07-08T07:01:34.000Z</time>
      </trkpt>
      <trkpt lat="47.51649" lon="16.02161">
        <ele>1099.192968</ele>
        <time>2026-07-08T07:01:35.000Z</time>
      </trkpt>
      <trkpt lat="47.51646" lon="16.02166">
        <ele>1098.600709</ele>
        <time>2026-07-08T07:01:36.000Z</time>
      </trkpt>
      <trkpt lat="47.51643" lon="16.02171">
        <ele>1098.076714</ele>
        <time>2026-07-08T07:01:37.000Z</time>
      </trkpt>
      <trkpt lat="47.51641" lon="16.02176">
        <ele>1097.598493</ele>
        <time>2026-07-08T07:01:38.000Z</time>
      </trkpt>
      <trkpt lat="47.51638" lon="16.0218">
        <ele>1097.045509</ele>
        <time>2026-07-08T07:01:39.000Z</time>
      </trkpt>
      <trkpt lat="47.51635" lon="16.02185">
        <ele>1096.532398</ele>
        <time>2026-07-08T07:01:40.000Z</time>
      </trkpt>
      <trkpt lat="47.51632" lon="16.02189">
        <ele>1096.063807</ele>
        <time>2026-07-08T07:01:41.000Z</time>
      </trkpt>
      <trkpt lat="47.5163" lon="16.02193">
        <ele>1095.647136</ele>
        <time>2026-07-08T07:01:42.000Z</time>
      </trkpt>
      <trkpt lat="47.51628" lon="16.02196">
        <ele>1095.262926</ele>
        <time>2026-07-08T07:01:43.000Z</time>
      </trkpt>
      <trkpt lat="47.51625" lon="16.02199">
        <ele>1094.86419</ele>
        <time>2026-07-08T07:01:44.000Z</time>
      </trkpt>
      <trkpt lat="47.51623" lon="16.02203">
        <ele>1094.418425</ele>
        <time>2026-07-08T07:01:45.000Z</time>
      </trkpt>
      <trkpt lat="47.51621" lon="16.02206">
        <ele>1094.038541</ele>
        <time>2026-07-08T07:01:46.000Z</time>
      </trkpt>
      <trkpt lat="47.51619" lon="16.0221">
        <ele>1093.701193</ele>
        <time>2026-07-08T07:01:47.000Z</time>
      </trkpt>
      <trkpt lat="47.51617" lon="16.02213">
        <ele>1093.321309</ele>
        <time>2026-07-08T07:01:48.000Z</time>
      </trkpt>
      <trkpt lat="47.51615" lon="16.02217">
        <ele>1092.920847</ele>
        <time>2026-07-08T07:01:49.000Z</time>
      </trkpt>
      <trkpt lat="47.51613" lon="16.02221">
        <ele>1092.508841</ele>
        <time>2026-07-08T07:01:50.000Z</time>
      </trkpt>
      <trkpt lat="47.51611" lon="16.02226">
        <ele>1092.014402</ele>
        <time>2026-07-08T07:01:51.000Z</time>
      </trkpt>
      <trkpt lat="47.51608" lon="16.0223">
        <ele>1091.525166</ele>
        <time>2026-07-08T07:01:52.000Z</time>
      </trkpt>
      <trkpt lat="47.51606" lon="16.02236">
        <ele>1091.00262</ele>
        <time>2026-07-08T07:01:53.000Z</time>
      </trkpt>
      <trkpt lat="47.51603" lon="16.02241">
        <ele>1090.487143</ele>
        <time>2026-07-08T07:01:54.000Z</time>
      </trkpt>
      <trkpt lat="47.51601" lon="16.02245">
        <ele>1090.017014</ele>
        <time>2026-07-08T07:01:55.000Z</time>
      </trkpt>
      <trkpt lat="47.51598" lon="16.0225">
        <ele>1089.514759</ele>
        <time>2026-07-08T07:01:56.000Z</time>
      </trkpt>
      <trkpt lat="47.51596" lon="16.02255">
        <ele>1089.033835</ele>
        <time>2026-07-08T07:01:57.000Z</time>
      </trkpt>
      <trkpt lat="47.51594" lon="16.02259">
        <ele>1088.560005</ele>
        <time>2026-07-08T07:01:58.000Z</time>
      </trkpt>
      <trkpt lat="47.51591" lon="16.02265">
        <ele>1088.003733</ele>
        <time>2026-07-08T07:01:59.000Z</time>
      </trkpt>
      <trkpt lat="47.51589" lon="16.02271">
        <ele>1087.452539</ele>
        <time>2026-07-08T07:02:00.000Z</time>
      </trkpt>
      <trkpt lat="47.51587" lon="16.02277">
        <ele>1086.82978</ele>
        <time>2026-07-08T07:02:01.000Z</time>
      </trkpt>
      <trkpt lat="47.51584" lon="16.02283">
        <ele>1086.251969</ele>
        <time>2026-07-08T07:02:02.000Z</time>
      </trkpt>
      <trkpt lat="47.51582" lon="16.02289">
        <ele>1085.680311</ele>
        <time>2026-07-08T07:02:03.000Z</time>
      </trkpt>
      <trkpt lat="47.5158" lon="16.02295">
        <ele>1085.10033</ele>
        <time>2026-07-08T07:02:04.000Z</time>
      </trkpt>
      <trkpt lat="47.51578" lon="16.023">
        <ele>1084.465458</ele>
        <time>2026-07-08T07:02:05.000Z</time>
      </trkpt>
      <trkpt lat="47.51576" lon="16.02306">
        <ele>1083.839605</ele>
        <time>2026-07-08T07:02:06.000Z</time>
      </trkpt>
      <trkpt lat="47.51574" lon="16.02311">
        <ele>1083.221052</ele>
        <time>2026-07-08T07:02:07.000Z</time>
      </trkpt>
      <trkpt lat="47.51572" lon="16.02317">
        <ele>1082.540534</ele>
        <time>2026-07-08T07:02:08.000Z</time>
      </trkpt>
      <trkpt lat="47.5157" lon="16.02323">
        <ele>1081.820352</ele>
        <time>2026-07-08T07:02:09.000Z</time>
      </trkpt>
      <trkpt lat="47.51567" lon="16.02329">
        <ele>1081.118099</ele>
        <time>2026-07-08T07:02:10.000Z</time>
      </trkpt>
      <trkpt lat="47.51565" lon="16.02334">
        <ele>1080.426101</ele>
        <time>2026-07-08T07:02:11.000Z</time>
      </trkpt>
      <trkpt lat="47.51563" lon="16.0234">
        <ele>1079.755361</ele>
        <time>2026-07-08T07:02:12.000Z</time>
      </trkpt>
      <trkpt lat="47.51561" lon="16.02346">
        <ele>1079.111429</ele>
        <time>2026-07-08T07:02:13.000Z</time>
      </trkpt>
      <trkpt lat="47.51559" lon="16.02351">
        <ele>1078.512382</ele>
        <time>2026-07-08T07:02:14.000Z</time>
      </trkpt>
      <trkpt lat="47.51556" lon="16.02356">
        <ele>1077.799043</ele>
        <time>2026-07-08T07:02:15.000Z</time>
      </trkpt>
      <trkpt lat="47.51553" lon="16.02361">
        <ele>1077.086177</ele>
        <time>2026-07-08T07:02:16.000Z</time>
      </trkpt>
      <trkpt lat="47.51549" lon="16.02367">
        <ele>1076.268893</ele>
        <time>2026-07-08T07:02:17.000Z</time>
      </trkpt>
      <trkpt lat="47.51546" lon="16.02373">
        <ele>1075.477187</ele>
        <time>2026-07-08T07:02:18.000Z</time>
      </trkpt>
      <trkpt lat="47.51543" lon="16.02379">
        <ele>1074.707617</ele>
        <time>2026-07-08T07:02:19.000Z</time>
      </trkpt>
      <trkpt lat="47.5154" lon="16.02385">
        <ele>1073.94546</ele>
        <time>2026-07-08T07:02:20.000Z</time>
      </trkpt>
      <trkpt lat="47.51538" lon="16.02391">
        <ele>1073.201879</ele>
        <time>2026-07-08T07:02:21.000Z</time>
      </trkpt>
      <trkpt lat="47.51535" lon="16.02397">
        <ele>1072.526858</ele>
        <time>2026-07-08T07:02:22.000Z</time>
      </trkpt>
      <trkpt lat="47.51533" lon="16.02402">
        <ele>1071.875549</ele>
        <time>2026-07-08T07:02:23.000Z</time>
      </trkpt>
      <trkpt lat="47.51531" lon="16.02408">
        <ele>1071.200652</ele>
        <time>2026-07-08T07:02:24.000Z</time>
      </trkpt>
      <trkpt lat="47.51529" lon="16.02413">
        <ele>1070.602654</ele>
        <time>2026-07-08T07:02:25.000Z</time>
      </trkpt>
      <trkpt lat="47.51526" lon="16.02417">
        <ele>1070.029983</ele>
        <time>2026-07-08T07:02:26.000Z</time>
      </trkpt>
      <trkpt lat="47.51524" lon="16.02422">
        <ele>1069.474661</ele>
        <time>2026-07-08T07:02:27.000Z</time>
      </trkpt>
      <trkpt lat="47.51522" lon="16.02426">
        <ele>1068.893723</ele>
        <time>2026-07-08T07:02:28.000Z</time>
      </trkpt>
      <trkpt lat="47.5152" lon="16.02432">
        <ele>1068.209366</ele>
        <time>2026-07-08T07:02:29.000Z</time>
      </trkpt>
      <trkpt lat="47.51517" lon="16.02437">
        <ele>1067.516017</ele>
        <time>2026-07-08T07:02:30.000Z</time>
      </trkpt>
      <trkpt lat="47.51515" lon="16.02444">
        <ele>1066.738126</ele>
        <time>2026-07-08T07:02:31.000Z</time>
      </trkpt>
      <trkpt lat="47.51512" lon="16.0245">
        <ele>1065.977811</ele>
        <time>2026-07-08T07:02:32.000Z</time>
      </trkpt>
      <trkpt lat="47.51508" lon="16.02457">
        <ele>1065.026366</ele>
        <time>2026-07-08T07:02:33.000Z</time>
      </trkpt>
      <trkpt lat="47.51504" lon="16.02464">
        <ele>1064.094571</ele>
        <time>2026-07-08T07:02:34.000Z</time>
      </trkpt>
      <trkpt lat="47.51501" lon="16.02471">
        <ele>1063.186339</ele>
        <time>2026-07-08T07:02:35.000Z</time>
      </trkpt>
      <trkpt lat="47.51496" lon="16.02479">
        <ele>1062.141787</ele>
        <time>2026-07-08T07:02:36.000Z</time>
      </trkpt>
      <trkpt lat="47.51492" lon="16.02488">
        <ele>1061.065021</ele>
        <time>2026-07-08T07:02:37.000Z</time>
      </trkpt>
      <trkpt lat="47.51488" lon="16.02496">
        <ele>1059.952813</ele>
        <time>2026-07-08T07:02:38.000Z</time>
      </trkpt>
      <trkpt lat="47.51484" lon="16.02505">
        <ele>1058.866256</ele>
        <time>2026-07-08T07:02:39.000Z</time>
      </trkpt>
      <trkpt lat="47.5148" lon="16.02513">
        <ele>1057.856651</ele>
        <time>2026-07-08T07:02:40.000Z</time>
      </trkpt>
      <trkpt lat="47.51475" lon="16.0252">
        <ele>1057.178003</ele>
        <time>2026-07-08T07:02:41.000Z</time>
      </trkpt>
      <trkpt lat="47.51472" lon="16.02527">
        <ele>1056.603662</ele>
        <time>2026-07-08T07:02:42.000Z</time>
      </trkpt>
      <trkpt lat="47.51467" lon="16.02534">
        <ele>1055.94466</ele>
        <time>2026-07-08T07:02:43.000Z</time>
      </trkpt>
      <trkpt lat="47.51462" lon="16.02541">
        <ele>1055.241093</ele>
        <time>2026-07-08T07:02:44.000Z</time>
      </trkpt>
      <trkpt lat="47.51457" lon="16.02549">
        <ele>1054.525658</ele>
        <time>2026-07-08T07:02:45.000Z</time>
      </trkpt>
      <trkpt lat="47.51452" lon="16.02556">
        <ele>1053.827216</ele>
        <time>2026-07-08T07:02:46.000Z</time>
      </trkpt>
      <trkpt lat="47.51447" lon="16.02563">
        <ele>1053.12404</ele>
        <time>2026-07-08T07:02:47.000Z</time>
      </trkpt>
      <trkpt lat="47.51441" lon="16.02571">
        <ele>1052.359463</ele>
        <time>2026-07-08T07:02:48.000Z</time>
      </trkpt>
      <trkpt lat="47.51436" lon="16.0258">
        <ele>1051.587237</ele>
        <time>2026-07-08T07:02:49.000Z</time>
      </trkpt>
      <trkpt lat="47.51431" lon="16.02589">
        <ele>1050.791587</ele>
        <time>2026-07-08T07:02:50.000Z</time>
      </trkpt>
      <trkpt lat="47.51426" lon="16.02598">
        <ele>1050.008721</ele>
        <time>2026-07-08T07:02:51.000Z</time>
      </trkpt>
      <trkpt lat="47.51421" lon="16.02606">
        <ele>1049.271755</ele>
        <time>2026-07-08T07:02:52.000Z</time>
      </trkpt>
      <trkpt lat="47.51417" lon="16.02615">
        <ele>1048.581438</ele>
        <time>2026-07-08T07:02:53.000Z</time>
      </trkpt>
      <trkpt lat="47.51414" lon="16.02624">
        <ele>1047.920634</ele>
        <time>2026-07-08T07:02:54.000Z</time>
      </trkpt>
      <trkpt lat="47.51412" lon="16.02633">
        <ele>1047.223167</ele>
        <time>2026-07-08T07:02:55.000Z</time>
      </trkpt>
      <trkpt lat="47.51409" lon="16.02644">
        <ele>1046.491204</ele>
        <time>2026-07-08T07:02:56.000Z</time>
      </trkpt>
      <trkpt lat="47.51407" lon="16.02655">
        <ele>1045.710345</ele>
        <time>2026-07-08T07:02:57.000Z</time>
      </trkpt>
      <trkpt lat="47.51405" lon="16.02666">
        <ele>1044.907395</ele>
        <time>2026-07-08T07:02:58.000Z</time>
      </trkpt>
      <trkpt lat="47.51403" lon="16.02678">
        <ele>1044.075046</ele>
        <time>2026-07-08T07:02:59.000Z</time>
      </trkpt>
      <trkpt lat="47.51401" lon="16.02691">
        <ele>1043.212067</ele>
        <time>2026-07-08T07:03:00.000Z</time>
      </trkpt>
      <trkpt lat="47.51399" lon="16.02703">
        <ele>1042.381737</ele>
        <time>2026-07-08T07:03:01.000Z</time>
      </trkpt>
      <trkpt lat="47.51397" lon="16.02715">
        <ele>1041.560291</ele>
        <time>2026-07-08T07:03:02.000Z</time>
      </trkpt>
      <trkpt lat="47.51395" lon="16.02726">
        <ele>1040.792368</ele>
        <time>2026-07-08T07:03:03.000Z</time>
      </trkpt>
      <trkpt lat="47.51392" lon="16.02736">
        <ele>1040.037595</ele>
        <time>2026-07-08T07:03:04.000Z</time>
      </trkpt>
      <trkpt lat="47.51389" lon="16.02746">
        <ele>1039.551654</ele>
        <time>2026-07-08T07:03:05.000Z</time>
      </trkpt>
      <trkpt lat="47.51386" lon="16.02757">
        <ele>1039.102382</ele>
        <time>2026-07-08T07:03:06.000Z</time>
      </trkpt>
      <trkpt lat="47.51383" lon="16.02768">
        <ele>1038.62945</ele>
        <time>2026-07-08T07:03:07.000Z</time>
      </trkpt>
      <trkpt lat="47.5138" lon="16.02778">
        <ele>1038.162944</ele>
        <time>2026-07-08T07:03:08.000Z</time>
      </trkpt>
      <trkpt lat="47.51376" lon="16.02788">
        <ele>1037.698201</ele>
        <time>2026-07-08T07:03:09.000Z</time>
      </trkpt>
      <trkpt lat="47.51372" lon="16.02798">
        <ele>1037.246331</ele>
        <time>2026-07-08T07:03:10.000Z</time>
      </trkpt>
      <trkpt lat="47.51368" lon="16.02808">
        <ele>1036.788035</ele>
        <time>2026-07-08T07:03:11.000Z</time>
      </trkpt>
      <trkpt lat="47.51364" lon="16.02817">
        <ele>1036.360213</ele>
        <time>2026-07-08T07:03:12.000Z</time>
      </trkpt>
      <trkpt lat="47.51361" lon="16.02825">
        <ele>1035.965539</ele>
        <time>2026-07-08T07:03:13.000Z</time>
      </trkpt>
      <trkpt lat="47.51357" lon="16.02833">
        <ele>1035.617536</ele>
        <time>2026-07-08T07:03:14.000Z</time>
      </trkpt>
      <trkpt lat="47.51356" lon="16.02838">
        <ele>1035.362294</ele>
        <time>2026-07-08T07:03:15.000Z</time>
      </trkpt>
      <trkpt lat="47.51354" lon="16.02842">
        <ele>1035.206061</ele>
        <time>2026-07-08T07:03:16.000Z</time>
      </trkpt>
      <trkpt lat="47.51353" lon="16.02843">
        <ele>1035.103747</ele>
        <time>2026-07-08T07:03:17.000Z</time>
      </trkpt>
      <trkpt lat="47.51352" lon="16.02844">
        <ele>1035.039865</ele>
        <time>2026-07-08T07:03:18.000Z</time>
      </trkpt>
      <trkpt lat="47.51352" lon="16.02844">
        <ele>1035.022103</ele>
        <time>2026-07-08T07:03:19.000Z</time>
      </trkpt>
      <trkpt lat="47.51351" lon="16.02851">
        <ele>1034.738208</ele>
        <time>2026-07-08T07:03:36.000Z</time>
      </trkpt>
      <trkpt lat="47.5135" lon="16.02854">
        <ele>1034.589917</ele>
        <time>2026-07-08T07:03:37.000Z</time>
      </trkpt>
      <trkpt lat="47.51348" lon="16.02858">
        <ele>1034.406965</ele>
        <time>2026-07-08T07:03:38.000Z</time>
      </trkpt>
      <trkpt lat="47.51346" lon="16.02863">
        <ele>1034.20149</ele>
        <time>2026-07-08T07:03:39.000Z</time>
      </trkpt>
      <trkpt lat="47.51345" lon="16.02867">
        <ele>1033.987444</ele>
        <time>2026-07-08T07:03:40.000Z</time>
      </trkpt>
      <trkpt lat="47.51343" lon="16.02873">
        <ele>1033.756428</ele>
        <time>2026-07-08T07:03:41.000Z</time>
      </trkpt>
      <trkpt lat="47.51342" lon="16.02878">
        <ele>1033.537652</ele>
        <time>2026-07-08T07:03:42.000Z</time>
      </trkpt>
      <trkpt lat="47.5134" lon="16.02882">
        <ele>1033.330853</ele>
        <time>2026-07-08T07:03:43.000Z</time>
      </trkpt>
      <trkpt lat="47.51339" lon="16.02887">
        <ele>1033.152773</ele>
        <time>2026-07-08T07:03:44.000Z</time>
      </trkpt>
      <trkpt lat="47.51339" lon="16.02891">
        <ele>1032.991077</ele>
        <time>2026-07-08T07:03:45.000Z</time>
      </trkpt>
      <trkpt lat="47.51339" lon="16.02894">
        <ele>1032.843121</ele>
        <time>2026-07-08T07:03:46.000Z</time>
      </trkpt>
      <trkpt lat="47.51338" lon="16.02897">
        <ele>1032.718007</ele>
        <time>2026-07-08T07:03:47.000Z</time>
      </trkpt>
      <trkpt lat="47.51338" lon="16.02899">
        <ele>1032.624362</ele>
        <time>2026-07-08T07:03:48.000Z</time>
      </trkpt>
      <trkpt lat="47.51337" lon="16.02901">
        <ele>1032.560957</ele>
        <time>2026-07-08T07:03:49.000Z</time>
      </trkpt>
      <trkpt lat="47.51337" lon="16.02901">
        <ele>1032.548961</ele>
        <time>2026-07-08T07:03:50.000Z</time>
      </trkpt>
      <trkpt lat="47.51335" lon="16.0291">
        <ele>1032.173885</ele>
        <time>2026-07-08T07:05:54.000Z</time>
      </trkpt>
      <trkpt lat="47.51334" lon="16.02912">
        <ele>1032.051203</ele>
        <time>2026-07-08T07:05:55.000Z</time>
      </trkpt>
      <trkpt lat="47.51333" lon="16.02916">
        <ele>1031.904841</ele>
        <time>2026-07-08T07:05:56.000Z</time>
      </trkpt>
      <trkpt lat="47.51331" lon="16.02919">
        <ele>1031.75497</ele>
        <time>2026-07-08T07:05:57.000Z</time>
      </trkpt>
      <trkpt lat="47.5133" lon="16.02923">
        <ele>1031.582407</ele>
        <time>2026-07-08T07:05:58.000Z</time>
      </trkpt>
      <trkpt lat="47.51328" lon="16.02927">
        <ele>1031.389584</ele>
        <time>2026-07-08T07:05:59.000Z</time>
      </trkpt>
      <trkpt lat="47.51326" lon="16.02931">
        <ele>1031.180808</ele>
        <time>2026-07-08T07:06:00.000Z</time>
      </trkpt>
      <trkpt lat="47.51324" lon="16.02936">
        <ele>1030.951524</ele>
        <time>2026-07-08T07:06:01.000Z</time>
      </trkpt>
      <trkpt lat="47.51322" lon="16.0294">
        <ele>1030.719434</ele>
        <time>2026-07-08T07:06:02.000Z</time>
      </trkpt>
      <trkpt lat="47.51319" lon="16.02945">
        <ele>1030.470668</ele>
        <time>2026-07-08T07:06:03.000Z</time>
      </trkpt>
      <trkpt lat="47.51317" lon="16.02951">
        <ele>1030.205566</ele>
        <time>2026-07-08T07:06:04.000Z</time>
      </trkpt>
      <trkpt lat="47.51314" lon="16.02956">
        <ele>1029.93043</ele>
        <time>2026-07-08T07:06:05.000Z</time>
      </trkpt>
      <trkpt lat="47.51311" lon="16.02962">
        <ele>1029.651914</ele>
        <time>2026-07-08T07:06:06.000Z</time>
      </trkpt>
      <trkpt lat="47.51309" lon="16.02968">
        <ele>1029.376035</ele>
        <time>2026-07-08T07:06:07.000Z</time>
      </trkpt>
      <trkpt lat="47.51307" lon="16.02974">
        <ele>1029.038789</ele>
        <time>2026-07-08T07:06:08.000Z</time>
      </trkpt>
      <trkpt lat="47.51305" lon="16.02981">
        <ele>1028.68567</ele>
        <time>2026-07-08T07:06:09.000Z</time>
      </trkpt>
      <trkpt lat="47.51303" lon="16.02987">
        <ele>1028.320945</ele>
        <time>2026-07-08T07:06:10.000Z</time>
      </trkpt>
      <trkpt lat="47.51302" lon="16.02994">
        <ele>1027.946636</ele>
        <time>2026-07-08T07:06:11.000Z</time>
      </trkpt>
      <trkpt lat="47.513" lon="16.03001">
        <ele>1027.550024</ele>
        <time>2026-07-08T07:06:12.000Z</time>
      </trkpt>
      <trkpt lat="47.51299" lon="16.03008">
        <ele>1027.14598</ele>
        <time>2026-07-08T07:06:13.000Z</time>
      </trkpt>
      <trkpt lat="47.51297" lon="16.03016">
        <ele>1026.732028</ele>
        <time>2026-07-08T07:06:14.000Z</time>
      </trkpt>
      <trkpt lat="47.51295" lon="16.03023">
        <ele>1026.315547</ele>
        <time>2026-07-08T07:06:15.000Z</time>
      </trkpt>
      <trkpt lat="47.51293" lon="16.03031">
        <ele>1025.887692</ele>
        <time>2026-07-08T07:06:16.000Z</time>
      </trkpt>
      <trkpt lat="47.5129" lon="16.03039">
        <ele>1025.430103</ele>
        <time>2026-07-08T07:06:17.000Z</time>
      </trkpt>
      <trkpt lat="47.51288" lon="16.03046">
        <ele>1025.00861</ele>
        <time>2026-07-08T07:06:18.000Z</time>
      </trkpt>
      <trkpt lat="47.51285" lon="16.03054">
        <ele>1024.56487</ele>
        <time>2026-07-08T07:06:19.000Z</time>
      </trkpt>
      <trkpt lat="47.51283" lon="16.03062">
        <ele>1024.109919</ele>
        <time>2026-07-08T07:06:20.000Z</time>
      </trkpt>
      <trkpt lat="47.51281" lon="16.0307">
        <ele>1023.633612</ele>
        <time>2026-07-08T07:06:21.000Z</time>
      </trkpt>
      <trkpt lat="47.51279" lon="16.03079">
        <ele>1023.125467</ele>
        <time>2026-07-08T07:06:22.000Z</time>
      </trkpt>
      <trkpt lat="47.51277" lon="16.03089">
        <ele>1022.576861</ele>
        <time>2026-07-08T07:06:23.000Z</time>
      </trkpt>
      <trkpt lat="47.51275" lon="16.031">
        <ele>1022.010019</ele>
        <time>2026-07-08T07:06:24.000Z</time>
      </trkpt>
      <trkpt lat="47.51273" lon="16.03111">
        <ele>1021.424659</ele>
        <time>2026-07-08T07:06:25.000Z</time>
      </trkpt>
      <trkpt lat="47.51271" lon="16.03121">
        <ele>1020.848769</ele>
        <time>2026-07-08T07:06:26.000Z</time>
      </trkpt>
      <trkpt lat="47.5127" lon="16.03132">
        <ele>1020.281927</ele>
        <time>2026-07-08T07:06:27.000Z</time>
      </trkpt>
      <trkpt lat="47.51268" lon="16.03143">
        <ele>1019.700996</ele>
        <time>2026-07-08T07:06:28.000Z</time>
      </trkpt>
      <trkpt lat="47.51265" lon="16.03153">
        <ele>1019.110734</ele>
        <time>2026-07-08T07:06:29.000Z</time>
      </trkpt>
      <trkpt lat="47.51263" lon="16.03165">
        <ele>1018.488174</ele>
        <time>2026-07-08T07:06:30.000Z</time>
      </trkpt>
      <trkpt lat="47.5126" lon="16.03176">
        <ele>1017.851107</ele>
        <time>2026-07-08T07:06:31.000Z</time>
      </trkpt>
      <trkpt lat="47.51258" lon="16.03188">
        <ele>1017.211454</ele>
        <time>2026-07-08T07:06:32.000Z</time>
      </trkpt>
      <trkpt lat="47.51255" lon="16.032">
        <ele>1016.536999</ele>
        <time>2026-07-08T07:06:33.000Z</time>
      </trkpt>
      <trkpt lat="47.51252" lon="16.03212">
        <ele>1015.872674</ele>
        <time>2026-07-08T07:06:34.000Z</time>
      </trkpt>
      <trkpt lat="47.51249" lon="16.03224">
        <ele>1015.114135</ele>
        <time>2026-07-08T07:06:35.000Z</time>
      </trkpt>
      <trkpt lat="47.51246" lon="16.03236">
        <ele>1014.156071</ele>
        <time>2026-07-08T07:06:36.000Z</time>
      </trkpt>
      <trkpt lat="47.51243" lon="16.03247">
        <ele>1013.252925</ele>
        <time>2026-07-08T07:06:37.000Z</time>
      </trkpt>
      <trkpt lat="47.51241" lon="16.03257">
        <ele>1012.451748</ele>
        <time>2026-07-08T07:06:38.000Z</time>
      </trkpt>
      <trkpt lat="47.51239" lon="16.03265">
        <ele>1011.781618</ele>
        <time>2026-07-08T07:06:39.000Z</time>
      </trkpt>
      <trkpt lat="47.51238" lon="16.03272">
        <ele>1011.224222</ele>
        <time>2026-07-08T07:06:40.000Z</time>
      </trkpt>
      <trkpt lat="47.51235" lon="16.03276">
        <ele>1010.761514</ele>
        <time>2026-07-08T07:06:41.000Z</time>
      </trkpt>
      <trkpt lat="47.51231" lon="16.03279">
        <ele>1010.305028</ele>
        <time>2026-07-08T07:06:42.000Z</time>
      </trkpt>
      <trkpt lat="47.51227" lon="16.03279">
        <ele>1009.78126</ele>
        <time>2026-07-08T07:06:43.000Z</time>
      </trkpt>
      <trkpt lat="47.51221" lon="16.03277">
        <ele>1009.104654</ele>
        <time>2026-07-08T07:06:44.000Z</time>
      </trkpt>
      <trkpt lat="47.51216" lon="16.03274">
        <ele>1008.442706</ele>
        <time>2026-07-08T07:06:45.000Z</time>
      </trkpt>
      <trkpt lat="47.5121" lon="16.03271">
        <ele>1007.783218</ele>
        <time>2026-07-08T07:06:46.000Z</time>
      </trkpt>
      <trkpt lat="47.51205" lon="16.03269">
        <ele>1007.134799</ele>
        <time>2026-07-08T07:06:47.000Z</time>
      </trkpt>
      <trkpt lat="47.51199" lon="16.03268">
        <ele>1006.447605</ele>
        <time>2026-07-08T07:06:48.000Z</time>
      </trkpt>
      <trkpt lat="47.51193" lon="16.03269">
        <ele>1005.785296</ele>
        <time>2026-07-08T07:06:49.000Z</time>
      </trkpt>
      <trkpt lat="47.51187" lon="16.03271">
        <ele>1005.114876</ele>
        <time>2026-07-08T07:06:50.000Z</time>
      </trkpt>
      <trkpt lat="47.51182" lon="16.03274">
        <ele>1004.485407</ele>
        <time>2026-07-08T07:06:51.000Z</time>
      </trkpt>
      <trkpt lat="47.51177" lon="16.03279">
        <ele>1003.848372</ele>
        <time>2026-07-08T07:06:52.000Z</time>
      </trkpt>
      <trkpt lat="47.51173" lon="16.03284">
        <ele>1003.238898</ele>
        <time>2026-07-08T07:06:53.000Z</time>
      </trkpt>
      <trkpt lat="47.51169" lon="16.0329">
        <ele>1002.574634</ele>
        <time>2026-07-08T07:06:54.000Z</time>
      </trkpt>
      <trkpt lat="47.51165" lon="16.03296">
        <ele>1001.927028</ele>
        <time>2026-07-08T07:06:55.000Z</time>
      </trkpt>
      <trkpt lat="47.51162" lon="16.03303">
        <ele>1001.262844</ele>
        <time>2026-07-08T07:06:56.000Z</time>
      </trkpt>
      <trkpt lat="47.51158" lon="16.03311">
        <ele>1000.535216</ele>
        <time>2026-07-08T07:06:57.000Z</time>
      </trkpt>
      <trkpt lat="47.51154" lon="16.03319">
        <ele>999.796233</ele>
        <time>2026-07-08T07:06:58.000Z</time>
      </trkpt>
      <trkpt lat="47.51151" lon="16.03327">
        <ele>999.063497</ele>
        <time>2026-07-08T07:06:59.000Z</time>
      </trkpt>
      <trkpt lat="47.51147" lon="16.03335">
        <ele>998.336887</ele>
        <time>2026-07-08T07:07:00.000Z</time>
      </trkpt>
      <trkpt lat="47.51144" lon="16.03343">
        <ele>997.594284</ele>
        <time>2026-07-08T07:07:01.000Z</time>
      </trkpt>
      <trkpt lat="47.51141" lon="16.03352">
        <ele>996.79877</ele>
        <time>2026-07-08T07:07:02.000Z</time>
      </trkpt>
      <trkpt lat="47.51138" lon="16.03362">
        <ele>995.992586</ele>
        <time>2026-07-08T07:07:03.000Z</time>
      </trkpt>
      <trkpt lat="47.51136" lon="16.03371">
        <ele>995.201637</ele>
        <time>2026-07-08T07:07:04.000Z</time>
      </trkpt>
      <trkpt lat="47.51133" lon="16.03381">
        <ele>994.430225</ele>
        <time>2026-07-08T07:07:05.000Z</time>
      </trkpt>
      <trkpt lat="47.51132" lon="16.03391">
        <ele>993.712904</ele>
        <time>2026-07-08T07:07:06.000Z</time>
      </trkpt>
      <trkpt lat="47.51132" lon="16.034">
        <ele>992.991011</ele>
        <time>2026-07-08T07:07:07.000Z</time>
      </trkpt>
      <trkpt lat="47.51133" lon="16.03409">
        <ele>992.304868</ele>
        <time>2026-07-08T07:07:08.000Z</time>
      </trkpt>
      <trkpt lat="47.51135" lon="16.03419">
        <ele>991.5788</ele>
        <time>2026-07-08T07:07:09.000Z</time>
      </trkpt>
      <trkpt lat="47.51137" lon="16.03429">
        <ele>990.809774</ele>
        <time>2026-07-08T07:07:10.000Z</time>
      </trkpt>
      <trkpt lat="47.5114" lon="16.03439">
        <ele>989.997265</ele>
        <time>2026-07-08T07:07:11.000Z</time>
      </trkpt>
      <trkpt lat="47.51142" lon="16.03449">
        <ele>989.191636</ele>
        <time>2026-07-08T07:07:12.000Z</time>
      </trkpt>
      <trkpt lat="47.51146" lon="16.03458">
        <ele>988.40159</ele>
        <time>2026-07-08T07:07:13.000Z</time>
      </trkpt>
      <trkpt lat="47.51149" lon="16.03467">
        <ele>987.639467</ele>
        <time>2026-07-08T07:07:14.000Z</time>
      </trkpt>
      <trkpt lat="47.51153" lon="16.03476">
        <ele>986.886702</ele>
        <time>2026-07-08T07:07:15.000Z</time>
      </trkpt>
      <trkpt lat="47.51157" lon="16.03483">
        <ele>986.147393</ele>
        <time>2026-07-08T07:07:16.000Z</time>
      </trkpt>
      <trkpt lat="47.51162" lon="16.0349">
        <ele>985.391174</ele>
        <time>2026-07-08T07:07:17.000Z</time>
      </trkpt>
      <trkpt lat="47.51168" lon="16.03496">
        <ele>984.624357</ele>
        <time>2026-07-08T07:07:18.000Z</time>
      </trkpt>
      <trkpt lat="47.51173" lon="16.03503">
        <ele>983.880101</ele>
        <time>2026-07-08T07:07:19.000Z</time>
      </trkpt>
      <trkpt lat="47.51178" lon="16.03509">
        <ele>983.163365</ele>
        <time>2026-07-08T07:07:20.000Z</time>
      </trkpt>
      <trkpt lat="47.51182" lon="16.03516">
        <ele>982.449713</ele>
        <time>2026-07-08T07:07:21.000Z</time>
      </trkpt>
      <trkpt lat="47.51185" lon="16.03524">
        <ele>981.752096</ele>
        <time>2026-07-08T07:07:22.000Z</time>
      </trkpt>
      <trkpt lat="47.51188" lon="16.03533">
        <ele>981.016702</ele>
        <time>2026-07-08T07:07:23.000Z</time>
      </trkpt>
      <trkpt lat="47.51191" lon="16.03542">
        <ele>980.306226</ele>
        <time>2026-07-08T07:07:24.000Z</time>
      </trkpt>
      <trkpt lat="47.51193" lon="16.03551">
        <ele>979.597596</ele>
        <time>2026-07-08T07:07:25.000Z</time>
      </trkpt>
      <trkpt lat="47.51195" lon="16.0356">
        <ele>978.902109</ele>
        <time>2026-07-08T07:07:26.000Z</time>
      </trkpt>
      <trkpt lat="47.51196" lon="16.03569">
        <ele>978.202614</ele>
        <time>2026-07-08T07:07:27.000Z</time>
      </trkpt>
      <trkpt lat="47.51197" lon="16.03579">
        <ele>977.493517</ele>
        <time>2026-07-08T07:07:28.000Z</time>
      </trkpt>
      <trkpt lat="47.51199" lon="16.03588">
        <ele>976.789179</ele>
        <time>2026-07-08T07:07:29.000Z</time>
      </trkpt>
      <trkpt lat="47.512" lon="16.03596">
        <ele>976.133326</ele>
        <time>2026-07-08T07:07:30.000Z</time>
      </trkpt>
      <trkpt lat="47.51201" lon="16.03605">
        <ele>975.516742</ele>
        <time>2026-07-08T07:07:31.000Z</time>
      </trkpt>
      <trkpt lat="47.51201" lon="16.03613">
        <ele>974.973004</ele>
        <time>2026-07-08T07:07:32.000Z</time>
      </trkpt>
      <trkpt lat="47.51201" lon="16.03621">
        <ele>974.624906</ele>
        <time>2026-07-08T07:07:33.000Z</time>
      </trkpt>
      <trkpt lat="47.51201" lon="16.03627">
        <ele>974.320788</ele>
        <time>2026-07-08T07:07:34.000Z</time>
      </trkpt>
      <trkpt lat="47.512" lon="16.03634">
        <ele>974.024674</ele>
        <time>2026-07-08T07:07:35.000Z</time>
      </trkpt>
      <trkpt lat="47.51199" lon="16.0364">
        <ele>973.760115</ele>
        <time>2026-07-08T07:07:36.000Z</time>
      </trkpt>
      <trkpt lat="47.51196" lon="16.03644">
        <ele>973.497166</ele>
        <time>2026-07-08T07:07:37.000Z</time>
      </trkpt>
      <trkpt lat="47.51193" lon="16.03648">
        <ele>973.218102</ele>
        <time>2026-07-08T07:07:38.000Z</time>
      </trkpt>
      <trkpt lat="47.51188" lon="16.03649">
        <ele>972.906882</ele>
        <time>2026-07-08T07:07:39.000Z</time>
      </trkpt>
      <trkpt lat="47.51184" lon="16.03649">
        <ele>972.594772</ele>
        <time>2026-07-08T07:07:40.000Z</time>
      </trkpt>
      <trkpt lat="47.51179" lon="16.03648">
        <ele>972.275618</ele>
        <time>2026-07-08T07:07:41.000Z</time>
      </trkpt>
      <trkpt lat="47.51174" lon="16.03647">
        <ele>971.962489</ele>
        <time>2026-07-08T07:07:42.000Z</time>
      </trkpt>
      <trkpt lat="47.51169" lon="16.03646">
        <ele>971.642214</ele>
        <time>2026-07-08T07:07:43.000Z</time>
      </trkpt>
      <trkpt lat="47.51164" lon="16.03645">
        <ele>971.315395</ele>
        <time>2026-07-08T07:07:44.000Z</time>
      </trkpt>
      <trkpt lat="47.5116" lon="16.03644">
        <ele>971.008201</ele>
        <time>2026-07-08T07:07:45.000Z</time>
      </trkpt>
      <trkpt lat="47.51156" lon="16.03643">
        <ele>970.74668</ele>
        <time>2026-07-08T07:07:46.000Z</time>
      </trkpt>
      <trkpt lat="47.51152" lon="16.03643">
        <ele>970.514351</ele>
        <time>2026-07-08T07:07:47.000Z</time>
      </trkpt>
      <trkpt lat="47.51149" lon="16.03647">
        <ele>970.270044</ele>
        <time>2026-07-08T07:07:48.000Z</time>
      </trkpt>
      <trkpt lat="47.51147" lon="16.03652">
        <ele>969.969886</ele>
        <time>2026-07-08T07:07:49.000Z</time>
      </trkpt>
      <trkpt lat="47.51145" lon="16.0366">
        <ele>969.627257</ele>
        <time>2026-07-08T07:07:50.000Z</time>
      </trkpt>
      <trkpt lat="47.51144" lon="16.03667">
        <ele>969.288591</ele>
        <time>2026-07-08T07:07:51.000Z</time>
      </trkpt>
      <trkpt lat="47.51143" lon="16.03674">
        <ele>968.951796</ele>
        <time>2026-07-08T07:07:52.000Z</time>
      </trkpt>
      <trkpt lat="47.51142" lon="16.03681">
        <ele>968.645743</ele>
        <time>2026-07-08T07:07:53.000Z</time>
      </trkpt>
      <trkpt lat="47.51141" lon="16.03686">
        <ele>968.400157</ele>
        <time>2026-07-08T07:07:54.000Z</time>
      </trkpt>
      <trkpt lat="47.51139" lon="16.03691">
        <ele>968.155844</ele>
        <time>2026-07-08T07:07:55.000Z</time>
      </trkpt>
      <trkpt lat="47.51136" lon="16.03694">
        <ele>967.903476</ele>
        <time>2026-07-08T07:07:56.000Z</time>
      </trkpt>
      <trkpt lat="47.51132" lon="16.03696">
        <ele>967.643222</ele>
        <time>2026-07-08T07:07:57.000Z</time>
      </trkpt>
      <trkpt lat="47.51128" lon="16.03696">
        <ele>967.372286</ele>
        <time>2026-07-08T07:07:58.000Z</time>
      </trkpt>
      <trkpt lat="47.51124" lon="16.03695">
        <ele>967.109967</ele>
        <time>2026-07-08T07:07:59.000Z</time>
      </trkpt>
      <trkpt lat="47.51121" lon="16.03694">
        <ele>966.869218</ele>
        <time>2026-07-08T07:08:00.000Z</time>
      </trkpt>
      <trkpt lat="47.51118" lon="16.03693">
        <ele>966.66049</ele>
        <time>2026-07-08T07:08:01.000Z</time>
      </trkpt>
      <trkpt lat="47.51116" lon="16.03693">
        <ele>966.515061</ele>
        <time>2026-07-08T07:08:02.000Z</time>
      </trkpt>
      <trkpt lat="47.51115" lon="16.03693">
        <ele>966.448989</ele>
        <time>2026-07-08T07:08:03.000Z</time>
      </trkpt>
      <trkpt lat="47.51115" lon="16.03693">
        <ele>966.4356</ele>
        <time>2026-07-08T07:08:04.000Z</time>
      </trkpt>
      <trkpt lat="47.51111" lon="16.03692">
        <ele>966.214655</ele>
        <time>2026-07-08T07:08:15.000Z</time>
      </trkpt>
      <trkpt lat="47.51109" lon="16.03692">
        <ele>966.087854</ele>
        <time>2026-07-08T07:08:16.000Z</time>
      </trkpt>
      <trkpt lat="47.51107" lon="16.03691">
        <ele>965.947318</ele>
        <time>2026-07-08T07:08:17.000Z</time>
      </trkpt>
      <trkpt lat="47.51105" lon="16.03691">
        <ele>965.800255</ele>
        <time>2026-07-08T07:08:18.000Z</time>
      </trkpt>
      <trkpt lat="47.51103" lon="16.0369">
        <ele>965.663371</ele>
        <time>2026-07-08T07:08:19.000Z</time>
      </trkpt>
      <trkpt lat="47.51101" lon="16.0369">
        <ele>965.509773</ele>
        <time>2026-07-08T07:08:20.000Z</time>
      </trkpt>
      <trkpt lat="47.51098" lon="16.03689">
        <ele>965.350634</ele>
        <time>2026-07-08T07:08:21.000Z</time>
      </trkpt>
      <trkpt lat="47.51096" lon="16.03689">
        <ele>965.197037</ele>
        <time>2026-07-08T07:08:22.000Z</time>
      </trkpt>
      <trkpt lat="47.51093" lon="16.03688">
        <ele>965.014174</ele>
        <time>2026-07-08T07:08:23.000Z</time>
      </trkpt>
      <trkpt lat="47.51088" lon="16.03686">
        <ele>964.638158</ele>
        <time>2026-07-08T07:08:24.000Z</time>
      </trkpt>
      <trkpt lat="47.51085" lon="16.03685">
        <ele>964.433951</ele>
        <time>2026-07-08T07:08:25.000Z</time>
      </trkpt>
      <trkpt lat="47.51082" lon="16.03684">
        <ele>964.21584</ele>
        <time>2026-07-08T07:08:26.000Z</time>
      </trkpt>
      <trkpt lat="47.51078" lon="16.03683">
        <ele>963.994896</ele>
        <time>2026-07-08T07:08:27.000Z</time>
      </trkpt>
      <trkpt lat="47.51075" lon="16.03682">
        <ele>963.766685</ele>
        <time>2026-07-08T07:08:28.000Z</time>
      </trkpt>
      <trkpt lat="47.51071" lon="16.03682">
        <ele>963.526158</ele>
        <time>2026-07-08T07:08:29.000Z</time>
      </trkpt>
      <trkpt lat="47.51067" lon="16.0368">
        <ele>963.262967</ele>
        <time>2026-07-08T07:08:30.000Z</time>
      </trkpt>
      <trkpt lat="47.51063" lon="16.03679">
        <ele>963.136146</ele>
        <time>2026-07-08T07:08:31.000Z</time>
      </trkpt>
      <trkpt lat="47.51059" lon="16.03678">
        <ele>963.059132</ele>
        <time>2026-07-08T07:08:32.000Z</time>
      </trkpt>
      <trkpt lat="47.51055" lon="16.03677">
        <ele>962.984206</ele>
        <time>2026-07-08T07:08:33.000Z</time>
      </trkpt>
      <trkpt lat="47.5105" lon="16.03676">
        <ele>962.905697</ele>
        <time>2026-07-08T07:08:34.000Z</time>
      </trkpt>
      <trkpt lat="47.51046" lon="16.03674">
        <ele>962.826544</ele>
        <time>2026-07-08T07:08:35.000Z</time>
      </trkpt>
      <trkpt lat="47.51041" lon="16.03673">
        <ele>962.74424</ele>
        <time>2026-07-08T07:08:36.000Z</time>
      </trkpt>
      <trkpt lat="47.51036" lon="16.03672">
        <ele>962.66484</ele>
        <time>2026-07-08T07:08:37.000Z</time>
      </trkpt>
      <trkpt lat="47.51032" lon="16.0367">
        <ele>962.584228</ele>
        <time>2026-07-08T07:08:38.000Z</time>
      </trkpt>
      <trkpt lat="47.51027" lon="16.03669">
        <ele>962.502131</ele>
        <time>2026-07-08T07:08:39.000Z</time>
      </trkpt>
      <trkpt lat="47.51023" lon="16.03668">
        <ele>962.423802</ele>
        <time>2026-07-08T07:08:40.000Z</time>
      </trkpt>
      <trkpt lat="47.51018" lon="16.03667">
        <ele>962.345785</ele>
        <time>2026-07-08T07:08:41.000Z</time>
      </trkpt>
      <trkpt lat="47.51013" lon="16.03666">
        <ele>962.263687</ele>
        <time>2026-07-08T07:08:42.000Z</time>
      </trkpt>
      <trkpt lat="47.51009" lon="16.03665">
        <ele>962.179892</ele>
        <time>2026-07-08T07:08:43.000Z</time>
      </trkpt>
      <trkpt lat="47.51003" lon="16.03664">
        <ele>962.089473</ele>
        <time>2026-07-08T07:08:44.000Z</time>
      </trkpt>
      <trkpt lat="47.50998" lon="16.03662">
        <ele>962.000187</ele>
        <time>2026-07-08T07:08:45.000Z</time>
      </trkpt>
      <trkpt lat="47.50993" lon="16.03661">
        <ele>961.906013</ele>
        <time>2026-07-08T07:08:46.000Z</time>
      </trkpt>
      <trkpt lat="47.50987" lon="16.0366">
        <ele>961.809746</ele>
        <time>2026-07-08T07:08:47.000Z</time>
      </trkpt>
      <trkpt lat="47.50982" lon="16.03658">
        <ele>961.708395</ele>
        <time>2026-07-08T07:08:48.000Z</time>
      </trkpt>
      <trkpt lat="47.50976" lon="16.03656">
        <ele>961.606619</ele>
        <time>2026-07-08T07:08:49.000Z</time>
      </trkpt>
      <trkpt lat="47.5097" lon="16.03655">
        <ele>961.510352</ele>
        <time>2026-07-08T07:08:50.000Z</time>
      </trkpt>
      <trkpt lat="47.50965" lon="16.03653">
        <ele>961.414084</ele>
        <time>2026-07-08T07:08:51.000Z</time>
      </trkpt>
      <trkpt lat="47.5096" lon="16.03652">
        <ele>961.322661</ele>
        <time>2026-07-08T07:08:52.000Z</time>
      </trkpt>
      <trkpt lat="47.50954" lon="16.0365">
        <ele>961.230179</ele>
        <time>2026-07-08T07:08:53.000Z</time>
      </trkpt>
      <trkpt lat="47.50949" lon="16.03648">
        <ele>961.136311</ele>
        <time>2026-07-08T07:08:54.000Z</time>
      </trkpt>
      <trkpt lat="47.50944" lon="16.03646">
        <ele>961.04271</ele>
        <time>2026-07-08T07:08:55.000Z</time>
      </trkpt>
      <trkpt lat="47.50938" lon="16.03644">
        <ele>960.945221</ele>
        <time>2026-07-08T07:08:56.000Z</time>
      </trkpt>
      <trkpt lat="47.50933" lon="16.03642">
        <ele>960.847733</ele>
        <time>2026-07-08T07:08:57.000Z</time>
      </trkpt>
      <trkpt lat="47.50927" lon="16.0364">
        <ele>960.746036</ele>
        <time>2026-07-08T07:08:58.000Z</time>
      </trkpt>
      <trkpt lat="47.50922" lon="16.03636">
        <ele>960.646608</ele>
        <time>2026-07-08T07:08:59.000Z</time>
      </trkpt>
      <trkpt lat="47.50917" lon="16.03632">
        <ele>960.548321</ele>
        <time>2026-07-08T07:09:00.000Z</time>
      </trkpt>
      <trkpt lat="47.50913" lon="16.03626">
        <ele>960.450302</ele>
        <time>2026-07-08T07:09:01.000Z</time>
      </trkpt>
      <trkpt lat="47.5091" lon="16.03618">
        <ele>960.350948</ele>
        <time>2026-07-08T07:09:02.000Z</time>
      </trkpt>
      <trkpt lat="47.50908" lon="16.0361">
        <ele>960.250516</ele>
        <time>2026-07-08T07:09:03.000Z</time>
      </trkpt>
      <trkpt lat="47.50906" lon="16.03602">
        <ele>960.148367</ele>
        <time>2026-07-08T07:09:04.000Z</time>
      </trkpt>
      <trkpt lat="47.50905" lon="16.03593">
        <ele>960.008858</ele>
        <time>2026-07-08T07:09:05.000Z</time>
      </trkpt>
      <trkpt lat="47.50905" lon="16.03584">
        <ele>959.830206</ele>
        <time>2026-07-08T07:09:06.000Z</time>
      </trkpt>
      <trkpt lat="47.50904" lon="16.03575">
        <ele>959.655168</ele>
        <time>2026-07-08T07:09:07.000Z</time>
      </trkpt>
      <trkpt lat="47.50904" lon="16.03566">
        <ele>959.477163</ele>
        <time>2026-07-08T07:09:08.000Z</time>
      </trkpt>
      <trkpt lat="47.50903" lon="16.03557">
        <ele>959.295048</ele>
        <time>2026-07-08T07:09:09.000Z</time>
      </trkpt>
      <trkpt lat="47.50903" lon="16.03547">
        <ele>959.10736</ele>
        <time>2026-07-08T07:09:10.000Z</time>
      </trkpt>
      <trkpt lat="47.50903" lon="16.03538">
        <ele>958.91368</ele>
        <time>2026-07-08T07:09:11.000Z</time>
      </trkpt>
      <trkpt lat="47.50903" lon="16.03528">
        <ele>958.72</ele>
        <time>2026-07-08T07:09:12.000Z</time>
      </trkpt>
      <trkpt lat="47.50903" lon="16.03518">
        <ele>958.524346</ele>
        <time>2026-07-08T07:09:13.000Z</time>
      </trkpt>
      <trkpt lat="47.50903" lon="16.03508">
        <ele>958.324828</ele>
        <time>2026-07-08T07:09:14.000Z</time>
      </trkpt>
      <trkpt lat="47.50903" lon="16.03497">
        <ele>958.117326</ele>
        <time>2026-07-08T07:09:15.000Z</time>
      </trkpt>
      <trkpt lat="47.50903" lon="16.03487">
        <ele>957.911861</ele>
        <time>2026-07-08T07:09:16.000Z</time>
      </trkpt>
      <trkpt lat="47.50903" lon="16.03477">
        <ele>957.708392</ele>
        <time>2026-07-08T07:09:17.000Z</time>
      </trkpt>
      <trkpt lat="47.50903" lon="16.03466">
        <ele>957.504839</ele>
        <time>2026-07-08T07:09:18.000Z</time>
      </trkpt>
      <trkpt lat="47.50902" lon="16.03456">
        <ele>957.297337</ele>
        <time>2026-07-08T07:09:19.000Z</time>
      </trkpt>
      <trkpt lat="47.50902" lon="16.03445">
        <ele>957.085947</ele>
        <time>2026-07-08T07:09:20.000Z</time>
      </trkpt>
      <trkpt lat="47.50902" lon="16.03434">
        <ele>956.872601</ele>
        <time>2026-07-08T07:09:21.000Z</time>
      </trkpt>
      <trkpt lat="47.50902" lon="16.03423">
        <ele>956.655225</ele>
        <time>2026-07-08T07:09:22.000Z</time>
      </trkpt>
      <trkpt lat="47.50902" lon="16.03412">
        <ele>956.433804</ele>
        <time>2026-07-08T07:09:23.000Z</time>
      </trkpt>
      <trkpt lat="47.50901" lon="16.03401">
        <ele>956.210275</ele>
        <time>2026-07-08T07:09:24.000Z</time>
      </trkpt>
      <trkpt lat="47.50901" lon="16.03389">
        <ele>955.985057</ele>
        <time>2026-07-08T07:09:25.000Z</time>
      </trkpt>
      <trkpt lat="47.50901" lon="16.03378">
        <ele>955.757883</ele>
        <time>2026-07-08T07:09:26.000Z</time>
      </trkpt>
      <trkpt lat="47.50901" lon="16.03366">
        <ele>955.524783</ele>
        <time>2026-07-08T07:09:27.000Z</time>
      </trkpt>
      <trkpt lat="47.50901" lon="16.03354">
        <ele>955.291609</ele>
        <time>2026-07-08T07:09:28.000Z</time>
      </trkpt>
      <trkpt lat="47.50901" lon="16.03342">
        <ele>955.056534</ele>
        <time>2026-07-08T07:09:29.000Z</time>
      </trkpt>
      <trkpt lat="47.50901" lon="16.03331">
        <ele>954.819758</ele>
        <time>2026-07-08T07:09:30.000Z</time>
      </trkpt>
      <trkpt lat="47.50901" lon="16.03319">
        <ele>954.495526</ele>
        <time>2026-07-08T07:09:31.000Z</time>
      </trkpt>
      <trkpt lat="47.50901" lon="16.03307">
        <ele>954.179433</ele>
        <time>2026-07-08T07:09:32.000Z</time>
      </trkpt>
      <trkpt lat="47.50901" lon="16.03296">
        <ele>953.879903</ele>
        <time>2026-07-08T07:09:33.000Z</time>
      </trkpt>
      <trkpt lat="47.509" lon="16.03285">
        <ele>953.577216</ele>
        <time>2026-07-08T07:09:34.000Z</time>
      </trkpt>
      <trkpt lat="47.509" lon="16.03274">
        <ele>953.27472</ele>
        <time>2026-07-08T07:09:35.000Z</time>
      </trkpt>
      <trkpt lat="47.50899" lon="16.03263">
        <ele>952.968396</ele>
        <time>2026-07-08T07:09:36.000Z</time>
      </trkpt>
      <trkpt lat="47.50898" lon="16.03252">
        <ele>952.650723</ele>
        <time>2026-07-08T07:09:37.000Z</time>
      </trkpt>
      <trkpt lat="47.50896" lon="16.0324">
        <ele>952.321174</ele>
        <time>2026-07-08T07:09:38.000Z</time>
      </trkpt>
      <trkpt lat="47.50893" lon="16.03229">
        <ele>951.98756</ele>
        <time>2026-07-08T07:09:39.000Z</time>
      </trkpt>
      <trkpt lat="47.50889" lon="16.03218">
        <ele>951.647655</ele>
        <time>2026-07-08T07:09:40.000Z</time>
      </trkpt>
      <trkpt lat="47.50886" lon="16.03207">
        <ele>951.306843</ele>
        <time>2026-07-08T07:09:41.000Z</time>
      </trkpt>
      <trkpt lat="47.50882" lon="16.03195">
        <ele>950.958729</ele>
        <time>2026-07-08T07:09:42.000Z</time>
      </trkpt>
      <trkpt lat="47.50878" lon="16.03185">
        <ele>950.620292</ele>
        <time>2026-07-08T07:09:43.000Z</time>
      </trkpt>
      <trkpt lat="47.50873" lon="16.03174">
        <ele>950.278608</ele>
        <time>2026-07-08T07:09:44.000Z</time>
      </trkpt>
      <trkpt lat="47.50869" lon="16.03164">
        <ele>949.936924</ele>
        <time>2026-07-08T07:09:45.000Z</time>
      </trkpt>
      <trkpt lat="47.50864" lon="16.03153">
        <ele>949.59524</ele>
        <time>2026-07-08T07:09:46.000Z</time>
      </trkpt>
      <trkpt lat="47.5086" lon="16.03143">
        <ele>949.258183</ele>
        <time>2026-07-08T07:09:47.000Z</time>
      </trkpt>
      <trkpt lat="47.50856" lon="16.03132">
        <ele>948.925239</ele>
        <time>2026-07-08T07:09:48.000Z</time>
      </trkpt>
      <trkpt lat="47.50852" lon="16.03121">
        <ele>948.587585</ele>
        <time>2026-07-08T07:09:49.000Z</time>
      </trkpt>
      <trkpt lat="47.5085" lon="16.0311">
        <ele>948.268558</ele>
        <time>2026-07-08T07:09:50.000Z</time>
      </trkpt>
      <trkpt lat="47.50848" lon="16.03099">
        <ele>947.954819</ele>
        <time>2026-07-08T07:09:52.000Z</time>
      </trkpt>
      <trkpt lat="47.50847" lon="16.03088">
        <ele>947.645354</ele>
        <time>2026-07-08T07:09:53.000Z</time>
      </trkpt>
      <trkpt lat="47.50847" lon="16.03078">
        <ele>947.37998</ele>
        <time>2026-07-08T07:09:54.000Z</time>
      </trkpt>
      <trkpt lat="47.50848" lon="16.03069">
        <ele>947.114356</ele>
        <time>2026-07-08T07:09:55.000Z</time>
      </trkpt>
      <trkpt lat="47.5085" lon="16.0306">
        <ele>946.853646</ele>
        <time>2026-07-08T07:09:56.000Z</time>
      </trkpt>
      <trkpt lat="47.50853" lon="16.03052">
        <ele>946.591992</ele>
        <time>2026-07-08T07:09:57.000Z</time>
      </trkpt>
      <trkpt lat="47.50856" lon="16.03043">
        <ele>946.329134</ele>
        <time>2026-07-08T07:09:58.000Z</time>
      </trkpt>
      <trkpt lat="47.50859" lon="16.03035">
        <ele>946.06748</ele>
        <time>2026-07-08T07:09:59.000Z</time>
      </trkpt>
      <trkpt lat="47.50862" lon="16.03027">
        <ele>945.797867</ele>
        <time>2026-07-08T07:10:00.000Z</time>
      </trkpt>
      <trkpt lat="47.50866" lon="16.03018">
        <ele>945.516798</ele>
        <time>2026-07-08T07:10:01.000Z</time>
      </trkpt>
      <trkpt lat="47.5087" lon="16.0301">
        <ele>945.23076</ele>
        <time>2026-07-08T07:10:02.000Z</time>
      </trkpt>
      <trkpt lat="47.50875" lon="16.03002">
        <ele>944.946588</ele>
        <time>2026-07-08T07:10:03.000Z</time>
      </trkpt>
      <trkpt lat="47.5088" lon="16.02995">
        <ele>944.663414</ele>
        <time>2026-07-08T07:10:04.000Z</time>
      </trkpt>
      <trkpt lat="47.50885" lon="16.02988">
        <ele>944.373823</ele>
        <time>2026-07-08T07:10:05.000Z</time>
      </trkpt>
      <trkpt lat="47.50891" lon="16.02982">
        <ele>944.084408</ele>
        <time>2026-07-08T07:10:06.000Z</time>
      </trkpt>
      <trkpt lat="47.50896" lon="16.02976">
        <ele>943.799945</ele>
        <time>2026-07-08T07:10:07.000Z</time>
      </trkpt>
      <trkpt lat="47.50902" lon="16.0297">
        <ele>943.520254</ele>
        <time>2026-07-08T07:10:08.000Z</time>
      </trkpt>
      <trkpt lat="47.50907" lon="16.02963">
        <ele>943.230665</ele>
        <time>2026-07-08T07:10:09.000Z</time>
      </trkpt>
      <trkpt lat="47.50913" lon="16.02957">
        <ele>942.924726</ele>
        <time>2026-07-08T07:10:10.000Z</time>
      </trkpt>
      <trkpt lat="47.5092" lon="16.0295">
        <ele>942.587286</ele>
        <time>2026-07-08T07:10:11.000Z</time>
      </trkpt>
      <trkpt lat="47.50927" lon="16.02943">
        <ele>942.248054</ele>
        <time>2026-07-08T07:10:12.000Z</time>
      </trkpt>
      <trkpt lat="47.50934" lon="16.02936">
        <ele>941.906554</ele>
        <time>2026-07-08T07:10:13.000Z</time>
      </trkpt>
      <trkpt lat="47.50941" lon="16.02931">
        <ele>941.570754</ele>
        <time>2026-07-08T07:10:14.000Z</time>
      </trkpt>
      <trkpt lat="47.50948" lon="16.02926">
        <ele>941.232488</ele>
        <time>2026-07-08T07:10:15.000Z</time>
      </trkpt>
      <trkpt lat="47.50955" lon="16.0292">
        <ele>940.924413</ele>
        <time>2026-07-08T07:10:16.000Z</time>
      </trkpt>
      <trkpt lat="47.50961" lon="16.02915">
        <ele>940.640986</ele>
        <time>2026-07-08T07:10:17.000Z</time>
      </trkpt>
      <trkpt lat="47.50965" lon="16.02908">
        <ele>940.378861</ele>
        <time>2026-07-08T07:10:18.000Z</time>
      </trkpt>
      <trkpt lat="47.50969" lon="16.02902">
        <ele>940.134459</ele>
        <time>2026-07-08T07:10:19.000Z</time>
      </trkpt>
      <trkpt lat="47.50972" lon="16.02895">
        <ele>939.910773</ele>
        <time>2026-07-08T07:10:20.000Z</time>
      </trkpt>
      <trkpt lat="47.50973" lon="16.02887">
        <ele>939.687812</ele>
        <time>2026-07-08T07:10:21.000Z</time>
      </trkpt>
      <trkpt lat="47.50973" lon="16.02878">
        <ele>939.453464</ele>
        <time>2026-07-08T07:10:22.000Z</time>
      </trkpt>
      <trkpt lat="47.5097" lon="16.02871">
        <ele>939.217998</ele>
        <time>2026-07-08T07:10:23.000Z</time>
      </trkpt>
      <trkpt lat="47.50967" lon="16.02865">
        <ele>939.012142</ele>
        <time>2026-07-08T07:10:24.000Z</time>
      </trkpt>
      <trkpt lat="47.50963" lon="16.02861">
        <ele>938.809407</ele>
        <time>2026-07-08T07:10:25.000Z</time>
      </trkpt>
      <trkpt lat="47.50957" lon="16.02858">
        <ele>938.575995</ele>
        <time>2026-07-08T07:10:26.000Z</time>
      </trkpt>
      <trkpt lat="47.50952" lon="16.02854">
        <ele>938.323334</ele>
        <time>2026-07-08T07:10:27.000Z</time>
      </trkpt>
      <trkpt lat="47.50946" lon="16.02851">
        <ele>938.066244</ele>
        <time>2026-07-08T07:10:28.000Z</time>
      </trkpt>
      <trkpt lat="47.50939" lon="16.02849">
        <ele>937.805381</ele>
        <time>2026-07-08T07:10:29.000Z</time>
      </trkpt>
      <trkpt lat="47.50933" lon="16.02847">
        <ele>937.531894</ele>
        <time>2026-07-08T07:10:30.000Z</time>
      </trkpt>
      <trkpt lat="47.50926" lon="16.02844">
        <ele>937.253293</ele>
        <time>2026-07-08T07:10:31.000Z</time>
      </trkpt>
      <trkpt lat="47.50919" lon="16.02842">
        <ele>936.9713</ele>
        <time>2026-07-08T07:10:32.000Z</time>
      </trkpt>
      <trkpt lat="47.50912" lon="16.0284">
        <ele>936.680797</ele>
        <time>2026-07-08T07:10:33.000Z</time>
      </trkpt>
      <trkpt lat="47.50905" lon="16.02838">
        <ele>936.372355</ele>
        <time>2026-07-08T07:10:34.000Z</time>
      </trkpt>
      <trkpt lat="47.50897" lon="16.02837">
        <ele>936.066114</ele>
        <time>2026-07-08T07:10:35.000Z</time>
      </trkpt>
      <trkpt lat="47.5089" lon="16.02836">
        <ele>935.751501</ele>
        <time>2026-07-08T07:10:36.000Z</time>
      </trkpt>
      <trkpt lat="47.50882" lon="16.02835">
        <ele>935.438325</ele>
        <time>2026-07-08T07:10:37.000Z</time>
      </trkpt>
      <trkpt lat="47.50874" lon="16.02835">
        <ele>935.129688</ele>
        <time>2026-07-08T07:10:38.000Z</time>
      </trkpt>
      <trkpt lat="47.50866" lon="16.02835">
        <ele>934.796758</ele>
        <time>2026-07-08T07:10:39.000Z</time>
      </trkpt>
      <trkpt lat="47.50858" lon="16.02834">
        <ele>934.463828</ele>
        <time>2026-07-08T07:10:40.000Z</time>
      </trkpt>
      <trkpt lat="47.5085" lon="16.02834">
        <ele>934.135002</ele>
        <time>2026-07-08T07:10:41.000Z</time>
      </trkpt>
      <trkpt lat="47.50841" lon="16.02835">
        <ele>933.789667</ele>
        <time>2026-07-08T07:10:42.000Z</time>
      </trkpt>
      <trkpt lat="47.50833" lon="16.02836">
        <ele>933.443515</ele>
        <time>2026-07-08T07:10:43.000Z</time>
      </trkpt>
      <trkpt lat="47.50824" lon="16.02837">
        <ele>933.080718</ele>
        <time>2026-07-08T07:10:44.000Z</time>
      </trkpt>
      <trkpt lat="47.50815" lon="16.02839">
        <ele>932.748518</ele>
        <time>2026-07-08T07:10:45.000Z</time>
      </trkpt>
      <trkpt lat="47.50806" lon="16.0284">
        <ele>932.498707</ele>
        <time>2026-07-08T07:10:46.000Z</time>
      </trkpt>
      <trkpt lat="47.50798" lon="16.02842">
        <ele>932.258867</ele>
        <time>2026-07-08T07:10:47.000Z</time>
      </trkpt>
      <trkpt lat="47.5079" lon="16.02844">
        <ele>932.012761</ele>
        <time>2026-07-08T07:10:48.000Z</time>
      </trkpt>
      <trkpt lat="47.50781" lon="16.02846">
        <ele>931.772921</ele>
        <time>2026-07-08T07:10:49.000Z</time>
      </trkpt>
      <trkpt lat="47.50773" lon="16.02848">
        <ele>931.527449</ele>
        <time>2026-07-08T07:10:50.000Z</time>
      </trkpt>
      <trkpt lat="47.50764" lon="16.02849">
        <ele>931.287377</ele>
        <time>2026-07-08T07:10:51.000Z</time>
      </trkpt>
      <trkpt lat="47.50756" lon="16.02848">
        <ele>931.055202</ele>
        <time>2026-07-08T07:10:52.000Z</time>
      </trkpt>
      <trkpt lat="47.50749" lon="16.02844">
        <ele>930.833043</ele>
        <time>2026-07-08T07:10:53.000Z</time>
      </trkpt>
      <trkpt lat="47.50742" lon="16.0284">
        <ele>930.613516</ele>
        <time>2026-07-08T07:10:54.000Z</time>
      </trkpt>
      <trkpt lat="47.50735" lon="16.02837">
        <ele>930.401197</ele>
        <time>2026-07-08T07:10:55.000Z</time>
      </trkpt>
      <trkpt lat="47.50728" lon="16.02837">
        <ele>930.201466</ele>
        <time>2026-07-08T07:10:56.000Z</time>
      </trkpt>
      <trkpt lat="47.50721" lon="16.02839">
        <ele>930.009925</ele>
        <time>2026-07-08T07:10:57.000Z</time>
      </trkpt>
      <trkpt lat="47.50715" lon="16.02844">
        <ele>929.823161</ele>
        <time>2026-07-08T07:10:58.000Z</time>
      </trkpt>
      <trkpt lat="47.5071" lon="16.02849">
        <ele>929.636216</ele>
        <time>2026-07-08T07:10:59.000Z</time>
      </trkpt>
      <trkpt lat="47.50705" lon="16.02855">
        <ele>929.451614</ele>
        <time>2026-07-08T07:11:00.000Z</time>
      </trkpt>
      <trkpt lat="47.50699" lon="16.0286">
        <ele>929.271325</ele>
        <time>2026-07-08T07:11:01.000Z</time>
      </trkpt>
      <trkpt lat="47.50693" lon="16.02864">
        <ele>929.082904</ele>
        <time>2026-07-08T07:11:02.000Z</time>
      </trkpt>
      <trkpt lat="47.50687" lon="16.02868">
        <ele>928.898257</ele>
        <time>2026-07-08T07:11:03.000Z</time>
      </trkpt>
      <trkpt lat="47.50682" lon="16.02871">
        <ele>928.719619</ele>
        <time>2026-07-08T07:11:04.000Z</time>
      </trkpt>
      <trkpt lat="47.50676" lon="16.02875">
        <ele>928.534239</ele>
        <time>2026-07-08T07:11:05.000Z</time>
      </trkpt>
      <trkpt lat="47.5067" lon="16.02878">
        <ele>928.352346</ele>
        <time>2026-07-08T07:11:06.000Z</time>
      </trkpt>
      <trkpt lat="47.50664" lon="16.02881">
        <ele>928.17835</ele>
        <time>2026-07-08T07:11:07.000Z</time>
      </trkpt>
      <trkpt lat="47.50658" lon="16.02884">
        <ele>928.003318</ele>
        <time>2026-07-08T07:11:08.000Z</time>
      </trkpt>
      <trkpt lat="47.50652" lon="16.02886">
        <ele>927.836496</ele>
        <time>2026-07-08T07:11:09.000Z</time>
      </trkpt>
      <trkpt lat="47.50647" lon="16.02888">
        <ele>927.669239</ele>
        <time>2026-07-08T07:11:10.000Z</time>
      </trkpt>
      <trkpt lat="47.50642" lon="16.02891">
        <ele>927.446686</ele>
        <time>2026-07-08T07:11:11.000Z</time>
      </trkpt>
      <trkpt lat="47.50636" lon="16.02893">
        <ele>927.226455</ele>
        <time>2026-07-08T07:11:12.000Z</time>
      </trkpt>
      <trkpt lat="47.50631" lon="16.02895">
        <ele>927.012857</ele>
        <time>2026-07-08T07:11:13.000Z</time>
      </trkpt>
      <trkpt lat="47.50626" lon="16.02896">
        <ele>926.802609</ele>
        <time>2026-07-08T07:11:14.000Z</time>
      </trkpt>
      <trkpt lat="47.50621" lon="16.02898">
        <ele>926.596975</ele>
        <time>2026-07-08T07:11:15.000Z</time>
      </trkpt>
      <trkpt lat="47.50617" lon="16.02901">
        <ele>926.406131</ele>
        <time>2026-07-08T07:11:16.000Z</time>
      </trkpt>
      <trkpt lat="47.50614" lon="16.02905">
        <ele>926.216718</ele>
        <time>2026-07-08T07:11:17.000Z</time>
      </trkpt>
      <trkpt lat="47.50611" lon="16.02912">
        <ele>926.014191</ele>
        <time>2026-07-08T07:11:18.000Z</time>
      </trkpt>
      <trkpt lat="47.5061" lon="16.02919">
        <ele>925.803192</ele>
        <time>2026-07-08T07:11:19.000Z</time>
      </trkpt>
      <trkpt lat="47.50611" lon="16.02927">
        <ele>925.592434</ele>
        <time>2026-07-08T07:11:20.000Z</time>
      </trkpt>
      <trkpt lat="47.50612" lon="16.02935">
        <ele>925.35996</ele>
        <time>2026-07-08T07:11:21.000Z</time>
      </trkpt>
      <trkpt lat="47.50614" lon="16.02943">
        <ele>925.123215</ele>
        <time>2026-07-08T07:11:22.000Z</time>
      </trkpt>
      <trkpt lat="47.50616" lon="16.02952">
        <ele>924.877352</ele>
        <time>2026-07-08T07:11:23.000Z</time>
      </trkpt>
      <trkpt lat="47.50617" lon="16.0296">
        <ele>924.642189</ele>
        <time>2026-07-08T07:11:24.000Z</time>
      </trkpt>
      <trkpt lat="47.50617" lon="16.02967">
        <ele>924.443465</ele>
        <time>2026-07-08T07:11:25.000Z</time>
      </trkpt>
      <trkpt lat="47.50615" lon="16.02973">
        <ele>924.262264</ele>
        <time>2026-07-08T07:11:26.000Z</time>
      </trkpt>
      <trkpt lat="47.50612" lon="16.02978">
        <ele>924.082637</ele>
        <time>2026-07-08T07:11:27.000Z</time>
      </trkpt>
      <trkpt lat="47.50607" lon="16.0298">
        <ele>923.878579</ele>
        <time>2026-07-08T07:11:28.000Z</time>
      </trkpt>
      <trkpt lat="47.50602" lon="16.02981">
        <ele>923.659509</ele>
        <time>2026-07-08T07:11:29.000Z</time>
      </trkpt>
      <trkpt lat="47.50596" lon="16.02981">
        <ele>923.41434</ele>
        <time>2026-07-08T07:11:30.000Z</time>
      </trkpt>
      <trkpt lat="47.50589" lon="16.02982">
        <ele>923.152785</ele>
        <time>2026-07-08T07:11:31.000Z</time>
      </trkpt>
      <trkpt lat="47.50582" lon="16.02982">
        <ele>922.865921</ele>
        <time>2026-07-08T07:11:32.000Z</time>
      </trkpt>
      <trkpt lat="47.50575" lon="16.02984">
        <ele>922.557695</ele>
        <time>2026-07-08T07:11:33.000Z</time>
      </trkpt>
      <trkpt lat="47.50567" lon="16.02985">
        <ele>922.236982</ele>
        <time>2026-07-08T07:11:34.000Z</time>
      </trkpt>
      <trkpt lat="47.50559" lon="16.02986">
        <ele>921.89939</ele>
        <time>2026-07-08T07:11:35.000Z</time>
      </trkpt>
      <trkpt lat="47.5055" lon="16.02988">
        <ele>921.545885</ele>
        <time>2026-07-08T07:11:36.000Z</time>
      </trkpt>
      <trkpt lat="47.50541" lon="16.02989">
        <ele>921.180976</ele>
        <time>2026-07-08T07:11:37.000Z</time>
      </trkpt>
      <trkpt lat="47.50532" lon="16.0299">
        <ele>920.808658</ele>
        <time>2026-07-08T07:11:38.000Z</time>
      </trkpt>
      <trkpt lat="47.50523" lon="16.0299">
        <ele>920.432108</ele>
        <time>2026-07-08T07:11:39.000Z</time>
      </trkpt>
      <trkpt lat="47.50513" lon="16.02992">
        <ele>919.800765</ele>
        <time>2026-07-08T07:11:40.000Z</time>
      </trkpt>
      <trkpt lat="47.50503" lon="16.02993">
        <ele>919.079905</ele>
        <time>2026-07-08T07:11:41.000Z</time>
      </trkpt>
      <trkpt lat="47.50493" lon="16.02996">
        <ele>918.32426</ele>
        <time>2026-07-08T07:11:42.000Z</time>
      </trkpt>
      <trkpt lat="47.50483" lon="16.03">
        <ele>917.574425</ele>
        <time>2026-07-08T07:11:43.000Z</time>
      </trkpt>
      <trkpt lat="47.50473" lon="16.03005">
        <ele>916.795874</ele>
        <time>2026-07-08T07:11:44.000Z</time>
      </trkpt>
      <trkpt lat="47.50462" lon="16.03011">
        <ele>916.00553</ele>
        <time>2026-07-08T07:11:45.000Z</time>
      </trkpt>
      <trkpt lat="47.50452" lon="16.03017">
        <ele>915.203445</ele>
        <time>2026-07-08T07:11:46.000Z</time>
      </trkpt>
      <trkpt lat="47.50441" lon="16.03023">
        <ele>914.383415</ele>
        <time>2026-07-08T07:11:47.000Z</time>
      </trkpt>
      <trkpt lat="47.50431" lon="16.03031">
        <ele>913.564443</ele>
        <time>2026-07-08T07:11:48.000Z</time>
      </trkpt>
      <trkpt lat="47.50421" lon="16.03039">
        <ele>912.744572</ele>
        <time>2026-07-08T07:11:49.000Z</time>
      </trkpt>
      <trkpt lat="47.50411" lon="16.03047">
        <ele>911.955187</ele>
        <time>2026-07-08T07:11:50.000Z</time>
      </trkpt>
      <trkpt lat="47.50402" lon="16.03055">
        <ele>911.18692</ele>
        <time>2026-07-08T07:11:51.000Z</time>
      </trkpt>
      <trkpt lat="47.50394" lon="16.03065">
        <ele>910.428502</ele>
        <time>2026-07-08T07:11:52.000Z</time>
      </trkpt>
      <trkpt lat="47.50386" lon="16.03075">
        <ele>909.667072</ele>
        <time>2026-07-08T07:11:53.000Z</time>
      </trkpt>
      <trkpt lat="47.50378" lon="16.03086">
        <ele>908.893811</ele>
        <time>2026-07-08T07:11:54.000Z</time>
      </trkpt>
      <trkpt lat="47.5037" lon="16.03097">
        <ele>908.10934</ele>
        <time>2026-07-08T07:11:55.000Z</time>
      </trkpt>
      <trkpt lat="47.50363" lon="16.03109">
        <ele>907.352026</ele>
        <time>2026-07-08T07:11:56.000Z</time>
      </trkpt>
      <trkpt lat="47.50356" lon="16.03121">
        <ele>906.753724</ele>
        <time>2026-07-08T07:11:57.000Z</time>
      </trkpt>
      <trkpt lat="47.50349" lon="16.03134">
        <ele>906.155896</ele>
        <time>2026-07-08T07:11:58.000Z</time>
      </trkpt>
      <trkpt lat="47.50343" lon="16.03147">
        <ele>905.543421</ele>
        <time>2026-07-08T07:11:59.000Z</time>
      </trkpt>
      <trkpt lat="47.50336" lon="16.0316">
        <ele>904.936989</ele>
        <time>2026-07-08T07:12:00.000Z</time>
      </trkpt>
      <trkpt lat="47.5033" lon="16.03173">
        <ele>904.336567</ele>
        <time>2026-07-08T07:12:01.000Z</time>
      </trkpt>
      <trkpt lat="47.50323" lon="16.03186">
        <ele>903.73237</ele>
        <time>2026-07-08T07:12:02.000Z</time>
      </trkpt>
      <trkpt lat="47.50316" lon="16.03198">
        <ele>903.12474</ele>
        <time>2026-07-08T07:12:03.000Z</time>
      </trkpt>
      <trkpt lat="47.50309" lon="16.03211">
        <ele>902.5217</ele>
        <time>2026-07-08T07:12:04.000Z</time>
      </trkpt>
      <trkpt lat="47.50302" lon="16.03223">
        <ele>901.921521</ele>
        <time>2026-07-08T07:12:05.000Z</time>
      </trkpt>
      <trkpt lat="47.50295" lon="16.03235">
        <ele>901.31848</ele>
        <time>2026-07-08T07:12:06.000Z</time>
      </trkpt>
      <trkpt lat="47.50288" lon="16.03248">
        <ele>900.70254</ele>
        <time>2026-07-08T07:12:07.000Z</time>
      </trkpt>
      <trkpt lat="47.50281" lon="16.0326">
        <ele>900.099497</ele>
        <time>2026-07-08T07:12:08.000Z</time>
      </trkpt>
      <trkpt lat="47.50274" lon="16.03272">
        <ele>899.482772</ele>
        <time>2026-07-08T07:12:09.000Z</time>
      </trkpt>
      <trkpt lat="47.50266" lon="16.03284">
        <ele>898.862198</ele>
        <time>2026-07-08T07:12:10.000Z</time>
      </trkpt>
      <trkpt lat="47.50258" lon="16.03296">
        <ele>898.235081</ele>
        <time>2026-07-08T07:12:11.000Z</time>
      </trkpt>
      <trkpt lat="47.5025" lon="16.03308">
        <ele>897.602934</ele>
        <time>2026-07-08T07:12:12.000Z</time>
      </trkpt>
      <trkpt lat="47.50242" lon="16.0332">
        <ele>897.019743</ele>
        <time>2026-07-08T07:12:13.000Z</time>
      </trkpt>
      <trkpt lat="47.50233" lon="16.03331">
        <ele>896.452565</ele>
        <time>2026-07-08T07:12:14.000Z</time>
      </trkpt>
      <trkpt lat="47.50225" lon="16.03342">
        <ele>895.886826</ele>
        <time>2026-07-08T07:12:15.000Z</time>
      </trkpt>
      <trkpt lat="47.50216" lon="16.03352">
        <ele>895.318129</ele>
        <time>2026-07-08T07:12:16.000Z</time>
      </trkpt>
      <trkpt lat="47.50207" lon="16.03362">
        <ele>894.755801</ele>
        <time>2026-07-08T07:12:17.000Z</time>
      </trkpt>
      <trkpt lat="47.50198" lon="16.03372">
        <ele>894.19139</ele>
        <time>2026-07-08T07:12:18.000Z</time>
      </trkpt>
      <trkpt lat="47.50188" lon="16.03381">
        <ele>893.624839</ele>
        <time>2026-07-08T07:12:19.000Z</time>
      </trkpt>
      <trkpt lat="47.50179" lon="16.03391">
        <ele>893.06174</ele>
        <time>2026-07-08T07:12:20.000Z</time>
      </trkpt>
      <trkpt lat="47.50169" lon="16.03399">
        <ele>892.499273</ele>
        <time>2026-07-08T07:12:21.000Z</time>
      </trkpt>
      <trkpt lat="47.50159" lon="16.03407">
        <ele>891.933139</ele>
        <time>2026-07-08T07:12:22.000Z</time>
      </trkpt>
      <trkpt lat="47.50149" lon="16.03414">
        <ele>891.366803</ele>
        <time>2026-07-08T07:12:23.000Z</time>
      </trkpt>
      <trkpt lat="47.50139" lon="16.03422">
        <ele>890.798802</ele>
        <time>2026-07-08T07:12:24.000Z</time>
      </trkpt>
      <trkpt lat="47.50129" lon="16.0343">
        <ele>890.23027</ele>
        <time>2026-07-08T07:12:25.000Z</time>
      </trkpt>
      <trkpt lat="47.50119" lon="16.03437">
        <ele>889.656685</ele>
        <time>2026-07-08T07:12:26.000Z</time>
      </trkpt>
      <trkpt lat="47.50108" lon="16.03444">
        <ele>889.087974</ele>
        <time>2026-07-08T07:12:27.000Z</time>
      </trkpt>
      <trkpt lat="47.50097" lon="16.0345">
        <ele>888.512726</ele>
        <time>2026-07-08T07:12:28.000Z</time>
      </trkpt>
      <trkpt lat="47.50086" lon="16.03455">
        <ele>887.900379</ele>
        <time>2026-07-08T07:12:29.000Z</time>
      </trkpt>
      <trkpt lat="47.50075" lon="16.0346">
        <ele>887.284008</ele>
        <time>2026-07-08T07:12:30.000Z</time>
      </trkpt>
      <trkpt lat="47.50064" lon="16.03465">
        <ele>886.664635</ele>
        <time>2026-07-08T07:12:31.000Z</time>
      </trkpt>
      <trkpt lat="47.50053" lon="16.03471">
        <ele>886.046065</ele>
        <time>2026-07-08T07:12:32.000Z</time>
      </trkpt>
      <trkpt lat="47.50042" lon="16.03477">
        <ele>885.424221</ele>
        <time>2026-07-08T07:12:33.000Z</time>
      </trkpt>
      <trkpt lat="47.50032" lon="16.03483">
        <ele>884.803495</ele>
        <time>2026-07-08T07:12:34.000Z</time>
      </trkpt>
      <trkpt lat="47.50021" lon="16.03489">
        <ele>884.181436</ele>
        <time>2026-07-08T07:12:35.000Z</time>
      </trkpt>
      <trkpt lat="47.5001" lon="16.03496">
        <ele>883.562974</ele>
        <time>2026-07-08T07:12:36.000Z</time>
      </trkpt>
      <trkpt lat="47.49999" lon="16.03502">
        <ele>882.943132</ele>
        <time>2026-07-08T07:12:37.000Z</time>
      </trkpt>
      <trkpt lat="47.49989" lon="16.0351">
        <ele>882.324353</ele>
        <time>2026-07-08T07:12:38.000Z</time>
      </trkpt>
      <trkpt lat="47.49978" lon="16.03518">
        <ele>881.688122</ele>
        <time>2026-07-08T07:12:39.000Z</time>
      </trkpt>
      <trkpt lat="47.49968" lon="16.03526">
        <ele>881.049345</ele>
        <time>2026-07-08T07:12:40.000Z</time>
      </trkpt>
      <trkpt lat="47.49957" lon="16.03535">
        <ele>880.400543</ele>
        <time>2026-07-08T07:12:41.000Z</time>
      </trkpt>
      <trkpt lat="47.49947" lon="16.03545">
        <ele>879.755397</ele>
        <time>2026-07-08T07:12:42.000Z</time>
      </trkpt>
      <trkpt lat="47.49937" lon="16.03554">
        <ele>879.097358</ele>
        <time>2026-07-08T07:12:43.000Z</time>
      </trkpt>
      <trkpt lat="47.49926" lon="16.03563">
        <ele>878.465455</ele>
        <time>2026-07-08T07:12:44.000Z</time>
      </trkpt>
      <trkpt lat="47.49916" lon="16.03571">
        <ele>877.891687</ele>
        <time>2026-07-08T07:12:45.000Z</time>
      </trkpt>
      <trkpt lat="47.49906" lon="16.03578">
        <ele>877.360845</ele>
        <time>2026-07-08T07:12:46.000Z</time>
      </trkpt>
      <trkpt lat="47.49897" lon="16.03583">
        <ele>876.887125</ele>
        <time>2026-07-08T07:12:47.000Z</time>
      </trkpt>
      <trkpt lat="47.49888" lon="16.03588">
        <ele>876.424293</ele>
        <time>2026-07-08T07:12:48.000Z</time>
      </trkpt>
      <trkpt lat="47.4988" lon="16.03592">
        <ele>875.983953</ele>
        <time>2026-07-08T07:12:49.000Z</time>
      </trkpt>
      <trkpt lat="47.49871" lon="16.03594">
        <ele>875.531579</ele>
        <time>2026-07-08T07:12:50.000Z</time>
      </trkpt>
      <trkpt lat="47.49862" lon="16.03595">
        <ele>875.070264</ele>
        <time>2026-07-08T07:12:51.000Z</time>
      </trkpt>
      <trkpt lat="47.49852" lon="16.03595">
        <ele>874.589221</ele>
        <time>2026-07-08T07:12:52.000Z</time>
      </trkpt>
      <trkpt lat="47.49842" lon="16.03596">
        <ele>874.116384</ele>
        <time>2026-07-08T07:12:53.000Z</time>
      </trkpt>
      <trkpt lat="47.49833" lon="16.03598">
        <ele>873.637872</ele>
        <time>2026-07-08T07:12:54.000Z</time>
      </trkpt>
      <trkpt lat="47.49823" lon="16.03602">
        <ele>873.152373</ele>
        <time>2026-07-08T07:12:55.000Z</time>
      </trkpt>
      <trkpt lat="47.49814" lon="16.03606">
        <ele>872.659712</ele>
        <time>2026-07-08T07:12:56.000Z</time>
      </trkpt>
      <trkpt lat="47.49804" lon="16.03611">
        <ele>872.157404</ele>
        <time>2026-07-08T07:12:57.000Z</time>
      </trkpt>
      <trkpt lat="47.49795" lon="16.03618">
        <ele>871.650189</ele>
        <time>2026-07-08T07:12:58.000Z</time>
      </trkpt>
      <trkpt lat="47.49786" lon="16.03625">
        <ele>871.124968</ele>
        <time>2026-07-08T07:12:59.000Z</time>
      </trkpt>
      <trkpt lat="47.49777" lon="16.03634">
        <ele>870.599692</ele>
        <time>2026-07-08T07:13:00.000Z</time>
      </trkpt>
      <trkpt lat="47.49768" lon="16.03644">
        <ele>870.057331</ele>
        <time>2026-07-08T07:13:01.000Z</time>
      </trkpt>
      <trkpt lat="47.4976" lon="16.03655">
        <ele>869.552218</ele>
        <time>2026-07-08T07:13:02.000Z</time>
      </trkpt>
      <trkpt lat="47.49752" lon="16.03666">
        <ele>869.056979</ele>
        <time>2026-07-08T07:13:03.000Z</time>
      </trkpt>
      <trkpt lat="47.49745" lon="16.03679">
        <ele>868.55387</ele>
        <time>2026-07-08T07:13:04.000Z</time>
      </trkpt>
      <trkpt lat="47.49738" lon="16.03692">
        <ele>868.055898</ele>
        <time>2026-07-08T07:13:05.000Z</time>
      </trkpt>
      <trkpt lat="47.49731" lon="16.03705">
        <ele>867.570146</ele>
        <time>2026-07-08T07:13:06.000Z</time>
      </trkpt>
      <trkpt lat="47.49724" lon="16.03717">
        <ele>867.099063</ele>
        <time>2026-07-08T07:13:07.000Z</time>
      </trkpt>
      <trkpt lat="47.49717" lon="16.03727">
        <ele>866.653406</ele>
        <time>2026-07-08T07:13:08.000Z</time>
      </trkpt>
      <trkpt lat="47.4971" lon="16.03737">
        <ele>866.220884</ele>
        <time>2026-07-08T07:13:09.000Z</time>
      </trkpt>
      <trkpt lat="47.49702" lon="16.03745">
        <ele>865.790714</ele>
        <time>2026-07-08T07:13:10.000Z</time>
      </trkpt>
      <trkpt lat="47.49694" lon="16.03752">
        <ele>865.366474</ele>
        <time>2026-07-08T07:13:11.000Z</time>
      </trkpt>
      <trkpt lat="47.49686" lon="16.0376">
        <ele>864.938463</ele>
        <time>2026-07-08T07:13:12.000Z</time>
      </trkpt>
      <trkpt lat="47.49677" lon="16.03767">
        <ele>864.500593</ele>
        <time>2026-07-08T07:13:13.000Z</time>
      </trkpt>
      <trkpt lat="47.49669" lon="16.03774">
        <ele>864.067216</ele>
        <time>2026-07-08T07:13:14.000Z</time>
      </trkpt>
      <trkpt lat="47.4966" lon="16.03781">
        <ele>863.623618</ele>
        <time>2026-07-08T07:13:15.000Z</time>
      </trkpt>
      <trkpt lat="47.49651" lon="16.03789">
        <ele>863.169355</ele>
        <time>2026-07-08T07:13:16.000Z</time>
      </trkpt>
      <trkpt lat="47.49642" lon="16.03796">
        <ele>862.706263</ele>
        <time>2026-07-08T07:13:17.000Z</time>
      </trkpt>
      <trkpt lat="47.49632" lon="16.03804">
        <ele>862.224797</ele>
        <time>2026-07-08T07:13:18.000Z</time>
      </trkpt>
      <trkpt lat="47.49623" lon="16.03813">
        <ele>861.655354</ele>
        <time>2026-07-08T07:13:19.000Z</time>
      </trkpt>
      <trkpt lat="47.49613" lon="16.03821">
        <ele>860.981051</ele>
        <time>2026-07-08T07:13:20.000Z</time>
      </trkpt>
      <trkpt lat="47.49603" lon="16.03829">
        <ele>860.288698</ele>
        <time>2026-07-08T07:13:21.000Z</time>
      </trkpt>
      <trkpt lat="47.49594" lon="16.03837">
        <ele>859.606127</ele>
        <time>2026-07-08T07:13:22.000Z</time>
      </trkpt>
      <trkpt lat="47.49584" lon="16.03846">
        <ele>858.926687</ele>
        <time>2026-07-08T07:13:23.000Z</time>
      </trkpt>
      <trkpt lat="47.49575" lon="16.03855">
        <ele>858.245927</ele>
        <time>2026-07-08T07:13:24.000Z</time>
      </trkpt>
      <trkpt lat="47.49566" lon="16.03863">
        <ele>857.57255</ele>
        <time>2026-07-08T07:13:25.000Z</time>
      </trkpt>
      <trkpt lat="47.49556" lon="16.03871">
        <ele>856.890883</ele>
        <time>2026-07-08T07:13:26.000Z</time>
      </trkpt>
      <trkpt lat="47.49546" lon="16.03879">
        <ele>856.201112</ele>
        <time>2026-07-08T07:13:27.000Z</time>
      </trkpt>
      <trkpt lat="47.49535" lon="16.03885">
        <ele>855.5029</ele>
        <time>2026-07-08T07:13:28.000Z</time>
      </trkpt>
      <trkpt lat="47.49524" lon="16.03892">
        <ele>854.783645</ele>
        <time>2026-07-08T07:13:29.000Z</time>
      </trkpt>
      <trkpt lat="47.49514" lon="16.03899">
        <ele>854.073217</ele>
        <time>2026-07-08T07:13:30.000Z</time>
      </trkpt>
      <trkpt lat="47.49503" lon="16.03905">
        <ele>853.348282</ele>
        <time>2026-07-08T07:13:31.000Z</time>
      </trkpt>
      <trkpt lat="47.49492" lon="16.03911">
        <ele>852.632176</ele>
        <time>2026-07-08T07:13:32.000Z</time>
      </trkpt>
      <trkpt lat="47.49481" lon="16.03917">
        <ele>851.925985</ele>
        <time>2026-07-08T07:13:33.000Z</time>
      </trkpt>
      <trkpt lat="47.4947" lon="16.03923">
        <ele>851.208459</ele>
        <time>2026-07-08T07:13:34.000Z</time>
      </trkpt>
      <trkpt lat="47.49459" lon="16.03929">
        <ele>850.34828</ele>
        <time>2026-07-08T07:13:35.000Z</time>
      </trkpt>
      <trkpt lat="47.49447" lon="16.03936">
        <ele>849.398861</ele>
        <time>2026-07-08T07:13:36.000Z</time>
      </trkpt>
      <trkpt lat="47.49436" lon="16.03944">
        <ele>848.424864</ele>
        <time>2026-07-08T07:13:37.000Z</time>
      </trkpt>
      <trkpt lat="47.49424" lon="16.03952">
        <ele>847.411875</ele>
        <time>2026-07-08T07:13:38.000Z</time>
      </trkpt>
      <trkpt lat="47.49412" lon="16.03959">
        <ele>846.410253</ele>
        <time>2026-07-08T07:13:39.000Z</time>
      </trkpt>
      <trkpt lat="47.494" lon="16.03967">
        <ele>845.378158</ele>
        <time>2026-07-08T07:13:40.000Z</time>
      </trkpt>
      <trkpt lat="47.49387" lon="16.03975">
        <ele>844.332768</ele>
        <time>2026-07-08T07:13:41.000Z</time>
      </trkpt>
      <trkpt lat="47.49375" lon="16.03982">
        <ele>843.269606</ele>
        <time>2026-07-08T07:13:42.000Z</time>
      </trkpt>
      <trkpt lat="47.49362" lon="16.03988">
        <ele>842.211027</ele>
        <time>2026-07-08T07:13:43.000Z</time>
      </trkpt>
      <trkpt lat="47.49348" lon="16.03994">
        <ele>841.143834</ele>
        <time>2026-07-08T07:13:44.000Z</time>
      </trkpt>
      <trkpt lat="47.49335" lon="16.04">
        <ele>840.085558</ele>
        <time>2026-07-08T07:13:45.000Z</time>
      </trkpt>
      <trkpt lat="47.49322" lon="16.04006">
        <ele>839.028573</ele>
        <time>2026-07-08T07:13:46.000Z</time>
      </trkpt>
      <trkpt lat="47.4931" lon="16.04013">
        <ele>837.97073</ele>
        <time>2026-07-08T07:13:47.000Z</time>
      </trkpt>
      <trkpt lat="47.49297" lon="16.04023">
        <ele>836.869522</ele>
        <time>2026-07-08T07:13:48.000Z</time>
      </trkpt>
      <trkpt lat="47.49285" lon="16.04034">
        <ele>835.613964</ele>
        <time>2026-07-08T07:13:49.000Z</time>
      </trkpt>
      <trkpt lat="47.49274" lon="16.04046">
        <ele>834.361929</ele>
        <time>2026-07-08T07:13:50.000Z</time>
      </trkpt>
      <trkpt lat="47.49263" lon="16.04059">
        <ele>833.083098</ele>
        <time>2026-07-08T07:13:51.000Z</time>
      </trkpt>
      <trkpt lat="47.49253" lon="16.04073">
        <ele>831.836293</ele>
        <time>2026-07-08T07:13:52.000Z</time>
      </trkpt>
      <trkpt lat="47.49242" lon="16.04087">
        <ele>830.570569</ele>
        <time>2026-07-08T07:13:53.000Z</time>
      </trkpt>
      <trkpt lat="47.49232" lon="16.04101">
        <ele>829.324692</ele>
        <time>2026-07-08T07:13:54.000Z</time>
      </trkpt>
      <trkpt lat="47.49222" lon="16.04114">
        <ele>828.068449</ele>
        <time>2026-07-08T07:13:55.000Z</time>
      </trkpt>
      <trkpt lat="47.49211" lon="16.04128">
        <ele>826.828095</ele>
        <time>2026-07-08T07:13:56.000Z</time>
      </trkpt>
      <trkpt lat="47.492" lon="16.0414">
        <ele>825.579118</ele>
        <time>2026-07-08T07:13:57.000Z</time>
      </trkpt>
      <trkpt lat="47.49189" lon="16.04153">
        <ele>824.323349</ele>
        <time>2026-07-08T07:13:58.000Z</time>
      </trkpt>
      <trkpt lat="47.49178" lon="16.04165">
        <ele>823.078479</ele>
        <time>2026-07-08T07:13:59.000Z</time>
      </trkpt>
      <trkpt lat="47.49166" lon="16.04176">
        <ele>821.820642</ele>
        <time>2026-07-08T07:14:00.000Z</time>
      </trkpt>
      <trkpt lat="47.49155" lon="16.04187">
        <ele>820.609106</ele>
        <time>2026-07-08T07:14:01.000Z</time>
      </trkpt>
      <trkpt lat="47.49144" lon="16.04198">
        <ele>819.534537</ele>
        <time>2026-07-08T07:14:02.000Z</time>
      </trkpt>
      <trkpt lat="47.49133" lon="16.04208">
        <ele>818.464976</ele>
        <time>2026-07-08T07:14:03.000Z</time>
      </trkpt>
      <trkpt lat="47.49121" lon="16.04218">
        <ele>817.378352</ele>
        <time>2026-07-08T07:14:04.000Z</time>
      </trkpt>
      <trkpt lat="47.49109" lon="16.04226">
        <ele>816.299819</ele>
        <time>2026-07-08T07:14:05.000Z</time>
      </trkpt>
      <trkpt lat="47.49097" lon="16.04234">
        <ele>815.23736</ele>
        <time>2026-07-08T07:14:06.000Z</time>
      </trkpt>
      <trkpt lat="47.49084" lon="16.0424">
        <ele>814.13581</ele>
        <time>2026-07-08T07:14:07.000Z</time>
      </trkpt>
      <trkpt lat="47.4907" lon="16.04244">
        <ele>813.04007</ele>
        <time>2026-07-08T07:14:08.000Z</time>
      </trkpt>
      <trkpt lat="47.49058" lon="16.04248">
        <ele>812.003031</ele>
        <time>2026-07-08T07:14:09.000Z</time>
      </trkpt>
      <trkpt lat="47.49046" lon="16.0425">
        <ele>811.010111</ele>
        <time>2026-07-08T07:14:10.000Z</time>
      </trkpt>
      <trkpt lat="47.49033" lon="16.0425">
        <ele>810.022486</ele>
        <time>2026-07-08T07:14:11.000Z</time>
      </trkpt>
      <trkpt lat="47.49021" lon="16.04248">
        <ele>809.038197</ele>
        <time>2026-07-08T07:14:12.000Z</time>
      </trkpt>
      <trkpt lat="47.4901" lon="16.04245">
        <ele>808.085031</ele>
        <time>2026-07-08T07:14:13.000Z</time>
      </trkpt>
      <trkpt lat="47.48998" lon="16.04239">
        <ele>807.081329</ele>
        <time>2026-07-08T07:14:14.000Z</time>
      </trkpt>
      <trkpt lat="47.48986" lon="16.04233">
        <ele>806.133294</ele>
        <time>2026-07-08T07:14:15.000Z</time>
      </trkpt>
      <trkpt lat="47.48975" lon="16.04226">
        <ele>805.391912</ele>
        <time>2026-07-08T07:14:16.000Z</time>
      </trkpt>
      <trkpt lat="47.48964" lon="16.04217">
        <ele>804.63841</ele>
        <time>2026-07-08T07:14:17.000Z</time>
      </trkpt>
      <trkpt lat="47.48953" lon="16.04208">
        <ele>803.880721</ele>
        <time>2026-07-08T07:14:18.000Z</time>
      </trkpt>
      <trkpt lat="47.48942" lon="16.04199">
        <ele>803.124329</ele>
        <time>2026-07-08T07:14:19.000Z</time>
      </trkpt>
      <trkpt lat="47.48931" lon="16.0419">
        <ele>802.371884</ele>
        <time>2026-07-08T07:14:20.000Z</time>
      </trkpt>
      <trkpt lat="47.4892" lon="16.04181">
        <ele>801.620697</ele>
        <time>2026-07-08T07:14:21.000Z</time>
      </trkpt>
      <trkpt lat="47.48909" lon="16.04172">
        <ele>800.887094</ele>
        <time>2026-07-08T07:14:22.000Z</time>
      </trkpt>
      <trkpt lat="47.48899" lon="16.04163">
        <ele>800.15661</ele>
        <time>2026-07-08T07:14:23.000Z</time>
      </trkpt>
      <trkpt lat="47.48888" lon="16.04153">
        <ele>799.426126</ele>
        <time>2026-07-08T07:14:24.000Z</time>
      </trkpt>
      <trkpt lat="47.48878" lon="16.04144">
        <ele>798.697694</ele>
        <time>2026-07-08T07:14:25.000Z</time>
      </trkpt>
      <trkpt lat="47.48867" lon="16.04136">
        <ele>797.986467</ele>
        <time>2026-07-08T07:14:26.000Z</time>
      </trkpt>
      <trkpt lat="47.48857" lon="16.04128">
        <ele>797.299267</ele>
        <time>2026-07-08T07:14:27.000Z</time>
      </trkpt>
      <trkpt lat="47.48847" lon="16.04123">
        <ele>796.660618</ele>
        <time>2026-07-08T07:14:28.000Z</time>
      </trkpt>
      <trkpt lat="47.48837" lon="16.04119">
        <ele>796.055158</ele>
        <time>2026-07-08T07:14:29.000Z</time>
      </trkpt>
      <trkpt lat="47.48828" lon="16.04118">
        <ele>795.474501</ele>
        <time>2026-07-08T07:14:30.000Z</time>
      </trkpt>
      <trkpt lat="47.48818" lon="16.04119">
        <ele>795.044248</ele>
        <time>2026-07-08T07:14:31.000Z</time>
      </trkpt>
      <trkpt lat="47.48808" lon="16.04123">
        <ele>794.610876</ele>
        <time>2026-07-08T07:14:32.000Z</time>
      </trkpt>
      <trkpt lat="47.48799" lon="16.04129">
        <ele>794.174942</ele>
        <time>2026-07-08T07:14:33.000Z</time>
      </trkpt>
      <trkpt lat="47.4879" lon="16.04136">
        <ele>793.730302</ele>
        <time>2026-07-08T07:14:34.000Z</time>
      </trkpt>
      <trkpt lat="47.48782" lon="16.04143">
        <ele>793.280807</ele>
        <time>2026-07-08T07:14:35.000Z</time>
      </trkpt>
      <trkpt lat="47.48773" lon="16.04152">
        <ele>792.833181</ele>
        <time>2026-07-08T07:14:36.000Z</time>
      </trkpt>
      <trkpt lat="47.48765" lon="16.0416">
        <ele>792.391256</ele>
        <time>2026-07-08T07:14:37.000Z</time>
      </trkpt>
      <trkpt lat="47.48756" lon="16.04169">
        <ele>791.935318</ele>
        <time>2026-07-08T07:14:38.000Z</time>
      </trkpt>
      <trkpt lat="47.48748" lon="16.04177">
        <ele>791.482745</ele>
        <time>2026-07-08T07:14:39.000Z</time>
      </trkpt>
      <trkpt lat="47.48739" lon="16.04186">
        <ele>791.030171</ele>
        <time>2026-07-08T07:14:40.000Z</time>
      </trkpt>
      <trkpt lat="47.48731" lon="16.04194">
        <ele>790.577854</ele>
        <time>2026-07-08T07:14:41.000Z</time>
      </trkpt>
      <trkpt lat="47.48723" lon="16.04203">
        <ele>790.129206</ele>
        <time>2026-07-08T07:14:42.000Z</time>
      </trkpt>
      <trkpt lat="47.48715" lon="16.04214">
        <ele>789.68307</ele>
        <time>2026-07-08T07:14:43.000Z</time>
      </trkpt>
      <trkpt lat="47.48708" lon="16.04224">
        <ele>789.239095</ele>
        <time>2026-07-08T07:14:44.000Z</time>
      </trkpt>
      <trkpt lat="47.48702" lon="16.04235">
        <ele>788.805</ele>
        <time>2026-07-08T07:14:45.000Z</time>
      </trkpt>
      <trkpt lat="47.48696" lon="16.04246">
        <ele>788.378919</ele>
        <time>2026-07-08T07:14:46.000Z</time>
      </trkpt>
      <trkpt lat="47.4869" lon="16.04258">
        <ele>787.95891</ele>
        <time>2026-07-08T07:14:47.000Z</time>
      </trkpt>
      <trkpt lat="47.48686" lon="16.0427">
        <ele>787.550573</ele>
        <time>2026-07-08T07:14:48.000Z</time>
      </trkpt>
      <trkpt lat="47.48682" lon="16.04282">
        <ele>787.275912</ele>
        <time>2026-07-08T07:14:49.000Z</time>
      </trkpt>
      <trkpt lat="47.48678" lon="16.04294">
        <ele>787.009222</ele>
        <time>2026-07-08T07:14:50.000Z</time>
      </trkpt>
      <trkpt lat="47.48675" lon="16.04305">
        <ele>786.754288</ele>
        <time>2026-07-08T07:14:51.000Z</time>
      </trkpt>
      <trkpt lat="47.48672" lon="16.04316">
        <ele>786.506168</ele>
        <time>2026-07-08T07:14:52.000Z</time>
      </trkpt>
      <trkpt lat="47.48669" lon="16.04327">
        <ele>786.262232</ele>
        <time>2026-07-08T07:14:53.000Z</time>
      </trkpt>
      <trkpt lat="47.48666" lon="16.04338">
        <ele>786.022385</ele>
        <time>2026-07-08T07:14:54.000Z</time>
      </trkpt>
      <trkpt lat="47.48663" lon="16.04349">
        <ele>785.785502</ele>
        <time>2026-07-08T07:14:55.000Z</time>
      </trkpt>
      <trkpt lat="47.4866" lon="16.0436">
        <ele>785.553274</ele>
        <time>2026-07-08T07:14:56.000Z</time>
      </trkpt>
      <trkpt lat="47.48657" lon="16.0437">
        <ele>785.320661</ele>
        <time>2026-07-08T07:14:57.000Z</time>
      </trkpt>
      <trkpt lat="47.48654" lon="16.0438">
        <ele>785.097409</ele>
        <time>2026-07-08T07:14:58.000Z</time>
      </trkpt>
      <trkpt lat="47.4865" lon="16.04389">
        <ele>784.889453</ele>
        <time>2026-07-08T07:14:59.000Z</time>
      </trkpt>
      <trkpt lat="47.48646" lon="16.04396">
        <ele>784.697683</ele>
        <time>2026-07-08T07:15:00.000Z</time>
      </trkpt>
      <trkpt lat="47.48642" lon="16.04403">
        <ele>784.503997</ele>
        <time>2026-07-08T07:15:01.000Z</time>
      </trkpt>
      <trkpt lat="47.48638" lon="16.04411">
        <ele>784.305243</ele>
        <time>2026-07-08T07:15:02.000Z</time>
      </trkpt>
      <trkpt lat="47.48633" lon="16.04418">
        <ele>784.087999</ele>
        <time>2026-07-08T07:15:03.000Z</time>
      </trkpt>
      <trkpt lat="47.48627" lon="16.04425">
        <ele>783.868951</ele>
        <time>2026-07-08T07:15:04.000Z</time>
      </trkpt>
      <trkpt lat="47.48621" lon="16.04432">
        <ele>783.64314</ele>
        <time>2026-07-08T07:15:05.000Z</time>
      </trkpt>
      <trkpt lat="47.48615" lon="16.04439">
        <ele>783.407534</ele>
        <time>2026-07-08T07:15:06.000Z</time>
      </trkpt>
      <trkpt lat="47.48609" lon="16.04446">
        <ele>783.170815</ele>
        <time>2026-07-08T07:15:07.000Z</time>
      </trkpt>
      <trkpt lat="47.48602" lon="16.04452">
        <ele>782.918719</ele>
        <time>2026-07-08T07:15:08.000Z</time>
      </trkpt>
      <trkpt lat="47.48595" lon="16.04458">
        <ele>782.668203</ele>
        <time>2026-07-08T07:15:09.000Z</time>
      </trkpt>
      <trkpt lat="47.48587" lon="16.04464">
        <ele>782.405527</ele>
        <time>2026-07-08T07:15:10.000Z</time>
      </trkpt>
      <trkpt lat="47.48579" lon="16.04469">
        <ele>782.144451</ele>
        <time>2026-07-08T07:15:11.000Z</time>
      </trkpt>
      <trkpt lat="47.48571" lon="16.04474">
        <ele>781.57487</ele>
        <time>2026-07-08T07:15:12.000Z</time>
      </trkpt>
      <trkpt lat="47.48562" lon="16.04478">
        <ele>780.953885</ele>
        <time>2026-07-08T07:15:13.000Z</time>
      </trkpt>
      <trkpt lat="47.48553" lon="16.04482">
        <ele>780.335122</ele>
        <time>2026-07-08T07:15:14.000Z</time>
      </trkpt>
      <trkpt lat="47.48545" lon="16.04487">
        <ele>779.716606</ele>
        <time>2026-07-08T07:15:15.000Z</time>
      </trkpt>
      <trkpt lat="47.48536" lon="16.04492">
        <ele>779.093118</ele>
        <time>2026-07-08T07:15:16.000Z</time>
      </trkpt>
      <trkpt lat="47.48527" lon="16.04497">
        <ele>778.440889</ele>
        <time>2026-07-08T07:15:17.000Z</time>
      </trkpt>
      <trkpt lat="47.48519" lon="16.04503">
        <ele>777.796673</ele>
        <time>2026-07-08T07:15:18.000Z</time>
      </trkpt>
      <trkpt lat="47.4851" lon="16.0451">
        <ele>777.126011</ele>
        <time>2026-07-08T07:15:19.000Z</time>
      </trkpt>
      <trkpt lat="47.48502" lon="16.04517">
        <ele>776.45144</ele>
        <time>2026-07-08T07:15:20.000Z</time>
      </trkpt>
      <trkpt lat="47.48493" lon="16.04525">
        <ele>775.772105</ele>
        <time>2026-07-08T07:15:21.000Z</time>
      </trkpt>
      <trkpt lat="47.48484" lon="16.04533">
        <ele>775.056462</ele>
        <time>2026-07-08T07:15:22.000Z</time>
      </trkpt>
      <trkpt lat="47.48475" lon="16.04542">
        <ele>774.328691</ele>
        <time>2026-07-08T07:15:23.000Z</time>
      </trkpt>
      <trkpt lat="47.48466" lon="16.04551">
        <ele>773.57694</ele>
        <time>2026-07-08T07:15:24.000Z</time>
      </trkpt>
      <trkpt lat="47.48456" lon="16.0456">
        <ele>772.802298</ele>
        <time>2026-07-08T07:15:25.000Z</time>
      </trkpt>
      <trkpt lat="47.48446" lon="16.04568">
        <ele>772.011583</ele>
        <time>2026-07-08T07:15:26.000Z</time>
      </trkpt>
      <trkpt lat="47.48436" lon="16.04577">
        <ele>771.195767</ele>
        <time>2026-07-08T07:15:27.000Z</time>
      </trkpt>
      <trkpt lat="47.48425" lon="16.04585">
        <ele>770.355929</ele>
        <time>2026-07-08T07:15:28.000Z</time>
      </trkpt>
      <trkpt lat="47.48414" lon="16.04593">
        <ele>769.514764</ele>
        <time>2026-07-08T07:15:29.000Z</time>
      </trkpt>
      <trkpt lat="47.48403" lon="16.04601">
        <ele>768.676263</ele>
        <time>2026-07-08T07:15:30.000Z</time>
      </trkpt>
      <trkpt lat="47.48392" lon="16.04608">
        <ele>767.876868</ele>
        <time>2026-07-08T07:15:31.000Z</time>
      </trkpt>
      <trkpt lat="47.48382" lon="16.04615">
        <ele>767.114594</ele>
        <time>2026-07-08T07:15:32.000Z</time>
      </trkpt>
      <trkpt lat="47.48373" lon="16.04622">
        <ele>766.393392</ele>
        <time>2026-07-08T07:15:33.000Z</time>
      </trkpt>
      <trkpt lat="47.48364" lon="16.04628">
        <ele>765.738233</ele>
        <time>2026-07-08T07:15:34.000Z</time>
      </trkpt>
      <trkpt lat="47.48356" lon="16.04633">
        <ele>765.14617</ele>
        <time>2026-07-08T07:15:35.000Z</time>
      </trkpt>
      <trkpt lat="47.4835" lon="16.04637">
        <ele>764.641941</ele>
        <time>2026-07-08T07:15:36.000Z</time>
      </trkpt>
      <trkpt lat="47.48343" lon="16.04639">
        <ele>764.204688</ele>
        <time>2026-07-08T07:15:37.000Z</time>
      </trkpt>
      <trkpt lat="47.48338" lon="16.04638">
        <ele>763.823877</ele>
        <time>2026-07-08T07:15:38.000Z</time>
      </trkpt>
      <trkpt lat="47.48333" lon="16.04635">
        <ele>763.442739</ele>
        <time>2026-07-08T07:15:39.000Z</time>
      </trkpt>
      <trkpt lat="47.4833" lon="16.04629">
        <ele>763.102028</ele>
        <time>2026-07-08T07:15:40.000Z</time>
      </trkpt>
      <trkpt lat="47.48328" lon="16.04623">
        <ele>762.80763</ele>
        <time>2026-07-08T07:15:41.000Z</time>
      </trkpt>
      <trkpt lat="47.48327" lon="16.04617">
        <ele>762.514218</ele>
        <time>2026-07-08T07:15:42.000Z</time>
      </trkpt>
      <trkpt lat="47.48326" lon="16.04611">
        <ele>762.246558</ele>
        <time>2026-07-08T07:15:43.000Z</time>
      </trkpt>
      <trkpt lat="47.48325" lon="16.04606">
        <ele>761.992079</ele>
        <time>2026-07-08T07:15:44.000Z</time>
      </trkpt>
      <trkpt lat="47.48325" lon="16.04601">
        <ele>761.732644</ele>
        <time>2026-07-08T07:15:45.000Z</time>
      </trkpt>
      <trkpt lat="47.48324" lon="16.04595">
        <ele>761.460062</ele>
        <time>2026-07-08T07:15:46.000Z</time>
      </trkpt>
      <trkpt lat="47.48323" lon="16.0459">
        <ele>761.212774</ele>
        <time>2026-07-08T07:15:47.000Z</time>
      </trkpt>
      <trkpt lat="47.48321" lon="16.04585">
        <ele>760.959356</ele>
        <time>2026-07-08T07:15:48.000Z</time>
      </trkpt>
      <trkpt lat="47.48319" lon="16.04581">
        <ele>760.710267</ele>
        <time>2026-07-08T07:15:49.000Z</time>
      </trkpt>
      <trkpt lat="47.48316" lon="16.04578">
        <ele>760.46473</ele>
        <time>2026-07-08T07:15:50.000Z</time>
      </trkpt>
      <trkpt lat="47.48312" lon="16.04577">
        <ele>760.177962</ele>
        <time>2026-07-08T07:15:51.000Z</time>
      </trkpt>
      <trkpt lat="47.48307" lon="16.04576">
        <ele>759.866175</ele>
        <time>2026-07-08T07:15:52.000Z</time>
      </trkpt>
      <trkpt lat="47.48302" lon="16.04577">
        <ele>759.505419</ele>
        <time>2026-07-08T07:15:53.000Z</time>
      </trkpt>
      <trkpt lat="47.48297" lon="16.04579">
        <ele>759.147278</ele>
        <time>2026-07-08T07:15:54.000Z</time>
      </trkpt>
      <trkpt lat="47.48292" lon="16.04582">
        <ele>758.793436</ele>
        <time>2026-07-08T07:15:55.000Z</time>
      </trkpt>
      <trkpt lat="47.48287" lon="16.04584">
        <ele>758.412136</ele>
        <time>2026-07-08T07:15:56.000Z</time>
      </trkpt>
      <trkpt lat="47.48282" lon="16.04587">
        <ele>758.021124</ele>
        <time>2026-07-08T07:15:57.000Z</time>
      </trkpt>
      <trkpt lat="47.48276" lon="16.0459">
        <ele>757.625282</ele>
        <time>2026-07-08T07:15:58.000Z</time>
      </trkpt>
      <trkpt lat="47.48271" lon="16.04593">
        <ele>757.391334</ele>
        <time>2026-07-08T07:15:59.000Z</time>
      </trkpt>
      <trkpt lat="47.48265" lon="16.04595">
        <ele>757.266845</ele>
        <time>2026-07-08T07:16:00.000Z</time>
      </trkpt>
      <trkpt lat="47.4826" lon="16.04597">
        <ele>757.14909</ele>
        <time>2026-07-08T07:16:01.000Z</time>
      </trkpt>
      <trkpt lat="47.48254" lon="16.04599">
        <ele>757.036031</ele>
        <time>2026-07-08T07:16:02.000Z</time>
      </trkpt>
      <trkpt lat="47.48249" lon="16.046">
        <ele>756.925881</ele>
        <time>2026-07-08T07:16:03.000Z</time>
      </trkpt>
      <trkpt lat="47.48244" lon="16.04603">
        <ele>756.820081</ele>
        <time>2026-07-08T07:16:04.000Z</time>
      </trkpt>
      <trkpt lat="47.4824" lon="16.04605">
        <ele>756.72438</ele>
        <time>2026-07-08T07:16:05.000Z</time>
      </trkpt>
      <trkpt lat="47.48235" lon="16.04607">
        <ele>756.62669</ele>
        <time>2026-07-08T07:16:06.000Z</time>
      </trkpt>
      <trkpt lat="47.48231" lon="16.04609">
        <ele>756.532094</ele>
        <time>2026-07-08T07:16:07.000Z</time>
      </trkpt>
      <trkpt lat="47.48227" lon="16.04611">
        <ele>756.43399</ele>
        <time>2026-07-08T07:16:08.000Z</time>
      </trkpt>
      <trkpt lat="47.48222" lon="16.04613">
        <ele>756.334537</ele>
        <time>2026-07-08T07:16:09.000Z</time>
      </trkpt>
      <trkpt lat="47.48218" lon="16.04616">
        <ele>756.234599</ele>
        <time>2026-07-08T07:16:10.000Z</time>
      </trkpt>
      <trkpt lat="47.48213" lon="16.04619">
        <ele>756.127326</ele>
        <time>2026-07-08T07:16:11.000Z</time>
      </trkpt>
      <trkpt lat="47.48208" lon="16.04622">
        <ele>756.017072</ele>
        <time>2026-07-08T07:16:12.000Z</time>
      </trkpt>
      <trkpt lat="47.48203" lon="16.04625">
        <ele>755.903243</ele>
        <time>2026-07-08T07:16:13.000Z</time>
      </trkpt>
      <trkpt lat="47.48198" lon="16.04629">
        <ele>755.787011</ele>
        <time>2026-07-08T07:16:14.000Z</time>
      </trkpt>
      <trkpt lat="47.48193" lon="16.04633">
        <ele>755.661339</ele>
        <time>2026-07-08T07:16:15.000Z</time>
      </trkpt>
      <trkpt lat="47.48187" lon="16.04638">
        <ele>755.527859</ele>
        <time>2026-07-08T07:16:16.000Z</time>
      </trkpt>
      <trkpt lat="47.48182" lon="16.04643">
        <ele>755.391395</ele>
        <time>2026-07-08T07:16:17.000Z</time>
      </trkpt>
      <trkpt lat="47.48176" lon="16.04649">
        <ele>755.248166</ele>
        <time>2026-07-08T07:16:18.000Z</time>
      </trkpt>
      <trkpt lat="47.4817" lon="16.04655">
        <ele>755.099319</ele>
        <time>2026-07-08T07:16:19.000Z</time>
      </trkpt>
      <trkpt lat="47.48164" lon="16.04661">
        <ele>754.944654</ele>
        <time>2026-07-08T07:16:20.000Z</time>
      </trkpt>
      <trkpt lat="47.48158" lon="16.04667">
        <ele>754.787479</ele>
        <time>2026-07-08T07:16:21.000Z</time>
      </trkpt>
      <trkpt lat="47.48151" lon="16.04674">
        <ele>754.624367</ele>
        <time>2026-07-08T07:16:22.000Z</time>
      </trkpt>
      <trkpt lat="47.48144" lon="16.0468">
        <ele>754.45605</ele>
        <time>2026-07-08T07:16:23.000Z</time>
      </trkpt>
      <trkpt lat="47.48138" lon="16.04687">
        <ele>754.287128</ele>
        <time>2026-07-08T07:16:24.000Z</time>
      </trkpt>
      <trkpt lat="47.48131" lon="16.04694">
        <ele>754.111468</ele>
        <time>2026-07-08T07:16:25.000Z</time>
      </trkpt>
      <trkpt lat="47.48124" lon="16.04701">
        <ele>753.93422</ele>
        <time>2026-07-08T07:16:26.000Z</time>
      </trkpt>
      <trkpt lat="47.48116" lon="16.04708">
        <ele>753.756627</ele>
        <time>2026-07-08T07:16:27.000Z</time>
      </trkpt>
      <trkpt lat="47.48109" lon="16.04715">
        <ele>753.581756</ele>
        <time>2026-07-08T07:16:28.000Z</time>
      </trkpt>
      <trkpt lat="47.48102" lon="16.04722">
        <ele>753.40792</ele>
        <time>2026-07-08T07:16:29.000Z</time>
      </trkpt>
      <trkpt lat="47.48095" lon="16.04728">
        <ele>753.235816</ele>
        <time>2026-07-08T07:16:30.000Z</time>
      </trkpt>
      <trkpt lat="47.48089" lon="16.04735">
        <ele>753.064646</ele>
        <time>2026-07-08T07:16:31.000Z</time>
      </trkpt>
      <trkpt lat="47.48082" lon="16.04742">
        <ele>752.896587</ele>
        <time>2026-07-08T07:16:32.000Z</time>
      </trkpt>
      <trkpt lat="47.48075" lon="16.04748">
        <ele>752.726779</ele>
        <time>2026-07-08T07:16:33.000Z</time>
      </trkpt>
      <trkpt lat="47.48068" lon="16.04755">
        <ele>752.562192</ele>
        <time>2026-07-08T07:16:34.000Z</time>
      </trkpt>
      <trkpt lat="47.48062" lon="16.04761">
        <ele>752.402403</ele>
        <time>2026-07-08T07:16:35.000Z</time>
      </trkpt>
      <trkpt lat="47.48055" lon="16.04767">
        <ele>752.242044</ele>
        <time>2026-07-08T07:16:36.000Z</time>
      </trkpt>
      <trkpt lat="47.48049" lon="16.04774">
        <ele>752.084192</ele>
        <time>2026-07-08T07:16:37.000Z</time>
      </trkpt>
      <trkpt lat="47.48043" lon="16.04779">
        <ele>751.931916</ele>
        <time>2026-07-08T07:16:38.000Z</time>
      </trkpt>
      <trkpt lat="47.48037" lon="16.04785">
        <ele>751.782145</ele>
        <time>2026-07-08T07:16:39.000Z</time>
      </trkpt>
      <trkpt lat="47.48031" lon="16.04791">
        <ele>751.635867</ele>
        <time>2026-07-08T07:16:40.000Z</time>
      </trkpt>
      <trkpt lat="47.48025" lon="16.04796">
        <ele>751.496334</ele>
        <time>2026-07-08T07:16:41.000Z</time>
      </trkpt>
      <trkpt lat="47.4802" lon="16.04802">
        <ele>751.354295</ele>
        <time>2026-07-08T07:16:42.000Z</time>
      </trkpt>
      <trkpt lat="47.48014" lon="16.04807">
        <ele>751.216487</ele>
        <time>2026-07-08T07:16:43.000Z</time>
      </trkpt>
      <trkpt lat="47.48008" lon="16.04813">
        <ele>751.07522</ele>
        <time>2026-07-08T07:16:44.000Z</time>
      </trkpt>
      <trkpt lat="47.48003" lon="16.04818">
        <ele>750.938192</ele>
        <time>2026-07-08T07:16:45.000Z</time>
      </trkpt>
      <trkpt lat="47.47997" lon="16.04824">
        <ele>750.800191</ele>
        <time>2026-07-08T07:16:46.000Z</time>
      </trkpt>
      <trkpt lat="47.47992" lon="16.04829">
        <ele>750.661178</ele>
        <time>2026-07-08T07:16:47.000Z</time>
      </trkpt>
      <trkpt lat="47.47986" lon="16.04834">
        <ele>750.519911</ele>
        <time>2026-07-08T07:16:48.000Z</time>
      </trkpt>
      <trkpt lat="47.4798" lon="16.0484">
        <ele>750.380377</ele>
        <time>2026-07-08T07:16:49.000Z</time>
      </trkpt>
      <trkpt lat="47.47975" lon="16.04845">
        <ele>750.242569</ele>
        <time>2026-07-08T07:16:50.000Z</time>
      </trkpt>
      <trkpt lat="47.47969" lon="16.04851">
        <ele>750.10397</ele>
        <time>2026-07-08T07:16:51.000Z</time>
      </trkpt>
      <trkpt lat="47.47964" lon="16.04856">
        <ele>749.972721</ele>
        <time>2026-07-08T07:16:52.000Z</time>
      </trkpt>
      <trkpt lat="47.47958" lon="16.04862">
        <ele>749.868813</ele>
        <time>2026-07-08T07:16:53.000Z</time>
      </trkpt>
      <trkpt lat="47.47953" lon="16.04868">
        <ele>749.764905</ele>
        <time>2026-07-08T07:16:54.000Z</time>
      </trkpt>
      <trkpt lat="47.47948" lon="16.04874">
        <ele>749.662898</ele>
        <time>2026-07-08T07:16:55.000Z</time>
      </trkpt>
      <trkpt lat="47.47942" lon="16.04879">
        <ele>749.560175</ele>
        <time>2026-07-08T07:16:56.000Z</time>
      </trkpt>
      <trkpt lat="47.47936" lon="16.04885">
        <ele>749.454874</ele>
        <time>2026-07-08T07:16:57.000Z</time>
      </trkpt>
      <trkpt lat="47.47931" lon="16.0489">
        <ele>749.352008</ele>
        <time>2026-07-08T07:16:58.000Z</time>
      </trkpt>
      <trkpt lat="47.47925" lon="16.04895">
        <ele>749.249867</ele>
        <time>2026-07-08T07:16:59.000Z</time>
      </trkpt>
      <trkpt lat="47.4792" lon="16.049">
        <ele>749.149427</ele>
        <time>2026-07-08T07:17:00.000Z</time>
      </trkpt>
      <trkpt lat="47.47914" lon="16.04906">
        <ele>749.047286</ele>
        <time>2026-07-08T07:17:01.000Z</time>
      </trkpt>
      <trkpt lat="47.47909" lon="16.04911">
        <ele>748.946846</ele>
        <time>2026-07-08T07:17:02.000Z</time>
      </trkpt>
      <trkpt lat="47.47903" lon="16.04916">
        <ele>748.845991</ele>
        <time>2026-07-08T07:17:03.000Z</time>
      </trkpt>
      <trkpt lat="47.47898" lon="16.04922">
        <ele>748.744424</ele>
        <time>2026-07-08T07:17:04.000Z</time>
      </trkpt>
      <trkpt lat="47.47893" lon="16.04927">
        <ele>748.645437</ele>
        <time>2026-07-08T07:17:05.000Z</time>
      </trkpt>
      <trkpt lat="47.47887" lon="16.04932">
        <ele>748.547031</ele>
        <time>2026-07-08T07:17:06.000Z</time>
      </trkpt>
      <trkpt lat="47.47882" lon="16.04937">
        <ele>748.447142</ele>
        <time>2026-07-08T07:17:07.000Z</time>
      </trkpt>
      <trkpt lat="47.47876" lon="16.04942">
        <ele>748.349662</ele>
        <time>2026-07-08T07:17:08.000Z</time>
      </trkpt>
      <trkpt lat="47.47871" lon="16.04947">
        <ele>748.251256</ele>
        <time>2026-07-08T07:17:09.000Z</time>
      </trkpt>
      <trkpt lat="47.47866" lon="16.04952">
        <ele>748.15399</ele>
        <time>2026-07-08T07:17:10.000Z</time>
      </trkpt>
      <trkpt lat="47.4786" lon="16.04957">
        <ele>748.054101</ele>
        <time>2026-07-08T07:17:11.000Z</time>
      </trkpt>
      <trkpt lat="47.47855" lon="16.04962">
        <ele>747.953127</ele>
        <time>2026-07-08T07:17:12.000Z</time>
      </trkpt>
      <trkpt lat="47.47849" lon="16.04966">
        <ele>747.851296</ele>
        <time>2026-07-08T07:17:13.000Z</time>
      </trkpt>
      <trkpt lat="47.47843" lon="16.04971">
        <ele>747.747204</ele>
        <time>2026-07-08T07:17:14.000Z</time>
      </trkpt>
      <trkpt lat="47.47836" lon="16.04975">
        <ele>747.637556</ele>
        <time>2026-07-08T07:17:15.000Z</time>
      </trkpt>
      <trkpt lat="47.4783" lon="16.0498">
        <ele>747.526508</ele>
        <time>2026-07-08T07:17:16.000Z</time>
      </trkpt>
      <trkpt lat="47.47823" lon="16.04984">
        <ele>747.411661</ele>
        <time>2026-07-08T07:17:17.000Z</time>
      </trkpt>
      <trkpt lat="47.47816" lon="16.04989">
        <ele>747.297229</ele>
        <time>2026-07-08T07:17:18.000Z</time>
      </trkpt>
      <trkpt lat="47.47809" lon="16.04993">
        <ele>747.198594</ele>
        <time>2026-07-08T07:17:19.000Z</time>
      </trkpt>
      <trkpt lat="47.47802" lon="16.04997">
        <ele>747.177601</ele>
        <time>2026-07-08T07:17:20.000Z</time>
      </trkpt>
      <trkpt lat="47.47794" lon="16.05001">
        <ele>747.15591</ele>
        <time>2026-07-08T07:17:21.000Z</time>
      </trkpt>
      <trkpt lat="47.47786" lon="16.05006">
        <ele>747.133447</ele>
        <time>2026-07-08T07:17:22.000Z</time>
      </trkpt>
      <trkpt lat="47.47779" lon="16.05011">
        <ele>747.111411</ele>
        <time>2026-07-08T07:17:23.000Z</time>
      </trkpt>
      <trkpt lat="47.47772" lon="16.05015">
        <ele>747.090221</ele>
        <time>2026-07-08T07:17:24.000Z</time>
      </trkpt>
      <trkpt lat="47.47764" lon="16.0502">
        <ele>747.068615</ele>
        <time>2026-07-08T07:17:25.000Z</time>
      </trkpt>
      <trkpt lat="47.47758" lon="16.05026">
        <ele>747.048187</ele>
        <time>2026-07-08T07:17:26.000Z</time>
      </trkpt>
      <trkpt lat="47.47751" lon="16.05031">
        <ele>747.028228</ele>
        <time>2026-07-08T07:17:27.000Z</time>
      </trkpt>
      <trkpt lat="47.47745" lon="16.05037">
        <ele>747.009194</ele>
        <time>2026-07-08T07:17:28.000Z</time>
      </trkpt>
      <trkpt lat="47.4774" lon="16.05042">
        <ele>746.991266</ele>
        <time>2026-07-08T07:17:29.000Z</time>
      </trkpt>
      <trkpt lat="47.47734" lon="16.05047">
        <ele>746.973396</ele>
        <time>2026-07-08T07:17:30.000Z</time>
      </trkpt>
      <trkpt lat="47.47728" lon="16.05051">
        <ele>746.955973</ele>
        <time>2026-07-08T07:17:31.000Z</time>
      </trkpt>
      <trkpt lat="47.47723" lon="16.05056">
        <ele>746.939024</ele>
        <time>2026-07-08T07:17:32.000Z</time>
      </trkpt>
      <trkpt lat="47.47718" lon="16.0506">
        <ele>746.923103</ele>
        <time>2026-07-08T07:17:33.000Z</time>
      </trkpt>
      <trkpt lat="47.47713" lon="16.05064">
        <ele>746.907213</ele>
        <time>2026-07-08T07:17:34.000Z</time>
      </trkpt>
      <trkpt lat="47.47708" lon="16.05068">
        <ele>746.892445</ele>
        <time>2026-07-08T07:17:35.000Z</time>
      </trkpt>
      <trkpt lat="47.47703" lon="16.05072">
        <ele>746.87745</ele>
        <time>2026-07-08T07:17:36.000Z</time>
      </trkpt>
      <trkpt lat="47.47698" lon="16.05076">
        <ele>746.862207</ele>
        <time>2026-07-08T07:17:37.000Z</time>
      </trkpt>
      <trkpt lat="47.47693" lon="16.05079">
        <ele>746.84729</ele>
        <time>2026-07-08T07:17:38.000Z</time>
      </trkpt>
      <trkpt lat="47.47688" lon="16.05083">
        <ele>746.832617</ele>
        <time>2026-07-08T07:17:39.000Z</time>
      </trkpt>
      <trkpt lat="47.47683" lon="16.05086">
        <ele>746.8177</ele>
        <time>2026-07-08T07:17:40.000Z</time>
      </trkpt>
      <trkpt lat="47.47678" lon="16.05089">
        <ele>746.802831</ele>
        <time>2026-07-08T07:17:41.000Z</time>
      </trkpt>
      <trkpt lat="47.47673" lon="16.05092">
        <ele>746.787969</ele>
        <time>2026-07-08T07:17:42.000Z</time>
      </trkpt>
      <trkpt lat="47.47667" lon="16.05095">
        <ele>746.772666</ele>
        <time>2026-07-08T07:17:43.000Z</time>
      </trkpt>
      <trkpt lat="47.47662" lon="16.05098">
        <ele>746.756526</ele>
        <time>2026-07-08T07:17:44.000Z</time>
      </trkpt>
      <trkpt lat="47.47656" lon="16.05101">
        <ele>746.739956</ele>
        <time>2026-07-08T07:17:45.000Z</time>
      </trkpt>
      <trkpt lat="47.4765" lon="16.05104">
        <ele>746.723579</ele>
        <time>2026-07-08T07:17:46.000Z</time>
      </trkpt>
      <trkpt lat="47.47644" lon="16.05107">
        <ele>746.688283</ele>
        <time>2026-07-08T07:17:47.000Z</time>
      </trkpt>
      <trkpt lat="47.47638" lon="16.0511">
        <ele>746.643632</ele>
        <time>2026-07-08T07:17:48.000Z</time>
      </trkpt>
      <trkpt lat="47.47633" lon="16.05113">
        <ele>746.600979</ele>
        <time>2026-07-08T07:17:49.000Z</time>
      </trkpt>
      <trkpt lat="47.47627" lon="16.05116">
        <ele>746.557816</ele>
        <time>2026-07-08T07:17:50.000Z</time>
      </trkpt>
      <trkpt lat="47.47621" lon="16.05119">
        <ele>746.514133</ele>
        <time>2026-07-08T07:17:51.000Z</time>
      </trkpt>
      <trkpt lat="47.47615" lon="16.05122">
        <ele>746.472144</ele>
        <time>2026-07-08T07:17:52.000Z</time>
      </trkpt>
      <trkpt lat="47.4761" lon="16.05125">
        <ele>746.429491</ele>
        <time>2026-07-08T07:17:53.000Z</time>
      </trkpt>
      <trkpt lat="47.47604" lon="16.05127">
        <ele>746.386478</ele>
        <time>2026-07-08T07:17:54.000Z</time>
      </trkpt>
      <trkpt lat="47.47598" lon="16.0513">
        <ele>746.34321</ele>
        <time>2026-07-08T07:17:55.000Z</time>
      </trkpt>
      <trkpt lat="47.47592" lon="16.05132">
        <ele>746.300619</ele>
        <time>2026-07-08T07:17:56.000Z</time>
      </trkpt>
      <trkpt lat="47.47586" lon="16.05135">
        <ele>746.257752</ele>
        <time>2026-07-08T07:17:57.000Z</time>
      </trkpt>
      <trkpt lat="47.4758" lon="16.05138">
        <ele>746.214069</ele>
        <time>2026-07-08T07:17:58.000Z</time>
      </trkpt>
      <trkpt lat="47.47575" lon="16.05141">
        <ele>746.17208</ele>
        <time>2026-07-08T07:17:59.000Z</time>
      </trkpt>
      <trkpt lat="47.47569" lon="16.05144">
        <ele>746.130413</ele>
        <time>2026-07-08T07:18:00.000Z</time>
      </trkpt>
      <trkpt lat="47.47564" lon="16.05147">
        <ele>746.088747</ele>
        <time>2026-07-08T07:18:01.000Z</time>
      </trkpt>
      <trkpt lat="47.47558" lon="16.0515">
        <ele>746.046094</ele>
        <time>2026-07-08T07:18:02.000Z</time>
      </trkpt>
      <trkpt lat="47.47553" lon="16.05153">
        <ele>746.005914</ele>
        <time>2026-07-08T07:18:03.000Z</time>
      </trkpt>
      <trkpt lat="47.47547" lon="16.05157">
        <ele>745.964903</ele>
        <time>2026-07-08T07:18:04.000Z</time>
      </trkpt>
      <trkpt lat="47.47542" lon="16.0516">
        <ele>745.926496</ele>
        <time>2026-07-08T07:18:05.000Z</time>
      </trkpt>
      <trkpt lat="47.47537" lon="16.05163">
        <ele>745.887802</ele>
        <time>2026-07-08T07:18:06.000Z</time>
      </trkpt>
      <trkpt lat="47.47532" lon="16.05166">
        <ele>745.849763</ele>
        <time>2026-07-08T07:18:07.000Z</time>
      </trkpt>
      <trkpt lat="47.47527" lon="16.05169">
        <ele>745.811542</ele>
        <time>2026-07-08T07:18:08.000Z</time>
      </trkpt>
      <trkpt lat="47.47522" lon="16.05172">
        <ele>745.771837</ele>
        <time>2026-07-08T07:18:09.000Z</time>
      </trkpt>
      <trkpt lat="47.47517" lon="16.05175">
        <ele>745.732487</ele>
        <time>2026-07-08T07:18:10.000Z</time>
      </trkpt>
      <trkpt lat="47.47512" lon="16.05178">
        <ele>745.694136</ele>
        <time>2026-07-08T07:18:11.000Z</time>
      </trkpt>
      <trkpt lat="47.47507" lon="16.05181">
        <ele>745.65443</ele>
        <time>2026-07-08T07:18:12.000Z</time>
      </trkpt>
      <trkpt lat="47.47501" lon="16.05185">
        <ele>745.614154</ele>
        <time>2026-07-08T07:18:13.000Z</time>
      </trkpt>
      <trkpt lat="47.47497" lon="16.05188">
        <ele>745.575995</ele>
        <time>2026-07-08T07:18:14.000Z</time>
      </trkpt>
      <trkpt lat="47.47492" lon="16.05192">
        <ele>745.535921</ele>
        <time>2026-07-08T07:18:15.000Z</time>
      </trkpt>
      <trkpt lat="47.47487" lon="16.05196">
        <ele>745.497981</ele>
        <time>2026-07-08T07:18:16.000Z</time>
      </trkpt>
      <trkpt lat="47.47482" lon="16.052">
        <ele>745.458566</ele>
        <time>2026-07-08T07:18:17.000Z</time>
      </trkpt>
      <trkpt lat="47.47477" lon="16.05203">
        <ele>745.338127</ele>
        <time>2026-07-08T07:18:18.000Z</time>
      </trkpt>
      <trkpt lat="47.47471" lon="16.05205">
        <ele>745.198119</ele>
        <time>2026-07-08T07:18:19.000Z</time>
      </trkpt>
      <trkpt lat="47.47466" lon="16.05208">
        <ele>745.054545</ele>
        <time>2026-07-08T07:18:20.000Z</time>
      </trkpt>
      <trkpt lat="47.47461" lon="16.05211">
        <ele>744.906817</ele>
        <time>2026-07-08T07:18:21.000Z</time>
      </trkpt>
      <trkpt lat="47.47455" lon="16.05215">
        <ele>744.756654</ele>
        <time>2026-07-08T07:18:22.000Z</time>
      </trkpt>
      <trkpt lat="47.4745" lon="16.05218">
        <ele>744.603789</ele>
        <time>2026-07-08T07:18:23.000Z</time>
      </trkpt>
      <trkpt lat="47.47444" lon="16.05222">
        <ele>744.444173</ele>
        <time>2026-07-08T07:18:24.000Z</time>
      </trkpt>
      <trkpt lat="47.47438" lon="16.05226">
        <ele>744.28969</ele>
        <time>2026-07-08T07:18:25.000Z</time>
      </trkpt>
      <trkpt lat="47.47432" lon="16.05229">
        <ele>744.128862</ele>
        <time>2026-07-08T07:18:26.000Z</time>
      </trkpt>
      <trkpt lat="47.47427" lon="16.05233">
        <ele>743.967672</ele>
        <time>2026-07-08T07:18:27.000Z</time>
      </trkpt>
      <trkpt lat="47.47421" lon="16.05238">
        <ele>743.798993</ele>
        <time>2026-07-08T07:18:28.000Z</time>
      </trkpt>
      <trkpt lat="47.47415" lon="16.05242">
        <ele>743.630315</ele>
        <time>2026-07-08T07:18:29.000Z</time>
      </trkpt>
      <trkpt lat="47.47409" lon="16.05246">
        <ele>743.460117</ele>
        <time>2026-07-08T07:18:30.000Z</time>
      </trkpt>
      <trkpt lat="47.47402" lon="16.0525">
        <ele>743.286663</ele>
        <time>2026-07-08T07:18:31.000Z</time>
      </trkpt>
      <trkpt lat="47.47396" lon="16.05255">
        <ele>743.105811</ele>
        <time>2026-07-08T07:18:32.000Z</time>
      </trkpt>
      <trkpt lat="47.47389" lon="16.05259">
        <ele>742.923508</ele>
        <time>2026-07-08T07:18:33.000Z</time>
      </trkpt>
      <trkpt lat="47.47383" lon="16.05264">
        <ele>742.734411</ele>
        <time>2026-07-08T07:18:34.000Z</time>
      </trkpt>
      <trkpt lat="47.47376" lon="16.05269">
        <ele>742.543774</ele>
        <time>2026-07-08T07:18:35.000Z</time>
      </trkpt>
      <trkpt lat="47.47369" lon="16.05275">
        <ele>742.350418</ele>
        <time>2026-07-08T07:18:36.000Z</time>
      </trkpt>
      <trkpt lat="47.47362" lon="16.05281">
        <ele>742.152116</ele>
        <time>2026-07-08T07:18:37.000Z</time>
      </trkpt>
      <trkpt lat="47.47355" lon="16.05286">
        <ele>741.949955</ele>
        <time>2026-07-08T07:18:38.000Z</time>
      </trkpt>
      <trkpt lat="47.47348" lon="16.05292">
        <ele>741.745272</ele>
        <time>2026-07-08T07:18:39.000Z</time>
      </trkpt>
      <trkpt lat="47.47341" lon="16.05298">
        <ele>741.539725</ele>
        <time>2026-07-08T07:18:40.000Z</time>
      </trkpt>
      <trkpt lat="47.47334" lon="16.05305">
        <ele>741.330624</ele>
        <time>2026-07-08T07:18:41.000Z</time>
      </trkpt>
      <trkpt lat="47.47327" lon="16.05312">
        <ele>741.119684</ele>
        <time>2026-07-08T07:18:42.000Z</time>
      </trkpt>
      <trkpt lat="47.47321" lon="16.05318">
        <ele>740.912022</ele>
        <time>2026-07-08T07:18:43.000Z</time>
      </trkpt>
      <trkpt lat="47.47314" lon="16.05325">
        <ele>740.772152</ele>
        <time>2026-07-08T07:18:44.000Z</time>
      </trkpt>
      <trkpt lat="47.47307" lon="16.05332">
        <ele>740.638752</ele>
        <time>2026-07-08T07:18:45.000Z</time>
      </trkpt>
      <trkpt lat="47.473" lon="16.05339">
        <ele>740.504608</ele>
        <time>2026-07-08T07:18:46.000Z</time>
      </trkpt>
      <trkpt lat="47.47293" lon="16.05345">
        <ele>740.37182</ele>
        <time>2026-07-08T07:18:47.000Z</time>
      </trkpt>
      <trkpt lat="47.47286" lon="16.05352">
        <ele>740.240994</ele>
        <time>2026-07-08T07:18:48.000Z</time>
      </trkpt>
      <trkpt lat="47.4728" lon="16.05359">
        <ele>740.112235</ele>
        <time>2026-07-08T07:18:49.000Z</time>
      </trkpt>
      <trkpt lat="47.47274" lon="16.05365">
        <ele>739.986131</ele>
        <time>2026-07-08T07:18:50.000Z</time>
      </trkpt>
      <trkpt lat="47.47267" lon="16.05372">
        <ele>739.860691</ele>
        <time>2026-07-08T07:18:51.000Z</time>
      </trkpt>
      <trkpt lat="47.47261" lon="16.05379">
        <ele>739.737847</ele>
        <time>2026-07-08T07:18:52.000Z</time>
      </trkpt>
      <trkpt lat="47.47255" lon="16.05386">
        <ele>739.615668</ele>
        <time>2026-07-08T07:18:53.000Z</time>
      </trkpt>
      <trkpt lat="47.47249" lon="16.05392">
        <ele>739.493488</ele>
        <time>2026-07-08T07:18:54.000Z</time>
      </trkpt>
      <trkpt lat="47.47244" lon="16.05399">
        <ele>739.373209</ele>
        <time>2026-07-08T07:18:55.000Z</time>
      </trkpt>
      <trkpt lat="47.47238" lon="16.05406">
        <ele>739.256711</ele>
        <time>2026-07-08T07:18:56.000Z</time>
      </trkpt>
      <trkpt lat="47.47232" lon="16.05413">
        <ele>739.138387</ele>
        <time>2026-07-08T07:18:57.000Z</time>
      </trkpt>
      <trkpt lat="47.47227" lon="16.05419">
        <ele>739.02259</ele>
        <time>2026-07-08T07:18:58.000Z</time>
      </trkpt>
      <trkpt lat="47.47221" lon="16.05426">
        <ele>738.907488</ele>
        <time>2026-07-08T07:18:59.000Z</time>
      </trkpt>
      <trkpt lat="47.47216" lon="16.05433">
        <ele>738.794182</ele>
        <time>2026-07-08T07:19:00.000Z</time>
      </trkpt>
      <trkpt lat="47.47211" lon="16.05439">
        <ele>738.678385</ele>
        <time>2026-07-08T07:19:01.000Z</time>
      </trkpt>
      <trkpt lat="47.47205" lon="16.05446">
        <ele>738.560741</ele>
        <time>2026-07-08T07:19:02.000Z</time>
      </trkpt>
      <trkpt lat="47.47199" lon="16.05453">
        <ele>738.443685</ele>
        <time>2026-07-08T07:19:03.000Z</time>
      </trkpt>
      <trkpt lat="47.47194" lon="16.05459">
        <ele>738.325361</ele>
        <time>2026-07-08T07:19:04.000Z</time>
      </trkpt>
      <trkpt lat="47.47188" lon="16.05466">
        <ele>738.207717</ele>
        <time>2026-07-08T07:19:05.000Z</time>
      </trkpt>
      <trkpt lat="47.47182" lon="16.05473">
        <ele>738.09192</ele>
        <time>2026-07-08T07:19:06.000Z</time>
      </trkpt>
      <trkpt lat="47.47177" lon="16.05479">
        <ele>737.97664</ele>
        <time>2026-07-08T07:19:07.000Z</time>
      </trkpt>
      <trkpt lat="47.47171" lon="16.05485">
        <ele>738.048779</ele>
        <time>2026-07-08T07:19:08.000Z</time>
      </trkpt>
      <trkpt lat="47.47166" lon="16.05492">
        <ele>738.120294</ele>
        <time>2026-07-08T07:19:09.000Z</time>
      </trkpt>
      <trkpt lat="47.47161" lon="16.05499">
        <ele>738.190895</ele>
        <time>2026-07-08T07:19:10.000Z</time>
      </trkpt>
      <trkpt lat="47.47156" lon="16.05505">
        <ele>738.259925</ele>
        <time>2026-07-08T07:19:11.000Z</time>
      </trkpt>
      <trkpt lat="47.47151" lon="16.05512">
        <ele>738.327411</ele>
        <time>2026-07-08T07:19:12.000Z</time>
      </trkpt>
      <trkpt lat="47.47146" lon="16.05518">
        <ele>738.393959</ele>
        <time>2026-07-08T07:19:13.000Z</time>
      </trkpt>
      <trkpt lat="47.47142" lon="16.05524">
        <ele>738.457732</ele>
        <time>2026-07-08T07:19:14.000Z</time>
      </trkpt>
      <trkpt lat="47.47137" lon="16.0553">
        <ele>738.521207</ele>
        <time>2026-07-08T07:19:15.000Z</time>
      </trkpt>
      <trkpt lat="47.47133" lon="16.05536">
        <ele>738.582645</ele>
        <time>2026-07-08T07:19:16.000Z</time>
      </trkpt>
      <trkpt lat="47.47128" lon="16.05541">
        <ele>738.640816</ele>
        <time>2026-07-08T07:19:17.000Z</time>
      </trkpt>
      <trkpt lat="47.47124" lon="16.05546">
        <ele>738.698414</ele>
        <time>2026-07-08T07:19:18.000Z</time>
      </trkpt>
      <trkpt lat="47.4712" lon="16.05551">
        <ele>738.754766</ele>
        <time>2026-07-08T07:19:19.000Z</time>
      </trkpt>
      <trkpt lat="47.47116" lon="16.05557">
        <ele>738.810773</ele>
        <time>2026-07-08T07:19:20.000Z</time>
      </trkpt>
      <trkpt lat="47.47112" lon="16.05562">
        <ele>738.866463</ele>
        <time>2026-07-08T07:19:21.000Z</time>
      </trkpt>
      <trkpt lat="47.47108" lon="16.05567">
        <ele>738.922622</ele>
        <time>2026-07-08T07:19:22.000Z</time>
      </trkpt>
      <trkpt lat="47.47104" lon="16.05572">
        <ele>738.977387</ele>
        <time>2026-07-08T07:19:23.000Z</time>
      </trkpt>
      <trkpt lat="47.471" lon="16.05577">
        <ele>739.031696</ele>
        <time>2026-07-08T07:19:24.000Z</time>
      </trkpt>
      <trkpt lat="47.47096" lon="16.05582">
        <ele>739.085555</ele>
        <time>2026-07-08T07:19:25.000Z</time>
      </trkpt>
      <trkpt lat="47.47092" lon="16.05587">
        <ele>739.139864</ele>
        <time>2026-07-08T07:19:26.000Z</time>
      </trkpt>
      <trkpt lat="47.47088" lon="16.05592">
        <ele>739.192478</ele>
        <time>2026-07-08T07:19:27.000Z</time>
      </trkpt>
      <trkpt lat="47.47084" lon="16.05597">
        <ele>739.246787</ele>
        <time>2026-07-08T07:19:28.000Z</time>
      </trkpt>
      <trkpt lat="47.4708" lon="16.05602">
        <ele>739.298608</ele>
        <time>2026-07-08T07:19:29.000Z</time>
      </trkpt>
      <trkpt lat="47.47076" lon="16.05607">
        <ele>739.349976</ele>
        <time>2026-07-08T07:19:30.000Z</time>
      </trkpt>
      <trkpt lat="47.47072" lon="16.05611">
        <ele>739.402952</ele>
        <time>2026-07-08T07:19:31.000Z</time>
      </trkpt>
      <trkpt lat="47.47068" lon="16.05616">
        <ele>739.456733</ele>
        <time>2026-07-08T07:19:32.000Z</time>
      </trkpt>
      <trkpt lat="47.47064" lon="16.0562">
        <ele>739.511358</ele>
        <time>2026-07-08T07:19:33.000Z</time>
      </trkpt>
      <trkpt lat="47.47059" lon="16.05625">
        <ele>739.570588</ele>
        <time>2026-07-08T07:19:34.000Z</time>
      </trkpt>
      <trkpt lat="47.47054" lon="16.0563">
        <ele>739.629818</ele>
        <time>2026-07-08T07:19:35.000Z</time>
      </trkpt>
      <trkpt lat="47.47049" lon="16.05635">
        <ele>739.692133</ele>
        <time>2026-07-08T07:19:36.000Z</time>
      </trkpt>
      <trkpt lat="47.47044" lon="16.05639">
        <ele>739.759809</ele>
        <time>2026-07-08T07:19:37.000Z</time>
      </trkpt>
      <trkpt lat="47.47038" lon="16.05644">
        <ele>739.829427</ele>
        <time>2026-07-08T07:19:38.000Z</time>
      </trkpt>
      <trkpt lat="47.47032" lon="16.0565">
        <ele>739.842033</ele>
        <time>2026-07-08T07:19:39.000Z</time>
      </trkpt>
      <trkpt lat="47.47025" lon="16.05655">
        <ele>739.842295</ele>
        <time>2026-07-08T07:19:40.000Z</time>
      </trkpt>
      <trkpt lat="47.47019" lon="16.05661">
        <ele>739.842562</ele>
        <time>2026-07-08T07:19:41.000Z</time>
      </trkpt>
      <trkpt lat="47.47012" lon="16.05668">
        <ele>739.842848</ele>
        <time>2026-07-08T07:19:42.000Z</time>
      </trkpt>
      <trkpt lat="47.47005" lon="16.05675">
        <ele>739.843135</ele>
        <time>2026-07-08T07:19:43.000Z</time>
      </trkpt>
      <trkpt lat="47.46998" lon="16.05683">
        <ele>739.843428</ele>
        <time>2026-07-08T07:19:44.000Z</time>
      </trkpt>
      <trkpt lat="47.46992" lon="16.0569">
        <ele>739.843714</ele>
        <time>2026-07-08T07:19:45.000Z</time>
      </trkpt>
      <trkpt lat="47.46985" lon="16.05697">
        <ele>739.843988</ele>
        <time>2026-07-08T07:19:46.000Z</time>
      </trkpt>
      <trkpt lat="47.46979" lon="16.05704">
        <ele>739.844256</ele>
        <time>2026-07-08T07:19:47.000Z</time>
      </trkpt>
      <trkpt lat="47.46974" lon="16.05712">
        <ele>739.844507</ele>
        <time>2026-07-08T07:19:48.000Z</time>
      </trkpt>
      <trkpt lat="47.46969" lon="16.05718">
        <ele>739.844751</ele>
        <time>2026-07-08T07:19:49.000Z</time>
      </trkpt>
      <trkpt lat="47.46964" lon="16.05725">
        <ele>739.844975</ele>
        <time>2026-07-08T07:19:50.000Z</time>
      </trkpt>
      <trkpt lat="47.4696" lon="16.05732">
        <ele>739.845192</ele>
        <time>2026-07-08T07:19:51.000Z</time>
      </trkpt>
      <trkpt lat="47.46956" lon="16.05738">
        <ele>739.845394</ele>
        <time>2026-07-08T07:19:52.000Z</time>
      </trkpt>
      <trkpt lat="47.46951" lon="16.05743">
        <ele>739.845594</ele>
        <time>2026-07-08T07:19:53.000Z</time>
      </trkpt>
      <trkpt lat="47.46947" lon="16.05748">
        <ele>739.845788</ele>
        <time>2026-07-08T07:19:54.000Z</time>
      </trkpt>
      <trkpt lat="47.46943" lon="16.05754">
        <ele>739.845981</ele>
        <time>2026-07-08T07:19:55.000Z</time>
      </trkpt>
      <trkpt lat="47.46938" lon="16.05759">
        <ele>739.846173</ele>
        <time>2026-07-08T07:19:56.000Z</time>
      </trkpt>
      <trkpt lat="47.46934" lon="16.05764">
        <ele>739.846366</ele>
        <time>2026-07-08T07:19:57.000Z</time>
      </trkpt>
      <trkpt lat="47.46929" lon="16.05769">
        <ele>739.846567</ele>
        <time>2026-07-08T07:19:58.000Z</time>
      </trkpt>
      <trkpt lat="47.46925" lon="16.05774">
        <ele>739.846762</ele>
        <time>2026-07-08T07:19:59.000Z</time>
      </trkpt>
      <trkpt lat="47.4692" lon="16.05779">
        <ele>739.84697</ele>
        <time>2026-07-08T07:20:00.000Z</time>
      </trkpt>
      <trkpt lat="47.46915" lon="16.05783">
        <ele>739.847181</ele>
        <time>2026-07-08T07:20:01.000Z</time>
      </trkpt>
      <trkpt lat="47.46909" lon="16.05788">
        <ele>739.847398</ele>
        <time>2026-07-08T07:20:02.000Z</time>
      </trkpt>
      <trkpt lat="47.46904" lon="16.05793">
        <ele>739.847614</ele>
        <time>2026-07-08T07:20:03.000Z</time>
      </trkpt>
      <trkpt lat="47.46898" lon="16.05798">
        <ele>739.847837</ele>
        <time>2026-07-08T07:20:04.000Z</time>
      </trkpt>
      <trkpt lat="47.46893" lon="16.05803">
        <ele>739.848055</ele>
        <time>2026-07-08T07:20:05.000Z</time>
      </trkpt>
      <trkpt lat="47.46888" lon="16.05807">
        <ele>739.836961</ele>
        <time>2026-07-08T07:20:06.000Z</time>
      </trkpt>
      <trkpt lat="47.46882" lon="16.05812">
        <ele>739.824974</ele>
        <time>2026-07-08T07:20:07.000Z</time>
      </trkpt>
      <trkpt lat="47.46877" lon="16.05817">
        <ele>739.813441</ele>
        <time>2026-07-08T07:20:08.000Z</time>
      </trkpt>
      <trkpt lat="47.46871" lon="16.05821">
        <ele>739.801247</ele>
        <time>2026-07-08T07:20:09.000Z</time>
      </trkpt>
      <trkpt lat="47.46866" lon="16.05826">
        <ele>739.789385</ele>
        <time>2026-07-08T07:20:10.000Z</time>
      </trkpt>
      <trkpt lat="47.4686" lon="16.0583">
        <ele>739.777069</ele>
        <time>2026-07-08T07:20:11.000Z</time>
      </trkpt>
      <trkpt lat="47.46854" lon="16.05835">
        <ele>739.765207</ele>
        <time>2026-07-08T07:20:12.000Z</time>
      </trkpt>
      <trkpt lat="47.46849" lon="16.0584">
        <ele>739.752992</ele>
        <time>2026-07-08T07:20:13.000Z</time>
      </trkpt>
      <trkpt lat="47.46843" lon="16.05844">
        <ele>739.741004</ele>
        <time>2026-07-08T07:20:14.000Z</time>
      </trkpt>
      <trkpt lat="47.46838" lon="16.05849">
        <ele>739.728928</ele>
        <time>2026-07-08T07:20:15.000Z</time>
      </trkpt>
      <trkpt lat="47.46832" lon="16.05853">
        <ele>739.716741</ele>
        <time>2026-07-08T07:20:16.000Z</time>
      </trkpt>
      <trkpt lat="47.46826" lon="16.05857">
        <ele>739.704438</ele>
        <time>2026-07-08T07:20:17.000Z</time>
      </trkpt>
      <trkpt lat="47.4682" lon="16.05861">
        <ele>739.69225</ele>
        <time>2026-07-08T07:20:18.000Z</time>
      </trkpt>
      <trkpt lat="47.46814" lon="16.05865">
        <ele>739.680232</ele>
        <time>2026-07-08T07:20:19.000Z</time>
      </trkpt>
      <trkpt lat="47.46809" lon="16.05869">
        <ele>739.6681</ele>
        <time>2026-07-08T07:20:20.000Z</time>
      </trkpt>
      <trkpt lat="47.46803" lon="16.05873">
        <ele>739.656193</ele>
        <time>2026-07-08T07:20:21.000Z</time>
      </trkpt>
      <trkpt lat="47.46797" lon="16.05877">
        <ele>739.644169</ele>
        <time>2026-07-08T07:20:22.000Z</time>
      </trkpt>
      <trkpt lat="47.46791" lon="16.05881">
        <ele>739.632441</ele>
        <time>2026-07-08T07:20:23.000Z</time>
      </trkpt>
      <trkpt lat="47.46786" lon="16.05884">
        <ele>739.620889</ele>
        <time>2026-07-08T07:20:24.000Z</time>
      </trkpt>
      <trkpt lat="47.4678" lon="16.05887">
        <ele>739.609206</ele>
        <time>2026-07-08T07:20:25.000Z</time>
      </trkpt>
      <trkpt lat="47.46774" lon="16.0589">
        <ele>739.597654</ele>
        <time>2026-07-08T07:20:26.000Z</time>
      </trkpt>
      <trkpt lat="47.46768" lon="16.05894">
        <ele>739.586147</ele>
        <time>2026-07-08T07:20:27.000Z</time>
      </trkpt>
      <trkpt lat="47.46763" lon="16.05897">
        <ele>739.574419</ele>
        <time>2026-07-08T07:20:28.000Z</time>
      </trkpt>
      <trkpt lat="47.46757" lon="16.059">
        <ele>739.562597</ele>
        <time>2026-07-08T07:20:29.000Z</time>
      </trkpt>
      <trkpt lat="47.46751" lon="16.05904">
        <ele>739.550424</ele>
        <time>2026-07-08T07:20:30.000Z</time>
      </trkpt>
      <trkpt lat="47.46745" lon="16.05907">
        <ele>739.538387</ele>
        <time>2026-07-08T07:20:31.000Z</time>
      </trkpt>
      <trkpt lat="47.46739" lon="16.0591">
        <ele>739.52635</ele>
        <time>2026-07-08T07:20:32.000Z</time>
      </trkpt>
      <trkpt lat="47.46733" lon="16.05913">
        <ele>739.514396</ele>
        <time>2026-07-08T07:20:33.000Z</time>
      </trkpt>
      <trkpt lat="47.46727" lon="16.05916">
        <ele>739.394435</ele>
        <time>2026-07-08T07:20:34.000Z</time>
      </trkpt>
      <trkpt lat="47.46721" lon="16.05919">
        <ele>739.172373</ele>
        <time>2026-07-08T07:20:35.000Z</time>
      </trkpt>
      <trkpt lat="47.46715" lon="16.05923">
        <ele>738.959352</ele>
        <time>2026-07-08T07:20:36.000Z</time>
      </trkpt>
      <trkpt lat="47.46709" lon="16.05926">
        <ele>738.744667</ele>
        <time>2026-07-08T07:20:37.000Z</time>
      </trkpt>
      <trkpt lat="47.46704" lon="16.05928">
        <ele>738.534812</ele>
        <time>2026-07-08T07:20:38.000Z</time>
      </trkpt>
      <trkpt lat="47.46698" lon="16.05931">
        <ele>738.324202</ele>
        <time>2026-07-08T07:20:39.000Z</time>
      </trkpt>
      <trkpt lat="47.46692" lon="16.05933">
        <ele>738.122346</ele>
        <time>2026-07-08T07:20:40.000Z</time>
      </trkpt>
      <trkpt lat="47.46686" lon="16.05935">
        <ele>737.913175</ele>
        <time>2026-07-08T07:20:41.000Z</time>
      </trkpt>
      <trkpt lat="47.4668" lon="16.05936">
        <ele>737.698981</ele>
        <time>2026-07-08T07:20:42.000Z</time>
      </trkpt>
      <trkpt lat="47.46674" lon="16.05937">
        <ele>737.470387</ele>
        <time>2026-07-08T07:20:43.000Z</time>
      </trkpt>
      <trkpt lat="47.46667" lon="16.05938">
        <ele>737.217225</ele>
        <time>2026-07-08T07:20:44.000Z</time>
      </trkpt>
      <trkpt lat="47.46659" lon="16.05939">
        <ele>736.946437</ele>
        <time>2026-07-08T07:20:45.000Z</time>
      </trkpt>
      <trkpt lat="47.46651" lon="16.05941">
        <ele>736.665481</ele>
        <time>2026-07-08T07:20:46.000Z</time>
      </trkpt>
      <trkpt lat="47.46643" lon="16.05942">
        <ele>736.381048</ele>
        <time>2026-07-08T07:20:47.000Z</time>
      </trkpt>
      <trkpt lat="47.46635" lon="16.05943">
        <ele>736.092054</ele>
        <time>2026-07-08T07:20:48.000Z</time>
      </trkpt>
      <trkpt lat="47.46627" lon="16.05946">
        <ele>735.806841</ele>
        <time>2026-07-08T07:20:49.000Z</time>
      </trkpt>
      <trkpt lat="47.46619" lon="16.05949">
        <ele>735.528013</ele>
        <time>2026-07-08T07:20:50.000Z</time>
      </trkpt>
      <trkpt lat="47.46612" lon="16.05953">
        <ele>735.262265</ele>
        <time>2026-07-08T07:20:51.000Z</time>
      </trkpt>
      <trkpt lat="47.46606" lon="16.0596">
        <ele>735.01644</ele>
        <time>2026-07-08T07:20:52.000Z</time>
      </trkpt>
      <trkpt lat="47.46602" lon="16.05968">
        <ele>734.777185</ele>
        <time>2026-07-08T07:20:53.000Z</time>
      </trkpt>
      <trkpt lat="47.466" lon="16.05977">
        <ele>734.543274</ele>
        <time>2026-07-08T07:20:54.000Z</time>
      </trkpt>
      <trkpt lat="47.46598" lon="16.05987">
        <ele>734.303628</ele>
        <time>2026-07-08T07:20:55.000Z</time>
      </trkpt>
      <trkpt lat="47.46597" lon="16.05997">
        <ele>734.050134</ele>
        <time>2026-07-08T07:20:56.000Z</time>
      </trkpt>
      <trkpt lat="47.46594" lon="16.06008">
        <ele>733.784955</ele>
        <time>2026-07-08T07:20:57.000Z</time>
      </trkpt>
      <trkpt lat="47.4659" lon="16.06018">
        <ele>733.51226</ele>
        <time>2026-07-08T07:20:58.000Z</time>
      </trkpt>
      <trkpt lat="47.46585" lon="16.06027">
        <ele>733.234867</ele>
        <time>2026-07-08T07:20:59.000Z</time>
      </trkpt>
      <trkpt lat="47.46579" lon="16.06034">
        <ele>733.315778</ele>
        <time>2026-07-08T07:21:00.000Z</time>
      </trkpt>
      <trkpt lat="47.46572" lon="16.0604">
        <ele>733.408786</ele>
        <time>2026-07-08T07:21:01.000Z</time>
      </trkpt>
      <trkpt lat="47.46565" lon="16.06044">
        <ele>733.497385</ele>
        <time>2026-07-08T07:21:02.000Z</time>
      </trkpt>
      <trkpt lat="47.46558" lon="16.06046">
        <ele>733.582271</ele>
        <time>2026-07-08T07:21:03.000Z</time>
      </trkpt>
      <trkpt lat="47.46551" lon="16.06049">
        <ele>733.660696</ele>
        <time>2026-07-08T07:21:04.000Z</time>
      </trkpt>
      <trkpt lat="47.46545" lon="16.06051">
        <ele>733.735158</ele>
        <time>2026-07-08T07:21:05.000Z</time>
      </trkpt>
      <trkpt lat="47.46539" lon="16.06053">
        <ele>733.805041</ele>
        <time>2026-07-08T07:21:06.000Z</time>
      </trkpt>
      <trkpt lat="47.46534" lon="16.06054">
        <ele>733.87114</ele>
        <time>2026-07-08T07:21:07.000Z</time>
      </trkpt>
      <trkpt lat="47.46529" lon="16.06056">
        <ele>733.933992</ele>
        <time>2026-07-08T07:21:08.000Z</time>
      </trkpt>
      <trkpt lat="47.46524" lon="16.06058">
        <ele>733.994771</ele>
        <time>2026-07-08T07:21:09.000Z</time>
      </trkpt>
      <trkpt lat="47.46519" lon="16.0606">
        <ele>734.049079</ele>
        <time>2026-07-08T07:21:10.000Z</time>
      </trkpt>
      <trkpt lat="47.46515" lon="16.06061">
        <ele>734.103039</ele>
        <time>2026-07-08T07:21:11.000Z</time>
      </trkpt>
      <trkpt lat="47.4651" lon="16.06063">
        <ele>734.154539</ele>
        <time>2026-07-08T07:21:12.000Z</time>
      </trkpt>
      <trkpt lat="47.46506" lon="16.06064">
        <ele>734.207189</ele>
        <time>2026-07-08T07:21:13.000Z</time>
      </trkpt>
      <trkpt lat="47.46502" lon="16.06065">
        <ele>734.25675</ele>
        <time>2026-07-08T07:21:14.000Z</time>
      </trkpt>
      <trkpt lat="47.46498" lon="16.06067">
        <ele>734.307845</ele>
        <time>2026-07-08T07:21:15.000Z</time>
      </trkpt>
      <trkpt lat="47.46493" lon="16.06068">
        <ele>734.35804</ele>
        <time>2026-07-08T07:21:16.000Z</time>
      </trkpt>
      <trkpt lat="47.46489" lon="16.06069">
        <ele>734.406935</ele>
        <time>2026-07-08T07:21:17.000Z</time>
      </trkpt>
      <trkpt lat="47.46485" lon="16.06071">
        <ele>734.45713</ele>
        <time>2026-07-08T07:21:18.000Z</time>
      </trkpt>
      <trkpt lat="47.46481" lon="16.06072">
        <ele>734.507481</ele>
        <time>2026-07-08T07:21:19.000Z</time>
      </trkpt>
      <trkpt lat="47.46477" lon="16.06073">
        <ele>734.556525</ele>
        <time>2026-07-08T07:21:20.000Z</time>
      </trkpt>
      <trkpt lat="47.46473" lon="16.06074">
        <ele>734.606719</ele>
        <time>2026-07-08T07:21:21.000Z</time>
      </trkpt>
      <trkpt lat="47.46468" lon="16.06076">
        <ele>734.657071</ele>
        <time>2026-07-08T07:21:22.000Z</time>
      </trkpt>
      <trkpt lat="47.46464" lon="16.06077">
        <ele>734.706631</ele>
        <time>2026-07-08T07:21:23.000Z</time>
      </trkpt>
      <trkpt lat="47.4646" lon="16.06078">
        <ele>734.759281</ele>
        <time>2026-07-08T07:21:24.000Z</time>
      </trkpt>
      <trkpt lat="47.46456" lon="16.0608">
        <ele>734.809246</ele>
        <time>2026-07-08T07:21:25.000Z</time>
      </trkpt>
      <trkpt lat="47.46452" lon="16.06082">
        <ele>734.859946</ele>
        <time>2026-07-08T07:21:26.000Z</time>
      </trkpt>
      <trkpt lat="47.46447" lon="16.06083">
        <ele>734.910646</ele>
        <time>2026-07-08T07:21:27.000Z</time>
      </trkpt>
      <trkpt lat="47.46443" lon="16.06085">
        <ele>734.962488</ele>
        <time>2026-07-08T07:21:28.000Z</time>
      </trkpt>
      <trkpt lat="47.46439" lon="16.06086">
        <ele>735.014716</ele>
        <time>2026-07-08T07:21:29.000Z</time>
      </trkpt>
      <trkpt lat="47.46434" lon="16.06088">
        <ele>735.071309</ele>
        <time>2026-07-08T07:21:30.000Z</time>
      </trkpt>
      <trkpt lat="47.4643" lon="16.0609">
        <ele>735.123537</ele>
        <time>2026-07-08T07:21:31.000Z</time>
      </trkpt>
      <trkpt lat="47.46425" lon="16.06092">
        <ele>735.180925</ele>
        <time>2026-07-08T07:21:32.000Z</time>
      </trkpt>
      <trkpt lat="47.4642" lon="16.06093">
        <ele>735.237701</ele>
        <time>2026-07-08T07:21:33.000Z</time>
      </trkpt>
      <trkpt lat="47.46416" lon="16.06095">
        <ele>735.293151</ele>
        <time>2026-07-08T07:21:34.000Z</time>
      </trkpt>
      <trkpt lat="47.46411" lon="16.06097">
        <ele>735.320084</ele>
        <time>2026-07-08T07:21:35.000Z</time>
      </trkpt>
      <trkpt lat="47.46406" lon="16.06099">
        <ele>735.265681</ele>
        <time>2026-07-08T07:21:36.000Z</time>
      </trkpt>
      <trkpt lat="47.46401" lon="16.06101">
        <ele>735.209598</ele>
        <time>2026-07-08T07:21:37.000Z</time>
      </trkpt>
      <trkpt lat="47.46397" lon="16.06103">
        <ele>735.154554</ele>
        <time>2026-07-08T07:21:38.000Z</time>
      </trkpt>
      <trkpt lat="47.46392" lon="16.06106">
        <ele>735.099037</ele>
        <time>2026-07-08T07:21:39.000Z</time>
      </trkpt>
      <trkpt lat="47.46387" lon="16.06108">
        <ele>735.041458</ele>
        <time>2026-07-08T07:21:40.000Z</time>
      </trkpt>
      <trkpt lat="47.46382" lon="16.06111">
        <ele>734.983389</ele>
        <time>2026-07-08T07:21:41.000Z</time>
      </trkpt>
      <trkpt lat="47.46377" lon="16.06114">
        <ele>734.925064</ele>
        <time>2026-07-08T07:21:42.000Z</time>
      </trkpt>
      <trkpt lat="47.46372" lon="16.06117">
        <ele>734.864437</ele>
        <time>2026-07-08T07:21:43.000Z</time>
      </trkpt>
      <trkpt lat="47.46366" lon="16.06119">
        <ele>734.804554</ele>
        <time>2026-07-08T07:21:44.000Z</time>
      </trkpt>
      <trkpt lat="47.46361" lon="16.06122">
        <ele>734.743401</ele>
        <time>2026-07-08T07:21:45.000Z</time>
      </trkpt>
      <trkpt lat="47.46356" lon="16.06125">
        <ele>734.683751</ele>
        <time>2026-07-08T07:21:46.000Z</time>
      </trkpt>
      <trkpt lat="47.46351" lon="16.06127">
        <ele>734.624404</ele>
        <time>2026-07-08T07:21:47.000Z</time>
      </trkpt>
      <trkpt lat="47.46346" lon="16.06131">
        <ele>734.562961</ele>
        <time>2026-07-08T07:21:48.000Z</time>
      </trkpt>
      <trkpt lat="47.46341" lon="16.06133">
        <ele>734.504636</ele>
        <time>2026-07-08T07:21:49.000Z</time>
      </trkpt>
      <trkpt lat="47.46335" lon="16.06136">
        <ele>734.444008</ele>
        <time>2026-07-08T07:21:50.000Z</time>
      </trkpt>
      <trkpt lat="47.4633" lon="16.06139">
        <ele>734.384661</ele>
        <time>2026-07-08T07:21:51.000Z</time>
      </trkpt>
      <trkpt lat="47.46325" lon="16.06142">
        <ele>734.324539</ele>
        <time>2026-07-08T07:21:52.000Z</time>
      </trkpt>
      <trkpt lat="47.4632" lon="16.06144">
        <ele>734.264656</ele>
        <time>2026-07-08T07:21:53.000Z</time>
      </trkpt>
      <trkpt lat="47.46315" lon="16.06147">
        <ele>734.206042</ele>
        <time>2026-07-08T07:21:54.000Z</time>
      </trkpt>
      <trkpt lat="47.46309" lon="16.0615">
        <ele>734.143369</ele>
        <time>2026-07-08T07:21:55.000Z</time>
      </trkpt>
      <trkpt lat="47.46304" lon="16.06153">
        <ele>734.079912</ele>
        <time>2026-07-08T07:21:56.000Z</time>
      </trkpt>
      <trkpt lat="47.46298" lon="16.06156">
        <ele>734.01288</ele>
        <time>2026-07-08T07:21:57.000Z</time>
      </trkpt>
      <trkpt lat="47.46292" lon="16.06159">
        <ele>733.945849</ele>
        <time>2026-07-08T07:21:58.000Z</time>
      </trkpt>
      <trkpt lat="47.46286" lon="16.06162">
        <ele>733.876267</ele>
        <time>2026-07-08T07:21:59.000Z</time>
      </trkpt>
      <trkpt lat="47.4628" lon="16.06165">
        <ele>733.805101</ele>
        <time>2026-07-08T07:22:00.000Z</time>
      </trkpt>
      <trkpt lat="47.46274" lon="16.06168">
        <ele>733.730818</ele>
        <time>2026-07-08T07:22:01.000Z</time>
      </trkpt>
      <trkpt lat="47.46267" lon="16.06171">
        <ele>733.65319</ele>
        <time>2026-07-08T07:22:02.000Z</time>
      </trkpt>
      <trkpt lat="47.4626" lon="16.06174">
        <ele>733.573848</ele>
        <time>2026-07-08T07:22:03.000Z</time>
      </trkpt>
      <trkpt lat="47.46253" lon="16.06178">
        <ele>733.495055</ele>
        <time>2026-07-08T07:22:04.000Z</time>
      </trkpt>
      <trkpt lat="47.46246" lon="16.06182">
        <ele>733.416011</ele>
        <time>2026-07-08T07:22:05.000Z</time>
      </trkpt>
      <trkpt lat="47.46239" lon="16.06185">
        <ele>733.16836</ele>
        <time>2026-07-08T07:22:06.000Z</time>
      </trkpt>
      <trkpt lat="47.46232" lon="16.06189">
        <ele>732.71475</ele>
        <time>2026-07-08T07:22:07.000Z</time>
      </trkpt>
      <trkpt lat="47.46225" lon="16.06193">
        <ele>732.249974</ele>
        <time>2026-07-08T07:22:08.000Z</time>
      </trkpt>
      <trkpt lat="47.46217" lon="16.06197">
        <ele>731.757047</ele>
        <time>2026-07-08T07:22:09.000Z</time>
      </trkpt>
      <trkpt lat="47.46209" lon="16.06201">
        <ele>731.24774</ele>
        <time>2026-07-08T07:22:10.000Z</time>
      </trkpt>
      <trkpt lat="47.462" lon="16.06206">
        <ele>730.703448</ele>
        <time>2026-07-08T07:22:11.000Z</time>
      </trkpt>
      <trkpt lat="47.46191" lon="16.0621">
        <ele>730.142246</ele>
        <time>2026-07-08T07:22:12.000Z</time>
      </trkpt>
      <trkpt lat="47.46182" lon="16.06214">
        <ele>729.56727</ele>
        <time>2026-07-08T07:22:13.000Z</time>
      </trkpt>
      <trkpt lat="47.46173" lon="16.06219">
        <ele>728.995329</ele>
        <time>2026-07-08T07:22:14.000Z</time>
      </trkpt>
      <trkpt lat="47.46163" lon="16.06224">
        <ele>728.409074</ele>
        <time>2026-07-08T07:22:15.000Z</time>
      </trkpt>
      <trkpt lat="47.46154" lon="16.06228">
        <ele>727.81717</ele>
        <time>2026-07-08T07:22:16.000Z</time>
      </trkpt>
      <trkpt lat="47.46144" lon="16.06233">
        <ele>727.215868</ele>
        <time>2026-07-08T07:22:17.000Z</time>
      </trkpt>
      <trkpt lat="47.46135" lon="16.06238">
        <ele>726.618874</ele>
        <time>2026-07-08T07:22:18.000Z</time>
      </trkpt>
      <trkpt lat="47.46125" lon="16.06243">
        <ele>726.009354</ele>
        <time>2026-07-08T07:22:19.000Z</time>
      </trkpt>
      <trkpt lat="47.46116" lon="16.06248">
        <ele>725.406885</ele>
        <time>2026-07-08T07:22:20.000Z</time>
      </trkpt>
      <trkpt lat="47.46106" lon="16.06253">
        <ele>724.815506</ele>
        <time>2026-07-08T07:22:21.000Z</time>
      </trkpt>
      <trkpt lat="47.46097" lon="16.06259">
        <ele>724.231104</ele>
        <time>2026-07-08T07:22:22.000Z</time>
      </trkpt>
      <trkpt lat="47.46088" lon="16.06264">
        <ele>723.67727</ele>
        <time>2026-07-08T07:22:23.000Z</time>
      </trkpt>
      <trkpt lat="47.4608" lon="16.06269">
        <ele>723.156463</ele>
        <time>2026-07-08T07:22:24.000Z</time>
      </trkpt>
      <trkpt lat="47.46073" lon="16.06273">
        <ele>722.675436</ele>
        <time>2026-07-08T07:22:25.000Z</time>
      </trkpt>
      <trkpt lat="47.46066" lon="16.06278">
        <ele>722.394558</ele>
        <time>2026-07-08T07:22:26.000Z</time>
      </trkpt>
      <trkpt lat="47.46059" lon="16.06281">
        <ele>722.132156</ele>
        <time>2026-07-08T07:22:27.000Z</time>
      </trkpt>
      <trkpt lat="47.46053" lon="16.06284">
        <ele>721.903261</ele>
        <time>2026-07-08T07:22:28.000Z</time>
      </trkpt>
      <trkpt lat="47.46048" lon="16.06284">
        <ele>721.707394</ele>
        <time>2026-07-08T07:22:29.000Z</time>
      </trkpt>
      <trkpt lat="47.46043" lon="16.06282">
        <ele>721.524527</ele>
        <time>2026-07-08T07:22:30.000Z</time>
      </trkpt>
      <trkpt lat="47.46039" lon="16.06278">
        <ele>721.350302</ele>
        <time>2026-07-08T07:22:31.000Z</time>
      </trkpt>
      <trkpt lat="47.46036" lon="16.06273">
        <ele>721.169133</ele>
        <time>2026-07-08T07:22:32.000Z</time>
      </trkpt>
      <trkpt lat="47.46034" lon="16.06266">
        <ele>720.993757</ele>
        <time>2026-07-08T07:22:33.000Z</time>
      </trkpt>
      <trkpt lat="47.46032" lon="16.0626">
        <ele>720.819984</ele>
        <time>2026-07-08T07:22:34.000Z</time>
      </trkpt>
      <trkpt lat="47.4603" lon="16.06255">
        <ele>720.671037</ele>
        <time>2026-07-08T07:22:35.000Z</time>
      </trkpt>
      <trkpt lat="47.46026" lon="16.06252">
        <ele>720.523932</ele>
        <time>2026-07-08T07:22:36.000Z</time>
      </trkpt>
      <trkpt lat="47.46022" lon="16.0625">
        <ele>720.357184</ele>
        <time>2026-07-08T07:22:37.000Z</time>
      </trkpt>
      <trkpt lat="47.46017" lon="16.06251">
        <ele>720.179766</ele>
        <time>2026-07-08T07:22:38.000Z</time>
      </trkpt>
      <trkpt lat="47.46012" lon="16.06253">
        <ele>719.995608</ele>
        <time>2026-07-08T07:22:39.000Z</time>
      </trkpt>
      <trkpt lat="47.46007" lon="16.06255">
        <ele>719.801621</ele>
        <time>2026-07-08T07:22:40.000Z</time>
      </trkpt>
      <trkpt lat="47.46003" lon="16.06259">
        <ele>719.605082</ele>
        <time>2026-07-08T07:22:41.000Z</time>
      </trkpt>
      <trkpt lat="47.45998" lon="16.06262">
        <ele>719.407453</ele>
        <time>2026-07-08T07:22:42.000Z</time>
      </trkpt>
      <trkpt lat="47.45993" lon="16.06266">
        <ele>719.203173</ele>
        <time>2026-07-08T07:22:43.000Z</time>
      </trkpt>
      <trkpt lat="47.45988" lon="16.06269">
        <ele>718.99613</ele>
        <time>2026-07-08T07:22:44.000Z</time>
      </trkpt>
      <trkpt lat="47.45982" lon="16.06272">
        <ele>718.786172</ele>
        <time>2026-07-08T07:22:45.000Z</time>
      </trkpt>
      <trkpt lat="47.45977" lon="16.06276">
        <ele>718.573813</ele>
        <time>2026-07-08T07:22:46.000Z</time>
      </trkpt>
      <trkpt lat="47.45972" lon="16.06279">
        <ele>718.354627</ele>
        <time>2026-07-08T07:22:47.000Z</time>
      </trkpt>
      <trkpt lat="47.45966" lon="16.06282">
        <ele>718.141287</ele>
        <time>2026-07-08T07:22:48.000Z</time>
      </trkpt>
      <trkpt lat="47.45961" lon="16.06286">
        <ele>717.920175</ele>
        <time>2026-07-08T07:22:49.000Z</time>
      </trkpt>
      <trkpt lat="47.45955" lon="16.06289">
        <ele>717.702452</ele>
        <time>2026-07-08T07:22:50.000Z</time>
      </trkpt>
      <trkpt lat="47.4595" lon="16.06293">
        <ele>717.480342</ele>
        <time>2026-07-08T07:22:51.000Z</time>
      </trkpt>
      <trkpt lat="47.45944" lon="16.06296">
        <ele>717.25923</ele>
        <time>2026-07-08T07:22:52.000Z</time>
      </trkpt>
      <trkpt lat="47.45939" lon="16.063">
        <ele>717.044884</ele>
        <time>2026-07-08T07:22:53.000Z</time>
      </trkpt>
      <trkpt lat="47.45934" lon="16.06304">
        <ele>716.821752</ele>
        <time>2026-07-08T07:22:54.000Z</time>
      </trkpt>
      <trkpt lat="47.45928" lon="16.06307">
        <ele>716.597574</ele>
        <time>2026-07-08T07:22:55.000Z</time>
      </trkpt>
      <trkpt lat="47.45923" lon="16.06311">
        <ele>716.372329</ele>
        <time>2026-07-08T07:22:56.000Z</time>
      </trkpt>
      <trkpt lat="47.45917" lon="16.06315">
        <ele>716.151217</ele>
        <time>2026-07-08T07:22:57.000Z</time>
      </trkpt>
      <trkpt lat="47.45911" lon="16.06318">
        <ele>715.934818</ele>
        <time>2026-07-08T07:22:58.000Z</time>
      </trkpt>
      <trkpt lat="47.45906" lon="16.06321">
        <ele>715.729268</ele>
        <time>2026-07-08T07:22:59.000Z</time>
      </trkpt>
      <trkpt lat="47.459" lon="16.06324">
        <ele>715.51489</ele>
        <time>2026-07-08T07:23:00.000Z</time>
      </trkpt>
      <trkpt lat="47.45894" lon="16.06328">
        <ele>715.301276</ele>
        <time>2026-07-08T07:23:01.000Z</time>
      </trkpt>
      <trkpt lat="47.45888" lon="16.06331">
        <ele>715.086798</ele>
        <time>2026-07-08T07:23:02.000Z</time>
      </trkpt>
      <trkpt lat="47.45882" lon="16.06335">
        <ele>714.869146</ele>
        <time>2026-07-08T07:23:03.000Z</time>
      </trkpt>
      <trkpt lat="47.45876" lon="16.06338">
        <ele>714.648312</ele>
        <time>2026-07-08T07:23:04.000Z</time>
      </trkpt>
      <trkpt lat="47.4587" lon="16.06342">
        <ele>714.427479</ele>
        <time>2026-07-08T07:23:05.000Z</time>
      </trkpt>
      <trkpt lat="47.45865" lon="16.06345">
        <ele>714.212116</ele>
        <time>2026-07-08T07:23:06.000Z</time>
      </trkpt>
      <trkpt lat="47.45858" lon="16.06349">
        <ele>713.983206</ele>
        <time>2026-07-08T07:23:07.000Z</time>
      </trkpt>
      <trkpt lat="47.45852" lon="16.06353">
        <ele>713.757468</ele>
        <time>2026-07-08T07:23:08.000Z</time>
      </trkpt>
      <trkpt lat="47.45846" lon="16.06357">
        <ele>713.527682</ele>
        <time>2026-07-08T07:23:09.000Z</time>
      </trkpt>
      <trkpt lat="47.4584" lon="16.0636">
        <ele>713.304206</ele>
        <time>2026-07-08T07:23:10.000Z</time>
      </trkpt>
      <trkpt lat="47.45834" lon="16.06364">
        <ele>713.089728</ele>
        <time>2026-07-08T07:23:11.000Z</time>
      </trkpt>
      <trkpt lat="47.45828" lon="16.06368">
        <ele>712.87031</ele>
        <time>2026-07-08T07:23:12.000Z</time>
      </trkpt>
      <trkpt lat="47.45823" lon="16.06371">
        <ele>712.65404</ele>
        <time>2026-07-08T07:23:13.000Z</time>
      </trkpt>
      <trkpt lat="47.45817" lon="16.06375">
        <ele>712.439969</ele>
        <time>2026-07-08T07:23:14.000Z</time>
      </trkpt>
      <trkpt lat="47.45811" lon="16.06379">
        <ele>712.227042</ele>
        <time>2026-07-08T07:23:15.000Z</time>
      </trkpt>
      <trkpt lat="47.45805" lon="16.06383">
        <ele>712.00939</ele>
        <time>2026-07-08T07:23:16.000Z</time>
      </trkpt>
      <trkpt lat="47.45799" lon="16.06386">
        <ele>711.787784</ele>
        <time>2026-07-08T07:23:17.000Z</time>
      </trkpt>
      <trkpt lat="47.45793" lon="16.06389">
        <ele>711.555984</ele>
        <time>2026-07-08T07:23:18.000Z</time>
      </trkpt>
      <trkpt lat="47.45786" lon="16.0639">
        <ele>711.31609</ele>
        <time>2026-07-08T07:23:19.000Z</time>
      </trkpt>
      <trkpt lat="47.45779" lon="16.06392">
        <ele>711.064054</ele>
        <time>2026-07-08T07:23:20.000Z</time>
      </trkpt>
      <trkpt lat="47.45771" lon="16.06393">
        <ele>710.806221</ele>
        <time>2026-07-08T07:23:21.000Z</time>
      </trkpt>
      <trkpt lat="47.45763" lon="16.06394">
        <ele>710.538517</ele>
        <time>2026-07-08T07:23:22.000Z</time>
      </trkpt>
      <trkpt lat="47.45755" lon="16.06394">
        <ele>710.267783</ele>
        <time>2026-07-08T07:23:23.000Z</time>
      </trkpt>
      <trkpt lat="47.45747" lon="16.06394">
        <ele>709.993785</ele>
        <time>2026-07-08T07:23:24.000Z</time>
      </trkpt>
      <trkpt lat="47.45739" lon="16.06395">
        <ele>709.511995</ele>
        <time>2026-07-08T07:23:25.000Z</time>
      </trkpt>
      <trkpt lat="47.45732" lon="16.06395">
        <ele>708.935761</ele>
        <time>2026-07-08T07:23:26.000Z</time>
      </trkpt>
      <trkpt lat="47.45724" lon="16.06395">
        <ele>708.36691</ele>
        <time>2026-07-08T07:23:27.000Z</time>
      </trkpt>
      <trkpt lat="47.45716" lon="16.06395">
        <ele>707.805642</ele>
        <time>2026-07-08T07:23:28.000Z</time>
      </trkpt>
      <trkpt lat="47.45709" lon="16.06395">
        <ele>707.236966</ele>
        <time>2026-07-08T07:23:29.000Z</time>
      </trkpt>
      <trkpt lat="47.45701" lon="16.06395">
        <ele>706.68306</ele>
        <time>2026-07-08T07:23:30.000Z</time>
      </trkpt>
      <trkpt lat="47.45693" lon="16.06395">
        <ele>706.114406</ele>
        <time>2026-07-08T07:23:31.000Z</time>
      </trkpt>
      <trkpt lat="47.45686" lon="16.06395">
        <ele>705.538345</ele>
        <time>2026-07-08T07:23:32.000Z</time>
      </trkpt>
      <trkpt lat="47.45678" lon="16.06395">
        <ele>704.947199</ele>
        <time>2026-07-08T07:23:33.000Z</time>
      </trkpt>
      <trkpt lat="47.45669" lon="16.06394">
        <ele>704.340303</ele>
        <time>2026-07-08T07:23:34.000Z</time>
      </trkpt>
      <trkpt lat="47.45661" lon="16.06393">
        <ele>703.709715</ele>
        <time>2026-07-08T07:23:35.000Z</time>
      </trkpt>
      <trkpt lat="47.45652" lon="16.06391">
        <ele>703.077527</ele>
        <time>2026-07-08T07:23:36.000Z</time>
      </trkpt>
      <trkpt lat="47.45644" lon="16.0639">
        <ele>702.440037</ele>
        <time>2026-07-08T07:23:37.000Z</time>
      </trkpt>
      <trkpt lat="47.45635" lon="16.06389">
        <ele>701.772681</ele>
        <time>2026-07-08T07:23:38.000Z</time>
      </trkpt>
      <trkpt lat="47.45626" lon="16.06388">
        <ele>701.106147</ele>
        <time>2026-07-08T07:23:39.000Z</time>
      </trkpt>
      <trkpt lat="47.45617" lon="16.06387">
        <ele>700.425543</ele>
        <time>2026-07-08T07:23:40.000Z</time>
      </trkpt>
      <trkpt lat="47.45607" lon="16.06386">
        <ele>699.736119</ele>
        <time>2026-07-08T07:23:41.000Z</time>
      </trkpt>
      <trkpt lat="47.45598" lon="16.06385">
        <ele>699.037889</ele>
        <time>2026-07-08T07:23:42.000Z</time>
      </trkpt>
      <trkpt lat="47.45589" lon="16.06383">
        <ele>698.361682</ele>
        <time>2026-07-08T07:23:43.000Z</time>
      </trkpt>
      <trkpt lat="47.45579" lon="16.06382">
        <ele>697.663452</ele>
        <time>2026-07-08T07:23:44.000Z</time>
      </trkpt>
      <trkpt lat="47.4557" lon="16.0638">
        <ele>696.97141</ele>
        <time>2026-07-08T07:23:45.000Z</time>
      </trkpt>
      <trkpt lat="47.45561" lon="16.06378">
        <ele>696.111632</ele>
        <time>2026-07-08T07:23:46.000Z</time>
      </trkpt>
      <trkpt lat="47.45551" lon="16.06376">
        <ele>695.131181</ele>
        <time>2026-07-08T07:23:47.000Z</time>
      </trkpt>
      <trkpt lat="47.45542" lon="16.06374">
        <ele>694.140296</ele>
        <time>2026-07-08T07:23:48.000Z</time>
      </trkpt>
      <trkpt lat="47.45533" lon="16.06372">
        <ele>693.180703</ele>
        <time>2026-07-08T07:23:49.000Z</time>
      </trkpt>
      <trkpt lat="47.45524" lon="16.0637">
        <ele>692.241958</ele>
        <time>2026-07-08T07:23:50.000Z</time>
      </trkpt>
      <trkpt lat="47.45516" lon="16.06368">
        <ele>691.333317</ele>
        <time>2026-07-08T07:23:51.000Z</time>
      </trkpt>
      <trkpt lat="47.45507" lon="16.06366">
        <ele>690.425824</ele>
        <time>2026-07-08T07:23:52.000Z</time>
      </trkpt>
      <trkpt lat="47.45499" lon="16.06364">
        <ele>689.550686</ele>
        <time>2026-07-08T07:23:53.000Z</time>
      </trkpt>
      <trkpt lat="47.45491" lon="16.06362">
        <ele>688.678603</ele>
        <time>2026-07-08T07:23:54.000Z</time>
      </trkpt>
      <trkpt lat="47.45483" lon="16.06361">
        <ele>687.828349</ele>
        <time>2026-07-08T07:23:55.000Z</time>
      </trkpt>
      <trkpt lat="47.45475" lon="16.06359">
        <ele>686.978961</ele>
        <time>2026-07-08T07:23:56.000Z</time>
      </trkpt>
      <trkpt lat="47.45467" lon="16.06359">
        <ele>686.123844</ele>
        <time>2026-07-08T07:23:57.000Z</time>
      </trkpt>
      <trkpt lat="47.45459" lon="16.06359">
        <ele>685.28007</ele>
        <time>2026-07-08T07:23:58.000Z</time>
      </trkpt>
      <trkpt lat="47.45451" lon="16.06361">
        <ele>684.408891</ele>
        <time>2026-07-08T07:23:59.000Z</time>
      </trkpt>
      <trkpt lat="47.45442" lon="16.06363">
        <ele>683.528888</ele>
        <time>2026-07-08T07:24:00.000Z</time>
      </trkpt>
      <trkpt lat="47.45434" lon="16.06366">
        <ele>682.604084</ele>
        <time>2026-07-08T07:24:01.000Z</time>
      </trkpt>
      <trkpt lat="47.45425" lon="16.0637">
        <ele>681.667809</ele>
        <time>2026-07-08T07:24:02.000Z</time>
      </trkpt>
      <trkpt lat="47.45417" lon="16.06374">
        <ele>680.719371</ele>
        <time>2026-07-08T07:24:03.000Z</time>
      </trkpt>
      <trkpt lat="47.45408" lon="16.06378">
        <ele>679.726429</ele>
        <time>2026-07-08T07:24:04.000Z</time>
      </trkpt>
      <trkpt lat="47.45399" lon="16.06381">
        <ele>678.745228</ele>
        <time>2026-07-08T07:24:05.000Z</time>
      </trkpt>
      <trkpt lat="47.4539" lon="16.06384">
        <ele>677.762601</ele>
        <time>2026-07-08T07:24:06.000Z</time>
      </trkpt>
      <trkpt lat="47.4538" lon="16.06384">
        <ele>676.657822</ele>
        <time>2026-07-08T07:24:07.000Z</time>
      </trkpt>
      <trkpt lat="47.45372" lon="16.06384">
        <ele>675.585227</ele>
        <time>2026-07-08T07:24:08.000Z</time>
      </trkpt>
      <trkpt lat="47.45363" lon="16.06382">
        <ele>674.540537</ele>
        <time>2026-07-08T07:24:09.000Z</time>
      </trkpt>
      <trkpt lat="47.45355" lon="16.06379">
        <ele>673.539253</ele>
        <time>2026-07-08T07:24:10.000Z</time>
      </trkpt>
      <trkpt lat="47.45347" lon="16.06375">
        <ele>672.545248</ele>
        <time>2026-07-08T07:24:11.000Z</time>
      </trkpt>
      <trkpt lat="47.4534" lon="16.0637">
        <ele>671.543253</ele>
        <time>2026-07-08T07:24:12.000Z</time>
      </trkpt>
      <trkpt lat="47.45333" lon="16.06365">
        <ele>670.549119</ele>
        <time>2026-07-08T07:24:13.000Z</time>
      </trkpt>
      <trkpt lat="47.45325" lon="16.06359">
        <ele>669.558304</ele>
        <time>2026-07-08T07:24:14.000Z</time>
      </trkpt>
      <trkpt lat="47.45319" lon="16.06354">
        <ele>668.639628</ele>
        <time>2026-07-08T07:24:15.000Z</time>
      </trkpt>
      <trkpt lat="47.45312" lon="16.06349">
        <ele>667.717792</ele>
        <time>2026-07-08T07:24:16.000Z</time>
      </trkpt>
      <trkpt lat="47.45305" lon="16.06346">
        <ele>666.863819</ele>
        <time>2026-07-08T07:24:17.000Z</time>
      </trkpt>
      <trkpt lat="47.45299" lon="16.06344">
        <ele>666.05986</ele>
        <time>2026-07-08T07:24:18.000Z</time>
      </trkpt>
      <trkpt lat="47.45292" lon="16.06344">
        <ele>665.243827</ele>
        <time>2026-07-08T07:24:19.000Z</time>
      </trkpt>
      <trkpt lat="47.45285" lon="16.06345">
        <ele>664.421831</ele>
        <time>2026-07-08T07:24:20.000Z</time>
      </trkpt>
      <trkpt lat="47.45279" lon="16.06348">
        <ele>663.592028</ele>
        <time>2026-07-08T07:24:21.000Z</time>
      </trkpt>
      <trkpt lat="47.45272" lon="16.06351">
        <ele>662.746656</ele>
        <time>2026-07-08T07:24:22.000Z</time>
      </trkpt>
      <trkpt lat="47.45266" lon="16.06355">
        <ele>661.956146</ele>
        <time>2026-07-08T07:24:23.000Z</time>
      </trkpt>
      <trkpt lat="47.45261" lon="16.06359">
        <ele>661.27518</ele>
        <time>2026-07-08T07:24:24.000Z</time>
      </trkpt>
      <trkpt lat="47.45257" lon="16.06363">
        <ele>660.700544</ele>
        <time>2026-07-08T07:24:25.000Z</time>
      </trkpt>
      <trkpt lat="47.45255" lon="16.06365">
        <ele>660.30218</ele>
        <time>2026-07-08T07:24:26.000Z</time>
      </trkpt>
      <trkpt lat="47.45252" lon="16.06367">
        <ele>659.9704</ele>
        <time>2026-07-08T07:24:27.000Z</time>
      </trkpt>
      <trkpt lat="47.45251" lon="16.06367">
        <ele>659.864618</ele>
        <time>2026-07-08T07:24:28.000Z</time>
      </trkpt>
      <trkpt lat="47.45251" lon="16.06368">
        <ele>659.789139</ele>
        <time>2026-07-08T07:24:29.000Z</time>
      </trkpt>
      <trkpt lat="47.45247" lon="16.06373">
        <ele>659.152238</ele>
        <time>2026-07-08T07:25:28.000Z</time>
      </trkpt>
      <trkpt lat="47.45246" lon="16.06374">
        <ele>659.036152</ele>
        <time>2026-07-08T07:25:29.000Z</time>
      </trkpt>
      <trkpt lat="47.45246" lon="16.06375">
        <ele>658.946432</ele>
        <time>2026-07-08T07:25:30.000Z</time>
      </trkpt>
      <trkpt lat="47.45245" lon="16.06375">
        <ele>658.895004</ele>
        <time>2026-07-08T07:25:31.000Z</time>
      </trkpt>
      <trkpt lat="47.45241" lon="16.0638">
        <ele>658.199444</ele>
        <time>2026-07-08T07:25:52.000Z</time>
      </trkpt>
      <trkpt lat="47.45239" lon="16.06383">
        <ele>657.880491</ele>
        <time>2026-07-08T07:25:53.000Z</time>
      </trkpt>
      <trkpt lat="47.45236" lon="16.06386">
        <ele>657.415089</ele>
        <time>2026-07-08T07:25:54.000Z</time>
      </trkpt>
      <trkpt lat="47.45233" lon="16.0639">
        <ele>656.890144</ele>
        <time>2026-07-08T07:25:55.000Z</time>
      </trkpt>
      <trkpt lat="47.45229" lon="16.06395">
        <ele>656.286784</ele>
        <time>2026-07-08T07:25:56.000Z</time>
      </trkpt>
      <trkpt lat="47.45225" lon="16.064">
        <ele>655.638891</ele>
        <time>2026-07-08T07:25:57.000Z</time>
      </trkpt>
      <trkpt lat="47.4522" lon="16.06406">
        <ele>655.052963</ele>
        <time>2026-07-08T07:25:58.000Z</time>
      </trkpt>
      <trkpt lat="47.45216" lon="16.06412">
        <ele>654.445496</ele>
        <time>2026-07-08T07:25:59.000Z</time>
      </trkpt>
      <trkpt lat="47.45212" lon="16.06418">
        <ele>653.836203</ele>
        <time>2026-07-08T07:26:00.000Z</time>
      </trkpt>
      <trkpt lat="47.45207" lon="16.06424">
        <ele>653.217262</ele>
        <time>2026-07-08T07:26:01.000Z</time>
      </trkpt>
      <trkpt lat="47.45203" lon="16.0643">
        <ele>652.576298</ele>
        <time>2026-07-08T07:26:02.000Z</time>
      </trkpt>
      <trkpt lat="47.45198" lon="16.06437">
        <ele>651.923114</ele>
        <time>2026-07-08T07:26:03.000Z</time>
      </trkpt>
      <trkpt lat="47.45194" lon="16.06444">
        <ele>651.269182</ele>
        <time>2026-07-08T07:26:04.000Z</time>
      </trkpt>
      <trkpt lat="47.4519" lon="16.06451">
        <ele>650.620358</ele>
        <time>2026-07-08T07:26:05.000Z</time>
      </trkpt>
      <trkpt lat="47.45186" lon="16.06458">
        <ele>649.968169</ele>
        <time>2026-07-08T07:26:06.000Z</time>
      </trkpt>
      <trkpt lat="47.45181" lon="16.06465">
        <ele>649.309095</ele>
        <time>2026-07-08T07:26:07.000Z</time>
      </trkpt>
      <trkpt lat="47.45177" lon="16.06472">
        <ele>648.632772</ele>
        <time>2026-07-08T07:26:08.000Z</time>
      </trkpt>
      <trkpt lat="47.45173" lon="16.06479">
        <ele>647.987376</ele>
        <time>2026-07-08T07:26:09.000Z</time>
      </trkpt>
      <trkpt lat="47.45169" lon="16.06486">
        <ele>647.343342</ele>
        <time>2026-07-08T07:26:10.000Z</time>
      </trkpt>
      <trkpt lat="47.45165" lon="16.06493">
        <ele>646.677651</ele>
        <time>2026-07-08T07:26:11.000Z</time>
      </trkpt>
      <trkpt lat="47.45161" lon="16.06501">
        <ele>646.000961</ele>
        <time>2026-07-08T07:26:12.000Z</time>
      </trkpt>
      <trkpt lat="47.45157" lon="16.06509">
        <ele>645.319268</ele>
        <time>2026-07-08T07:26:13.000Z</time>
      </trkpt>
      <trkpt lat="47.45154" lon="16.06518">
        <ele>644.618979</ele>
        <time>2026-07-08T07:26:14.000Z</time>
      </trkpt>
      <trkpt lat="47.45151" lon="16.06527">
        <ele>643.915074</ele>
        <time>2026-07-08T07:26:15.000Z</time>
      </trkpt>
      <trkpt lat="47.45148" lon="16.06536">
        <ele>643.194066</ele>
        <time>2026-07-08T07:26:16.000Z</time>
      </trkpt>
      <trkpt lat="47.45145" lon="16.06546">
        <ele>642.463361</ele>
        <time>2026-07-08T07:26:17.000Z</time>
      </trkpt>
      <trkpt lat="47.45142" lon="16.06555">
        <ele>641.734741</ele>
        <time>2026-07-08T07:26:18.000Z</time>
      </trkpt>
      <trkpt lat="47.45139" lon="16.06565">
        <ele>640.982841</ele>
        <time>2026-07-08T07:26:19.000Z</time>
      </trkpt>
      <trkpt lat="47.45136" lon="16.06575">
        <ele>640.228543</ele>
        <time>2026-07-08T07:26:20.000Z</time>
      </trkpt>
      <trkpt lat="47.45133" lon="16.06585">
        <ele>639.474244</ele>
        <time>2026-07-08T07:26:21.000Z</time>
      </trkpt>
      <trkpt lat="47.4513" lon="16.06595">
        <ele>638.715943</ele>
        <time>2026-07-08T07:26:22.000Z</time>
      </trkpt>
      <trkpt lat="47.45127" lon="16.06605">
        <ele>637.95352</ele>
        <time>2026-07-08T07:26:23.000Z</time>
      </trkpt>
      <trkpt lat="47.45124" lon="16.06615">
        <ele>637.218393</ele>
        <time>2026-07-08T07:26:24.000Z</time>
      </trkpt>
      <trkpt lat="47.4512" lon="16.06623">
        <ele>636.426971</ele>
        <time>2026-07-08T07:26:25.000Z</time>
      </trkpt>
      <trkpt lat="47.45116" lon="16.06631">
        <ele>635.658754</ele>
        <time>2026-07-08T07:26:26.000Z</time>
      </trkpt>
      <trkpt lat="47.45112" lon="16.06639">
        <ele>634.879888</ele>
        <time>2026-07-08T07:26:27.000Z</time>
      </trkpt>
      <trkpt lat="47.45107" lon="16.06646">
        <ele>634.098122</ele>
        <time>2026-07-08T07:26:28.000Z</time>
      </trkpt>
      <trkpt lat="47.45102" lon="16.06653">
        <ele>633.328541</ele>
        <time>2026-07-08T07:26:29.000Z</time>
      </trkpt>
      <trkpt lat="47.45096" lon="16.06658">
        <ele>632.536135</ele>
        <time>2026-07-08T07:26:30.000Z</time>
      </trkpt>
      <trkpt lat="47.4509" lon="16.06663">
        <ele>631.736894</ele>
        <time>2026-07-08T07:26:31.000Z</time>
      </trkpt>
      <trkpt lat="47.45083" lon="16.06668">
        <ele>630.91331</ele>
        <time>2026-07-08T07:26:32.000Z</time>
      </trkpt>
      <trkpt lat="47.45076" lon="16.06671">
        <ele>630.127234</ele>
        <time>2026-07-08T07:26:33.000Z</time>
      </trkpt>
      <trkpt lat="47.45069" lon="16.06673">
        <ele>629.27446</ele>
        <time>2026-07-08T07:26:34.000Z</time>
      </trkpt>
      <trkpt lat="47.45062" lon="16.06674">
        <ele>628.463807</ele>
        <time>2026-07-08T07:26:35.000Z</time>
      </trkpt>
      <trkpt lat="47.45055" lon="16.06675">
        <ele>627.648626</ele>
        <time>2026-07-08T07:26:36.000Z</time>
      </trkpt>
      <trkpt lat="47.45047" lon="16.06674">
        <ele>626.831471</ele>
        <time>2026-07-08T07:26:37.000Z</time>
      </trkpt>
      <trkpt lat="47.4504" lon="16.06672">
        <ele>626.017466</ele>
        <time>2026-07-08T07:26:38.000Z</time>
      </trkpt>
      <trkpt lat="47.45033" lon="16.06669">
        <ele>625.176817</ele>
        <time>2026-07-08T07:26:39.000Z</time>
      </trkpt>
      <trkpt lat="47.45026" lon="16.06666">
        <ele>624.323718</ele>
        <time>2026-07-08T07:26:40.000Z</time>
      </trkpt>
      <trkpt lat="47.45019" lon="16.06662">
        <ele>623.437216</ele>
        <time>2026-07-08T07:26:41.000Z</time>
      </trkpt>
      <trkpt lat="47.45012" lon="16.06657">
        <ele>622.573372</ele>
        <time>2026-07-08T07:26:42.000Z</time>
      </trkpt>
      <trkpt lat="47.45005" lon="16.06653">
        <ele>621.737362</ele>
        <time>2026-07-08T07:26:43.000Z</time>
      </trkpt>
      <trkpt lat="47.44998" lon="16.06648">
        <ele>620.914837</ele>
        <time>2026-07-08T07:26:44.000Z</time>
      </trkpt>
      <trkpt lat="47.44992" lon="16.06644">
        <ele>620.082021</ele>
        <time>2026-07-08T07:26:45.000Z</time>
      </trkpt>
      <trkpt lat="47.44985" lon="16.06639">
        <ele>619.249204</ele>
        <time>2026-07-08T07:26:46.000Z</time>
      </trkpt>
      <trkpt lat="47.44978" lon="16.06635">
        <ele>618.399891</ele>
        <time>2026-07-08T07:26:47.000Z</time>
      </trkpt>
      <trkpt lat="47.44971" lon="16.06632">
        <ele>617.538181</ele>
        <time>2026-07-08T07:26:48.000Z</time>
      </trkpt>
      <trkpt lat="47.44963" lon="16.0663">
        <ele>616.693821</ele>
        <time>2026-07-08T07:26:49.000Z</time>
      </trkpt>
      <trkpt lat="47.44955" lon="16.06629">
        <ele>615.910268</ele>
        <time>2026-07-08T07:26:50.000Z</time>
      </trkpt>
      <trkpt lat="47.44948" lon="16.06629">
        <ele>615.118492</ele>
        <time>2026-07-08T07:26:51.000Z</time>
      </trkpt>
      <trkpt lat="47.4494" lon="16.0663">
        <ele>614.323745</ele>
        <time>2026-07-08T07:26:52.000Z</time>
      </trkpt>
      <trkpt lat="47.44932" lon="16.06632">
        <ele>613.51015</ele>
        <time>2026-07-08T07:26:53.000Z</time>
      </trkpt>
      <trkpt lat="47.44924" lon="16.06635">
        <ele>612.711662</ele>
        <time>2026-07-08T07:26:55.000Z</time>
      </trkpt>
      <trkpt lat="47.44917" lon="16.06639">
        <ele>611.902336</ele>
        <time>2026-07-08T07:26:56.000Z</time>
      </trkpt>
      <trkpt lat="47.4491" lon="16.06644">
        <ele>611.100624</ele>
        <time>2026-07-08T07:26:57.000Z</time>
      </trkpt>
      <trkpt lat="47.44903" lon="16.0665">
        <ele>610.29598</ele>
        <time>2026-07-08T07:26:58.000Z</time>
      </trkpt>
      <trkpt lat="47.44896" lon="16.06656">
        <ele>609.507067</ele>
        <time>2026-07-08T07:26:59.000Z</time>
      </trkpt>
      <trkpt lat="47.4489" lon="16.06663">
        <ele>608.722698</ele>
        <time>2026-07-08T07:27:00.000Z</time>
      </trkpt>
      <trkpt lat="47.44885" lon="16.06671">
        <ele>607.949137</ele>
        <time>2026-07-08T07:27:01.000Z</time>
      </trkpt>
      <trkpt lat="47.44879" lon="16.06679">
        <ele>607.177464</ele>
        <time>2026-07-08T07:27:02.000Z</time>
      </trkpt>
      <trkpt lat="47.44875" lon="16.06688">
        <ele>606.420114</ele>
        <time>2026-07-08T07:27:03.000Z</time>
      </trkpt>
      <trkpt lat="47.44871" lon="16.06697">
        <ele>605.651901</ele>
        <time>2026-07-08T07:27:04.000Z</time>
      </trkpt>
      <trkpt lat="47.44868" lon="16.06707">
        <ele>604.906521</ele>
        <time>2026-07-08T07:27:05.000Z</time>
      </trkpt>
      <trkpt lat="47.44865" lon="16.06717">
        <ele>604.168073</ele>
        <time>2026-07-08T07:27:06.000Z</time>
      </trkpt>
      <trkpt lat="47.44862" lon="16.06727">
        <ele>603.429983</ele>
        <time>2026-07-08T07:27:07.000Z</time>
      </trkpt>
      <trkpt lat="47.4486" lon="16.06737">
        <ele>602.697095</ele>
        <time>2026-07-08T07:27:08.000Z</time>
      </trkpt>
      <trkpt lat="47.44859" lon="16.06748">
        <ele>601.964329</ele>
        <time>2026-07-08T07:27:09.000Z</time>
      </trkpt>
      <trkpt lat="47.44858" lon="16.06759">
        <ele>601.211692</ele>
        <time>2026-07-08T07:27:10.000Z</time>
      </trkpt>
      <trkpt lat="47.44858" lon="16.0677">
        <ele>600.421217</ele>
        <time>2026-07-08T07:27:11.000Z</time>
      </trkpt>
      <trkpt lat="47.44858" lon="16.06782">
        <ele>599.611192</ele>
        <time>2026-07-08T07:27:12.000Z</time>
      </trkpt>
      <trkpt lat="47.44858" lon="16.06794">
        <ele>598.773462</ele>
        <time>2026-07-08T07:27:13.000Z</time>
      </trkpt>
      <trkpt lat="47.44858" lon="16.06807">
        <ele>597.911072</ele>
        <time>2026-07-08T07:27:14.000Z</time>
      </trkpt>
      <trkpt lat="47.44859" lon="16.06819">
        <ele>597.02944</ele>
        <time>2026-07-08T07:27:15.000Z</time>
      </trkpt>
      <trkpt lat="47.44859" lon="16.06832">
        <ele>596.148733</ele>
        <time>2026-07-08T07:27:16.000Z</time>
      </trkpt>
      <trkpt lat="47.44859" lon="16.06844">
        <ele>595.289223</ele>
        <time>2026-07-08T07:27:17.000Z</time>
      </trkpt>
      <trkpt lat="47.44858" lon="16.06855">
        <ele>594.476621</ele>
        <time>2026-07-08T07:27:18.000Z</time>
      </trkpt>
      <trkpt lat="47.44857" lon="16.06866">
        <ele>593.736456</ele>
        <time>2026-07-08T07:27:19.000Z</time>
      </trkpt>
      <trkpt lat="47.44855" lon="16.06875">
        <ele>593.012196</ele>
        <time>2026-07-08T07:27:20.000Z</time>
      </trkpt>
      <trkpt lat="47.44851" lon="16.06885">
        <ele>592.261173</ele>
        <time>2026-07-08T07:27:21.000Z</time>
      </trkpt>
      <trkpt lat="47.44847" lon="16.06893">
        <ele>591.535686</ele>
        <time>2026-07-08T07:27:22.000Z</time>
      </trkpt>
      <trkpt lat="47.44842" lon="16.06899">
        <ele>590.823646</ele>
        <time>2026-07-08T07:27:23.000Z</time>
      </trkpt>
      <trkpt lat="47.44836" lon="16.06903">
        <ele>590.166346</ele>
        <time>2026-07-08T07:27:24.000Z</time>
      </trkpt>
      <trkpt lat="47.4483" lon="16.06905">
        <ele>589.491962</ele>
        <time>2026-07-08T07:27:25.000Z</time>
      </trkpt>
      <trkpt lat="47.44823" lon="16.06906">
        <ele>588.782665</ele>
        <time>2026-07-08T07:27:26.000Z</time>
      </trkpt>
      <trkpt lat="47.44815" lon="16.06904">
        <ele>587.996756</ele>
        <time>2026-07-08T07:27:27.000Z</time>
      </trkpt>
      <trkpt lat="47.44807" lon="16.06901">
        <ele>587.147031</ele>
        <time>2026-07-08T07:27:28.000Z</time>
      </trkpt>
      <trkpt lat="47.44799" lon="16.06896">
        <ele>586.233771</ele>
        <time>2026-07-08T07:27:29.000Z</time>
      </trkpt>
      <trkpt lat="47.44792" lon="16.0689">
        <ele>585.329508</ele>
        <time>2026-07-08T07:27:30.000Z</time>
      </trkpt>
      <trkpt lat="47.44785" lon="16.06883">
        <ele>584.464621</ele>
        <time>2026-07-08T07:27:31.000Z</time>
      </trkpt>
      <trkpt lat="47.44778" lon="16.06876">
        <ele>583.614018</ele>
        <time>2026-07-08T07:27:32.000Z</time>
      </trkpt>
      <trkpt lat="47.44771" lon="16.0687">
        <ele>582.767421</ele>
        <time>2026-07-08T07:27:33.000Z</time>
      </trkpt>
      <trkpt lat="47.44765" lon="16.06862">
        <ele>581.92133</ele>
        <time>2026-07-08T07:27:34.000Z</time>
      </trkpt>
      <trkpt lat="47.44758" lon="16.06855">
        <ele>581.071042</ele>
        <time>2026-07-08T07:27:35.000Z</time>
      </trkpt>
      <trkpt lat="47.44752" lon="16.06848">
        <ele>580.233265</ele>
        <time>2026-07-08T07:27:36.000Z</time>
      </trkpt>
      <trkpt lat="47.44746" lon="16.06841">
        <ele>579.425132</ele>
        <time>2026-07-08T07:27:37.000Z</time>
      </trkpt>
      <trkpt lat="47.44739" lon="16.06835">
        <ele>578.608124</ele>
        <time>2026-07-08T07:27:38.000Z</time>
      </trkpt>
      <trkpt lat="47.44733" lon="16.06828">
        <ele>577.795556</ele>
        <time>2026-07-08T07:27:39.000Z</time>
      </trkpt>
      <trkpt lat="47.44726" lon="16.06821">
        <ele>576.97472</ele>
        <time>2026-07-08T07:27:40.000Z</time>
      </trkpt>
      <trkpt lat="47.4472" lon="16.06814">
        <ele>576.145571</ele>
        <time>2026-07-08T07:27:41.000Z</time>
      </trkpt>
      <trkpt lat="47.44714" lon="16.06807">
        <ele>575.333001</ele>
        <time>2026-07-08T07:27:42.000Z</time>
      </trkpt>
      <trkpt lat="47.44707" lon="16.06799">
        <ele>574.478971</ele>
        <time>2026-07-08T07:27:43.000Z</time>
      </trkpt>
      <trkpt lat="47.447" lon="16.06792">
        <ele>573.620674</ele>
        <time>2026-07-08T07:27:44.000Z</time>
      </trkpt>
      <trkpt lat="47.44693" lon="16.06784">
        <ele>572.7251</ele>
        <time>2026-07-08T07:27:45.000Z</time>
      </trkpt>
      <trkpt lat="47.44686" lon="16.06776">
        <ele>571.771535</ele>
        <time>2026-07-08T07:27:46.000Z</time>
      </trkpt>
      <trkpt lat="47.44678" lon="16.06768">
        <ele>570.809745</ele>
        <time>2026-07-08T07:27:47.000Z</time>
      </trkpt>
      <trkpt lat="47.44671" lon="16.0676">
        <ele>569.818852</ele>
        <time>2026-07-08T07:27:48.000Z</time>
      </trkpt>
      <trkpt lat="47.44663" lon="16.06751">
        <ele>568.794872</ele>
        <time>2026-07-08T07:27:49.000Z</time>
      </trkpt>
      <trkpt lat="47.44655" lon="16.06742">
        <ele>567.775008</ele>
        <time>2026-07-08T07:27:50.000Z</time>
      </trkpt>
      <trkpt lat="47.44646" lon="16.06734">
        <ele>566.742411</ele>
        <time>2026-07-08T07:27:51.000Z</time>
      </trkpt>
      <trkpt lat="47.44638" lon="16.06725">
        <ele>565.726631</ele>
        <time>2026-07-08T07:27:52.000Z</time>
      </trkpt>
      <trkpt lat="47.44631" lon="16.06717">
        <ele>564.727525</ele>
        <time>2026-07-08T07:27:53.000Z</time>
      </trkpt>
      <trkpt lat="47.44623" lon="16.06708">
        <ele>563.711744</ele>
        <time>2026-07-08T07:27:54.000Z</time>
      </trkpt>
      <trkpt lat="47.44615" lon="16.067">
        <ele>562.687761</ele>
        <time>2026-07-08T07:27:55.000Z</time>
      </trkpt>
      <trkpt lat="47.44607" lon="16.06691">
        <ele>561.676102</ele>
        <time>2026-07-08T07:27:56.000Z</time>
      </trkpt>
      <trkpt lat="47.44599" lon="16.06682">
        <ele>560.714304</ele>
        <time>2026-07-08T07:27:57.000Z</time>
      </trkpt>
      <trkpt lat="47.44591" lon="16.06673">
        <ele>559.786708</ele>
        <time>2026-07-08T07:27:58.000Z</time>
      </trkpt>
      <trkpt lat="47.44583" lon="16.06664">
        <ele>558.840179</ele>
        <time>2026-07-08T07:27:59.000Z</time>
      </trkpt>
      <trkpt lat="47.44575" lon="16.06656">
        <ele>557.89748</ele>
        <time>2026-07-08T07:28:00.000Z</time>
      </trkpt>
      <trkpt lat="47.44567" lon="16.06647">
        <ele>556.953715</ele>
        <time>2026-07-08T07:28:01.000Z</time>
      </trkpt>
      <trkpt lat="47.44559" lon="16.0664">
        <ele>556.082968</ele>
        <time>2026-07-08T07:28:02.000Z</time>
      </trkpt>
      <trkpt lat="47.44551" lon="16.06635">
        <ele>555.274366</ele>
        <time>2026-07-08T07:28:03.000Z</time>
      </trkpt>
      <trkpt lat="47.44544" lon="16.0663">
        <ele>554.512919</ele>
        <time>2026-07-08T07:28:04.000Z</time>
      </trkpt>
      <trkpt lat="47.44537" lon="16.06626">
        <ele>553.801071</ele>
        <time>2026-07-08T07:28:05.000Z</time>
      </trkpt>
      <trkpt lat="47.4453" lon="16.06622">
        <ele>553.116016</ele>
        <time>2026-07-08T07:28:06.000Z</time>
      </trkpt>
      <trkpt lat="47.44524" lon="16.06618">
        <ele>552.455182</ele>
        <time>2026-07-08T07:28:07.000Z</time>
      </trkpt>
      <trkpt lat="47.44517" lon="16.06614">
        <ele>551.801806</ele>
        <time>2026-07-08T07:28:08.000Z</time>
      </trkpt>
      <trkpt lat="47.44511" lon="16.06609">
        <ele>551.140138</ele>
        <time>2026-07-08T07:28:09.000Z</time>
      </trkpt>
      <trkpt lat="47.44505" lon="16.06603">
        <ele>550.443054</ele>
        <time>2026-07-08T07:28:10.000Z</time>
      </trkpt>
      <trkpt lat="47.44499" lon="16.06597">
        <ele>549.751105</ele>
        <time>2026-07-08T07:28:11.000Z</time>
      </trkpt>
      <trkpt lat="47.44493" lon="16.06589">
        <ele>549.021156</ele>
        <time>2026-07-08T07:28:12.000Z</time>
      </trkpt>
      <trkpt lat="47.44488" lon="16.06581">
        <ele>548.291263</ele>
        <time>2026-07-08T07:28:13.000Z</time>
      </trkpt>
      <trkpt lat="47.44483" lon="16.06572">
        <ele>547.546526</ele>
        <time>2026-07-08T07:28:14.000Z</time>
      </trkpt>
      <trkpt lat="47.44478" lon="16.06562">
        <ele>546.77002</ele>
        <time>2026-07-08T07:28:15.000Z</time>
      </trkpt>
      <trkpt lat="47.44472" lon="16.06554">
        <ele>546.006669</ele>
        <time>2026-07-08T07:28:16.000Z</time>
      </trkpt>
      <trkpt lat="47.44466" lon="16.06547">
        <ele>545.261314</ele>
        <time>2026-07-08T07:28:17.000Z</time>
      </trkpt>
      <trkpt lat="47.4446" lon="16.06541">
        <ele>544.536849</ele>
        <time>2026-07-08T07:28:18.000Z</time>
      </trkpt>
      <trkpt lat="47.44453" lon="16.06535">
        <ele>544.286394</ele>
        <time>2026-07-08T07:28:19.000Z</time>
      </trkpt>
      <trkpt lat="47.44447" lon="16.06529">
        <ele>544.260297</ele>
        <time>2026-07-08T07:28:20.000Z</time>
      </trkpt>
      <trkpt lat="47.4444" lon="16.06523">
        <ele>544.233901</ele>
        <time>2026-07-08T07:28:21.000Z</time>
      </trkpt>
      <trkpt lat="47.44434" lon="16.06518">
        <ele>544.209489</ele>
        <time>2026-07-08T07:28:22.000Z</time>
      </trkpt>
      <trkpt lat="47.44429" lon="16.06513">
        <ele>544.186938</ele>
        <time>2026-07-08T07:28:23.000Z</time>
      </trkpt>
      <trkpt lat="47.44424" lon="16.06508">
        <ele>544.16643</ele>
        <time>2026-07-08T07:28:24.000Z</time>
      </trkpt>
      <trkpt lat="47.4442" lon="16.06502">
        <ele>544.146258</ele>
        <time>2026-07-08T07:28:25.000Z</time>
      </trkpt>
      <trkpt lat="47.44416" lon="16.06496">
        <ele>544.125641</ele>
        <time>2026-07-08T07:28:26.000Z</time>
      </trkpt>
      <trkpt lat="47.44414" lon="16.06488">
        <ele>544.104824</ele>
        <time>2026-07-08T07:28:27.000Z</time>
      </trkpt>
      <trkpt lat="47.44412" lon="16.06479">
        <ele>544.084072</ele>
        <time>2026-07-08T07:28:28.000Z</time>
      </trkpt>
      <trkpt lat="47.44411" lon="16.0647">
        <ele>544.063141</ele>
        <time>2026-07-08T07:28:29.000Z</time>
      </trkpt>
      <trkpt lat="47.44411" lon="16.06462">
        <ele>544.042586</ele>
        <time>2026-07-08T07:28:30.000Z</time>
      </trkpt>
      <trkpt lat="47.44411" lon="16.06453">
        <ele>544.021961</ele>
        <time>2026-07-08T07:28:31.000Z</time>
      </trkpt>
      <trkpt lat="47.4441" lon="16.06445">
        <ele>544.002803</ele>
        <time>2026-07-08T07:28:32.000Z</time>
      </trkpt>
      <trkpt lat="47.44409" lon="16.06437">
        <ele>543.983518</ele>
        <time>2026-07-08T07:28:33.000Z</time>
      </trkpt>
      <trkpt lat="47.44407" lon="16.06429">
        <ele>543.964159</ele>
        <time>2026-07-08T07:28:34.000Z</time>
      </trkpt>
      <trkpt lat="47.44405" lon="16.06422">
        <ele>543.945805</ele>
        <time>2026-07-08T07:28:35.000Z</time>
      </trkpt>
      <trkpt lat="47.44403" lon="16.06415">
        <ele>543.928211</ele>
        <time>2026-07-08T07:28:36.000Z</time>
      </trkpt>
      <trkpt lat="47.44401" lon="16.06409">
        <ele>543.910956</ele>
        <time>2026-07-08T07:28:37.000Z</time>
      </trkpt>
      <trkpt lat="47.44398" lon="16.06403">
        <ele>543.894869</ele>
        <time>2026-07-08T07:28:38.000Z</time>
      </trkpt>
      <trkpt lat="47.44396" lon="16.06397">
        <ele>543.879909</ele>
        <time>2026-07-08T07:28:39.000Z</time>
      </trkpt>
      <trkpt lat="47.44394" lon="16.06392">
        <ele>543.86532</ele>
        <time>2026-07-08T07:28:40.000Z</time>
      </trkpt>
      <trkpt lat="47.44393" lon="16.06387">
        <ele>543.852253</ele>
        <time>2026-07-08T07:28:41.000Z</time>
      </trkpt>
      <trkpt lat="47.44391" lon="16.06382">
        <ele>543.839033</ele>
        <time>2026-07-08T07:28:42.000Z</time>
      </trkpt>
      <trkpt lat="47.44389" lon="16.06377">
        <ele>543.825653</ele>
        <time>2026-07-08T07:28:43.000Z</time>
      </trkpt>
      <trkpt lat="47.44388" lon="16.06372">
        <ele>543.812643</ele>
        <time>2026-07-08T07:28:44.000Z</time>
      </trkpt>
      <trkpt lat="47.44386" lon="16.06367">
        <ele>543.800152</ele>
        <time>2026-07-08T07:28:45.000Z</time>
      </trkpt>
      <trkpt lat="47.44384" lon="16.06362">
        <ele>543.787562</ele>
        <time>2026-07-08T07:28:46.000Z</time>
      </trkpt>
      <trkpt lat="47.44383" lon="16.06358">
        <ele>543.776132</ele>
        <time>2026-07-08T07:28:47.000Z</time>
      </trkpt>
      <trkpt lat="47.44382" lon="16.06354">
        <ele>543.766073</ele>
        <time>2026-07-08T07:28:48.000Z</time>
      </trkpt>
      <trkpt lat="47.4438" lon="16.0635">
        <ele>543.755589</ele>
        <time>2026-07-08T07:28:49.000Z</time>
      </trkpt>
      <trkpt lat="47.44379" lon="16.06346">
        <ele>543.744991</ele>
        <time>2026-07-08T07:28:50.000Z</time>
      </trkpt>
      <trkpt lat="47.44377" lon="16.06343">
        <ele>543.734768</ele>
        <time>2026-07-08T07:28:51.000Z</time>
      </trkpt>
      <trkpt lat="47.44376" lon="16.06339">
        <ele>543.724709</ele>
        <time>2026-07-08T07:28:52.000Z</time>
      </trkpt>
      <trkpt lat="47.44375" lon="16.06335">
        <ele>543.714438</ele>
        <time>2026-07-08T07:28:53.000Z</time>
      </trkpt>
      <trkpt lat="47.44374" lon="16.06331">
        <ele>543.704805</ele>
        <time>2026-07-08T07:28:54.000Z</time>
      </trkpt>
      <trkpt lat="47.44373" lon="16.06328">
        <ele>543.695536</ele>
        <time>2026-07-08T07:28:55.000Z</time>
      </trkpt>
      <trkpt lat="47.44371" lon="16.06324">
        <ele>543.686892</ele>
        <time>2026-07-08T07:28:56.000Z</time>
      </trkpt>
      <trkpt lat="47.4437" lon="16.06321">
        <ele>543.678276</ele>
        <time>2026-07-08T07:28:57.000Z</time>
      </trkpt>
      <trkpt lat="47.44369" lon="16.06318">
        <ele>543.809733</ele>
        <time>2026-07-08T07:28:58.000Z</time>
      </trkpt>
      <trkpt lat="47.44368" lon="16.06315">
        <ele>544.03038</ele>
        <time>2026-07-08T07:28:59.000Z</time>
      </trkpt>
      <trkpt lat="47.44367" lon="16.06312">
        <ele>544.242077</ele>
        <time>2026-07-08T07:29:00.000Z</time>
      </trkpt>
      <trkpt lat="47.44366" lon="16.06308">
        <ele>544.456284</ele>
        <time>2026-07-08T07:29:01.000Z</time>
      </trkpt>
      <trkpt lat="47.44365" lon="16.06305">
        <ele>544.652085</ele>
        <time>2026-07-08T07:29:02.000Z</time>
      </trkpt>
      <trkpt lat="47.44363" lon="16.06303">
        <ele>544.846145</ele>
        <time>2026-07-08T07:29:03.000Z</time>
      </trkpt>
      <trkpt lat="47.44362" lon="16.063">
        <ele>545.035713</ele>
        <time>2026-07-08T07:29:04.000Z</time>
      </trkpt>
      <trkpt lat="47.44362" lon="16.06297">
        <ele>545.204994</ele>
        <time>2026-07-08T07:29:05.000Z</time>
      </trkpt>
      <trkpt lat="47.44361" lon="16.06294">
        <ele>545.377563</ele>
        <time>2026-07-08T07:29:06.000Z</time>
      </trkpt>
      <trkpt lat="47.4436" lon="16.06292">
        <ele>545.547601</ele>
        <time>2026-07-08T07:29:07.000Z</time>
      </trkpt>
      <trkpt lat="47.44359" lon="16.06289">
        <ele>545.731878</ele>
        <time>2026-07-08T07:29:08.000Z</time>
      </trkpt>
      <trkpt lat="47.44357" lon="16.06287">
        <ele>545.936435</ele>
        <time>2026-07-08T07:29:09.000Z</time>
      </trkpt>
      <trkpt lat="47.44356" lon="16.06284">
        <ele>546.132086</ele>
        <time>2026-07-08T07:29:10.000Z</time>
      </trkpt>
      <trkpt lat="47.44354" lon="16.06282">
        <ele>546.31914</ele>
        <time>2026-07-08T07:29:11.000Z</time>
      </trkpt>
      <trkpt lat="47.44353" lon="16.0628">
        <ele>546.477365</ele>
        <time>2026-07-08T07:29:12.000Z</time>
      </trkpt>
      <trkpt lat="47.44352" lon="16.06279">
        <ele>546.591309</ele>
        <time>2026-07-08T07:29:13.000Z</time>
      </trkpt>
      <trkpt lat="47.44351" lon="16.06279">
        <ele>546.654396</ele>
        <time>2026-07-08T07:29:14.000Z</time>
      </trkpt>
      <trkpt lat="47.44351" lon="16.06279">
        <ele>546.663052</ele>
        <time>2026-07-08T07:29:15.000Z</time>
      </trkpt>
      <trkpt lat="47.44346" lon="16.06279">
        <ele>547.088654</ele>
        <time>2026-07-08T07:30:50.000Z</time>
      </trkpt>
      <trkpt lat="47.44344" lon="16.0628">
        <ele>547.244903</ele>
        <time>2026-07-08T07:30:51.000Z</time>
      </trkpt>
      <trkpt lat="47.44343" lon="16.06279">
        <ele>547.382933</ele>
        <time>2026-07-08T07:30:52.000Z</time>
      </trkpt>
      <trkpt lat="47.44341" lon="16.06277">
        <ele>547.551373</ele>
        <time>2026-07-08T07:30:53.000Z</time>
      </trkpt>
      <trkpt lat="47.44339" lon="16.06276">
        <ele>547.715364</ele>
        <time>2026-07-08T07:30:54.000Z</time>
      </trkpt>
      <trkpt lat="47.44337" lon="16.06274">
        <ele>547.904633</ele>
        <time>2026-07-08T07:30:55.000Z</time>
      </trkpt>
      <trkpt lat="47.44336" lon="16.06273">
        <ele>548.080685</ele>
        <time>2026-07-08T07:30:56.000Z</time>
      </trkpt>
      <trkpt lat="47.44334" lon="16.06271">
        <ele>548.259538</ele>
        <time>2026-07-08T07:30:57.000Z</time>
      </trkpt>
      <trkpt lat="47.44332" lon="16.0627">
        <ele>548.444249</ele>
        <time>2026-07-08T07:30:58.000Z</time>
      </trkpt>
      <trkpt lat="47.4433" lon="16.0627">
        <ele>548.622156</ele>
        <time>2026-07-08T07:30:59.000Z</time>
      </trkpt>
      <trkpt lat="47.44328" lon="16.06269">
        <ele>548.801502</ele>
        <time>2026-07-08T07:31:00.000Z</time>
      </trkpt>
      <trkpt lat="47.44326" lon="16.06268">
        <ele>548.982464</ele>
        <time>2026-07-08T07:31:01.000Z</time>
      </trkpt>
      <trkpt lat="47.44324" lon="16.06267">
        <ele>549.153469</ele>
        <time>2026-07-08T07:31:02.000Z</time>
      </trkpt>
      <trkpt lat="47.44322" lon="16.06266">
        <ele>549.316166</ele>
        <time>2026-07-08T07:31:03.000Z</time>
      </trkpt>
      <trkpt lat="47.4432" lon="16.06266">
        <ele>549.477275</ele>
        <time>2026-07-08T07:31:04.000Z</time>
      </trkpt>
      <trkpt lat="47.44318" lon="16.06265">
        <ele>549.655182</ele>
        <time>2026-07-08T07:31:05.000Z</time>
      </trkpt>
      <trkpt lat="47.44316" lon="16.06264">
        <ele>549.826187</ele>
        <time>2026-07-08T07:31:06.000Z</time>
      </trkpt>
      <trkpt lat="47.44314" lon="16.06263">
        <ele>550.005532</ele>
        <time>2026-07-08T07:31:07.000Z</time>
      </trkpt>
      <trkpt lat="47.44312" lon="16.06263">
        <ele>550.181112</ele>
        <time>2026-07-08T07:31:08.000Z</time>
      </trkpt>
      <trkpt lat="47.4431" lon="16.06262">
        <ele>550.359019</ele>
        <time>2026-07-08T07:31:09.000Z</time>
      </trkpt>
      <trkpt lat="47.44309" lon="16.06262">
        <ele>550.517555</ele>
        <time>2026-07-08T07:31:10.000Z</time>
      </trkpt>
      <trkpt lat="47.44307" lon="16.06261">
        <ele>550.693134</ele>
        <time>2026-07-08T07:31:11.000Z</time>
      </trkpt>
      <trkpt lat="47.44305" lon="16.0626">
        <ele>550.854244</ele>
        <time>2026-07-08T07:31:12.000Z</time>
      </trkpt>
      <trkpt lat="47.44303" lon="16.0626">
        <ele>551.030894</ele>
        <time>2026-07-08T07:31:13.000Z</time>
      </trkpt>
      <trkpt lat="47.44301" lon="16.06259">
        <ele>551.206473</ele>
        <time>2026-07-08T07:31:14.000Z</time>
      </trkpt>
      <trkpt lat="47.44299" lon="16.06259">
        <ele>551.373524</ele>
        <time>2026-07-08T07:31:15.000Z</time>
      </trkpt>
      <trkpt lat="47.44297" lon="16.06258">
        <ele>551.551431</ele>
        <time>2026-07-08T07:31:16.000Z</time>
      </trkpt>
      <trkpt lat="47.44295" lon="16.06258">
        <ele>551.709967</ele>
        <time>2026-07-08T07:31:17.000Z</time>
      </trkpt>
      <trkpt lat="47.44293" lon="16.06257">
        <ele>551.871076</ele>
        <time>2026-07-08T07:31:18.000Z</time>
      </trkpt>
      <trkpt lat="47.44291" lon="16.06256">
        <ele>552.038127</ele>
        <time>2026-07-08T07:31:19.000Z</time>
      </trkpt>
      <trkpt lat="47.4429" lon="16.06256">
        <ele>552.194924</ele>
        <time>2026-07-08T07:31:20.000Z</time>
      </trkpt>
      <trkpt lat="47.44288" lon="16.06256">
        <ele>552.35346</ele>
        <time>2026-07-08T07:31:21.000Z</time>
      </trkpt>
      <trkpt lat="47.44286" lon="16.06255">
        <ele>552.527471</ele>
        <time>2026-07-08T07:31:22.000Z</time>
      </trkpt>
      <trkpt lat="47.44284" lon="16.06255">
        <ele>552.693596</ele>
        <time>2026-07-08T07:31:23.000Z</time>
      </trkpt>
      <trkpt lat="47.44282" lon="16.06255">
        <ele>552.867607</ele>
        <time>2026-07-08T07:31:24.000Z</time>
      </trkpt>
      <trkpt lat="47.4428" lon="16.06254">
        <ele>553.043187</ele>
        <time>2026-07-08T07:31:25.000Z</time>
      </trkpt>
      <trkpt lat="47.44278" lon="16.06254">
        <ele>553.198997</ele>
        <time>2026-07-08T07:31:26.000Z</time>
      </trkpt>
      <trkpt lat="47.44276" lon="16.06254">
        <ele>553.372119</ele>
        <time>2026-07-08T07:31:27.000Z</time>
      </trkpt>
      <trkpt lat="47.44274" lon="16.06254">
        <ele>553.545637</ele>
        <time>2026-07-08T07:31:28.000Z</time>
      </trkpt>
      <trkpt lat="47.44272" lon="16.06255">
        <ele>553.719648</ele>
        <time>2026-07-08T07:31:29.000Z</time>
      </trkpt>
      <trkpt lat="47.4427" lon="16.06255">
        <ele>553.892771</ele>
        <time>2026-07-08T07:31:30.000Z</time>
      </trkpt>
      <trkpt lat="47.44268" lon="16.06255">
        <ele>554.065893</ele>
        <time>2026-07-08T07:31:31.000Z</time>
      </trkpt>
      <trkpt lat="47.44266" lon="16.06254">
        <ele>554.239411</ele>
        <time>2026-07-08T07:31:32.000Z</time>
      </trkpt>
      <trkpt lat="47.44264" lon="16.06254">
        <ele>554.395222</ele>
        <time>2026-07-08T07:31:33.000Z</time>
      </trkpt>
      <trkpt lat="47.44262" lon="16.06254">
        <ele>554.559792</ele>
        <time>2026-07-08T07:31:34.000Z</time>
      </trkpt>
      <trkpt lat="47.44261" lon="16.06254">
        <ele>554.715712</ele>
        <time>2026-07-08T07:31:35.000Z</time>
      </trkpt>
      <trkpt lat="47.44259" lon="16.06254">
        <ele>554.871522</ele>
        <time>2026-07-08T07:31:36.000Z</time>
      </trkpt>
      <trkpt lat="47.44257" lon="16.06255">
        <ele>555.003459</ele>
        <time>2026-07-08T07:31:37.000Z</time>
      </trkpt>
      <trkpt lat="47.44256" lon="16.06255">
        <ele>555.133433</ele>
        <time>2026-07-08T07:31:38.000Z</time>
      </trkpt>
      <trkpt lat="47.44254" lon="16.06255">
        <ele>555.263801</ele>
        <time>2026-07-08T07:31:39.000Z</time>
      </trkpt>
      <trkpt lat="47.44253" lon="16.06255">
        <ele>555.393643</ele>
        <time>2026-07-08T07:31:40.000Z</time>
      </trkpt>
      <trkpt lat="47.44251" lon="16.06255">
        <ele>555.541263</ele>
        <time>2026-07-08T07:31:41.000Z</time>
      </trkpt>
      <trkpt lat="47.44249" lon="16.06255">
        <ele>555.697183</ele>
        <time>2026-07-08T07:31:42.000Z</time>
      </trkpt>
      <trkpt lat="47.44247" lon="16.06256">
        <ele>555.862065</ele>
        <time>2026-07-08T07:31:43.000Z</time>
      </trkpt>
      <trkpt lat="47.44246" lon="16.06256">
        <ele>556.001672</ele>
        <time>2026-07-08T07:31:44.000Z</time>
      </trkpt>
      <trkpt lat="47.44244" lon="16.06256">
        <ele>556.132041</ele>
        <time>2026-07-08T07:31:45.000Z</time>
      </trkpt>
      <trkpt lat="47.44243" lon="16.06256">
        <ele>556.261883</ele>
        <time>2026-07-08T07:31:46.000Z</time>
      </trkpt>
      <trkpt lat="47.44241" lon="16.06256">
        <ele>556.392252</ele>
        <time>2026-07-08T07:31:47.000Z</time>
      </trkpt>
      <trkpt lat="47.4424" lon="16.06256">
        <ele>556.522225</ele>
        <time>2026-07-08T07:31:48.000Z</time>
      </trkpt>
      <trkpt lat="47.44238" lon="16.06257">
        <ele>556.687108</ele>
        <time>2026-07-08T07:31:49.000Z</time>
      </trkpt>
      <trkpt lat="47.44236" lon="16.06257">
        <ele>556.8261</ele>
        <time>2026-07-08T07:31:50.000Z</time>
      </trkpt>
      <trkpt lat="47.44234" lon="16.06257">
        <ele>556.991501</ele>
        <time>2026-07-08T07:31:51.000Z</time>
      </trkpt>
      <trkpt lat="47.44233" lon="16.06257">
        <ele>557.147312</ele>
        <time>2026-07-08T07:31:52.000Z</time>
      </trkpt>
      <trkpt lat="47.44231" lon="16.06257">
        <ele>557.29551</ele>
        <time>2026-07-08T07:31:53.000Z</time>
      </trkpt>
      <trkpt lat="47.44229" lon="16.06258">
        <ele>557.45307</ele>
        <time>2026-07-08T07:31:54.000Z</time>
      </trkpt>
      <trkpt lat="47.44227" lon="16.06258">
        <ele>557.608881</ele>
        <time>2026-07-08T07:31:55.000Z</time>
      </trkpt>
      <trkpt lat="47.44225" lon="16.06258">
        <ele>557.773763</ele>
        <time>2026-07-08T07:31:56.000Z</time>
      </trkpt>
      <trkpt lat="47.44224" lon="16.06257">
        <ele>557.93056</ele>
        <time>2026-07-08T07:31:57.000Z</time>
      </trkpt>
      <trkpt lat="47.44222" lon="16.06257">
        <ele>558.08637</ele>
        <time>2026-07-08T07:31:58.000Z</time>
      </trkpt>
      <trkpt lat="47.4422" lon="16.06257">
        <ele>558.250941</ele>
        <time>2026-07-08T07:31:59.000Z</time>
      </trkpt>
      <trkpt lat="47.44218" lon="16.06258">
        <ele>558.391405</ele>
        <time>2026-07-08T07:32:00.000Z</time>
      </trkpt>
      <trkpt lat="47.44216" lon="16.06258">
        <ele>558.555975</ele>
        <time>2026-07-08T07:32:01.000Z</time>
      </trkpt>
      <trkpt lat="47.44215" lon="16.06258">
        <ele>558.712225</ele>
        <time>2026-07-08T07:32:02.000Z</time>
      </trkpt>
      <trkpt lat="47.44213" lon="16.06258">
        <ele>558.859379</ele>
        <time>2026-07-08T07:32:03.000Z</time>
      </trkpt>
      <trkpt lat="47.44211" lon="16.06258">
        <ele>558.998371</ele>
        <time>2026-07-08T07:32:04.000Z</time>
      </trkpt>
      <trkpt lat="47.4421" lon="16.06258">
        <ele>559.128344</ele>
        <time>2026-07-08T07:32:05.000Z</time>
      </trkpt>
      <trkpt lat="47.44208" lon="16.06258">
        <ele>559.273973</ele>
        <time>2026-07-08T07:32:06.000Z</time>
      </trkpt>
      <trkpt lat="47.44206" lon="16.06257">
        <ele>559.412185</ele>
        <time>2026-07-08T07:32:07.000Z</time>
      </trkpt>
      <trkpt lat="47.44205" lon="16.06257">
        <ele>559.541856</ele>
        <time>2026-07-08T07:32:08.000Z</time>
      </trkpt>
      <trkpt lat="47.44203" lon="16.06257">
        <ele>559.67974</ele>
        <time>2026-07-08T07:32:09.000Z</time>
      </trkpt>
      <trkpt lat="47.44201" lon="16.06257">
        <ele>559.828173</ele>
        <time>2026-07-08T07:32:10.000Z</time>
      </trkpt>
      <trkpt lat="47.442" lon="16.06256">
        <ele>559.968648</ele>
        <time>2026-07-08T07:32:11.000Z</time>
      </trkpt>
      <trkpt lat="47.44198" lon="16.06256">
        <ele>560.108157</ele>
        <time>2026-07-08T07:32:12.000Z</time>
      </trkpt>
      <trkpt lat="47.44196" lon="16.06256">
        <ele>560.254037</ele>
        <time>2026-07-08T07:32:13.000Z</time>
      </trkpt>
      <trkpt lat="47.44194" lon="16.06256">
        <ele>560.391922</ele>
        <time>2026-07-08T07:32:14.000Z</time>
      </trkpt>
      <trkpt lat="47.44193" lon="16.06256">
        <ele>560.538726</ele>
        <time>2026-07-08T07:32:15.000Z</time>
      </trkpt>
      <trkpt lat="47.44191" lon="16.06256">
        <ele>560.676501</ele>
        <time>2026-07-08T07:32:16.000Z</time>
      </trkpt>
      <trkpt lat="47.44189" lon="16.06256">
        <ele>560.823305</ele>
        <time>2026-07-08T07:32:17.000Z</time>
      </trkpt>
      <trkpt lat="47.44187" lon="16.06256">
        <ele>560.961516</ele>
        <time>2026-07-08T07:32:18.000Z</time>
      </trkpt>
      <trkpt lat="47.44186" lon="16.06255">
        <ele>561.10832</ele>
        <time>2026-07-08T07:32:19.000Z</time>
      </trkpt>
      <trkpt lat="47.44184" lon="16.06255">
        <ele>561.256753</ele>
        <time>2026-07-08T07:32:20.000Z</time>
      </trkpt>
      <trkpt lat="47.44182" lon="16.06255">
        <ele>561.394964</ele>
        <time>2026-07-08T07:32:21.000Z</time>
      </trkpt>
      <trkpt lat="47.4418" lon="16.06254">
        <ele>561.541255</ele>
        <time>2026-07-08T07:32:22.000Z</time>
      </trkpt>
      <trkpt lat="47.44178" lon="16.06254">
        <ele>561.695337</ele>
        <time>2026-07-08T07:32:23.000Z</time>
      </trkpt>
      <trkpt lat="47.44177" lon="16.06254">
        <ele>561.843769</ele>
        <time>2026-07-08T07:32:24.000Z</time>
      </trkpt>
      <trkpt lat="47.44175" lon="16.06253">
        <ele>561.992202</ele>
        <time>2026-07-08T07:32:25.000Z</time>
      </trkpt>
      <trkpt lat="47.44173" lon="16.06253">
        <ele>562.146576</ele>
        <time>2026-07-08T07:32:26.000Z</time>
      </trkpt>
      <trkpt lat="47.44171" lon="16.06253">
        <ele>562.276247</ele>
        <time>2026-07-08T07:32:27.000Z</time>
      </trkpt>
      <trkpt lat="47.44169" lon="16.06253">
        <ele>562.430621</ele>
        <time>2026-07-08T07:32:28.000Z</time>
      </trkpt>
      <trkpt lat="47.44168" lon="16.06253">
        <ele>562.560408</ele>
        <time>2026-07-08T07:32:29.000Z</time>
      </trkpt>
      <trkpt lat="47.44166" lon="16.06253">
        <ele>562.714393</ele>
        <time>2026-07-08T07:32:30.000Z</time>
      </trkpt>
      <trkpt lat="47.44164" lon="16.06253">
        <ele>562.844527</ele>
        <time>2026-07-08T07:32:31.000Z</time>
      </trkpt>
      <trkpt lat="47.44162" lon="16.06252">
        <ele>562.998901</ele>
        <time>2026-07-08T07:32:32.000Z</time>
      </trkpt>
      <trkpt lat="47.44161" lon="16.06252">
        <ele>563.144884</ele>
        <time>2026-07-08T07:32:33.000Z</time>
      </trkpt>
      <trkpt lat="47.44159" lon="16.06252">
        <ele>563.292402</ele>
        <time>2026-07-08T07:32:34.000Z</time>
      </trkpt>
      <trkpt lat="47.44157" lon="16.06252">
        <ele>563.431156</ele>
        <time>2026-07-08T07:32:35.000Z</time>
      </trkpt>
      <trkpt lat="47.44155" lon="16.06251">
        <ele>563.577447</ele>
        <time>2026-07-08T07:32:36.000Z</time>
      </trkpt>
      <trkpt lat="47.44153" lon="16.06251">
        <ele>563.731432</ele>
        <time>2026-07-08T07:32:37.000Z</time>
      </trkpt>
      <trkpt lat="47.44152" lon="16.06252">
        <ele>563.877723</ele>
        <time>2026-07-08T07:32:38.000Z</time>
      </trkpt>
      <trkpt lat="47.4415" lon="16.06252">
        <ele>564.023603</ele>
        <time>2026-07-08T07:32:39.000Z</time>
      </trkpt>
      <trkpt lat="47.44148" lon="16.06251">
        <ele>564.177978</ele>
        <time>2026-07-08T07:32:40.000Z</time>
      </trkpt>
      <trkpt lat="47.44146" lon="16.06251">
        <ele>564.323961</ele>
        <time>2026-07-08T07:32:41.000Z</time>
      </trkpt>
      <trkpt lat="47.44144" lon="16.06251">
        <ele>564.470252</ele>
        <time>2026-07-08T07:32:42.000Z</time>
      </trkpt>
      <trkpt lat="47.44143" lon="16.06251">
        <ele>564.609006</ele>
        <time>2026-07-08T07:32:43.000Z</time>
      </trkpt>
      <trkpt lat="47.44141" lon="16.06251">
        <ele>564.755297</ele>
        <time>2026-07-08T07:32:44.000Z</time>
      </trkpt>
      <trkpt lat="47.44139" lon="16.0625">
        <ele>564.877357</ele>
        <time>2026-07-08T07:32:45.000Z</time>
      </trkpt>
      <trkpt lat="47.44138" lon="16.0625">
        <ele>565.015242</ele>
        <time>2026-07-08T07:32:46.000Z</time>
      </trkpt>
      <trkpt lat="47.44136" lon="16.0625">
        <ele>565.153453</ele>
        <time>2026-07-08T07:32:47.000Z</time>
      </trkpt>
      <trkpt lat="47.44134" lon="16.0625">
        <ele>565.283587</ele>
        <time>2026-07-08T07:32:48.000Z</time>
      </trkpt>
      <trkpt lat="47.44132" lon="16.0625">
        <ele>565.438447</ele>
        <time>2026-07-08T07:32:49.000Z</time>
      </trkpt>
      <trkpt lat="47.44131" lon="16.06249">
        <ele>565.569156</ele>
        <time>2026-07-08T07:32:50.000Z</time>
      </trkpt>
      <trkpt lat="47.44129" lon="16.06249">
        <ele>565.724694</ele>
        <time>2026-07-08T07:32:51.000Z</time>
      </trkpt>
      <trkpt lat="47.44127" lon="16.06249">
        <ele>565.855404</ele>
        <time>2026-07-08T07:32:52.000Z</time>
      </trkpt>
      <trkpt lat="47.44125" lon="16.06248">
        <ele>566.009778</ele>
        <time>2026-07-08T07:32:53.000Z</time>
      </trkpt>
      <trkpt lat="47.44124" lon="16.06248">
        <ele>566.156582</ele>
        <time>2026-07-08T07:32:54.000Z</time>
      </trkpt>
      <trkpt lat="47.44122" lon="16.06248">
        <ele>566.302462</ele>
        <time>2026-07-08T07:32:55.000Z</time>
      </trkpt>
      <trkpt lat="47.4412" lon="16.06248">
        <ele>566.456447</ele>
        <time>2026-07-08T07:32:56.000Z</time>
      </trkpt>
      <trkpt lat="47.44118" lon="16.06248">
        <ele>566.602738</ele>
        <time>2026-07-08T07:32:57.000Z</time>
      </trkpt>
      <trkpt lat="47.44116" lon="16.06247">
        <ele>566.744385</ele>
        <time>2026-07-08T07:32:58.000Z</time>
      </trkpt>
      <trkpt lat="47.44115" lon="16.06247">
        <ele>566.892817</ele>
        <time>2026-07-08T07:32:59.000Z</time>
      </trkpt>
      <trkpt lat="47.44113" lon="16.06246">
        <ele>567.040336</ele>
        <time>2026-07-08T07:33:00.000Z</time>
      </trkpt>
      <trkpt lat="47.44111" lon="16.06246">
        <ele>567.179089</ele>
        <time>2026-07-08T07:33:01.000Z</time>
      </trkpt>
      <trkpt lat="47.44109" lon="16.06246">
        <ele>567.325381</ele>
        <time>2026-07-08T07:33:02.000Z</time>
      </trkpt>
      <trkpt lat="47.44107" lon="16.06246">
        <ele>567.480241</ele>
        <time>2026-07-08T07:33:03.000Z</time>
      </trkpt>
      <trkpt lat="47.44106" lon="16.06245">
        <ele>567.626532</ele>
        <time>2026-07-08T07:33:04.000Z</time>
      </trkpt>
      <trkpt lat="47.44104" lon="16.06245">
        <ele>567.774964</ele>
        <time>2026-07-08T07:33:05.000Z</time>
      </trkpt>
      <trkpt lat="47.44102" lon="16.06244">
        <ele>567.931369</ele>
        <time>2026-07-08T07:33:06.000Z</time>
      </trkpt>
      <trkpt lat="47.441" lon="16.06244">
        <ele>568.08091</ele>
        <time>2026-07-08T07:33:07.000Z</time>
      </trkpt>
      <trkpt lat="47.44098" lon="16.06243">
        <ele>568.234906</ele>
        <time>2026-07-08T07:33:08.000Z</time>
      </trkpt>
      <trkpt lat="47.44096" lon="16.06242">
        <ele>568.392364</ele>
        <time>2026-07-08T07:33:09.000Z</time>
      </trkpt>
      <trkpt lat="47.44095" lon="16.06241">
        <ele>568.54636</ele>
        <time>2026-07-08T07:33:10.000Z</time>
      </trkpt>
      <trkpt lat="47.44093" lon="16.0624">
        <ele>568.694639</ele>
        <time>2026-07-08T07:33:11.000Z</time>
      </trkpt>
      <trkpt lat="47.44091" lon="16.06239">
        <ele>568.850478</ele>
        <time>2026-07-08T07:33:12.000Z</time>
      </trkpt>
      <trkpt lat="47.44089" lon="16.06238">
        <ele>568.998757</ele>
        <time>2026-07-08T07:33:13.000Z</time>
      </trkpt>
      <trkpt lat="47.44088" lon="16.06238">
        <ele>569.148298</ele>
        <time>2026-07-08T07:33:14.000Z</time>
      </trkpt>
      <trkpt lat="47.44086" lon="16.06237">
        <ele>569.29914</ele>
        <time>2026-07-08T07:33:15.000Z</time>
      </trkpt>
      <trkpt lat="47.44084" lon="16.06236">
        <ele>569.457833</ele>
        <time>2026-07-08T07:33:16.000Z</time>
      </trkpt>
      <trkpt lat="47.44082" lon="16.06235">
        <ele>569.613672</ele>
        <time>2026-07-08T07:33:17.000Z</time>
      </trkpt>
      <trkpt lat="47.4408" lon="16.06234">
        <ele>569.76951</ele>
        <time>2026-07-08T07:33:18.000Z</time>
      </trkpt>
      <trkpt lat="47.44079" lon="16.06234">
        <ele>569.914096</ele>
        <time>2026-07-08T07:33:19.000Z</time>
      </trkpt>
      <trkpt lat="47.44077" lon="16.06232">
        <ele>570.066768</ele>
        <time>2026-07-08T07:33:20.000Z</time>
      </trkpt>
      <trkpt lat="47.44075" lon="16.06231">
        <ele>570.207549</ele>
        <time>2026-07-08T07:33:21.000Z</time>
      </trkpt>
      <trkpt lat="47.44074" lon="16.0623">
        <ele>570.362662</ele>
        <time>2026-07-08T07:33:22.000Z</time>
      </trkpt>
      <trkpt lat="47.44072" lon="16.06229">
        <ele>570.496015</ele>
        <time>2026-07-08T07:33:23.000Z</time>
      </trkpt>
      <trkpt lat="47.4407" lon="16.06228">
        <ele>570.644295</ele>
        <time>2026-07-08T07:33:24.000Z</time>
      </trkpt>
      <trkpt lat="47.44069" lon="16.06227">
        <ele>570.789695</ele>
        <time>2026-07-08T07:33:25.000Z</time>
      </trkpt>
      <trkpt lat="47.44067" lon="16.06226">
        <ele>570.944808</ele>
        <time>2026-07-08T07:33:26.000Z</time>
      </trkpt>
      <trkpt lat="47.44065" lon="16.06224">
        <ele>571.09748</ele>
        <time>2026-07-08T07:33:27.000Z</time>
      </trkpt>
      <trkpt lat="47.44064" lon="16.06223">
        <ele>571.238393</ele>
        <time>2026-07-08T07:33:28.000Z</time>
      </trkpt>
      <trkpt lat="47.44062" lon="16.06222">
        <ele>571.379306</ele>
        <time>2026-07-08T07:33:29.000Z</time>
      </trkpt>
      <trkpt lat="47.44061" lon="16.0622">
        <ele>571.532847</ele>
        <time>2026-07-08T07:33:30.000Z</time>
      </trkpt>
      <trkpt lat="47.44059" lon="16.06219">
        <ele>571.67661</ele>
        <time>2026-07-08T07:33:31.000Z</time>
      </trkpt>
      <trkpt lat="47.44058" lon="16.06218">
        <ele>571.817522</ele>
        <time>2026-07-08T07:33:32.000Z</time>
      </trkpt>
      <trkpt lat="47.44056" lon="16.06216">
        <ele>571.977967</ele>
        <time>2026-07-08T07:33:33.000Z</time>
      </trkpt>
      <trkpt lat="47.44055" lon="16.06215">
        <ele>572.124729</ele>
        <time>2026-07-08T07:33:34.000Z</time>
      </trkpt>
      <trkpt lat="47.44053" lon="16.06213">
        <ele>572.277902</ele>
        <time>2026-07-08T07:33:35.000Z</time>
      </trkpt>
      <trkpt lat="47.44052" lon="16.06211">
        <ele>572.424663</ele>
        <time>2026-07-08T07:33:36.000Z</time>
      </trkpt>
      <trkpt lat="47.4405" lon="16.0621">
        <ele>572.571425</ele>
        <time>2026-07-08T07:33:37.000Z</time>
      </trkpt>
      <trkpt lat="47.44048" lon="16.06208">
        <ele>572.734747</ele>
        <time>2026-07-08T07:33:38.000Z</time>
      </trkpt>
      <trkpt lat="47.44047" lon="16.06207">
        <ele>572.875402</ele>
        <time>2026-07-08T07:33:39.000Z</time>
      </trkpt>
      <trkpt lat="47.44046" lon="16.06205">
        <ele>573.028575</ele>
        <time>2026-07-08T07:33:40.000Z</time>
      </trkpt>
      <trkpt lat="47.44044" lon="16.06203">
        <ele>573.162219</ele>
        <time>2026-07-08T07:33:41.000Z</time>
      </trkpt>
      <trkpt lat="47.44043" lon="16.06202">
        <ele>573.312121</ele>
        <time>2026-07-08T07:33:42.000Z</time>
      </trkpt>
      <trkpt lat="47.44041" lon="16.062">
        <ele>573.458945</ele>
        <time>2026-07-08T07:33:43.000Z</time>
      </trkpt>
      <trkpt lat="47.4404" lon="16.06198">
        <ele>573.612118</ele>
        <time>2026-07-08T07:33:44.000Z</time>
      </trkpt>
      <trkpt lat="47.44039" lon="16.06197">
        <ele>573.749203</ele>
        <time>2026-07-08T07:33:45.000Z</time>
      </trkpt>
      <trkpt lat="47.44037" lon="16.06195">
        <ele>573.932769</ele>
        <time>2026-07-08T07:33:46.000Z</time>
      </trkpt>
      <trkpt lat="47.44036" lon="16.06193">
        <ele>574.115844</ele>
        <time>2026-07-08T07:33:47.000Z</time>
      </trkpt>
      <trkpt lat="47.44034" lon="16.06191">
        <ele>574.306551</ele>
        <time>2026-07-08T07:33:48.000Z</time>
      </trkpt>
      <trkpt lat="47.44033" lon="16.0619">
        <ele>574.470115</ele>
        <time>2026-07-08T07:33:49.000Z</time>
      </trkpt>
      <trkpt lat="47.44032" lon="16.06188">
        <ele>574.656334</ele>
        <time>2026-07-08T07:33:50.000Z</time>
      </trkpt>
      <trkpt lat="47.44031" lon="16.06186">
        <ele>574.814948</ele>
        <time>2026-07-08T07:33:51.000Z</time>
      </trkpt>
      <trkpt lat="47.44029" lon="16.06185">
        <ele>575.001167</ele>
        <time>2026-07-08T07:33:52.000Z</time>
      </trkpt>
      <trkpt lat="47.44028" lon="16.06183">
        <ele>575.169823</ele>
        <time>2026-07-08T07:33:53.000Z</time>
      </trkpt>
      <trkpt lat="47.44027" lon="16.06181">
        <ele>575.350554</ele>
        <time>2026-07-08T07:33:54.000Z</time>
      </trkpt>
      <trkpt lat="47.44026" lon="16.06179">
        <ele>575.516651</ele>
        <time>2026-07-08T07:33:55.000Z</time>
      </trkpt>
      <trkpt lat="47.44025" lon="16.06177">
        <ele>575.690529</ele>
        <time>2026-07-08T07:33:56.000Z</time>
      </trkpt>
      <trkpt lat="47.44024" lon="16.06176">
        <ele>575.852473</ele>
        <time>2026-07-08T07:33:57.000Z</time>
      </trkpt>
      <trkpt lat="47.44023" lon="16.06174">
        <ele>576.028187</ele>
        <time>2026-07-08T07:33:58.000Z</time>
      </trkpt>
      <trkpt lat="47.44022" lon="16.06172">
        <ele>576.195562</ele>
        <time>2026-07-08T07:33:59.000Z</time>
      </trkpt>
      <trkpt lat="47.44021" lon="16.0617">
        <ele>576.357507</ele>
        <time>2026-07-08T07:34:00.000Z</time>
      </trkpt>
      <trkpt lat="47.44019" lon="16.06168">
        <ele>576.54338</ele>
        <time>2026-07-08T07:34:01.000Z</time>
      </trkpt>
      <trkpt lat="47.44018" lon="16.06166">
        <ele>576.716295</ele>
        <time>2026-07-08T07:34:02.000Z</time>
      </trkpt>
      <trkpt lat="47.44018" lon="16.06164">
        <ele>576.877837</ele>
        <time>2026-07-08T07:34:03.000Z</time>
      </trkpt>
      <trkpt lat="47.44017" lon="16.06162">
        <ele>577.039379</ele>
        <time>2026-07-08T07:34:04.000Z</time>
      </trkpt>
      <trkpt lat="47.44016" lon="16.0616">
        <ele>577.20841</ele>
        <time>2026-07-08T07:34:05.000Z</time>
      </trkpt>
      <trkpt lat="47.44015" lon="16.06158">
        <ele>577.369952</ele>
        <time>2026-07-08T07:34:06.000Z</time>
      </trkpt>
      <trkpt lat="47.44014" lon="16.06156">
        <ele>577.542793</ele>
        <time>2026-07-08T07:34:07.000Z</time>
      </trkpt>
      <trkpt lat="47.44014" lon="16.06154">
        <ele>577.704335</ele>
        <time>2026-07-08T07:34:08.000Z</time>
      </trkpt>
      <trkpt lat="47.44013" lon="16.06152">
        <ele>577.87799</ele>
        <time>2026-07-08T07:34:09.000Z</time>
      </trkpt>
      <trkpt lat="47.44012" lon="16.06149">
        <ele>578.066103</ele>
        <time>2026-07-08T07:34:10.000Z</time>
      </trkpt>
      <trkpt lat="47.44011" lon="16.06147">
        <ele>578.245912</ele>
        <time>2026-07-08T07:34:11.000Z</time>
      </trkpt>
      <trkpt lat="47.44011" lon="16.06145">
        <ele>578.414942</ele>
        <time>2026-07-08T07:34:12.000Z</time>
      </trkpt>
      <trkpt lat="47.4401" lon="16.06142">
        <ele>578.603055</ele>
        <time>2026-07-08T07:34:13.000Z</time>
      </trkpt>
      <trkpt lat="47.44009" lon="16.0614">
        <ele>578.771015</ele>
        <time>2026-07-08T07:34:14.000Z</time>
      </trkpt>
      <trkpt lat="47.44009" lon="16.06137">
        <ele>578.947537</ele>
        <time>2026-07-08T07:34:15.000Z</time>
      </trkpt>
      <trkpt lat="47.44009" lon="16.06135">
        <ele>579.115654</ele>
        <time>2026-07-08T07:34:16.000Z</time>
      </trkpt>
      <trkpt lat="47.44009" lon="16.06132">
        <ele>579.289766</ele>
        <time>2026-07-08T07:34:17.000Z</time>
      </trkpt>
      <trkpt lat="47.44009" lon="16.0613">
        <ele>579.437205</ele>
        <time>2026-07-08T07:34:18.000Z</time>
      </trkpt>
      <trkpt lat="47.44008" lon="16.06128">
        <ele>579.612224</ele>
        <time>2026-07-08T07:34:19.000Z</time>
      </trkpt>
      <trkpt lat="47.44008" lon="16.06125">
        <ele>579.786336</ele>
        <time>2026-07-08T07:34:20.000Z</time>
      </trkpt>
      <trkpt lat="47.44008" lon="16.06123">
        <ele>579.953508</ele>
        <time>2026-07-08T07:34:21.000Z</time>
      </trkpt>
      <trkpt lat="47.44008" lon="16.06121">
        <ele>580.113411</ele>
        <time>2026-07-08T07:34:22.000Z</time>
      </trkpt>
      <trkpt lat="47.44009" lon="16.06118">
        <ele>580.302246</ele>
        <time>2026-07-08T07:34:23.000Z</time>
      </trkpt>
      <trkpt lat="47.44009" lon="16.06115">
        <ele>580.477266</ele>
        <time>2026-07-08T07:34:24.000Z</time>
      </trkpt>
      <trkpt lat="47.44009" lon="16.06113">
        <ele>580.658318</ele>
        <time>2026-07-08T07:34:25.000Z</time>
      </trkpt>
      <trkpt lat="47.44009" lon="16.0611">
        <ele>580.847153</ele>
        <time>2026-07-08T07:34:26.000Z</time>
      </trkpt>
      <trkpt lat="47.44009" lon="16.06107">
        <ele>581.035988</ele>
        <time>2026-07-08T07:34:27.000Z</time>
      </trkpt>
      <trkpt lat="47.4401" lon="16.06105">
        <ele>581.21936</ele>
        <time>2026-07-08T07:34:28.000Z</time>
      </trkpt>
      <trkpt lat="47.4401" lon="16.06102">
        <ele>581.413981</ele>
        <time>2026-07-08T07:34:29.000Z</time>
      </trkpt>
      <trkpt lat="47.44011" lon="16.061">
        <ele>581.595229</ele>
        <time>2026-07-08T07:34:30.000Z</time>
      </trkpt>
      <trkpt lat="47.44011" lon="16.06097">
        <ele>581.770575</ele>
        <time>2026-07-08T07:34:31.000Z</time>
      </trkpt>
      <trkpt lat="47.44012" lon="16.06095">
        <ele>581.956593</ele>
        <time>2026-07-08T07:34:32.000Z</time>
      </trkpt>
      <trkpt lat="47.44013" lon="16.06093">
        <ele>582.136402</ele>
        <time>2026-07-08T07:34:33.000Z</time>
      </trkpt>
      <trkpt lat="47.44014" lon="16.0609">
        <ele>582.320684</ele>
        <time>2026-07-08T07:34:34.000Z</time>
      </trkpt>
      <trkpt lat="47.44015" lon="16.06088">
        <ele>582.499237</ele>
        <time>2026-07-08T07:34:35.000Z</time>
      </trkpt>
      <trkpt lat="47.44016" lon="16.06087">
        <ele>582.670069</ele>
        <time>2026-07-08T07:34:36.000Z</time>
      </trkpt>
      <trkpt lat="47.44017" lon="16.06085">
        <ele>582.832014</ele>
        <time>2026-07-08T07:34:37.000Z</time>
      </trkpt>
      <trkpt lat="47.44018" lon="16.06083">
        <ele>583.002846</ele>
        <time>2026-07-08T07:34:38.000Z</time>
      </trkpt>
      <trkpt lat="47.44019" lon="16.06081">
        <ele>583.171502</ele>
        <time>2026-07-08T07:34:39.000Z</time>
      </trkpt>
      <trkpt lat="47.44021" lon="16.0608">
        <ele>583.349222</ele>
        <time>2026-07-08T07:34:40.000Z</time>
      </trkpt>
      <trkpt lat="47.44022" lon="16.06078">
        <ele>583.50304</ele>
        <time>2026-07-08T07:34:41.000Z</time>
      </trkpt>
      <trkpt lat="47.44023" lon="16.06076">
        <ele>583.670415</ele>
        <time>2026-07-08T07:34:42.000Z</time>
      </trkpt>
      <trkpt lat="47.44024" lon="16.06075">
        <ele>583.836513</ele>
        <time>2026-07-08T07:34:43.000Z</time>
      </trkpt>
      <trkpt lat="47.44025" lon="16.06073">
        <ele>584.007344</ele>
        <time>2026-07-08T07:34:44.000Z</time>
      </trkpt>
      <trkpt lat="47.44026" lon="16.06071">
        <ele>584.170908</ele>
        <time>2026-07-08T07:34:45.000Z</time>
      </trkpt>
      <trkpt lat="47.44028" lon="16.0607">
        <ele>584.337006</ele>
        <time>2026-07-08T07:34:46.000Z</time>
      </trkpt>
      <trkpt lat="47.44029" lon="16.06068">
        <ele>584.506509</ele>
        <time>2026-07-08T07:34:47.000Z</time>
      </trkpt>
      <trkpt lat="47.4403" lon="16.06067">
        <ele>584.67285</ele>
        <time>2026-07-08T07:34:48.000Z</time>
      </trkpt>
      <trkpt lat="47.44032" lon="16.06066">
        <ele>584.834171</ele>
        <time>2026-07-08T07:34:49.000Z</time>
      </trkpt>
      <trkpt lat="47.44033" lon="16.06064">
        <ele>584.999489</ele>
        <time>2026-07-08T07:34:50.000Z</time>
      </trkpt>
      <trkpt lat="47.44034" lon="16.06063">
        <ele>585.169422</ele>
        <time>2026-07-08T07:34:51.000Z</time>
      </trkpt>
      <trkpt lat="47.44035" lon="16.06062">
        <ele>585.29543</ele>
        <time>2026-07-08T07:34:52.000Z</time>
      </trkpt>
      <trkpt lat="47.44037" lon="16.06062">
        <ele>585.447343</ele>
        <time>2026-07-08T07:34:53.000Z</time>
      </trkpt>
      <trkpt lat="47.44038" lon="16.06061">
        <ele>585.580076</ele>
        <time>2026-07-08T07:34:54.000Z</time>
      </trkpt>
      <trkpt lat="47.44039" lon="16.06059">
        <ele>585.746416</ele>
        <time>2026-07-08T07:34:55.000Z</time>
      </trkpt>
      <trkpt lat="47.44041" lon="16.06058">
        <ele>585.900379</ele>
        <time>2026-07-08T07:34:56.000Z</time>
      </trkpt>
      <trkpt lat="47.44042" lon="16.06057">
        <ele>586.03869</ele>
        <time>2026-07-08T07:34:57.000Z</time>
      </trkpt>
      <trkpt lat="47.44043" lon="16.06056">
        <ele>586.192653</ele>
        <time>2026-07-08T07:34:58.000Z</time>
      </trkpt>
      <trkpt lat="47.44044" lon="16.06055">
        <ele>586.330963</ele>
        <time>2026-07-08T07:34:59.000Z</time>
      </trkpt>
      <trkpt lat="47.44046" lon="16.06055">
        <ele>586.475703</ele>
        <time>2026-07-08T07:35:00.000Z</time>
      </trkpt>
      <trkpt lat="47.44047" lon="16.06054">
        <ele>586.617916</ele>
        <time>2026-07-08T07:35:01.000Z</time>
      </trkpt>
      <trkpt lat="47.44048" lon="16.06053">
        <ele>586.748127</ele>
        <time>2026-07-08T07:35:02.000Z</time>
      </trkpt>
      <trkpt lat="47.4405" lon="16.06052">
        <ele>586.914524</ele>
        <time>2026-07-08T07:35:03.000Z</time>
      </trkpt>
      <trkpt lat="47.44051" lon="16.06052">
        <ele>587.052598</ele>
        <time>2026-07-08T07:35:04.000Z</time>
      </trkpt>
      <trkpt lat="47.44052" lon="16.06052">
        <ele>587.198008</ele>
        <time>2026-07-08T07:35:05.000Z</time>
      </trkpt>
      <trkpt lat="47.44054" lon="16.06051">
        <ele>587.340221</ele>
        <time>2026-07-08T07:35:06.000Z</time>
      </trkpt>
      <trkpt lat="47.44055" lon="16.06051">
        <ele>587.495811</ele>
        <time>2026-07-08T07:35:07.000Z</time>
      </trkpt>
      <trkpt lat="47.44057" lon="16.0605">
        <ele>587.671794</ele>
        <time>2026-07-08T07:35:08.000Z</time>
      </trkpt>
      <trkpt lat="47.44058" lon="16.0605">
        <ele>587.829849</ele>
        <time>2026-07-08T07:35:09.000Z</time>
      </trkpt>
      <trkpt lat="47.4406" lon="16.06049">
        <ele>587.986522</ele>
        <time>2026-07-08T07:35:10.000Z</time>
      </trkpt>
      <trkpt lat="47.44061" lon="16.06049">
        <ele>588.12033</ele>
        <time>2026-07-08T07:35:11.000Z</time>
      </trkpt>
      <trkpt lat="47.44062" lon="16.06049">
        <ele>588.253957</ele>
        <time>2026-07-08T07:35:12.000Z</time>
      </trkpt>
      <trkpt lat="47.44064" lon="16.06049">
        <ele>588.41063</ele>
        <time>2026-07-08T07:35:13.000Z</time>
      </trkpt>
      <trkpt lat="47.44065" lon="16.06049">
        <ele>588.566219</ele>
        <time>2026-07-08T07:35:14.000Z</time>
      </trkpt>
      <trkpt lat="47.44067" lon="16.06048">
        <ele>588.72103</ele>
        <time>2026-07-08T07:35:15.000Z</time>
      </trkpt>
      <trkpt lat="47.44068" lon="16.06048">
        <ele>588.875372</ele>
        <time>2026-07-08T07:35:16.000Z</time>
      </trkpt>
      <trkpt lat="47.4407" lon="16.06048">
        <ele>589.030183</ele>
        <time>2026-07-08T07:35:17.000Z</time>
      </trkpt>
      <trkpt lat="47.44071" lon="16.06048">
        <ele>589.175592</ele>
        <time>2026-07-08T07:35:18.000Z</time>
      </trkpt>
      <trkpt lat="47.44072" lon="16.06047">
        <ele>589.292031</ele>
        <time>2026-07-08T07:35:19.000Z</time>
      </trkpt>
      <trkpt lat="47.44074" lon="16.06047">
        <ele>589.437441</ele>
        <time>2026-07-08T07:35:20.000Z</time>
      </trkpt>
      <trkpt lat="47.44075" lon="16.06047">
        <ele>589.59303</ele>
        <time>2026-07-08T07:35:21.000Z</time>
      </trkpt>
      <trkpt lat="47.44077" lon="16.06046">
        <ele>589.749703</ele>
        <time>2026-07-08T07:35:22.000Z</time>
      </trkpt>
      <trkpt lat="47.44078" lon="16.06046">
        <ele>589.884948</ele>
        <time>2026-07-08T07:35:23.000Z</time>
      </trkpt>
      <trkpt lat="47.4408" lon="16.06046">
        <ele>590.043003</ele>
        <time>2026-07-08T07:35:24.000Z</time>
      </trkpt>
      <trkpt lat="47.44081" lon="16.06046">
        <ele>590.217746</ele>
        <time>2026-07-08T07:35:25.000Z</time>
      </trkpt>
      <trkpt lat="47.44083" lon="16.06045">
        <ele>590.372557</ele>
        <time>2026-07-08T07:35:26.000Z</time>
      </trkpt>
      <trkpt lat="47.44084" lon="16.06045">
        <ele>590.528146</ele>
        <time>2026-07-08T07:35:27.000Z</time>
      </trkpt>
      <trkpt lat="47.44086" lon="16.06045">
        <ele>590.686201</ele>
        <time>2026-07-08T07:35:28.000Z</time>
      </trkpt>
      <trkpt lat="47.44087" lon="16.06044">
        <ele>590.851983</ele>
        <time>2026-07-08T07:35:29.000Z</time>
      </trkpt>
      <trkpt lat="47.44089" lon="16.06044">
        <ele>591.027278</ele>
        <time>2026-07-08T07:35:30.000Z</time>
      </trkpt>
      <trkpt lat="47.44091" lon="16.06044">
        <ele>591.203262</ele>
        <time>2026-07-08T07:35:31.000Z</time>
      </trkpt>
      <trkpt lat="47.44092" lon="16.06044">
        <ele>591.368313</ele>
        <time>2026-07-08T07:35:32.000Z</time>
      </trkpt>
      <trkpt lat="47.44094" lon="16.06043">
        <ele>591.523123</ele>
        <time>2026-07-08T07:35:33.000Z</time>
      </trkpt>
      <trkpt lat="47.44096" lon="16.06044">
        <ele>591.698419</ele>
        <time>2026-07-08T07:35:34.000Z</time>
      </trkpt>
      <trkpt lat="47.44097" lon="16.06044">
        <ele>591.854008</ele>
        <time>2026-07-08T07:35:35.000Z</time>
      </trkpt>
      <trkpt lat="47.44099" lon="16.06044">
        <ele>592.008819</ele>
        <time>2026-07-08T07:35:36.000Z</time>
      </trkpt>
      <trkpt lat="47.441" lon="16.06044">
        <ele>592.184115</ele>
        <time>2026-07-08T07:35:37.000Z</time>
      </trkpt>
      <trkpt lat="47.44102" lon="16.06044">
        <ele>592.345439</ele>
        <time>2026-07-08T07:35:38.000Z</time>
      </trkpt>
      <trkpt lat="47.44104" lon="16.06044">
        <ele>592.524951</ele>
        <time>2026-07-08T07:35:39.000Z</time>
      </trkpt>
      <trkpt lat="47.44105" lon="16.06044">
        <ele>592.676562</ele>
        <time>2026-07-08T07:35:40.000Z</time>
      </trkpt>
      <trkpt lat="47.44107" lon="16.06043">
        <ele>592.843184</ele>
        <time>2026-07-08T07:35:41.000Z</time>
      </trkpt>
      <trkpt lat="47.44109" lon="16.06042">
        <ele>593.017406</ele>
        <time>2026-07-08T07:35:42.000Z</time>
      </trkpt>
      <trkpt lat="47.44111" lon="16.06042">
        <ele>593.198614</ele>
        <time>2026-07-08T07:35:43.000Z</time>
      </trkpt>
      <trkpt lat="47.44112" lon="16.06042">
        <ele>593.350896</ele>
        <time>2026-07-08T07:35:44.000Z</time>
      </trkpt>
      <trkpt lat="47.44114" lon="16.06041">
        <ele>593.511917</ele>
        <time>2026-07-08T07:35:45.000Z</time>
      </trkpt>
      <trkpt lat="47.44116" lon="16.06041">
        <ele>593.672558</ele>
        <time>2026-07-08T07:35:46.000Z</time>
      </trkpt>
      <trkpt lat="47.44117" lon="16.06041">
        <ele>593.82417</ele>
        <time>2026-07-08T07:35:47.000Z</time>
      </trkpt>
      <trkpt lat="47.44119" lon="16.06041">
        <ele>594.004588</ele>
        <time>2026-07-08T07:35:48.000Z</time>
      </trkpt>
      <trkpt lat="47.44121" lon="16.0604">
        <ele>594.158997</ele>
        <time>2026-07-08T07:35:49.000Z</time>
      </trkpt>
      <trkpt lat="47.44123" lon="16.0604">
        <ele>594.322657</ele>
        <time>2026-07-08T07:35:50.000Z</time>
      </trkpt>
      <trkpt lat="47.44124" lon="16.06039">
        <ele>594.489279</ele>
        <time>2026-07-08T07:35:51.000Z</time>
      </trkpt>
      <trkpt lat="47.44126" lon="16.06039">
        <ele>594.643689</ele>
        <time>2026-07-08T07:35:52.000Z</time>
      </trkpt>
      <trkpt lat="47.44128" lon="16.06038">
        <ele>594.810311</ele>
        <time>2026-07-08T07:35:53.000Z</time>
      </trkpt>
      <trkpt lat="47.44129" lon="16.06037">
        <ele>594.97876</ele>
        <time>2026-07-08T07:35:54.000Z</time>
      </trkpt>
      <trkpt lat="47.44131" lon="16.06036">
        <ele>595.160318</ele>
        <time>2026-07-08T07:35:55.000Z</time>
      </trkpt>
      <trkpt lat="47.44133" lon="16.06036">
        <ele>595.305502</ele>
        <time>2026-07-08T07:35:56.000Z</time>
      </trkpt>
      <trkpt lat="47.44134" lon="16.06035">
        <ele>595.436135</ele>
        <time>2026-07-08T07:35:57.000Z</time>
      </trkpt>
      <trkpt lat="47.44136" lon="16.06034">
        <ele>595.601159</ele>
        <time>2026-07-08T07:35:58.000Z</time>
      </trkpt>
      <trkpt lat="47.44137" lon="16.06033">
        <ele>595.77391</ele>
        <time>2026-07-08T07:35:59.000Z</time>
      </trkpt>
      <trkpt lat="47.44139" lon="16.06032">
        <ele>595.937925</ele>
        <time>2026-07-08T07:36:00.000Z</time>
      </trkpt>
      <trkpt lat="47.44141" lon="16.06031">
        <ele>596.115794</ele>
        <time>2026-07-08T07:36:01.000Z</time>
      </trkpt>
      <trkpt lat="47.44142" lon="16.0603">
        <ele>596.302718</ele>
        <time>2026-07-08T07:36:02.000Z</time>
      </trkpt>
      <trkpt lat="47.44144" lon="16.06028">
        <ele>596.488752</ele>
        <time>2026-07-08T07:36:03.000Z</time>
      </trkpt>
      <trkpt lat="47.44146" lon="16.06026">
        <ele>596.679028</ele>
        <time>2026-07-08T07:36:04.000Z</time>
      </trkpt>
      <trkpt lat="47.44147" lon="16.06024">
        <ele>596.865525</ele>
        <time>2026-07-08T07:36:05.000Z</time>
      </trkpt>
      <trkpt lat="47.44148" lon="16.06022">
        <ele>597.042667</ele>
        <time>2026-07-08T07:36:06.000Z</time>
      </trkpt>
      <trkpt lat="47.4415" lon="16.06021">
        <ele>597.217844</ele>
        <time>2026-07-08T07:36:07.000Z</time>
      </trkpt>
      <trkpt lat="47.44151" lon="16.06018">
        <ele>597.392559</ele>
        <time>2026-07-08T07:36:08.000Z</time>
      </trkpt>
      <trkpt lat="47.44152" lon="16.06016">
        <ele>597.563294</ele>
        <time>2026-07-08T07:36:09.000Z</time>
      </trkpt>
      <trkpt lat="47.44153" lon="16.06014">
        <ele>597.738857</ele>
        <time>2026-07-08T07:36:10.000Z</time>
      </trkpt>
      <trkpt lat="47.44154" lon="16.06012">
        <ele>597.909725</ele>
        <time>2026-07-08T07:36:11.000Z</time>
      </trkpt>
      <trkpt lat="47.44155" lon="16.0601">
        <ele>598.084335</ele>
        <time>2026-07-08T07:36:12.000Z</time>
      </trkpt>
      <trkpt lat="47.44156" lon="16.06007">
        <ele>598.257126</ele>
        <time>2026-07-08T07:36:13.000Z</time>
      </trkpt>
      <trkpt lat="47.44156" lon="16.06005">
        <ele>598.42361</ele>
        <time>2026-07-08T07:36:14.000Z</time>
      </trkpt>
      <trkpt lat="47.44157" lon="16.06002">
        <ele>598.590095</ele>
        <time>2026-07-08T07:36:15.000Z</time>
      </trkpt>
      <trkpt lat="47.44157" lon="16.06">
        <ele>598.756579</ele>
        <time>2026-07-08T07:36:16.000Z</time>
      </trkpt>
      <trkpt lat="47.44158" lon="16.05997">
        <ele>598.914005</ele>
        <time>2026-07-08T07:36:17.000Z</time>
      </trkpt>
      <trkpt lat="47.44159" lon="16.05995">
        <ele>599.098661</ele>
        <time>2026-07-08T07:36:18.000Z</time>
      </trkpt>
      <trkpt lat="47.44159" lon="16.05992">
        <ele>599.283318</ele>
        <time>2026-07-08T07:36:19.000Z</time>
      </trkpt>
      <trkpt lat="47.4416" lon="16.05989">
        <ele>599.468253</ele>
        <time>2026-07-08T07:36:20.000Z</time>
      </trkpt>
      <trkpt lat="47.4416" lon="16.05986">
        <ele>599.642987</ele>
        <time>2026-07-08T07:36:21.000Z</time>
      </trkpt>
      <trkpt lat="47.4416" lon="16.05984">
        <ele>599.82279</ele>
        <time>2026-07-08T07:36:22.000Z</time>
      </trkpt>
      <trkpt lat="47.44161" lon="16.05981">
        <ele>599.997524</ele>
        <time>2026-07-08T07:36:23.000Z</time>
      </trkpt>
      <trkpt lat="47.44161" lon="16.05978">
        <ele>600.165959</ele>
        <time>2026-07-08T07:36:24.000Z</time>
      </trkpt>
      <trkpt lat="47.44161" lon="16.05976">
        <ele>600.339413</ele>
        <time>2026-07-08T07:36:25.000Z</time>
      </trkpt>
      <trkpt lat="47.44161" lon="16.05973">
        <ele>600.512867</ele>
        <time>2026-07-08T07:36:26.000Z</time>
      </trkpt>
      <trkpt lat="47.44161" lon="16.0597">
        <ele>600.672517</ele>
        <time>2026-07-08T07:36:27.000Z</time>
      </trkpt>
      <trkpt lat="47.44161" lon="16.05968">
        <ele>600.838554</ele>
        <time>2026-07-08T07:36:28.000Z</time>
      </trkpt>
      <trkpt lat="47.44161" lon="16.05965">
        <ele>600.998204</ele>
        <time>2026-07-08T07:36:29.000Z</time>
      </trkpt>
      <trkpt lat="47.44161" lon="16.05963">
        <ele>601.170627</ele>
        <time>2026-07-08T07:36:30.000Z</time>
      </trkpt>
      <trkpt lat="47.44161" lon="16.0596">
        <ele>601.343049</ele>
        <time>2026-07-08T07:36:31.000Z</time>
      </trkpt>
      <trkpt lat="47.44161" lon="16.05957">
        <ele>601.510156</ele>
        <time>2026-07-08T07:36:32.000Z</time>
      </trkpt>
      <trkpt lat="47.44161" lon="16.05955">
        <ele>601.669806</ele>
        <time>2026-07-08T07:36:33.000Z</time>
      </trkpt>
      <trkpt lat="47.44161" lon="16.05952">
        <ele>601.82423</ele>
        <time>2026-07-08T07:36:34.000Z</time>
      </trkpt>
      <trkpt lat="47.44161" lon="16.0595">
        <ele>601.98388</ele>
        <time>2026-07-08T07:36:35.000Z</time>
      </trkpt>
      <trkpt lat="47.44161" lon="16.05948">
        <ele>602.130759</ele>
        <time>2026-07-08T07:36:36.000Z</time>
      </trkpt>
      <trkpt lat="47.44161" lon="16.05945">
        <ele>602.277637</ele>
        <time>2026-07-08T07:36:37.000Z</time>
      </trkpt>
      <trkpt lat="47.44161" lon="16.05943">
        <ele>602.430902</ele>
        <time>2026-07-08T07:36:38.000Z</time>
      </trkpt>
      <trkpt lat="47.44161" lon="16.0594">
        <ele>602.590552</ele>
        <time>2026-07-08T07:36:39.000Z</time>
      </trkpt>
      <trkpt lat="47.44161" lon="16.05938">
        <ele>602.724991</ele>
        <time>2026-07-08T07:36:40.000Z</time>
      </trkpt>
      <trkpt lat="47.44161" lon="16.05936">
        <ele>602.879414</ele>
        <time>2026-07-08T07:36:41.000Z</time>
      </trkpt>
      <trkpt lat="47.4416" lon="16.05934">
        <ele>603.028999</ele>
        <time>2026-07-08T07:36:42.000Z</time>
      </trkpt>
      <trkpt lat="47.4416" lon="16.05931">
        <ele>603.177087</ele>
        <time>2026-07-08T07:36:43.000Z</time>
      </trkpt>
      <trkpt lat="47.4416" lon="16.05929">
        <ele>603.332947</ele>
        <time>2026-07-08T07:36:44.000Z</time>
      </trkpt>
      <trkpt lat="47.4416" lon="16.05927">
        <ele>603.468376</ele>
        <time>2026-07-08T07:36:45.000Z</time>
      </trkpt>
      <trkpt lat="47.44159" lon="16.05924">
        <ele>603.6228</ele>
        <time>2026-07-08T07:36:46.000Z</time>
      </trkpt>
      <trkpt lat="47.44159" lon="16.05922">
        <ele>603.757238</ele>
        <time>2026-07-08T07:36:47.000Z</time>
      </trkpt>
      <trkpt lat="47.44159" lon="16.0592">
        <ele>603.902719</ele>
        <time>2026-07-08T07:36:48.000Z</time>
      </trkpt>
      <trkpt lat="47.44159" lon="16.05918">
        <ele>604.0499</ele>
        <time>2026-07-08T07:36:49.000Z</time>
      </trkpt>
      <trkpt lat="47.44159" lon="16.05915">
        <ele>604.204324</ele>
        <time>2026-07-08T07:36:50.000Z</time>
      </trkpt>
      <trkpt lat="47.44158" lon="16.05913">
        <ele>604.346497</ele>
        <time>2026-07-08T07:36:51.000Z</time>
      </trkpt>
      <trkpt lat="47.44157" lon="16.05911">
        <ele>604.50176</ele>
        <time>2026-07-08T07:36:52.000Z</time>
      </trkpt>
      <trkpt lat="47.44157" lon="16.05909">
        <ele>604.659186</ele>
        <time>2026-07-08T07:36:53.000Z</time>
      </trkpt>
      <trkpt lat="47.44156" lon="16.05906">
        <ele>604.831977</ele>
        <time>2026-07-08T07:36:54.000Z</time>
      </trkpt>
      <trkpt lat="47.44156" lon="16.05904">
        <ele>604.998461</ele>
        <time>2026-07-08T07:36:55.000Z</time>
      </trkpt>
      <trkpt lat="47.44155" lon="16.05901">
        <ele>605.16537</ele>
        <time>2026-07-08T07:36:56.000Z</time>
      </trkpt>
      <trkpt lat="47.44154" lon="16.05899">
        <ele>605.334774</ele>
        <time>2026-07-08T07:36:57.000Z</time>
      </trkpt>
      <trkpt lat="47.44153" lon="16.05897">
        <ele>605.504464</ele>
        <time>2026-07-08T07:36:58.000Z</time>
      </trkpt>
      <trkpt lat="47.44153" lon="16.05894">
        <ele>605.658743</ele>
        <time>2026-07-08T07:36:59.000Z</time>
      </trkpt>
      <trkpt lat="47.44152" lon="16.05892">
        <ele>605.822143</ele>
        <time>2026-07-08T07:37:00.000Z</time>
      </trkpt>
      <trkpt lat="47.44152" lon="16.05889">
        <ele>605.994934</ele>
        <time>2026-07-08T07:37:01.000Z</time>
      </trkpt>
      <trkpt lat="47.44151" lon="16.05887">
        <ele>606.171553</ele>
        <time>2026-07-08T07:37:02.000Z</time>
      </trkpt>
      <trkpt lat="47.4415" lon="16.05885">
        <ele>606.332617</ele>
        <time>2026-07-08T07:37:03.000Z</time>
      </trkpt>
      <trkpt lat="47.4415" lon="16.05882">
        <ele>606.48083</ele>
        <time>2026-07-08T07:37:04.000Z</time>
      </trkpt>
      <trkpt lat="47.44149" lon="16.0588">
        <ele>606.641895</ele>
        <time>2026-07-08T07:37:05.000Z</time>
      </trkpt>
      <trkpt lat="47.44148" lon="16.05877">
        <ele>606.823386</ele>
        <time>2026-07-08T07:37:06.000Z</time>
      </trkpt>
      <trkpt lat="47.44148" lon="16.05875">
        <ele>606.996177</ele>
        <time>2026-07-08T07:37:07.000Z</time>
      </trkpt>
      <trkpt lat="47.44147" lon="16.05873">
        <ele>607.150094</ele>
        <time>2026-07-08T07:37:08.000Z</time>
      </trkpt>
      <trkpt lat="47.44146" lon="16.0587">
        <ele>607.328863</ele>
        <time>2026-07-08T07:37:09.000Z</time>
      </trkpt>
      <trkpt lat="47.44146" lon="16.05868">
        <ele>607.489928</ele>
        <time>2026-07-08T07:37:10.000Z</time>
      </trkpt>
      <trkpt lat="47.44145" lon="16.05865">
        <ele>607.656413</ele>
        <time>2026-07-08T07:37:11.000Z</time>
      </trkpt>
      <trkpt lat="47.44145" lon="16.05863">
        <ele>607.818557</ele>
        <time>2026-07-08T07:37:12.000Z</time>
      </trkpt>
      <trkpt lat="47.44144" lon="16.0586">
        <ele>607.985042</ele>
        <time>2026-07-08T07:37:13.000Z</time>
      </trkpt>
      <trkpt lat="47.44144" lon="16.05857">
        <ele>608.181678</ele>
        <time>2026-07-08T07:37:14.000Z</time>
      </trkpt>
      <trkpt lat="47.44143" lon="16.05854">
        <ele>608.380544</ele>
        <time>2026-07-08T07:37:15.000Z</time>
      </trkpt>
      <trkpt lat="47.44143" lon="16.05851">
        <ele>608.599509</ele>
        <time>2026-07-08T07:37:16.000Z</time>
      </trkpt>
      <trkpt lat="47.44143" lon="16.05848">
        <ele>608.799493</ele>
        <time>2026-07-08T07:37:17.000Z</time>
      </trkpt>
      <trkpt lat="47.44143" lon="16.05844">
        <ele>609.023801</ele>
        <time>2026-07-08T07:37:18.000Z</time>
      </trkpt>
      <trkpt lat="47.44143" lon="16.05841">
        <ele>609.261776</ele>
        <time>2026-07-08T07:37:19.000Z</time>
      </trkpt>
      <trkpt lat="47.44143" lon="16.05837">
        <ele>609.387001</ele>
        <time>2026-07-08T07:37:20.000Z</time>
      </trkpt>
      <trkpt lat="47.44144" lon="16.05834">
        <ele>609.494402</ele>
        <time>2026-07-08T07:37:21.000Z</time>
      </trkpt>
      <trkpt lat="47.44146" lon="16.05831">
        <ele>609.608071</ele>
        <time>2026-07-08T07:37:22.000Z</time>
      </trkpt>
      <trkpt lat="47.44147" lon="16.05828">
        <ele>609.709067</ele>
        <time>2026-07-08T07:37:23.000Z</time>
      </trkpt>
      <trkpt lat="47.44148" lon="16.05825">
        <ele>609.810046</ele>
        <time>2026-07-08T07:37:24.000Z</time>
      </trkpt>
      <trkpt lat="47.4415" lon="16.05823">
        <ele>609.907913</ele>
        <time>2026-07-08T07:37:25.000Z</time>
      </trkpt>
      <trkpt lat="47.44152" lon="16.05822">
        <ele>610.002107</ele>
        <time>2026-07-08T07:37:26.000Z</time>
      </trkpt>
      <trkpt lat="47.44154" lon="16.0582">
        <ele>610.099998</ele>
        <time>2026-07-08T07:37:27.000Z</time>
      </trkpt>
      <trkpt lat="47.44155" lon="16.05818">
        <ele>610.199628</ele>
        <time>2026-07-08T07:37:28.000Z</time>
      </trkpt>
      <trkpt lat="47.44158" lon="16.05817">
        <ele>610.306355</ele>
        <time>2026-07-08T07:37:29.000Z</time>
      </trkpt>
      <trkpt lat="47.4416" lon="16.05815">
        <ele>610.40738</ele>
        <time>2026-07-08T07:37:30.000Z</time>
      </trkpt>
      <trkpt lat="47.44161" lon="16.05814">
        <ele>610.500459</ele>
        <time>2026-07-08T07:37:31.000Z</time>
      </trkpt>
      <trkpt lat="47.44164" lon="16.05812">
        <ele>610.609595</ele>
        <time>2026-07-08T07:37:32.000Z</time>
      </trkpt>
      <trkpt lat="47.44166" lon="16.05811">
        <ele>610.710619</ele>
        <time>2026-07-08T07:37:33.000Z</time>
      </trkpt>
      <trkpt lat="47.44167" lon="16.05809">
        <ele>610.80851</ele>
        <time>2026-07-08T07:37:34.000Z</time>
      </trkpt>
      <trkpt lat="47.44169" lon="16.05807">
        <ele>610.917278</ele>
        <time>2026-07-08T07:37:35.000Z</time>
      </trkpt>
      <trkpt lat="47.44171" lon="16.05805">
        <ele>611.022345</ele>
        <time>2026-07-08T07:37:36.000Z</time>
      </trkpt>
      <trkpt lat="47.44173" lon="16.05803">
        <ele>611.117523</ele>
        <time>2026-07-08T07:37:37.000Z</time>
      </trkpt>
      <trkpt lat="47.44174" lon="16.058">
        <ele>611.219345</ele>
        <time>2026-07-08T07:37:38.000Z</time>
      </trkpt>
      <trkpt lat="47.44176" lon="16.05797">
        <ele>611.322822</ele>
        <time>2026-07-08T07:37:39.000Z</time>
      </trkpt>
      <trkpt lat="47.44177" lon="16.05794">
        <ele>611.429014</ele>
        <time>2026-07-08T07:37:40.000Z</time>
      </trkpt>
      <trkpt lat="47.44178" lon="16.05791">
        <ele>611.532958</ele>
        <time>2026-07-08T07:37:41.000Z</time>
      </trkpt>
      <trkpt lat="47.44178" lon="16.05788">
        <ele>611.641948</ele>
        <time>2026-07-08T07:37:42.000Z</time>
      </trkpt>
      <trkpt lat="47.44179" lon="16.05784">
        <ele>611.750938</ele>
        <time>2026-07-08T07:37:43.000Z</time>
      </trkpt>
      <trkpt lat="47.44179" lon="16.0578">
        <ele>611.863669</ele>
        <time>2026-07-08T07:37:44.000Z</time>
      </trkpt>
      <trkpt lat="47.44178" lon="16.05777">
        <ele>611.973722</ele>
        <time>2026-07-08T07:37:45.000Z</time>
      </trkpt>
      <trkpt lat="47.44178" lon="16.05773">
        <ele>612.094662</ele>
        <time>2026-07-08T07:37:46.000Z</time>
      </trkpt>
      <trkpt lat="47.44177" lon="16.05769">
        <ele>612.218597</ele>
        <time>2026-07-08T07:37:47.000Z</time>
      </trkpt>
      <trkpt lat="47.44177" lon="16.05765">
        <ele>612.342532</ele>
        <time>2026-07-08T07:37:48.000Z</time>
      </trkpt>
      <trkpt lat="47.44176" lon="16.05761">
        <ele>612.460481</ele>
        <time>2026-07-08T07:37:49.000Z</time>
      </trkpt>
      <trkpt lat="47.44176" lon="16.05757">
        <ele>612.57544</ele>
        <time>2026-07-08T07:37:50.000Z</time>
      </trkpt>
      <trkpt lat="47.44175" lon="16.05754">
        <ele>612.69433</ele>
        <time>2026-07-08T07:37:51.000Z</time>
      </trkpt>
      <trkpt lat="47.44175" lon="16.0575">
        <ele>612.811388</ele>
        <time>2026-07-08T07:37:52.000Z</time>
      </trkpt>
      <trkpt lat="47.44174" lon="16.05746">
        <ele>612.929337</ele>
        <time>2026-07-08T07:37:53.000Z</time>
      </trkpt>
      <trkpt lat="47.44174" lon="16.05742">
        <ele>613.047285</ele>
        <time>2026-07-08T07:37:54.000Z</time>
      </trkpt>
      <trkpt lat="47.44173" lon="16.05738">
        <ele>613.168225</ele>
        <time>2026-07-08T07:37:55.000Z</time>
      </trkpt>
      <trkpt lat="47.44173" lon="16.05735">
        <ele>613.280198</ele>
        <time>2026-07-08T07:37:56.000Z</time>
      </trkpt>
      <trkpt lat="47.44172" lon="16.05731">
        <ele>613.395157</ele>
        <time>2026-07-08T07:37:57.000Z</time>
      </trkpt>
      <trkpt lat="47.44171" lon="16.05727">
        <ele>613.512215</ele>
        <time>2026-07-08T07:37:58.000Z</time>
      </trkpt>
      <trkpt lat="47.44171" lon="16.05724">
        <ele>613.627668</ele>
        <time>2026-07-08T07:37:59.000Z</time>
      </trkpt>
      <trkpt lat="47.4417" lon="16.0572">
        <ele>613.751837</ele>
        <time>2026-07-08T07:38:00.000Z</time>
      </trkpt>
      <trkpt lat="47.44169" lon="16.05716">
        <ele>613.881768</ele>
        <time>2026-07-08T07:38:01.000Z</time>
      </trkpt>
      <trkpt lat="47.44168" lon="16.05712">
        <ele>614.004439</ele>
        <time>2026-07-08T07:38:02.000Z</time>
      </trkpt>
      <trkpt lat="47.44167" lon="16.05708">
        <ele>614.12279</ele>
        <time>2026-07-08T07:38:03.000Z</time>
      </trkpt>
      <trkpt lat="47.44166" lon="16.05705">
        <ele>614.238243</ele>
        <time>2026-07-08T07:38:04.000Z</time>
      </trkpt>
      <trkpt lat="47.44166" lon="16.05701">
        <ele>614.349445</ele>
        <time>2026-07-08T07:38:05.000Z</time>
      </trkpt>
      <trkpt lat="47.44165" lon="16.05698">
        <ele>614.462984</ele>
        <time>2026-07-08T07:38:06.000Z</time>
      </trkpt>
      <trkpt lat="47.44165" lon="16.05694">
        <ele>614.579111</ele>
        <time>2026-07-08T07:38:07.000Z</time>
      </trkpt>
      <trkpt lat="47.44165" lon="16.0569">
        <ele>614.698702</ele>
        <time>2026-07-08T07:38:08.000Z</time>
      </trkpt>
      <trkpt lat="47.44166" lon="16.05686">
        <ele>614.812787</ele>
        <time>2026-07-08T07:38:09.000Z</time>
      </trkpt>
      <trkpt lat="47.44167" lon="16.05683">
        <ele>614.913879</ele>
        <time>2026-07-08T07:38:10.000Z</time>
      </trkpt>
      <trkpt lat="47.44168" lon="16.05681">
        <ele>614.99999</ele>
        <time>2026-07-08T07:38:11.000Z</time>
      </trkpt>
      <trkpt lat="47.4417" lon="16.05679">
        <ele>615.095168</ele>
        <time>2026-07-08T07:38:12.000Z</time>
      </trkpt>
      <trkpt lat="47.44172" lon="16.05677">
        <ele>615.198458</ele>
        <time>2026-07-08T07:38:13.000Z</time>
      </trkpt>
      <trkpt lat="47.44173" lon="16.05674">
        <ele>615.307646</ele>
        <time>2026-07-08T07:38:14.000Z</time>
      </trkpt>
      <trkpt lat="47.44175" lon="16.05672">
        <ele>615.414508</ele>
        <time>2026-07-08T07:38:15.000Z</time>
      </trkpt>
      <trkpt lat="47.44177" lon="16.0567">
        <ele>615.521599</ele>
        <time>2026-07-08T07:38:16.000Z</time>
      </trkpt>
      <trkpt lat="47.44179" lon="16.05668">
        <ele>615.635805</ele>
        <time>2026-07-08T07:38:17.000Z</time>
      </trkpt>
      <trkpt lat="47.44182" lon="16.05666">
        <ele>615.752146</ele>
        <time>2026-07-08T07:38:18.000Z</time>
      </trkpt>
      <trkpt lat="47.44184" lon="16.05664">
        <ele>615.868486</ele>
        <time>2026-07-08T07:38:19.000Z</time>
      </trkpt>
      <trkpt lat="47.44186" lon="16.05662">
        <ele>615.981014</ele>
        <time>2026-07-08T07:38:20.000Z</time>
      </trkpt>
      <trkpt lat="47.44188" lon="16.0566">
        <ele>616.088104</ele>
        <time>2026-07-08T07:38:21.000Z</time>
      </trkpt>
      <trkpt lat="47.4419" lon="16.05659">
        <ele>616.193579</ele>
        <time>2026-07-08T07:38:22.000Z</time>
      </trkpt>
      <trkpt lat="47.44192" lon="16.05657">
        <ele>616.313461</ele>
        <time>2026-07-08T07:38:23.000Z</time>
      </trkpt>
      <trkpt lat="47.44195" lon="16.05656">
        <ele>616.434484</ele>
        <time>2026-07-08T07:38:24.000Z</time>
      </trkpt>
      <trkpt lat="47.44197" lon="16.05655">
        <ele>616.553866</ele>
        <time>2026-07-08T07:38:25.000Z</time>
      </trkpt>
      <trkpt lat="47.442" lon="16.05653">
        <ele>616.677826</ele>
        <time>2026-07-08T07:38:26.000Z</time>
      </trkpt>
      <trkpt lat="47.44202" lon="16.05651">
        <ele>616.799365</ele>
        <time>2026-07-08T07:38:27.000Z</time>
      </trkpt>
      <trkpt lat="47.44205" lon="16.0565">
        <ele>616.916743</ele>
        <time>2026-07-08T07:38:28.000Z</time>
      </trkpt>
      <trkpt lat="47.44207" lon="16.05648">
        <ele>617.029985</ele>
        <time>2026-07-08T07:38:29.000Z</time>
      </trkpt>
      <trkpt lat="47.4421" lon="16.05647">
        <ele>617.152703</ele>
        <time>2026-07-08T07:38:30.000Z</time>
      </trkpt>
      <trkpt lat="47.44212" lon="16.05645">
        <ele>617.268539</ele>
        <time>2026-07-08T07:38:31.000Z</time>
      </trkpt>
      <trkpt lat="47.44214" lon="16.05644">
        <ele>617.385916</ele>
        <time>2026-07-08T07:38:32.000Z</time>
      </trkpt>
      <trkpt lat="47.44217" lon="16.05642">
        <ele>617.308149</ele>
        <time>2026-07-08T07:38:33.000Z</time>
      </trkpt>
      <trkpt lat="47.44219" lon="16.0564">
        <ele>617.21275</ele>
        <time>2026-07-08T07:38:34.000Z</time>
      </trkpt>
      <trkpt lat="47.44222" lon="16.05638">
        <ele>617.121207</ele>
        <time>2026-07-08T07:38:35.000Z</time>
      </trkpt>
      <trkpt lat="47.44224" lon="16.05636">
        <ele>617.026801</ele>
        <time>2026-07-08T07:38:36.000Z</time>
      </trkpt>
      <trkpt lat="47.44226" lon="16.05634">
        <ele>616.935258</ele>
        <time>2026-07-08T07:38:37.000Z</time>
      </trkpt>
      <trkpt lat="47.44229" lon="16.05633">
        <ele>616.851144</ele>
        <time>2026-07-08T07:38:38.000Z</time>
      </trkpt>
      <trkpt lat="47.44231" lon="16.05631">
        <ele>616.775227</ele>
        <time>2026-07-08T07:38:39.000Z</time>
      </trkpt>
      <trkpt lat="47.44233" lon="16.0563">
        <ele>616.688984</ele>
        <time>2026-07-08T07:38:40.000Z</time>
      </trkpt>
      <trkpt lat="47.44235" lon="16.05628">
        <ele>616.60487</ele>
        <time>2026-07-08T07:38:41.000Z</time>
      </trkpt>
      <trkpt lat="47.44238" lon="16.05627">
        <ele>616.512307</ele>
        <time>2026-07-08T07:38:42.000Z</time>
      </trkpt>
      <trkpt lat="47.4424" lon="16.05625">
        <ele>616.424089</ele>
        <time>2026-07-08T07:38:43.000Z</time>
      </trkpt>
      <trkpt lat="47.44242" lon="16.05624">
        <ele>616.331526</ele>
        <time>2026-07-08T07:38:44.000Z</time>
      </trkpt>
      <trkpt lat="47.44245" lon="16.05622">
        <ele>616.23712</ele>
        <time>2026-07-08T07:38:45.000Z</time>
      </trkpt>
      <trkpt lat="47.44247" lon="16.0562">
        <ele>616.142604</ele>
        <time>2026-07-08T07:38:46.000Z</time>
      </trkpt>
      <trkpt lat="47.4425" lon="16.05617">
        <ele>616.044668</ele>
        <time>2026-07-08T07:38:47.000Z</time>
      </trkpt>
      <trkpt lat="47.44252" lon="16.05615">
        <ele>615.948043</ele>
        <time>2026-07-08T07:38:48.000Z</time>
      </trkpt>
      <trkpt lat="47.44254" lon="16.05612">
        <ele>615.847861</ele>
        <time>2026-07-08T07:38:49.000Z</time>
      </trkpt>
      <trkpt lat="47.44256" lon="16.05608">
        <ele>615.745524</ele>
        <time>2026-07-08T07:38:50.000Z</time>
      </trkpt>
      <trkpt lat="47.44257" lon="16.05605">
        <ele>615.643432</ele>
        <time>2026-07-08T07:38:51.000Z</time>
      </trkpt>
      <trkpt lat="47.44259" lon="16.056">
        <ele>615.534142</ele>
        <time>2026-07-08T07:38:52.000Z</time>
      </trkpt>
      <trkpt lat="47.4426" lon="16.05596">
        <ele>615.417574</ele>
        <time>2026-07-08T07:38:53.000Z</time>
      </trkpt>
      <trkpt lat="47.44261" lon="16.0559">
        <ele>615.288936</ele>
        <time>2026-07-08T07:38:54.000Z</time>
      </trkpt>
      <trkpt lat="47.44262" lon="16.05584">
        <ele>615.145979</ele>
        <time>2026-07-08T07:38:55.000Z</time>
      </trkpt>
      <trkpt lat="47.44263" lon="16.05578">
        <ele>614.994185</ele>
        <time>2026-07-08T07:38:56.000Z</time>
      </trkpt>
      <trkpt lat="47.44262" lon="16.05571">
        <ele>614.829119</ele>
        <time>2026-07-08T07:38:57.000Z</time>
      </trkpt>
      <trkpt lat="47.44261" lon="16.05563">
        <ele>614.647644</ele>
        <time>2026-07-08T07:38:58.000Z</time>
      </trkpt>
      <trkpt lat="47.44258" lon="16.05556">
        <ele>614.453631</ele>
        <time>2026-07-08T07:38:59.000Z</time>
      </trkpt>
      <trkpt lat="47.44255" lon="16.05548">
        <ele>614.251447</ele>
        <time>2026-07-08T07:39:00.000Z</time>
      </trkpt>
      <trkpt lat="47.44252" lon="16.05541">
        <ele>614.052999</ele>
        <time>2026-07-08T07:39:01.000Z</time>
      </trkpt>
      <trkpt lat="47.4425" lon="16.05534">
        <ele>613.870332</ele>
        <time>2026-07-08T07:39:02.000Z</time>
      </trkpt>
      <trkpt lat="47.44249" lon="16.05526">
        <ele>613.674906</ele>
        <time>2026-07-08T07:39:03.000Z</time>
      </trkpt>
      <trkpt lat="47.44248" lon="16.05517">
        <ele>613.470255</ele>
        <time>2026-07-08T07:39:04.000Z</time>
      </trkpt>
      <trkpt lat="47.44249" lon="16.05508">
        <ele>613.267919</ele>
        <time>2026-07-08T07:39:05.000Z</time>
      </trkpt>
      <trkpt lat="47.44249" lon="16.055">
        <ele>613.069945</ele>
        <time>2026-07-08T07:39:06.000Z</time>
      </trkpt>
      <trkpt lat="47.44249" lon="16.05491">
        <ele>612.861086</ele>
        <time>2026-07-08T07:39:07.000Z</time>
      </trkpt>
      <trkpt lat="47.44249" lon="16.05481">
        <ele>612.647614</ele>
        <time>2026-07-08T07:39:08.000Z</time>
      </trkpt>
      <trkpt lat="47.4425" lon="16.05471">
        <ele>612.415478</ele>
        <time>2026-07-08T07:39:09.000Z</time>
      </trkpt>
      <trkpt lat="47.4425" lon="16.05461">
        <ele>612.175279</ele>
        <time>2026-07-08T07:39:10.000Z</time>
      </trkpt>
      <trkpt lat="47.44251" lon="16.0545">
        <ele>611.925489</ele>
        <time>2026-07-08T07:39:11.000Z</time>
      </trkpt>
      <trkpt lat="47.44251" lon="16.0544">
        <ele>611.686395</ele>
        <time>2026-07-08T07:39:12.000Z</time>
      </trkpt>
      <trkpt lat="47.4425" lon="16.0543">
        <ele>611.447246</ele>
        <time>2026-07-08T07:39:13.000Z</time>
      </trkpt>
      <trkpt lat="47.44247" lon="16.0542">
        <ele>611.195714</ele>
        <time>2026-07-08T07:39:14.000Z</time>
      </trkpt>
      <trkpt lat="47.44243" lon="16.05411">
        <ele>610.846492</ele>
        <time>2026-07-08T07:39:15.000Z</time>
      </trkpt>
      <trkpt lat="47.44238" lon="16.05402">
        <ele>610.48025</ele>
        <time>2026-07-08T07:39:16.000Z</time>
      </trkpt>
      <trkpt lat="47.44233" lon="16.05394">
        <ele>610.111593</ele>
        <time>2026-07-08T07:39:17.000Z</time>
      </trkpt>
      <trkpt lat="47.44227" lon="16.05385">
        <ele>609.724836</ele>
        <time>2026-07-08T07:39:18.000Z</time>
      </trkpt>
      <trkpt lat="47.4422" lon="16.05377">
        <ele>609.332517</ele>
        <time>2026-07-08T07:39:19.000Z</time>
      </trkpt>
      <trkpt lat="47.44214" lon="16.05369">
        <ele>608.933207</ele>
        <time>2026-07-08T07:39:20.000Z</time>
      </trkpt>
      <trkpt lat="47.44207" lon="16.05361">
        <ele>608.555466</ele>
        <time>2026-07-08T07:39:21.000Z</time>
      </trkpt>
      <trkpt lat="47.442" lon="16.05356">
        <ele>608.192643</ele>
        <time>2026-07-08T07:39:22.000Z</time>
      </trkpt>
      <trkpt lat="47.44193" lon="16.05354">
        <ele>607.837145</ele>
        <time>2026-07-08T07:39:23.000Z</time>
      </trkpt>
      <trkpt lat="47.44185" lon="16.05355">
        <ele>607.482899</ele>
        <time>2026-07-08T07:39:24.000Z</time>
      </trkpt>
      <trkpt lat="47.44178" lon="16.05358">
        <ele>607.122617</ele>
        <time>2026-07-08T07:39:25.000Z</time>
      </trkpt>
      <trkpt lat="47.44171" lon="16.05363">
        <ele>606.762211</ele>
        <time>2026-07-08T07:39:26.000Z</time>
      </trkpt>
      <trkpt lat="47.44164" lon="16.05368">
        <ele>606.395121</ele>
        <time>2026-07-08T07:39:27.000Z</time>
      </trkpt>
      <trkpt lat="47.44157" lon="16.05373">
        <ele>606.036462</ele>
        <time>2026-07-08T07:39:28.000Z</time>
      </trkpt>
      <trkpt lat="47.4415" lon="16.05379">
        <ele>605.680523</ele>
        <time>2026-07-08T07:39:29.000Z</time>
      </trkpt>
      <trkpt lat="47.44143" lon="16.05384">
        <ele>605.314877</ele>
        <time>2026-07-08T07:39:30.000Z</time>
      </trkpt>
      <trkpt lat="47.44136" lon="16.05389">
        <ele>604.947786</ele>
        <time>2026-07-08T07:39:31.000Z</time>
      </trkpt>
      <trkpt lat="47.44129" lon="16.05395">
        <ele>604.591487</ele>
        <time>2026-07-08T07:39:32.000Z</time>
      </trkpt>
      <trkpt lat="47.44123" lon="16.054">
        <ele>604.24229</ele>
        <time>2026-07-08T07:39:33.000Z</time>
      </trkpt>
      <trkpt lat="47.44116" lon="16.05406">
        <ele>603.885991</ele>
        <time>2026-07-08T07:39:34.000Z</time>
      </trkpt>
      <trkpt lat="47.4411" lon="16.05411">
        <ele>603.534626</ele>
        <time>2026-07-08T07:39:35.000Z</time>
      </trkpt>
      <trkpt lat="47.44103" lon="16.05417">
        <ele>603.181646</ele>
        <time>2026-07-08T07:39:36.000Z</time>
      </trkpt>
      <trkpt lat="47.44097" lon="16.05423">
        <ele>602.843838</ele>
        <time>2026-07-08T07:39:37.000Z</time>
      </trkpt>
      <trkpt lat="47.4409" lon="16.05429">
        <ele>602.66911</ele>
        <time>2026-07-08T07:39:38.000Z</time>
      </trkpt>
      <trkpt lat="47.44084" lon="16.05436">
        <ele>602.49088</ele>
        <time>2026-07-08T07:39:39.000Z</time>
      </trkpt>
      <trkpt lat="47.44078" lon="16.05443">
        <ele>602.310773</ele>
        <time>2026-07-08T07:39:40.000Z</time>
      </trkpt>
      <trkpt lat="47.44072" lon="16.0545">
        <ele>602.137914</ele>
        <time>2026-07-08T07:39:41.000Z</time>
      </trkpt>
      <trkpt lat="47.44066" lon="16.05458">
        <ele>601.956514</ele>
        <time>2026-07-08T07:39:42.000Z</time>
      </trkpt>
      <trkpt lat="47.4406" lon="16.05465">
        <ele>601.777114</ele>
        <time>2026-07-08T07:39:43.000Z</time>
      </trkpt>
      <trkpt lat="47.44054" lon="16.05473">
        <ele>601.588471</ele>
        <time>2026-07-08T07:39:44.000Z</time>
      </trkpt>
      <trkpt lat="47.44048" lon="16.05481">
        <ele>601.39848</ele>
        <time>2026-07-08T07:39:45.000Z</time>
      </trkpt>
      <trkpt lat="47.44042" lon="16.05489">
        <ele>601.210223</ele>
        <time>2026-07-08T07:39:46.000Z</time>
      </trkpt>
      <trkpt lat="47.44036" lon="16.05497">
        <ele>601.020231</ele>
        <time>2026-07-08T07:39:47.000Z</time>
      </trkpt>
      <trkpt lat="47.44029" lon="16.05505">
        <ele>600.829869</ele>
        <time>2026-07-08T07:39:48.000Z</time>
      </trkpt>
      <trkpt lat="47.44022" lon="16.05512">
        <ele>600.638637</ele>
        <time>2026-07-08T07:39:49.000Z</time>
      </trkpt>
      <trkpt lat="47.44016" lon="16.05518">
        <ele>600.450833</ele>
        <time>2026-07-08T07:39:50.000Z</time>
      </trkpt>
      <trkpt lat="47.44009" lon="16.05525">
        <ele>600.265816</ele>
        <time>2026-07-08T07:39:51.000Z</time>
      </trkpt>
      <trkpt lat="47.44002" lon="16.05531">
        <ele>600.085513</ele>
        <time>2026-07-08T07:39:52.000Z</time>
      </trkpt>
      <trkpt lat="47.43996" lon="16.05537">
        <ele>599.907763</ele>
        <time>2026-07-08T07:39:53.000Z</time>
      </trkpt>
      <trkpt lat="47.43989" lon="16.05543">
        <ele>599.734853</ele>
        <time>2026-07-08T07:39:54.000Z</time>
      </trkpt>
      <trkpt lat="47.43983" lon="16.05548">
        <ele>599.566723</ele>
        <time>2026-07-08T07:39:55.000Z</time>
      </trkpt>
      <trkpt lat="47.43977" lon="16.05553">
        <ele>599.402916</ele>
        <time>2026-07-08T07:39:56.000Z</time>
      </trkpt>
      <trkpt lat="47.43971" lon="16.05558">
        <ele>599.246147</ele>
        <time>2026-07-08T07:39:57.000Z</time>
      </trkpt>
      <trkpt lat="47.43965" lon="16.05563">
        <ele>599.098992</ele>
        <time>2026-07-08T07:39:58.000Z</time>
      </trkpt>
      <trkpt lat="47.4396" lon="16.05566">
        <ele>598.96708</ele>
        <time>2026-07-08T07:39:59.000Z</time>
      </trkpt>
      <trkpt lat="47.43955" lon="16.05568">
        <ele>598.848268</ele>
        <time>2026-07-08T07:40:00.000Z</time>
      </trkpt>
      <trkpt lat="47.4395" lon="16.05568">
        <ele>598.737435</ele>
        <time>2026-07-08T07:40:01.000Z</time>
      </trkpt>
      <trkpt lat="47.43945" lon="16.05566">
        <ele>598.715188</ele>
        <time>2026-07-08T07:40:02.000Z</time>
      </trkpt>
      <trkpt lat="47.43941" lon="16.05562">
        <ele>598.722673</ele>
        <time>2026-07-08T07:40:03.000Z</time>
      </trkpt>
      <trkpt lat="47.43937" lon="16.05558">
        <ele>598.729998</ele>
        <time>2026-07-08T07:40:04.000Z</time>
      </trkpt>
      <trkpt lat="47.43934" lon="16.05553">
        <ele>598.737214</ele>
        <time>2026-07-08T07:40:05.000Z</time>
      </trkpt>
      <trkpt lat="47.43931" lon="16.05547">
        <ele>598.744267</ele>
        <time>2026-07-08T07:40:06.000Z</time>
      </trkpt>
      <trkpt lat="47.43928" lon="16.05543">
        <ele>598.750817</ele>
        <time>2026-07-08T07:40:07.000Z</time>
      </trkpt>
      <trkpt lat="47.43925" lon="16.05538">
        <ele>598.757423</ele>
        <time>2026-07-08T07:40:08.000Z</time>
      </trkpt>
      <trkpt lat="47.43922" lon="16.05533">
        <ele>598.763776</ele>
        <time>2026-07-08T07:40:09.000Z</time>
      </trkpt>
      <trkpt lat="47.4392" lon="16.05528">
        <ele>598.77015</ele>
        <time>2026-07-08T07:40:10.000Z</time>
      </trkpt>
      <trkpt lat="47.43917" lon="16.05523">
        <ele>598.776425</ele>
        <time>2026-07-08T07:40:11.000Z</time>
      </trkpt>
      <trkpt lat="47.43914" lon="16.05518">
        <ele>598.783227</ele>
        <time>2026-07-08T07:40:12.000Z</time>
      </trkpt>
      <trkpt lat="47.43911" lon="16.05513">
        <ele>598.789833</ele>
        <time>2026-07-08T07:40:13.000Z</time>
      </trkpt>
      <trkpt lat="47.43908" lon="16.05508">
        <ele>598.796344</ele>
        <time>2026-07-08T07:40:14.000Z</time>
      </trkpt>
      <trkpt lat="47.43905" lon="16.05503">
        <ele>598.803377</ele>
        <time>2026-07-08T07:40:15.000Z</time>
      </trkpt>
      <trkpt lat="47.43902" lon="16.05498">
        <ele>598.810178</ele>
        <time>2026-07-08T07:40:16.000Z</time>
      </trkpt>
      <trkpt lat="47.43899" lon="16.05493">
        <ele>598.817211</ele>
        <time>2026-07-08T07:40:17.000Z</time>
      </trkpt>
      <trkpt lat="47.43896" lon="16.05487">
        <ele>598.824323</ele>
        <time>2026-07-08T07:40:18.000Z</time>
      </trkpt>
      <trkpt lat="47.43893" lon="16.05482">
        <ele>598.831356</ele>
        <time>2026-07-08T07:40:19.000Z</time>
      </trkpt>
      <trkpt lat="47.4389" lon="16.05477">
        <ele>598.838311</ele>
        <time>2026-07-08T07:40:20.000Z</time>
      </trkpt>
      <trkpt lat="47.43887" lon="16.05471">
        <ele>598.845501</ele>
        <time>2026-07-08T07:40:21.000Z</time>
      </trkpt>
      <trkpt lat="47.43884" lon="16.05466">
        <ele>598.852787</ele>
        <time>2026-07-08T07:40:22.000Z</time>
      </trkpt>
      <trkpt lat="47.43881" lon="16.05461">
        <ele>598.85982</ele>
        <time>2026-07-08T07:40:23.000Z</time>
      </trkpt>
      <trkpt lat="47.43878" lon="16.05455">
        <ele>598.867203</ele>
        <time>2026-07-08T07:40:24.000Z</time>
      </trkpt>
      <trkpt lat="47.43875" lon="16.05449">
        <ele>598.874742</ele>
        <time>2026-07-08T07:40:25.000Z</time>
      </trkpt>
      <trkpt lat="47.43872" lon="16.05444">
        <ele>598.882264</ele>
        <time>2026-07-08T07:40:26.000Z</time>
      </trkpt>
      <trkpt lat="47.43869" lon="16.05438">
        <ele>598.89004</ele>
        <time>2026-07-08T07:40:27.000Z</time>
      </trkpt>
      <trkpt lat="47.43865" lon="16.05431">
        <ele>598.897977</ele>
        <time>2026-07-08T07:40:28.000Z</time>
      </trkpt>
      <trkpt lat="47.43862" lon="16.05425">
        <ele>598.905817</ele>
        <time>2026-07-08T07:40:29.000Z</time>
      </trkpt>
      <trkpt lat="47.43859" lon="16.05419">
        <ele>598.913825</ele>
        <time>2026-07-08T07:40:30.000Z</time>
      </trkpt>
      <trkpt lat="47.43856" lon="16.05412">
        <ele>598.922087</ele>
        <time>2026-07-08T07:40:31.000Z</time>
      </trkpt>
      <trkpt lat="47.43853" lon="16.05405">
        <ele>598.930435</ele>
        <time>2026-07-08T07:40:32.000Z</time>
      </trkpt>
      <trkpt lat="47.4385" lon="16.05398">
        <ele>598.938868</ele>
        <time>2026-07-08T07:40:33.000Z</time>
      </trkpt>
      <trkpt lat="47.43847" lon="16.05391">
        <ele>598.947213</ele>
        <time>2026-07-08T07:40:34.000Z</time>
      </trkpt>
      <trkpt lat="47.43844" lon="16.05384">
        <ele>598.955819</ele>
        <time>2026-07-08T07:40:35.000Z</time>
      </trkpt>
      <trkpt lat="47.43841" lon="16.05377">
        <ele>598.964435</ele>
        <time>2026-07-08T07:40:36.000Z</time>
      </trkpt>
      <trkpt lat="47.43839" lon="16.05369">
        <ele>598.972975</ele>
        <time>2026-07-08T07:40:37.000Z</time>
      </trkpt>
      <trkpt lat="47.43836" lon="16.05362">
        <ele>598.94715</ele>
        <time>2026-07-08T07:40:38.000Z</time>
      </trkpt>
      <trkpt lat="47.43833" lon="16.05354">
        <ele>598.772112</ele>
        <time>2026-07-08T07:40:39.000Z</time>
      </trkpt>
      <trkpt lat="47.4383" lon="16.05347">
        <ele>598.597073</ele>
        <time>2026-07-08T07:40:40.000Z</time>
      </trkpt>
      <trkpt lat="47.43828" lon="16.05339">
        <ele>598.419856</ele>
        <time>2026-07-08T07:40:41.000Z</time>
      </trkpt>
      <trkpt lat="47.43825" lon="16.05331">
        <ele>598.242638</ele>
        <time>2026-07-08T07:40:42.000Z</time>
      </trkpt>
      <trkpt lat="47.43822" lon="16.05324">
        <ele>598.06496</ele>
        <time>2026-07-08T07:40:43.000Z</time>
      </trkpt>
      <trkpt lat="47.4382" lon="16.05316">
        <ele>597.882279</ele>
        <time>2026-07-08T07:40:44.000Z</time>
      </trkpt>
      <trkpt lat="47.43817" lon="16.05308">
        <ele>597.69823</ele>
        <time>2026-07-08T07:40:45.000Z</time>
      </trkpt>
      <trkpt lat="47.43814" lon="16.053">
        <ele>597.516364</ele>
        <time>2026-07-08T07:40:46.000Z</time>
      </trkpt>
      <trkpt lat="47.43811" lon="16.05292">
        <ele>597.331244</ele>
        <time>2026-07-08T07:40:47.000Z</time>
      </trkpt>
      <trkpt lat="47.43808" lon="16.05284">
        <ele>597.147194</ele>
        <time>2026-07-08T07:40:48.000Z</time>
      </trkpt>
      <trkpt lat="47.43805" lon="16.05276">
        <ele>596.961327</ele>
        <time>2026-07-08T07:40:49.000Z</time>
      </trkpt>
      <trkpt lat="47.43802" lon="16.05268">
        <ele>596.772257</ele>
        <time>2026-07-08T07:40:50.000Z</time>
      </trkpt>
      <trkpt lat="47.43799" lon="16.05259">
        <ele>596.579969</ele>
        <time>2026-07-08T07:40:51.000Z</time>
      </trkpt>
      <trkpt lat="47.43796" lon="16.05251">
        <ele>596.384448</ele>
        <time>2026-07-08T07:40:52.000Z</time>
      </trkpt>
      <trkpt lat="47.43793" lon="16.05242">
        <ele>596.186732</ele>
        <time>2026-07-08T07:40:53.000Z</time>
      </trkpt>
      <trkpt lat="47.4379" lon="16.05233">
        <ele>595.983549</ele>
        <time>2026-07-08T07:40:54.000Z</time>
      </trkpt>
      <trkpt lat="47.43787" lon="16.05224">
        <ele>595.772915</ele>
        <time>2026-07-08T07:40:55.000Z</time>
      </trkpt>
      <trkpt lat="47.43783" lon="16.05216">
        <ele>595.564323</ele>
        <time>2026-07-08T07:40:56.000Z</time>
      </trkpt>
      <trkpt lat="47.4378" lon="16.05207">
        <ele>595.352199</ele>
        <time>2026-07-08T07:40:57.000Z</time>
      </trkpt>
      <trkpt lat="47.43776" lon="16.05197">
        <ele>595.135026</ele>
        <time>2026-07-08T07:40:58.000Z</time>
      </trkpt>
      <trkpt lat="47.43772" lon="16.05188">
        <ele>594.911441</ele>
        <time>2026-07-08T07:40:59.000Z</time>
      </trkpt>
      <trkpt lat="47.43769" lon="16.05178">
        <ele>594.685366</ele>
        <time>2026-07-08T07:41:00.000Z</time>
      </trkpt>
      <trkpt lat="47.43765" lon="16.05169">
        <ele>594.453036</ele>
        <time>2026-07-08T07:41:01.000Z</time>
      </trkpt>
      <trkpt lat="47.43761" lon="16.05159">
        <ele>594.218668</ele>
        <time>2026-07-08T07:41:02.000Z</time>
      </trkpt>
      <trkpt lat="47.43757" lon="16.05148">
        <ele>593.975342</ele>
        <time>2026-07-08T07:41:03.000Z</time>
      </trkpt>
      <trkpt lat="47.43754" lon="16.05137">
        <ele>593.729795</ele>
        <time>2026-07-08T07:41:04.000Z</time>
      </trkpt>
      <trkpt lat="47.4375" lon="16.05126">
        <ele>593.476724</ele>
        <time>2026-07-08T07:41:05.000Z</time>
      </trkpt>
      <trkpt lat="47.43747" lon="16.05115">
        <ele>593.21068</ele>
        <time>2026-07-08T07:41:06.000Z</time>
      </trkpt>
      <trkpt lat="47.43743" lon="16.05103">
        <ele>592.939482</ele>
        <time>2026-07-08T07:41:07.000Z</time>
      </trkpt>
      <trkpt lat="47.4374" lon="16.05091">
        <ele>592.663604</ele>
        <time>2026-07-08T07:41:08.000Z</time>
      </trkpt>
      <trkpt lat="47.43737" lon="16.05079">
        <ele>592.393633</ele>
        <time>2026-07-08T07:41:09.000Z</time>
      </trkpt>
      <trkpt lat="47.43734" lon="16.05067">
        <ele>592.118925</ele>
        <time>2026-07-08T07:41:10.000Z</time>
      </trkpt>
      <trkpt lat="47.4373" lon="16.05056">
        <ele>591.846987</ele>
        <time>2026-07-08T07:41:11.000Z</time>
      </trkpt>
      <trkpt lat="47.43727" lon="16.05044">
        <ele>591.569907</ele>
        <time>2026-07-08T07:41:12.000Z</time>
      </trkpt>
      <trkpt lat="47.43723" lon="16.05032">
        <ele>591.294222</ele>
        <time>2026-07-08T07:41:13.000Z</time>
      </trkpt>
      <trkpt lat="47.43719" lon="16.05021">
        <ele>591.025942</ele>
        <time>2026-07-08T07:41:14.000Z</time>
      </trkpt>
      <trkpt lat="47.43715" lon="16.0501">
        <ele>590.759044</ele>
        <time>2026-07-08T07:41:15.000Z</time>
      </trkpt>
      <trkpt lat="47.43711" lon="16.05">
        <ele>590.499691</ele>
        <time>2026-07-08T07:41:16.000Z</time>
      </trkpt>
      <trkpt lat="47.43706" lon="16.0499">
        <ele>590.243727</ele>
        <time>2026-07-08T07:41:17.000Z</time>
      </trkpt>
      <trkpt lat="47.437" lon="16.04981">
        <ele>589.98751</ele>
        <time>2026-07-08T07:41:18.000Z</time>
      </trkpt>
      <trkpt lat="47.43695" lon="16.04973">
        <ele>589.749023</ele>
        <time>2026-07-08T07:41:19.000Z</time>
      </trkpt>
      <trkpt lat="47.4369" lon="16.04965">
        <ele>589.518023</ele>
        <time>2026-07-08T07:41:20.000Z</time>
      </trkpt>
      <trkpt lat="47.43684" lon="16.04958">
        <ele>589.288125</ele>
        <time>2026-07-08T07:41:21.000Z</time>
      </trkpt>
      <trkpt lat="47.43679" lon="16.04951">
        <ele>589.068122</ele>
        <time>2026-07-08T07:41:22.000Z</time>
      </trkpt>
      <trkpt lat="47.43674" lon="16.04945">
        <ele>588.849536</ele>
        <time>2026-07-08T07:41:23.000Z</time>
      </trkpt>
      <trkpt lat="47.43669" lon="16.04938">
        <ele>588.633298</ele>
        <time>2026-07-08T07:41:24.000Z</time>
      </trkpt>
      <trkpt lat="47.43664" lon="16.04931">
        <ele>588.418892</ele>
        <time>2026-07-08T07:41:25.000Z</time>
      </trkpt>
      <trkpt lat="47.43658" lon="16.04925">
        <ele>588.204485</ele>
        <time>2026-07-08T07:41:26.000Z</time>
      </trkpt>
      <trkpt lat="47.43653" lon="16.04918">
        <ele>587.992473</ele>
        <time>2026-07-08T07:41:27.000Z</time>
      </trkpt>
      <trkpt lat="47.43648" lon="16.04912">
        <ele>587.86843</ele>
        <time>2026-07-08T07:41:28.000Z</time>
      </trkpt>
      <trkpt lat="47.43643" lon="16.04905">
        <ele>587.839337</ele>
        <time>2026-07-08T07:41:29.000Z</time>
      </trkpt>
      <trkpt lat="47.43638" lon="16.04898">
        <ele>587.81106</ele>
        <time>2026-07-08T07:41:30.000Z</time>
      </trkpt>
      <trkpt lat="47.43633" lon="16.04892">
        <ele>587.782739</ele>
        <time>2026-07-08T07:41:31.000Z</time>
      </trkpt>
      <trkpt lat="47.43628" lon="16.04885">
        <ele>587.755437</ele>
        <time>2026-07-08T07:41:32.000Z</time>
      </trkpt>
      <trkpt lat="47.43619" lon="16.04872">
        <ele>587.699941</ele>
        <time>2026-07-08T07:41:33.000Z</time>
      </trkpt>
      <trkpt lat="47.43614" lon="16.04866">
        <ele>587.672369</ele>
        <time>2026-07-08T07:41:35.000Z</time>
      </trkpt>
      <trkpt lat="47.43609" lon="16.04859">
        <ele>587.645303</ele>
        <time>2026-07-08T07:41:36.000Z</time>
      </trkpt>
      <trkpt lat="47.436" lon="16.04847">
        <ele>587.590823</ele>
        <time>2026-07-08T07:41:38.000Z</time>
      </trkpt>
      <trkpt lat="47.4359" lon="16.04834">
        <ele>587.536659</ele>
        <time>2026-07-08T07:41:39.000Z</time>
      </trkpt>
      <trkpt lat="47.43586" lon="16.04828">
        <ele>587.509735</ele>
        <time>2026-07-08T07:41:40.000Z</time>
      </trkpt>
      <trkpt lat="47.43581" lon="16.04822">
        <ele>587.482624</ele>
        <time>2026-07-08T07:41:41.000Z</time>
      </trkpt>
      <trkpt lat="47.43576" lon="16.04815">
        <ele>587.455638</ele>
        <time>2026-07-08T07:41:42.000Z</time>
      </trkpt>
      <trkpt lat="47.43571" lon="16.04809">
        <ele>587.428459</ele>
        <time>2026-07-08T07:41:43.000Z</time>
      </trkpt>
      <trkpt lat="47.43567" lon="16.04802">
        <ele>587.401698</ele>
        <time>2026-07-08T07:41:44.000Z</time>
      </trkpt>
      <trkpt lat="47.43562" lon="16.04796">
        <ele>587.375337</ele>
        <time>2026-07-08T07:41:45.000Z</time>
      </trkpt>
      <trkpt lat="47.43558" lon="16.0479">
        <ele>587.349172</ele>
        <time>2026-07-08T07:41:46.000Z</time>
      </trkpt>
      <trkpt lat="47.43553" lon="16.04784">
        <ele>587.323203</ele>
        <time>2026-07-08T07:41:47.000Z</time>
      </trkpt>
      <trkpt lat="47.43549" lon="16.04778">
        <ele>587.2973</ele>
        <time>2026-07-08T07:41:48.000Z</time>
      </trkpt>
      <trkpt lat="47.43544" lon="16.04772">
        <ele>587.271259</ele>
        <time>2026-07-08T07:41:49.000Z</time>
      </trkpt>
      <trkpt lat="47.4354" lon="16.04766">
        <ele>587.245483</ele>
        <time>2026-07-08T07:41:50.000Z</time>
      </trkpt>
      <trkpt lat="47.43535" lon="16.0476">
        <ele>587.219708</ele>
        <time>2026-07-08T07:41:51.000Z</time>
      </trkpt>
      <trkpt lat="47.43531" lon="16.04754">
        <ele>587.194949</ele>
        <time>2026-07-08T07:41:52.000Z</time>
      </trkpt>
      <trkpt lat="47.43526" lon="16.04748">
        <ele>587.168784</ele>
        <time>2026-07-08T07:41:53.000Z</time>
      </trkpt>
      <trkpt lat="47.43522" lon="16.04742">
        <ele>587.14262</ele>
        <time>2026-07-08T07:41:54.000Z</time>
      </trkpt>
      <trkpt lat="47.43517" lon="16.04736">
        <ele>587.106142</ele>
        <time>2026-07-08T07:41:55.000Z</time>
      </trkpt>
      <trkpt lat="47.43513" lon="16.0473">
        <ele>586.945321</ele>
        <time>2026-07-08T07:41:56.000Z</time>
      </trkpt>
      <trkpt lat="47.43508" lon="16.04723">
        <ele>586.786016</ele>
        <time>2026-07-08T07:41:57.000Z</time>
      </trkpt>
      <trkpt lat="47.43503" lon="16.04717">
        <ele>586.624044</ele>
        <time>2026-07-08T07:41:58.000Z</time>
      </trkpt>
      <trkpt lat="47.43499" lon="16.04711">
        <ele>586.462835</ele>
        <time>2026-07-08T07:41:59.000Z</time>
      </trkpt>
      <trkpt lat="47.43494" lon="16.04705">
        <ele>586.302013</ele>
        <time>2026-07-08T07:42:00.000Z</time>
      </trkpt>
      <trkpt lat="47.43489" lon="16.04699">
        <ele>586.139223</ele>
        <time>2026-07-08T07:42:01.000Z</time>
      </trkpt>
      <trkpt lat="47.43485" lon="16.04693">
        <ele>585.98461</ele>
        <time>2026-07-08T07:42:02.000Z</time>
      </trkpt>
      <trkpt lat="47.4348" lon="16.04688">
        <ele>585.831142</ele>
        <time>2026-07-08T07:42:03.000Z</time>
      </trkpt>
      <trkpt lat="47.43476" lon="16.04682">
        <ele>585.677675</ele>
        <time>2026-07-08T07:42:04.000Z</time>
      </trkpt>
      <trkpt lat="47.43471" lon="16.04676">
        <ele>585.525341</ele>
        <time>2026-07-08T07:42:05.000Z</time>
      </trkpt>
      <trkpt lat="47.43467" lon="16.0467">
        <ele>585.368403</ele>
        <time>2026-07-08T07:42:06.000Z</time>
      </trkpt>
      <trkpt lat="47.43462" lon="16.04664">
        <ele>585.209097</ele>
        <time>2026-07-08T07:42:07.000Z</time>
      </trkpt>
      <trkpt lat="47.43457" lon="16.04658">
        <ele>585.040919</ele>
        <time>2026-07-08T07:42:08.000Z</time>
      </trkpt>
      <trkpt lat="47.43452" lon="16.04651">
        <ele>584.866152</ele>
        <time>2026-07-08T07:42:09.000Z</time>
      </trkpt>
      <trkpt lat="47.43447" lon="16.04644">
        <ele>584.684409</ele>
        <time>2026-07-08T07:42:10.000Z</time>
      </trkpt>
      <trkpt lat="47.43441" lon="16.04637">
        <ele>584.48795</ele>
        <time>2026-07-08T07:42:11.000Z</time>
      </trkpt>
      <trkpt lat="47.43436" lon="16.04629">
        <ele>584.291077</ele>
        <time>2026-07-08T07:42:12.000Z</time>
      </trkpt>
      <trkpt lat="47.4343" lon="16.04621">
        <ele>584.083742</ele>
        <time>2026-07-08T07:42:13.000Z</time>
      </trkpt>
      <trkpt lat="47.43424" lon="16.04613">
        <ele>583.867846</ele>
        <time>2026-07-08T07:42:14.000Z</time>
      </trkpt>
      <trkpt lat="47.43417" lon="16.04604">
        <ele>583.641489</ele>
        <time>2026-07-08T07:42:15.000Z</time>
      </trkpt>
      <trkpt lat="47.43411" lon="16.04595">
        <ele>583.407224</ele>
        <time>2026-07-08T07:42:16.000Z</time>
      </trkpt>
      <trkpt lat="47.43404" lon="16.04585">
        <ele>583.162503</ele>
        <time>2026-07-08T07:42:17.000Z</time>
      </trkpt>
      <trkpt lat="47.43397" lon="16.04575">
        <ele>582.910404</ele>
        <time>2026-07-08T07:42:18.000Z</time>
      </trkpt>
      <trkpt lat="47.4339" lon="16.04565">
        <ele>582.650929</ele>
        <time>2026-07-08T07:42:19.000Z</time>
      </trkpt>
      <trkpt lat="47.43383" lon="16.04554">
        <ele>582.284507</ele>
        <time>2026-07-08T07:42:20.000Z</time>
      </trkpt>
      <trkpt lat="47.43375" lon="16.04543">
        <ele>581.621111</ele>
        <time>2026-07-08T07:42:21.000Z</time>
      </trkpt>
      <trkpt lat="47.43368" lon="16.04532">
        <ele>580.945641</ele>
        <time>2026-07-08T07:42:22.000Z</time>
      </trkpt>
      <trkpt lat="47.4336" lon="16.04521">
        <ele>580.252117</ele>
        <time>2026-07-08T07:42:23.000Z</time>
      </trkpt>
      <trkpt lat="47.43353" lon="16.04509">
        <ele>579.561252</ele>
        <time>2026-07-08T07:42:24.000Z</time>
      </trkpt>
      <trkpt lat="47.43345" lon="16.04497">
        <ele>578.869534</ele>
        <time>2026-07-08T07:42:25.000Z</time>
      </trkpt>
      <trkpt lat="47.43338" lon="16.04484">
        <ele>578.170702</ele>
        <time>2026-07-08T07:42:26.000Z</time>
      </trkpt>
      <trkpt lat="47.43332" lon="16.04471">
        <ele>577.46338</ele>
        <time>2026-07-08T07:42:27.000Z</time>
      </trkpt>
      <trkpt lat="47.43325" lon="16.04458">
        <ele>576.753154</ele>
        <time>2026-07-08T07:42:28.000Z</time>
      </trkpt>
      <trkpt lat="47.43318" lon="16.04444">
        <ele>576.035505</ele>
        <time>2026-07-08T07:42:29.000Z</time>
      </trkpt>
      <trkpt lat="47.43311" lon="16.04431">
        <ele>575.30645</ele>
        <time>2026-07-08T07:42:30.000Z</time>
      </trkpt>
      <trkpt lat="47.43304" lon="16.04417">
        <ele>574.575676</ele>
        <time>2026-07-08T07:42:31.000Z</time>
      </trkpt>
      <trkpt lat="47.43297" lon="16.04404">
        <ele>573.840092</ele>
        <time>2026-07-08T07:42:32.000Z</time>
      </trkpt>
      <trkpt lat="47.43289" lon="16.04391">
        <ele>573.0985</ele>
        <time>2026-07-08T07:42:33.000Z</time>
      </trkpt>
      <trkpt lat="47.43281" lon="16.04379">
        <ele>572.364323</ele>
        <time>2026-07-08T07:42:34.000Z</time>
      </trkpt>
      <trkpt lat="47.43273" lon="16.04366">
        <ele>571.630146</ele>
        <time>2026-07-08T07:42:35.000Z</time>
      </trkpt>
      <trkpt lat="47.43266" lon="16.04352">
        <ele>571.035271</ele>
        <time>2026-07-08T07:42:36.000Z</time>
      </trkpt>
      <trkpt lat="47.43259" lon="16.04339">
        <ele>570.913674</ele>
        <time>2026-07-08T07:42:37.000Z</time>
      </trkpt>
      <trkpt lat="47.43253" lon="16.04324">
        <ele>570.794432</ele>
        <time>2026-07-08T07:42:38.000Z</time>
      </trkpt>
      <trkpt lat="47.43248" lon="16.0431">
        <ele>570.677274</ele>
        <time>2026-07-08T07:42:39.000Z</time>
      </trkpt>
      <trkpt lat="47.43243" lon="16.04296">
        <ele>570.561359</ele>
        <time>2026-07-08T07:42:40.000Z</time>
      </trkpt>
      <trkpt lat="47.43238" lon="16.04282">
        <ele>570.450491</ele>
        <time>2026-07-08T07:42:41.000Z</time>
      </trkpt>
      <trkpt lat="47.43233" lon="16.04269">
        <ele>570.34645</ele>
        <time>2026-07-08T07:42:42.000Z</time>
      </trkpt>
      <trkpt lat="47.43227" lon="16.04258">
        <ele>570.245486</ele>
        <time>2026-07-08T07:42:43.000Z</time>
      </trkpt>
      <trkpt lat="47.43221" lon="16.04248">
        <ele>570.150037</ele>
        <time>2026-07-08T07:42:44.000Z</time>
      </trkpt>
      <trkpt lat="47.43215" lon="16.04238">
        <ele>570.055551</ele>
        <time>2026-07-08T07:42:45.000Z</time>
      </trkpt>
      <trkpt lat="47.43208" lon="16.04229">
        <ele>569.96227</ele>
        <time>2026-07-08T07:42:46.000Z</time>
      </trkpt>
      <trkpt lat="47.43202" lon="16.04221">
        <ele>569.871985</ele>
        <time>2026-07-08T07:42:47.000Z</time>
      </trkpt>
      <trkpt lat="47.43196" lon="16.04212">
        <ele>569.783439</ele>
        <time>2026-07-08T07:42:48.000Z</time>
      </trkpt>
      <trkpt lat="47.4319" lon="16.04204">
        <ele>569.697584</ele>
        <time>2026-07-08T07:42:49.000Z</time>
      </trkpt>
      <trkpt lat="47.43184" lon="16.04197">
        <ele>569.615657</ele>
        <time>2026-07-08T07:42:50.000Z</time>
      </trkpt>
      <trkpt lat="47.43178" lon="16.0419">
        <ele>569.538778</ele>
        <time>2026-07-08T07:42:51.000Z</time>
      </trkpt>
      <trkpt lat="47.43173" lon="16.04183">
        <ele>569.467881</ele>
        <time>2026-07-08T07:42:52.000Z</time>
      </trkpt>
      <trkpt lat="47.43168" lon="16.04177">
        <ele>569.399973</ele>
        <time>2026-07-08T07:42:53.000Z</time>
      </trkpt>
      <trkpt lat="47.43164" lon="16.04171">
        <ele>569.337581</ele>
        <time>2026-07-08T07:42:54.000Z</time>
      </trkpt>
      <trkpt lat="47.4316" lon="16.04166">
        <ele>569.279289</ele>
        <time>2026-07-08T07:42:55.000Z</time>
      </trkpt>
      <trkpt lat="47.43156" lon="16.04161">
        <ele>569.224467</ele>
        <time>2026-07-08T07:42:56.000Z</time>
      </trkpt>
      <trkpt lat="47.43152" lon="16.04156">
        <ele>569.173222</ele>
        <time>2026-07-08T07:42:57.000Z</time>
      </trkpt>
      <trkpt lat="47.43149" lon="16.04151">
        <ele>569.233293</ele>
        <time>2026-07-08T07:42:58.000Z</time>
      </trkpt>
      <trkpt lat="47.43145" lon="16.04147">
        <ele>569.298894</ele>
        <time>2026-07-08T07:42:59.000Z</time>
      </trkpt>
      <trkpt lat="47.43142" lon="16.04142">
        <ele>569.364133</ele>
        <time>2026-07-08T07:43:00.000Z</time>
      </trkpt>
      <trkpt lat="47.43139" lon="16.04137">
        <ele>569.429124</ele>
        <time>2026-07-08T07:43:01.000Z</time>
      </trkpt>
      <trkpt lat="47.43136" lon="16.04132">
        <ele>569.496766</ele>
        <time>2026-07-08T07:43:02.000Z</time>
      </trkpt>
      <trkpt lat="47.43133" lon="16.04126">
        <ele>569.566575</ele>
        <time>2026-07-08T07:43:03.000Z</time>
      </trkpt>
      <trkpt lat="47.4313" lon="16.04121">
        <ele>569.63619</ele>
        <time>2026-07-08T07:43:04.000Z</time>
      </trkpt>
      <trkpt lat="47.43127" lon="16.04115">
        <ele>569.707474</ele>
        <time>2026-07-08T07:43:05.000Z</time>
      </trkpt>
      <trkpt lat="47.43123" lon="16.04109">
        <ele>569.784189</ele>
        <time>2026-07-08T07:43:06.000Z</time>
      </trkpt>
      <trkpt lat="47.4312" lon="16.04103">
        <ele>569.861801</ele>
        <time>2026-07-08T07:43:07.000Z</time>
      </trkpt>
      <trkpt lat="47.43116" lon="16.04097">
        <ele>569.939582</ele>
        <time>2026-07-08T07:43:08.000Z</time>
      </trkpt>
      <trkpt lat="47.43113" lon="16.0409">
        <ele>570.020521</ele>
        <time>2026-07-08T07:43:09.000Z</time>
      </trkpt>
      <trkpt lat="47.43109" lon="16.04084">
        <ele>570.103129</ele>
        <time>2026-07-08T07:43:10.000Z</time>
      </trkpt>
      <trkpt lat="47.43106" lon="16.04077">
        <ele>570.186218</ele>
        <time>2026-07-08T07:43:11.000Z</time>
      </trkpt>
      <trkpt lat="47.43102" lon="16.0407">
        <ele>570.271079</ele>
        <time>2026-07-08T07:43:12.000Z</time>
      </trkpt>
      <trkpt lat="47.43098" lon="16.04064">
        <ele>570.354283</ele>
        <time>2026-07-08T07:43:13.000Z</time>
      </trkpt>
      <trkpt lat="47.43095" lon="16.04057">
        <ele>570.438388</ele>
        <time>2026-07-08T07:43:14.000Z</time>
      </trkpt>
      <trkpt lat="47.43091" lon="16.0405">
        <ele>570.521743</ele>
        <time>2026-07-08T07:43:15.000Z</time>
      </trkpt>
      <trkpt lat="47.43087" lon="16.04044">
        <ele>570.604947</ele>
        <time>2026-07-08T07:43:16.000Z</time>
      </trkpt>
      <trkpt lat="47.43084" lon="16.04037">
        <ele>570.687264</ele>
        <time>2026-07-08T07:43:17.000Z</time>
      </trkpt>
      <trkpt lat="47.4308" lon="16.0403">
        <ele>570.768814</ele>
        <time>2026-07-08T07:43:18.000Z</time>
      </trkpt>
      <trkpt lat="47.43077" lon="16.04024">
        <ele>570.848714</ele>
        <time>2026-07-08T07:43:19.000Z</time>
      </trkpt>
      <trkpt lat="47.43074" lon="16.04017">
        <ele>570.930887</ele>
        <time>2026-07-08T07:43:20.000Z</time>
      </trkpt>
      <trkpt lat="47.4307" lon="16.0401">
        <ele>571.010696</ele>
        <time>2026-07-08T07:43:21.000Z</time>
      </trkpt>
      <trkpt lat="47.43067" lon="16.04004">
        <ele>571.088828</ele>
        <time>2026-07-08T07:43:22.000Z</time>
      </trkpt>
      <trkpt lat="47.43064" lon="16.03997">
        <ele>571.16696</ele>
        <time>2026-07-08T07:43:23.000Z</time>
      </trkpt>
      <trkpt lat="47.43061" lon="16.0399">
        <ele>571.243478</ele>
        <time>2026-07-08T07:43:24.000Z</time>
      </trkpt>
      <trkpt lat="47.43058" lon="16.03984">
        <ele>571.317579</ele>
        <time>2026-07-08T07:43:25.000Z</time>
      </trkpt>
      <trkpt lat="47.43056" lon="16.03978">
        <ele>571.391011</ele>
        <time>2026-07-08T07:43:26.000Z</time>
      </trkpt>
      <trkpt lat="47.43053" lon="16.03971">
        <ele>571.461199</ele>
        <time>2026-07-08T07:43:27.000Z</time>
      </trkpt>
      <trkpt lat="47.43051" lon="16.03965">
        <ele>571.531276</ele>
        <time>2026-07-08T07:43:28.000Z</time>
      </trkpt>
      <trkpt lat="47.43048" lon="16.0396">
        <ele>571.599741</ele>
        <time>2026-07-08T07:43:29.000Z</time>
      </trkpt>
      <trkpt lat="47.43045" lon="16.03954">
        <ele>571.666618</ele>
        <time>2026-07-08T07:43:30.000Z</time>
      </trkpt>
      <trkpt lat="47.43043" lon="16.03948">
        <ele>571.734318</ele>
        <time>2026-07-08T07:43:31.000Z</time>
      </trkpt>
      <trkpt lat="47.4304" lon="16.03942">
        <ele>571.74052</ele>
        <time>2026-07-08T07:43:32.000Z</time>
      </trkpt>
      <trkpt lat="47.43038" lon="16.03937">
        <ele>571.719415</ele>
        <time>2026-07-08T07:43:33.000Z</time>
      </trkpt>
      <trkpt lat="47.43036" lon="16.03931">
        <ele>571.698275</ele>
        <time>2026-07-08T07:43:34.000Z</time>
      </trkpt>
      <trkpt lat="47.43033" lon="16.03925">
        <ele>571.67768</ele>
        <time>2026-07-08T07:43:35.000Z</time>
      </trkpt>
      <trkpt lat="47.43031" lon="16.0392">
        <ele>571.6565</ele>
        <time>2026-07-08T07:43:36.000Z</time>
      </trkpt>
      <trkpt lat="47.43029" lon="16.03914">
        <ele>571.635905</ele>
        <time>2026-07-08T07:43:37.000Z</time>
      </trkpt>
      <trkpt lat="47.43027" lon="16.03909">
        <ele>571.615554</ele>
        <time>2026-07-08T07:43:38.000Z</time>
      </trkpt>
      <trkpt lat="47.43024" lon="16.03903">
        <ele>571.595202</ele>
        <time>2026-07-08T07:43:39.000Z</time>
      </trkpt>
      <trkpt lat="47.43022" lon="16.03898">
        <ele>571.574607</ele>
        <time>2026-07-08T07:43:40.000Z</time>
      </trkpt>
      <trkpt lat="47.4302" lon="16.03892">
        <ele>571.554012</ele>
        <time>2026-07-08T07:43:41.000Z</time>
      </trkpt>
      <trkpt lat="47.43018" lon="16.03886">
        <ele>571.533109</ele>
        <time>2026-07-08T07:43:42.000Z</time>
      </trkpt>
      <trkpt lat="47.43016" lon="16.03881">
        <ele>571.513779</ele>
        <time>2026-07-08T07:43:43.000Z</time>
      </trkpt>
      <trkpt lat="47.43013" lon="16.03876">
        <ele>571.493427</ele>
        <time>2026-07-08T07:43:44.000Z</time>
      </trkpt>
      <trkpt lat="47.43011" lon="16.0387">
        <ele>571.473864</ele>
        <time>2026-07-08T07:43:45.000Z</time>
      </trkpt>
      <trkpt lat="47.43009" lon="16.03865">
        <ele>571.453786</ele>
        <time>2026-07-08T07:43:46.000Z</time>
      </trkpt>
      <trkpt lat="47.43007" lon="16.0386">
        <ele>571.43398</ele>
        <time>2026-07-08T07:43:47.000Z</time>
      </trkpt>
      <trkpt lat="47.43005" lon="16.03854">
        <ele>571.41491</ele>
        <time>2026-07-08T07:43:48.000Z</time>
      </trkpt>
      <trkpt lat="47.43003" lon="16.03849">
        <ele>571.39524</ele>
        <time>2026-07-08T07:43:49.000Z</time>
      </trkpt>
      <trkpt lat="47.43001" lon="16.03843">
        <ele>571.37591</ele>
        <time>2026-07-08T07:43:50.000Z</time>
      </trkpt>
      <trkpt lat="47.42999" lon="16.03838">
        <ele>571.35662</ele>
        <time>2026-07-08T07:43:51.000Z</time>
      </trkpt>
      <trkpt lat="47.42997" lon="16.03833">
        <ele>571.337085</ele>
        <time>2026-07-08T07:43:52.000Z</time>
      </trkpt>
      <trkpt lat="47.42995" lon="16.03827">
        <ele>571.317196</ele>
        <time>2026-07-08T07:43:53.000Z</time>
      </trkpt>
      <trkpt lat="47.42993" lon="16.03822">
        <ele>571.296569</ele>
        <time>2026-07-08T07:43:54.000Z</time>
      </trkpt>
      <trkpt lat="47.42991" lon="16.03816">
        <ele>571.276533</ele>
        <time>2026-07-08T07:43:55.000Z</time>
      </trkpt>
      <trkpt lat="47.42989" lon="16.03811">
        <ele>571.256182</ele>
        <time>2026-07-08T07:43:57.000Z</time>
      </trkpt>
      <trkpt lat="47.42987" lon="16.03805">
        <ele>571.236066</ele>
        <time>2026-07-08T07:43:58.000Z</time>
      </trkpt>
      <trkpt lat="47.42984" lon="16.038">
        <ele>571.215219</ele>
        <time>2026-07-08T07:43:59.000Z</time>
      </trkpt>
      <trkpt lat="47.42982" lon="16.03794">
        <ele>571.194079</ele>
        <time>2026-07-08T07:44:00.000Z</time>
      </trkpt>
      <trkpt lat="47.4298" lon="16.03788">
        <ele>571.173212</ele>
        <time>2026-07-08T07:44:01.000Z</time>
      </trkpt>
      <trkpt lat="47.42977" lon="16.03783">
        <ele>571.151827</ele>
        <time>2026-07-08T07:44:02.000Z</time>
      </trkpt>
      <trkpt lat="47.42975" lon="16.03777">
        <ele>571.129922</ele>
        <time>2026-07-08T07:44:03.000Z</time>
      </trkpt>
      <trkpt lat="47.42973" lon="16.03771">
        <ele>571.107399</ele>
        <time>2026-07-08T07:44:04.000Z</time>
      </trkpt>
      <trkpt lat="47.4297" lon="16.03764">
        <ele>571.083584</ele>
        <time>2026-07-08T07:44:05.000Z</time>
      </trkpt>
      <trkpt lat="47.42968" lon="16.03757">
        <ele>571.059212</ele>
        <time>2026-07-08T07:44:06.000Z</time>
      </trkpt>
      <trkpt lat="47.42965" lon="16.03751">
        <ele>571.035119</ele>
        <time>2026-07-08T07:44:07.000Z</time>
      </trkpt>
      <trkpt lat="47.42962" lon="16.03744">
        <ele>571.009216</ele>
        <time>2026-07-08T07:44:08.000Z</time>
      </trkpt>
      <trkpt lat="47.4296" lon="16.03737">
        <ele>570.983551</ele>
        <time>2026-07-08T07:44:09.000Z</time>
      </trkpt>
      <trkpt lat="47.42957" lon="16.0373">
        <ele>570.957098</ele>
        <time>2026-07-08T07:44:10.000Z</time>
      </trkpt>
      <trkpt lat="47.42954" lon="16.03722">
        <ele>570.930598</ele>
        <time>2026-07-08T07:44:11.000Z</time>
      </trkpt>
      <trkpt lat="47.42951" lon="16.03715">
        <ele>570.868312</ele>
        <time>2026-07-08T07:44:12.000Z</time>
      </trkpt>
      <trkpt lat="47.42948" lon="16.03707">
        <ele>570.669838</ele>
        <time>2026-07-08T07:44:13.000Z</time>
      </trkpt>
      <trkpt lat="47.42945" lon="16.03698">
        <ele>570.465981</ele>
        <time>2026-07-08T07:44:14.000Z</time>
      </trkpt>
      <trkpt lat="47.42943" lon="16.0369">
        <ele>570.263164</ele>
        <time>2026-07-08T07:44:15.000Z</time>
      </trkpt>
      <trkpt lat="47.4294" lon="16.03681">
        <ele>570.050506</ele>
        <time>2026-07-08T07:44:16.000Z</time>
      </trkpt>
      <trkpt lat="47.42937" lon="16.03672">
        <ele>569.83721</ele>
        <time>2026-07-08T07:44:17.000Z</time>
      </trkpt>
      <trkpt lat="47.42934" lon="16.03663">
        <ele>569.615904</ele>
        <time>2026-07-08T07:44:18.000Z</time>
      </trkpt>
      <trkpt lat="47.42932" lon="16.03654">
        <ele>569.391804</ele>
        <time>2026-07-08T07:44:19.000Z</time>
      </trkpt>
      <trkpt lat="47.42929" lon="16.03644">
        <ele>569.164815</ele>
        <time>2026-07-08T07:44:20.000Z</time>
      </trkpt>
      <trkpt lat="47.42927" lon="16.03634">
        <ele>568.941009</ele>
        <time>2026-07-08T07:44:21.000Z</time>
      </trkpt>
      <trkpt lat="47.42925" lon="16.03624">
        <ele>568.714125</ele>
        <time>2026-07-08T07:44:22.000Z</time>
      </trkpt>
      <trkpt lat="47.42923" lon="16.03614">
        <ele>568.486091</ele>
        <time>2026-07-08T07:44:23.000Z</time>
      </trkpt>
      <trkpt lat="47.42921" lon="16.03604">
        <ele>568.260615</ele>
        <time>2026-07-08T07:44:24.000Z</time>
      </trkpt>
      <trkpt lat="47.42919" lon="16.03594">
        <ele>568.035139</ele>
        <time>2026-07-08T07:44:25.000Z</time>
      </trkpt>
      <trkpt lat="47.42918" lon="16.03585">
        <ele>567.815418</ele>
        <time>2026-07-08T07:44:26.000Z</time>
      </trkpt>
      <trkpt lat="47.42916" lon="16.03575">
        <ele>567.60209</ele>
        <time>2026-07-08T07:44:27.000Z</time>
      </trkpt>
      <trkpt lat="47.42915" lon="16.03566">
        <ele>567.386352</ele>
        <time>2026-07-08T07:44:28.000Z</time>
      </trkpt>
      <trkpt lat="47.42912" lon="16.03557">
        <ele>567.175968</ele>
        <time>2026-07-08T07:44:29.000Z</time>
      </trkpt>
      <trkpt lat="47.42909" lon="16.03548">
        <ele>566.970183</ele>
        <time>2026-07-08T07:44:30.000Z</time>
      </trkpt>
      <trkpt lat="47.42905" lon="16.03541">
        <ele>566.757273</ele>
        <time>2026-07-08T07:44:31.000Z</time>
      </trkpt>
      <trkpt lat="47.429" lon="16.03534">
        <ele>566.54387</ele>
        <time>2026-07-08T07:44:32.000Z</time>
      </trkpt>
      <trkpt lat="47.42894" lon="16.03529">
        <ele>566.320699</ele>
        <time>2026-07-08T07:44:33.000Z</time>
      </trkpt>
      <trkpt lat="47.42888" lon="16.03525">
        <ele>566.097299</ele>
        <time>2026-07-08T07:44:34.000Z</time>
      </trkpt>
      <trkpt lat="47.42882" lon="16.03521">
        <ele>565.871352</ele>
        <time>2026-07-08T07:44:35.000Z</time>
      </trkpt>
      <trkpt lat="47.42875" lon="16.03517">
        <ele>565.633127</ele>
        <time>2026-07-08T07:44:36.000Z</time>
      </trkpt>
      <trkpt lat="47.42868" lon="16.03512">
        <ele>565.386381</ele>
        <time>2026-07-08T07:44:37.000Z</time>
      </trkpt>
      <trkpt lat="47.42861" lon="16.03507">
        <ele>565.131067</ele>
        <time>2026-07-08T07:44:38.000Z</time>
      </trkpt>
      <trkpt lat="47.42853" lon="16.03502">
        <ele>564.63721</ele>
        <time>2026-07-08T07:44:39.000Z</time>
      </trkpt>
      <trkpt lat="47.42846" lon="16.03495">
        <ele>564.088864</ele>
        <time>2026-07-08T07:44:40.000Z</time>
      </trkpt>
      <trkpt lat="47.42839" lon="16.03487">
        <ele>563.521004</ele>
        <time>2026-07-08T07:44:41.000Z</time>
      </trkpt>
      <trkpt lat="47.42832" lon="16.03478">
        <ele>562.925596</ele>
        <time>2026-07-08T07:44:42.000Z</time>
      </trkpt>
      <trkpt lat="47.42825" lon="16.03469">
        <ele>562.333983</ele>
        <time>2026-07-08T07:44:43.000Z</time>
      </trkpt>
      <trkpt lat="47.42819" lon="16.03459">
        <ele>561.747089</ele>
        <time>2026-07-08T07:44:44.000Z</time>
      </trkpt>
      <trkpt lat="47.42812" lon="16.0345">
        <ele>561.161304</ele>
        <time>2026-07-08T07:44:45.000Z</time>
      </trkpt>
      <trkpt lat="47.42805" lon="16.03441">
        <ele>560.56784</ele>
        <time>2026-07-08T07:44:46.000Z</time>
      </trkpt>
      <trkpt lat="47.42798" lon="16.03432">
        <ele>559.991553</ele>
        <time>2026-07-08T07:44:47.000Z</time>
      </trkpt>
      <trkpt lat="47.42791" lon="16.03423">
        <ele>559.40097</ele>
        <time>2026-07-08T07:44:48.000Z</time>
      </trkpt>
      <trkpt lat="47.42785" lon="16.03415">
        <ele>558.847655</ele>
        <time>2026-07-08T07:44:49.000Z</time>
      </trkpt>
      <trkpt lat="47.4278" lon="16.03406">
        <ele>558.336109</ele>
        <time>2026-07-08T07:44:50.000Z</time>
      </trkpt>
      <trkpt lat="47.42776" lon="16.03396">
        <ele>557.843376</ele>
        <time>2026-07-08T07:44:51.000Z</time>
      </trkpt>
      <trkpt lat="47.42773" lon="16.03386">
        <ele>557.352499</ele>
        <time>2026-07-08T07:44:52.000Z</time>
      </trkpt>
      <trkpt lat="47.42771" lon="16.03374">
        <ele>556.828682</ele>
        <time>2026-07-08T07:44:53.000Z</time>
      </trkpt>
      <trkpt lat="47.4277" lon="16.03362">
        <ele>556.292182</ele>
        <time>2026-07-08T07:44:54.000Z</time>
      </trkpt>
      <trkpt lat="47.4277" lon="16.03349">
        <ele>555.739844</ele>
        <time>2026-07-08T07:44:55.000Z</time>
      </trkpt>
      <trkpt lat="47.4277" lon="16.03337">
        <ele>555.196971</ele>
        <time>2026-07-08T07:44:56.000Z</time>
      </trkpt>
      <trkpt lat="47.42771" lon="16.03325">
        <ele>554.682076</ele>
        <time>2026-07-08T07:44:57.000Z</time>
      </trkpt>
      <trkpt lat="47.42772" lon="16.03314">
        <ele>554.188692</ele>
        <time>2026-07-08T07:44:58.000Z</time>
      </trkpt>
      <trkpt lat="47.42775" lon="16.03304">
        <ele>553.699852</ele>
        <time>2026-07-08T07:44:59.000Z</time>
      </trkpt>
      <trkpt lat="47.42781" lon="16.03294">
        <ele>553.319047</ele>
        <time>2026-07-08T07:45:00.000Z</time>
      </trkpt>
      <trkpt lat="47.42786" lon="16.03285">
        <ele>552.993683</ele>
        <time>2026-07-08T07:45:01.000Z</time>
      </trkpt>
      <trkpt lat="47.42791" lon="16.03274">
        <ele>552.650526</ele>
        <time>2026-07-08T07:45:02.000Z</time>
      </trkpt>
      <trkpt lat="47.42795" lon="16.03262">
        <ele>552.306315</ele>
        <time>2026-07-08T07:45:03.000Z</time>
      </trkpt>
      <trkpt lat="47.42797" lon="16.0325">
        <ele>551.977152</ele>
        <time>2026-07-08T07:45:04.000Z</time>
      </trkpt>
      <trkpt lat="47.42798" lon="16.03237">
        <ele>551.64753</ele>
        <time>2026-07-08T07:45:05.000Z</time>
      </trkpt>
      <trkpt lat="47.42798" lon="16.03225">
        <ele>551.330248</ele>
        <time>2026-07-08T07:45:06.000Z</time>
      </trkpt>
      <trkpt lat="47.42797" lon="16.03214">
        <ele>551.03092</ele>
        <time>2026-07-08T07:45:07.000Z</time>
      </trkpt>
      <trkpt lat="47.42797" lon="16.03203">
        <ele>550.741831</ele>
        <time>2026-07-08T07:45:08.000Z</time>
      </trkpt>
      <trkpt lat="47.42796" lon="16.03192">
        <ele>550.465823</ele>
        <time>2026-07-08T07:45:09.000Z</time>
      </trkpt>
      <trkpt lat="47.42796" lon="16.03182">
        <ele>550.202891</ele>
        <time>2026-07-08T07:45:10.000Z</time>
      </trkpt>
      <trkpt lat="47.42795" lon="16.03173">
        <ele>549.952702</ele>
        <time>2026-07-08T07:45:11.000Z</time>
      </trkpt>
      <trkpt lat="47.42794" lon="16.03164">
        <ele>549.711548</ele>
        <time>2026-07-08T07:45:12.000Z</time>
      </trkpt>
      <trkpt lat="47.42794" lon="16.03155">
        <ele>549.477372</ele>
        <time>2026-07-08T07:45:13.000Z</time>
      </trkpt>
      <trkpt lat="47.42793" lon="16.03147">
        <ele>549.258493</ele>
        <time>2026-07-08T07:45:14.000Z</time>
      </trkpt>
      <trkpt lat="47.42793" lon="16.03139">
        <ele>549.047827</ele>
        <time>2026-07-08T07:45:15.000Z</time>
      </trkpt>
      <trkpt lat="47.42792" lon="16.03131">
        <ele>548.850554</ele>
        <time>2026-07-08T07:45:16.000Z</time>
      </trkpt>
      <trkpt lat="47.42792" lon="16.03124">
        <ele>548.666961</ele>
        <time>2026-07-08T07:45:17.000Z</time>
      </trkpt>
      <trkpt lat="47.42792" lon="16.03118">
        <ele>548.501765</ele>
        <time>2026-07-08T07:45:18.000Z</time>
      </trkpt>
      <trkpt lat="47.42793" lon="16.03112">
        <ele>548.351849</ele>
        <time>2026-07-08T07:45:19.000Z</time>
      </trkpt>
      <trkpt lat="47.42793" lon="16.03107">
        <ele>548.225747</ele>
        <time>2026-07-08T07:45:20.000Z</time>
      </trkpt>
      <trkpt lat="47.42793" lon="16.03104">
        <ele>548.133644</ele>
        <time>2026-07-08T07:45:21.000Z</time>
      </trkpt>
      <trkpt lat="47.42793" lon="16.03102">
        <ele>548.081201</ele>
        <time>2026-07-08T07:45:22.000Z</time>
      </trkpt>
      <trkpt lat="47.42793" lon="16.03101">
        <ele>548.06809</ele>
        <time>2026-07-08T07:45:23.000Z</time>
      </trkpt>
      <trkpt lat="47.4279" lon="16.03098">
        <ele>547.930968</ele>
        <time>2026-07-08T07:45:36.000Z</time>
      </trkpt>
      <trkpt lat="47.42789" lon="16.03095">
        <ele>547.837549</ele>
        <time>2026-07-08T07:45:37.000Z</time>
      </trkpt>
      <trkpt lat="47.42788" lon="16.03091">
        <ele>547.730633</ele>
        <time>2026-07-08T07:45:38.000Z</time>
      </trkpt>
      <trkpt lat="47.42787" lon="16.03087">
        <ele>547.617209</ele>
        <time>2026-07-08T07:45:39.000Z</time>
      </trkpt>
      <trkpt lat="47.42786" lon="16.03082">
        <ele>547.501237</ele>
        <time>2026-07-08T07:45:40.000Z</time>
      </trkpt>
      <trkpt lat="47.42786" lon="16.03078">
        <ele>547.379234</ele>
        <time>2026-07-08T07:45:41.000Z</time>
      </trkpt>
      <trkpt lat="47.42784" lon="16.03073">
        <ele>547.235166</ele>
        <time>2026-07-08T07:45:42.000Z</time>
      </trkpt>
      <trkpt lat="47.42783" lon="16.03067">
        <ele>547.084776</ele>
        <time>2026-07-08T07:45:43.000Z</time>
      </trkpt>
      <trkpt lat="47.42782" lon="16.03061">
        <ele>546.917047</ele>
        <time>2026-07-08T07:45:44.000Z</time>
      </trkpt>
      <trkpt lat="47.4278" lon="16.03055">
        <ele>546.741627</ele>
        <time>2026-07-08T07:45:45.000Z</time>
      </trkpt>
      <trkpt lat="47.42778" lon="16.03048">
        <ele>546.583751</ele>
        <time>2026-07-08T07:45:46.000Z</time>
      </trkpt>
      <trkpt lat="47.42777" lon="16.03042">
        <ele>546.62003</ele>
        <time>2026-07-08T07:45:47.000Z</time>
      </trkpt>
      <trkpt lat="47.42775" lon="16.03035">
        <ele>546.655836</ele>
        <time>2026-07-08T07:45:48.000Z</time>
      </trkpt>
      <trkpt lat="47.42773" lon="16.03028">
        <ele>546.694724</ele>
        <time>2026-07-08T07:45:49.000Z</time>
      </trkpt>
      <trkpt lat="47.4277" lon="16.03022">
        <ele>546.733482</ele>
        <time>2026-07-08T07:45:50.000Z</time>
      </trkpt>
      <trkpt lat="47.42768" lon="16.03015">
        <ele>546.771601</ele>
        <time>2026-07-08T07:45:51.000Z</time>
      </trkpt>
      <trkpt lat="47.42765" lon="16.03009">
        <ele>546.810449</ele>
        <time>2026-07-08T07:45:52.000Z</time>
      </trkpt>
      <trkpt lat="47.42762" lon="16.03003">
        <ele>546.849753</ele>
        <time>2026-07-08T07:45:53.000Z</time>
      </trkpt>
      <trkpt lat="47.42758" lon="16.02997">
        <ele>546.890394</ele>
        <time>2026-07-08T07:45:54.000Z</time>
      </trkpt>
      <trkpt lat="47.42754" lon="16.02992">
        <ele>546.930536</ele>
        <time>2026-07-08T07:45:55.000Z</time>
      </trkpt>
      <trkpt lat="47.4275" lon="16.02987">
        <ele>546.970239</ele>
        <time>2026-07-08T07:45:56.000Z</time>
      </trkpt>
      <trkpt lat="47.42745" lon="16.02983">
        <ele>547.010367</ele>
        <time>2026-07-08T07:45:57.000Z</time>
      </trkpt>
      <trkpt lat="47.4274" lon="16.0298">
        <ele>547.051032</ele>
        <time>2026-07-08T07:45:58.000Z</time>
      </trkpt>
      <trkpt lat="47.42735" lon="16.02978">
        <ele>547.090493</ele>
        <time>2026-07-08T07:45:59.000Z</time>
      </trkpt>
      <trkpt lat="47.4273" lon="16.02977">
        <ele>547.131158</ele>
        <time>2026-07-08T07:46:00.000Z</time>
      </trkpt>
      <trkpt lat="47.42724" lon="16.02976">
        <ele>547.172169</ele>
        <time>2026-07-08T07:46:01.000Z</time>
      </trkpt>
      <trkpt lat="47.42719" lon="16.02975">
        <ele>547.213628</ele>
        <time>2026-07-08T07:46:02.000Z</time>
      </trkpt>
      <trkpt lat="47.42713" lon="16.02976">
        <ele>547.255153</ele>
        <time>2026-07-08T07:46:03.000Z</time>
      </trkpt>
      <trkpt lat="47.42708" lon="16.02977">
        <ele>547.293859</ele>
        <time>2026-07-08T07:46:04.000Z</time>
      </trkpt>
      <trkpt lat="47.42703" lon="16.02978">
        <ele>547.334756</ele>
        <time>2026-07-08T07:46:05.000Z</time>
      </trkpt>
      <trkpt lat="47.42698" lon="16.02978">
        <ele>547.374776</ele>
        <time>2026-07-08T07:46:06.000Z</time>
      </trkpt>
      <trkpt lat="47.42693" lon="16.02979">
        <ele>547.412541</ele>
        <time>2026-07-08T07:46:07.000Z</time>
      </trkpt>
      <trkpt lat="47.42688" lon="16.02979">
        <ele>547.448745</ele>
        <time>2026-07-08T07:46:08.000Z</time>
      </trkpt>
      <trkpt lat="47.42683" lon="16.02979">
        <ele>547.485727</ele>
        <time>2026-07-08T07:46:09.000Z</time>
      </trkpt>
      <trkpt lat="47.42678" lon="16.0298">
        <ele>547.521931</ele>
        <time>2026-07-08T07:46:10.000Z</time>
      </trkpt>
      <trkpt lat="47.42674" lon="16.0298">
        <ele>547.555876</ele>
        <time>2026-07-08T07:46:11.000Z</time>
      </trkpt>
      <trkpt lat="47.42669" lon="16.0298">
        <ele>547.589791</ele>
        <time>2026-07-08T07:46:12.000Z</time>
      </trkpt>
      <trkpt lat="47.42665" lon="16.02978">
        <ele>547.624553</ele>
        <time>2026-07-08T07:46:13.000Z</time>
      </trkpt>
      <trkpt lat="47.4266" lon="16.02977">
        <ele>547.659012</ele>
        <time>2026-07-08T07:46:14.000Z</time>
      </trkpt>
      <trkpt lat="47.42656" lon="16.02977">
        <ele>547.692957</ele>
        <time>2026-07-08T07:46:15.000Z</time>
      </trkpt>
      <trkpt lat="47.42651" lon="16.02977">
        <ele>547.726883</ele>
        <time>2026-07-08T07:46:16.000Z</time>
      </trkpt>
      <trkpt lat="47.42647" lon="16.02976">
        <ele>547.75857</ele>
        <time>2026-07-08T07:46:17.000Z</time>
      </trkpt>
      <trkpt lat="47.42643" lon="16.02976">
        <ele>547.787279</ele>
        <time>2026-07-08T07:46:18.000Z</time>
      </trkpt>
      <trkpt lat="47.4264" lon="16.02976">
        <ele>547.813659</ele>
        <time>2026-07-08T07:46:19.000Z</time>
      </trkpt>
      <trkpt lat="47.42636" lon="16.02975">
        <ele>547.837859</ele>
        <time>2026-07-08T07:46:20.000Z</time>
      </trkpt>
      <trkpt lat="47.42633" lon="16.02975">
        <ele>547.860466</ele>
        <time>2026-07-08T07:46:21.000Z</time>
      </trkpt>
      <trkpt lat="47.4263" lon="16.02975">
        <ele>547.883877</ele>
        <time>2026-07-08T07:46:22.000Z</time>
      </trkpt>
      <trkpt lat="47.42627" lon="16.02975">
        <ele>547.905755</ele>
        <time>2026-07-08T07:46:23.000Z</time>
      </trkpt>
      <trkpt lat="47.42624" lon="16.02975">
        <ele>547.929166</ele>
        <time>2026-07-08T07:46:24.000Z</time>
      </trkpt>
      <trkpt lat="47.42621" lon="16.02974">
        <ele>548.032485</ele>
        <time>2026-07-08T07:46:25.000Z</time>
      </trkpt>
      <trkpt lat="47.42618" lon="16.02974">
        <ele>548.153572</ele>
        <time>2026-07-08T07:46:26.000Z</time>
      </trkpt>
      <trkpt lat="47.42615" lon="16.02974">
        <ele>548.276127</ele>
        <time>2026-07-08T07:46:27.000Z</time>
      </trkpt>
      <trkpt lat="47.42612" lon="16.02973">
        <ele>548.405974</ele>
        <time>2026-07-08T07:46:28.000Z</time>
      </trkpt>
      <trkpt lat="47.42609" lon="16.02973">
        <ele>548.527153</ele>
        <time>2026-07-08T07:46:29.000Z</time>
      </trkpt>
      <trkpt lat="47.42606" lon="16.02973">
        <ele>548.648241</ele>
        <time>2026-07-08T07:46:30.000Z</time>
      </trkpt>
      <trkpt lat="47.42603" lon="16.02973">
        <ele>548.76942</ele>
        <time>2026-07-08T07:46:31.000Z</time>
      </trkpt>
      <trkpt lat="47.426" lon="16.02972">
        <ele>548.890754</ele>
        <time>2026-07-08T07:46:32.000Z</time>
      </trkpt>
      <trkpt lat="47.42597" lon="16.02972">
        <ele>549.004266</ele>
        <time>2026-07-08T07:46:33.000Z</time>
      </trkpt>
      <trkpt lat="47.42594" lon="16.02972">
        <ele>549.125599</ele>
        <time>2026-07-08T07:46:34.000Z</time>
      </trkpt>
      <trkpt lat="47.42591" lon="16.02971">
        <ele>549.247423</ele>
        <time>2026-07-08T07:46:35.000Z</time>
      </trkpt>
      <trkpt lat="47.42588" lon="16.02971">
        <ele>549.369247</ele>
        <time>2026-07-08T07:46:36.000Z</time>
      </trkpt>
      <trkpt lat="47.42585" lon="16.0297">
        <ele>549.49058</ele>
        <time>2026-07-08T07:46:37.000Z</time>
      </trkpt>
      <trkpt lat="47.42582" lon="16.0297">
        <ele>549.604093</ele>
        <time>2026-07-08T07:46:38.000Z</time>
      </trkpt>
      <trkpt lat="47.42579" lon="16.0297">
        <ele>549.7214</ele>
        <time>2026-07-08T07:46:39.000Z</time>
      </trkpt>
      <trkpt lat="47.42577" lon="16.0297">
        <ele>549.834386</ele>
        <time>2026-07-08T07:46:40.000Z</time>
      </trkpt>
      <trkpt lat="47.42574" lon="16.0297">
        <ele>549.947504</ele>
        <time>2026-07-08T07:46:41.000Z</time>
      </trkpt>
      <trkpt lat="47.42571" lon="16.0297">
        <ele>550.064525</ele>
        <time>2026-07-08T07:46:42.000Z</time>
      </trkpt>
      <trkpt lat="47.42568" lon="16.02969">
        <ele>550.170008</ele>
        <time>2026-07-08T07:46:43.000Z</time>
      </trkpt>
      <trkpt lat="47.42566" lon="16.02969">
        <ele>550.280183</ele>
        <time>2026-07-08T07:46:44.000Z</time>
      </trkpt>
      <trkpt lat="47.42563" lon="16.02968">
        <ele>550.390797</ele>
        <time>2026-07-08T07:46:45.000Z</time>
      </trkpt>
      <trkpt lat="47.4256" lon="16.02968">
        <ele>550.492597</ele>
        <time>2026-07-08T07:46:46.000Z</time>
      </trkpt>
      <trkpt lat="47.42558" lon="16.02967">
        <ele>550.597832</ele>
        <time>2026-07-08T07:46:47.000Z</time>
      </trkpt>
      <trkpt lat="47.42555" lon="16.02967">
        <ele>550.715647</ele>
        <time>2026-07-08T07:46:48.000Z</time>
      </trkpt>
      <trkpt lat="47.42552" lon="16.02966">
        <ele>550.837195</ele>
        <time>2026-07-08T07:46:49.000Z</time>
      </trkpt>
      <trkpt lat="47.42549" lon="16.02966">
        <ele>550.959018</ele>
        <time>2026-07-08T07:46:50.000Z</time>
      </trkpt>
      <trkpt lat="47.42546" lon="16.02966">
        <ele>551.084378</ele>
        <time>2026-07-08T07:46:51.000Z</time>
      </trkpt>
      <trkpt lat="47.42543" lon="16.02965">
        <ele>551.214224</ele>
        <time>2026-07-08T07:46:52.000Z</time>
      </trkpt>
      <trkpt lat="47.4254" lon="16.02965">
        <ele>551.335558</ele>
        <time>2026-07-08T07:46:53.000Z</time>
      </trkpt>
      <trkpt lat="47.42537" lon="16.02964">
        <ele>551.44907</ele>
        <time>2026-07-08T07:46:54.000Z</time>
      </trkpt>
      <trkpt lat="47.42534" lon="16.02964">
        <ele>551.572081</ele>
        <time>2026-07-08T07:46:55.000Z</time>
      </trkpt>
      <trkpt lat="47.42531" lon="16.02963">
        <ele>551.691123</ele>
        <time>2026-07-08T07:46:56.000Z</time>
      </trkpt>
      <trkpt lat="47.42528" lon="16.02962">
        <ele>551.813679</ele>
        <time>2026-07-08T07:46:57.000Z</time>
      </trkpt>
      <trkpt lat="47.42525" lon="16.02961">
        <ele>551.940663</ele>
        <time>2026-07-08T07:46:58.000Z</time>
      </trkpt>
      <trkpt lat="47.42522" lon="16.0296">
        <ele>552.064187</ele>
        <time>2026-07-08T07:46:59.000Z</time>
      </trkpt>
      <trkpt lat="47.42519" lon="16.0296">
        <ele>552.187198</ele>
        <time>2026-07-08T07:47:00.000Z</time>
      </trkpt>
      <trkpt lat="47.42516" lon="16.02959">
        <ele>552.30624</ele>
        <time>2026-07-08T07:47:01.000Z</time>
      </trkpt>
      <trkpt lat="47.42513" lon="16.02958">
        <ele>552.430337</ele>
        <time>2026-07-08T07:47:02.000Z</time>
      </trkpt>
      <trkpt lat="47.4251" lon="16.02957">
        <ele>552.546574</ele>
        <time>2026-07-08T07:47:03.000Z</time>
      </trkpt>
      <trkpt lat="47.42507" lon="16.02956">
        <ele>552.670671</ele>
        <time>2026-07-08T07:47:04.000Z</time>
      </trkpt>
      <trkpt lat="47.42504" lon="16.02955">
        <ele>552.788311</ele>
        <time>2026-07-08T07:47:05.000Z</time>
      </trkpt>
      <trkpt lat="47.42501" lon="16.02954">
        <ele>552.911322</ele>
        <time>2026-07-08T07:47:06.000Z</time>
      </trkpt>
      <trkpt lat="47.42498" lon="16.02953">
        <ele>553.030895</ele>
        <time>2026-07-08T07:47:07.000Z</time>
      </trkpt>
      <trkpt lat="47.42496" lon="16.02952">
        <ele>553.145972</ele>
        <time>2026-07-08T07:47:08.000Z</time>
      </trkpt>
      <trkpt lat="47.42493" lon="16.02951">
        <ele>553.26105</ele>
        <time>2026-07-08T07:47:09.000Z</time>
      </trkpt>
      <trkpt lat="47.4249" lon="16.02951">
        <ele>553.378865</ele>
        <time>2026-07-08T07:47:10.000Z</time>
      </trkpt>
      <trkpt lat="47.42487" lon="16.0295">
        <ele>553.50239</ele>
        <time>2026-07-08T07:47:11.000Z</time>
      </trkpt>
      <trkpt lat="47.42484" lon="16.02949">
        <ele>553.618627</ele>
        <time>2026-07-08T07:47:12.000Z</time>
      </trkpt>
      <trkpt lat="47.42481" lon="16.02948">
        <ele>553.743353</ele>
        <time>2026-07-08T07:47:13.000Z</time>
      </trkpt>
      <trkpt lat="47.42478" lon="16.02947">
        <ele>553.86745</ele>
        <time>2026-07-08T07:47:14.000Z</time>
      </trkpt>
      <trkpt lat="47.42475" lon="16.02946">
        <ele>553.983687</ele>
        <time>2026-07-08T07:47:15.000Z</time>
      </trkpt>
      <trkpt lat="47.42472" lon="16.02945">
        <ele>554.106243</ele>
        <time>2026-07-08T07:47:16.000Z</time>
      </trkpt>
      <trkpt lat="47.42469" lon="16.02944">
        <ele>554.229254</ele>
        <time>2026-07-08T07:47:17.000Z</time>
      </trkpt>
      <trkpt lat="47.42467" lon="16.02943">
        <ele>554.341573</ele>
        <time>2026-07-08T07:47:18.000Z</time>
      </trkpt>
      <trkpt lat="47.42464" lon="16.02942">
        <ele>554.4572</ele>
        <time>2026-07-08T07:47:19.000Z</time>
      </trkpt>
      <trkpt lat="47.42461" lon="16.02942">
        <ele>554.57936</ele>
        <time>2026-07-08T07:47:20.000Z</time>
      </trkpt>
      <trkpt lat="47.42458" lon="16.02941">
        <ele>554.697931</ele>
        <time>2026-07-08T07:47:21.000Z</time>
      </trkpt>
      <trkpt lat="47.42455" lon="16.0294">
        <ele>554.812522</ele>
        <time>2026-07-08T07:47:22.000Z</time>
      </trkpt>
      <trkpt lat="47.42452" lon="16.0294">
        <ele>554.92633</ele>
        <time>2026-07-08T07:47:23.000Z</time>
      </trkpt>
      <trkpt lat="47.42449" lon="16.0294">
        <ele>555.043637</ele>
        <time>2026-07-08T07:47:24.000Z</time>
      </trkpt>
      <trkpt lat="47.42447" lon="16.02939">
        <ele>555.156755</ele>
        <time>2026-07-08T07:47:25.000Z</time>
      </trkpt>
      <trkpt lat="47.42444" lon="16.02939">
        <ele>555.289037</ele>
        <time>2026-07-08T07:47:26.000Z</time>
      </trkpt>
      <trkpt lat="47.42441" lon="16.02938">
        <ele>555.425378</ele>
        <time>2026-07-08T07:47:27.000Z</time>
      </trkpt>
      <trkpt lat="47.42438" lon="16.02937">
        <ele>555.56722</ele>
        <time>2026-07-08T07:47:28.000Z</time>
      </trkpt>
      <trkpt lat="47.42436" lon="16.02937">
        <ele>555.693774</ele>
        <time>2026-07-08T07:47:29.000Z</time>
      </trkpt>
      <trkpt lat="47.42433" lon="16.02936">
        <ele>555.829114</ele>
        <time>2026-07-08T07:47:30.000Z</time>
      </trkpt>
      <trkpt lat="47.42431" lon="16.02935">
        <ele>555.955668</ele>
        <time>2026-07-08T07:47:31.000Z</time>
      </trkpt>
      <trkpt lat="47.42428" lon="16.02935">
        <ele>556.09263</ele>
        <time>2026-07-08T07:47:32.000Z</time>
      </trkpt>
      <trkpt lat="47.42425" lon="16.02934">
        <ele>556.221446</ele>
        <time>2026-07-08T07:47:33.000Z</time>
      </trkpt>
      <trkpt lat="47.42423" lon="16.02933">
        <ele>556.350262</ele>
        <time>2026-07-08T07:47:34.000Z</time>
      </trkpt>
      <trkpt lat="47.4242" lon="16.02932">
        <ele>556.479077</ele>
        <time>2026-07-08T07:47:35.000Z</time>
      </trkpt>
      <trkpt lat="47.42418" lon="16.02931">
        <ele>556.596597</ele>
        <time>2026-07-08T07:47:36.000Z</time>
      </trkpt>
      <trkpt lat="47.42416" lon="16.0293">
        <ele>556.715839</ele>
        <time>2026-07-08T07:47:37.000Z</time>
      </trkpt>
      <trkpt lat="47.42413" lon="16.02929">
        <ele>556.841854</ele>
        <time>2026-07-08T07:47:38.000Z</time>
      </trkpt>
      <trkpt lat="47.42411" lon="16.02927">
        <ele>556.953836</ele>
        <time>2026-07-08T07:47:39.000Z</time>
      </trkpt>
      <trkpt lat="47.42409" lon="16.02926">
        <ele>557.071678</ele>
        <time>2026-07-08T07:47:40.000Z</time>
      </trkpt>
      <trkpt lat="47.42407" lon="16.02925">
        <ele>557.18952</ele>
        <time>2026-07-08T07:47:41.000Z</time>
      </trkpt>
      <trkpt lat="47.42405" lon="16.02923">
        <ele>557.299586</ele>
        <time>2026-07-08T07:47:42.000Z</time>
      </trkpt>
      <trkpt lat="47.42403" lon="16.02922">
        <ele>557.408254</ele>
        <time>2026-07-08T07:47:43.000Z</time>
      </trkpt>
      <trkpt lat="47.42401" lon="16.02921">
        <ele>557.521493</ele>
        <time>2026-07-08T07:47:44.000Z</time>
      </trkpt>
      <trkpt lat="47.42399" lon="16.02919">
        <ele>557.628629</ele>
        <time>2026-07-08T07:47:45.000Z</time>
      </trkpt>
      <trkpt lat="47.42397" lon="16.02917">
        <ele>557.738642</ele>
        <time>2026-07-08T07:47:46.000Z</time>
      </trkpt>
      <trkpt lat="47.42395" lon="16.02915">
        <ele>557.850644</ele>
        <time>2026-07-08T07:47:47.000Z</time>
      </trkpt>
      <trkpt lat="47.42393" lon="16.02913">
        <ele>557.980901</ele>
        <time>2026-07-08T07:47:48.000Z</time>
      </trkpt>
      <trkpt lat="47.42391" lon="16.02911">
        <ele>558.099151</ele>
        <time>2026-07-08T07:47:49.000Z</time>
      </trkpt>
      <trkpt lat="47.42389" lon="16.0291">
        <ele>558.224218</ele>
        <time>2026-07-08T07:47:50.000Z</time>
      </trkpt>
      <trkpt lat="47.42387" lon="16.02908">
        <ele>558.340683</ele>
        <time>2026-07-08T07:47:51.000Z</time>
      </trkpt>
      <trkpt lat="47.42385" lon="16.02906">
        <ele>558.460785</ele>
        <time>2026-07-08T07:47:52.000Z</time>
      </trkpt>
      <trkpt lat="47.42383" lon="16.02904">
        <ele>558.570798</ele>
        <time>2026-07-08T07:47:53.000Z</time>
      </trkpt>
      <trkpt lat="47.42381" lon="16.02902">
        <ele>558.683909</ele>
        <time>2026-07-08T07:47:54.000Z</time>
      </trkpt>
      <trkpt lat="47.42379" lon="16.02901">
        <ele>558.790152</ele>
        <time>2026-07-08T07:47:55.000Z</time>
      </trkpt>
      <trkpt lat="47.42377" lon="16.02899">
        <ele>558.910254</ele>
        <time>2026-07-08T07:47:56.000Z</time>
      </trkpt>
      <trkpt lat="47.42375" lon="16.02897">
        <ele>559.026271</ele>
        <time>2026-07-08T07:47:57.000Z</time>
      </trkpt>
      <trkpt lat="47.42374" lon="16.02895">
        <ele>559.134363</ele>
        <time>2026-07-08T07:47:58.000Z</time>
      </trkpt>
      <trkpt lat="47.42372" lon="16.02893">
        <ele>559.252613</ele>
        <time>2026-07-08T07:47:59.000Z</time>
      </trkpt>
      <trkpt lat="47.4237" lon="16.02891">
        <ele>559.360681</ele>
        <time>2026-07-08T07:48:00.000Z</time>
      </trkpt>
      <trkpt lat="47.42368" lon="16.02889">
        <ele>559.477145</ele>
        <time>2026-07-08T07:48:01.000Z</time>
      </trkpt>
      <trkpt lat="47.42366" lon="16.02887">
        <ele>559.585238</ele>
        <time>2026-07-08T07:48:02.000Z</time>
      </trkpt>
      <trkpt lat="47.42364" lon="16.02885">
        <ele>559.70534</ele>
        <time>2026-07-08T07:48:03.000Z</time>
      </trkpt>
      <trkpt lat="47.42362" lon="16.02883">
        <ele>559.821511</ele>
        <time>2026-07-08T07:48:04.000Z</time>
      </trkpt>
      <trkpt lat="47.4236" lon="16.02881">
        <ele>559.94551</ele>
        <time>2026-07-08T07:48:05.000Z</time>
      </trkpt>
      <trkpt lat="47.42358" lon="16.02879">
        <ele>560.065613</ele>
        <time>2026-07-08T07:48:06.000Z</time>
      </trkpt>
      <trkpt lat="47.42356" lon="16.02877">
        <ele>560.187633</ele>
        <time>2026-07-08T07:48:07.000Z</time>
      </trkpt>
      <trkpt lat="47.42354" lon="16.02875">
        <ele>560.311632</ele>
        <time>2026-07-08T07:48:08.000Z</time>
      </trkpt>
      <trkpt lat="47.42352" lon="16.02872">
        <ele>560.443745</ele>
        <time>2026-07-08T07:48:09.000Z</time>
      </trkpt>
      <trkpt lat="47.4235" lon="16.0287">
        <ele>560.574002</ele>
        <time>2026-07-08T07:48:10.000Z</time>
      </trkpt>
      <trkpt lat="47.42348" lon="16.02868">
        <ele>560.698256</ele>
        <time>2026-07-08T07:48:11.000Z</time>
      </trkpt>
      <trkpt lat="47.42346" lon="16.02866">
        <ele>560.826718</ele>
        <time>2026-07-08T07:48:12.000Z</time>
      </trkpt>
      <trkpt lat="47.42343" lon="16.02864">
        <ele>560.955181</ele>
        <time>2026-07-08T07:48:13.000Z</time>
      </trkpt>
      <trkpt lat="47.42341" lon="16.02862">
        <ele>561.079434</ele>
        <time>2026-07-08T07:48:14.000Z</time>
      </trkpt>
      <trkpt lat="47.42339" lon="16.0286">
        <ele>561.216469</ele>
        <time>2026-07-08T07:48:15.000Z</time>
      </trkpt>
      <trkpt lat="47.42337" lon="16.02858">
        <ele>561.340722</ele>
        <time>2026-07-08T07:48:16.000Z</time>
      </trkpt>
      <trkpt lat="47.42335" lon="16.02856">
        <ele>561.469185</ele>
        <time>2026-07-08T07:48:17.000Z</time>
      </trkpt>
      <trkpt lat="47.42332" lon="16.02854">
        <ele>561.597647</ele>
        <time>2026-07-08T07:48:18.000Z</time>
      </trkpt>
      <trkpt lat="47.4233" lon="16.02852">
        <ele>561.720111</ele>
        <time>2026-07-08T07:48:19.000Z</time>
      </trkpt>
      <trkpt lat="47.42328" lon="16.0285">
        <ele>561.848573</ele>
        <time>2026-07-08T07:48:20.000Z</time>
      </trkpt>
      <trkpt lat="47.42326" lon="16.02848">
        <ele>561.977036</ele>
        <time>2026-07-08T07:48:21.000Z</time>
      </trkpt>
      <trkpt lat="47.42324" lon="16.02846">
        <ele>562.10129</ele>
        <time>2026-07-08T07:48:22.000Z</time>
      </trkpt>
      <trkpt lat="47.42322" lon="16.02844">
        <ele>562.229752</ele>
        <time>2026-07-08T07:48:23.000Z</time>
      </trkpt>
      <trkpt lat="47.42319" lon="16.02842">
        <ele>562.364215</ele>
        <time>2026-07-08T07:48:24.000Z</time>
      </trkpt>
      <trkpt lat="47.42317" lon="16.0284">
        <ele>562.50125</ele>
        <time>2026-07-08T07:48:25.000Z</time>
      </trkpt>
      <trkpt lat="47.42314" lon="16.02838">
        <ele>562.642638</ele>
        <time>2026-07-08T07:48:26.000Z</time>
      </trkpt>
      <trkpt lat="47.42312" lon="16.02836">
        <ele>562.782456</ele>
        <time>2026-07-08T07:48:27.000Z</time>
      </trkpt>
      <trkpt lat="47.42309" lon="16.02835">
        <ele>562.920768</ele>
        <time>2026-07-08T07:48:28.000Z</time>
      </trkpt>
      <trkpt lat="47.42307" lon="16.02833">
        <ele>563.059079</ele>
        <time>2026-07-08T07:48:29.000Z</time>
      </trkpt>
      <trkpt lat="47.42305" lon="16.02831">
        <ele>563.19534</ele>
        <time>2026-07-08T07:48:30.000Z</time>
      </trkpt>
      <trkpt lat="47.42302" lon="16.02829">
        <ele>563.336729</ele>
        <time>2026-07-08T07:48:31.000Z</time>
      </trkpt>
      <trkpt lat="47.423" lon="16.02827">
        <ele>563.478118</ele>
        <time>2026-07-08T07:48:32.000Z</time>
      </trkpt>
      <trkpt lat="47.42297" lon="16.02825">
        <ele>563.619506</ele>
        <time>2026-07-08T07:48:33.000Z</time>
      </trkpt>
      <trkpt lat="47.42294" lon="16.02823">
        <ele>563.770062</ele>
        <time>2026-07-08T07:48:34.000Z</time>
      </trkpt>
      <trkpt lat="47.42291" lon="16.02822">
        <ele>563.920788</ele>
        <time>2026-07-08T07:48:35.000Z</time>
      </trkpt>
      <trkpt lat="47.42289" lon="16.0282">
        <ele>564.072654</ele>
        <time>2026-07-08T07:48:36.000Z</time>
      </trkpt>
      <trkpt lat="47.42286" lon="16.02818">
        <ele>564.095337</ele>
        <time>2026-07-08T07:48:37.000Z</time>
      </trkpt>
      <trkpt lat="47.42283" lon="16.02816">
        <ele>564.020703</ele>
        <time>2026-07-08T07:48:38.000Z</time>
      </trkpt>
      <trkpt lat="47.4228" lon="16.02813">
        <ele>563.942426</ele>
        <time>2026-07-08T07:48:39.000Z</time>
      </trkpt>
      <trkpt lat="47.42276" lon="16.0281">
        <ele>563.861047</ele>
        <time>2026-07-08T07:48:40.000Z</time>
      </trkpt>
      <trkpt lat="47.42273" lon="16.02807">
        <ele>563.779286</ele>
        <time>2026-07-08T07:48:41.000Z</time>
      </trkpt>
      <trkpt lat="47.4227" lon="16.02805">
        <ele>563.696412</ele>
        <time>2026-07-08T07:48:42.000Z</time>
      </trkpt>
      <trkpt lat="47.42267" lon="16.02802">
        <ele>563.611962</ele>
        <time>2026-07-08T07:48:43.000Z</time>
      </trkpt>
      <trkpt lat="47.42264" lon="16.02798">
        <ele>563.529512</ele>
        <time>2026-07-08T07:48:44.000Z</time>
      </trkpt>
      <trkpt lat="47.42261" lon="16.02795">
        <ele>563.446935</ele>
        <time>2026-07-08T07:48:45.000Z</time>
      </trkpt>
      <trkpt lat="47.42258" lon="16.02792">
        <ele>563.357312</ele>
        <time>2026-07-08T07:48:46.000Z</time>
      </trkpt>
      <trkpt lat="47.42254" lon="16.02788">
        <ele>563.268595</ele>
        <time>2026-07-08T07:48:47.000Z</time>
      </trkpt>
      <trkpt lat="47.42251" lon="16.02784">
        <ele>563.179556</ele>
        <time>2026-07-08T07:48:48.000Z</time>
      </trkpt>
      <trkpt lat="47.42248" lon="16.0278">
        <ele>563.086424</ele>
        <time>2026-07-08T07:48:49.000Z</time>
      </trkpt>
      <trkpt lat="47.42245" lon="16.02776">
        <ele>562.989591</ele>
        <time>2026-07-08T07:48:50.000Z</time>
      </trkpt>
      <trkpt lat="47.42242" lon="16.02771">
        <ele>562.891155</ele>
        <time>2026-07-08T07:48:51.000Z</time>
      </trkpt>
      <trkpt lat="47.42239" lon="16.02766">
        <ele>562.785835</ele>
        <time>2026-07-08T07:48:52.000Z</time>
      </trkpt>
      <trkpt lat="47.42235" lon="16.02761">
        <ele>562.675709</ele>
        <time>2026-07-08T07:48:53.000Z</time>
      </trkpt>
      <trkpt lat="47.42232" lon="16.02755">
        <ele>562.563073</ele>
        <time>2026-07-08T07:48:54.000Z</time>
      </trkpt>
      <trkpt lat="47.42229" lon="16.02748">
        <ele>562.444432</ele>
        <time>2026-07-08T07:48:55.000Z</time>
      </trkpt>
      <trkpt lat="47.42226" lon="16.02741">
        <ele>562.317051</ele>
        <time>2026-07-08T07:48:56.000Z</time>
      </trkpt>
      <trkpt lat="47.42223" lon="16.02734">
        <ele>562.179673</ele>
        <time>2026-07-08T07:48:57.000Z</time>
      </trkpt>
      <trkpt lat="47.42219" lon="16.02726">
        <ele>562.029801</ele>
        <time>2026-07-08T07:48:58.000Z</time>
      </trkpt>
      <trkpt lat="47.42215" lon="16.02717">
        <ele>561.873277</ele>
        <time>2026-07-08T07:48:59.000Z</time>
      </trkpt>
      <trkpt lat="47.42212" lon="16.02707">
        <ele>561.705135</ele>
        <time>2026-07-08T07:49:00.000Z</time>
      </trkpt>
      <trkpt lat="47.42208" lon="16.02697">
        <ele>561.528477</ele>
        <time>2026-07-08T07:49:01.000Z</time>
      </trkpt>
      <trkpt lat="47.42204" lon="16.02686">
        <ele>561.34415</ele>
        <time>2026-07-08T07:49:02.000Z</time>
      </trkpt>
      <trkpt lat="47.422" lon="16.02675">
        <ele>561.152595</ele>
        <time>2026-07-08T07:49:03.000Z</time>
      </trkpt>
      <trkpt lat="47.42195" lon="16.02664">
        <ele>560.954888</ele>
        <time>2026-07-08T07:49:04.000Z</time>
      </trkpt>
      <trkpt lat="47.42191" lon="16.02652">
        <ele>560.754124</ele>
        <time>2026-07-08T07:49:05.000Z</time>
      </trkpt>
      <trkpt lat="47.42186" lon="16.0264">
        <ele>560.547251</ele>
        <time>2026-07-08T07:49:06.000Z</time>
      </trkpt>
      <trkpt lat="47.42182" lon="16.02628">
        <ele>560.336409</ele>
        <time>2026-07-08T07:49:07.000Z</time>
      </trkpt>
      <trkpt lat="47.42177" lon="16.02615">
        <ele>560.113621</ele>
        <time>2026-07-08T07:49:08.000Z</time>
      </trkpt>
      <trkpt lat="47.42172" lon="16.02603">
        <ele>559.503753</ele>
        <time>2026-07-08T07:49:09.000Z</time>
      </trkpt>
      <trkpt lat="47.42168" lon="16.02591">
        <ele>558.900882</ele>
        <time>2026-07-08T07:49:10.000Z</time>
      </trkpt>
      <trkpt lat="47.42163" lon="16.02579">
        <ele>558.29858</ele>
        <time>2026-07-08T07:49:11.000Z</time>
      </trkpt>
      <trkpt lat="47.42158" lon="16.02568">
        <ele>557.700047</ele>
        <time>2026-07-08T07:49:12.000Z</time>
      </trkpt>
      <trkpt lat="47.42154" lon="16.02556">
        <ele>557.107965</ele>
        <time>2026-07-08T07:49:13.000Z</time>
      </trkpt>
      <trkpt lat="47.42149" lon="16.02544">
        <ele>556.508892</ele>
        <time>2026-07-08T07:49:14.000Z</time>
      </trkpt>
      <trkpt lat="47.42145" lon="16.02532">
        <ele>555.921621</ele>
        <time>2026-07-08T07:49:15.000Z</time>
      </trkpt>
      <trkpt lat="47.4214" lon="16.02521">
        <ele>555.341816</ele>
        <time>2026-07-08T07:49:16.000Z</time>
      </trkpt>
      <trkpt lat="47.42135" lon="16.0251">
        <ele>554.762559</ele>
        <time>2026-07-08T07:49:17.000Z</time>
      </trkpt>
      <trkpt lat="47.42129" lon="16.02499">
        <ele>554.163259</ele>
        <time>2026-07-08T07:49:18.000Z</time>
      </trkpt>
      <trkpt lat="47.42122" lon="16.0249">
        <ele>553.554274</ele>
        <time>2026-07-08T07:49:19.000Z</time>
      </trkpt>
      <trkpt lat="47.42115" lon="16.0248">
        <ele>552.91961</ele>
        <time>2026-07-08T07:49:20.000Z</time>
      </trkpt>
      <trkpt lat="47.42106" lon="16.02472">
        <ele>552.250626</ele>
        <time>2026-07-08T07:49:21.000Z</time>
      </trkpt>
      <trkpt lat="47.42096" lon="16.02465">
        <ele>551.55325</ele>
        <time>2026-07-08T07:49:22.000Z</time>
      </trkpt>
      <trkpt lat="47.42086" lon="16.02459">
        <ele>550.829073</ele>
        <time>2026-07-08T07:49:23.000Z</time>
      </trkpt>
      <trkpt lat="47.42075" lon="16.02454">
        <ele>550.080659</ele>
        <time>2026-07-08T07:49:24.000Z</time>
      </trkpt>
      <trkpt lat="47.42063" lon="16.0245">
        <ele>549.312108</ele>
        <time>2026-07-08T07:49:25.000Z</time>
      </trkpt>
      <trkpt lat="47.42051" lon="16.02446">
        <ele>548.499807</ele>
        <time>2026-07-08T07:49:26.000Z</time>
      </trkpt>
      <trkpt lat="47.42039" lon="16.02441">
        <ele>547.490634</ele>
        <time>2026-07-08T07:49:27.000Z</time>
      </trkpt>
      <trkpt lat="47.42026" lon="16.02437">
        <ele>546.437437</ele>
        <time>2026-07-08T07:49:28.000Z</time>
      </trkpt>
      <trkpt lat="47.42013" lon="16.02432">
        <ele>545.371553</ele>
        <time>2026-07-08T07:49:29.000Z</time>
      </trkpt>
      <trkpt lat="47.42" lon="16.02427">
        <ele>544.30567</ele>
        <time>2026-07-08T07:49:30.000Z</time>
      </trkpt>
      <trkpt lat="47.41987" lon="16.02423">
        <ele>543.244701</ele>
        <time>2026-07-08T07:49:31.000Z</time>
      </trkpt>
      <trkpt lat="47.41974" lon="16.02419">
        <ele>542.204911</ele>
        <time>2026-07-08T07:49:32.000Z</time>
      </trkpt>
      <trkpt lat="47.41961" lon="16.02416">
        <ele>541.173983</ele>
        <time>2026-07-08T07:49:33.000Z</time>
      </trkpt>
      <trkpt lat="47.41949" lon="16.02412">
        <ele>540.150868</ele>
        <time>2026-07-08T07:49:34.000Z</time>
      </trkpt>
      <trkpt lat="47.41936" lon="16.02408">
        <ele>539.120969</ele>
        <time>2026-07-08T07:49:35.000Z</time>
      </trkpt>
      <trkpt lat="47.41923" lon="16.02405">
        <ele>538.08706</ele>
        <time>2026-07-08T07:49:36.000Z</time>
      </trkpt>
      <trkpt lat="47.41911" lon="16.02401">
        <ele>537.11077</ele>
        <time>2026-07-08T07:49:37.000Z</time>
      </trkpt>
      <trkpt lat="47.419" lon="16.02395">
        <ele>536.161978</ele>
        <time>2026-07-08T07:49:38.000Z</time>
      </trkpt>
      <trkpt lat="47.4189" lon="16.02389">
        <ele>535.248965</ele>
        <time>2026-07-08T07:49:39.000Z</time>
      </trkpt>
      <trkpt lat="47.4188" lon="16.0238">
        <ele>534.352057</ele>
        <time>2026-07-08T07:49:40.000Z</time>
      </trkpt>
      <trkpt lat="47.4187" lon="16.02372">
        <ele>534.397694</ele>
        <time>2026-07-08T07:49:41.000Z</time>
      </trkpt>
      <trkpt lat="47.41862" lon="16.02364">
        <ele>534.650383</ele>
        <time>2026-07-08T07:49:42.000Z</time>
      </trkpt>
      <trkpt lat="47.41853" lon="16.02356">
        <ele>534.892111</ele>
        <time>2026-07-08T07:49:43.000Z</time>
      </trkpt>
      <trkpt lat="47.41846" lon="16.02347">
        <ele>535.125902</ele>
        <time>2026-07-08T07:49:44.000Z</time>
      </trkpt>
      <trkpt lat="47.41839" lon="16.02339">
        <ele>535.338632</ele>
        <time>2026-07-08T07:49:45.000Z</time>
      </trkpt>
      <trkpt lat="47.41833" lon="16.02331">
        <ele>535.529577</ele>
        <time>2026-07-08T07:49:46.000Z</time>
      </trkpt>
      <trkpt lat="47.41828" lon="16.02323">
        <ele>535.700259</ele>
        <time>2026-07-08T07:49:47.000Z</time>
      </trkpt>
      <trkpt lat="47.41824" lon="16.02317">
        <ele>535.852165</ele>
        <time>2026-07-08T07:49:48.000Z</time>
      </trkpt>
      <trkpt lat="47.4182" lon="16.0231">
        <ele>535.990314</ele>
        <time>2026-07-08T07:49:49.000Z</time>
      </trkpt>
      <trkpt lat="47.41817" lon="16.02304">
        <ele>536.113335</ele>
        <time>2026-07-08T07:49:50.000Z</time>
      </trkpt>
      <trkpt lat="47.41814" lon="16.02298">
        <ele>536.229731</ele>
        <time>2026-07-08T07:49:51.000Z</time>
      </trkpt>
      <trkpt lat="47.41812" lon="16.02292">
        <ele>536.33665</ele>
        <time>2026-07-08T07:49:52.000Z</time>
      </trkpt>
      <trkpt lat="47.4181" lon="16.02287">
        <ele>536.434898</ele>
        <time>2026-07-08T07:49:53.000Z</time>
      </trkpt>
      <trkpt lat="47.41809" lon="16.02281">
        <ele>536.531683</ele>
        <time>2026-07-08T07:49:54.000Z</time>
      </trkpt>
      <trkpt lat="47.41807" lon="16.02276">
        <ele>536.624543</ele>
        <time>2026-07-08T07:49:55.000Z</time>
      </trkpt>
      <trkpt lat="47.41806" lon="16.02271">
        <ele>536.721328</ele>
        <time>2026-07-08T07:49:56.000Z</time>
      </trkpt>
      <trkpt lat="47.41805" lon="16.02265">
        <ele>536.819502</ele>
        <time>2026-07-08T07:49:57.000Z</time>
      </trkpt>
      <trkpt lat="47.41803" lon="16.02259">
        <ele>536.91613</ele>
        <time>2026-07-08T07:49:58.000Z</time>
      </trkpt>
      <trkpt lat="47.41802" lon="16.02254">
        <ele>537.015101</ele>
        <time>2026-07-08T07:49:59.000Z</time>
      </trkpt>
      <trkpt lat="47.41801" lon="16.02248">
        <ele>537.111842</ele>
        <time>2026-07-08T07:50:00.000Z</time>
      </trkpt>
      <trkpt lat="47.41799" lon="16.02242">
        <ele>537.20928</ele>
        <time>2026-07-08T07:50:01.000Z</time>
      </trkpt>
      <trkpt lat="47.41798" lon="16.02236">
        <ele>537.310553</ele>
        <time>2026-07-08T07:50:02.000Z</time>
      </trkpt>
      <trkpt lat="47.41797" lon="16.02231">
        <ele>537.411895</ele>
        <time>2026-07-08T07:50:03.000Z</time>
      </trkpt>
      <trkpt lat="47.41795" lon="16.02225">
        <ele>537.510069</ele>
        <time>2026-07-08T07:50:04.000Z</time>
      </trkpt>
      <trkpt lat="47.41794" lon="16.02219">
        <ele>537.605978</ele>
        <time>2026-07-08T07:50:05.000Z</time>
      </trkpt>
      <trkpt lat="47.41792" lon="16.02214">
        <ele>537.699743</ele>
        <time>2026-07-08T07:50:06.000Z</time>
      </trkpt>
      <trkpt lat="47.41791" lon="16.02209">
        <ele>537.787167</ele>
        <time>2026-07-08T07:50:07.000Z</time>
      </trkpt>
      <trkpt lat="47.4179" lon="16.02205">
        <ele>537.867026</ele>
        <time>2026-07-08T07:50:08.000Z</time>
      </trkpt>
      <trkpt lat="47.41789" lon="16.02201">
        <ele>537.936625</ele>
        <time>2026-07-08T07:50:09.000Z</time>
      </trkpt>
      <trkpt lat="47.41788" lon="16.02196">
        <ele>538.005851</ele>
        <time>2026-07-08T07:50:10.000Z</time>
      </trkpt>
      <trkpt lat="47.41789" lon="16.02193">
        <ele>538.065418</ele>
        <time>2026-07-08T07:50:11.000Z</time>
      </trkpt>
      <trkpt lat="47.4179" lon="16.02189">
        <ele>538.124986</ele>
        <time>2026-07-08T07:50:12.000Z</time>
      </trkpt>
      <trkpt lat="47.4179" lon="16.02186">
        <ele>538.17564</ele>
        <time>2026-07-08T07:50:13.000Z</time>
      </trkpt>
      <trkpt lat="47.41789" lon="16.02184">
        <ele>538.223747</ele>
        <time>2026-07-08T07:50:14.000Z</time>
      </trkpt>
      <trkpt lat="47.41788" lon="16.02182">
        <ele>538.270354</ele>
        <time>2026-07-08T07:50:15.000Z</time>
      </trkpt>
      <trkpt lat="47.41785" lon="16.0218">
        <ele>538.330353</ele>
        <time>2026-07-08T07:50:16.000Z</time>
      </trkpt>
      <trkpt lat="47.41783" lon="16.02179">
        <ele>538.398849</ele>
        <time>2026-07-08T07:50:17.000Z</time>
      </trkpt>
      <trkpt lat="47.4178" lon="16.02177">
        <ele>538.464933</ele>
        <time>2026-07-08T07:50:18.000Z</time>
      </trkpt>
      <trkpt lat="47.41778" lon="16.02173">
        <ele>538.511599</ele>
        <time>2026-07-08T07:50:19.000Z</time>
      </trkpt>
      <trkpt lat="47.41777" lon="16.02169">
        <ele>538.448209</ele>
        <time>2026-07-08T07:50:20.000Z</time>
      </trkpt>
      <trkpt lat="47.41775" lon="16.02165">
        <ele>538.380356</ele>
        <time>2026-07-08T07:50:21.000Z</time>
      </trkpt>
      <trkpt lat="47.41773" lon="16.0216">
        <ele>538.307277</ele>
        <time>2026-07-08T07:50:22.000Z</time>
      </trkpt>
      <trkpt lat="47.41771" lon="16.02155">
        <ele>538.234294</ele>
        <time>2026-07-08T07:50:23.000Z</time>
      </trkpt>
      <trkpt lat="47.4177" lon="16.0215">
        <ele>538.159872</ele>
        <time>2026-07-08T07:50:24.000Z</time>
      </trkpt>
      <trkpt lat="47.41768" lon="16.02145">
        <ele>538.083094</ele>
        <time>2026-07-08T07:50:25.000Z</time>
      </trkpt>
      <trkpt lat="47.41766" lon="16.0214">
        <ele>538.000924</ele>
        <time>2026-07-08T07:50:26.000Z</time>
      </trkpt>
      <trkpt lat="47.41764" lon="16.02134">
        <ele>537.914491</ele>
        <time>2026-07-08T07:50:27.000Z</time>
      </trkpt>
      <trkpt lat="47.41761" lon="16.02128">
        <ele>537.823401</ele>
        <time>2026-07-08T07:50:28.000Z</time>
      </trkpt>
      <trkpt lat="47.41759" lon="16.02122">
        <ele>537.727064</ele>
        <time>2026-07-08T07:50:29.000Z</time>
      </trkpt>
      <trkpt lat="47.41757" lon="16.02116">
        <ele>537.631513</ele>
        <time>2026-07-08T07:50:30.000Z</time>
      </trkpt>
      <trkpt lat="47.41754" lon="16.02109">
        <ele>537.533604</ele>
        <time>2026-07-08T07:50:31.000Z</time>
      </trkpt>
      <trkpt lat="47.41752" lon="16.02102">
        <ele>537.430048</ele>
        <time>2026-07-08T07:50:32.000Z</time>
      </trkpt>
      <trkpt lat="47.41749" lon="16.02095">
        <ele>537.323214</ele>
        <time>2026-07-08T07:50:33.000Z</time>
      </trkpt>
      <trkpt lat="47.41747" lon="16.02088">
        <ele>537.210044</ele>
        <time>2026-07-08T07:50:34.000Z</time>
      </trkpt>
      <trkpt lat="47.41744" lon="16.0208">
        <ele>537.095708</ele>
        <time>2026-07-08T07:50:35.000Z</time>
      </trkpt>
      <trkpt lat="47.41741" lon="16.02073">
        <ele>536.97595</ele>
        <time>2026-07-08T07:50:36.000Z</time>
      </trkpt>
      <trkpt lat="47.41738" lon="16.02065">
        <ele>536.853864</ele>
        <time>2026-07-08T07:50:37.000Z</time>
      </trkpt>
      <trkpt lat="47.41735" lon="16.02056">
        <ele>536.7268</ele>
        <time>2026-07-08T07:50:38.000Z</time>
      </trkpt>
      <trkpt lat="47.41732" lon="16.02047">
        <ele>536.596463</ele>
        <time>2026-07-08T07:50:39.000Z</time>
      </trkpt>
      <trkpt lat="47.41729" lon="16.02039">
        <ele>536.464935</ele>
        <time>2026-07-08T07:50:40.000Z</time>
      </trkpt>
      <trkpt lat="47.41726" lon="16.02029">
        <ele>536.325946</ele>
        <time>2026-07-08T07:50:41.000Z</time>
      </trkpt>
      <trkpt lat="47.41722" lon="16.0202">
        <ele>536.179634</ele>
        <time>2026-07-08T07:50:42.000Z</time>
      </trkpt>
      <trkpt lat="47.41718" lon="16.0201">
        <ele>536.032329</ele>
        <time>2026-07-08T07:50:43.000Z</time>
      </trkpt>
      <trkpt lat="47.41714" lon="16.02001">
        <ele>535.876423</ele>
        <time>2026-07-08T07:50:44.000Z</time>
      </trkpt>
      <trkpt lat="47.41709" lon="16.01991">
        <ele>535.713902</ele>
        <time>2026-07-08T07:50:45.000Z</time>
      </trkpt>
      <trkpt lat="47.41705" lon="16.0198">
        <ele>535.55137</ele>
        <time>2026-07-08T07:50:46.000Z</time>
      </trkpt>
      <trkpt lat="47.417" lon="16.0197">
        <ele>535.385402</ele>
        <time>2026-07-08T07:50:47.000Z</time>
      </trkpt>
      <trkpt lat="47.41694" lon="16.01961">
        <ele>535.21988</ele>
        <time>2026-07-08T07:50:48.000Z</time>
      </trkpt>
      <trkpt lat="47.41687" lon="16.01953">
        <ele>535.053015</ele>
        <time>2026-07-08T07:50:49.000Z</time>
      </trkpt>
      <trkpt lat="47.41681" lon="16.01946">
        <ele>535.128392</ele>
        <time>2026-07-08T07:50:50.000Z</time>
      </trkpt>
      <trkpt lat="47.41674" lon="16.01939">
        <ele>535.413487</ele>
        <time>2026-07-08T07:50:51.000Z</time>
      </trkpt>
      <trkpt lat="47.41668" lon="16.01932">
        <ele>535.690202</ele>
        <time>2026-07-08T07:50:52.000Z</time>
      </trkpt>
      <trkpt lat="47.41662" lon="16.01925">
        <ele>535.960235</ele>
        <time>2026-07-08T07:50:53.000Z</time>
      </trkpt>
      <trkpt lat="47.41656" lon="16.01917">
        <ele>536.223851</ele>
        <time>2026-07-08T07:50:54.000Z</time>
      </trkpt>
      <trkpt lat="47.41651" lon="16.0191">
        <ele>536.46806</ele>
        <time>2026-07-08T07:50:55.000Z</time>
      </trkpt>
      <trkpt lat="47.41647" lon="16.01902">
        <ele>536.700277</ele>
        <time>2026-07-08T07:50:56.000Z</time>
      </trkpt>
      <trkpt lat="47.41644" lon="16.01894">
        <ele>536.917811</ele>
        <time>2026-07-08T07:50:57.000Z</time>
      </trkpt>
      <trkpt lat="47.41642" lon="16.01886">
        <ele>537.117523</ele>
        <time>2026-07-08T07:50:58.000Z</time>
      </trkpt>
      <trkpt lat="47.41642" lon="16.01878">
        <ele>537.3059</ele>
        <time>2026-07-08T07:50:59.000Z</time>
      </trkpt>
      <trkpt lat="47.41643" lon="16.0187">
        <ele>537.483087</ele>
        <time>2026-07-08T07:51:00.000Z</time>
      </trkpt>
      <trkpt lat="47.41644" lon="16.01864">
        <ele>537.644701</ele>
        <time>2026-07-08T07:51:01.000Z</time>
      </trkpt>
      <trkpt lat="47.41646" lon="16.01858">
        <ele>537.812636</ele>
        <time>2026-07-08T07:51:02.000Z</time>
      </trkpt>
      <trkpt lat="47.41649" lon="16.01853">
        <ele>537.969749</ele>
        <time>2026-07-08T07:51:03.000Z</time>
      </trkpt>
      <trkpt lat="47.41652" lon="16.01848">
        <ele>538.114959</ele>
        <time>2026-07-08T07:51:04.000Z</time>
      </trkpt>
      <trkpt lat="47.41655" lon="16.01845">
        <ele>538.249092</ele>
        <time>2026-07-08T07:51:05.000Z</time>
      </trkpt>
      <trkpt lat="47.41659" lon="16.01842">
        <ele>538.382037</ele>
        <time>2026-07-08T07:51:06.000Z</time>
      </trkpt>
      <trkpt lat="47.41661" lon="16.01839">
        <ele>538.500838</ele>
        <time>2026-07-08T07:51:07.000Z</time>
      </trkpt>
      <trkpt lat="47.41664" lon="16.01836">
        <ele>538.615444</ele>
        <time>2026-07-08T07:51:08.000Z</time>
      </trkpt>
      <trkpt lat="47.41667" lon="16.01833">
        <ele>538.73005</ele>
        <time>2026-07-08T07:51:09.000Z</time>
      </trkpt>
      <trkpt lat="47.41669" lon="16.01831">
        <ele>538.837827</ele>
        <time>2026-07-08T07:51:10.000Z</time>
      </trkpt>
      <trkpt lat="47.41672" lon="16.01828">
        <ele>538.942708</ele>
        <time>2026-07-08T07:51:11.000Z</time>
      </trkpt>
      <trkpt lat="47.41674" lon="16.01826">
        <ele>539.050296</ele>
        <time>2026-07-08T07:51:12.000Z</time>
      </trkpt>
      <trkpt lat="47.41677" lon="16.01823">
        <ele>539.156538</ele>
        <time>2026-07-08T07:51:13.000Z</time>
      </trkpt>
      <trkpt lat="47.41679" lon="16.0182">
        <ele>539.253892</ele>
        <time>2026-07-08T07:51:14.000Z</time>
      </trkpt>
      <trkpt lat="47.41681" lon="16.01817">
        <ele>539.349931</ele>
        <time>2026-07-08T07:51:15.000Z</time>
      </trkpt>
      <trkpt lat="47.41682" lon="16.01813">
        <ele>539.449324</ele>
        <time>2026-07-08T07:51:16.000Z</time>
      </trkpt>
      <trkpt lat="47.41684" lon="16.0181">
        <ele>539.543194</ele>
        <time>2026-07-08T07:51:17.000Z</time>
      </trkpt>
      <trkpt lat="47.41685" lon="16.01806">
        <ele>539.632517</ele>
        <time>2026-07-08T07:51:18.000Z</time>
      </trkpt>
      <trkpt lat="47.41685" lon="16.01803">
        <ele>539.719373</ele>
        <time>2026-07-08T07:51:19.000Z</time>
      </trkpt>
      <trkpt lat="47.41686" lon="16.018">
        <ele>539.804384</ele>
        <time>2026-07-08T07:51:20.000Z</time>
      </trkpt>
      <trkpt lat="47.41687" lon="16.01796">
        <ele>539.885693</ele>
        <time>2026-07-08T07:51:21.000Z</time>
      </trkpt>
      <trkpt lat="47.41687" lon="16.01793">
        <ele>539.961248</ele>
        <time>2026-07-08T07:51:22.000Z</time>
      </trkpt>
      <trkpt lat="47.41687" lon="16.0179">
        <ele>540.03178</ele>
        <time>2026-07-08T07:51:23.000Z</time>
      </trkpt>
      <trkpt lat="47.41687" lon="16.01787">
        <ele>540.103669</ele>
        <time>2026-07-08T07:51:24.000Z</time>
      </trkpt>
      <trkpt lat="47.41687" lon="16.01784">
        <ele>540.17032</ele>
        <time>2026-07-08T07:51:25.000Z</time>
      </trkpt>
      <trkpt lat="47.41686" lon="16.01781">
        <ele>540.239294</ele>
        <time>2026-07-08T07:51:26.000Z</time>
      </trkpt>
      <trkpt lat="47.41686" lon="16.01779">
        <ele>540.306575</ele>
        <time>2026-07-08T07:51:27.000Z</time>
      </trkpt>
      <trkpt lat="47.41686" lon="16.01776">
        <ele>540.37015</ele>
        <time>2026-07-08T07:51:28.000Z</time>
      </trkpt>
      <trkpt lat="47.41686" lon="16.01773">
        <ele>540.436346</ele>
        <time>2026-07-08T07:51:29.000Z</time>
      </trkpt>
      <trkpt lat="47.41685" lon="16.0177">
        <ele>540.502997</ele>
        <time>2026-07-08T07:51:30.000Z</time>
      </trkpt>
      <trkpt lat="47.41685" lon="16.01767">
        <ele>540.575386</ele>
        <time>2026-07-08T07:51:31.000Z</time>
      </trkpt>
      <trkpt lat="47.41684" lon="16.01765">
        <ele>540.637397</ele>
        <time>2026-07-08T07:51:32.000Z</time>
      </trkpt>
      <trkpt lat="47.41684" lon="16.01762">
        <ele>540.709286</ele>
        <time>2026-07-08T07:51:33.000Z</time>
      </trkpt>
      <trkpt lat="47.41683" lon="16.01759">
        <ele>540.7751</ele>
        <time>2026-07-08T07:51:34.000Z</time>
      </trkpt>
      <trkpt lat="47.41683" lon="16.01756">
        <ele>540.844152</ele>
        <time>2026-07-08T07:51:35.000Z</time>
      </trkpt>
      <trkpt lat="47.41682" lon="16.01754">
        <ele>540.905443</ele>
        <time>2026-07-08T07:51:36.000Z</time>
      </trkpt>
      <trkpt lat="47.41682" lon="16.01751">
        <ele>540.971257</ele>
        <time>2026-07-08T07:51:37.000Z</time>
      </trkpt>
      <trkpt lat="47.41681" lon="16.01748">
        <ele>541.039237</ele>
        <time>2026-07-08T07:51:38.000Z</time>
      </trkpt>
      <trkpt lat="47.41681" lon="16.01746">
        <ele>541.107321</ele>
        <time>2026-07-08T07:51:39.000Z</time>
      </trkpt>
      <trkpt lat="47.4168" lon="16.01743">
        <ele>541.177501</ele>
        <time>2026-07-08T07:51:40.000Z</time>
      </trkpt>
      <trkpt lat="47.41679" lon="16.0174">
        <ele>541.256821</ele>
        <time>2026-07-08T07:51:41.000Z</time>
      </trkpt>
      <trkpt lat="47.41679" lon="16.01737">
        <ele>541.353632</ele>
        <time>2026-07-08T07:51:42.000Z</time>
      </trkpt>
      <trkpt lat="47.41678" lon="16.01735">
        <ele>541.447203</ele>
        <time>2026-07-08T07:51:43.000Z</time>
      </trkpt>
      <trkpt lat="47.41677" lon="16.01732">
        <ele>541.540682</ele>
        <time>2026-07-08T07:51:44.000Z</time>
      </trkpt>
      <trkpt lat="47.41677" lon="16.0173">
        <ele>541.63531</ele>
        <time>2026-07-08T07:51:45.000Z</time>
      </trkpt>
      <trkpt lat="47.41677" lon="16.01727">
        <ele>541.732121</ele>
        <time>2026-07-08T07:51:46.000Z</time>
      </trkpt>
      <trkpt lat="47.41676" lon="16.01724">
        <ele>541.822279</ele>
        <time>2026-07-08T07:51:47.000Z</time>
      </trkpt>
      <trkpt lat="47.41675" lon="16.01722">
        <ele>541.909499</ele>
        <time>2026-07-08T07:51:48.000Z</time>
      </trkpt>
      <trkpt lat="47.41675" lon="16.0172">
        <ele>541.999657</ele>
        <time>2026-07-08T07:51:49.000Z</time>
      </trkpt>
      <trkpt lat="47.41674" lon="16.01717">
        <ele>542.083205</ele>
        <time>2026-07-08T07:51:50.000Z</time>
      </trkpt>
      <trkpt lat="47.41674" lon="16.01715">
        <ele>542.180016</ele>
        <time>2026-07-08T07:51:51.000Z</time>
      </trkpt>
      <trkpt lat="47.41673" lon="16.01712">
        <ele>542.271754</ele>
        <time>2026-07-08T07:51:52.000Z</time>
      </trkpt>
      <trkpt lat="47.41673" lon="16.0171">
        <ele>542.355302</ele>
        <time>2026-07-08T07:51:53.000Z</time>
      </trkpt>
      <trkpt lat="47.41672" lon="16.01707">
        <ele>542.44546</ele>
        <time>2026-07-08T07:51:54.000Z</time>
      </trkpt>
      <trkpt lat="47.41672" lon="16.01705">
        <ele>542.535618</ele>
        <time>2026-07-08T07:51:55.000Z</time>
      </trkpt>
      <trkpt lat="47.41671" lon="16.01702">
        <ele>542.632429</ele>
        <time>2026-07-08T07:51:56.000Z</time>
      </trkpt>
      <trkpt lat="47.41671" lon="16.01699">
        <ele>542.732426</ele>
        <time>2026-07-08T07:51:57.000Z</time>
      </trkpt>
      <trkpt lat="47.4167" lon="16.01697">
        <ele>542.825906</ele>
        <time>2026-07-08T07:51:58.000Z</time>
      </trkpt>
      <trkpt lat="47.41669" lon="16.01694">
        <ele>542.925902</ele>
        <time>2026-07-08T07:51:59.000Z</time>
      </trkpt>
      <trkpt lat="47.41669" lon="16.01691">
        <ele>543.024186</ele>
        <time>2026-07-08T07:52:00.000Z</time>
      </trkpt>
      <trkpt lat="47.41668" lon="16.01689">
        <ele>543.12742</ele>
        <time>2026-07-08T07:52:01.000Z</time>
      </trkpt>
      <trkpt lat="47.41668" lon="16.01686">
        <ele>543.217578</ele>
        <time>2026-07-08T07:52:02.000Z</time>
      </trkpt>
      <trkpt lat="47.41667" lon="16.01684">
        <ele>543.301126</ele>
        <time>2026-07-08T07:52:03.000Z</time>
      </trkpt>
      <trkpt lat="47.41666" lon="16.01681">
        <ele>543.391511</ele>
        <time>2026-07-08T07:52:04.000Z</time>
      </trkpt>
      <trkpt lat="47.41666" lon="16.01679">
        <ele>543.474857</ele>
        <time>2026-07-08T07:52:05.000Z</time>
      </trkpt>
      <trkpt lat="47.41665" lon="16.01677">
        <ele>543.565241</ele>
        <time>2026-07-08T07:52:06.000Z</time>
      </trkpt>
      <trkpt lat="47.41664" lon="16.01675">
        <ele>543.648789</ele>
        <time>2026-07-08T07:52:07.000Z</time>
      </trkpt>
      <trkpt lat="47.41664" lon="16.01672">
        <ele>543.740527</ele>
        <time>2026-07-08T07:52:08.000Z</time>
      </trkpt>
      <trkpt lat="47.41663" lon="16.01669">
        <ele>543.837339</ele>
        <time>2026-07-08T07:52:09.000Z</time>
      </trkpt>
      <trkpt lat="47.41663" lon="16.01667">
        <ele>543.929553</ele>
        <time>2026-07-08T07:52:10.000Z</time>
      </trkpt>
      <trkpt lat="47.41662" lon="16.01664">
        <ele>544.019711</ele>
        <time>2026-07-08T07:52:11.000Z</time>
      </trkpt>
      <trkpt lat="47.41662" lon="16.01662">
        <ele>544.106558</ele>
        <time>2026-07-08T07:52:12.000Z</time>
      </trkpt>
      <trkpt lat="47.41662" lon="16.0166">
        <ele>544.180786</ele>
        <time>2026-07-08T07:52:13.000Z</time>
      </trkpt>
      <trkpt lat="47.41661" lon="16.01657">
        <ele>544.271171</ele>
        <time>2026-07-08T07:52:14.000Z</time>
      </trkpt>
      <trkpt lat="47.4166" lon="16.01655">
        <ele>544.356421</ele>
        <time>2026-07-08T07:52:15.000Z</time>
      </trkpt>
      <trkpt lat="47.4166" lon="16.01653">
        <ele>544.449992</ele>
        <time>2026-07-08T07:52:16.000Z</time>
      </trkpt>
      <trkpt lat="47.41659" lon="16.0165">
        <ele>544.534069</ele>
        <time>2026-07-08T07:52:17.000Z</time>
      </trkpt>
      <trkpt lat="47.41658" lon="16.01648">
        <ele>544.61932</ele>
        <time>2026-07-08T07:52:18.000Z</time>
      </trkpt>
      <trkpt lat="47.41658" lon="16.01646">
        <ele>544.697193</ele>
        <time>2026-07-08T07:52:19.000Z</time>
      </trkpt>
      <trkpt lat="47.41657" lon="16.01644">
        <ele>544.786631</ele>
        <time>2026-07-08T07:52:20.000Z</time>
      </trkpt>
      <trkpt lat="47.41656" lon="16.01641">
        <ele>544.877015</ele>
        <time>2026-07-08T07:52:21.000Z</time>
      </trkpt>
      <trkpt lat="47.41656" lon="16.01639">
        <ele>544.954007</ele>
        <time>2026-07-08T07:52:22.000Z</time>
      </trkpt>
      <trkpt lat="47.41655" lon="16.01637">
        <ele>545.044392</ele>
        <time>2026-07-08T07:52:23.000Z</time>
      </trkpt>
      <trkpt lat="47.41654" lon="16.01635">
        <ele>545.129643</ele>
        <time>2026-07-08T07:52:24.000Z</time>
      </trkpt>
      <trkpt lat="47.41654" lon="16.01632">
        <ele>545.21372</ele>
        <time>2026-07-08T07:52:25.000Z</time>
      </trkpt>
      <trkpt lat="47.41653" lon="16.0163">
        <ele>545.297268</ele>
        <time>2026-07-08T07:52:26.000Z</time>
      </trkpt>
      <trkpt lat="47.41653" lon="16.01628">
        <ele>545.380817</ele>
        <time>2026-07-08T07:52:27.000Z</time>
      </trkpt>
      <trkpt lat="47.41652" lon="16.01626">
        <ele>545.461167</ele>
        <time>2026-07-08T07:52:28.000Z</time>
      </trkpt>
      <trkpt lat="47.41651" lon="16.01624">
        <ele>545.545244</ele>
        <time>2026-07-08T07:52:29.000Z</time>
      </trkpt>
      <trkpt lat="47.4165" lon="16.01621">
        <ele>545.629322</ele>
        <time>2026-07-08T07:52:30.000Z</time>
      </trkpt>
      <trkpt lat="47.4165" lon="16.01619">
        <ele>545.709672</ele>
        <time>2026-07-08T07:52:31.000Z</time>
      </trkpt>
      <trkpt lat="47.41649" lon="16.01617">
        <ele>545.790022</ele>
        <time>2026-07-08T07:52:32.000Z</time>
      </trkpt>
      <trkpt lat="47.41648" lon="16.01615">
        <ele>545.870983</ele>
        <time>2026-07-08T07:52:33.000Z</time>
      </trkpt>
      <trkpt lat="47.41648" lon="16.01613">
        <ele>545.951246</ele>
        <time>2026-07-08T07:52:34.000Z</time>
      </trkpt>
      <trkpt lat="47.41647" lon="16.01611">
        <ele>546.041404</ele>
        <time>2026-07-08T07:52:35.000Z</time>
      </trkpt>
      <trkpt lat="47.41647" lon="16.01608">
        <ele>546.122413</ele>
        <time>2026-07-08T07:52:36.000Z</time>
      </trkpt>
      <trkpt lat="47.41646" lon="16.01606">
        <ele>546.212798</ele>
        <time>2026-07-08T07:52:37.000Z</time>
      </trkpt>
      <trkpt lat="47.41646" lon="16.01604">
        <ele>546.28979</ele>
        <time>2026-07-08T07:52:38.000Z</time>
      </trkpt>
      <trkpt lat="47.41645" lon="16.01601">
        <ele>546.376637</ele>
        <time>2026-07-08T07:52:39.000Z</time>
      </trkpt>
      <trkpt lat="47.41644" lon="16.01599">
        <ele>546.471186</ele>
        <time>2026-07-08T07:52:40.000Z</time>
      </trkpt>
      <trkpt lat="47.41643" lon="16.01597">
        <ele>546.557562</ele>
        <time>2026-07-08T07:52:41.000Z</time>
      </trkpt>
      <trkpt lat="47.41642" lon="16.01595">
        <ele>546.646371</ele>
        <time>2026-07-08T07:52:42.000Z</time>
      </trkpt>
      <trkpt lat="47.41641" lon="16.01593">
        <ele>546.738029</ele>
        <time>2026-07-08T07:52:43.000Z</time>
      </trkpt>
      <trkpt lat="47.4164" lon="16.0159">
        <ele>546.829688</ele>
        <time>2026-07-08T07:52:44.000Z</time>
      </trkpt>
      <trkpt lat="47.41639" lon="16.01588">
        <ele>546.921575</ele>
        <time>2026-07-08T07:52:45.000Z</time>
      </trkpt>
      <trkpt lat="47.41639" lon="16.01586">
        <ele>547.006826</ele>
        <time>2026-07-08T07:52:46.000Z</time>
      </trkpt>
      <trkpt lat="47.41638" lon="16.01583">
        <ele>547.104762</ele>
        <time>2026-07-08T07:52:47.000Z</time>
      </trkpt>
      <trkpt lat="47.41637" lon="16.01581">
        <ele>547.1965</ele>
        <time>2026-07-08T07:52:48.000Z</time>
      </trkpt>
      <trkpt lat="47.41637" lon="16.01578">
        <ele>547.286885</ele>
        <time>2026-07-08T07:52:49.000Z</time>
      </trkpt>
      <trkpt lat="47.41636" lon="16.01576">
        <ele>547.380456</ele>
        <time>2026-07-08T07:52:50.000Z</time>
      </trkpt>
      <trkpt lat="47.41635" lon="16.01573">
        <ele>547.476098</ele>
        <time>2026-07-08T07:52:51.000Z</time>
      </trkpt>
      <trkpt lat="47.41634" lon="16.01571">
        <ele>547.574877</ele>
        <time>2026-07-08T07:52:52.000Z</time>
      </trkpt>
      <trkpt lat="47.41633" lon="16.01568">
        <ele>547.681328</ele>
        <time>2026-07-08T07:52:53.000Z</time>
      </trkpt>
      <trkpt lat="47.41632" lon="16.01565">
        <ele>547.787778</ele>
        <time>2026-07-08T07:52:54.000Z</time>
      </trkpt>
      <trkpt lat="47.41631" lon="16.01563">
        <ele>547.902403</ele>
        <time>2026-07-08T07:52:55.000Z</time>
      </trkpt>
      <trkpt lat="47.4163" lon="16.0156">
        <ele>548.017029</ele>
        <time>2026-07-08T07:52:56.000Z</time>
      </trkpt>
      <trkpt lat="47.41628" lon="16.01557">
        <ele>548.146034</ele>
        <time>2026-07-08T07:52:57.000Z</time>
      </trkpt>
      <trkpt lat="47.41627" lon="16.01554">
        <ele>548.280665</ele>
        <time>2026-07-08T07:52:58.000Z</time>
      </trkpt>
      <trkpt lat="47.41626" lon="16.0155">
        <ele>548.412726</ele>
        <time>2026-07-08T07:52:59.000Z</time>
      </trkpt>
      <trkpt lat="47.41624" lon="16.01547">
        <ele>548.556008</ele>
        <time>2026-07-08T07:53:00.000Z</time>
      </trkpt>
      <trkpt lat="47.41622" lon="16.01543">
        <ele>548.716451</ele>
        <time>2026-07-08T07:53:01.000Z</time>
      </trkpt>
      <trkpt lat="47.41621" lon="16.01539">
        <ele>548.885477</ele>
        <time>2026-07-08T07:53:02.000Z</time>
      </trkpt>
      <trkpt lat="47.41619" lon="16.01534">
        <ele>549.068795</ele>
        <time>2026-07-08T07:53:03.000Z</time>
      </trkpt>
      <trkpt lat="47.41616" lon="16.01529">
        <ele>549.277891</ele>
        <time>2026-07-08T07:53:04.000Z</time>
      </trkpt>
      <trkpt lat="47.41614" lon="16.01524">
        <ele>549.504227</ele>
        <time>2026-07-08T07:53:05.000Z</time>
      </trkpt>
      <trkpt lat="47.41611" lon="16.01518">
        <ele>549.753558</ele>
        <time>2026-07-08T07:53:06.000Z</time>
      </trkpt>
      <trkpt lat="47.41609" lon="16.01511">
        <ele>550.029219</ele>
        <time>2026-07-08T07:53:07.000Z</time>
      </trkpt>
      <trkpt lat="47.41606" lon="16.01504">
        <ele>550.31089</ele>
        <time>2026-07-08T07:53:08.000Z</time>
      </trkpt>
      <trkpt lat="47.41603" lon="16.01496">
        <ele>550.243489</ele>
        <time>2026-07-08T07:53:09.000Z</time>
      </trkpt>
      <trkpt lat="47.416" lon="16.01488">
        <ele>549.959774</ele>
        <time>2026-07-08T07:53:10.000Z</time>
      </trkpt>
      <trkpt lat="47.41596" lon="16.0148">
        <ele>549.663629</ele>
        <time>2026-07-08T07:53:11.000Z</time>
      </trkpt>
      <trkpt lat="47.41592" lon="16.01471">
        <ele>549.352468</ele>
        <time>2026-07-08T07:53:12.000Z</time>
      </trkpt>
      <trkpt lat="47.41589" lon="16.01462">
        <ele>549.03065</ele>
        <time>2026-07-08T07:53:13.000Z</time>
      </trkpt>
      <trkpt lat="47.41585" lon="16.01452">
        <ele>548.691581</ele>
        <time>2026-07-08T07:53:14.000Z</time>
      </trkpt>
      <trkpt lat="47.41581" lon="16.01442">
        <ele>548.339816</ele>
        <time>2026-07-08T07:53:15.000Z</time>
      </trkpt>
      <trkpt lat="47.41577" lon="16.01432">
        <ele>547.981032</ele>
        <time>2026-07-08T07:53:16.000Z</time>
      </trkpt>
      <trkpt lat="47.41573" lon="16.01422">
        <ele>547.618786</ele>
        <time>2026-07-08T07:53:17.000Z</time>
      </trkpt>
      <trkpt lat="47.41568" lon="16.01411">
        <ele>547.241583</ele>
        <time>2026-07-08T07:53:18.000Z</time>
      </trkpt>
      <trkpt lat="47.41564" lon="16.014">
        <ele>546.843715</ele>
        <time>2026-07-08T07:53:19.000Z</time>
      </trkpt>
      <trkpt lat="47.4156" lon="16.01388">
        <ele>546.433552</ele>
        <time>2026-07-08T07:53:20.000Z</time>
      </trkpt>
      <trkpt lat="47.41555" lon="16.01376">
        <ele>546.013691</ele>
        <time>2026-07-08T07:53:21.000Z</time>
      </trkpt>
      <trkpt lat="47.4155" lon="16.01363">
        <ele>545.5811</ele>
        <time>2026-07-08T07:53:22.000Z</time>
      </trkpt>
      <trkpt lat="47.41545" lon="16.01351">
        <ele>545.14324</ele>
        <time>2026-07-08T07:53:23.000Z</time>
      </trkpt>
      <trkpt lat="47.41541" lon="16.01337">
        <ele>544.683503</ele>
        <time>2026-07-08T07:53:24.000Z</time>
      </trkpt>
      <trkpt lat="47.41536" lon="16.01323">
        <ele>544.21793</ele>
        <time>2026-07-08T07:53:25.000Z</time>
      </trkpt>
      <trkpt lat="47.41532" lon="16.01308">
        <ele>543.723831</ele>
        <time>2026-07-08T07:53:26.000Z</time>
      </trkpt>
      <trkpt lat="47.41527" lon="16.01293">
        <ele>543.218646</ele>
        <time>2026-07-08T07:53:27.000Z</time>
      </trkpt>
      <trkpt lat="47.41523" lon="16.01277">
        <ele>542.69954</ele>
        <time>2026-07-08T07:53:28.000Z</time>
      </trkpt>
      <trkpt lat="47.41518" lon="16.01261">
        <ele>542.085402</ele>
        <time>2026-07-08T07:53:29.000Z</time>
      </trkpt>
      <trkpt lat="47.41514" lon="16.01244">
        <ele>541.315322</ele>
        <time>2026-07-08T07:53:30.000Z</time>
      </trkpt>
      <trkpt lat="47.4151" lon="16.01228">
        <ele>540.551537</ele>
        <time>2026-07-08T07:53:31.000Z</time>
      </trkpt>
      <trkpt lat="47.41505" lon="16.01211">
        <ele>539.777911</ele>
        <time>2026-07-08T07:53:32.000Z</time>
      </trkpt>
      <trkpt lat="47.41501" lon="16.01194">
        <ele>539.010494</ele>
        <time>2026-07-08T07:53:33.000Z</time>
      </trkpt>
      <trkpt lat="47.41497" lon="16.01177">
        <ele>538.244928</ele>
        <time>2026-07-08T07:53:34.000Z</time>
      </trkpt>
      <trkpt lat="47.41493" lon="16.01161">
        <ele>537.487412</ele>
        <time>2026-07-08T07:53:35.000Z</time>
      </trkpt>
      <trkpt lat="47.41488" lon="16.01145">
        <ele>536.738894</ele>
        <time>2026-07-08T07:53:36.000Z</time>
      </trkpt>
      <trkpt lat="47.41484" lon="16.01128">
        <ele>535.983126</ele>
        <time>2026-07-08T07:53:37.000Z</time>
      </trkpt>
      <trkpt lat="47.41481" lon="16.01112">
        <ele>535.243792</ele>
        <time>2026-07-08T07:53:38.000Z</time>
      </trkpt>
      <trkpt lat="47.41478" lon="16.01096">
        <ele>534.533984</ele>
        <time>2026-07-08T07:53:39.000Z</time>
      </trkpt>
      <trkpt lat="47.41477" lon="16.0108">
        <ele>533.82954</ele>
        <time>2026-07-08T07:53:40.000Z</time>
      </trkpt>
      <trkpt lat="47.41475" lon="16.01063">
        <ele>533.126929</ele>
        <time>2026-07-08T07:53:41.000Z</time>
      </trkpt>
      <trkpt lat="47.41474" lon="16.01048">
        <ele>532.44373</ele>
        <time>2026-07-08T07:53:42.000Z</time>
      </trkpt>
      <trkpt lat="47.41473" lon="16.01032">
        <ele>531.761831</ele>
        <time>2026-07-08T07:53:43.000Z</time>
      </trkpt>
      <trkpt lat="47.41472" lon="16.01016">
        <ele>531.083585</ele>
        <time>2026-07-08T07:53:44.000Z</time>
      </trkpt>
      <trkpt lat="47.41471" lon="16.01001">
        <ele>530.538155</ele>
        <time>2026-07-08T07:53:45.000Z</time>
      </trkpt>
      <trkpt lat="47.41469" lon="16.00985">
        <ele>530.034306</ele>
        <time>2026-07-08T07:53:46.000Z</time>
      </trkpt>
      <trkpt lat="47.41468" lon="16.0097">
        <ele>529.53427</ele>
        <time>2026-07-08T07:53:47.000Z</time>
      </trkpt>
      <trkpt lat="47.41467" lon="16.00955">
        <ele>529.031455</ele>
        <time>2026-07-08T07:53:48.000Z</time>
      </trkpt>
      <trkpt lat="47.41466" lon="16.0094">
        <ele>528.532909</ele>
        <time>2026-07-08T07:53:49.000Z</time>
      </trkpt>
      <trkpt lat="47.41465" lon="16.00925">
        <ele>528.035004</ele>
        <time>2026-07-08T07:53:50.000Z</time>
      </trkpt>
      <trkpt lat="47.41463" lon="16.0091">
        <ele>527.537099</ele>
        <time>2026-07-08T07:53:51.000Z</time>
      </trkpt>
      <trkpt lat="47.41462" lon="16.00895">
        <ele>527.039788</ele>
        <time>2026-07-08T07:53:52.000Z</time>
      </trkpt>
      <trkpt lat="47.41461" lon="16.0088">
        <ele>526.542477</ele>
        <time>2026-07-08T07:53:53.000Z</time>
      </trkpt>
      <trkpt lat="47.4146" lon="16.00865">
        <ele>526.047075</ele>
        <time>2026-07-08T07:53:54.000Z</time>
      </trkpt>
      <trkpt lat="47.4146" lon="16.0085">
        <ele>525.55957</ele>
        <time>2026-07-08T07:53:55.000Z</time>
      </trkpt>
      <trkpt lat="47.4146" lon="16.00836">
        <ele>525.074965</ele>
        <time>2026-07-08T07:53:56.000Z</time>
      </trkpt>
      <trkpt lat="47.41461" lon="16.00821">
        <ele>524.595971</ele>
        <time>2026-07-08T07:53:57.000Z</time>
      </trkpt>
      <trkpt lat="47.41462" lon="16.00807">
        <ele>524.120918</ele>
        <time>2026-07-08T07:53:58.000Z</time>
      </trkpt>
      <trkpt lat="47.41464" lon="16.00793">
        <ele>523.647724</ele>
        <time>2026-07-08T07:53:59.000Z</time>
      </trkpt>
      <trkpt lat="47.41466" lon="16.00779">
        <ele>523.188157</ele>
        <time>2026-07-08T07:54:00.000Z</time>
      </trkpt>
      <trkpt lat="47.41469" lon="16.00766">
        <ele>522.755297</ele>
        <time>2026-07-08T07:54:01.000Z</time>
      </trkpt>
      <trkpt lat="47.41472" lon="16.00756">
        <ele>522.36514</ele>
        <time>2026-07-08T07:54:02.000Z</time>
      </trkpt>
      <trkpt lat="47.41476" lon="16.00746">
        <ele>522.192066</ele>
        <time>2026-07-08T07:54:03.000Z</time>
      </trkpt>
      <trkpt lat="47.4148" lon="16.00738">
        <ele>522.184526</ele>
        <time>2026-07-08T07:54:04.000Z</time>
      </trkpt>
      <trkpt lat="47.41485" lon="16.00731">
        <ele>522.177081</ele>
        <time>2026-07-08T07:54:05.000Z</time>
      </trkpt>
      <trkpt lat="47.4149" lon="16.00723">
        <ele>522.169713</ele>
        <time>2026-07-08T07:54:06.000Z</time>
      </trkpt>
      <trkpt lat="47.41495" lon="16.00717">
        <ele>522.162779</ele>
        <time>2026-07-08T07:54:07.000Z</time>
      </trkpt>
      <trkpt lat="47.41501" lon="16.00714">
        <ele>522.156737</ele>
        <time>2026-07-08T07:54:08.000Z</time>
      </trkpt>
      <trkpt lat="47.41507" lon="16.00711">
        <ele>522.149782</ele>
        <time>2026-07-08T07:54:09.000Z</time>
      </trkpt>
      <trkpt lat="47.41513" lon="16.00708">
        <ele>522.142839</ele>
        <time>2026-07-08T07:54:10.000Z</time>
      </trkpt>
      <trkpt lat="47.4152" lon="16.00706">
        <ele>522.135665</ele>
        <time>2026-07-08T07:54:11.000Z</time>
      </trkpt>
      <trkpt lat="47.41526" lon="16.00705">
        <ele>522.129275</ele>
        <time>2026-07-08T07:54:12.000Z</time>
      </trkpt>
      <trkpt lat="47.41532" lon="16.00703">
        <ele>522.12254</ele>
        <time>2026-07-08T07:54:13.000Z</time>
      </trkpt>
      <trkpt lat="47.41538" lon="16.00703">
        <ele>522.116498</ele>
        <time>2026-07-08T07:54:14.000Z</time>
      </trkpt>
      <trkpt lat="47.41543" lon="16.00702">
        <ele>522.111085</ele>
        <time>2026-07-08T07:54:15.000Z</time>
      </trkpt>
      <trkpt lat="47.41548" lon="16.00701">
        <ele>522.10577</ele>
        <time>2026-07-08T07:54:16.000Z</time>
      </trkpt>
      <trkpt lat="47.41553" lon="16.00699">
        <ele>522.100178</ele>
        <time>2026-07-08T07:54:17.000Z</time>
      </trkpt>
      <trkpt lat="47.41558" lon="16.00698">
        <ele>522.094794</ele>
        <time>2026-07-08T07:54:18.000Z</time>
      </trkpt>
      <trkpt lat="47.41563" lon="16.00697">
        <ele>522.089668</ele>
        <time>2026-07-08T07:54:19.000Z</time>
      </trkpt>
      <trkpt lat="47.41568" lon="16.00695">
        <ele>522.084525</ele>
        <time>2026-07-08T07:54:20.000Z</time>
      </trkpt>
      <trkpt lat="47.41572" lon="16.00693">
        <ele>522.079299</ele>
        <time>2026-07-08T07:54:21.000Z</time>
      </trkpt>
      <trkpt lat="47.41577" lon="16.00691">
        <ele>522.074297</ele>
        <time>2026-07-08T07:54:22.000Z</time>
      </trkpt>
      <trkpt lat="47.41581" lon="16.00689">
        <ele>522.069272</ele>
        <time>2026-07-08T07:54:23.000Z</time>
      </trkpt>
      <trkpt lat="47.41586" lon="16.00686">
        <ele>522.064269</ele>
        <time>2026-07-08T07:54:24.000Z</time>
      </trkpt>
      <trkpt lat="47.4159" lon="16.00684">
        <ele>522.05939</ele>
        <time>2026-07-08T07:54:25.000Z</time>
      </trkpt>
      <trkpt lat="47.41595" lon="16.00683">
        <ele>522.054692</ele>
        <time>2026-07-08T07:54:26.000Z</time>
      </trkpt>
      <trkpt lat="47.41599" lon="16.00681">
        <ele>522.050236</ele>
        <time>2026-07-08T07:54:27.000Z</time>
      </trkpt>
      <trkpt lat="47.41602" lon="16.00679">
        <ele>522.046146</ele>
        <time>2026-07-08T07:54:28.000Z</time>
      </trkpt>
      <trkpt lat="47.41606" lon="16.00677">
        <ele>522.042136</ele>
        <time>2026-07-08T07:54:29.000Z</time>
      </trkpt>
      <trkpt lat="47.41609" lon="16.00675">
        <ele>522.038225</ele>
        <time>2026-07-08T07:54:30.000Z</time>
      </trkpt>
      <trkpt lat="47.41613" lon="16.00674">
        <ele>522.03448</ele>
        <time>2026-07-08T07:54:31.000Z</time>
      </trkpt>
      <trkpt lat="47.41616" lon="16.00673">
        <ele>522.031098</ele>
        <time>2026-07-08T07:54:32.000Z</time>
      </trkpt>
      <trkpt lat="47.41619" lon="16.00672">
        <ele>522.027439</ele>
        <time>2026-07-08T07:54:33.000Z</time>
      </trkpt>
      <trkpt lat="47.41623" lon="16.00671">
        <ele>522.023677</ele>
        <time>2026-07-08T07:54:34.000Z</time>
      </trkpt>
      <trkpt lat="47.41626" lon="16.0067">
        <ele>522.020432</ele>
        <time>2026-07-08T07:54:35.000Z</time>
      </trkpt>
      <trkpt lat="47.41629" lon="16.00669">
        <ele>522.017392</ele>
        <time>2026-07-08T07:54:36.000Z</time>
      </trkpt>
      <trkpt lat="47.41631" lon="16.00668">
        <ele>522.014352</ele>
        <time>2026-07-08T07:54:37.000Z</time>
      </trkpt>
      <trkpt lat="47.41634" lon="16.00667">
        <ele>522.01177</ele>
        <time>2026-07-08T07:54:38.000Z</time>
      </trkpt>
      <trkpt lat="47.41636" lon="16.00666">
        <ele>522.009219</ele>
        <time>2026-07-08T07:54:39.000Z</time>
      </trkpt>
      <trkpt lat="47.41639" lon="16.00665">
        <ele>522.006454</ele>
        <time>2026-07-08T07:54:40.000Z</time>
      </trkpt>
      <trkpt lat="47.41641" lon="16.00664">
        <ele>522.007275</ele>
        <time>2026-07-08T07:54:41.000Z</time>
      </trkpt>
      <trkpt lat="47.41644" lon="16.00662">
        <ele>522.00805</ele>
        <time>2026-07-08T07:54:42.000Z</time>
      </trkpt>
      <trkpt lat="47.41646" lon="16.0066">
        <ele>522.008787</ele>
        <time>2026-07-08T07:54:43.000Z</time>
      </trkpt>
      <trkpt lat="47.41648" lon="16.00658">
        <ele>522.009549</ele>
        <time>2026-07-08T07:54:44.000Z</time>
      </trkpt>
      <trkpt lat="47.4165" lon="16.00656">
        <ele>522.010322</ele>
        <time>2026-07-08T07:54:45.000Z</time>
      </trkpt>
      <trkpt lat="47.41652" lon="16.00653">
        <ele>522.011064</ele>
        <time>2026-07-08T07:54:46.000Z</time>
      </trkpt>
      <trkpt lat="47.41654" lon="16.0065">
        <ele>522.01187</ele>
        <time>2026-07-08T07:54:47.000Z</time>
      </trkpt>
      <trkpt lat="47.41656" lon="16.00647">
        <ele>522.01267</ele>
        <time>2026-07-08T07:54:48.000Z</time>
      </trkpt>
      <trkpt lat="47.41657" lon="16.00644">
        <ele>522.013498</ele>
        <time>2026-07-08T07:54:49.000Z</time>
      </trkpt>
      <trkpt lat="47.41659" lon="16.00641">
        <ele>522.014268</ele>
        <time>2026-07-08T07:54:50.000Z</time>
      </trkpt>
      <trkpt lat="47.41661" lon="16.00638">
        <ele>522.015054</ele>
        <time>2026-07-08T07:54:51.000Z</time>
      </trkpt>
      <trkpt lat="47.41663" lon="16.00636">
        <ele>522.015818</ele>
        <time>2026-07-08T07:54:52.000Z</time>
      </trkpt>
      <trkpt lat="47.41664" lon="16.00633">
        <ele>522.016534</ele>
        <time>2026-07-08T07:54:53.000Z</time>
      </trkpt>
      <trkpt lat="47.41666" lon="16.0063">
        <ele>522.017195</ele>
        <time>2026-07-08T07:54:54.000Z</time>
      </trkpt>
      <trkpt lat="47.41667" lon="16.00627">
        <ele>522.017961</ele>
        <time>2026-07-08T07:54:55.000Z</time>
      </trkpt>
      <trkpt lat="47.41669" lon="16.00625">
        <ele>522.01869</ele>
        <time>2026-07-08T07:54:56.000Z</time>
      </trkpt>
      <trkpt lat="47.41671" lon="16.00623">
        <ele>522.019391</ele>
        <time>2026-07-08T07:54:57.000Z</time>
      </trkpt>
      <trkpt lat="47.41672" lon="16.00621">
        <ele>522.019901</ele>
        <time>2026-07-08T07:54:58.000Z</time>
      </trkpt>
      <trkpt lat="47.41673" lon="16.0062">
        <ele>522.020252</ele>
        <time>2026-07-08T07:54:59.000Z</time>
      </trkpt>
      <trkpt lat="47.41673" lon="16.00618">
        <ele>522.020545</ele>
        <time>2026-07-08T07:55:00.000Z</time>
      </trkpt>
      <trkpt lat="47.41672" lon="16.00618">
        <ele>522.020864</ele>
        <time>2026-07-08T07:55:01.000Z</time>
      </trkpt>
      <trkpt lat="47.41674" lon="16.00609">
        <ele>522.022767</ele>
        <time>2026-07-08T07:55:52.000Z</time>
      </trkpt>
      <trkpt lat="47.41674" lon="16.00604">
        <ele>522.023669</ele>
        <time>2026-07-08T07:55:53.000Z</time>
      </trkpt>
      <trkpt lat="47.41675" lon="16.00599">
        <ele>522.024615</ele>
        <time>2026-07-08T07:55:54.000Z</time>
      </trkpt>
      <trkpt lat="47.41675" lon="16.00595">
        <ele>522.025573</ele>
        <time>2026-07-08T07:55:55.000Z</time>
      </trkpt>
      <trkpt lat="47.41674" lon="16.0059">
        <ele>522.026494</ele>
        <time>2026-07-08T07:55:56.000Z</time>
      </trkpt>
      <trkpt lat="47.41673" lon="16.00587">
        <ele>522.027223</ele>
        <time>2026-07-08T07:55:57.000Z</time>
      </trkpt>
      <trkpt lat="47.41673" lon="16.00585">
        <ele>522.02757</ele>
        <time>2026-07-08T07:55:58.000Z</time>
      </trkpt>
      <trkpt lat="47.41672" lon="16.00585">
        <ele>522.027748</ele>
        <time>2026-07-08T07:55:59.000Z</time>
      </trkpt>
      <trkpt lat="47.41672" lon="16.00584">
        <ele>522.02782</ele>
        <time>2026-07-08T07:56:00.000Z</time>
      </trkpt>
      <trkpt lat="47.41674" lon="16.00585">
        <ele>522.028327</ele>
        <time>2026-07-08T07:56:10.000Z</time>
      </trkpt>
      <trkpt lat="47.41674" lon="16.00585">
        <ele>522.028486</ele>
        <time>2026-07-08T07:56:11.000Z</time>
      </trkpt>
      <trkpt lat="47.41674" lon="16.00585">
        <ele>522.028516</ele>
        <time>2026-07-08T07:56:12.000Z</time>
      </trkpt>
      <trkpt lat="47.41675" lon="16.00585">
        <ele>522.028587</ele>
        <time>2026-07-08T07:56:13.000Z</time>
      </trkpt>
      <trkpt lat="47.41666" lon="16.00579">
        <ele>522.031243</ele>
        <time>2026-07-08T08:01:33.000Z</time>
      </trkpt>
      <trkpt lat="47.41665" lon="16.00577">
        <ele>522.031805</ele>
        <time>2026-07-08T08:01:34.000Z</time>
      </trkpt>
      <trkpt lat="47.41664" lon="16.00574">
        <ele>522.032497</ele>
        <time>2026-07-08T08:01:35.000Z</time>
      </trkpt>
      <trkpt lat="47.41664" lon="16.0057">
        <ele>522.033276</ele>
        <time>2026-07-08T08:01:36.000Z</time>
      </trkpt>
      <trkpt lat="47.41663" lon="16.00565">
        <ele>522.034221</ele>
        <time>2026-07-08T08:01:37.000Z</time>
      </trkpt>
      <trkpt lat="47.41663" lon="16.0056">
        <ele>522.035239</ele>
        <time>2026-07-08T08:01:38.000Z</time>
      </trkpt>
      <trkpt lat="47.41664" lon="16.00555">
        <ele>522.036327</ele>
        <time>2026-07-08T08:01:39.000Z</time>
      </trkpt>
      <trkpt lat="47.41664" lon="16.00549">
        <ele>522.037498</ele>
        <time>2026-07-08T08:01:40.000Z</time>
      </trkpt>
      <trkpt lat="47.41665" lon="16.00543">
        <ele>522.038725</ele>
        <time>2026-07-08T08:01:41.000Z</time>
      </trkpt>
      <trkpt lat="47.41666" lon="16.00537">
        <ele>522.039984</ele>
        <time>2026-07-08T08:01:42.000Z</time>
      </trkpt>
      <trkpt lat="47.41667" lon="16.00531">
        <ele>522.041258</ele>
        <time>2026-07-08T08:01:43.000Z</time>
      </trkpt>
      <trkpt lat="47.41667" lon="16.00524">
        <ele>522.042627</ele>
        <time>2026-07-08T08:01:44.000Z</time>
      </trkpt>
      <trkpt lat="47.41668" lon="16.00517">
        <ele>522.044029</ele>
        <time>2026-07-08T08:01:45.000Z</time>
      </trkpt>
      <trkpt lat="47.41669" lon="16.0051">
        <ele>522.045466</ele>
        <time>2026-07-08T08:01:46.000Z</time>
      </trkpt>
      <trkpt lat="47.4167" lon="16.00502">
        <ele>522.046992</ele>
        <time>2026-07-08T08:01:47.000Z</time>
      </trkpt>
      <trkpt lat="47.41671" lon="16.00495">
        <ele>522.048556</ele>
        <time>2026-07-08T08:01:48.000Z</time>
      </trkpt>
      <trkpt lat="47.41672" lon="16.00487">
        <ele>522.050141</ele>
        <time>2026-07-08T08:01:49.000Z</time>
      </trkpt>
      <trkpt lat="47.41673" lon="16.00479">
        <ele>522.051804</ele>
        <time>2026-07-08T08:01:50.000Z</time>
      </trkpt>
      <trkpt lat="47.41674" lon="16.0047">
        <ele>522.053473</ele>
        <time>2026-07-08T08:01:51.000Z</time>
      </trkpt>
      <trkpt lat="47.41674" lon="16.00462">
        <ele>522.055172</ele>
        <time>2026-07-08T08:01:52.000Z</time>
      </trkpt>
      <trkpt lat="47.41674" lon="16.00453">
        <ele>522.056849</ele>
        <time>2026-07-08T08:01:53.000Z</time>
      </trkpt>
      <trkpt lat="47.41674" lon="16.00445">
        <ele>522.058508</ele>
        <time>2026-07-08T08:01:54.000Z</time>
      </trkpt>
      <trkpt lat="47.41673" lon="16.00436">
        <ele>522.029645</ele>
        <time>2026-07-08T08:01:55.000Z</time>
      </trkpt>
      <trkpt lat="47.41672" lon="16.00428">
        <ele>521.960571</ele>
        <time>2026-07-08T08:01:56.000Z</time>
      </trkpt>
      <trkpt lat="47.41671" lon="16.00419">
        <ele>521.890354</ele>
        <time>2026-07-08T08:01:57.000Z</time>
      </trkpt>
      <trkpt lat="47.4167" lon="16.0041">
        <ele>521.820137</ele>
        <time>2026-07-08T08:01:58.000Z</time>
      </trkpt>
      <trkpt lat="47.41669" lon="16.00402">
        <ele>521.750528</ele>
        <time>2026-07-08T08:01:59.000Z</time>
      </trkpt>
      <trkpt lat="47.41667" lon="16.00394">
        <ele>521.683445</ele>
        <time>2026-07-08T08:02:00.000Z</time>
      </trkpt>
      <trkpt lat="47.41664" lon="16.00386">
        <ele>521.61459</ele>
        <time>2026-07-08T08:02:01.000Z</time>
      </trkpt>
      <trkpt lat="47.41661" lon="16.00379">
        <ele>521.545335</ele>
        <time>2026-07-08T08:02:02.000Z</time>
      </trkpt>
      <trkpt lat="47.41657" lon="16.00374">
        <ele>521.479993</ele>
        <time>2026-07-08T08:02:03.000Z</time>
      </trkpt>
      <trkpt lat="47.41652" lon="16.0037">
        <ele>521.411778</ele>
        <time>2026-07-08T08:02:04.000Z</time>
      </trkpt>
      <trkpt lat="47.41646" lon="16.00367">
        <ele>521.344113</ele>
        <time>2026-07-08T08:02:05.000Z</time>
      </trkpt>
      <trkpt lat="47.4164" lon="16.00366">
        <ele>521.272915</ele>
        <time>2026-07-08T08:02:06.000Z</time>
      </trkpt>
      <trkpt lat="47.41634" lon="16.00366">
        <ele>521.199969</ele>
        <time>2026-07-08T08:02:07.000Z</time>
      </trkpt>
      <trkpt lat="47.41628" lon="16.00365">
        <ele>521.128128</ele>
        <time>2026-07-08T08:02:08.000Z</time>
      </trkpt>
      <trkpt lat="47.41622" lon="16.00365">
        <ele>521.057461</ele>
        <time>2026-07-08T08:02:09.000Z</time>
      </trkpt>
      <trkpt lat="47.41616" lon="16.00364">
        <ele>520.984485</ele>
        <time>2026-07-08T08:02:10.000Z</time>
      </trkpt>
      <trkpt lat="47.4161" lon="16.00364">
        <ele>520.913925</ele>
        <time>2026-07-08T08:02:11.000Z</time>
      </trkpt>
      <trkpt lat="47.41604" lon="16.00365">
        <ele>520.84333</ele>
        <time>2026-07-08T08:02:12.000Z</time>
      </trkpt>
      <trkpt lat="47.41598" lon="16.00365">
        <ele>520.77626</ele>
        <time>2026-07-08T08:02:13.000Z</time>
      </trkpt>
      <trkpt lat="47.41592" lon="16.00365">
        <ele>520.707941</ele>
        <time>2026-07-08T08:02:14.000Z</time>
      </trkpt>
      <trkpt lat="47.41587" lon="16.00366">
        <ele>520.643246</ele>
        <time>2026-07-08T08:02:15.000Z</time>
      </trkpt>
      <trkpt lat="47.41581" lon="16.00366">
        <ele>520.5762</ele>
        <time>2026-07-08T08:02:16.000Z</time>
      </trkpt>
      <trkpt lat="47.41575" lon="16.00366">
        <ele>520.51152</ele>
        <time>2026-07-08T08:02:17.000Z</time>
      </trkpt>
      <trkpt lat="47.4157" lon="16.00366">
        <ele>520.446767</ele>
        <time>2026-07-08T08:02:18.000Z</time>
      </trkpt>
      <trkpt lat="47.41564" lon="16.00367">
        <ele>520.380742</ele>
        <time>2026-07-08T08:02:19.000Z</time>
      </trkpt>
      <trkpt lat="47.41559" lon="16.00368">
        <ele>520.315366</ele>
        <time>2026-07-08T08:02:20.000Z</time>
      </trkpt>
      <trkpt lat="47.41553" lon="16.0037">
        <ele>520.250271</ele>
        <time>2026-07-08T08:02:21.000Z</time>
      </trkpt>
      <trkpt lat="47.41548" lon="16.00372">
        <ele>520.18485</ele>
        <time>2026-07-08T08:02:22.000Z</time>
      </trkpt>
      <trkpt lat="47.41543" lon="16.00375">
        <ele>520.121393</ele>
        <time>2026-07-08T08:02:23.000Z</time>
      </trkpt>
      <trkpt lat="47.41538" lon="16.00379">
        <ele>520.059505</ele>
        <time>2026-07-08T08:02:24.000Z</time>
      </trkpt>
      <trkpt lat="47.41534" lon="16.00383">
        <ele>519.995612</ele>
        <time>2026-07-08T08:02:25.000Z</time>
      </trkpt>
      <trkpt lat="47.4153" lon="16.00388">
        <ele>519.932546</ele>
        <time>2026-07-08T08:02:26.000Z</time>
      </trkpt>
      <trkpt lat="47.41526" lon="16.00393">
        <ele>519.862924</ele>
        <time>2026-07-08T08:02:27.000Z</time>
      </trkpt>
      <trkpt lat="47.41522" lon="16.00399">
        <ele>519.792395</ele>
        <time>2026-07-08T08:02:28.000Z</time>
      </trkpt>
      <trkpt lat="47.41518" lon="16.00404">
        <ele>519.721865</ele>
        <time>2026-07-08T08:02:29.000Z</time>
      </trkpt>
      <trkpt lat="47.41513" lon="16.0041">
        <ele>519.649423</ele>
        <time>2026-07-08T08:02:30.000Z</time>
      </trkpt>
      <trkpt lat="47.41509" lon="16.00415">
        <ele>519.577352</ele>
        <time>2026-07-08T08:02:31.000Z</time>
      </trkpt>
      <trkpt lat="47.41505" lon="16.00421">
        <ele>519.503741</ele>
        <time>2026-07-08T08:02:32.000Z</time>
      </trkpt>
      <trkpt lat="47.41501" lon="16.00427">
        <ele>519.431954</ele>
        <time>2026-07-08T08:02:33.000Z</time>
      </trkpt>
      <trkpt lat="47.41497" lon="16.00433">
        <ele>519.356545</ele>
        <time>2026-07-08T08:02:34.000Z</time>
      </trkpt>
      <trkpt lat="47.41493" lon="16.00439">
        <ele>519.279911</ele>
        <time>2026-07-08T08:02:35.000Z</time>
      </trkpt>
      <trkpt lat="47.41489" lon="16.00446">
        <ele>519.203164</ele>
        <time>2026-07-08T08:02:36.000Z</time>
      </trkpt>
      <trkpt lat="47.41485" lon="16.00452">
        <ele>519.126416</ele>
        <time>2026-07-08T08:02:37.000Z</time>
      </trkpt>
      <trkpt lat="47.41481" lon="16.00459">
        <ele>519.049669</ele>
        <time>2026-07-08T08:02:38.000Z</time>
      </trkpt>
      <trkpt lat="47.41477" lon="16.00466">
        <ele>518.97425</ele>
        <time>2026-07-08T08:02:39.000Z</time>
      </trkpt>
      <trkpt lat="47.41473" lon="16.00472">
        <ele>518.896384</ele>
        <time>2026-07-08T08:02:40.000Z</time>
      </trkpt>
      <trkpt lat="47.41469" lon="16.00479">
        <ele>518.81698</ele>
        <time>2026-07-08T08:02:41.000Z</time>
      </trkpt>
      <trkpt lat="47.41465" lon="16.00485">
        <ele>518.736357</ele>
        <time>2026-07-08T08:02:42.000Z</time>
      </trkpt>
      <trkpt lat="47.4146" lon="16.00492">
        <ele>518.653483</ele>
        <time>2026-07-08T08:02:43.000Z</time>
      </trkpt>
      <trkpt lat="47.41455" lon="16.00497">
        <ele>518.571429</ele>
        <time>2026-07-08T08:02:44.000Z</time>
      </trkpt>
      <trkpt lat="47.4145" lon="16.00503">
        <ele>518.48888</ele>
        <time>2026-07-08T08:02:45.000Z</time>
      </trkpt>
      <trkpt lat="47.41444" lon="16.00508">
        <ele>518.403755</ele>
        <time>2026-07-08T08:02:46.000Z</time>
      </trkpt>
      <trkpt lat="47.41438" lon="16.00512">
        <ele>518.322288</ele>
        <time>2026-07-08T08:02:47.000Z</time>
      </trkpt>
      <trkpt lat="47.41432" lon="16.00516">
        <ele>518.237749</ele>
        <time>2026-07-08T08:02:48.000Z</time>
      </trkpt>
      <trkpt lat="47.41426" lon="16.0052">
        <ele>518.152779</ele>
        <time>2026-07-08T08:02:49.000Z</time>
      </trkpt>
      <trkpt lat="47.4142" lon="16.00524">
        <ele>518.068511</ele>
        <time>2026-07-08T08:02:50.000Z</time>
      </trkpt>
      <trkpt lat="47.41415" lon="16.00528">
        <ele>517.987638</ele>
        <time>2026-07-08T08:02:51.000Z</time>
      </trkpt>
      <trkpt lat="47.41409" lon="16.00531">
        <ele>517.90337</ele>
        <time>2026-07-08T08:02:52.000Z</time>
      </trkpt>
      <trkpt lat="47.41403" lon="16.00535">
        <ele>517.82182</ele>
        <time>2026-07-08T08:02:53.000Z</time>
      </trkpt>
      <trkpt lat="47.41397" lon="16.00539">
        <ele>517.737893</ele>
        <time>2026-07-08T08:02:54.000Z</time>
      </trkpt>
      <trkpt lat="47.41391" lon="16.00542">
        <ele>517.657873</ele>
        <time>2026-07-08T08:02:55.000Z</time>
      </trkpt>
      <trkpt lat="47.41385" lon="16.00546">
        <ele>517.567181</ele>
        <time>2026-07-08T08:02:56.000Z</time>
      </trkpt>
      <trkpt lat="47.4138" lon="16.0055">
        <ele>517.475186</ele>
        <time>2026-07-08T08:02:57.000Z</time>
      </trkpt>
      <trkpt lat="47.41375" lon="16.00554">
        <ele>517.378504</ele>
        <time>2026-07-08T08:02:58.000Z</time>
      </trkpt>
      <trkpt lat="47.41369" lon="16.00558">
        <ele>517.285081</ele>
        <time>2026-07-08T08:02:59.000Z</time>
      </trkpt>
      <trkpt lat="47.41364" lon="16.00562">
        <ele>517.193531</ele>
        <time>2026-07-08T08:03:00.000Z</time>
      </trkpt>
      <trkpt lat="47.41359" lon="16.00566">
        <ele>517.101069</ele>
        <time>2026-07-08T08:03:01.000Z</time>
      </trkpt>
      <trkpt lat="47.41353" lon="16.0057">
        <ele>517.008555</ele>
        <time>2026-07-08T08:03:02.000Z</time>
      </trkpt>
      <trkpt lat="47.41348" lon="16.00573">
        <ele>516.922154</ele>
        <time>2026-07-08T08:03:03.000Z</time>
      </trkpt>
      <trkpt lat="47.41343" lon="16.00577">
        <ele>516.833428</ele>
        <time>2026-07-08T08:03:04.000Z</time>
      </trkpt>
      <trkpt lat="47.41338" lon="16.00581">
        <ele>516.747496</ele>
        <time>2026-07-08T08:03:05.000Z</time>
      </trkpt>
      <trkpt lat="47.41334" lon="16.00584">
        <ele>516.665689</ele>
        <time>2026-07-08T08:03:06.000Z</time>
      </trkpt>
      <trkpt lat="47.41329" lon="16.00587">
        <ele>516.580598</ele>
        <time>2026-07-08T08:03:07.000Z</time>
      </trkpt>
      <trkpt lat="47.41324" lon="16.00591">
        <ele>516.497009</ele>
        <time>2026-07-08T08:03:08.000Z</time>
      </trkpt>
      <trkpt lat="47.41319" lon="16.00594">
        <ele>516.411076</ele>
        <time>2026-07-08T08:03:09.000Z</time>
      </trkpt>
      <trkpt lat="47.41314" lon="16.00598">
        <ele>516.323271</ele>
        <time>2026-07-08T08:03:10.000Z</time>
      </trkpt>
      <trkpt lat="47.41309" lon="16.00602">
        <ele>516.238829</ele>
        <time>2026-07-08T08:03:11.000Z</time>
      </trkpt>
      <trkpt lat="47.41304" lon="16.00606">
        <ele>516.150892</ele>
        <time>2026-07-08T08:03:12.000Z</time>
      </trkpt>
      <trkpt lat="47.41299" lon="16.00611">
        <ele>516.060012</ele>
        <time>2026-07-08T08:03:13.000Z</time>
      </trkpt>
      <trkpt lat="47.41294" lon="16.00615">
        <ele>515.969668</ele>
        <time>2026-07-08T08:03:14.000Z</time>
      </trkpt>
      <trkpt lat="47.41289" lon="16.0062">
        <ele>515.875241</ele>
        <time>2026-07-08T08:03:15.000Z</time>
      </trkpt>
      <trkpt lat="47.41284" lon="16.00625">
        <ele>515.773417</ele>
        <time>2026-07-08T08:03:16.000Z</time>
      </trkpt>
      <trkpt lat="47.41279" lon="16.0063">
        <ele>515.678539</ele>
        <time>2026-07-08T08:03:17.000Z</time>
      </trkpt>
      <trkpt lat="47.41274" lon="16.00635">
        <ele>515.591246</ele>
        <time>2026-07-08T08:03:18.000Z</time>
      </trkpt>
      <trkpt lat="47.4127" lon="16.0064">
        <ele>515.504507</ele>
        <time>2026-07-08T08:03:19.000Z</time>
      </trkpt>
      <trkpt lat="47.41265" lon="16.00644">
        <ele>515.410929</ele>
        <time>2026-07-08T08:03:20.000Z</time>
      </trkpt>
      <trkpt lat="47.41259" lon="16.00648">
        <ele>515.314536</ele>
        <time>2026-07-08T08:03:21.000Z</time>
      </trkpt>
      <trkpt lat="47.41253" lon="16.00651">
        <ele>515.215273</ele>
        <time>2026-07-08T08:03:22.000Z</time>
      </trkpt>
      <trkpt lat="47.41247" lon="16.00654">
        <ele>515.112834</ele>
        <time>2026-07-08T08:03:23.000Z</time>
      </trkpt>
      <trkpt lat="47.4124" lon="16.00656">
        <ele>515.01174</ele>
        <time>2026-07-08T08:03:24.000Z</time>
      </trkpt>
      <trkpt lat="47.41234" lon="16.00658">
        <ele>514.909359</ele>
        <time>2026-07-08T08:03:25.000Z</time>
      </trkpt>
      <trkpt lat="47.41228" lon="16.0066">
        <ele>514.813038</ele>
        <time>2026-07-08T08:03:26.000Z</time>
      </trkpt>
      <trkpt lat="47.41222" lon="16.00662">
        <ele>514.744849</ele>
        <time>2026-07-08T08:03:27.000Z</time>
      </trkpt>
      <trkpt lat="47.41217" lon="16.00665">
        <ele>514.677569</ele>
        <time>2026-07-08T08:03:28.000Z</time>
      </trkpt>
      <trkpt lat="47.41211" lon="16.00667">
        <ele>514.610924</ele>
        <time>2026-07-08T08:03:29.000Z</time>
      </trkpt>
      <trkpt lat="47.41206" lon="16.00669">
        <ele>514.543644</ele>
        <time>2026-07-08T08:03:30.000Z</time>
      </trkpt>
      <trkpt lat="47.412" lon="16.00672">
        <ele>514.476584</ele>
        <time>2026-07-08T08:03:31.000Z</time>
      </trkpt>
      <trkpt lat="47.41195" lon="16.00674">
        <ele>514.410195</ele>
        <time>2026-07-08T08:03:32.000Z</time>
      </trkpt>
      <trkpt lat="47.4119" lon="16.00676">
        <ele>514.34539</ele>
        <time>2026-07-08T08:03:33.000Z</time>
      </trkpt>
      <trkpt lat="47.41184" lon="16.00679">
        <ele>514.27811</ele>
        <time>2026-07-08T08:03:34.000Z</time>
      </trkpt>
      <trkpt lat="47.41179" lon="16.00681">
        <ele>514.21105</ele>
        <time>2026-07-08T08:03:35.000Z</time>
      </trkpt>
      <trkpt lat="47.41173" lon="16.00683">
        <ele>514.14399</ele>
        <time>2026-07-08T08:03:36.000Z</time>
      </trkpt>
      <trkpt lat="47.41168" lon="16.00686">
        <ele>514.075997</ele>
        <time>2026-07-08T08:03:37.000Z</time>
      </trkpt>
      <trkpt lat="47.41162" lon="16.00689">
        <ele>514.010727</ele>
        <time>2026-07-08T08:03:38.000Z</time>
      </trkpt>
      <trkpt lat="47.41157" lon="16.00691">
        <ele>513.945415</ele>
        <time>2026-07-08T08:03:39.000Z</time>
      </trkpt>
      <trkpt lat="47.41151" lon="16.00692">
        <ele>513.879492</ele>
        <time>2026-07-08T08:03:40.000Z</time>
      </trkpt>
      <trkpt lat="47.41146" lon="16.00694">
        <ele>513.813403</ele>
        <time>2026-07-08T08:03:41.000Z</time>
      </trkpt>
      <trkpt lat="47.4114" lon="16.00696">
        <ele>513.747314</ele>
        <time>2026-07-08T08:03:42.000Z</time>
      </trkpt>
      <trkpt lat="47.41135" lon="16.00697">
        <ele>513.681698</ele>
        <time>2026-07-08T08:03:43.000Z</time>
      </trkpt>
      <trkpt lat="47.41129" lon="16.00699">
        <ele>513.615066</ele>
        <time>2026-07-08T08:03:44.000Z</time>
      </trkpt>
      <trkpt lat="47.41123" lon="16.007">
        <ele>513.545298</ele>
        <time>2026-07-08T08:03:45.000Z</time>
      </trkpt>
      <trkpt lat="47.41118" lon="16.00701">
        <ele>513.476792</ele>
        <time>2026-07-08T08:03:46.000Z</time>
      </trkpt>
      <trkpt lat="47.41112" lon="16.00702">
        <ele>513.409539</ele>
        <time>2026-07-08T08:03:47.000Z</time>
      </trkpt>
      <trkpt lat="47.41106" lon="16.00702">
        <ele>513.341327</ele>
        <time>2026-07-08T08:03:48.000Z</time>
      </trkpt>
      <trkpt lat="47.411" lon="16.00703">
        <ele>513.270823</ele>
        <time>2026-07-08T08:03:49.000Z</time>
      </trkpt>
      <trkpt lat="47.41094" lon="16.00703">
        <ele>513.20276</ele>
        <time>2026-07-08T08:03:50.000Z</time>
      </trkpt>
      <trkpt lat="47.41088" lon="16.00703">
        <ele>513.13235</ele>
        <time>2026-07-08T08:03:51.000Z</time>
      </trkpt>
      <trkpt lat="47.41082" lon="16.00703">
        <ele>513.059573</ele>
        <time>2026-07-08T08:03:52.000Z</time>
      </trkpt>
      <trkpt lat="47.41076" lon="16.00702">
        <ele>512.989141</ele>
        <time>2026-07-08T08:03:53.000Z</time>
      </trkpt>
      <trkpt lat="47.4107" lon="16.00702">
        <ele>512.915021</ele>
        <time>2026-07-08T08:03:54.000Z</time>
      </trkpt>
      <trkpt lat="47.41063" lon="16.00701">
        <ele>512.839731</ele>
        <time>2026-07-08T08:03:55.000Z</time>
      </trkpt>
      <trkpt lat="47.41057" lon="16.007">
        <ele>512.76337</ele>
        <time>2026-07-08T08:03:56.000Z</time>
      </trkpt>
      <trkpt lat="47.4105" lon="16.007">
        <ele>512.682403</ele>
        <time>2026-07-08T08:03:57.000Z</time>
      </trkpt>
      <trkpt lat="47.41043" lon="16.007">
        <ele>512.584313</ele>
        <time>2026-07-08T08:03:58.000Z</time>
      </trkpt>
      <trkpt lat="47.41036" lon="16.00699">
        <ele>512.483423</ele>
        <time>2026-07-08T08:03:59.000Z</time>
      </trkpt>
      <trkpt lat="47.41029" lon="16.00699">
        <ele>512.382354</ele>
        <time>2026-07-08T08:04:00.000Z</time>
      </trkpt>
      <trkpt lat="47.41022" lon="16.00698">
        <ele>512.279664</ele>
        <time>2026-07-08T08:04:01.000Z</time>
      </trkpt>
      <trkpt lat="47.41015" lon="16.00697">
        <ele>512.181158</ele>
        <time>2026-07-08T08:04:02.000Z</time>
      </trkpt>
      <trkpt lat="47.41007" lon="16.00696">
        <ele>512.080023</ele>
        <time>2026-07-08T08:04:03.000Z</time>
      </trkpt>
      <trkpt lat="47.41" lon="16.00695">
        <ele>511.980122</ele>
        <time>2026-07-08T08:04:04.000Z</time>
      </trkpt>
      <trkpt lat="47.40993" lon="16.00694">
        <ele>511.876258</ele>
        <time>2026-07-08T08:04:05.000Z</time>
      </trkpt>
      <trkpt lat="47.40986" lon="16.00693">
        <ele>511.773792</ele>
        <time>2026-07-08T08:04:06.000Z</time>
      </trkpt>
      <trkpt lat="47.40978" lon="16.00693">
        <ele>511.671383</ele>
        <time>2026-07-08T08:04:07.000Z</time>
      </trkpt>
      <trkpt lat="47.40971" lon="16.00691">
        <ele>511.569253</ele>
        <time>2026-07-08T08:04:08.000Z</time>
      </trkpt>
      <trkpt lat="47.40964" lon="16.00688">
        <ele>511.469292</ele>
        <time>2026-07-08T08:04:09.000Z</time>
      </trkpt>
      <trkpt lat="47.40958" lon="16.00684">
        <ele>511.369433</ele>
        <time>2026-07-08T08:04:10.000Z</time>
      </trkpt>
      <trkpt lat="47.40951" lon="16.0068">
        <ele>511.270063</ele>
        <time>2026-07-08T08:04:11.000Z</time>
      </trkpt>
      <trkpt lat="47.40945" lon="16.00676">
        <ele>511.174017</ele>
        <time>2026-07-08T08:04:12.000Z</time>
      </trkpt>
      <trkpt lat="47.40939" lon="16.00672">
        <ele>511.080359</ele>
        <time>2026-07-08T08:04:13.000Z</time>
      </trkpt>
      <trkpt lat="47.40932" lon="16.00669">
        <ele>510.987394</ele>
        <time>2026-07-08T08:04:14.000Z</time>
      </trkpt>
      <trkpt lat="47.40926" lon="16.00665">
        <ele>510.89704</ele>
        <time>2026-07-08T08:04:15.000Z</time>
      </trkpt>
      <trkpt lat="47.40921" lon="16.00662">
        <ele>510.808923</ele>
        <time>2026-07-08T08:04:16.000Z</time>
      </trkpt>
      <trkpt lat="47.40915" lon="16.00658">
        <ele>510.719666</ele>
        <time>2026-07-08T08:04:17.000Z</time>
      </trkpt>
      <trkpt lat="47.40909" lon="16.00654">
        <ele>510.628229</ele>
        <time>2026-07-08T08:04:18.000Z</time>
      </trkpt>
      <trkpt lat="47.40903" lon="16.0065">
        <ele>510.538453</ele>
        <time>2026-07-08T08:04:19.000Z</time>
      </trkpt>
      <trkpt lat="47.40897" lon="16.00647">
        <ele>510.448099</ele>
        <time>2026-07-08T08:04:20.000Z</time>
      </trkpt>
      <trkpt lat="47.40891" lon="16.00643">
        <ele>510.357745</ele>
        <time>2026-07-08T08:04:21.000Z</time>
      </trkpt>
      <trkpt lat="47.40885" lon="16.0064">
        <ele>510.266756</ele>
        <time>2026-07-08T08:04:22.000Z</time>
      </trkpt>
      <trkpt lat="47.40879" lon="16.00637">
        <ele>510.179008</ele>
        <time>2026-07-08T08:04:23.000Z</time>
      </trkpt>
      <trkpt lat="47.40873" lon="16.00634">
        <ele>510.111969</ele>
        <time>2026-07-08T08:04:24.000Z</time>
      </trkpt>
      <trkpt lat="47.40867" lon="16.0063">
        <ele>510.046617</ele>
        <time>2026-07-08T08:04:25.000Z</time>
      </trkpt>
      <trkpt lat="47.40861" lon="16.00627">
        <ele>509.98077</ele>
        <time>2026-07-08T08:04:26.000Z</time>
      </trkpt>
      <trkpt lat="47.40855" lon="16.00623">
        <ele>509.916817</ele>
        <time>2026-07-08T08:04:27.000Z</time>
      </trkpt>
      <trkpt lat="47.40849" lon="16.0062">
        <ele>509.853266</ele>
        <time>2026-07-08T08:04:28.000Z</time>
      </trkpt>
      <trkpt lat="47.40843" lon="16.00616">
        <ele>509.789714</ele>
        <time>2026-07-08T08:04:29.000Z</time>
      </trkpt>
      <trkpt lat="47.40838" lon="16.00612">
        <ele>509.725761</ele>
        <time>2026-07-08T08:04:30.000Z</time>
      </trkpt>
      <trkpt lat="47.40832" lon="16.00609">
        <ele>509.661544</ele>
        <time>2026-07-08T08:04:31.000Z</time>
      </trkpt>
      <trkpt lat="47.40826" lon="16.00605">
        <ele>509.596118</ele>
        <time>2026-07-08T08:04:32.000Z</time>
      </trkpt>
      <trkpt lat="47.4082" lon="16.00601">
        <ele>509.530781</ele>
        <time>2026-07-08T08:04:33.000Z</time>
      </trkpt>
      <trkpt lat="47.40814" lon="16.00597">
        <ele>509.463589</ele>
        <time>2026-07-08T08:04:34.000Z</time>
      </trkpt>
      <trkpt lat="47.40808" lon="16.00593">
        <ele>509.394385</ele>
        <time>2026-07-08T08:04:35.000Z</time>
      </trkpt>
      <trkpt lat="47.40801" lon="16.0059">
        <ele>509.321128</ele>
        <time>2026-07-08T08:04:36.000Z</time>
      </trkpt>
      <trkpt lat="47.40794" lon="16.00586">
        <ele>509.24787</ele>
        <time>2026-07-08T08:04:37.000Z</time>
      </trkpt>
      <trkpt lat="47.40787" lon="16.00582">
        <ele>509.171504</ele>
        <time>2026-07-08T08:04:38.000Z</time>
      </trkpt>
      <trkpt lat="47.4078" lon="16.00578">
        <ele>509.095379</ele>
        <time>2026-07-08T08:04:39.000Z</time>
      </trkpt>
      <trkpt lat="47.40773" lon="16.00574">
        <ele>509.017814</ele>
        <time>2026-07-08T08:04:40.000Z</time>
      </trkpt>
      <trkpt lat="47.40766" lon="16.0057">
        <ele>508.941689</ele>
        <time>2026-07-08T08:04:41.000Z</time>
      </trkpt>
      <trkpt lat="47.40759" lon="16.00566">
        <ele>508.865512</ele>
        <time>2026-07-08T08:04:42.000Z</time>
      </trkpt>
      <trkpt lat="47.40753" lon="16.00562">
        <ele>508.790279</ele>
        <time>2026-07-08T08:04:43.000Z</time>
      </trkpt>
      <trkpt lat="47.40746" lon="16.00557">
        <ele>508.715152</ele>
        <time>2026-07-08T08:04:44.000Z</time>
      </trkpt>
      <trkpt lat="47.40739" lon="16.00553">
        <ele>508.641583</ele>
        <time>2026-07-08T08:04:45.000Z</time>
      </trkpt>
      <trkpt lat="47.40733" lon="16.00548">
        <ele>508.567671</ele>
        <time>2026-07-08T08:04:46.000Z</time>
      </trkpt>
      <trkpt lat="47.40726" lon="16.00544">
        <ele>508.495527</ele>
        <time>2026-07-08T08:04:47.000Z</time>
      </trkpt>
      <trkpt lat="47.4072" lon="16.0054">
        <ele>508.422544</ele>
        <time>2026-07-08T08:04:48.000Z</time>
      </trkpt>
      <trkpt lat="47.40713" lon="16.00536">
        <ele>508.35161</ele>
        <time>2026-07-08T08:04:49.000Z</time>
      </trkpt>
      <trkpt lat="47.40707" lon="16.00532">
        <ele>508.229872</ele>
        <time>2026-07-08T08:04:50.000Z</time>
      </trkpt>
      <trkpt lat="47.40701" lon="16.00528">
        <ele>508.108381</ele>
        <time>2026-07-08T08:04:51.000Z</time>
      </trkpt>
      <trkpt lat="47.40694" lon="16.00523">
        <ele>507.987989</ele>
        <time>2026-07-08T08:04:52.000Z</time>
      </trkpt>
      <trkpt lat="47.40688" lon="16.00519">
        <ele>507.870679</ele>
        <time>2026-07-08T08:04:53.000Z</time>
      </trkpt>
      <trkpt lat="47.40682" lon="16.00515">
        <ele>507.748988</ele>
        <time>2026-07-08T08:04:54.000Z</time>
      </trkpt>
      <trkpt lat="47.40676" lon="16.00511">
        <ele>507.627982</ele>
        <time>2026-07-08T08:04:55.000Z</time>
      </trkpt>
      <trkpt lat="47.40669" lon="16.00507">
        <ele>507.503278</ele>
        <time>2026-07-08T08:04:56.000Z</time>
      </trkpt>
      <trkpt lat="47.40663" lon="16.00503">
        <ele>507.381787</ele>
        <time>2026-07-08T08:04:57.000Z</time>
      </trkpt>
      <trkpt lat="47.40656" lon="16.00499">
        <ele>507.258017</ele>
        <time>2026-07-08T08:04:58.000Z</time>
      </trkpt>
      <trkpt lat="47.4065" lon="16.00495">
        <ele>507.135868</ele>
        <time>2026-07-08T08:04:59.000Z</time>
      </trkpt>
      <trkpt lat="47.40643" lon="16.00491">
        <ele>507.012098</ele>
        <time>2026-07-08T08:05:00.000Z</time>
      </trkpt>
      <trkpt lat="47.40637" lon="16.00487">
        <ele>506.886703</ele>
        <time>2026-07-08T08:05:01.000Z</time>
      </trkpt>
      <trkpt lat="47.4063" lon="16.00483">
        <ele>506.758301</ele>
        <time>2026-07-08T08:05:02.000Z</time>
      </trkpt>
      <trkpt lat="47.40623" lon="16.00478">
        <ele>506.629899</ele>
        <time>2026-07-08T08:05:03.000Z</time>
      </trkpt>
      <trkpt lat="47.40617" lon="16.00474">
        <ele>506.49941</ele>
        <time>2026-07-08T08:05:04.000Z</time>
      </trkpt>
      <trkpt lat="47.4061" lon="16.00469">
        <ele>506.370041</ele>
        <time>2026-07-08T08:05:05.000Z</time>
      </trkpt>
      <trkpt lat="47.40603" lon="16.00465">
        <ele>506.238579</ele>
        <time>2026-07-08T08:05:06.000Z</time>
      </trkpt>
      <trkpt lat="47.40596" lon="16.0046">
        <ele>506.104392</ele>
        <time>2026-07-08T08:05:07.000Z</time>
      </trkpt>
      <trkpt lat="47.40589" lon="16.00456">
        <ele>505.973903</ele>
        <time>2026-07-08T08:05:08.000Z</time>
      </trkpt>
      <trkpt lat="47.40582" lon="16.00452">
        <ele>505.837394</ele>
        <time>2026-07-08T08:05:09.000Z</time>
      </trkpt>
      <trkpt lat="47.40575" lon="16.00447">
        <ele>505.707378</ele>
        <time>2026-07-08T08:05:10.000Z</time>
      </trkpt>
      <trkpt lat="47.40568" lon="16.00442">
        <ele>505.571222</ele>
        <time>2026-07-08T08:05:11.000Z</time>
      </trkpt>
      <trkpt lat="47.40561" lon="16.00438">
        <ele>505.43816</ele>
        <time>2026-07-08T08:05:12.000Z</time>
      </trkpt>
      <trkpt lat="47.40555" lon="16.00433">
        <ele>505.307189</ele>
        <time>2026-07-08T08:05:13.000Z</time>
      </trkpt>
      <trkpt lat="47.40548" lon="16.00429">
        <ele>505.198204</ele>
        <time>2026-07-08T08:05:14.000Z</time>
      </trkpt>
      <trkpt lat="47.40541" lon="16.00424">
        <ele>505.348637</ele>
        <time>2026-07-08T08:05:15.000Z</time>
      </trkpt>
      <trkpt lat="47.40534" lon="16.00419">
        <ele>505.494181</ele>
        <time>2026-07-08T08:05:16.000Z</time>
      </trkpt>
      <trkpt lat="47.40528" lon="16.00415">
        <ele>505.637929</ele>
        <time>2026-07-08T08:05:17.000Z</time>
      </trkpt>
      <trkpt lat="47.40521" lon="16.00411">
        <ele>505.779429</ele>
        <time>2026-07-08T08:05:18.000Z</time>
      </trkpt>
      <trkpt lat="47.40515" lon="16.00407">
        <ele>505.913674</ele>
        <time>2026-07-08T08:05:19.000Z</time>
      </trkpt>
      <trkpt lat="47.40509" lon="16.00404">
        <ele>506.048344</ele>
        <time>2026-07-08T08:05:20.000Z</time>
      </trkpt>
      <trkpt lat="47.40502" lon="16.00403">
        <ele>506.175843</ele>
        <time>2026-07-08T08:05:21.000Z</time>
      </trkpt>
      <trkpt lat="47.40496" lon="16.00402">
        <ele>506.296606</ele>
        <time>2026-07-08T08:05:22.000Z</time>
      </trkpt>
      <trkpt lat="47.40491" lon="16.00401">
        <ele>506.406836</ele>
        <time>2026-07-08T08:05:23.000Z</time>
      </trkpt>
      <trkpt lat="47.40486" lon="16.004">
        <ele>506.511809</ele>
        <time>2026-07-08T08:05:24.000Z</time>
      </trkpt>
      <trkpt lat="47.40481" lon="16.00398">
        <ele>506.603819</ele>
        <time>2026-07-08T08:05:25.000Z</time>
      </trkpt>
      <trkpt lat="47.40477" lon="16.00397">
        <ele>506.686129</ele>
        <time>2026-07-08T08:05:26.000Z</time>
      </trkpt>
      <trkpt lat="47.40473" lon="16.00395">
        <ele>506.762655</ele>
        <time>2026-07-08T08:05:27.000Z</time>
      </trkpt>
      <trkpt lat="47.4047" lon="16.00394">
        <ele>506.835341</ele>
        <time>2026-07-08T08:05:28.000Z</time>
      </trkpt>
      <trkpt lat="47.40467" lon="16.00392">
        <ele>506.897697</ele>
        <time>2026-07-08T08:05:29.000Z</time>
      </trkpt>
      <trkpt lat="47.40464" lon="16.00391">
        <ele>506.960867</ele>
        <time>2026-07-08T08:05:30.000Z</time>
      </trkpt>
      <trkpt lat="47.40461" lon="16.00389">
        <ele>507.020271</ele>
        <time>2026-07-08T08:05:31.000Z</time>
      </trkpt>
      <trkpt lat="47.40459" lon="16.00388">
        <ele>507.075162</ele>
        <time>2026-07-08T08:05:32.000Z</time>
      </trkpt>
      <trkpt lat="47.40456" lon="16.00386">
        <ele>507.131865</ele>
        <time>2026-07-08T08:05:33.000Z</time>
      </trkpt>
      <trkpt lat="47.40454" lon="16.00384">
        <ele>507.186756</ele>
        <time>2026-07-08T08:05:34.000Z</time>
      </trkpt>
      <trkpt lat="47.40451" lon="16.00382">
        <ele>507.241096</ele>
        <time>2026-07-08T08:05:35.000Z</time>
      </trkpt>
      <trkpt lat="47.40449" lon="16.00381">
        <ele>507.292391</ele>
        <time>2026-07-08T08:05:36.000Z</time>
      </trkpt>
      <trkpt lat="47.40446" lon="16.00379">
        <ele>507.346074</ele>
        <time>2026-07-08T08:05:37.000Z</time>
      </trkpt>
      <trkpt lat="47.40444" lon="16.00377">
        <ele>507.399303</ele>
        <time>2026-07-08T08:05:38.000Z</time>
      </trkpt>
      <trkpt lat="47.40442" lon="16.00375">
        <ele>507.450824</ele>
        <time>2026-07-08T08:05:39.000Z</time>
      </trkpt>
      <trkpt lat="47.4044" lon="16.00373">
        <ele>507.504053</ele>
        <time>2026-07-08T08:05:40.000Z</time>
      </trkpt>
      <trkpt lat="47.40437" lon="16.00371">
        <ele>507.558702</ele>
        <time>2026-07-08T08:05:41.000Z</time>
      </trkpt>
      <trkpt lat="47.40435" lon="16.00368">
        <ele>507.615035</ele>
        <time>2026-07-08T08:05:42.000Z</time>
      </trkpt>
      <trkpt lat="47.40433" lon="16.00367">
        <ele>507.663458</ele>
        <time>2026-07-08T08:05:43.000Z</time>
      </trkpt>
      <trkpt lat="47.4043" lon="16.00365">
        <ele>507.717141</ele>
        <time>2026-07-08T08:05:44.000Z</time>
      </trkpt>
      <trkpt lat="47.40428" lon="16.00363">
        <ele>507.773214</ele>
        <time>2026-07-08T08:05:45.000Z</time>
      </trkpt>
      <trkpt lat="47.40425" lon="16.00361">
        <ele>507.830483</ele>
        <time>2026-07-08T08:05:46.000Z</time>
      </trkpt>
      <trkpt lat="47.40423" lon="16.0036">
        <ele>507.888016</ele>
        <time>2026-07-08T08:05:47.000Z</time>
      </trkpt>
      <trkpt lat="47.4042" lon="16.00357">
        <ele>507.946054</ele>
        <time>2026-07-08T08:05:48.000Z</time>
      </trkpt>
      <trkpt lat="47.40417" lon="16.00355">
        <ele>508.006912</ele>
        <time>2026-07-08T08:05:49.000Z</time>
      </trkpt>
      <trkpt lat="47.40415" lon="16.00353">
        <ele>508.065378</ele>
        <time>2026-07-08T08:05:50.000Z</time>
      </trkpt>
      <trkpt lat="47.40412" lon="16.00351">
        <ele>508.130479</ele>
        <time>2026-07-08T08:05:51.000Z</time>
      </trkpt>
      <trkpt lat="47.40409" lon="16.00349">
        <ele>508.19978</ele>
        <time>2026-07-08T08:05:52.000Z</time>
      </trkpt>
      <trkpt lat="47.40405" lon="16.00347">
        <ele>508.275125</ele>
        <time>2026-07-08T08:05:53.000Z</time>
      </trkpt>
      <trkpt lat="47.40401" lon="16.00345">
        <ele>508.356528</ele>
        <time>2026-07-08T08:05:54.000Z</time>
      </trkpt>
      <trkpt lat="47.40397" lon="16.00343">
        <ele>508.440754</ele>
        <time>2026-07-08T08:05:55.000Z</time>
      </trkpt>
      <trkpt lat="47.40393" lon="16.00341">
        <ele>508.532573</ele>
        <time>2026-07-08T08:05:56.000Z</time>
      </trkpt>
      <trkpt lat="47.40388" lon="16.00339">
        <ele>508.629433</ele>
        <time>2026-07-08T08:05:57.000Z</time>
      </trkpt>
      <trkpt lat="47.40384" lon="16.00337">
        <ele>508.726986</ele>
        <time>2026-07-08T08:05:58.000Z</time>
      </trkpt>
      <trkpt lat="47.40379" lon="16.00335">
        <ele>508.753016</ele>
        <time>2026-07-08T08:05:59.000Z</time>
      </trkpt>
      <trkpt lat="47.40373" lon="16.00333">
        <ele>508.71111</ele>
        <time>2026-07-08T08:06:00.000Z</time>
      </trkpt>
      <trkpt lat="47.40367" lon="16.00331">
        <ele>508.666806</ele>
        <time>2026-07-08T08:06:01.000Z</time>
      </trkpt>
      <trkpt lat="47.40361" lon="16.00328">
        <ele>508.617426</ele>
        <time>2026-07-08T08:06:02.000Z</time>
      </trkpt>
      <trkpt lat="47.40354" lon="16.00325">
        <ele>508.567194</ele>
        <time>2026-07-08T08:06:03.000Z</time>
      </trkpt>
      <trkpt lat="47.40348" lon="16.00322">
        <ele>508.513933</ele>
        <time>2026-07-08T08:06:04.000Z</time>
      </trkpt>
      <trkpt lat="47.40341" lon="16.00318">
        <ele>508.459106</ele>
        <time>2026-07-08T08:06:05.000Z</time>
      </trkpt>
      <trkpt lat="47.40334" lon="16.00315">
        <ele>508.404279</ele>
        <time>2026-07-08T08:06:06.000Z</time>
      </trkpt>
      <trkpt lat="47.40326" lon="16.00311">
        <ele>508.347885</ele>
        <time>2026-07-08T08:06:07.000Z</time>
      </trkpt>
      <trkpt lat="47.40319" lon="16.00308">
        <ele>508.292728</ele>
        <time>2026-07-08T08:06:08.000Z</time>
      </trkpt>
      <trkpt lat="47.40312" lon="16.00304">
        <ele>508.236872</ele>
        <time>2026-07-08T08:06:09.000Z</time>
      </trkpt>
      <trkpt lat="47.40305" lon="16.003">
        <ele>508.181543</ele>
        <time>2026-07-08T08:06:10.000Z</time>
      </trkpt>
      <trkpt lat="47.40298" lon="16.00296">
        <ele>508.12586</ele>
        <time>2026-07-08T08:06:11.000Z</time>
      </trkpt>
      <trkpt lat="47.40292" lon="16.00292">
        <ele>508.072247</ele>
        <time>2026-07-08T08:06:12.000Z</time>
      </trkpt>
      <trkpt lat="47.40285" lon="16.00288">
        <ele>508.018634</ele>
        <time>2026-07-08T08:06:13.000Z</time>
      </trkpt>
      <trkpt lat="47.40278" lon="16.00284">
        <ele>507.966081</ele>
        <time>2026-07-08T08:06:14.000Z</time>
      </trkpt>
      <trkpt lat="47.40272" lon="16.00281">
        <ele>507.914402</ele>
        <time>2026-07-08T08:06:15.000Z</time>
      </trkpt>
      <trkpt lat="47.40265" lon="16.00277">
        <ele>507.86341</ele>
        <time>2026-07-08T08:06:16.000Z</time>
      </trkpt>
      <trkpt lat="47.40259" lon="16.00274">
        <ele>507.812779</ele>
        <time>2026-07-08T08:06:17.000Z</time>
      </trkpt>
      <trkpt lat="47.40253" lon="16.00271">
        <ele>507.763671</ele>
        <time>2026-07-08T08:06:18.000Z</time>
      </trkpt>
      <trkpt lat="47.40246" lon="16.00267">
        <ele>507.714606</ele>
        <time>2026-07-08T08:06:19.000Z</time>
      </trkpt>
      <trkpt lat="47.4024" lon="16.00264">
        <ele>507.666411</ele>
        <time>2026-07-08T08:06:20.000Z</time>
      </trkpt>
      <trkpt lat="47.40234" lon="16.0026">
        <ele>507.618659</ele>
        <time>2026-07-08T08:06:21.000Z</time>
      </trkpt>
      <trkpt lat="47.40229" lon="16.00256">
        <ele>507.574505</ele>
        <time>2026-07-08T08:06:22.000Z</time>
      </trkpt>
      <trkpt lat="47.40224" lon="16.00251">
        <ele>507.530941</ele>
        <time>2026-07-08T08:06:23.000Z</time>
      </trkpt>
      <trkpt lat="47.40221" lon="16.00245">
        <ele>507.489678</ele>
        <time>2026-07-08T08:06:24.000Z</time>
      </trkpt>
      <trkpt lat="47.40218" lon="16.00238">
        <ele>507.448848</ele>
        <time>2026-07-08T08:06:25.000Z</time>
      </trkpt>
      <trkpt lat="47.40216" lon="16.00231">
        <ele>507.441606</ele>
        <time>2026-07-08T08:06:26.000Z</time>
      </trkpt>
      <trkpt lat="47.40215" lon="16.00224">
        <ele>507.444329</ele>
        <time>2026-07-08T08:06:27.000Z</time>
      </trkpt>
      <trkpt lat="47.40214" lon="16.00217">
        <ele>507.446924</ele>
        <time>2026-07-08T08:06:28.000Z</time>
      </trkpt>
      <trkpt lat="47.40213" lon="16.0021">
        <ele>507.449473</ele>
        <time>2026-07-08T08:06:29.000Z</time>
      </trkpt>
      <trkpt lat="47.40212" lon="16.00203">
        <ele>507.452008</ele>
        <time>2026-07-08T08:06:30.000Z</time>
      </trkpt>
      <trkpt lat="47.40211" lon="16.00197">
        <ele>507.454461</ele>
        <time>2026-07-08T08:06:31.000Z</time>
      </trkpt>
      <trkpt lat="47.40209" lon="16.0019">
        <ele>507.456951</ele>
        <time>2026-07-08T08:06:32.000Z</time>
      </trkpt>
      <trkpt lat="47.40207" lon="16.00185">
        <ele>507.459425</ele>
        <time>2026-07-08T08:06:33.000Z</time>
      </trkpt>
      <trkpt lat="47.40203" lon="16.0018">
        <ele>507.461916</ele>
        <time>2026-07-08T08:06:34.000Z</time>
      </trkpt>
      <trkpt lat="47.40199" lon="16.00176">
        <ele>507.464471</ele>
        <time>2026-07-08T08:06:35.000Z</time>
      </trkpt>
      <trkpt lat="47.40195" lon="16.00173">
        <ele>507.467061</ele>
        <time>2026-07-08T08:06:36.000Z</time>
      </trkpt>
      <trkpt lat="47.40191" lon="16.0017">
        <ele>507.469648</ele>
        <time>2026-07-08T08:06:37.000Z</time>
      </trkpt>
      <trkpt lat="47.40186" lon="16.00168">
        <ele>507.472301</ele>
        <time>2026-07-08T08:06:38.000Z</time>
      </trkpt>
      <trkpt lat="47.40181" lon="16.00166">
        <ele>507.474881</ele>
        <time>2026-07-08T08:06:39.000Z</time>
      </trkpt>
      <trkpt lat="47.40176" lon="16.00164">
        <ele>507.477626</ele>
        <time>2026-07-08T08:06:40.000Z</time>
      </trkpt>
      <trkpt lat="47.40171" lon="16.00162">
        <ele>507.480433</ele>
        <time>2026-07-08T08:06:41.000Z</time>
      </trkpt>
      <trkpt lat="47.40166" lon="16.0016">
        <ele>507.483245</ele>
        <time>2026-07-08T08:06:42.000Z</time>
      </trkpt>
      <trkpt lat="47.40161" lon="16.00158">
        <ele>507.486224</ele>
        <time>2026-07-08T08:06:43.000Z</time>
      </trkpt>
      <trkpt lat="47.40156" lon="16.00156">
        <ele>507.489031</ele>
        <time>2026-07-08T08:06:44.000Z</time>
      </trkpt>
      <trkpt lat="47.40151" lon="16.00154">
        <ele>507.491848</ele>
        <time>2026-07-08T08:06:45.000Z</time>
      </trkpt>
      <trkpt lat="47.40146" lon="16.00151">
        <ele>507.494666</ele>
        <time>2026-07-08T08:06:46.000Z</time>
      </trkpt>
      <trkpt lat="47.40141" lon="16.00149">
        <ele>507.497429</ele>
        <time>2026-07-08T08:06:47.000Z</time>
      </trkpt>
      <trkpt lat="47.40136" lon="16.00146">
        <ele>507.500168</ele>
        <time>2026-07-08T08:06:48.000Z</time>
      </trkpt>
      <trkpt lat="47.40131" lon="16.00143">
        <ele>507.502981</ele>
        <time>2026-07-08T08:06:49.000Z</time>
      </trkpt>
      <trkpt lat="47.40126" lon="16.0014">
        <ele>507.505885</ele>
        <time>2026-07-08T08:06:50.000Z</time>
      </trkpt>
      <trkpt lat="47.40121" lon="16.00138">
        <ele>507.508737</ele>
        <time>2026-07-08T08:06:51.000Z</time>
      </trkpt>
      <trkpt lat="47.40116" lon="16.00135">
        <ele>507.511601</ele>
        <time>2026-07-08T08:06:52.000Z</time>
      </trkpt>
      <trkpt lat="47.40111" lon="16.00132">
        <ele>507.514516</ele>
        <time>2026-07-08T08:06:53.000Z</time>
      </trkpt>
      <trkpt lat="47.40106" lon="16.0013">
        <ele>507.517458</ele>
        <time>2026-07-08T08:06:54.000Z</time>
      </trkpt>
      <trkpt lat="47.40101" lon="16.00127">
        <ele>507.520452</ele>
        <time>2026-07-08T08:06:55.000Z</time>
      </trkpt>
      <trkpt lat="47.40095" lon="16.00125">
        <ele>507.523507</ele>
        <time>2026-07-08T08:06:56.000Z</time>
      </trkpt>
      <trkpt lat="47.4009" lon="16.00122">
        <ele>507.526501</ele>
        <time>2026-07-08T08:06:57.000Z</time>
      </trkpt>
      <trkpt lat="47.40085" lon="16.0012">
        <ele>507.529619</ele>
        <time>2026-07-08T08:06:58.000Z</time>
      </trkpt>
      <trkpt lat="47.40079" lon="16.00117">
        <ele>507.532612</ele>
        <time>2026-07-08T08:06:59.000Z</time>
      </trkpt>
      <trkpt lat="47.40074" lon="16.00114">
        <ele>507.535731</ele>
        <time>2026-07-08T08:07:00.000Z</time>
      </trkpt>
      <trkpt lat="47.40068" lon="16.00112">
        <ele>507.488306</ele>
        <time>2026-07-08T08:07:01.000Z</time>
      </trkpt>
      <trkpt lat="47.40063" lon="16.00109">
        <ele>507.429099</ele>
        <time>2026-07-08T08:07:02.000Z</time>
      </trkpt>
      <trkpt lat="47.40057" lon="16.00107">
        <ele>507.370099</ele>
        <time>2026-07-08T08:07:03.000Z</time>
      </trkpt>
      <trkpt lat="47.40052" lon="16.00104">
        <ele>507.3113</ele>
        <time>2026-07-08T08:07:04.000Z</time>
      </trkpt>
      <trkpt lat="47.40046" lon="16.00102">
        <ele>507.252092</ele>
        <time>2026-07-08T08:07:05.000Z</time>
      </trkpt>
      <trkpt lat="47.40041" lon="16.00099">
        <ele>507.192669</ele>
        <time>2026-07-08T08:07:06.000Z</time>
      </trkpt>
      <trkpt lat="47.40035" lon="16.00096">
        <ele>507.134219</ele>
        <time>2026-07-08T08:07:07.000Z</time>
      </trkpt>
      <trkpt lat="47.4003" lon="16.00094">
        <ele>507.074573</ele>
        <time>2026-07-08T08:07:08.000Z</time>
      </trkpt>
      <trkpt lat="47.40024" lon="16.00091">
        <ele>507.015151</ele>
        <time>2026-07-08T08:07:09.000Z</time>
      </trkpt>
      <trkpt lat="47.40019" lon="16.00088">
        <ele>506.954966</ele>
        <time>2026-07-08T08:07:10.000Z</time>
      </trkpt>
      <trkpt lat="47.40013" lon="16.00086">
        <ele>506.892576</ele>
        <time>2026-07-08T08:07:11.000Z</time>
      </trkpt>
      <trkpt lat="47.40007" lon="16.00084">
        <ele>506.833165</ele>
        <time>2026-07-08T08:07:12.000Z</time>
      </trkpt>
      <trkpt lat="47.40001" lon="16.00081">
        <ele>506.770233</ele>
        <time>2026-07-08T08:07:13.000Z</time>
      </trkpt>
      <trkpt lat="47.39996" lon="16.00079">
        <ele>506.710253</ele>
        <time>2026-07-08T08:07:14.000Z</time>
      </trkpt>
      <trkpt lat="47.3999" lon="16.00076">
        <ele>506.649089</ele>
        <time>2026-07-08T08:07:15.000Z</time>
      </trkpt>
      <trkpt lat="47.39984" lon="16.00073">
        <ele>506.586308</ele>
        <time>2026-07-08T08:07:16.000Z</time>
      </trkpt>
      <trkpt lat="47.39978" lon="16.00071">
        <ele>506.522199</ele>
        <time>2026-07-08T08:07:17.000Z</time>
      </trkpt>
      <trkpt lat="47.39972" lon="16.00068">
        <ele>506.459268</ele>
        <time>2026-07-08T08:07:18.000Z</time>
      </trkpt>
      <trkpt lat="47.39966" lon="16.00066">
        <ele>506.39496</ele>
        <time>2026-07-08T08:07:19.000Z</time>
      </trkpt>
      <trkpt lat="47.39961" lon="16.00063">
        <ele>506.333013</ele>
        <time>2026-07-08T08:07:20.000Z</time>
      </trkpt>
      <trkpt lat="47.39955" lon="16.0006">
        <ele>506.270664</ele>
        <time>2026-07-08T08:07:21.000Z</time>
      </trkpt>
      <trkpt lat="47.39949" lon="16.00058">
        <ele>506.209701</ele>
        <time>2026-07-08T08:07:22.000Z</time>
      </trkpt>
      <trkpt lat="47.39943" lon="16.00055">
        <ele>506.145784</ele>
        <time>2026-07-08T08:07:23.000Z</time>
      </trkpt>
      <trkpt lat="47.39937" lon="16.00053">
        <ele>506.081674</ele>
        <time>2026-07-08T08:07:24.000Z</time>
      </trkpt>
      <trkpt lat="47.39931" lon="16.0005">
        <ele>506.018668</ele>
        <time>2026-07-08T08:07:25.000Z</time>
      </trkpt>
      <trkpt lat="47.39925" lon="16.00047">
        <ele>505.954693</ele>
        <time>2026-07-08T08:07:26.000Z</time>
      </trkpt>
      <trkpt lat="47.3992" lon="16.00044">
        <ele>505.891214</ele>
        <time>2026-07-08T08:07:27.000Z</time>
      </trkpt>
      <trkpt lat="47.39914" lon="16.0004">
        <ele>505.825811</ele>
        <time>2026-07-08T08:07:28.000Z</time>
      </trkpt>
      <trkpt lat="47.39908" lon="16.00037">
        <ele>505.762572</ele>
        <time>2026-07-08T08:07:29.000Z</time>
      </trkpt>
      <trkpt lat="47.39902" lon="16.00034">
        <ele>505.699546</ele>
        <time>2026-07-08T08:07:30.000Z</time>
      </trkpt>
      <trkpt lat="47.39896" lon="16.00031">
        <ele>505.524886</ele>
        <time>2026-07-08T08:07:31.000Z</time>
      </trkpt>
      <trkpt lat="47.39891" lon="16.00028">
        <ele>505.337671</ele>
        <time>2026-07-08T08:07:32.000Z</time>
      </trkpt>
      <trkpt lat="47.39885" lon="16.00025">
        <ele>505.150329</ele>
        <time>2026-07-08T08:07:33.000Z</time>
      </trkpt>
      <trkpt lat="47.39879" lon="16.00022">
        <ele>504.963114</ele>
        <time>2026-07-08T08:07:34.000Z</time>
      </trkpt>
      <trkpt lat="47.39874" lon="16.00018">
        <ele>504.781626</ele>
        <time>2026-07-08T08:07:35.000Z</time>
      </trkpt>
      <trkpt lat="47.39868" lon="16.00015">
        <ele>504.597761</ele>
        <time>2026-07-08T08:07:36.000Z</time>
      </trkpt>
      <trkpt lat="47.39863" lon="16.00011">
        <ele>504.417762</ele>
        <time>2026-07-08T08:07:37.000Z</time>
      </trkpt>
      <trkpt lat="47.39858" lon="16.00007">
        <ele>504.237472</ele>
        <time>2026-07-08T08:07:38.000Z</time>
      </trkpt>
      <trkpt lat="47.39853" lon="16.00002">
        <ele>504.057715</ele>
        <time>2026-07-08T08:07:39.000Z</time>
      </trkpt>
      <trkpt lat="47.39848" lon="15.99997">
        <ele>503.874637</ele>
        <time>2026-07-08T08:07:40.000Z</time>
      </trkpt>
      <trkpt lat="47.39843" lon="15.99992">
        <ele>503.689261</ele>
        <time>2026-07-08T08:07:41.000Z</time>
      </trkpt>
      <trkpt lat="47.39838" lon="15.99987">
        <ele>503.50642</ele>
        <time>2026-07-08T08:07:42.000Z</time>
      </trkpt>
      <trkpt lat="47.39833" lon="15.99982">
        <ele>503.328584</ele>
        <time>2026-07-08T08:07:43.000Z</time>
      </trkpt>
      <trkpt lat="47.39828" lon="15.99977">
        <ele>503.143349</ele>
        <time>2026-07-08T08:07:44.000Z</time>
      </trkpt>
      <trkpt lat="47.39823" lon="15.99972">
        <ele>502.957973</ele>
        <time>2026-07-08T08:07:45.000Z</time>
      </trkpt>
      <trkpt lat="47.39818" lon="15.99967">
        <ele>502.771424</ele>
        <time>2026-07-08T08:07:46.000Z</time>
      </trkpt>
      <trkpt lat="47.39813" lon="15.99961">
        <ele>502.578777</ele>
        <time>2026-07-08T08:07:47.000Z</time>
      </trkpt>
      <trkpt lat="47.39808" lon="15.99956">
        <ele>502.382423</ele>
        <time>2026-07-08T08:07:48.000Z</time>
      </trkpt>
      <trkpt lat="47.39803" lon="15.99951">
        <ele>502.19193</ele>
        <time>2026-07-08T08:07:49.000Z</time>
      </trkpt>
      <trkpt lat="47.39798" lon="15.99947">
        <ele>502.019294</ele>
        <time>2026-07-08T08:07:50.000Z</time>
      </trkpt>
      <trkpt lat="47.39793" lon="15.99946">
        <ele>501.853611</ele>
        <time>2026-07-08T08:07:51.000Z</time>
      </trkpt>
      <trkpt lat="47.39787" lon="15.99948">
        <ele>501.686955</ele>
        <time>2026-07-08T08:07:52.000Z</time>
      </trkpt>
      <trkpt lat="47.39783" lon="15.99953">
        <ele>501.508956</ele>
        <time>2026-07-08T08:07:53.000Z</time>
      </trkpt>
      <trkpt lat="47.39779" lon="15.99962">
        <ele>501.305726</ele>
        <time>2026-07-08T08:07:54.000Z</time>
      </trkpt>
      <trkpt lat="47.39777" lon="15.99971">
        <ele>501.088903</ele>
        <time>2026-07-08T08:07:55.000Z</time>
      </trkpt>
      <trkpt lat="47.39774" lon="15.99982">
        <ele>500.845727</ele>
        <time>2026-07-08T08:07:56.000Z</time>
      </trkpt>
      <trkpt lat="47.39771" lon="15.99994">
        <ele>500.585858</ele>
        <time>2026-07-08T08:07:57.000Z</time>
      </trkpt>
      <trkpt lat="47.39768" lon="16.00007">
        <ele>500.311239</ele>
        <time>2026-07-08T08:07:58.000Z</time>
      </trkpt>
      <trkpt lat="47.39765" lon="16.00019">
        <ele>499.772317</ele>
        <time>2026-07-08T08:07:59.000Z</time>
      </trkpt>
      <trkpt lat="47.39763" lon="16.00032">
        <ele>498.973613</ele>
        <time>2026-07-08T08:08:00.000Z</time>
      </trkpt>
      <trkpt lat="47.39759" lon="16.00045">
        <ele>498.149512</ele>
        <time>2026-07-08T08:08:01.000Z</time>
      </trkpt>
      <trkpt lat="47.39756" lon="16.00059">
        <ele>497.295048</ele>
        <time>2026-07-08T08:08:02.000Z</time>
      </trkpt>
      <trkpt lat="47.39753" lon="16.00073">
        <ele>496.409875</ele>
        <time>2026-07-08T08:08:03.000Z</time>
      </trkpt>
      <trkpt lat="47.3975" lon="16.00088">
        <ele>495.482051</ele>
        <time>2026-07-08T08:08:04.000Z</time>
      </trkpt>
      <trkpt lat="47.39747" lon="16.00104">
        <ele>494.544131</ele>
        <time>2026-07-08T08:08:05.000Z</time>
      </trkpt>
      <trkpt lat="47.39745" lon="16.00119">
        <ele>493.650756</ele>
        <time>2026-07-08T08:08:06.000Z</time>
      </trkpt>
      <trkpt lat="47.39743" lon="16.00133">
        <ele>492.795616</ele>
        <time>2026-07-08T08:08:07.000Z</time>
      </trkpt>
      <trkpt lat="47.39741" lon="16.00146">
        <ele>491.989026</ele>
        <time>2026-07-08T08:08:08.000Z</time>
      </trkpt>
      <trkpt lat="47.3974" lon="16.00159">
        <ele>491.214248</ele>
        <time>2026-07-08T08:08:09.000Z</time>
      </trkpt>
      <trkpt lat="47.39738" lon="16.00171">
        <ele>490.531762</ele>
        <time>2026-07-08T08:08:10.000Z</time>
      </trkpt>
      <trkpt lat="47.39736" lon="16.0018">
        <ele>489.942547</ele>
        <time>2026-07-08T08:08:11.000Z</time>
      </trkpt>
      <trkpt lat="47.39733" lon="16.00187">
        <ele>489.429457</ele>
        <time>2026-07-08T08:08:12.000Z</time>
      </trkpt>
      <trkpt lat="47.39728" lon="16.00192">
        <ele>488.945956</ele>
        <time>2026-07-08T08:08:13.000Z</time>
      </trkpt>
      <trkpt lat="47.39723" lon="16.00194">
        <ele>488.483198</ele>
        <time>2026-07-08T08:08:14.000Z</time>
      </trkpt>
      <trkpt lat="47.39718" lon="16.00195">
        <ele>488.012529</ele>
        <time>2026-07-08T08:08:15.000Z</time>
      </trkpt>
      <trkpt lat="47.39713" lon="16.00194">
        <ele>487.57508</ele>
        <time>2026-07-08T08:08:16.000Z</time>
      </trkpt>
      <trkpt lat="47.39709" lon="16.00193">
        <ele>487.213138</ele>
        <time>2026-07-08T08:08:17.000Z</time>
      </trkpt>
      <trkpt lat="47.39706" lon="16.00193">
        <ele>486.934171</ele>
        <time>2026-07-08T08:08:18.000Z</time>
      </trkpt>
      <trkpt lat="47.39704" lon="16.00195">
        <ele>486.757508</ele>
        <time>2026-07-08T08:08:19.000Z</time>
      </trkpt>
      <trkpt lat="47.39705" lon="16.00198">
        <ele>486.601268</ele>
        <time>2026-07-08T08:08:20.000Z</time>
      </trkpt>
      <trkpt lat="47.39707" lon="16.00199">
        <ele>486.417362</ele>
        <time>2026-07-08T08:08:21.000Z</time>
      </trkpt>
      <trkpt lat="47.3971" lon="16.00199">
        <ele>486.216687</ele>
        <time>2026-07-08T08:08:22.000Z</time>
      </trkpt>
      <trkpt lat="47.39712" lon="16.00199">
        <ele>485.998938</ele>
        <time>2026-07-08T08:08:23.000Z</time>
      </trkpt>
      <trkpt lat="47.39715" lon="16.00198">
        <ele>485.753922</ele>
        <time>2026-07-08T08:08:24.000Z</time>
      </trkpt>
      <trkpt lat="47.39718" lon="16.00198">
        <ele>485.49024</ele>
        <time>2026-07-08T08:08:25.000Z</time>
      </trkpt>
      <trkpt lat="47.39721" lon="16.00197">
        <ele>485.225703</ele>
        <time>2026-07-08T08:08:26.000Z</time>
      </trkpt>
      <trkpt lat="47.39724" lon="16.00196">
        <ele>484.960181</ele>
        <time>2026-07-08T08:08:27.000Z</time>
      </trkpt>
      <trkpt lat="47.39727" lon="16.00195">
        <ele>484.667769</ele>
        <time>2026-07-08T08:08:28.000Z</time>
      </trkpt>
      <trkpt lat="47.3973" lon="16.00192">
        <ele>484.509826</ele>
        <time>2026-07-08T08:08:29.000Z</time>
      </trkpt>
      <trkpt lat="47.39733" lon="16.00189">
        <ele>484.52189</ele>
        <time>2026-07-08T08:08:30.000Z</time>
      </trkpt>
      <trkpt lat="47.39736" lon="16.00185">
        <ele>484.534541</ele>
        <time>2026-07-08T08:08:31.000Z</time>
      </trkpt>
      <trkpt lat="47.39738" lon="16.0018">
        <ele>484.547954</ele>
        <time>2026-07-08T08:08:32.000Z</time>
      </trkpt>
      <trkpt lat="47.3974" lon="16.00176">
        <ele>484.560015</ele>
        <time>2026-07-08T08:08:33.000Z</time>
      </trkpt>
      <trkpt lat="47.39741" lon="16.00171">
        <ele>484.572234</ele>
        <time>2026-07-08T08:08:34.000Z</time>
      </trkpt>
      <trkpt lat="47.39742" lon="16.00165">
        <ele>484.584983</ele>
        <time>2026-07-08T08:08:35.000Z</time>
      </trkpt>
      <trkpt lat="47.39743" lon="16.0016">
        <ele>484.597594</ele>
        <time>2026-07-08T08:08:36.000Z</time>
      </trkpt>
      <trkpt lat="47.39743" lon="16.00155">
        <ele>484.609045</ele>
        <time>2026-07-08T08:08:37.000Z</time>
      </trkpt>
      <trkpt lat="47.39742" lon="16.00151">
        <ele>484.618226</ele>
        <time>2026-07-08T08:08:38.000Z</time>
      </trkpt>
      <trkpt lat="47.39743" lon="16.00149">
        <ele>484.621794</ele>
        <time>2026-07-08T08:08:39.000Z</time>
      </trkpt>
      <trkpt lat="47.39742" lon="16.00147">
        <ele>484.627134</ele>
        <time>2026-07-08T08:08:40.000Z</time>
      </trkpt>
      <trkpt lat="47.39741" lon="16.00146">
        <ele>484.631487</ele>
        <time>2026-07-08T08:08:41.000Z</time>
      </trkpt>
      <trkpt lat="47.39739" lon="16.00145">
        <ele>484.63918</ele>
        <time>2026-07-08T08:08:42.000Z</time>
      </trkpt>
      <trkpt lat="47.39736" lon="16.00145">
        <ele>484.647716</ele>
        <time>2026-07-08T08:08:43.000Z</time>
      </trkpt>
      <trkpt lat="47.39733" lon="16.00144">
        <ele>484.657221</ele>
        <time>2026-07-08T08:08:44.000Z</time>
      </trkpt>
      <trkpt lat="47.3973" lon="16.00143">
        <ele>484.667208</ele>
        <time>2026-07-08T08:08:45.000Z</time>
      </trkpt>
      <trkpt lat="47.39727" lon="16.00143">
        <ele>484.677813</ele>
        <time>2026-07-08T08:08:46.000Z</time>
      </trkpt>
      <trkpt lat="47.39724" lon="16.00142">
        <ele>484.688751</ele>
        <time>2026-07-08T08:08:47.000Z</time>
      </trkpt>
      <trkpt lat="47.39721" lon="16.00141">
        <ele>484.700582</ele>
        <time>2026-07-08T08:08:48.000Z</time>
      </trkpt>
      <trkpt lat="47.39717" lon="16.00141">
        <ele>484.71307</ele>
        <time>2026-07-08T08:08:49.000Z</time>
      </trkpt>
      <trkpt lat="47.39713" lon="16.00141">
        <ele>484.725885</ele>
        <time>2026-07-08T08:08:50.000Z</time>
      </trkpt>
      <trkpt lat="47.39709" lon="16.00141">
        <ele>484.739373</ele>
        <time>2026-07-08T08:08:51.000Z</time>
      </trkpt>
      <trkpt lat="47.39705" lon="16.00141">
        <ele>484.752198</ele>
        <time>2026-07-08T08:08:52.000Z</time>
      </trkpt>
      <trkpt lat="47.39701" lon="16.00141">
        <ele>484.765679</ele>
        <time>2026-07-08T08:08:53.000Z</time>
      </trkpt>
      <trkpt lat="47.39697" lon="16.00141">
        <ele>484.779833</ele>
        <time>2026-07-08T08:08:54.000Z</time>
      </trkpt>
      <trkpt lat="47.39693" lon="16.00142">
        <ele>484.793995</ele>
        <time>2026-07-08T08:08:55.000Z</time>
      </trkpt>
      <trkpt lat="47.39689" lon="16.00142">
        <ele>484.80782</ele>
        <time>2026-07-08T08:08:56.000Z</time>
      </trkpt>
      <trkpt lat="47.39684" lon="16.00142">
        <ele>484.822656</ele>
        <time>2026-07-08T08:08:57.000Z</time>
      </trkpt>
      <trkpt lat="47.3968" lon="16.00141">
        <ele>484.837155</ele>
        <time>2026-07-08T08:08:58.000Z</time>
      </trkpt>
      <trkpt lat="47.39676" lon="16.00141">
        <ele>484.852382</ele>
        <time>2026-07-08T08:08:59.000Z</time>
      </trkpt>
      <trkpt lat="47.39671" lon="16.0014">
        <ele>484.867019</ele>
        <time>2026-07-08T08:09:00.000Z</time>
      </trkpt>
      <trkpt lat="47.39667" lon="16.00139">
        <ele>484.882294</ele>
        <time>2026-07-08T08:09:01.000Z</time>
      </trkpt>
      <trkpt lat="47.39662" lon="16.00138">
        <ele>484.897747</ele>
        <time>2026-07-08T08:09:02.000Z</time>
      </trkpt>
      <trkpt lat="47.39658" lon="16.00137">
        <ele>484.91375</ele>
        <time>2026-07-08T08:09:03.000Z</time>
      </trkpt>
      <trkpt lat="47.39653" lon="16.00136">
        <ele>484.929086</ele>
        <time>2026-07-08T08:09:04.000Z</time>
      </trkpt>
      <trkpt lat="47.39649" lon="16.00134">
        <ele>484.944584</ele>
        <time>2026-07-08T08:09:05.000Z</time>
      </trkpt>
      <trkpt lat="47.39644" lon="16.00133">
        <ele>484.959474</ele>
        <time>2026-07-08T08:09:06.000Z</time>
      </trkpt>
      <trkpt lat="47.3964" lon="16.00132">
        <ele>484.973277</ele>
        <time>2026-07-08T08:09:07.000Z</time>
      </trkpt>
      <trkpt lat="47.39637" lon="16.0013">
        <ele>484.986095</ele>
        <time>2026-07-08T08:09:08.000Z</time>
      </trkpt>
      <trkpt lat="47.39633" lon="16.00129">
        <ele>484.998861</ele>
        <time>2026-07-08T08:09:09.000Z</time>
      </trkpt>
      <trkpt lat="47.39629" lon="16.00128">
        <ele>485.011206</ele>
        <time>2026-07-08T08:09:10.000Z</time>
      </trkpt>
      <trkpt lat="47.39626" lon="16.00127">
        <ele>485.023809</ele>
        <time>2026-07-08T08:09:11.000Z</time>
      </trkpt>
      <trkpt lat="47.39622" lon="16.00126">
        <ele>485.036817</ele>
        <time>2026-07-08T08:09:12.000Z</time>
      </trkpt>
      <trkpt lat="47.39617" lon="16.00126">
        <ele>485.051731</ele>
        <time>2026-07-08T08:09:13.000Z</time>
      </trkpt>
      <trkpt lat="47.39613" lon="16.00125">
        <ele>485.067316</ele>
        <time>2026-07-08T08:09:14.000Z</time>
      </trkpt>
      <trkpt lat="47.39608" lon="16.00124">
        <ele>485.084989</ele>
        <time>2026-07-08T08:09:15.000Z</time>
      </trkpt>
      <trkpt lat="47.39602" lon="16.00123">
        <ele>485.102608</ele>
        <time>2026-07-08T08:09:16.000Z</time>
      </trkpt>
      <trkpt lat="47.39597" lon="16.00122">
        <ele>484.995226</ele>
        <time>2026-07-08T08:09:17.000Z</time>
      </trkpt>
      <trkpt lat="47.39592" lon="16.00121">
        <ele>484.793752</ele>
        <time>2026-07-08T08:09:18.000Z</time>
      </trkpt>
      <trkpt lat="47.39586" lon="16.00121">
        <ele>484.585286</ele>
        <time>2026-07-08T08:09:19.000Z</time>
      </trkpt>
      <trkpt lat="47.3958" lon="16.0012">
        <ele>484.366153</ele>
        <time>2026-07-08T08:09:20.000Z</time>
      </trkpt>
      <trkpt lat="47.39574" lon="16.00119">
        <ele>484.143717</ele>
        <time>2026-07-08T08:09:21.000Z</time>
      </trkpt>
      <trkpt lat="47.39567" lon="16.00119">
        <ele>483.906239</ele>
        <time>2026-07-08T08:09:22.000Z</time>
      </trkpt>
      <trkpt lat="47.39561" lon="16.00118">
        <ele>483.661988</ele>
        <time>2026-07-08T08:09:23.000Z</time>
      </trkpt>
      <trkpt lat="47.39553" lon="16.00117">
        <ele>483.399277</ele>
        <time>2026-07-08T08:09:24.000Z</time>
      </trkpt>
      <trkpt lat="47.39546" lon="16.00117">
        <ele>483.133081</ele>
        <time>2026-07-08T08:09:25.000Z</time>
      </trkpt>
      <trkpt lat="47.39539" lon="16.00116">
        <ele>482.859736</ele>
        <time>2026-07-08T08:09:26.000Z</time>
      </trkpt>
      <trkpt lat="47.39531" lon="16.00116">
        <ele>482.575576</ele>
        <time>2026-07-08T08:09:27.000Z</time>
      </trkpt>
      <trkpt lat="47.39523" lon="16.00115">
        <ele>482.284044</ele>
        <time>2026-07-08T08:09:28.000Z</time>
      </trkpt>
      <trkpt lat="47.39515" lon="16.00115">
        <ele>481.98484</ele>
        <time>2026-07-08T08:09:29.000Z</time>
      </trkpt>
      <trkpt lat="47.39506" lon="16.00114">
        <ele>481.674884</ele>
        <time>2026-07-08T08:09:30.000Z</time>
      </trkpt>
      <trkpt lat="47.39497" lon="16.00114">
        <ele>481.3544</ele>
        <time>2026-07-08T08:09:31.000Z</time>
      </trkpt>
      <trkpt lat="47.39488" lon="16.00113">
        <ele>481.019357</ele>
        <time>2026-07-08T08:09:32.000Z</time>
      </trkpt>
      <trkpt lat="47.39479" lon="16.00113">
        <ele>480.680611</ele>
        <time>2026-07-08T08:09:33.000Z</time>
      </trkpt>
      <trkpt lat="47.39469" lon="16.00112">
        <ele>480.319859</ele>
        <time>2026-07-08T08:09:34.000Z</time>
      </trkpt>
      <trkpt lat="47.39459" lon="16.00112">
        <ele>479.951725</ele>
        <time>2026-07-08T08:09:35.000Z</time>
      </trkpt>
      <trkpt lat="47.39448" lon="16.00111">
        <ele>479.568637</ele>
        <time>2026-07-08T08:09:36.000Z</time>
      </trkpt>
      <trkpt lat="47.39438" lon="16.00109">
        <ele>479.185201</ele>
        <time>2026-07-08T08:09:37.000Z</time>
      </trkpt>
      <trkpt lat="47.39427" lon="16.00108">
        <ele>478.801568</ele>
        <time>2026-07-08T08:09:38.000Z</time>
      </trkpt>
      <trkpt lat="47.39417" lon="16.00106">
        <ele>478.375366</ele>
        <time>2026-07-08T08:09:39.000Z</time>
      </trkpt>
      <trkpt lat="47.39407" lon="16.00104">
        <ele>477.875051</ele>
        <time>2026-07-08T08:09:40.000Z</time>
      </trkpt>
      <trkpt lat="47.39398" lon="16.00103">
        <ele>477.39106</ele>
        <time>2026-07-08T08:09:41.000Z</time>
      </trkpt>
      <trkpt lat="47.39388" lon="16.00101">
        <ele>476.907445</ele>
        <time>2026-07-08T08:09:42.000Z</time>
      </trkpt>
      <trkpt lat="47.39379" lon="16.001">
        <ele>476.429219</ele>
        <time>2026-07-08T08:09:43.000Z</time>
      </trkpt>
      <trkpt lat="47.39369" lon="16.00099">
        <ele>475.942509</ele>
        <time>2026-07-08T08:09:44.000Z</time>
      </trkpt>
      <trkpt lat="47.39359" lon="16.00098">
        <ele>475.440637</ele>
        <time>2026-07-08T08:09:45.000Z</time>
      </trkpt>
      <trkpt lat="47.39349" lon="16.00098">
        <ele>474.934266</ele>
        <time>2026-07-08T08:09:46.000Z</time>
      </trkpt>
      <trkpt lat="47.39339" lon="16.00098">
        <ele>474.422974</ele>
        <time>2026-07-08T08:09:47.000Z</time>
      </trkpt>
      <trkpt lat="47.39329" lon="16.00098">
        <ele>473.89148</ele>
        <time>2026-07-08T08:09:48.000Z</time>
      </trkpt>
      <trkpt lat="47.39318" lon="16.00098">
        <ele>473.339696</ele>
        <time>2026-07-08T08:09:49.000Z</time>
      </trkpt>
      <trkpt lat="47.39307" lon="16.00097">
        <ele>472.782629</ele>
        <time>2026-07-08T08:09:50.000Z</time>
      </trkpt>
      <trkpt lat="47.39296" lon="16.00097">
        <ele>472.225562</ele>
        <time>2026-07-08T08:09:51.000Z</time>
      </trkpt>
      <trkpt lat="47.39285" lon="16.00096">
        <ele>471.668379</ele>
        <time>2026-07-08T08:09:52.000Z</time>
      </trkpt>
      <trkpt lat="47.39274" lon="16.00095">
        <ele>471.110059</ele>
        <time>2026-07-08T08:09:53.000Z</time>
      </trkpt>
      <trkpt lat="47.39263" lon="16.00094">
        <ele>470.550888</ele>
        <time>2026-07-08T08:09:54.000Z</time>
      </trkpt>
      <trkpt lat="47.39252" lon="16.00092">
        <ele>470.001797</ele>
        <time>2026-07-08T08:09:55.000Z</time>
      </trkpt>
      <trkpt lat="47.39241" lon="16.00091">
        <ele>469.458351</ele>
        <time>2026-07-08T08:09:56.000Z</time>
      </trkpt>
      <trkpt lat="47.39231" lon="16.00089">
        <ele>468.762193</ele>
        <time>2026-07-08T08:09:57.000Z</time>
      </trkpt>
      <trkpt lat="47.3922" lon="16.00088">
        <ele>468.065989</ele>
        <time>2026-07-08T08:09:58.000Z</time>
      </trkpt>
      <trkpt lat="47.39209" lon="16.00087">
        <ele>467.363382</ele>
        <time>2026-07-08T08:09:59.000Z</time>
      </trkpt>
      <trkpt lat="47.39198" lon="16.00085">
        <ele>466.679612</ele>
        <time>2026-07-08T08:10:00.000Z</time>
      </trkpt>
      <trkpt lat="47.39187" lon="16.00084">
        <ele>465.9706</ele>
        <time>2026-07-08T08:10:01.000Z</time>
      </trkpt>
      <trkpt lat="47.39176" lon="16.00083">
        <ele>465.261588</ele>
        <time>2026-07-08T08:10:02.000Z</time>
      </trkpt>
      <trkpt lat="47.39165" lon="16.00081">
        <ele>464.539033</ele>
        <time>2026-07-08T08:10:03.000Z</time>
      </trkpt>
      <trkpt lat="47.39154" lon="16.0008">
        <ele>463.810079</ele>
        <time>2026-07-08T08:10:04.000Z</time>
      </trkpt>
      <trkpt lat="47.39142" lon="16.00078">
        <ele>463.073903</ele>
        <time>2026-07-08T08:10:05.000Z</time>
      </trkpt>
      <trkpt lat="47.39132" lon="16.00077">
        <ele>462.377699</ele>
        <time>2026-07-08T08:10:06.000Z</time>
      </trkpt>
      <trkpt lat="47.39121" lon="16.00075">
        <ele>461.668327</ele>
        <time>2026-07-08T08:10:07.000Z</time>
      </trkpt>
      <trkpt lat="47.3911" lon="16.00074">
        <ele>460.976405</ele>
        <time>2026-07-08T08:10:08.000Z</time>
      </trkpt>
      <trkpt lat="47.391" lon="16.00071">
        <ele>460.304287</ele>
        <time>2026-07-08T08:10:09.000Z</time>
      </trkpt>
      <trkpt lat="47.3909" lon="16.00068">
        <ele>459.666639</ele>
        <time>2026-07-08T08:10:10.000Z</time>
      </trkpt>
      <trkpt lat="47.3908" lon="16.00064">
        <ele>459.037562</ele>
        <time>2026-07-08T08:10:11.000Z</time>
      </trkpt>
      <trkpt lat="47.39071" lon="16.0006">
        <ele>458.428771</ele>
        <time>2026-07-08T08:10:12.000Z</time>
      </trkpt>
      <trkpt lat="47.39062" lon="16.00057">
        <ele>457.842554</ele>
        <time>2026-07-08T08:10:13.000Z</time>
      </trkpt>
      <trkpt lat="47.39053" lon="16.00054">
        <ele>457.351194</ele>
        <time>2026-07-08T08:10:14.000Z</time>
      </trkpt>
      <trkpt lat="47.39044" lon="16.00053">
        <ele>456.856713</ele>
        <time>2026-07-08T08:10:15.000Z</time>
      </trkpt>
      <trkpt lat="47.39035" lon="16.00051">
        <ele>456.357983</ele>
        <time>2026-07-08T08:10:16.000Z</time>
      </trkpt>
      <trkpt lat="47.39026" lon="16.0005">
        <ele>455.900211</ele>
        <time>2026-07-08T08:10:17.000Z</time>
      </trkpt>
      <trkpt lat="47.39019" lon="16.00046">
        <ele>455.495268</ele>
        <time>2026-07-08T08:10:18.000Z</time>
      </trkpt>
      <trkpt lat="47.39013" lon="16.0004">
        <ele>455.12343</ele>
        <time>2026-07-08T08:10:19.000Z</time>
      </trkpt>
      <trkpt lat="47.39009" lon="16.00032">
        <ele>454.744457</ele>
        <time>2026-07-08T08:10:20.000Z</time>
      </trkpt>
      <trkpt lat="47.39005" lon="16.00024">
        <ele>454.37605</ele>
        <time>2026-07-08T08:10:21.000Z</time>
      </trkpt>
      <trkpt lat="47.39002" lon="16.00015">
        <ele>454.015367</ele>
        <time>2026-07-08T08:10:22.000Z</time>
      </trkpt>
      <trkpt lat="47.38998" lon="16.00007">
        <ele>453.65829</ele>
        <time>2026-07-08T08:10:23.000Z</time>
      </trkpt>
      <trkpt lat="47.38995" lon="15.99998">
        <ele>453.318605</ele>
        <time>2026-07-08T08:10:24.000Z</time>
      </trkpt>
      <trkpt lat="47.38992" lon="15.99991">
        <ele>453.000417</ele>
        <time>2026-07-08T08:10:25.000Z</time>
      </trkpt>
      <trkpt lat="47.38989" lon="15.99985">
        <ele>452.711839</ele>
        <time>2026-07-08T08:10:26.000Z</time>
      </trkpt>
      <trkpt lat="47.38985" lon="15.9998">
        <ele>452.456105</ele>
        <time>2026-07-08T08:10:27.000Z</time>
      </trkpt>
      <trkpt lat="47.38981" lon="15.99978">
        <ele>452.20649</ele>
        <time>2026-07-08T08:10:28.000Z</time>
      </trkpt>
      <trkpt lat="47.38976" lon="15.99976">
        <ele>451.965247</ele>
        <time>2026-07-08T08:10:29.000Z</time>
      </trkpt>
      <trkpt lat="47.38972" lon="15.99976">
        <ele>451.735413</ele>
        <time>2026-07-08T08:10:30.000Z</time>
      </trkpt>
      <trkpt lat="47.38967" lon="15.99976">
        <ele>451.478878</ele>
        <time>2026-07-08T08:10:31.000Z</time>
      </trkpt>
      <trkpt lat="47.38962" lon="15.99977">
        <ele>451.210564</ele>
        <time>2026-07-08T08:10:32.000Z</time>
      </trkpt>
      <trkpt lat="47.38957" lon="15.99978">
        <ele>450.928811</ele>
        <time>2026-07-08T08:10:33.000Z</time>
      </trkpt>
      <trkpt lat="47.38952" lon="15.9998">
        <ele>450.634699</ele>
        <time>2026-07-08T08:10:34.000Z</time>
      </trkpt>
      <trkpt lat="47.38947" lon="15.99983">
        <ele>450.339014</ele>
        <time>2026-07-08T08:10:35.000Z</time>
      </trkpt>
      <trkpt lat="47.38941" lon="15.99986">
        <ele>450.035791</ele>
        <time>2026-07-08T08:10:36.000Z</time>
      </trkpt>
      <trkpt lat="47.38936" lon="15.9999">
        <ele>449.720752</ele>
        <time>2026-07-08T08:10:37.000Z</time>
      </trkpt>
      <trkpt lat="47.38931" lon="15.99994">
        <ele>449.420843</ele>
        <time>2026-07-08T08:10:38.000Z</time>
      </trkpt>
      <trkpt lat="47.38927" lon="15.99999">
        <ele>449.128067</ele>
        <time>2026-07-08T08:10:39.000Z</time>
      </trkpt>
      <trkpt lat="47.38923" lon="16.00004">
        <ele>448.859066</ele>
        <time>2026-07-08T08:10:40.000Z</time>
      </trkpt>
      <trkpt lat="47.3892" lon="16.00009">
        <ele>448.615175</ele>
        <time>2026-07-08T08:10:41.000Z</time>
      </trkpt>
      <trkpt lat="47.38916" lon="16.00013">
        <ele>448.378789</ele>
        <time>2026-07-08T08:10:42.000Z</time>
      </trkpt>
      <trkpt lat="47.38913" lon="16.00016">
        <ele>448.270057</ele>
        <time>2026-07-08T08:10:43.000Z</time>
      </trkpt>
      <trkpt lat="47.38909" lon="16.00019">
        <ele>448.237636</ele>
        <time>2026-07-08T08:10:44.000Z</time>
      </trkpt>
      <trkpt lat="47.38906" lon="16.00023">
        <ele>448.203283</ele>
        <time>2026-07-08T08:10:45.000Z</time>
      </trkpt>
      <trkpt lat="47.38902" lon="16.00027">
        <ele>448.168619</ele>
        <time>2026-07-08T08:10:46.000Z</time>
      </trkpt>
      <trkpt lat="47.38899" lon="16.00031">
        <ele>448.132669</ele>
        <time>2026-07-08T08:10:47.000Z</time>
      </trkpt>
      <trkpt lat="47.38895" lon="16.00035">
        <ele>448.094779</ele>
        <time>2026-07-08T08:10:48.000Z</time>
      </trkpt>
      <trkpt lat="47.38891" lon="16.00039">
        <ele>448.055567</ele>
        <time>2026-07-08T08:10:49.000Z</time>
      </trkpt>
      <trkpt lat="47.38886" lon="16.00043">
        <ele>448.015686</ele>
        <time>2026-07-08T08:10:50.000Z</time>
      </trkpt>
      <trkpt lat="47.38882" lon="16.00045">
        <ele>447.975069</ele>
        <time>2026-07-08T08:10:51.000Z</time>
      </trkpt>
      <trkpt lat="47.38876" lon="16.00046">
        <ele>447.9334</ele>
        <time>2026-07-08T08:10:52.000Z</time>
      </trkpt>
      <trkpt lat="47.38871" lon="16.00045">
        <ele>447.891019</ele>
        <time>2026-07-08T08:10:53.000Z</time>
      </trkpt>
      <trkpt lat="47.38866" lon="16.00044">
        <ele>447.84838</ele>
        <time>2026-07-08T08:10:54.000Z</time>
      </trkpt>
      <trkpt lat="47.3886" lon="16.00043">
        <ele>447.80495</ele>
        <time>2026-07-08T08:10:55.000Z</time>
      </trkpt>
      <trkpt lat="47.38855" lon="16.00042">
        <ele>447.76079</ele>
        <time>2026-07-08T08:10:56.000Z</time>
      </trkpt>
      <trkpt lat="47.38849" lon="16.00042">
        <ele>447.716816</ele>
        <time>2026-07-08T08:10:57.000Z</time>
      </trkpt>
      <trkpt lat="47.38843" lon="16.00042">
        <ele>447.668922</ele>
        <time>2026-07-08T08:10:58.000Z</time>
      </trkpt>
      <trkpt lat="47.38838" lon="16.00043">
        <ele>447.623765</ele>
        <time>2026-07-08T08:10:59.000Z</time>
      </trkpt>
      <trkpt lat="47.38832" lon="16.00045">
        <ele>447.573629</ele>
        <time>2026-07-08T08:11:00.000Z</time>
      </trkpt>
      <trkpt lat="47.38825" lon="16.00046">
        <ele>447.518911</ele>
        <time>2026-07-08T08:11:01.000Z</time>
      </trkpt>
      <trkpt lat="47.38818" lon="16.00047">
        <ele>447.462984</ele>
        <time>2026-07-08T08:11:02.000Z</time>
      </trkpt>
      <trkpt lat="47.38811" lon="16.00047">
        <ele>447.405364</ele>
        <time>2026-07-08T08:11:03.000Z</time>
      </trkpt>
      <trkpt lat="47.38803" lon="16.0005">
        <ele>447.346461</ele>
        <time>2026-07-08T08:11:04.000Z</time>
      </trkpt>
      <trkpt lat="47.38797" lon="16.00054">
        <ele>447.293242</ele>
        <time>2026-07-08T08:11:05.000Z</time>
      </trkpt>
      <trkpt lat="47.38793" lon="16.00059">
        <ele>447.247312</ele>
        <time>2026-07-08T08:11:06.000Z</time>
      </trkpt>
      <trkpt lat="47.3879" lon="16.00065">
        <ele>447.209877</ele>
        <time>2026-07-08T08:11:07.000Z</time>
      </trkpt>
      <trkpt lat="47.38787" lon="16.00069">
        <ele>447.179254</ele>
        <time>2026-07-08T08:11:08.000Z</time>
      </trkpt>
      <trkpt lat="47.38785" lon="16.00073">
        <ele>447.151058</ele>
        <time>2026-07-08T08:11:09.000Z</time>
      </trkpt>
      <trkpt lat="47.38784" lon="16.00078">
        <ele>447.122819</ele>
        <time>2026-07-08T08:11:10.000Z</time>
      </trkpt>
      <trkpt lat="47.38781" lon="16.00082">
        <ele>447.091281</ele>
        <time>2026-07-08T08:11:11.000Z</time>
      </trkpt>
      <trkpt lat="47.38777" lon="16.00086">
        <ele>447.05469</ele>
        <time>2026-07-08T08:11:12.000Z</time>
      </trkpt>
      <trkpt lat="47.38773" lon="16.00089">
        <ele>447.017026</ele>
        <time>2026-07-08T08:11:13.000Z</time>
      </trkpt>
      <trkpt lat="47.38769" lon="16.00093">
        <ele>446.977846</ele>
        <time>2026-07-08T08:11:14.000Z</time>
      </trkpt>
      <trkpt lat="47.38764" lon="16.00096">
        <ele>446.938665</ele>
        <time>2026-07-08T08:11:15.000Z</time>
      </trkpt>
      <trkpt lat="47.3876" lon="16.001">
        <ele>446.896753</ele>
        <time>2026-07-08T08:11:16.000Z</time>
      </trkpt>
      <trkpt lat="47.38755" lon="16.00104">
        <ele>446.855102</ele>
        <time>2026-07-08T08:11:17.000Z</time>
      </trkpt>
      <trkpt lat="47.38751" lon="16.00108">
        <ele>446.822058</ele>
        <time>2026-07-08T08:11:18.000Z</time>
      </trkpt>
      <trkpt lat="47.38746" lon="16.00112">
        <ele>446.788469</ele>
        <time>2026-07-08T08:11:19.000Z</time>
      </trkpt>
      <trkpt lat="47.38742" lon="16.00116">
        <ele>446.756422</ele>
        <time>2026-07-08T08:11:20.000Z</time>
      </trkpt>
      <trkpt lat="47.38738" lon="16.0012">
        <ele>446.726237</ele>
        <time>2026-07-08T08:11:21.000Z</time>
      </trkpt>
      <trkpt lat="47.38734" lon="16.00124">
        <ele>446.697415</ele>
        <time>2026-07-08T08:11:22.000Z</time>
      </trkpt>
      <trkpt lat="47.38731" lon="16.00127">
        <ele>446.669366</ele>
        <time>2026-07-08T08:11:23.000Z</time>
      </trkpt>
      <trkpt lat="47.38727" lon="16.00131">
        <ele>446.64018</ele>
        <time>2026-07-08T08:11:24.000Z</time>
      </trkpt>
      <trkpt lat="47.38723" lon="16.00134">
        <ele>446.610446</ele>
        <time>2026-07-08T08:11:25.000Z</time>
      </trkpt>
      <trkpt lat="47.38719" lon="16.00138">
        <ele>446.580489</ele>
        <time>2026-07-08T08:11:26.000Z</time>
      </trkpt>
      <trkpt lat="47.38715" lon="16.00142">
        <ele>446.549064</ele>
        <time>2026-07-08T08:11:27.000Z</time>
      </trkpt>
      <trkpt lat="47.3871" lon="16.00146">
        <ele>446.516021</ele>
        <time>2026-07-08T08:11:28.000Z</time>
      </trkpt>
      <trkpt lat="47.38706" lon="16.0015">
        <ele>446.484832</ele>
        <time>2026-07-08T08:11:29.000Z</time>
      </trkpt>
      <trkpt lat="47.38702" lon="16.00154">
        <ele>446.451789</ele>
        <time>2026-07-08T08:11:30.000Z</time>
      </trkpt>
      <trkpt lat="47.38698" lon="16.00158">
        <ele>446.419288</ele>
        <time>2026-07-08T08:11:31.000Z</time>
      </trkpt>
      <trkpt lat="47.38693" lon="16.00162">
        <ele>446.386555</ele>
        <time>2026-07-08T08:11:32.000Z</time>
      </trkpt>
      <trkpt lat="47.38689" lon="16.00166">
        <ele>446.352966</ele>
        <time>2026-07-08T08:11:33.000Z</time>
      </trkpt>
      <trkpt lat="47.38684" lon="16.0017">
        <ele>446.31946</ele>
        <time>2026-07-08T08:11:34.000Z</time>
      </trkpt>
      <trkpt lat="47.3868" lon="16.00174">
        <ele>446.285183</ele>
        <time>2026-07-08T08:11:35.000Z</time>
      </trkpt>
      <trkpt lat="47.38676" lon="16.00179">
        <ele>446.25277</ele>
        <time>2026-07-08T08:11:36.000Z</time>
      </trkpt>
      <trkpt lat="47.38672" lon="16.00184">
        <ele>446.221275</ele>
        <time>2026-07-08T08:11:37.000Z</time>
      </trkpt>
      <trkpt lat="47.3867" lon="16.00189">
        <ele>446.194017</ele>
        <time>2026-07-08T08:11:38.000Z</time>
      </trkpt>
      <trkpt lat="47.38669" lon="16.00194">
        <ele>446.169357</ele>
        <time>2026-07-08T08:11:39.000Z</time>
      </trkpt>
      <trkpt lat="47.38669" lon="16.002">
        <ele>446.143778</ele>
        <time>2026-07-08T08:11:40.000Z</time>
      </trkpt>
      <trkpt lat="47.38669" lon="16.00207">
        <ele>446.115021</ele>
        <time>2026-07-08T08:11:41.000Z</time>
      </trkpt>
      <trkpt lat="47.3867" lon="16.00214">
        <ele>446.082914</ele>
        <time>2026-07-08T08:11:42.000Z</time>
      </trkpt>
      <trkpt lat="47.38672" lon="16.00222">
        <ele>446.04697</ele>
        <time>2026-07-08T08:11:43.000Z</time>
      </trkpt>
      <trkpt lat="47.38674" lon="16.0023">
        <ele>446.008822</ele>
        <time>2026-07-08T08:11:44.000Z</time>
      </trkpt>
      <trkpt lat="47.38676" lon="16.00239">
        <ele>445.968381</ele>
        <time>2026-07-08T08:11:45.000Z</time>
      </trkpt>
      <trkpt lat="47.38679" lon="16.00248">
        <ele>445.92667</ele>
        <time>2026-07-08T08:11:46.000Z</time>
      </trkpt>
      <trkpt lat="47.38681" lon="16.00256">
        <ele>445.887267</ele>
        <time>2026-07-08T08:11:47.000Z</time>
      </trkpt>
      <trkpt lat="47.38683" lon="16.00264">
        <ele>445.849878</ele>
        <time>2026-07-08T08:11:48.000Z</time>
      </trkpt>
      <trkpt lat="47.38686" lon="16.00272">
        <ele>445.81251</ele>
        <time>2026-07-08T08:11:49.000Z</time>
      </trkpt>
      <trkpt lat="47.38688" lon="16.0028">
        <ele>445.776068</ele>
        <time>2026-07-08T08:11:50.000Z</time>
      </trkpt>
      <trkpt lat="47.3869" lon="16.00287">
        <ele>445.740417</ele>
        <time>2026-07-08T08:11:51.000Z</time>
      </trkpt>
      <trkpt lat="47.38693" lon="16.00295">
        <ele>445.705813</ele>
        <time>2026-07-08T08:11:52.000Z</time>
      </trkpt>
      <trkpt lat="47.38695" lon="16.00302">
        <ele>445.658757</ele>
        <time>2026-07-08T08:11:53.000Z</time>
      </trkpt>
      <trkpt lat="47.38697" lon="16.0031">
        <ele>445.61156</ele>
        <time>2026-07-08T08:11:54.000Z</time>
      </trkpt>
      <trkpt lat="47.38698" lon="16.00318">
        <ele>445.564661</ele>
        <time>2026-07-08T08:11:55.000Z</time>
      </trkpt>
      <trkpt lat="47.38697" lon="16.00326">
        <ele>445.52056</ele>
        <time>2026-07-08T08:11:56.000Z</time>
      </trkpt>
      <trkpt lat="47.38694" lon="16.00332">
        <ele>445.479974</ele>
        <time>2026-07-08T08:11:57.000Z</time>
      </trkpt>
      <trkpt lat="47.38689" lon="16.00336">
        <ele>445.429428</ele>
        <time>2026-07-08T08:11:58.000Z</time>
      </trkpt>
      <trkpt lat="47.38684" lon="16.00341">
        <ele>445.379881</ele>
        <time>2026-07-08T08:11:59.000Z</time>
      </trkpt>
      <trkpt lat="47.38679" lon="16.00345">
        <ele>445.33049</ele>
        <time>2026-07-08T08:12:00.000Z</time>
      </trkpt>
      <trkpt lat="47.38674" lon="16.0035">
        <ele>445.279997</ele>
        <time>2026-07-08T08:12:01.000Z</time>
      </trkpt>
      <trkpt lat="47.38669" lon="16.00356">
        <ele>445.228474</ele>
        <time>2026-07-08T08:12:02.000Z</time>
      </trkpt>
      <trkpt lat="47.38663" lon="16.00361">
        <ele>445.175487</ele>
        <time>2026-07-08T08:12:03.000Z</time>
      </trkpt>
      <trkpt lat="47.38658" lon="16.00366">
        <ele>445.122274</ele>
        <time>2026-07-08T08:12:04.000Z</time>
      </trkpt>
      <trkpt lat="47.38652" lon="16.00371">
        <ele>445.066574</ele>
        <time>2026-07-08T08:12:05.000Z</time>
      </trkpt>
      <trkpt lat="47.38647" lon="16.00376">
        <ele>445.011278</ele>
        <time>2026-07-08T08:12:06.000Z</time>
      </trkpt>
      <trkpt lat="47.38641" lon="16.00381">
        <ele>444.957585</ele>
        <time>2026-07-08T08:12:07.000Z</time>
      </trkpt>
      <trkpt lat="47.38636" lon="16.00387">
        <ele>444.903293</ele>
        <time>2026-07-08T08:12:08.000Z</time>
      </trkpt>
      <trkpt lat="47.3863" lon="16.00392">
        <ele>444.849</ele>
        <time>2026-07-08T08:12:09.000Z</time>
      </trkpt>
      <trkpt lat="47.38625" lon="16.00397">
        <ele>444.795097</ele>
        <time>2026-07-08T08:12:10.000Z</time>
      </trkpt>
      <trkpt lat="47.38619" lon="16.00402">
        <ele>444.740805</ele>
        <time>2026-07-08T08:12:11.000Z</time>
      </trkpt>
      <trkpt lat="47.38614" lon="16.00407">
        <ele>444.688214</ele>
        <time>2026-07-08T08:12:12.000Z</time>
      </trkpt>
      <trkpt lat="47.38609" lon="16.00413">
        <ele>444.634684</ele>
        <time>2026-07-08T08:12:13.000Z</time>
      </trkpt>
      <trkpt lat="47.38603" lon="16.00418">
        <ele>444.580086</ele>
        <time>2026-07-08T08:12:14.000Z</time>
      </trkpt>
      <trkpt lat="47.38598" lon="16.00423">
        <ele>444.526182</ele>
        <time>2026-07-08T08:12:15.000Z</time>
      </trkpt>
      <trkpt lat="47.38592" lon="16.00429">
        <ele>444.470961</ele>
        <time>2026-07-08T08:12:16.000Z</time>
      </trkpt>
      <trkpt lat="47.38587" lon="16.00434">
        <ele>444.415967</ele>
        <time>2026-07-08T08:12:17.000Z</time>
      </trkpt>
      <trkpt lat="47.38581" lon="16.00439">
        <ele>444.360267</ele>
        <time>2026-07-08T08:12:18.000Z</time>
      </trkpt>
      <trkpt lat="47.38575" lon="16.00445">
        <ele>444.303564</ele>
        <time>2026-07-08T08:12:19.000Z</time>
      </trkpt>
      <trkpt lat="47.3857" lon="16.0045">
        <ele>444.246958</ele>
        <time>2026-07-08T08:12:20.000Z</time>
      </trkpt>
      <trkpt lat="47.38564" lon="16.00456">
        <ele>444.183863</ele>
        <time>2026-07-08T08:12:21.000Z</time>
      </trkpt>
      <trkpt lat="47.38558" lon="16.00462">
        <ele>444.111183</ele>
        <time>2026-07-08T08:12:22.000Z</time>
      </trkpt>
      <trkpt lat="47.38553" lon="16.00468">
        <ele>444.041035</ele>
        <time>2026-07-08T08:12:23.000Z</time>
      </trkpt>
      <trkpt lat="47.38548" lon="16.00474">
        <ele>443.968355</ele>
        <time>2026-07-08T08:12:24.000Z</time>
      </trkpt>
      <trkpt lat="47.38542" lon="16.0048">
        <ele>443.896103</ele>
        <time>2026-07-08T08:12:25.000Z</time>
      </trkpt>
      <trkpt lat="47.38537" lon="16.00487">
        <ele>443.823737</ele>
        <time>2026-07-08T08:12:26.000Z</time>
      </trkpt>
      <trkpt lat="47.38531" lon="16.00494">
        <ele>443.749653</ele>
        <time>2026-07-08T08:12:27.000Z</time>
      </trkpt>
      <trkpt lat="47.38526" lon="16.005">
        <ele>443.677953</ele>
        <time>2026-07-08T08:12:28.000Z</time>
      </trkpt>
      <trkpt lat="47.38521" lon="16.00507">
        <ele>443.60341</ele>
        <time>2026-07-08T08:12:29.000Z</time>
      </trkpt>
      <trkpt lat="47.38516" lon="16.00514">
        <ele>443.53171</ele>
        <time>2026-07-08T08:12:30.000Z</time>
      </trkpt>
      <trkpt lat="47.3851" lon="16.0052">
        <ele>443.458532</ele>
        <time>2026-07-08T08:12:31.000Z</time>
      </trkpt>
      <trkpt lat="47.38505" lon="16.00527">
        <ele>443.387303</ele>
        <time>2026-07-08T08:12:32.000Z</time>
      </trkpt>
      <trkpt lat="47.385" lon="16.00534">
        <ele>443.316384</ele>
        <time>2026-07-08T08:12:33.000Z</time>
      </trkpt>
      <trkpt lat="47.38495" lon="16.0054">
        <ele>443.244986</ele>
        <time>2026-07-08T08:12:34.000Z</time>
      </trkpt>
      <trkpt lat="47.3849" lon="16.00547">
        <ele>443.173104</ele>
        <time>2026-07-08T08:12:35.000Z</time>
      </trkpt>
      <trkpt lat="47.38485" lon="16.00554">
        <ele>443.102661</ele>
        <time>2026-07-08T08:12:36.000Z</time>
      </trkpt>
      <trkpt lat="47.3848" lon="16.00561">
        <ele>443.032517</ele>
        <time>2026-07-08T08:12:37.000Z</time>
      </trkpt>
      <trkpt lat="47.38476" lon="16.00567">
        <ele>442.963139</ele>
        <time>2026-07-08T08:12:38.000Z</time>
      </trkpt>
      <trkpt lat="47.38471" lon="16.00574">
        <ele>442.894731</ele>
        <time>2026-07-08T08:12:39.000Z</time>
      </trkpt>
      <trkpt lat="47.38466" lon="16.0058">
        <ele>442.826606</ele>
        <time>2026-07-08T08:12:40.000Z</time>
      </trkpt>
      <trkpt lat="47.38461" lon="16.00587">
        <ele>442.757988</ele>
        <time>2026-07-08T08:12:41.000Z</time>
      </trkpt>
      <trkpt lat="47.38457" lon="16.00594">
        <ele>442.689621</ele>
        <time>2026-07-08T08:12:42.000Z</time>
      </trkpt>
      <trkpt lat="47.38452" lon="16.00601">
        <ele>442.61801</ele>
        <time>2026-07-08T08:12:43.000Z</time>
      </trkpt>
      <trkpt lat="47.38447" lon="16.00608">
        <ele>442.54715</ele>
        <time>2026-07-08T08:12:44.000Z</time>
      </trkpt>
      <trkpt lat="47.38442" lon="16.00615">
        <ele>442.474263</ele>
        <time>2026-07-08T08:12:45.000Z</time>
      </trkpt>
      <trkpt lat="47.38437" lon="16.00623">
        <ele>442.401153</ele>
        <time>2026-07-08T08:12:46.000Z</time>
      </trkpt>
      <trkpt lat="47.38433" lon="16.0063">
        <ele>442.32775</ele>
        <time>2026-07-08T08:12:47.000Z</time>
      </trkpt>
      <trkpt lat="47.38428" lon="16.00637">
        <ele>442.289967</ele>
        <time>2026-07-08T08:12:48.000Z</time>
      </trkpt>
      <trkpt lat="47.38423" lon="16.00645">
        <ele>442.254734</ele>
        <time>2026-07-08T08:12:49.000Z</time>
      </trkpt>
      <trkpt lat="47.38418" lon="16.00652">
        <ele>442.220553</ele>
        <time>2026-07-08T08:12:50.000Z</time>
      </trkpt>
      <trkpt lat="47.38413" lon="16.00659">
        <ele>442.186126</ele>
        <time>2026-07-08T08:12:51.000Z</time>
      </trkpt>
      <trkpt lat="47.38409" lon="16.00667">
        <ele>442.152289</ele>
        <time>2026-07-08T08:12:52.000Z</time>
      </trkpt>
      <trkpt lat="47.38404" lon="16.00674">
        <ele>442.119042</ele>
        <time>2026-07-08T08:12:53.000Z</time>
      </trkpt>
      <trkpt lat="47.384" lon="16.00681">
        <ele>442.08629</ele>
        <time>2026-07-08T08:12:54.000Z</time>
      </trkpt>
      <trkpt lat="47.38395" lon="16.00687">
        <ele>442.054862</ele>
        <time>2026-07-08T08:12:55.000Z</time>
      </trkpt>
      <trkpt lat="47.38391" lon="16.00694">
        <ele>442.023712</ele>
        <time>2026-07-08T08:12:56.000Z</time>
      </trkpt>
      <trkpt lat="47.38387" lon="16.00701">
        <ele>441.992284</ele>
        <time>2026-07-08T08:12:57.000Z</time>
      </trkpt>
      <trkpt lat="47.38383" lon="16.00708">
        <ele>441.961975</ele>
        <time>2026-07-08T08:12:58.000Z</time>
      </trkpt>
      <trkpt lat="47.38379" lon="16.00714">
        <ele>441.931665</ele>
        <time>2026-07-08T08:12:59.000Z</time>
      </trkpt>
      <trkpt lat="47.38375" lon="16.00721">
        <ele>441.901101</ele>
        <time>2026-07-08T08:13:00.000Z</time>
      </trkpt>
      <trkpt lat="47.38371" lon="16.00728">
        <ele>441.870458</ele>
        <time>2026-07-08T08:13:01.000Z</time>
      </trkpt>
      <trkpt lat="47.38367" lon="16.00734">
        <ele>441.839725</ele>
        <time>2026-07-08T08:13:02.000Z</time>
      </trkpt>
      <trkpt lat="47.38362" lon="16.00741">
        <ele>441.808743</ele>
        <time>2026-07-08T08:13:03.000Z</time>
      </trkpt>
      <trkpt lat="47.38358" lon="16.00748">
        <ele>441.7786</ele>
        <time>2026-07-08T08:13:04.000Z</time>
      </trkpt>
      <trkpt lat="47.38354" lon="16.00754">
        <ele>441.747619</ele>
        <time>2026-07-08T08:13:05.000Z</time>
      </trkpt>
      <trkpt lat="47.3835" lon="16.00761">
        <ele>441.716784</ele>
        <time>2026-07-08T08:13:06.000Z</time>
      </trkpt>
      <trkpt lat="47.38345" lon="16.00767">
        <ele>441.685356</ele>
        <time>2026-07-08T08:13:07.000Z</time>
      </trkpt>
      <trkpt lat="47.38341" lon="16.00774">
        <ele>441.654713</ele>
        <time>2026-07-08T08:13:08.000Z</time>
      </trkpt>
      <trkpt lat="47.38337" lon="16.00781">
        <ele>441.624148</ele>
        <time>2026-07-08T08:13:09.000Z</time>
      </trkpt>
      <trkpt lat="47.38333" lon="16.00788">
        <ele>441.593326</ele>
        <time>2026-07-08T08:13:10.000Z</time>
      </trkpt>
      <trkpt lat="47.38329" lon="16.00794">
        <ele>441.562593</ele>
        <time>2026-07-08T08:13:11.000Z</time>
      </trkpt>
      <trkpt lat="47.38325" lon="16.00801">
        <ele>441.531269</ele>
        <time>2026-07-08T08:13:12.000Z</time>
      </trkpt>
      <trkpt lat="47.38321" lon="16.00808">
        <ele>441.500782</ele>
        <time>2026-07-08T08:13:13.000Z</time>
      </trkpt>
      <trkpt lat="47.38316" lon="16.00814">
        <ele>441.4698</ele>
        <time>2026-07-08T08:13:14.000Z</time>
      </trkpt>
      <trkpt lat="47.38312" lon="16.00821">
        <ele>441.439996</ele>
        <time>2026-07-08T08:13:15.000Z</time>
      </trkpt>
      <trkpt lat="47.38308" lon="16.00827">
        <ele>441.416214</ele>
        <time>2026-07-08T08:13:16.000Z</time>
      </trkpt>
      <trkpt lat="47.38304" lon="16.00834">
        <ele>441.405102</ele>
        <time>2026-07-08T08:13:17.000Z</time>
      </trkpt>
      <trkpt lat="47.383" lon="16.00841">
        <ele>441.393716</ele>
        <time>2026-07-08T08:13:18.000Z</time>
      </trkpt>
      <trkpt lat="47.38296" lon="16.00848">
        <ele>441.382512</ele>
        <time>2026-07-08T08:13:19.000Z</time>
      </trkpt>
      <trkpt lat="47.38291" lon="16.00855">
        <ele>441.370772</ele>
        <time>2026-07-08T08:13:20.000Z</time>
      </trkpt>
      <trkpt lat="47.38287" lon="16.00862">
        <ele>441.359476</ele>
        <time>2026-07-08T08:13:21.000Z</time>
      </trkpt>
      <trkpt lat="47.38283" lon="16.0087">
        <ele>441.347736</ele>
        <time>2026-07-08T08:13:22.000Z</time>
      </trkpt>
      <trkpt lat="47.38279" lon="16.00877">
        <ele>441.336115</ele>
        <time>2026-07-08T08:13:23.000Z</time>
      </trkpt>
      <trkpt lat="47.38274" lon="16.00884">
        <ele>441.324674</ele>
        <time>2026-07-08T08:13:24.000Z</time>
      </trkpt>
      <trkpt lat="47.3827" lon="16.00891">
        <ele>441.313078</ele>
        <time>2026-07-08T08:13:25.000Z</time>
      </trkpt>
      <trkpt lat="47.38266" lon="16.00898">
        <ele>441.301482</ele>
        <time>2026-07-08T08:13:26.000Z</time>
      </trkpt>
      <trkpt lat="47.38262" lon="16.00906">
        <ele>441.29002</ele>
        <time>2026-07-08T08:13:27.000Z</time>
      </trkpt>
      <trkpt lat="47.38258" lon="16.00913">
        <ele>441.27884</ele>
        <time>2026-07-08T08:13:28.000Z</time>
      </trkpt>
      <trkpt lat="47.38254" lon="16.0092">
        <ele>441.26781</ele>
        <time>2026-07-08T08:13:29.000Z</time>
      </trkpt>
      <trkpt lat="47.38251" lon="16.00928">
        <ele>441.256577</ele>
        <time>2026-07-08T08:13:30.000Z</time>
      </trkpt>
      <trkpt lat="47.38247" lon="16.00935">
        <ele>441.245246</ele>
        <time>2026-07-08T08:13:31.000Z</time>
      </trkpt>
      <trkpt lat="47.38243" lon="16.00943">
        <ele>441.233305</ele>
        <time>2026-07-08T08:13:32.000Z</time>
      </trkpt>
      <trkpt lat="47.38239" lon="16.00951">
        <ele>441.22116</ele>
        <time>2026-07-08T08:13:33.000Z</time>
      </trkpt>
      <trkpt lat="47.38234" lon="16.00959">
        <ele>441.209056</ele>
        <time>2026-07-08T08:13:34.000Z</time>
      </trkpt>
      <trkpt lat="47.3823" lon="16.00966">
        <ele>441.197434</ele>
        <time>2026-07-08T08:13:35.000Z</time>
      </trkpt>
      <trkpt lat="47.38226" lon="16.00972">
        <ele>441.186349</ele>
        <time>2026-07-08T08:13:36.000Z</time>
      </trkpt>
      <trkpt lat="47.38221" lon="16.00978">
        <ele>441.175338</ele>
        <time>2026-07-08T08:13:37.000Z</time>
      </trkpt>
      <trkpt lat="47.38216" lon="16.00983">
        <ele>441.164543</ele>
        <time>2026-07-08T08:13:38.000Z</time>
      </trkpt>
      <trkpt lat="47.38211" lon="16.00988">
        <ele>441.153947</ele>
        <time>2026-07-08T08:13:39.000Z</time>
      </trkpt>
      <trkpt lat="47.38206" lon="16.00993">
        <ele>441.143286</ele>
        <time>2026-07-08T08:13:40.000Z</time>
      </trkpt>
      <trkpt lat="47.38201" lon="16.00998">
        <ele>441.132714</ele>
        <time>2026-07-08T08:13:41.000Z</time>
      </trkpt>
      <trkpt lat="47.38197" lon="16.01004">
        <ele>441.122384</ele>
        <time>2026-07-08T08:13:42.000Z</time>
      </trkpt>
      <trkpt lat="47.38192" lon="16.0101">
        <ele>441.111678</ele>
        <time>2026-07-08T08:13:43.000Z</time>
      </trkpt>
      <trkpt lat="47.38188" lon="16.01016">
        <ele>441.101187</ele>
        <time>2026-07-08T08:13:44.000Z</time>
      </trkpt>
      <trkpt lat="47.38184" lon="16.01022">
        <ele>441.108104</ele>
        <time>2026-07-08T08:13:45.000Z</time>
      </trkpt>
      <trkpt lat="47.3818" lon="16.01028">
        <ele>441.122289</ele>
        <time>2026-07-08T08:13:46.000Z</time>
      </trkpt>
      <trkpt lat="47.38176" lon="16.01034">
        <ele>441.136653</ele>
        <time>2026-07-08T08:13:47.000Z</time>
      </trkpt>
      <trkpt lat="47.38172" lon="16.01041">
        <ele>441.150936</ele>
        <time>2026-07-08T08:13:48.000Z</time>
      </trkpt>
      <trkpt lat="47.38168" lon="16.01047">
        <ele>441.165256</ele>
        <time>2026-07-08T08:13:49.000Z</time>
      </trkpt>
      <trkpt lat="47.38164" lon="16.01054">
        <ele>441.17974</ele>
        <time>2026-07-08T08:13:50.000Z</time>
      </trkpt>
      <trkpt lat="47.3816" lon="16.0106">
        <ele>441.19394</ele>
        <time>2026-07-08T08:13:51.000Z</time>
      </trkpt>
      <trkpt lat="47.38156" lon="16.01067">
        <ele>441.208589</ele>
        <time>2026-07-08T08:13:52.000Z</time>
      </trkpt>
      <trkpt lat="47.38152" lon="16.01074">
        <ele>441.222964</ele>
        <time>2026-07-08T08:13:53.000Z</time>
      </trkpt>
      <trkpt lat="47.38148" lon="16.0108">
        <ele>441.237494</ele>
        <time>2026-07-08T08:13:54.000Z</time>
      </trkpt>
      <trkpt lat="47.38144" lon="16.01087">
        <ele>441.251814</ele>
        <time>2026-07-08T08:13:55.000Z</time>
      </trkpt>
      <trkpt lat="47.3814" lon="16.01093">
        <ele>441.265777</ele>
        <time>2026-07-08T08:13:56.000Z</time>
      </trkpt>
      <trkpt lat="47.38136" lon="16.01099">
        <ele>441.279739</ele>
        <time>2026-07-08T08:13:57.000Z</time>
      </trkpt>
      <trkpt lat="47.38132" lon="16.01106">
        <ele>441.293495</ele>
        <time>2026-07-08T08:13:58.000Z</time>
      </trkpt>
      <trkpt lat="47.38128" lon="16.01112">
        <ele>441.307252</ele>
        <time>2026-07-08T08:13:59.000Z</time>
      </trkpt>
      <trkpt lat="47.38124" lon="16.01118">
        <ele>441.32129</ele>
        <time>2026-07-08T08:14:00.000Z</time>
      </trkpt>
      <trkpt lat="47.38121" lon="16.01124">
        <ele>441.334483</ele>
        <time>2026-07-08T08:14:01.000Z</time>
      </trkpt>
      <trkpt lat="47.38117" lon="16.0113">
        <ele>441.347714</ele>
        <time>2026-07-08T08:14:02.000Z</time>
      </trkpt>
      <trkpt lat="47.38114" lon="16.01136">
        <ele>441.360504</ele>
        <time>2026-07-08T08:14:03.000Z</time>
      </trkpt>
      <trkpt lat="47.3811" lon="16.01142">
        <ele>441.373898</ele>
        <time>2026-07-08T08:14:04.000Z</time>
      </trkpt>
      <trkpt lat="47.38106" lon="16.01148">
        <ele>441.387251</ele>
        <time>2026-07-08T08:14:05.000Z</time>
      </trkpt>
      <trkpt lat="47.38102" lon="16.01155">
        <ele>441.401451</ele>
        <time>2026-07-08T08:14:06.000Z</time>
      </trkpt>
      <trkpt lat="47.38098" lon="16.01161">
        <ele>441.415208</ele>
        <time>2026-07-08T08:14:07.000Z</time>
      </trkpt>
      <trkpt lat="47.38094" lon="16.01168">
        <ele>441.429771</ele>
        <time>2026-07-08T08:14:08.000Z</time>
      </trkpt>
      <trkpt lat="47.3809" lon="16.01175">
        <ele>441.444778</ele>
        <time>2026-07-08T08:14:09.000Z</time>
      </trkpt>
      <trkpt lat="47.38086" lon="16.01181">
        <ele>441.459829</ele>
        <time>2026-07-08T08:14:10.000Z</time>
      </trkpt>
      <trkpt lat="47.38082" lon="16.01188">
        <ele>441.475078</ele>
        <time>2026-07-08T08:14:11.000Z</time>
      </trkpt>
      <trkpt lat="47.38077" lon="16.01195">
        <ele>441.490609</ele>
        <time>2026-07-08T08:14:12.000Z</time>
      </trkpt>
      <trkpt lat="47.38073" lon="16.01202">
        <ele>441.506347</ele>
        <time>2026-07-08T08:14:13.000Z</time>
      </trkpt>
      <trkpt lat="47.38068" lon="16.01209">
        <ele>441.522084</ele>
        <time>2026-07-08T08:14:14.000Z</time>
      </trkpt>
      <trkpt lat="47.38064" lon="16.01217">
        <ele>441.500651</ele>
        <time>2026-07-08T08:14:15.000Z</time>
      </trkpt>
      <trkpt lat="47.3806" lon="16.01224">
        <ele>441.428231</ele>
        <time>2026-07-08T08:14:16.000Z</time>
      </trkpt>
      <trkpt lat="47.38055" lon="16.01231">
        <ele>441.355385</ele>
        <time>2026-07-08T08:14:17.000Z</time>
      </trkpt>
      <trkpt lat="47.38051" lon="16.01239">
        <ele>441.280939</ele>
        <time>2026-07-08T08:14:18.000Z</time>
      </trkpt>
      <trkpt lat="47.38047" lon="16.01246">
        <ele>441.207383</ele>
        <time>2026-07-08T08:14:19.000Z</time>
      </trkpt>
      <trkpt lat="47.38042" lon="16.01254">
        <ele>441.131818</ele>
        <time>2026-07-08T08:14:20.000Z</time>
      </trkpt>
      <trkpt lat="47.38038" lon="16.01262">
        <ele>441.055952</ele>
        <time>2026-07-08T08:14:21.000Z</time>
      </trkpt>
      <trkpt lat="47.38033" lon="16.01269">
        <ele>440.981109</ele>
        <time>2026-07-08T08:14:22.000Z</time>
      </trkpt>
      <trkpt lat="47.38029" lon="16.01277">
        <ele>440.906105</ele>
        <time>2026-07-08T08:14:23.000Z</time>
      </trkpt>
      <trkpt lat="47.38024" lon="16.01284">
        <ele>440.832767</ele>
        <time>2026-07-08T08:14:24.000Z</time>
      </trkpt>
      <trkpt lat="47.3802" lon="16.01291">
        <ele>440.758877</ele>
        <time>2026-07-08T08:14:25.000Z</time>
      </trkpt>
      <trkpt lat="47.38015" lon="16.01299">
        <ele>440.685538</ele>
        <time>2026-07-08T08:14:26.000Z</time>
      </trkpt>
      <trkpt lat="47.38011" lon="16.01306">
        <ele>440.611648</ele>
        <time>2026-07-08T08:14:27.000Z</time>
      </trkpt>
      <trkpt lat="47.38006" lon="16.01313">
        <ele>440.538309</ele>
        <time>2026-07-08T08:14:28.000Z</time>
      </trkpt>
      <trkpt lat="47.38002" lon="16.0132">
        <ele>440.464419</ele>
        <time>2026-07-08T08:14:29.000Z</time>
      </trkpt>
      <trkpt lat="47.37997" lon="16.01328">
        <ele>440.389973</ele>
        <time>2026-07-08T08:14:30.000Z</time>
      </trkpt>
      <trkpt lat="47.37993" lon="16.01335">
        <ele>440.316423</ele>
        <time>2026-07-08T08:14:31.000Z</time>
      </trkpt>
      <trkpt lat="47.37988" lon="16.01342">
        <ele>440.242638</ele>
        <time>2026-07-08T08:14:32.000Z</time>
      </trkpt>
      <trkpt lat="47.37983" lon="16.01349">
        <ele>440.167782</ele>
        <time>2026-07-08T08:14:33.000Z</time>
      </trkpt>
      <trkpt lat="47.37979" lon="16.01356">
        <ele>440.091619</ele>
        <time>2026-07-08T08:14:34.000Z</time>
      </trkpt>
      <trkpt lat="47.37974" lon="16.01364">
        <ele>440.015679</ele>
        <time>2026-07-08T08:14:35.000Z</time>
      </trkpt>
      <trkpt lat="47.37969" lon="16.01371">
        <ele>439.94104</ele>
        <time>2026-07-08T08:14:36.000Z</time>
      </trkpt>
      <trkpt lat="47.37964" lon="16.01378">
        <ele>439.864633</ele>
        <time>2026-07-08T08:14:37.000Z</time>
      </trkpt>
      <trkpt lat="47.3796" lon="16.01385">
        <ele>439.791621</ele>
        <time>2026-07-08T08:14:38.000Z</time>
      </trkpt>
      <trkpt lat="47.37955" lon="16.01392">
        <ele>439.71574</ele>
        <time>2026-07-08T08:14:39.000Z</time>
      </trkpt>
      <trkpt lat="47.3795" lon="16.014">
        <ele>439.640113</ele>
        <time>2026-07-08T08:14:40.000Z</time>
      </trkpt>
      <trkpt lat="47.37945" lon="16.01407">
        <ele>439.564485</ele>
        <time>2026-07-08T08:14:41.000Z</time>
      </trkpt>
      <trkpt lat="47.3794" lon="16.01414">
        <ele>439.577236</ele>
        <time>2026-07-08T08:14:42.000Z</time>
      </trkpt>
      <trkpt lat="47.37935" lon="16.01421">
        <ele>439.625517</ele>
        <time>2026-07-08T08:14:43.000Z</time>
      </trkpt>
      <trkpt lat="47.37931" lon="16.01429">
        <ele>439.672989</ele>
        <time>2026-07-08T08:14:44.000Z</time>
      </trkpt>
      <trkpt lat="47.37926" lon="16.01436">
        <ele>439.72033</ele>
        <time>2026-07-08T08:14:45.000Z</time>
      </trkpt>
      <trkpt lat="47.37921" lon="16.01444">
        <ele>439.767469</ele>
        <time>2026-07-08T08:14:46.000Z</time>
      </trkpt>
      <trkpt lat="47.37916" lon="16.01451">
        <ele>439.814135</ele>
        <time>2026-07-08T08:14:47.000Z</time>
      </trkpt>
      <trkpt lat="47.37912" lon="16.01458">
        <ele>439.860671</ele>
        <time>2026-07-08T08:14:48.000Z</time>
      </trkpt>
      <trkpt lat="47.37907" lon="16.01466">
        <ele>439.90829</ele>
        <time>2026-07-08T08:14:49.000Z</time>
      </trkpt>
      <trkpt lat="47.37902" lon="16.01473">
        <ele>439.955098</ele>
        <time>2026-07-08T08:14:50.000Z</time>
      </trkpt>
      <trkpt lat="47.37897" lon="16.0148">
        <ele>440.001577</ele>
        <time>2026-07-08T08:14:51.000Z</time>
      </trkpt>
      <trkpt lat="47.37892" lon="16.01486">
        <ele>440.048186</ele>
        <time>2026-07-08T08:14:52.000Z</time>
      </trkpt>
      <trkpt lat="47.37887" lon="16.01492">
        <ele>440.094694</ele>
        <time>2026-07-08T08:14:53.000Z</time>
      </trkpt>
      <trkpt lat="47.37881" lon="16.01498">
        <ele>440.142103</ele>
        <time>2026-07-08T08:14:54.000Z</time>
      </trkpt>
      <trkpt lat="47.37875" lon="16.01504">
        <ele>440.189724</ele>
        <time>2026-07-08T08:14:55.000Z</time>
      </trkpt>
      <trkpt lat="47.37869" lon="16.0151">
        <ele>440.238172</ele>
        <time>2026-07-08T08:14:56.000Z</time>
      </trkpt>
      <trkpt lat="47.37863" lon="16.01516">
        <ele>440.287983</ele>
        <time>2026-07-08T08:14:57.000Z</time>
      </trkpt>
      <trkpt lat="47.37858" lon="16.01523">
        <ele>440.336713</ele>
        <time>2026-07-08T08:14:58.000Z</time>
      </trkpt>
      <trkpt lat="47.37852" lon="16.0153">
        <ele>440.387432</ele>
        <time>2026-07-08T08:14:59.000Z</time>
      </trkpt>
      <trkpt lat="47.37847" lon="16.01537">
        <ele>440.437716</ele>
        <time>2026-07-08T08:15:00.000Z</time>
      </trkpt>
      <trkpt lat="47.37841" lon="16.01544">
        <ele>440.488309</ele>
        <time>2026-07-08T08:15:01.000Z</time>
      </trkpt>
      <trkpt lat="47.37836" lon="16.01552">
        <ele>440.538528</ele>
        <time>2026-07-08T08:15:02.000Z</time>
      </trkpt>
      <trkpt lat="47.3783" lon="16.01559">
        <ele>440.589245</ele>
        <time>2026-07-08T08:15:03.000Z</time>
      </trkpt>
      <trkpt lat="47.37825" lon="16.01567">
        <ele>440.638003</ele>
        <time>2026-07-08T08:15:04.000Z</time>
      </trkpt>
      <trkpt lat="47.37821" lon="16.01574">
        <ele>440.685143</ele>
        <time>2026-07-08T08:15:05.000Z</time>
      </trkpt>
      <trkpt lat="47.37816" lon="16.01581">
        <ele>440.728586</ele>
        <time>2026-07-08T08:15:06.000Z</time>
      </trkpt>
      <trkpt lat="47.37809" lon="16.01592">
        <ele>440.698721</ele>
        <time>2026-07-08T08:15:08.000Z</time>
      </trkpt>
      <trkpt lat="47.37802" lon="16.01602">
        <ele>440.5441</ele>
        <time>2026-07-08T08:15:09.000Z</time>
      </trkpt>
      <trkpt lat="47.378" lon="16.01607">
        <ele>440.477999</ele>
        <time>2026-07-08T08:15:10.000Z</time>
      </trkpt>
      <trkpt lat="47.37797" lon="16.0161">
        <ele>440.411814</ele>
        <time>2026-07-08T08:15:11.000Z</time>
      </trkpt>
      <trkpt lat="47.37794" lon="16.01614">
        <ele>440.347075</ele>
        <time>2026-07-08T08:15:12.000Z</time>
      </trkpt>
      <trkpt lat="47.37791" lon="16.01617">
        <ele>440.278958</ele>
        <time>2026-07-08T08:15:13.000Z</time>
      </trkpt>
      <trkpt lat="47.37787" lon="16.01621">
        <ele>440.206072</ele>
        <time>2026-07-08T08:15:14.000Z</time>
      </trkpt>
      <trkpt lat="47.37783" lon="16.01625">
        <ele>440.125535</ele>
        <time>2026-07-08T08:15:15.000Z</time>
      </trkpt>
      <trkpt lat="47.37779" lon="16.01628">
        <ele>440.044432</ele>
        <time>2026-07-08T08:15:17.000Z</time>
      </trkpt>
      <trkpt lat="47.37772" lon="16.01633">
        <ele>439.907686</ele>
        <time>2026-07-08T08:15:18.000Z</time>
      </trkpt>
      <trkpt lat="47.37769" lon="16.01636">
        <ele>439.850969</ele>
        <time>2026-07-08T08:15:19.000Z</time>
      </trkpt>
      <trkpt lat="47.37766" lon="16.01638">
        <ele>439.793732</ele>
        <time>2026-07-08T08:15:20.000Z</time>
      </trkpt>
      <trkpt lat="47.37762" lon="16.01641">
        <ele>439.722802</ele>
        <time>2026-07-08T08:15:21.000Z</time>
      </trkpt>
      <trkpt lat="47.37758" lon="16.01644">
        <ele>439.639103</ele>
        <time>2026-07-08T08:15:22.000Z</time>
      </trkpt>
      <trkpt lat="47.37753" lon="16.01649">
        <ele>439.541699</ele>
        <time>2026-07-08T08:15:23.000Z</time>
      </trkpt>
      <trkpt lat="47.37747" lon="16.01653">
        <ele>439.437016</ele>
        <time>2026-07-08T08:15:24.000Z</time>
      </trkpt>
      <trkpt lat="47.37742" lon="16.01658">
        <ele>439.325908</ele>
        <time>2026-07-08T08:15:25.000Z</time>
      </trkpt>
      <trkpt lat="47.37736" lon="16.01664">
        <ele>439.213432</ele>
        <time>2026-07-08T08:15:26.000Z</time>
      </trkpt>
      <trkpt lat="47.37731" lon="16.0167">
        <ele>439.098226</ele>
        <time>2026-07-08T08:15:27.000Z</time>
      </trkpt>
      <trkpt lat="47.37725" lon="16.01677">
        <ele>438.977309</ele>
        <time>2026-07-08T08:15:28.000Z</time>
      </trkpt>
      <trkpt lat="47.3772" lon="16.01684">
        <ele>438.858252</ele>
        <time>2026-07-08T08:15:29.000Z</time>
      </trkpt>
      <trkpt lat="47.37715" lon="16.01691">
        <ele>438.741901</ele>
        <time>2026-07-08T08:15:30.000Z</time>
      </trkpt>
      <trkpt lat="47.37709" lon="16.01697">
        <ele>438.622516</ele>
        <time>2026-07-08T08:15:31.000Z</time>
      </trkpt>
      <trkpt lat="47.37703" lon="16.01702">
        <ele>438.504714</ele>
        <time>2026-07-08T08:15:32.000Z</time>
      </trkpt>
      <trkpt lat="47.37697" lon="16.01707">
        <ele>438.384674</ele>
        <time>2026-07-08T08:15:33.000Z</time>
      </trkpt>
      <trkpt lat="47.37691" lon="16.01711">
        <ele>438.267153</ele>
        <time>2026-07-08T08:15:34.000Z</time>
      </trkpt>
      <trkpt lat="47.37684" lon="16.01715">
        <ele>438.145593</ele>
        <time>2026-07-08T08:15:35.000Z</time>
      </trkpt>
      <trkpt lat="47.37678" lon="16.0172">
        <ele>438.025564</ele>
        <time>2026-07-08T08:15:36.000Z</time>
      </trkpt>
      <trkpt lat="47.37671" lon="16.01725">
        <ele>437.901988</ele>
        <time>2026-07-08T08:15:37.000Z</time>
      </trkpt>
      <trkpt lat="47.37665" lon="16.0173">
        <ele>437.778929</ele>
        <time>2026-07-08T08:15:38.000Z</time>
      </trkpt>
      <trkpt lat="47.37659" lon="16.01734">
        <ele>437.672161</ele>
        <time>2026-07-08T08:15:39.000Z</time>
      </trkpt>
      <trkpt lat="47.37652" lon="16.01739">
        <ele>437.5707</ele>
        <time>2026-07-08T08:15:40.000Z</time>
      </trkpt>
      <trkpt lat="47.37645" lon="16.01744">
        <ele>437.471292</ele>
        <time>2026-07-08T08:15:41.000Z</time>
      </trkpt>
      <trkpt lat="47.37639" lon="16.01749">
        <ele>437.370246</ele>
        <time>2026-07-08T08:15:42.000Z</time>
      </trkpt>
      <trkpt lat="47.37632" lon="16.01754">
        <ele>437.267561</ele>
        <time>2026-07-08T08:15:43.000Z</time>
      </trkpt>
      <trkpt lat="47.37626" lon="16.01759">
        <ele>437.16731</ele>
        <time>2026-07-08T08:15:44.000Z</time>
      </trkpt>
      <trkpt lat="47.37619" lon="16.01764">
        <ele>437.063403</ele>
        <time>2026-07-08T08:15:45.000Z</time>
      </trkpt>
      <trkpt lat="47.37612" lon="16.01769">
        <ele>436.959072</ele>
        <time>2026-07-08T08:15:46.000Z</time>
      </trkpt>
      <trkpt lat="47.37605" lon="16.01773">
        <ele>436.858845</ele>
        <time>2026-07-08T08:15:47.000Z</time>
      </trkpt>
      <trkpt lat="47.37598" lon="16.01778">
        <ele>436.75529</ele>
        <time>2026-07-08T08:15:48.000Z</time>
      </trkpt>
      <trkpt lat="47.37592" lon="16.01783">
        <ele>436.652591</ele>
        <time>2026-07-08T08:15:49.000Z</time>
      </trkpt>
      <trkpt lat="47.37585" lon="16.01787">
        <ele>436.551407</ele>
        <time>2026-07-08T08:15:50.000Z</time>
      </trkpt>
      <trkpt lat="47.37578" lon="16.01791">
        <ele>436.449321</ele>
        <time>2026-07-08T08:15:51.000Z</time>
      </trkpt>
      <trkpt lat="47.37571" lon="16.01795">
        <ele>436.348498</ele>
        <time>2026-07-08T08:15:52.000Z</time>
      </trkpt>
      <trkpt lat="47.37564" lon="16.018">
        <ele>436.246571</ele>
        <time>2026-07-08T08:15:53.000Z</time>
      </trkpt>
      <trkpt lat="47.37558" lon="16.01804">
        <ele>436.146643</ele>
        <time>2026-07-08T08:15:54.000Z</time>
      </trkpt>
      <trkpt lat="47.37551" lon="16.01808">
        <ele>436.047191</ele>
        <time>2026-07-08T08:15:55.000Z</time>
      </trkpt>
      <trkpt lat="47.37544" lon="16.01812">
        <ele>435.946131</ele>
        <time>2026-07-08T08:15:56.000Z</time>
      </trkpt>
      <trkpt lat="47.37537" lon="16.01816">
        <ele>435.846679</ele>
        <time>2026-07-08T08:15:57.000Z</time>
      </trkpt>
      <trkpt lat="47.3753" lon="16.0182">
        <ele>435.743327</ele>
        <time>2026-07-08T08:15:58.000Z</time>
      </trkpt>
      <trkpt lat="47.37523" lon="16.01824">
        <ele>435.638101</ele>
        <time>2026-07-08T08:15:59.000Z</time>
      </trkpt>
      <trkpt lat="47.37516" lon="16.01827">
        <ele>435.535715</ele>
        <time>2026-07-08T08:16:00.000Z</time>
      </trkpt>
      <trkpt lat="47.37508" lon="16.01831">
        <ele>435.427841</ele>
        <time>2026-07-08T08:16:01.000Z</time>
      </trkpt>
      <trkpt lat="47.37501" lon="16.01835">
        <ele>435.320366</ele>
        <time>2026-07-08T08:16:02.000Z</time>
      </trkpt>
      <trkpt lat="47.37494" lon="16.01839">
        <ele>435.204292</ele>
        <time>2026-07-08T08:16:03.000Z</time>
      </trkpt>
      <trkpt lat="47.37486" lon="16.01842">
        <ele>435.07917</ele>
        <time>2026-07-08T08:16:04.000Z</time>
      </trkpt>
      <trkpt lat="47.37479" lon="16.01846">
        <ele>434.950942</ele>
        <time>2026-07-08T08:16:05.000Z</time>
      </trkpt>
      <trkpt lat="47.37471" lon="16.01849">
        <ele>434.823362</ele>
        <time>2026-07-08T08:16:06.000Z</time>
      </trkpt>
      <trkpt lat="47.37464" lon="16.01852">
        <ele>434.696093</ele>
        <time>2026-07-08T08:16:07.000Z</time>
      </trkpt>
      <trkpt lat="47.37456" lon="16.01855">
        <ele>434.569419</ele>
        <time>2026-07-08T08:16:08.000Z</time>
      </trkpt>
      <trkpt lat="47.37449" lon="16.01858">
        <ele>434.444884</ele>
        <time>2026-07-08T08:16:09.000Z</time>
      </trkpt>
      <trkpt lat="47.37441" lon="16.01861">
        <ele>434.318494</ele>
        <time>2026-07-08T08:16:10.000Z</time>
      </trkpt>
      <trkpt lat="47.37434" lon="16.01864">
        <ele>434.195538</ele>
        <time>2026-07-08T08:16:11.000Z</time>
      </trkpt>
      <trkpt lat="47.37427" lon="16.01866">
        <ele>434.072855</ele>
        <time>2026-07-08T08:16:12.000Z</time>
      </trkpt>
      <trkpt lat="47.37419" lon="16.01869">
        <ele>433.947263</ele>
        <time>2026-07-08T08:16:13.000Z</time>
      </trkpt>
      <trkpt lat="47.37412" lon="16.01871">
        <ele>433.818736</ele>
        <time>2026-07-08T08:16:14.000Z</time>
      </trkpt>
      <trkpt lat="47.37404" lon="16.01874">
        <ele>433.69021</ele>
        <time>2026-07-08T08:16:15.000Z</time>
      </trkpt>
      <trkpt lat="47.37396" lon="16.01876">
        <ele>433.563275</ele>
        <time>2026-07-08T08:16:16.000Z</time>
      </trkpt>
      <trkpt lat="47.37388" lon="16.01879">
        <ele>433.431789</ele>
        <time>2026-07-08T08:16:17.000Z</time>
      </trkpt>
      <trkpt lat="47.37381" lon="16.01881">
        <ele>433.302121</ele>
        <time>2026-07-08T08:16:18.000Z</time>
      </trkpt>
      <trkpt lat="47.37373" lon="16.01883">
        <ele>433.172452</ele>
        <time>2026-07-08T08:16:19.000Z</time>
      </trkpt>
      <trkpt lat="47.37365" lon="16.01886">
        <ele>433.040966</ele>
        <time>2026-07-08T08:16:20.000Z</time>
      </trkpt>
      <trkpt lat="47.37357" lon="16.01888">
        <ele>432.908691</ele>
        <time>2026-07-08T08:16:21.000Z</time>
      </trkpt>
      <trkpt lat="47.37349" lon="16.0189">
        <ele>432.776417</ele>
        <time>2026-07-08T08:16:22.000Z</time>
      </trkpt>
      <trkpt lat="47.37341" lon="16.01892">
        <ele>432.650935</ele>
        <time>2026-07-08T08:16:23.000Z</time>
      </trkpt>
      <trkpt lat="47.37334" lon="16.01894">
        <ele>432.535857</ele>
        <time>2026-07-08T08:16:24.000Z</time>
      </trkpt>
      <trkpt lat="47.37328" lon="16.01896">
        <ele>432.434446</ele>
        <time>2026-07-08T08:16:25.000Z</time>
      </trkpt>
      <trkpt lat="47.37323" lon="16.01896">
        <ele>432.349495</ele>
        <time>2026-07-08T08:16:26.000Z</time>
      </trkpt>
      <trkpt lat="47.37319" lon="16.01894">
        <ele>432.285115</ele>
        <time>2026-07-08T08:16:27.000Z</time>
      </trkpt>
      <trkpt lat="47.37315" lon="16.0189">
        <ele>432.225386</ele>
        <time>2026-07-08T08:16:28.000Z</time>
      </trkpt>
      <trkpt lat="47.37312" lon="16.01885">
        <ele>432.163674</ele>
        <time>2026-07-08T08:16:29.000Z</time>
      </trkpt>
      <trkpt lat="47.3731" lon="16.01878">
        <ele>432.098528</ele>
        <time>2026-07-08T08:16:30.000Z</time>
      </trkpt>
      <trkpt lat="47.37309" lon="16.0187">
        <ele>432.029093</ele>
        <time>2026-07-08T08:16:31.000Z</time>
      </trkpt>
      <trkpt lat="47.37308" lon="16.01863">
        <ele>431.958094</ele>
        <time>2026-07-08T08:16:32.000Z</time>
      </trkpt>
      <trkpt lat="47.37305" lon="16.01856">
        <ele>431.886695</ele>
        <time>2026-07-08T08:16:33.000Z</time>
      </trkpt>
      <trkpt lat="47.37302" lon="16.0185">
        <ele>431.819006</ele>
        <time>2026-07-08T08:16:34.000Z</time>
      </trkpt>
      <trkpt lat="47.37297" lon="16.01847">
        <ele>431.751648</ele>
        <time>2026-07-08T08:16:35.000Z</time>
      </trkpt>
      <trkpt lat="47.37292" lon="16.01845">
        <ele>431.683044</ele>
        <time>2026-07-08T08:16:36.000Z</time>
      </trkpt>
      <trkpt lat="47.37287" lon="16.01844">
        <ele>431.611389</ele>
        <time>2026-07-08T08:16:37.000Z</time>
      </trkpt>
      <trkpt lat="47.37281" lon="16.01843">
        <ele>431.538279</ele>
        <time>2026-07-08T08:16:38.000Z</time>
      </trkpt>
      <trkpt lat="47.37276" lon="16.01842">
        <ele>431.466636</ele>
        <time>2026-07-08T08:16:39.000Z</time>
      </trkpt>
      <trkpt lat="47.37271" lon="16.01839">
        <ele>431.395161</ele>
        <time>2026-07-08T08:16:40.000Z</time>
      </trkpt>
      <trkpt lat="47.37267" lon="16.01834">
        <ele>431.328564</ele>
        <time>2026-07-08T08:16:41.000Z</time>
      </trkpt>
      <trkpt lat="47.37264" lon="16.01828">
        <ele>431.257952</ele>
        <time>2026-07-08T08:16:42.000Z</time>
      </trkpt>
      <trkpt lat="47.37263" lon="16.01819">
        <ele>431.17832</ele>
        <time>2026-07-08T08:16:43.000Z</time>
      </trkpt>
      <trkpt lat="47.37262" lon="16.0181">
        <ele>431.09929</ele>
        <time>2026-07-08T08:16:44.000Z</time>
      </trkpt>
      <trkpt lat="47.37261" lon="16.01802">
        <ele>431.024047</ele>
        <time>2026-07-08T08:16:45.000Z</time>
      </trkpt>
      <trkpt lat="47.37259" lon="16.01794">
        <ele>430.947928</ele>
        <time>2026-07-08T08:16:46.000Z</time>
      </trkpt>
      <trkpt lat="47.37258" lon="16.01786">
        <ele>430.874713</ele>
        <time>2026-07-08T08:16:47.000Z</time>
      </trkpt>
      <trkpt lat="47.37257" lon="16.01778">
        <ele>430.800605</ele>
        <time>2026-07-08T08:16:48.000Z</time>
      </trkpt>
      <trkpt lat="47.37256" lon="16.0177">
        <ele>430.72739</ele>
        <time>2026-07-08T08:16:49.000Z</time>
      </trkpt>
      <trkpt lat="47.37254" lon="16.01761">
        <ele>430.649803</ele>
        <time>2026-07-08T08:16:50.000Z</time>
      </trkpt>
      <trkpt lat="47.37253" lon="16.01753">
        <ele>430.573949</ele>
        <time>2026-07-08T08:16:51.000Z</time>
      </trkpt>
      <trkpt lat="47.37252" lon="16.01745">
        <ele>430.498338</ele>
        <time>2026-07-08T08:16:52.000Z</time>
      </trkpt>
      <trkpt lat="47.37251" lon="16.01737">
        <ele>430.423096</ele>
        <time>2026-07-08T08:16:53.000Z</time>
      </trkpt>
      <trkpt lat="47.3725" lon="16.01728">
        <ele>430.347562</ele>
        <time>2026-07-08T08:16:54.000Z</time>
      </trkpt>
      <trkpt lat="47.37248" lon="16.0172">
        <ele>430.272362</ele>
        <time>2026-07-08T08:16:55.000Z</time>
      </trkpt>
      <trkpt lat="47.37247" lon="16.01713">
        <ele>430.199638</ele>
        <time>2026-07-08T08:16:56.000Z</time>
      </trkpt>
      <trkpt lat="47.37245" lon="16.01705">
        <ele>430.126915</ele>
        <time>2026-07-08T08:16:57.000Z</time>
      </trkpt>
      <trkpt lat="47.37244" lon="16.01697">
        <ele>430.053127</ele>
        <time>2026-07-08T08:16:58.000Z</time>
      </trkpt>
      <trkpt lat="47.37242" lon="16.01689">
        <ele>429.983351</ele>
        <time>2026-07-08T08:16:59.000Z</time>
      </trkpt>
      <trkpt lat="47.37241" lon="16.01682">
        <ele>429.945081</ele>
        <time>2026-07-08T08:17:00.000Z</time>
      </trkpt>
      <trkpt lat="47.3724" lon="16.01675">
        <ele>429.930334</ele>
        <time>2026-07-08T08:17:01.000Z</time>
      </trkpt>
      <trkpt lat="47.37238" lon="16.01667">
        <ele>429.915588</ele>
        <time>2026-07-08T08:17:02.000Z</time>
      </trkpt>
      <trkpt lat="47.37237" lon="16.0166">
        <ele>429.900471</ele>
        <time>2026-07-08T08:17:03.000Z</time>
      </trkpt>
      <trkpt lat="47.37235" lon="16.01652">
        <ele>429.88461</ele>
        <time>2026-07-08T08:17:04.000Z</time>
      </trkpt>
      <trkpt lat="47.37234" lon="16.01644">
        <ele>429.869308</ele>
        <time>2026-07-08T08:17:05.000Z</time>
      </trkpt>
      <trkpt lat="47.37232" lon="16.01636">
        <ele>429.853404</ele>
        <time>2026-07-08T08:17:06.000Z</time>
      </trkpt>
      <trkpt lat="47.37231" lon="16.01628">
        <ele>429.836827</ele>
        <time>2026-07-08T08:17:07.000Z</time>
      </trkpt>
      <trkpt lat="47.37229" lon="16.0162">
        <ele>429.820408</ele>
        <time>2026-07-08T08:17:08.000Z</time>
      </trkpt>
      <trkpt lat="47.37227" lon="16.01612">
        <ele>429.804015</ele>
        <time>2026-07-08T08:17:09.000Z</time>
      </trkpt>
      <trkpt lat="47.37226" lon="16.01604">
        <ele>429.787519</ele>
        <time>2026-07-08T08:17:10.000Z</time>
      </trkpt>
      <trkpt lat="47.37224" lon="16.01596">
        <ele>429.771131</ele>
        <time>2026-07-08T08:17:11.000Z</time>
      </trkpt>
      <trkpt lat="47.37222" lon="16.01588">
        <ele>429.754836</ele>
        <time>2026-07-08T08:17:12.000Z</time>
      </trkpt>
      <trkpt lat="47.37221" lon="16.0158">
        <ele>429.739162</ele>
        <time>2026-07-08T08:17:13.000Z</time>
      </trkpt>
      <trkpt lat="47.37219" lon="16.01572">
        <ele>429.723302</ele>
        <time>2026-07-08T08:17:14.000Z</time>
      </trkpt>
      <trkpt lat="47.37218" lon="16.01565">
        <ele>429.70871</ele>
        <time>2026-07-08T08:17:15.000Z</time>
      </trkpt>
      <trkpt lat="47.37216" lon="16.01557">
        <ele>429.693964</ele>
        <time>2026-07-08T08:17:16.000Z</time>
      </trkpt>
      <trkpt lat="47.37215" lon="16.0155">
        <ele>429.67963</ele>
        <time>2026-07-08T08:17:17.000Z</time>
      </trkpt>
      <trkpt lat="47.37214" lon="16.01543">
        <ele>429.665226</ele>
        <time>2026-07-08T08:17:18.000Z</time>
      </trkpt>
      <trkpt lat="47.37212" lon="16.01536">
        <ele>429.65056</ele>
        <time>2026-07-08T08:17:19.000Z</time>
      </trkpt>
      <trkpt lat="47.37211" lon="16.01528">
        <ele>429.635998</ele>
        <time>2026-07-08T08:17:20.000Z</time>
      </trkpt>
      <trkpt lat="47.3721" lon="16.01521">
        <ele>429.621407</ele>
        <time>2026-07-08T08:17:21.000Z</time>
      </trkpt>
      <trkpt lat="47.37208" lon="16.01514">
        <ele>429.606509</ele>
        <time>2026-07-08T08:17:22.000Z</time>
      </trkpt>
      <trkpt lat="47.37207" lon="16.01506">
        <ele>429.591544</ele>
        <time>2026-07-08T08:17:23.000Z</time>
      </trkpt>
      <trkpt lat="47.37205" lon="16.01499">
        <ele>429.576255</ele>
        <time>2026-07-08T08:17:24.000Z</time>
      </trkpt>
      <trkpt lat="47.37204" lon="16.01491">
        <ele>429.561138</ele>
        <time>2026-07-08T08:17:25.000Z</time>
      </trkpt>
      <trkpt lat="47.37202" lon="16.01484">
        <ele>429.546021</ele>
        <time>2026-07-08T08:17:26.000Z</time>
      </trkpt>
      <trkpt lat="47.37201" lon="16.01476">
        <ele>429.53143</ele>
        <time>2026-07-08T08:17:27.000Z</time>
      </trkpt>
      <trkpt lat="47.372" lon="16.01469">
        <ele>429.516721</ele>
        <time>2026-07-08T08:17:28.000Z</time>
      </trkpt>
      <trkpt lat="47.37199" lon="16.01462">
        <ele>429.502641</ele>
        <time>2026-07-08T08:17:29.000Z</time>
      </trkpt>
      <trkpt lat="47.37197" lon="16.01455">
        <ele>429.488633</ele>
        <time>2026-07-08T08:17:30.000Z</time>
      </trkpt>
      <trkpt lat="47.37195" lon="16.01449">
        <ele>429.475822</ele>
        <time>2026-07-08T08:17:31.000Z</time>
      </trkpt>
      <trkpt lat="47.37191" lon="16.01445">
        <ele>429.461812</ele>
        <time>2026-07-08T08:17:32.000Z</time>
      </trkpt>
      <trkpt lat="47.37186" lon="16.01443">
        <ele>429.44795</ele>
        <time>2026-07-08T08:17:33.000Z</time>
      </trkpt>
      <trkpt lat="47.37181" lon="16.01442">
        <ele>429.421763</ele>
        <time>2026-07-08T08:17:34.000Z</time>
      </trkpt>
      <trkpt lat="47.37176" lon="16.01442">
        <ele>429.380986</ele>
        <time>2026-07-08T08:17:35.000Z</time>
      </trkpt>
      <trkpt lat="47.3717" lon="16.01442">
        <ele>429.340134</ele>
        <time>2026-07-08T08:17:36.000Z</time>
      </trkpt>
      <trkpt lat="47.37164" lon="16.01443">
        <ele>429.297637</ele>
        <time>2026-07-08T08:17:37.000Z</time>
      </trkpt>
      <trkpt lat="47.37159" lon="16.01444">
        <ele>429.255818</ele>
        <time>2026-07-08T08:17:38.000Z</time>
      </trkpt>
      <trkpt lat="47.37153" lon="16.01445">
        <ele>429.213371</ele>
        <time>2026-07-08T08:17:39.000Z</time>
      </trkpt>
      <trkpt lat="47.37148" lon="16.01446">
        <ele>429.172445</ele>
        <time>2026-07-08T08:17:40.000Z</time>
      </trkpt>
      <trkpt lat="47.37142" lon="16.01446">
        <ele>429.130114</ele>
        <time>2026-07-08T08:17:41.000Z</time>
      </trkpt>
      <trkpt lat="47.37136" lon="16.01447">
        <ele>429.088571</ele>
        <time>2026-07-08T08:17:42.000Z</time>
      </trkpt>
      <trkpt lat="47.37131" lon="16.01446">
        <ele>429.046287</ele>
        <time>2026-07-08T08:17:43.000Z</time>
      </trkpt>
      <trkpt lat="47.37125" lon="16.01445">
        <ele>429.003789</ele>
        <time>2026-07-08T08:17:44.000Z</time>
      </trkpt>
      <trkpt lat="47.37119" lon="16.01444">
        <ele>428.962643</ele>
        <time>2026-07-08T08:17:45.000Z</time>
      </trkpt>
      <trkpt lat="47.37114" lon="16.01443">
        <ele>428.922727</ele>
        <time>2026-07-08T08:17:46.000Z</time>
      </trkpt>
      <trkpt lat="47.37109" lon="16.01441">
        <ele>428.88272</ele>
        <time>2026-07-08T08:17:47.000Z</time>
      </trkpt>
      <trkpt lat="47.37104" lon="16.0144">
        <ele>428.844792</ele>
        <time>2026-07-08T08:17:48.000Z</time>
      </trkpt>
      <trkpt lat="47.37099" lon="16.01438">
        <ele>428.804956</ele>
        <time>2026-07-08T08:17:49.000Z</time>
      </trkpt>
      <trkpt lat="47.37094" lon="16.01436">
        <ele>428.766277</ele>
        <time>2026-07-08T08:17:50.000Z</time>
      </trkpt>
      <trkpt lat="47.37089" lon="16.01433">
        <ele>428.727142</ele>
        <time>2026-07-08T08:17:51.000Z</time>
      </trkpt>
      <trkpt lat="47.37084" lon="16.0143">
        <ele>428.687131</ele>
        <time>2026-07-08T08:17:52.000Z</time>
      </trkpt>
      <trkpt lat="47.37078" lon="16.01427">
        <ele>428.644765</ele>
        <time>2026-07-08T08:17:53.000Z</time>
      </trkpt>
      <trkpt lat="47.37073" lon="16.01423">
        <ele>428.603302</ele>
        <time>2026-07-08T08:17:54.000Z</time>
      </trkpt>
      <trkpt lat="47.37068" lon="16.01419">
        <ele>428.560491</ele>
        <time>2026-07-08T08:17:55.000Z</time>
      </trkpt>
      <trkpt lat="47.37063" lon="16.01415">
        <ele>428.515039</ele>
        <time>2026-07-08T08:17:56.000Z</time>
      </trkpt>
      <trkpt lat="47.37057" lon="16.01411">
        <ele>428.469078</ele>
        <time>2026-07-08T08:17:57.000Z</time>
      </trkpt>
      <trkpt lat="47.37051" lon="16.01408">
        <ele>428.420709</ele>
        <time>2026-07-08T08:17:59.000Z</time>
      </trkpt>
      <trkpt lat="47.37045" lon="16.01406">
        <ele>428.372937</ele>
        <time>2026-07-08T08:18:00.000Z</time>
      </trkpt>
      <trkpt lat="47.37038" lon="16.01405">
        <ele>428.324488</ele>
        <time>2026-07-08T08:18:01.000Z</time>
      </trkpt>
      <trkpt lat="47.37032" lon="16.01405">
        <ele>428.27629</ele>
        <time>2026-07-08T08:18:02.000Z</time>
      </trkpt>
      <trkpt lat="47.37025" lon="16.01406">
        <ele>428.229453</ele>
        <time>2026-07-08T08:18:03.000Z</time>
      </trkpt>
      <trkpt lat="47.37019" lon="16.01407">
        <ele>428.181741</ele>
        <time>2026-07-08T08:18:04.000Z</time>
      </trkpt>
      <trkpt lat="47.37013" lon="16.01408">
        <ele>428.136241</ele>
        <time>2026-07-08T08:18:05.000Z</time>
      </trkpt>
      <trkpt lat="47.37007" lon="16.01409">
        <ele>428.129949</ele>
        <time>2026-07-08T08:18:06.000Z</time>
      </trkpt>
      <trkpt lat="47.37001" lon="16.01411">
        <ele>428.190807</ele>
        <time>2026-07-08T08:18:07.000Z</time>
      </trkpt>
      <trkpt lat="47.36995" lon="16.01413">
        <ele>428.25136</ele>
        <time>2026-07-08T08:18:08.000Z</time>
      </trkpt>
      <trkpt lat="47.3699" lon="16.01415">
        <ele>428.310255</ele>
        <time>2026-07-08T08:18:09.000Z</time>
      </trkpt>
      <trkpt lat="47.36984" lon="16.01417">
        <ele>428.366971</ele>
        <time>2026-07-08T08:18:10.000Z</time>
      </trkpt>
      <trkpt lat="47.36979" lon="16.0142">
        <ele>428.425896</ele>
        <time>2026-07-08T08:18:11.000Z</time>
      </trkpt>
      <trkpt lat="47.36974" lon="16.01423">
        <ele>428.482219</ele>
        <time>2026-07-08T08:18:12.000Z</time>
      </trkpt>
      <trkpt lat="47.36969" lon="16.01426">
        <ele>428.535703</ele>
        <time>2026-07-08T08:18:13.000Z</time>
      </trkpt>
      <trkpt lat="47.36965" lon="16.0143">
        <ele>428.587695</ele>
        <time>2026-07-08T08:18:14.000Z</time>
      </trkpt>
      <trkpt lat="47.3696" lon="16.01434">
        <ele>428.641625</ele>
        <time>2026-07-08T08:18:15.000Z</time>
      </trkpt>
      <trkpt lat="47.36956" lon="16.01438">
        <ele>428.692415</ele>
        <time>2026-07-08T08:18:16.000Z</time>
      </trkpt>
      <trkpt lat="47.36952" lon="16.01442">
        <ele>428.743325</ele>
        <time>2026-07-08T08:18:17.000Z</time>
      </trkpt>
      <trkpt lat="47.36948" lon="16.01444">
        <ele>428.789078</ele>
        <time>2026-07-08T08:18:18.000Z</time>
      </trkpt>
      <trkpt lat="47.36944" lon="16.01445">
        <ele>428.834069</ele>
        <time>2026-07-08T08:18:19.000Z</time>
      </trkpt>
      <trkpt lat="47.3694" lon="16.01444">
        <ele>428.873378</ele>
        <time>2026-07-08T08:18:20.000Z</time>
      </trkpt>
      <trkpt lat="47.36937" lon="16.01441">
        <ele>428.909162</ele>
        <time>2026-07-08T08:18:21.000Z</time>
      </trkpt>
      <trkpt lat="47.36936" lon="16.01436">
        <ele>428.942314</ele>
        <time>2026-07-08T08:18:22.000Z</time>
      </trkpt>
      <trkpt lat="47.36937" lon="16.01431">
        <ele>428.978073</ele>
        <time>2026-07-08T08:18:23.000Z</time>
      </trkpt>
      <trkpt lat="47.36937" lon="16.01426">
        <ele>429.015185</ele>
        <time>2026-07-08T08:18:24.000Z</time>
      </trkpt>
      <trkpt lat="47.36938" lon="16.01421">
        <ele>429.052109</ele>
        <time>2026-07-08T08:18:25.000Z</time>
      </trkpt>
      <trkpt lat="47.36938" lon="16.01415">
        <ele>429.091647</ele>
        <time>2026-07-08T08:18:26.000Z</time>
      </trkpt>
      <trkpt lat="47.36939" lon="16.0141">
        <ele>429.13188</ele>
        <time>2026-07-08T08:18:27.000Z</time>
      </trkpt>
      <trkpt lat="47.36939" lon="16.01404">
        <ele>429.174196</ele>
        <time>2026-07-08T08:18:28.000Z</time>
      </trkpt>
      <trkpt lat="47.3694" lon="16.01397">
        <ele>429.217902</ele>
        <time>2026-07-08T08:18:29.000Z</time>
      </trkpt>
      <trkpt lat="47.3694" lon="16.01391">
        <ele>429.262304</ele>
        <time>2026-07-08T08:18:30.000Z</time>
      </trkpt>
      <trkpt lat="47.36941" lon="16.01385">
        <ele>429.308096</ele>
        <time>2026-07-08T08:18:31.000Z</time>
      </trkpt>
      <trkpt lat="47.36941" lon="16.01378">
        <ele>429.352388</ele>
        <time>2026-07-08T08:18:32.000Z</time>
      </trkpt>
      <trkpt lat="47.36941" lon="16.01372">
        <ele>429.3972</ele>
        <time>2026-07-08T08:18:33.000Z</time>
      </trkpt>
      <trkpt lat="47.36942" lon="16.01366">
        <ele>429.441348</ele>
        <time>2026-07-08T08:18:34.000Z</time>
      </trkpt>
      <trkpt lat="47.36942" lon="16.01359">
        <ele>429.484747</ele>
        <time>2026-07-08T08:18:35.000Z</time>
      </trkpt>
      <trkpt lat="47.36942" lon="16.01353">
        <ele>429.526746</ele>
        <time>2026-07-08T08:18:36.000Z</time>
      </trkpt>
      <trkpt lat="47.36941" lon="16.01347">
        <ele>429.568797</ele>
        <time>2026-07-08T08:18:37.000Z</time>
      </trkpt>
      <trkpt lat="47.36941" lon="16.01341">
        <ele>429.611609</ele>
        <time>2026-07-08T08:18:38.000Z</time>
      </trkpt>
      <trkpt lat="47.3694" lon="16.01335">
        <ele>429.653537</ele>
        <time>2026-07-08T08:18:39.000Z</time>
      </trkpt>
      <trkpt lat="47.36939" lon="16.0133">
        <ele>429.695431</ele>
        <time>2026-07-08T08:18:40.000Z</time>
      </trkpt>
      <trkpt lat="47.36938" lon="16.01324">
        <ele>429.735294</ele>
        <time>2026-07-08T08:18:41.000Z</time>
      </trkpt>
      <trkpt lat="47.36937" lon="16.01319">
        <ele>429.775503</ele>
        <time>2026-07-08T08:18:42.000Z</time>
      </trkpt>
      <trkpt lat="47.36935" lon="16.01314">
        <ele>429.813782</ele>
        <time>2026-07-08T08:18:43.000Z</time>
      </trkpt>
      <trkpt lat="47.36934" lon="16.01309">
        <ele>429.85186</ele>
        <time>2026-07-08T08:18:44.000Z</time>
      </trkpt>
      <trkpt lat="47.36932" lon="16.01305">
        <ele>429.888374</ele>
        <time>2026-07-08T08:18:45.000Z</time>
      </trkpt>
      <trkpt lat="47.3693" lon="16.01301">
        <ele>429.922574</ele>
        <time>2026-07-08T08:18:46.000Z</time>
      </trkpt>
      <trkpt lat="47.36928" lon="16.01297">
        <ele>429.950394</ele>
        <time>2026-07-08T08:18:47.000Z</time>
      </trkpt>
      <trkpt lat="47.36927" lon="16.01294">
        <ele>429.968337</ele>
        <time>2026-07-08T08:18:48.000Z</time>
      </trkpt>
      <trkpt lat="47.36925" lon="16.01291">
        <ele>429.974325</ele>
        <time>2026-07-08T08:18:49.000Z</time>
      </trkpt>
      <trkpt lat="47.36923" lon="16.01289">
        <ele>429.979748</ele>
        <time>2026-07-08T08:18:50.000Z</time>
      </trkpt>
      <trkpt lat="47.36921" lon="16.01287">
        <ele>429.984818</ele>
        <time>2026-07-08T08:18:51.000Z</time>
      </trkpt>
      <trkpt lat="47.36919" lon="16.01287">
        <ele>429.990073</ele>
        <time>2026-07-08T08:18:52.000Z</time>
      </trkpt>
      <trkpt lat="47.36917" lon="16.01287">
        <ele>429.995413</ele>
        <time>2026-07-08T08:18:53.000Z</time>
      </trkpt>
      <trkpt lat="47.36914" lon="16.01289">
        <ele>430.001934</ele>
        <time>2026-07-08T08:18:54.000Z</time>
      </trkpt>
      <trkpt lat="47.36911" lon="16.01291">
        <ele>430.008899</ele>
        <time>2026-07-08T08:18:55.000Z</time>
      </trkpt>
      <trkpt lat="47.36908" lon="16.01294">
        <ele>430.01673</ele>
        <time>2026-07-08T08:18:56.000Z</time>
      </trkpt>
      <trkpt lat="47.36906" lon="16.01297">
        <ele>430.025022</ele>
        <time>2026-07-08T08:18:57.000Z</time>
      </trkpt>
      <trkpt lat="47.36903" lon="16.01301">
        <ele>430.033664</ele>
        <time>2026-07-08T08:18:58.000Z</time>
      </trkpt>
      <trkpt lat="47.36899" lon="16.01304">
        <ele>430.042946</ele>
        <time>2026-07-08T08:18:59.000Z</time>
      </trkpt>
      <trkpt lat="47.36896" lon="16.01308">
        <ele>430.052596</ele>
        <time>2026-07-08T08:19:00.000Z</time>
      </trkpt>
      <trkpt lat="47.36893" lon="16.01313">
        <ele>430.062443</ele>
        <time>2026-07-08T08:19:01.000Z</time>
      </trkpt>
      <trkpt lat="47.36889" lon="16.01317">
        <ele>430.072463</ele>
        <time>2026-07-08T08:19:02.000Z</time>
      </trkpt>
      <trkpt lat="47.36886" lon="16.01321">
        <ele>430.082739</ele>
        <time>2026-07-08T08:19:03.000Z</time>
      </trkpt>
      <trkpt lat="47.36882" lon="16.01325">
        <ele>430.092932</ele>
        <time>2026-07-08T08:19:04.000Z</time>
      </trkpt>
      <trkpt lat="47.36879" lon="16.01329">
        <ele>430.103297</ele>
        <time>2026-07-08T08:19:05.000Z</time>
      </trkpt>
      <trkpt lat="47.36875" lon="16.01333">
        <ele>430.113846</ele>
        <time>2026-07-08T08:19:06.000Z</time>
      </trkpt>
      <trkpt lat="47.36871" lon="16.01338">
        <ele>430.125029</ele>
        <time>2026-07-08T08:19:07.000Z</time>
      </trkpt>
      <trkpt lat="47.36867" lon="16.01342">
        <ele>430.136767</ele>
        <time>2026-07-08T08:19:08.000Z</time>
      </trkpt>
      <trkpt lat="47.36862" lon="16.01346">
        <ele>430.1488</ele>
        <time>2026-07-08T08:19:09.000Z</time>
      </trkpt>
      <trkpt lat="47.36857" lon="16.0135">
        <ele>430.161802</ele>
        <time>2026-07-08T08:19:10.000Z</time>
      </trkpt>
      <trkpt lat="47.36852" lon="16.01354">
        <ele>430.175054</ele>
        <time>2026-07-08T08:19:11.000Z</time>
      </trkpt>
      <trkpt lat="47.36847" lon="16.01358">
        <ele>430.188508</ele>
        <time>2026-07-08T08:19:12.000Z</time>
      </trkpt>
      <trkpt lat="47.36841" lon="16.01362">
        <ele>430.202346</ele>
        <time>2026-07-08T08:19:13.000Z</time>
      </trkpt>
      <trkpt lat="47.36835" lon="16.01365">
        <ele>430.216626</ele>
        <time>2026-07-08T08:19:14.000Z</time>
      </trkpt>
      <trkpt lat="47.36829" lon="16.01369">
        <ele>430.231264</ele>
        <time>2026-07-08T08:19:15.000Z</time>
      </trkpt>
      <trkpt lat="47.36823" lon="16.01372">
        <ele>430.246425</ele>
        <time>2026-07-08T08:19:16.000Z</time>
      </trkpt>
      <trkpt lat="47.36816" lon="16.01375">
        <ele>430.261646</ele>
        <time>2026-07-08T08:19:17.000Z</time>
      </trkpt>
      <trkpt lat="47.36809" lon="16.01377">
        <ele>430.27751</ele>
        <time>2026-07-08T08:19:18.000Z</time>
      </trkpt>
      <trkpt lat="47.36803" lon="16.01378">
        <ele>430.29256</ele>
        <time>2026-07-08T08:19:19.000Z</time>
      </trkpt>
      <trkpt lat="47.36796" lon="16.01379">
        <ele>430.307781</ele>
        <time>2026-07-08T08:19:20.000Z</time>
      </trkpt>
      <trkpt lat="47.3679" lon="16.0138">
        <ele>430.322492</ele>
        <time>2026-07-08T08:19:21.000Z</time>
      </trkpt>
      <trkpt lat="47.36783" lon="16.0138">
        <ele>430.336739</ele>
        <time>2026-07-08T08:19:22.000Z</time>
      </trkpt>
      <trkpt lat="47.36777" lon="16.0138">
        <ele>430.350088</ele>
        <time>2026-07-08T08:19:23.000Z</time>
      </trkpt>
      <trkpt lat="47.36772" lon="16.01381">
        <ele>430.362753</ele>
        <time>2026-07-08T08:19:24.000Z</time>
      </trkpt>
      <trkpt lat="47.36766" lon="16.01381">
        <ele>430.384602</ele>
        <time>2026-07-08T08:19:25.000Z</time>
      </trkpt>
      <trkpt lat="47.36761" lon="16.01381">
        <ele>430.433906</ele>
        <time>2026-07-08T08:19:26.000Z</time>
      </trkpt>
      <trkpt lat="47.36756" lon="16.01381">
        <ele>430.48047</ele>
        <time>2026-07-08T08:19:27.000Z</time>
      </trkpt>
      <trkpt lat="47.3675" lon="16.01381">
        <ele>430.529773</ele>
        <time>2026-07-08T08:19:28.000Z</time>
      </trkpt>
      <trkpt lat="47.36745" lon="16.01381">
        <ele>430.576338</ele>
        <time>2026-07-08T08:19:29.000Z</time>
      </trkpt>
      <trkpt lat="47.3674" lon="16.0138">
        <ele>430.623916</ele>
        <time>2026-07-08T08:19:30.000Z</time>
      </trkpt>
      <trkpt lat="47.36735" lon="16.0138">
        <ele>430.672448</ele>
        <time>2026-07-08T08:19:31.000Z</time>
      </trkpt>
      <trkpt lat="47.36729" lon="16.01379">
        <ele>430.722851</ele>
        <time>2026-07-08T08:19:32.000Z</time>
      </trkpt>
      <trkpt lat="47.36724" lon="16.01378">
        <ele>430.775128</ele>
        <time>2026-07-08T08:19:33.000Z</time>
      </trkpt>
      <trkpt lat="47.36718" lon="16.01377">
        <ele>430.827467</ele>
        <time>2026-07-08T08:19:34.000Z</time>
      </trkpt>
      <trkpt lat="47.36712" lon="16.01376">
        <ele>430.880857</ele>
        <time>2026-07-08T08:19:35.000Z</time>
      </trkpt>
      <trkpt lat="47.36706" lon="16.01375">
        <ele>430.936319</ele>
        <time>2026-07-08T08:19:36.000Z</time>
      </trkpt>
      <trkpt lat="47.367" lon="16.01374">
        <ele>430.993494</ele>
        <time>2026-07-08T08:19:37.000Z</time>
      </trkpt>
      <trkpt lat="47.36694" lon="16.01372">
        <ele>431.049395</ele>
        <time>2026-07-08T08:19:38.000Z</time>
      </trkpt>
      <trkpt lat="47.36688" lon="16.0137">
        <ele>431.105423</ele>
        <time>2026-07-08T08:19:39.000Z</time>
      </trkpt>
      <trkpt lat="47.36682" lon="16.01368">
        <ele>431.161583</ele>
        <time>2026-07-08T08:19:40.000Z</time>
      </trkpt>
      <trkpt lat="47.36676" lon="16.01366">
        <ele>431.215696</ele>
        <time>2026-07-08T08:19:41.000Z</time>
      </trkpt>
      <trkpt lat="47.3667" lon="16.01364">
        <ele>431.271597</ele>
        <time>2026-07-08T08:19:42.000Z</time>
      </trkpt>
      <trkpt lat="47.36664" lon="16.01363">
        <ele>431.32469</ele>
        <time>2026-07-08T08:19:43.000Z</time>
      </trkpt>
      <trkpt lat="47.36659" lon="16.01361">
        <ele>431.376889</ele>
        <time>2026-07-08T08:19:44.000Z</time>
      </trkpt>
      <trkpt lat="47.36653" lon="16.01359">
        <ele>431.429752</ele>
        <time>2026-07-08T08:19:45.000Z</time>
      </trkpt>
      <trkpt lat="47.36647" lon="16.01358">
        <ele>431.482412</ele>
        <time>2026-07-08T08:19:46.000Z</time>
      </trkpt>
      <trkpt lat="47.36642" lon="16.01357">
        <ele>431.534169</ele>
        <time>2026-07-08T08:19:47.000Z</time>
      </trkpt>
      <trkpt lat="47.36636" lon="16.01355">
        <ele>431.586927</ele>
        <time>2026-07-08T08:19:48.000Z</time>
      </trkpt>
      <trkpt lat="47.36631" lon="16.01354">
        <ele>431.635793</ele>
        <time>2026-07-08T08:19:49.000Z</time>
      </trkpt>
      <trkpt lat="47.36625" lon="16.01353">
        <ele>431.685851</ele>
        <time>2026-07-08T08:19:50.000Z</time>
      </trkpt>
      <trkpt lat="47.3662" lon="16.01351">
        <ele>431.73333</ele>
        <time>2026-07-08T08:19:51.000Z</time>
      </trkpt>
      <trkpt lat="47.36615" lon="16.0135">
        <ele>431.781483</ele>
        <time>2026-07-08T08:19:52.000Z</time>
      </trkpt>
      <trkpt lat="47.3661" lon="16.01349">
        <ele>431.825933</ele>
        <time>2026-07-08T08:19:53.000Z</time>
      </trkpt>
      <trkpt lat="47.36605" lon="16.01348">
        <ele>431.871387</ele>
        <time>2026-07-08T08:19:54.000Z</time>
      </trkpt>
      <trkpt lat="47.36601" lon="16.01346">
        <ele>431.915944</ele>
        <time>2026-07-08T08:19:55.000Z</time>
      </trkpt>
      <trkpt lat="47.36596" lon="16.01345">
        <ele>431.960203</ele>
        <time>2026-07-08T08:19:56.000Z</time>
      </trkpt>
      <trkpt lat="47.36591" lon="16.01344">
        <ele>432.005771</ele>
        <time>2026-07-08T08:19:57.000Z</time>
      </trkpt>
      <trkpt lat="47.36586" lon="16.01343">
        <ele>432.12632</ele>
        <time>2026-07-08T08:19:58.000Z</time>
      </trkpt>
      <trkpt lat="47.36582" lon="16.01342">
        <ele>432.266876</ele>
        <time>2026-07-08T08:19:59.000Z</time>
      </trkpt>
      <trkpt lat="47.36578" lon="16.01341">
        <ele>432.401327</ele>
        <time>2026-07-08T08:20:00.000Z</time>
      </trkpt>
      <trkpt lat="47.36573" lon="16.0134">
        <ele>432.533458</ele>
        <time>2026-07-08T08:20:01.000Z</time>
      </trkpt>
      <trkpt lat="47.36569" lon="16.01339">
        <ele>432.658764</ele>
        <time>2026-07-08T08:20:02.000Z</time>
      </trkpt>
      <trkpt lat="47.36566" lon="16.01338">
        <ele>432.777983</ele>
        <time>2026-07-08T08:20:03.000Z</time>
      </trkpt>
      <trkpt lat="47.36562" lon="16.01337">
        <ele>432.894164</ele>
        <time>2026-07-08T08:20:04.000Z</time>
      </trkpt>
      <trkpt lat="47.36558" lon="16.01336">
        <ele>433.013383</ele>
        <time>2026-07-08T08:20:05.000Z</time>
      </trkpt>
      <trkpt lat="47.36554" lon="16.01335">
        <ele>433.128883</ele>
        <time>2026-07-08T08:20:06.000Z</time>
      </trkpt>
      <trkpt lat="47.36551" lon="16.01334">
        <ele>433.238614</ele>
        <time>2026-07-08T08:20:07.000Z</time>
      </trkpt>
      <trkpt lat="47.36547" lon="16.01333">
        <ele>433.347444</ele>
        <time>2026-07-08T08:20:08.000Z</time>
      </trkpt>
      <trkpt lat="47.36544" lon="16.01333">
        <ele>433.449906</ele>
        <time>2026-07-08T08:20:09.000Z</time>
      </trkpt>
      <trkpt lat="47.36541" lon="16.01332">
        <ele>433.550521</ele>
        <time>2026-07-08T08:20:10.000Z</time>
      </trkpt>
      <trkpt lat="47.36538" lon="16.01331">
        <ele>433.647722</ele>
        <time>2026-07-08T08:20:11.000Z</time>
      </trkpt>
      <trkpt lat="47.36535" lon="16.0133">
        <ele>433.747639</ele>
        <time>2026-07-08T08:20:12.000Z</time>
      </trkpt>
      <trkpt lat="47.36531" lon="16.01329">
        <ele>433.84912</ele>
        <time>2026-07-08T08:20:13.000Z</time>
      </trkpt>
      <trkpt lat="47.36528" lon="16.01328">
        <ele>433.947128</ele>
        <time>2026-07-08T08:20:14.000Z</time>
      </trkpt>
      <trkpt lat="47.36525" lon="16.01327">
        <ele>434.048155</ele>
        <time>2026-07-08T08:20:15.000Z</time>
      </trkpt>
      <trkpt lat="47.36522" lon="16.01326">
        <ele>434.14877</ele>
        <time>2026-07-08T08:20:16.000Z</time>
      </trkpt>
      <trkpt lat="47.36519" lon="16.01326">
        <ele>434.252062</ele>
        <time>2026-07-08T08:20:17.000Z</time>
      </trkpt>
      <trkpt lat="47.36515" lon="16.01325">
        <ele>434.361453</ele>
        <time>2026-07-08T08:20:18.000Z</time>
      </trkpt>
      <trkpt lat="47.36512" lon="16.01324">
        <ele>434.471184</ele>
        <time>2026-07-08T08:20:19.000Z</time>
      </trkpt>
      <trkpt lat="47.36508" lon="16.01323">
        <ele>434.575236</ele>
        <time>2026-07-08T08:20:20.000Z</time>
      </trkpt>
      <trkpt lat="47.36505" lon="16.01322">
        <ele>434.684627</ele>
        <time>2026-07-08T08:20:21.000Z</time>
      </trkpt>
      <trkpt lat="47.36501" lon="16.01321">
        <ele>434.794019</ele>
        <time>2026-07-08T08:20:22.000Z</time>
      </trkpt>
      <trkpt lat="47.36498" lon="16.01321">
        <ele>434.90311</ele>
        <time>2026-07-08T08:20:23.000Z</time>
      </trkpt>
      <trkpt lat="47.36494" lon="16.0132">
        <ele>435.013219</ele>
        <time>2026-07-08T08:20:24.000Z</time>
      </trkpt>
      <trkpt lat="47.36491" lon="16.01319">
        <ele>435.123329</ele>
        <time>2026-07-08T08:20:25.000Z</time>
      </trkpt>
      <trkpt lat="47.36487" lon="16.01318">
        <ele>435.233438</ele>
        <time>2026-07-08T08:20:26.000Z</time>
      </trkpt>
      <trkpt lat="47.36484" lon="16.01317">
        <ele>435.349618</ele>
        <time>2026-07-08T08:20:27.000Z</time>
      </trkpt>
      <trkpt lat="47.3648" lon="16.01316">
        <ele>435.465119</ele>
        <time>2026-07-08T08:20:28.000Z</time>
      </trkpt>
      <trkpt lat="47.36476" lon="16.01315">
        <ele>435.578262</ele>
        <time>2026-07-08T08:20:29.000Z</time>
      </trkpt>
      <trkpt lat="47.36473" lon="16.01314">
        <ele>435.694442</ele>
        <time>2026-07-08T08:20:30.000Z</time>
      </trkpt>
      <trkpt lat="47.36469" lon="16.01313">
        <ele>435.811448</ele>
        <time>2026-07-08T08:20:31.000Z</time>
      </trkpt>
      <trkpt lat="47.36465" lon="16.01312">
        <ele>435.924591</ele>
        <time>2026-07-08T08:20:32.000Z</time>
      </trkpt>
      <trkpt lat="47.36461" lon="16.01311">
        <ele>436.046207</ele>
        <time>2026-07-08T08:20:33.000Z</time>
      </trkpt>
      <trkpt lat="47.36458" lon="16.0131">
        <ele>436.158982</ele>
        <time>2026-07-08T08:20:34.000Z</time>
      </trkpt>
      <trkpt lat="47.36454" lon="16.01309">
        <ele>436.275557</ele>
        <time>2026-07-08T08:20:35.000Z</time>
      </trkpt>
      <trkpt lat="47.3645" lon="16.01308">
        <ele>436.391738</ele>
        <time>2026-07-08T08:20:36.000Z</time>
      </trkpt>
      <trkpt lat="47.36447" lon="16.01307">
        <ele>436.505729</ele>
        <time>2026-07-08T08:20:37.000Z</time>
      </trkpt>
      <trkpt lat="47.36443" lon="16.01306">
        <ele>436.627344</ele>
        <time>2026-07-08T08:20:38.000Z</time>
      </trkpt>
      <trkpt lat="47.36439" lon="16.01305">
        <ele>436.74012</ele>
        <time>2026-07-08T08:20:39.000Z</time>
      </trkpt>
      <trkpt lat="47.36436" lon="16.01304">
        <ele>436.8563</ele>
        <time>2026-07-08T08:20:40.000Z</time>
      </trkpt>
      <trkpt lat="47.36432" lon="16.01303">
        <ele>436.97248</ele>
        <time>2026-07-08T08:20:41.000Z</time>
      </trkpt>
      <trkpt lat="47.36428" lon="16.01302">
        <ele>437.081872</ele>
        <time>2026-07-08T08:20:42.000Z</time>
      </trkpt>
      <trkpt lat="47.36425" lon="16.01301">
        <ele>437.194317</ele>
        <time>2026-07-08T08:20:43.000Z</time>
      </trkpt>
      <trkpt lat="47.36421" lon="16.013">
        <ele>437.304426</ele>
        <time>2026-07-08T08:20:44.000Z</time>
      </trkpt>
      <trkpt lat="47.36418" lon="16.01299">
        <ele>437.414158</ele>
        <time>2026-07-08T08:20:45.000Z</time>
      </trkpt>
      <trkpt lat="47.36414" lon="16.01298">
        <ele>437.524267</ele>
        <time>2026-07-08T08:20:46.000Z</time>
      </trkpt>
      <trkpt lat="47.36411" lon="16.01297">
        <ele>437.652661</ele>
        <time>2026-07-08T08:20:47.000Z</time>
      </trkpt>
      <trkpt lat="47.36407" lon="16.01297">
        <ele>437.792994</ele>
        <time>2026-07-08T08:20:48.000Z</time>
      </trkpt>
      <trkpt lat="47.36404" lon="16.01296">
        <ele>437.933328</ele>
        <time>2026-07-08T08:20:49.000Z</time>
      </trkpt>
      <trkpt lat="47.364" lon="16.01295">
        <ele>438.070195</ele>
        <time>2026-07-08T08:20:50.000Z</time>
      </trkpt>
      <trkpt lat="47.36397" lon="16.01294">
        <ele>438.19489</ele>
        <time>2026-07-08T08:20:51.000Z</time>
      </trkpt>
      <trkpt lat="47.36394" lon="16.01293">
        <ele>438.323069</ele>
        <time>2026-07-08T08:20:52.000Z</time>
      </trkpt>
      <trkpt lat="47.36391" lon="16.01292">
        <ele>438.437875</ele>
        <time>2026-07-08T08:20:53.000Z</time>
      </trkpt>
      <trkpt lat="47.36388" lon="16.01292">
        <ele>438.554308</ele>
        <time>2026-07-08T08:20:54.000Z</time>
      </trkpt>
      <trkpt lat="47.36385" lon="16.01291">
        <ele>438.674653</ele>
        <time>2026-07-08T08:20:55.000Z</time>
      </trkpt>
      <trkpt lat="47.36383" lon="16.0129">
        <ele>438.787657</ele>
        <time>2026-07-08T08:20:56.000Z</time>
      </trkpt>
      <trkpt lat="47.3638" lon="16.01289">
        <ele>438.900661</ele>
        <time>2026-07-08T08:20:57.000Z</time>
      </trkpt>
      <trkpt lat="47.36377" lon="16.01289">
        <ele>439.017094</ele>
        <time>2026-07-08T08:20:58.000Z</time>
      </trkpt>
      <trkpt lat="47.36374" lon="16.01288">
        <ele>439.129618</ele>
        <time>2026-07-08T08:20:59.000Z</time>
      </trkpt>
      <trkpt lat="47.36371" lon="16.01287">
        <ele>439.237806</ele>
        <time>2026-07-08T08:21:00.000Z</time>
      </trkpt>
      <trkpt lat="47.36369" lon="16.01286">
        <ele>439.351351</ele>
        <time>2026-07-08T08:21:01.000Z</time>
      </trkpt>
      <trkpt lat="47.36366" lon="16.01286">
        <ele>439.460467</ele>
        <time>2026-07-08T08:21:02.000Z</time>
      </trkpt>
      <trkpt lat="47.36363" lon="16.01285">
        <ele>439.57347</ele>
        <time>2026-07-08T08:21:03.000Z</time>
      </trkpt>
      <trkpt lat="47.3636" lon="16.01284">
        <ele>439.683768</ele>
        <time>2026-07-08T08:21:04.000Z</time>
      </trkpt>
      <trkpt lat="47.36358" lon="16.01283">
        <ele>439.789583</ele>
        <time>2026-07-08T08:21:05.000Z</time>
      </trkpt>
      <trkpt lat="47.36355" lon="16.01282">
        <ele>439.905613</ele>
        <time>2026-07-08T08:21:06.000Z</time>
      </trkpt>
      <trkpt lat="47.36352" lon="16.01282">
        <ele>440.018138</ele>
        <time>2026-07-08T08:21:07.000Z</time>
      </trkpt>
      <trkpt lat="47.36349" lon="16.01281">
        <ele>440.127254</ele>
        <time>2026-07-08T08:21:08.000Z</time>
      </trkpt>
      <trkpt lat="47.36347" lon="16.0128">
        <ele>440.233713</ele>
        <time>2026-07-08T08:21:09.000Z</time>
      </trkpt>
      <trkpt lat="47.36344" lon="16.01279">
        <ele>440.350146</ele>
        <time>2026-07-08T08:21:10.000Z</time>
      </trkpt>
      <trkpt lat="47.36341" lon="16.01278">
        <ele>440.464292</ele>
        <time>2026-07-08T08:21:11.000Z</time>
      </trkpt>
      <trkpt lat="47.36338" lon="16.01277">
        <ele>440.576816</ele>
        <time>2026-07-08T08:21:12.000Z</time>
      </trkpt>
      <trkpt lat="47.36335" lon="16.01277">
        <ele>440.692847</ele>
        <time>2026-07-08T08:21:13.000Z</time>
      </trkpt>
      <trkpt lat="47.36333" lon="16.01276">
        <ele>440.805371</ele>
        <time>2026-07-08T08:21:14.000Z</time>
      </trkpt>
      <trkpt lat="47.3633" lon="16.01275">
        <ele>440.917896</ele>
        <time>2026-07-08T08:21:15.000Z</time>
      </trkpt>
      <trkpt lat="47.36327" lon="16.01275">
        <ele>441.033926</ele>
        <time>2026-07-08T08:21:16.000Z</time>
      </trkpt>
      <trkpt lat="47.36324" lon="16.01274">
        <ele>441.146451</ele>
        <time>2026-07-08T08:21:17.000Z</time>
      </trkpt>
      <trkpt lat="47.36321" lon="16.01273">
        <ele>441.259455</ele>
        <time>2026-07-08T08:21:18.000Z</time>
      </trkpt>
      <trkpt lat="47.36318" lon="16.01272">
        <ele>441.376874</ele>
        <time>2026-07-08T08:21:19.000Z</time>
      </trkpt>
      <trkpt lat="47.36316" lon="16.01272">
        <ele>441.489877</ele>
        <time>2026-07-08T08:21:20.000Z</time>
      </trkpt>
      <trkpt lat="47.36313" lon="16.01271">
        <ele>441.609502</ele>
        <time>2026-07-08T08:21:21.000Z</time>
      </trkpt>
      <trkpt lat="47.3631" lon="16.0127">
        <ele>441.722027</ele>
        <time>2026-07-08T08:21:22.000Z</time>
      </trkpt>
      <trkpt lat="47.36307" lon="16.0127">
        <ele>441.838923</ele>
        <time>2026-07-08T08:21:23.000Z</time>
      </trkpt>
      <trkpt lat="47.36304" lon="16.01269">
        <ele>441.951927</ele>
        <time>2026-07-08T08:21:24.000Z</time>
      </trkpt>
      <trkpt lat="47.36301" lon="16.01268">
        <ele>442.073226</ele>
        <time>2026-07-08T08:21:25.000Z</time>
      </trkpt>
      <trkpt lat="47.36298" lon="16.01267">
        <ele>442.19402</ele>
        <time>2026-07-08T08:21:26.000Z</time>
      </trkpt>
      <trkpt lat="47.36295" lon="16.01266">
        <ele>442.322199</ele>
        <time>2026-07-08T08:21:27.000Z</time>
      </trkpt>
      <trkpt lat="47.36292" lon="16.01266">
        <ele>442.442154</ele>
        <time>2026-07-08T08:21:28.000Z</time>
      </trkpt>
      <trkpt lat="47.36289" lon="16.01265">
        <ele>442.563454</ele>
        <time>2026-07-08T08:21:29.000Z</time>
      </trkpt>
      <trkpt lat="47.36286" lon="16.01264">
        <ele>442.684247</ele>
        <time>2026-07-08T08:21:30.000Z</time>
      </trkpt>
      <trkpt lat="47.36283" lon="16.01263">
        <ele>442.808508</ele>
        <time>2026-07-08T08:21:31.000Z</time>
      </trkpt>
      <trkpt lat="47.3628" lon="16.01263">
        <ele>442.928463</ele>
        <time>2026-07-08T08:21:32.000Z</time>
      </trkpt>
      <trkpt lat="47.36277" lon="16.01262">
        <ele>443.050325</ele>
        <time>2026-07-08T08:21:33.000Z</time>
      </trkpt>
      <trkpt lat="47.36274" lon="16.01261">
        <ele>443.171625</ele>
        <time>2026-07-08T08:21:34.000Z</time>
      </trkpt>
      <trkpt lat="47.36271" lon="16.0126">
        <ele>443.29158</ele>
        <time>2026-07-08T08:21:35.000Z</time>
      </trkpt>
      <trkpt lat="47.36268" lon="16.0126">
        <ele>443.411205</ele>
        <time>2026-07-08T08:21:36.000Z</time>
      </trkpt>
      <trkpt lat="47.36265" lon="16.01259">
        <ele>443.53083</ele>
        <time>2026-07-08T08:21:37.000Z</time>
      </trkpt>
      <trkpt lat="47.36262" lon="16.01259">
        <ele>443.651176</ele>
        <time>2026-07-08T08:21:38.000Z</time>
      </trkpt>
      <trkpt lat="47.36259" lon="16.01258">
        <ele>443.767609</ele>
        <time>2026-07-08T08:21:39.000Z</time>
      </trkpt>
      <trkpt lat="47.36256" lon="16.01257">
        <ele>443.87188</ele>
        <time>2026-07-08T08:21:40.000Z</time>
      </trkpt>
      <trkpt lat="47.36253" lon="16.01257">
        <ele>443.987569</ele>
        <time>2026-07-08T08:21:41.000Z</time>
      </trkpt>
      <trkpt lat="47.36251" lon="16.01256">
        <ele>444.100094</ele>
        <time>2026-07-08T08:21:42.000Z</time>
      </trkpt>
      <trkpt lat="47.36248" lon="16.01255">
        <ele>444.200918</ele>
        <time>2026-07-08T08:21:43.000Z</time>
      </trkpt>
      <trkpt lat="47.36245" lon="16.01255">
        <ele>444.310034</ele>
        <time>2026-07-08T08:21:44.000Z</time>
      </trkpt>
      <trkpt lat="47.36243" lon="16.01254">
        <ele>444.423038</ele>
        <time>2026-07-08T08:21:45.000Z</time>
      </trkpt>
      <trkpt lat="47.3624" lon="16.01253">
        <ele>444.535562</ele>
        <time>2026-07-08T08:21:46.000Z</time>
      </trkpt>
      <trkpt lat="47.36237" lon="16.01252">
        <ele>444.651996</ele>
        <time>2026-07-08T08:21:47.000Z</time>
      </trkpt>
      <trkpt lat="47.36234" lon="16.01251">
        <ele>444.775242</ele>
        <time>2026-07-08T08:21:48.000Z</time>
      </trkpt>
      <trkpt lat="47.36231" lon="16.0125">
        <ele>444.913741</ele>
        <time>2026-07-08T08:21:49.000Z</time>
      </trkpt>
      <trkpt lat="47.36228" lon="16.01249">
        <ele>445.042814</ele>
        <time>2026-07-08T08:21:50.000Z</time>
      </trkpt>
      <trkpt lat="47.36225" lon="16.01249">
        <ele>445.178897</ele>
        <time>2026-07-08T08:21:51.000Z</time>
      </trkpt>
      <trkpt lat="47.36222" lon="16.01248">
        <ele>445.311081</ele>
        <time>2026-07-08T08:21:52.000Z</time>
      </trkpt>
      <trkpt lat="47.36219" lon="16.01247">
        <ele>445.44635</ele>
        <time>2026-07-08T08:21:53.000Z</time>
      </trkpt>
      <trkpt lat="47.36217" lon="16.01247">
        <ele>445.57239</ele>
        <time>2026-07-08T08:21:54.000Z</time>
      </trkpt>
      <trkpt lat="47.36214" lon="16.01246">
        <ele>445.707659</ele>
        <time>2026-07-08T08:21:55.000Z</time>
      </trkpt>
      <trkpt lat="47.36211" lon="16.01246">
        <ele>445.843302</ele>
        <time>2026-07-08T08:21:56.000Z</time>
      </trkpt>
      <trkpt lat="47.36207" lon="16.01245">
        <ele>445.991936</ele>
        <time>2026-07-08T08:21:57.000Z</time>
      </trkpt>
      <trkpt lat="47.36204" lon="16.01244">
        <ele>446.146703</ele>
        <time>2026-07-08T08:21:58.000Z</time>
      </trkpt>
      <trkpt lat="47.36201" lon="16.01244">
        <ele>446.295676</ele>
        <time>2026-07-08T08:21:59.000Z</time>
      </trkpt>
      <trkpt lat="47.36197" lon="16.01243">
        <ele>446.440618</ele>
        <time>2026-07-08T08:22:00.000Z</time>
      </trkpt>
      <trkpt lat="47.36194" lon="16.01242">
        <ele>446.576702</ele>
        <time>2026-07-08T08:22:01.000Z</time>
      </trkpt>
      <trkpt lat="47.36191" lon="16.01242">
        <ele>446.713292</ele>
        <time>2026-07-08T08:22:02.000Z</time>
      </trkpt>
      <trkpt lat="47.36189" lon="16.01241">
        <ele>446.841074</ele>
        <time>2026-07-08T08:22:03.000Z</time>
      </trkpt>
      <trkpt lat="47.36186" lon="16.0124">
        <ele>446.967443</ele>
        <time>2026-07-08T08:22:04.000Z</time>
      </trkpt>
      <trkpt lat="47.36183" lon="16.0124">
        <ele>447.099103</ele>
        <time>2026-07-08T08:22:05.000Z</time>
      </trkpt>
      <trkpt lat="47.3618" lon="16.01239">
        <ele>447.218099</ele>
        <time>2026-07-08T08:22:06.000Z</time>
      </trkpt>
      <trkpt lat="47.36178" lon="16.01238">
        <ele>447.340021</ele>
        <time>2026-07-08T08:22:07.000Z</time>
      </trkpt>
      <trkpt lat="47.36175" lon="16.01238">
        <ele>447.462846</ele>
        <time>2026-07-08T08:22:08.000Z</time>
      </trkpt>
      <trkpt lat="47.36172" lon="16.01237">
        <ele>447.590628</ele>
        <time>2026-07-08T08:22:09.000Z</time>
      </trkpt>
      <trkpt lat="47.36169" lon="16.01236">
        <ele>447.719701</ele>
        <time>2026-07-08T08:22:10.000Z</time>
      </trkpt>
      <trkpt lat="47.36166" lon="16.01235">
        <ele>447.853133</ele>
        <time>2026-07-08T08:22:11.000Z</time>
      </trkpt>
      <trkpt lat="47.36164" lon="16.01234">
        <ele>447.971548</ele>
        <time>2026-07-08T08:22:12.000Z</time>
      </trkpt>
      <trkpt lat="47.36161" lon="16.01233">
        <ele>448.09627</ele>
        <time>2026-07-08T08:22:13.000Z</time>
      </trkpt>
      <trkpt lat="47.36158" lon="16.01232">
        <ele>448.219657</ele>
        <time>2026-07-08T08:22:14.000Z</time>
      </trkpt>
      <trkpt lat="47.36156" lon="16.01231">
        <ele>448.335708</ele>
        <time>2026-07-08T08:22:15.000Z</time>
      </trkpt>
      <trkpt lat="47.36153" lon="16.0123">
        <ele>448.459708</ele>
        <time>2026-07-08T08:22:16.000Z</time>
      </trkpt>
      <trkpt lat="47.36151" lon="16.01229">
        <ele>448.572303</ele>
        <time>2026-07-08T08:22:17.000Z</time>
      </trkpt>
      <trkpt lat="47.36149" lon="16.01227">
        <ele>448.675543</ele>
        <time>2026-07-08T08:22:18.000Z</time>
      </trkpt>
      <trkpt lat="47.36147" lon="16.01226">
        <ele>448.779614</ele>
        <time>2026-07-08T08:22:19.000Z</time>
      </trkpt>
      <trkpt lat="47.36144" lon="16.01225">
        <ele>448.891082</ele>
        <time>2026-07-08T08:22:20.000Z</time>
      </trkpt>
      <trkpt lat="47.36142" lon="16.01224">
        <ele>449.001321</ele>
        <time>2026-07-08T08:22:21.000Z</time>
      </trkpt>
      <trkpt lat="47.3614" lon="16.01223">
        <ele>449.098494</ele>
        <time>2026-07-08T08:22:22.000Z</time>
      </trkpt>
      <trkpt lat="47.36137" lon="16.01222">
        <ele>449.210227</ele>
        <time>2026-07-08T08:22:23.000Z</time>
      </trkpt>
      <trkpt lat="47.36135" lon="16.01221">
        <ele>449.309091</ele>
        <time>2026-07-08T08:22:24.000Z</time>
      </trkpt>
      <trkpt lat="47.36133" lon="16.0122">
        <ele>449.412229</ele>
        <time>2026-07-08T08:22:25.000Z</time>
      </trkpt>
      <trkpt lat="47.36131" lon="16.01219">
        <ele>449.517313</ele>
        <time>2026-07-08T08:22:26.000Z</time>
      </trkpt>
      <trkpt lat="47.36129" lon="16.01218">
        <ele>449.623186</ele>
        <time>2026-07-08T08:22:27.000Z</time>
      </trkpt>
      <trkpt lat="47.36126" lon="16.01217">
        <ele>449.726324</ele>
        <time>2026-07-08T08:22:28.000Z</time>
      </trkpt>
      <trkpt lat="47.36124" lon="16.01216">
        <ele>449.835622</ele>
        <time>2026-07-08T08:22:29.000Z</time>
      </trkpt>
      <trkpt lat="47.36122" lon="16.01215">
        <ele>449.938759</ele>
        <time>2026-07-08T08:22:30.000Z</time>
      </trkpt>
      <trkpt lat="47.3612" lon="16.01214">
        <ele>450.037624</ele>
        <time>2026-07-08T08:22:31.000Z</time>
      </trkpt>
      <trkpt lat="47.36118" lon="16.01213">
        <ele>450.140761</ele>
        <time>2026-07-08T08:22:32.000Z</time>
      </trkpt>
      <trkpt lat="47.36115" lon="16.01212">
        <ele>450.245846</ele>
        <time>2026-07-08T08:22:33.000Z</time>
      </trkpt>
      <trkpt lat="47.36113" lon="16.01211">
        <ele>450.345683</ele>
        <time>2026-07-08T08:22:34.000Z</time>
      </trkpt>
      <trkpt lat="47.36111" lon="16.0121">
        <ele>450.442412</ele>
        <time>2026-07-08T08:22:35.000Z</time>
      </trkpt>
      <trkpt lat="47.36109" lon="16.01208">
        <ele>450.53914</ele>
        <time>2026-07-08T08:22:36.000Z</time>
      </trkpt>
      <trkpt lat="47.36107" lon="16.01207">
        <ele>450.653682</ele>
        <time>2026-07-08T08:22:37.000Z</time>
      </trkpt>
      <trkpt lat="47.36105" lon="16.01206">
        <ele>450.752547</ele>
        <time>2026-07-08T08:22:38.000Z</time>
      </trkpt>
      <trkpt lat="47.36102" lon="16.01205">
        <ele>450.866079</ele>
        <time>2026-07-08T08:22:39.000Z</time>
      </trkpt>
      <trkpt lat="47.361" lon="16.01204">
        <ele>450.965917</ele>
        <time>2026-07-08T08:22:40.000Z</time>
      </trkpt>
      <trkpt lat="47.36098" lon="16.01203">
        <ele>451.079449</ele>
        <time>2026-07-08T08:22:41.000Z</time>
      </trkpt>
      <trkpt lat="47.36096" lon="16.01202">
        <ele>451.186877</ele>
        <time>2026-07-08T08:22:42.000Z</time>
      </trkpt>
      <trkpt lat="47.36093" lon="16.01201">
        <ele>451.294305</ele>
        <time>2026-07-08T08:22:43.000Z</time>
      </trkpt>
      <trkpt lat="47.36091" lon="16.012">
        <ele>451.406038</ele>
        <time>2026-07-08T08:22:44.000Z</time>
      </trkpt>
      <trkpt lat="47.36088" lon="16.01198">
        <ele>451.524796</ele>
        <time>2026-07-08T08:22:45.000Z</time>
      </trkpt>
      <trkpt lat="47.36086" lon="16.01197">
        <ele>451.628036</ele>
        <time>2026-07-08T08:22:46.000Z</time>
      </trkpt>
      <trkpt lat="47.36084" lon="16.01196">
        <ele>451.739769</ele>
        <time>2026-07-08T08:22:47.000Z</time>
      </trkpt>
      <trkpt lat="47.36082" lon="16.01195">
        <ele>451.838634</ele>
        <time>2026-07-08T08:22:48.000Z</time>
      </trkpt>
      <trkpt lat="47.3608" lon="16.01194">
        <ele>451.941771</ele>
        <time>2026-07-08T08:22:49.000Z</time>
      </trkpt>
      <trkpt lat="47.36077" lon="16.01193">
        <ele>452.045843</ele>
        <time>2026-07-08T08:22:50.000Z</time>
      </trkpt>
      <trkpt lat="47.36075" lon="16.01192">
        <ele>452.142571</ele>
        <time>2026-07-08T08:22:51.000Z</time>
      </trkpt>
      <trkpt lat="47.36073" lon="16.01191">
        <ele>452.241436</ele>
        <time>2026-07-08T08:22:52.000Z</time>
      </trkpt>
      <trkpt lat="47.36071" lon="16.0119">
        <ele>452.342953</ele>
        <time>2026-07-08T08:22:53.000Z</time>
      </trkpt>
      <trkpt lat="47.36069" lon="16.01188">
        <ele>452.450292</ele>
        <time>2026-07-08T08:22:54.000Z</time>
      </trkpt>
      <trkpt lat="47.36067" lon="16.01187">
        <ele>452.544903</ele>
        <time>2026-07-08T08:22:55.000Z</time>
      </trkpt>
      <trkpt lat="47.36065" lon="16.01186">
        <ele>452.639513</ele>
        <time>2026-07-08T08:22:56.000Z</time>
      </trkpt>
      <trkpt lat="47.36063" lon="16.01185">
        <ele>452.734123</ele>
        <time>2026-07-08T08:22:57.000Z</time>
      </trkpt>
      <trkpt lat="47.36061" lon="16.01184">
        <ele>452.831212</ele>
        <time>2026-07-08T08:22:58.000Z</time>
      </trkpt>
      <trkpt lat="47.36059" lon="16.01183">
        <ele>452.93007</ele>
        <time>2026-07-08T08:22:59.000Z</time>
      </trkpt>
      <trkpt lat="47.36057" lon="16.01182">
        <ele>453.032275</ele>
        <time>2026-07-08T08:23:00.000Z</time>
      </trkpt>
      <trkpt lat="47.36055" lon="16.01181">
        <ele>453.138897</ele>
        <time>2026-07-08T08:23:01.000Z</time>
      </trkpt>
      <trkpt lat="47.36052" lon="16.0118">
        <ele>453.244639</ele>
        <time>2026-07-08T08:23:02.000Z</time>
      </trkpt>
      <trkpt lat="47.3605" lon="16.0118">
        <ele>453.35409</ele>
        <time>2026-07-08T08:23:03.000Z</time>
      </trkpt>
      <trkpt lat="47.36048" lon="16.01179">
        <ele>453.450068</ele>
        <time>2026-07-08T08:23:04.000Z</time>
      </trkpt>
      <trkpt lat="47.36046" lon="16.01178">
        <ele>453.561126</ele>
        <time>2026-07-08T08:23:05.000Z</time>
      </trkpt>
      <trkpt lat="47.36044" lon="16.01177">
        <ele>453.658933</ele>
        <time>2026-07-08T08:23:06.000Z</time>
      </trkpt>
      <trkpt lat="47.36042" lon="16.01176">
        <ele>453.765556</ele>
        <time>2026-07-08T08:23:07.000Z</time>
      </trkpt>
      <trkpt lat="47.3604" lon="16.01175">
        <ele>453.854638</ele>
        <time>2026-07-08T08:23:08.000Z</time>
      </trkpt>
      <trkpt lat="47.36038" lon="16.01174">
        <ele>453.961261</ele>
        <time>2026-07-08T08:23:09.000Z</time>
      </trkpt>
      <trkpt lat="47.36036" lon="16.01173">
        <ele>454.059068</ele>
        <time>2026-07-08T08:23:10.000Z</time>
      </trkpt>
      <trkpt lat="47.36034" lon="16.01172">
        <ele>454.155914</ele>
        <time>2026-07-08T08:23:11.000Z</time>
      </trkpt>
      <trkpt lat="47.36032" lon="16.01171">
        <ele>454.250445</ele>
        <time>2026-07-08T08:23:12.000Z</time>
      </trkpt>
      <trkpt lat="47.3603" lon="16.01171">
        <ele>454.345651</ele>
        <time>2026-07-08T08:23:13.000Z</time>
      </trkpt>
      <trkpt lat="47.36028" lon="16.0117">
        <ele>454.440857</ele>
        <time>2026-07-08T08:23:14.000Z</time>
      </trkpt>
      <trkpt lat="47.36026" lon="16.01169">
        <ele>454.536835</ele>
        <time>2026-07-08T08:23:15.000Z</time>
      </trkpt>
      <trkpt lat="47.36024" lon="16.01168">
        <ele>454.625918</ele>
        <time>2026-07-08T08:23:16.000Z</time>
      </trkpt>
      <trkpt lat="47.36022" lon="16.01167">
        <ele>454.717433</ele>
        <time>2026-07-08T08:23:17.000Z</time>
      </trkpt>
      <trkpt lat="47.3602" lon="16.01166">
        <ele>454.806516</ele>
        <time>2026-07-08T08:23:18.000Z</time>
      </trkpt>
      <trkpt lat="47.36018" lon="16.01165">
        <ele>454.903362</ele>
        <time>2026-07-08T08:23:19.000Z</time>
      </trkpt>
      <trkpt lat="47.36016" lon="16.01165">
        <ele>454.988835</ele>
        <time>2026-07-08T08:23:20.000Z</time>
      </trkpt>
      <trkpt lat="47.36014" lon="16.01164">
        <ele>455.085681</ele>
        <time>2026-07-08T08:23:21.000Z</time>
      </trkpt>
      <trkpt lat="47.36012" lon="16.01163">
        <ele>455.189307</ele>
        <time>2026-07-08T08:23:22.000Z</time>
      </trkpt>
      <trkpt lat="47.3601" lon="16.01162">
        <ele>455.286153</ele>
        <time>2026-07-08T08:23:23.000Z</time>
      </trkpt>
      <trkpt lat="47.36008" lon="16.01162">
        <ele>455.380685</ele>
        <time>2026-07-08T08:23:24.000Z</time>
      </trkpt>
      <trkpt lat="47.36006" lon="16.01161">
        <ele>455.483787</ele>
        <time>2026-07-08T08:23:25.000Z</time>
      </trkpt>
      <trkpt lat="47.36004" lon="16.01161">
        <ele>455.583506</ele>
        <time>2026-07-08T08:23:26.000Z</time>
      </trkpt>
      <trkpt lat="47.36002" lon="16.0116">
        <ele>455.686608</ele>
        <time>2026-07-08T08:23:27.000Z</time>
      </trkpt>
      <trkpt lat="47.35999" lon="16.01159">
        <ele>455.79085</ele>
        <time>2026-07-08T08:23:28.000Z</time>
      </trkpt>
      <trkpt lat="47.35997" lon="16.01159">
        <ele>455.899034</ele>
        <time>2026-07-08T08:23:29.000Z</time>
      </trkpt>
      <trkpt lat="47.35995" lon="16.01158">
        <ele>456.004776</ele>
        <time>2026-07-08T08:23:30.000Z</time>
      </trkpt>
      <trkpt lat="47.35993" lon="16.01157">
        <ele>456.105232</ele>
        <time>2026-07-08T08:23:31.000Z</time>
      </trkpt>
      <trkpt lat="47.35991" lon="16.01156">
        <ele>456.21018</ele>
        <time>2026-07-08T08:23:32.000Z</time>
      </trkpt>
      <trkpt lat="47.35988" lon="16.01155">
        <ele>456.320392</ele>
        <time>2026-07-08T08:23:33.000Z</time>
      </trkpt>
      <trkpt lat="47.35986" lon="16.01155">
        <ele>456.42534</ele>
        <time>2026-07-08T08:23:34.000Z</time>
      </trkpt>
      <trkpt lat="47.35984" lon="16.01154">
        <ele>456.534114</ele>
        <time>2026-07-08T08:23:35.000Z</time>
      </trkpt>
      <trkpt lat="47.35981" lon="16.01153">
        <ele>456.648078</ele>
        <time>2026-07-08T08:23:36.000Z</time>
      </trkpt>
      <trkpt lat="47.35979" lon="16.01152">
        <ele>456.747796</ele>
        <time>2026-07-08T08:23:37.000Z</time>
      </trkpt>
      <trkpt lat="47.35977" lon="16.01152">
        <ele>456.860063</ele>
        <time>2026-07-08T08:23:38.000Z</time>
      </trkpt>
      <trkpt lat="47.35975" lon="16.01151">
        <ele>456.968248</ele>
        <time>2026-07-08T08:23:39.000Z</time>
      </trkpt>
      <trkpt lat="47.35972" lon="16.01151">
        <ele>457.07593</ele>
        <time>2026-07-08T08:23:40.000Z</time>
      </trkpt>
      <trkpt lat="47.3597" lon="16.0115">
        <ele>457.180172</ele>
        <time>2026-07-08T08:23:41.000Z</time>
      </trkpt>
      <trkpt lat="47.35968" lon="16.01149">
        <ele>457.289623</ele>
        <time>2026-07-08T08:23:42.000Z</time>
      </trkpt>
      <trkpt lat="47.35966" lon="16.01149">
        <ele>457.393864</ele>
        <time>2026-07-08T08:23:43.000Z</time>
      </trkpt>
      <trkpt lat="47.35963" lon="16.01148">
        <ele>457.501547</ele>
        <time>2026-07-08T08:23:44.000Z</time>
      </trkpt>
      <trkpt lat="47.35961" lon="16.01148">
        <ele>457.604649</ele>
        <time>2026-07-08T08:23:45.000Z</time>
      </trkpt>
      <trkpt lat="47.35959" lon="16.01147">
        <ele>457.708891</ele>
        <time>2026-07-08T08:23:46.000Z</time>
      </trkpt>
      <trkpt lat="47.35957" lon="16.01146">
        <ele>457.809347</ele>
        <time>2026-07-08T08:23:47.000Z</time>
      </trkpt>
      <trkpt lat="47.35955" lon="16.01145">
        <ele>457.913589</ele>
        <time>2026-07-08T08:23:48.000Z</time>
      </trkpt>
      <trkpt lat="47.35952" lon="16.01145">
        <ele>458.017215</ele>
        <time>2026-07-08T08:23:49.000Z</time>
      </trkpt>
      <trkpt lat="47.3595" lon="16.01144">
        <ele>458.116934</ele>
        <time>2026-07-08T08:23:50.000Z</time>
      </trkpt>
      <trkpt lat="47.35948" lon="16.01143">
        <ele>458.221881</ele>
        <time>2026-07-08T08:23:51.000Z</time>
      </trkpt>
      <trkpt lat="47.35946" lon="16.01143">
        <ele>458.330655</ele>
        <time>2026-07-08T08:23:52.000Z</time>
      </trkpt>
      <trkpt lat="47.35944" lon="16.01142">
        <ele>458.434897</ele>
        <time>2026-07-08T08:23:53.000Z</time>
      </trkpt>
      <trkpt lat="47.35941" lon="16.01141">
        <ele>458.537999</ele>
        <time>2026-07-08T08:23:54.000Z</time>
      </trkpt>
      <trkpt lat="47.35939" lon="16.01141">
        <ele>458.646184</ele>
        <time>2026-07-08T08:23:55.000Z</time>
      </trkpt>
      <trkpt lat="47.35937" lon="16.0114">
        <ele>458.754958</ele>
        <time>2026-07-08T08:23:56.000Z</time>
      </trkpt>
      <trkpt lat="47.35934" lon="16.0114">
        <ele>458.867225</ele>
        <time>2026-07-08T08:23:57.000Z</time>
      </trkpt>
      <trkpt lat="47.35932" lon="16.01139">
        <ele>458.974907</ele>
        <time>2026-07-08T08:23:58.000Z</time>
      </trkpt>
      <trkpt lat="47.3593" lon="16.01138">
        <ele>459.092769</ele>
        <time>2026-07-08T08:23:59.000Z</time>
      </trkpt>
      <trkpt lat="47.35927" lon="16.01138">
        <ele>459.199718</ele>
        <time>2026-07-08T08:24:00.000Z</time>
      </trkpt>
      <trkpt lat="47.35925" lon="16.01138">
        <ele>459.316573</ele>
        <time>2026-07-08T08:24:01.000Z</time>
      </trkpt>
      <trkpt lat="47.35922" lon="16.01137">
        <ele>459.428136</ele>
        <time>2026-07-08T08:24:02.000Z</time>
      </trkpt>
      <trkpt lat="47.3592" lon="16.01137">
        <ele>459.535819</ele>
        <time>2026-07-08T08:24:03.000Z</time>
      </trkpt>
      <trkpt lat="47.35918" lon="16.01136">
        <ele>459.652674</ele>
        <time>2026-07-08T08:24:04.000Z</time>
      </trkpt>
      <trkpt lat="47.35915" lon="16.01136">
        <ele>459.761448</ele>
        <time>2026-07-08T08:24:05.000Z</time>
      </trkpt>
      <trkpt lat="47.35913" lon="16.01135">
        <ele>459.87931</ele>
        <time>2026-07-08T08:24:06.000Z</time>
      </trkpt>
      <trkpt lat="47.3591" lon="16.01134">
        <ele>459.991577</ele>
        <time>2026-07-08T08:24:07.000Z</time>
      </trkpt>
      <trkpt lat="47.35908" lon="16.01134">
        <ele>460.108432</ele>
        <time>2026-07-08T08:24:08.000Z</time>
      </trkpt>
      <trkpt lat="47.35905" lon="16.01133">
        <ele>460.225288</ele>
        <time>2026-07-08T08:24:09.000Z</time>
      </trkpt>
      <trkpt lat="47.35903" lon="16.01133">
        <ele>460.341467</ele>
        <time>2026-07-08T08:24:10.000Z</time>
      </trkpt>
      <trkpt lat="47.359" lon="16.01133">
        <ele>460.46206</ele>
        <time>2026-07-08T08:24:11.000Z</time>
      </trkpt>
      <trkpt lat="47.35898" lon="16.01133">
        <ele>460.58716</ele>
        <time>2026-07-08T08:24:12.000Z</time>
      </trkpt>
      <trkpt lat="47.35895" lon="16.01132">
        <ele>460.704015</ele>
        <time>2026-07-08T08:24:13.000Z</time>
      </trkpt>
      <trkpt lat="47.35893" lon="16.01132">
        <ele>460.820871</ele>
        <time>2026-07-08T08:24:14.000Z</time>
      </trkpt>
      <trkpt lat="47.3589" lon="16.01131">
        <ele>460.937726</ele>
        <time>2026-07-08T08:24:15.000Z</time>
      </trkpt>
      <trkpt lat="47.35888" lon="16.01131">
        <ele>461.054581</ele>
        <time>2026-07-08T08:24:16.000Z</time>
      </trkpt>
      <trkpt lat="47.35885" lon="16.0113">
        <ele>461.15497</ele>
        <time>2026-07-08T08:24:17.000Z</time>
      </trkpt>
      <trkpt lat="47.35883" lon="16.0113">
        <ele>461.249591</ele>
        <time>2026-07-08T08:24:18.000Z</time>
      </trkpt>
      <trkpt lat="47.3588" lon="16.01129">
        <ele>461.344212</ele>
        <time>2026-07-08T08:24:19.000Z</time>
      </trkpt>
      <trkpt lat="47.35877" lon="16.01129">
        <ele>461.445764</ele>
        <time>2026-07-08T08:24:20.000Z</time>
      </trkpt>
      <trkpt lat="47.35875" lon="16.01129">
        <ele>461.539838</ele>
        <time>2026-07-08T08:24:21.000Z</time>
      </trkpt>
      <trkpt lat="47.35872" lon="16.01128">
        <ele>461.635274</ele>
        <time>2026-07-08T08:24:22.000Z</time>
      </trkpt>
      <trkpt lat="47.3587" lon="16.01128">
        <ele>461.729039</ele>
        <time>2026-07-08T08:24:23.000Z</time>
      </trkpt>
      <trkpt lat="47.35867" lon="16.01128">
        <ele>461.822941</ele>
        <time>2026-07-08T08:24:24.000Z</time>
      </trkpt>
      <trkpt lat="47.35865" lon="16.01128">
        <ele>461.91674</ele>
        <time>2026-07-08T08:24:25.000Z</time>
      </trkpt>
      <trkpt lat="47.35862" lon="16.01128">
        <ele>462.014387</ele>
        <time>2026-07-08T08:24:26.000Z</time>
      </trkpt>
      <trkpt lat="47.3586" lon="16.01127">
        <ele>462.11578</ele>
        <time>2026-07-08T08:24:27.000Z</time>
      </trkpt>
      <trkpt lat="47.35857" lon="16.01127">
        <ele>462.217332</ele>
        <time>2026-07-08T08:24:28.000Z</time>
      </trkpt>
      <trkpt lat="47.35854" lon="16.01127">
        <ele>462.315145</ele>
        <time>2026-07-08T08:24:29.000Z</time>
      </trkpt>
      <trkpt lat="47.35852" lon="16.01126">
        <ele>462.417204</ele>
        <time>2026-07-08T08:24:30.000Z</time>
      </trkpt>
      <trkpt lat="47.35849" lon="16.01126">
        <ele>462.518978</ele>
        <time>2026-07-08T08:24:31.000Z</time>
      </trkpt>
      <trkpt lat="47.35846" lon="16.01125">
        <ele>462.62476</ele>
        <time>2026-07-08T08:24:32.000Z</time>
      </trkpt>
      <trkpt lat="47.35843" lon="16.01125">
        <ele>462.726058</ele>
        <time>2026-07-08T08:24:33.000Z</time>
      </trkpt>
      <trkpt lat="47.35841" lon="16.01125">
        <ele>462.831074</ele>
        <time>2026-07-08T08:24:34.000Z</time>
      </trkpt>
      <trkpt lat="47.35838" lon="16.01125">
        <ele>462.944049</ele>
        <time>2026-07-08T08:24:35.000Z</time>
      </trkpt>
      <trkpt lat="47.35835" lon="16.01125">
        <ele>463.049065</ele>
        <time>2026-07-08T08:24:36.000Z</time>
      </trkpt>
      <trkpt lat="47.35832" lon="16.01125">
        <ele>463.158099</ele>
        <time>2026-07-08T08:24:37.000Z</time>
      </trkpt>
      <trkpt lat="47.35829" lon="16.01124">
        <ele>463.263238</ele>
        <time>2026-07-08T08:24:38.000Z</time>
      </trkpt>
      <trkpt lat="47.35826" lon="16.01124">
        <ele>463.364504</ele>
        <time>2026-07-08T08:24:39.000Z</time>
      </trkpt>
      <trkpt lat="47.35824" lon="16.01124">
        <ele>463.469796</ele>
        <time>2026-07-08T08:24:40.000Z</time>
      </trkpt>
      <trkpt lat="47.35821" lon="16.01124">
        <ele>463.571856</ele>
        <time>2026-07-08T08:24:41.000Z</time>
      </trkpt>
      <trkpt lat="47.35818" lon="16.01123">
        <ele>463.676995</ele>
        <time>2026-07-08T08:24:42.000Z</time>
      </trkpt>
      <trkpt lat="47.35815" lon="16.01123">
        <ele>463.77826</ele>
        <time>2026-07-08T08:24:43.000Z</time>
      </trkpt>
      <trkpt lat="47.35813" lon="16.01123">
        <ele>463.883307</ele>
        <time>2026-07-08T08:24:44.000Z</time>
      </trkpt>
      <trkpt lat="47.3581" lon="16.01123">
        <ele>463.988814</ele>
        <time>2026-07-08T08:24:45.000Z</time>
      </trkpt>
      <trkpt lat="47.35807" lon="16.01123">
        <ele>464.09761</ele>
        <time>2026-07-08T08:24:46.000Z</time>
      </trkpt>
      <trkpt lat="47.35804" lon="16.01123">
        <ele>464.20275</ele>
        <time>2026-07-08T08:24:47.000Z</time>
      </trkpt>
      <trkpt lat="47.35801" lon="16.01122">
        <ele>464.307889</ele>
        <time>2026-07-08T08:24:48.000Z</time>
      </trkpt>
      <trkpt lat="47.35798" lon="16.01122">
        <ele>464.416685</ele>
        <time>2026-07-08T08:24:49.000Z</time>
      </trkpt>
      <trkpt lat="47.35796" lon="16.01122">
        <ele>464.5142</ele>
        <time>2026-07-08T08:24:50.000Z</time>
      </trkpt>
      <trkpt lat="47.35793" lon="16.01122">
        <ele>464.622967</ele>
        <time>2026-07-08T08:24:51.000Z</time>
      </trkpt>
      <trkpt lat="47.3579" lon="16.01122">
        <ele>464.728014</ele>
        <time>2026-07-08T08:24:52.000Z</time>
      </trkpt>
      <trkpt lat="47.35787" lon="16.01123">
        <ele>464.833521</ele>
        <time>2026-07-08T08:24:53.000Z</time>
      </trkpt>
      <trkpt lat="47.35785" lon="16.01123">
        <ele>464.934818</ele>
        <time>2026-07-08T08:24:54.000Z</time>
      </trkpt>
      <trkpt lat="47.35782" lon="16.01123">
        <ele>465.039834</ele>
        <time>2026-07-08T08:24:55.000Z</time>
      </trkpt>
      <trkpt lat="47.35779" lon="16.01123">
        <ele>465.1411</ele>
        <time>2026-07-08T08:24:56.000Z</time>
      </trkpt>
      <trkpt lat="47.35776" lon="16.01123">
        <ele>465.242366</ele>
        <time>2026-07-08T08:24:57.000Z</time>
      </trkpt>
      <trkpt lat="47.35774" lon="16.01123">
        <ele>465.340013</ele>
        <time>2026-07-08T08:24:58.000Z</time>
      </trkpt>
      <trkpt lat="47.35771" lon="16.01123">
        <ele>465.441406</ele>
        <time>2026-07-08T08:24:59.000Z</time>
      </trkpt>
      <trkpt lat="47.35768" lon="16.01123">
        <ele>465.546422</ele>
        <time>2026-07-08T08:25:00.000Z</time>
      </trkpt>
      <trkpt lat="47.35766" lon="16.01123">
        <ele>465.647815</ele>
        <time>2026-07-08T08:25:01.000Z</time>
      </trkpt>
      <trkpt lat="47.35763" lon="16.01123">
        <ele>465.752954</ele>
        <time>2026-07-08T08:25:02.000Z</time>
      </trkpt>
      <trkpt lat="47.3576" lon="16.01124">
        <ele>465.854506</ele>
        <time>2026-07-08T08:25:03.000Z</time>
      </trkpt>
      <trkpt lat="47.35757" lon="16.01124">
        <ele>465.959646</ele>
        <time>2026-07-08T08:25:04.000Z</time>
      </trkpt>
      <trkpt lat="47.35755" lon="16.01124">
        <ele>466.061198</ele>
        <time>2026-07-08T08:25:05.000Z</time>
      </trkpt>
      <trkpt lat="47.35752" lon="16.01124">
        <ele>466.166337</ele>
        <time>2026-07-08T08:25:06.000Z</time>
      </trkpt>
      <trkpt lat="47.35749" lon="16.01124">
        <ele>466.275103</ele>
        <time>2026-07-08T08:25:07.000Z</time>
      </trkpt>
      <trkpt lat="47.35746" lon="16.01124">
        <ele>466.38012</ele>
        <time>2026-07-08T08:25:08.000Z</time>
      </trkpt>
      <trkpt lat="47.35743" lon="16.01124">
        <ele>466.485136</ele>
        <time>2026-07-08T08:25:09.000Z</time>
      </trkpt>
      <trkpt lat="47.3574" lon="16.01124">
        <ele>466.597653</ele>
        <time>2026-07-08T08:25:10.000Z</time>
      </trkpt>
      <trkpt lat="47.35737" lon="16.01124">
        <ele>466.706539</ele>
        <time>2026-07-08T08:25:11.000Z</time>
      </trkpt>
      <trkpt lat="47.35735" lon="16.01124">
        <ele>466.811678</ele>
        <time>2026-07-08T08:25:12.000Z</time>
      </trkpt>
      <trkpt lat="47.35732" lon="16.01124">
        <ele>466.924224</ele>
        <time>2026-07-08T08:25:13.000Z</time>
      </trkpt>
      <trkpt lat="47.35729" lon="16.01124">
        <ele>467.03677</ele>
        <time>2026-07-08T08:25:14.000Z</time>
      </trkpt>
      <trkpt lat="47.35725" lon="16.01124">
        <ele>467.157218</ele>
        <time>2026-07-08T08:25:15.000Z</time>
      </trkpt>
      <trkpt lat="47.35722" lon="16.01124">
        <ele>467.269764</ele>
        <time>2026-07-08T08:25:16.000Z</time>
      </trkpt>
      <trkpt lat="47.35719" lon="16.01124">
        <ele>467.386032</ele>
        <time>2026-07-08T08:25:17.000Z</time>
      </trkpt>
      <trkpt lat="47.35716" lon="16.01124">
        <ele>467.50605</ele>
        <time>2026-07-08T08:25:18.000Z</time>
      </trkpt>
      <trkpt lat="47.35713" lon="16.01124">
        <ele>467.626069</ele>
        <time>2026-07-08T08:25:19.000Z</time>
      </trkpt>
      <trkpt lat="47.3571" lon="16.01124">
        <ele>467.738586</ele>
        <time>2026-07-08T08:25:20.000Z</time>
      </trkpt>
      <trkpt lat="47.35707" lon="16.01124">
        <ele>467.848039</ele>
        <time>2026-07-08T08:25:21.000Z</time>
      </trkpt>
      <trkpt lat="47.35704" lon="16.01125">
        <ele>467.931824</ele>
        <time>2026-07-08T08:25:22.000Z</time>
      </trkpt>
      <trkpt lat="47.357" lon="16.01125">
        <ele>468.015328</ele>
        <time>2026-07-08T08:25:23.000Z</time>
      </trkpt>
      <trkpt lat="47.35697" lon="16.01125">
        <ele>468.101495</ele>
        <time>2026-07-08T08:25:24.000Z</time>
      </trkpt>
      <trkpt lat="47.35694" lon="16.01125">
        <ele>468.187752</ele>
        <time>2026-07-08T08:25:25.000Z</time>
      </trkpt>
      <trkpt lat="47.35691" lon="16.01125">
        <ele>468.271313</ele>
        <time>2026-07-08T08:25:26.000Z</time>
      </trkpt>
      <trkpt lat="47.35687" lon="16.01124">
        <ele>468.362779</ele>
        <time>2026-07-08T08:25:27.000Z</time>
      </trkpt>
      <trkpt lat="47.35684" lon="16.01124">
        <ele>468.449163</ele>
        <time>2026-07-08T08:25:28.000Z</time>
      </trkpt>
      <trkpt lat="47.3568" lon="16.01124">
        <ele>468.538025</ele>
        <time>2026-07-08T08:25:29.000Z</time>
      </trkpt>
      <trkpt lat="47.35677" lon="16.01123">
        <ele>468.629406</ele>
        <time>2026-07-08T08:25:30.000Z</time>
      </trkpt>
      <trkpt lat="47.35673" lon="16.01123">
        <ele>468.720718</ele>
        <time>2026-07-08T08:25:31.000Z</time>
      </trkpt>
      <trkpt lat="47.3567" lon="16.01124">
        <ele>468.807102</ele>
        <time>2026-07-08T08:25:32.000Z</time>
      </trkpt>
      <trkpt lat="47.35667" lon="16.01124">
        <ele>468.898415</ele>
        <time>2026-07-08T08:25:33.000Z</time>
      </trkpt>
      <trkpt lat="47.35663" lon="16.01124">
        <ele>468.989795</ele>
        <time>2026-07-08T08:25:34.000Z</time>
      </trkpt>
      <trkpt lat="47.35659" lon="16.01123">
        <ele>469.086471</ele>
        <time>2026-07-08T08:25:35.000Z</time>
      </trkpt>
      <trkpt lat="47.35656" lon="16.01123">
        <ele>469.180658</ele>
        <time>2026-07-08T08:25:36.000Z</time>
      </trkpt>
      <trkpt lat="47.35652" lon="16.01123">
        <ele>469.277205</ele>
        <time>2026-07-08T08:25:37.000Z</time>
      </trkpt>
      <trkpt lat="47.35648" lon="16.01123">
        <ele>469.373735</ele>
        <time>2026-07-08T08:25:38.000Z</time>
      </trkpt>
      <trkpt lat="47.35645" lon="16.01123">
        <ele>469.467723</ele>
        <time>2026-07-08T08:25:39.000Z</time>
      </trkpt>
      <trkpt lat="47.35641" lon="16.01122">
        <ele>469.564398</ele>
        <time>2026-07-08T08:25:40.000Z</time>
      </trkpt>
      <trkpt lat="47.35637" lon="16.01122">
        <ele>469.6636</ele>
        <time>2026-07-08T08:25:41.000Z</time>
      </trkpt>
      <trkpt lat="47.35634" lon="16.01122">
        <ele>469.760276</ele>
        <time>2026-07-08T08:25:42.000Z</time>
      </trkpt>
      <trkpt lat="47.3563" lon="16.01122">
        <ele>469.859478</ele>
        <time>2026-07-08T08:25:43.000Z</time>
      </trkpt>
      <trkpt lat="47.35626" lon="16.01121">
        <ele>469.961364</ele>
        <time>2026-07-08T08:25:44.000Z</time>
      </trkpt>
      <trkpt lat="47.35622" lon="16.01121">
        <ele>470.060896</ele>
        <time>2026-07-08T08:25:45.000Z</time>
      </trkpt>
      <trkpt lat="47.35618" lon="16.0112">
        <ele>470.160287</ele>
        <time>2026-07-08T08:25:46.000Z</time>
      </trkpt>
      <trkpt lat="47.35614" lon="16.0112">
        <ele>470.264779</ele>
        <time>2026-07-08T08:25:47.000Z</time>
      </trkpt>
      <trkpt lat="47.3561" lon="16.0112">
        <ele>470.374482</ele>
        <time>2026-07-08T08:25:48.000Z</time>
      </trkpt>
      <trkpt lat="47.35606" lon="16.0112">
        <ele>470.484114</ele>
        <time>2026-07-08T08:25:49.000Z</time>
      </trkpt>
      <trkpt lat="47.35602" lon="16.01119">
        <ele>470.588844</ele>
        <time>2026-07-08T08:25:50.000Z</time>
      </trkpt>
      <trkpt lat="47.35598" lon="16.01119">
        <ele>470.695941</ele>
        <time>2026-07-08T08:25:51.000Z</time>
      </trkpt>
      <trkpt lat="47.35594" lon="16.01119">
        <ele>470.800298</ele>
        <time>2026-07-08T08:25:52.000Z</time>
      </trkpt>
      <trkpt lat="47.3559" lon="16.01119">
        <ele>470.904655</ele>
        <time>2026-07-08T08:25:53.000Z</time>
      </trkpt>
      <trkpt lat="47.35586" lon="16.01119">
        <ele>471.014244</ele>
        <time>2026-07-08T08:25:54.000Z</time>
      </trkpt>
      <trkpt lat="47.35581" lon="16.01119">
        <ele>471.123819</ele>
        <time>2026-07-08T08:25:55.000Z</time>
      </trkpt>
      <trkpt lat="47.35577" lon="16.01119">
        <ele>471.228191</ele>
        <time>2026-07-08T08:25:56.000Z</time>
      </trkpt>
      <trkpt lat="47.35574" lon="16.01118">
        <ele>471.327723</ele>
        <time>2026-07-08T08:25:57.000Z</time>
      </trkpt>
      <trkpt lat="47.3557" lon="16.01118">
        <ele>471.43214</ele>
        <time>2026-07-08T08:25:58.000Z</time>
      </trkpt>
      <trkpt lat="47.35566" lon="16.01118">
        <ele>471.536497</ele>
        <time>2026-07-08T08:25:59.000Z</time>
      </trkpt>
      <trkpt lat="47.35562" lon="16.01118">
        <ele>471.640989</ele>
        <time>2026-07-08T08:26:00.000Z</time>
      </trkpt>
      <trkpt lat="47.35558" lon="16.01119">
        <ele>471.745406</ele>
        <time>2026-07-08T08:26:01.000Z</time>
      </trkpt>
      <trkpt lat="47.35554" lon="16.01119">
        <ele>471.844686</ele>
        <time>2026-07-08T08:26:02.000Z</time>
      </trkpt>
      <trkpt lat="47.3555" lon="16.01119">
        <ele>471.941475</ele>
        <time>2026-07-08T08:26:03.000Z</time>
      </trkpt>
      <trkpt lat="47.35546" lon="16.0112">
        <ele>472.038586</ele>
        <time>2026-07-08T08:26:04.000Z</time>
      </trkpt>
      <trkpt lat="47.35543" lon="16.01121">
        <ele>472.133319</ele>
        <time>2026-07-08T08:26:05.000Z</time>
      </trkpt>
      <trkpt lat="47.35539" lon="16.01121">
        <ele>472.2247</ele>
        <time>2026-07-08T08:26:06.000Z</time>
      </trkpt>
      <trkpt lat="47.35536" lon="16.01121">
        <ele>472.313842</ele>
        <time>2026-07-08T08:26:07.000Z</time>
      </trkpt>
      <trkpt lat="47.35533" lon="16.01121">
        <ele>472.394738</ele>
        <time>2026-07-08T08:26:08.000Z</time>
      </trkpt>
      <trkpt lat="47.3553" lon="16.01122">
        <ele>472.479725</ele>
        <time>2026-07-08T08:26:09.000Z</time>
      </trkpt>
      <trkpt lat="47.35526" lon="16.01123">
        <ele>472.599834</ele>
        <time>2026-07-08T08:26:10.000Z</time>
      </trkpt>
      <trkpt lat="47.35523" lon="16.01123">
        <ele>472.750606</ele>
        <time>2026-07-08T08:26:11.000Z</time>
      </trkpt>
      <trkpt lat="47.3552" lon="16.01123">
        <ele>472.901378</ele>
        <time>2026-07-08T08:26:12.000Z</time>
      </trkpt>
      <trkpt lat="47.35517" lon="16.01124">
        <ele>473.053372</ele>
        <time>2026-07-08T08:26:13.000Z</time>
      </trkpt>
      <trkpt lat="47.35515" lon="16.01124">
        <ele>473.194974</ele>
        <time>2026-07-08T08:26:14.000Z</time>
      </trkpt>
      <trkpt lat="47.35512" lon="16.01125">
        <ele>473.346549</ele>
        <time>2026-07-08T08:26:15.000Z</time>
      </trkpt>
      <trkpt lat="47.35509" lon="16.01126">
        <ele>473.484181</ele>
        <time>2026-07-08T08:26:16.000Z</time>
      </trkpt>
      <trkpt lat="47.35506" lon="16.01126">
        <ele>473.612611</ele>
        <time>2026-07-08T08:26:17.000Z</time>
      </trkpt>
      <trkpt lat="47.35504" lon="16.01127">
        <ele>473.730514</ele>
        <time>2026-07-08T08:26:18.000Z</time>
      </trkpt>
      <trkpt lat="47.35502" lon="16.01128">
        <ele>473.842269</ele>
        <time>2026-07-08T08:26:19.000Z</time>
      </trkpt>
      <trkpt lat="47.355" lon="16.01128">
        <ele>473.947921</ele>
        <time>2026-07-08T08:26:20.000Z</time>
      </trkpt>
      <trkpt lat="47.35498" lon="16.01128">
        <ele>474.048563</ele>
        <time>2026-07-08T08:26:21.000Z</time>
      </trkpt>
      <trkpt lat="47.35496" lon="16.01128">
        <ele>474.144499</ele>
        <time>2026-07-08T08:26:22.000Z</time>
      </trkpt>
      <trkpt lat="47.35494" lon="16.01128">
        <ele>474.235126</ele>
        <time>2026-07-08T08:26:23.000Z</time>
      </trkpt>
      <trkpt lat="47.35492" lon="16.01128">
        <ele>474.326071</ele>
        <time>2026-07-08T08:26:24.000Z</time>
      </trkpt>
      <trkpt lat="47.3549" lon="16.01129">
        <ele>474.421705</ele>
        <time>2026-07-08T08:26:25.000Z</time>
      </trkpt>
      <trkpt lat="47.35489" lon="16.01129">
        <ele>474.502322</ele>
        <time>2026-07-08T08:26:26.000Z</time>
      </trkpt>
      <trkpt lat="47.35487" lon="16.01129">
        <ele>474.58935</ele>
        <time>2026-07-08T08:26:27.000Z</time>
      </trkpt>
      <trkpt lat="47.35485" lon="16.0113">
        <ele>474.676378</ele>
        <time>2026-07-08T08:26:28.000Z</time>
      </trkpt>
      <trkpt lat="47.35484" lon="16.0113">
        <ele>474.757353</ele>
        <time>2026-07-08T08:26:29.000Z</time>
      </trkpt>
      <trkpt lat="47.35482" lon="16.0113">
        <ele>474.853289</ele>
        <time>2026-07-08T08:26:30.000Z</time>
      </trkpt>
      <trkpt lat="47.3548" lon="16.01131">
        <ele>474.945246</ele>
        <time>2026-07-08T08:26:31.000Z</time>
      </trkpt>
      <trkpt lat="47.35478" lon="16.01131">
        <ele>475.036636</ele>
        <time>2026-07-08T08:26:32.000Z</time>
      </trkpt>
      <trkpt lat="47.35477" lon="16.01132">
        <ele>475.122594</ele>
        <time>2026-07-08T08:26:33.000Z</time>
      </trkpt>
      <trkpt lat="47.35475" lon="16.01132">
        <ele>475.223523</ele>
        <time>2026-07-08T08:26:34.000Z</time>
      </trkpt>
      <trkpt lat="47.35473" lon="16.01132">
        <ele>475.309951</ele>
        <time>2026-07-08T08:26:35.000Z</time>
      </trkpt>
      <trkpt lat="47.35471" lon="16.01132">
        <ele>475.400386</ele>
        <time>2026-07-08T08:26:36.000Z</time>
      </trkpt>
      <trkpt lat="47.35469" lon="16.01133">
        <ele>475.491013</ele>
        <time>2026-07-08T08:26:37.000Z</time>
      </trkpt>
      <trkpt lat="47.35467" lon="16.01133">
        <ele>475.586646</ele>
        <time>2026-07-08T08:26:38.000Z</time>
      </trkpt>
      <trkpt lat="47.35466" lon="16.01133">
        <ele>475.677081</ele>
        <time>2026-07-08T08:26:39.000Z</time>
      </trkpt>
      <trkpt lat="47.35464" lon="16.01133">
        <ele>475.767452</ele>
        <time>2026-07-08T08:26:40.000Z</time>
      </trkpt>
      <trkpt lat="47.35462" lon="16.01133">
        <ele>475.863809</ele>
        <time>2026-07-08T08:26:41.000Z</time>
      </trkpt>
      <trkpt lat="47.3546" lon="16.01134">
        <ele>475.954754</ele>
        <time>2026-07-08T08:26:42.000Z</time>
      </trkpt>
      <trkpt lat="47.35458" lon="16.01134">
        <ele>476.045699</ele>
        <time>2026-07-08T08:26:43.000Z</time>
      </trkpt>
      <trkpt lat="47.35456" lon="16.01134">
        <ele>476.147029</ele>
        <time>2026-07-08T08:26:44.000Z</time>
      </trkpt>
      <trkpt lat="47.35454" lon="16.01134">
        <ele>476.242421</ele>
        <time>2026-07-08T08:26:45.000Z</time>
      </trkpt>
      <trkpt lat="47.35453" lon="16.01135">
        <ele>476.333366</ele>
        <time>2026-07-08T08:26:46.000Z</time>
      </trkpt>
      <trkpt lat="47.35451" lon="16.01135">
        <ele>476.434295</ele>
        <time>2026-07-08T08:26:47.000Z</time>
      </trkpt>
      <trkpt lat="47.35449" lon="16.01135">
        <ele>476.534937</ele>
        <time>2026-07-08T08:26:48.000Z</time>
      </trkpt>
      <trkpt lat="47.35446" lon="16.01135">
        <ele>476.6456</ele>
        <time>2026-07-08T08:26:49.000Z</time>
      </trkpt>
      <trkpt lat="47.35445" lon="16.01135">
        <ele>476.736035</ele>
        <time>2026-07-08T08:26:50.000Z</time>
      </trkpt>
      <trkpt lat="47.35443" lon="16.01136">
        <ele>476.837365</ele>
        <time>2026-07-08T08:26:51.000Z</time>
      </trkpt>
      <trkpt lat="47.35441" lon="16.01136">
        <ele>476.938294</ele>
        <time>2026-07-08T08:26:52.000Z</time>
      </trkpt>
      <trkpt lat="47.35439" lon="16.01136">
        <ele>477.039223</ele>
        <time>2026-07-08T08:26:53.000Z</time>
      </trkpt>
      <trkpt lat="47.35436" lon="16.01137">
        <ele>477.150511</ele>
        <time>2026-07-08T08:26:54.000Z</time>
      </trkpt>
      <trkpt lat="47.35434" lon="16.01137">
        <ele>477.250924</ele>
        <time>2026-07-08T08:26:55.000Z</time>
      </trkpt>
      <trkpt lat="47.35432" lon="16.01137">
        <ele>477.366448</ele>
        <time>2026-07-08T08:26:56.000Z</time>
      </trkpt>
      <trkpt lat="47.3543" lon="16.01137">
        <ele>477.476901</ele>
        <time>2026-07-08T08:26:57.000Z</time>
      </trkpt>
      <trkpt lat="47.35428" lon="16.01137">
        <ele>477.592425</ele>
        <time>2026-07-08T08:26:58.000Z</time>
      </trkpt>
      <trkpt lat="47.35425" lon="16.01137">
        <ele>477.703088</ele>
        <time>2026-07-08T08:26:59.000Z</time>
      </trkpt>
      <trkpt lat="47.35423" lon="16.01137">
        <ele>477.818562</ele>
        <time>2026-07-08T08:27:00.000Z</time>
      </trkpt>
      <trkpt lat="47.35421" lon="16.01137">
        <ele>477.944261</ele>
        <time>2026-07-08T08:27:01.000Z</time>
      </trkpt>
      <trkpt lat="47.35418" lon="16.01137">
        <ele>478.070923</ele>
        <time>2026-07-08T08:27:02.000Z</time>
      </trkpt>
      <trkpt lat="47.35416" lon="16.01137">
        <ele>478.196485</ele>
        <time>2026-07-08T08:27:03.000Z</time>
      </trkpt>
      <trkpt lat="47.35413" lon="16.01137">
        <ele>478.322</ele>
        <time>2026-07-08T08:27:04.000Z</time>
      </trkpt>
      <trkpt lat="47.35411" lon="16.01137">
        <ele>478.437524</ele>
        <time>2026-07-08T08:27:05.000Z</time>
      </trkpt>
      <trkpt lat="47.35408" lon="16.01137">
        <ele>478.563039</ele>
        <time>2026-07-08T08:27:06.000Z</time>
      </trkpt>
      <trkpt lat="47.35406" lon="16.01137">
        <ele>478.698766</ele>
        <time>2026-07-08T08:27:07.000Z</time>
      </trkpt>
      <trkpt lat="47.35403" lon="16.01137">
        <ele>478.824466</ele>
        <time>2026-07-08T08:27:08.000Z</time>
      </trkpt>
      <trkpt lat="47.354" lon="16.01137">
        <ele>478.960022</ele>
        <time>2026-07-08T08:27:09.000Z</time>
      </trkpt>
      <trkpt lat="47.35398" lon="16.01137">
        <ele>479.090735</ele>
        <time>2026-07-08T08:27:10.000Z</time>
      </trkpt>
      <trkpt lat="47.35395" lon="16.01137">
        <ele>479.236491</ele>
        <time>2026-07-08T08:27:11.000Z</time>
      </trkpt>
      <trkpt lat="47.35392" lon="16.01137">
        <ele>479.377069</ele>
        <time>2026-07-08T08:27:12.000Z</time>
      </trkpt>
      <trkpt lat="47.35389" lon="16.01137">
        <ele>479.517646</ele>
        <time>2026-07-08T08:27:13.000Z</time>
      </trkpt>
      <trkpt lat="47.35386" lon="16.01137">
        <ele>479.663243</ele>
        <time>2026-07-08T08:27:14.000Z</time>
      </trkpt>
      <trkpt lat="47.35383" lon="16.01137">
        <ele>479.813861</ele>
        <time>2026-07-08T08:27:15.000Z</time>
      </trkpt>
      <trkpt lat="47.3538" lon="16.01137">
        <ele>479.964633</ele>
        <time>2026-07-08T08:27:16.000Z</time>
      </trkpt>
      <trkpt lat="47.35377" lon="16.01137">
        <ele>480.115405</ele>
        <time>2026-07-08T08:27:17.000Z</time>
      </trkpt>
      <trkpt lat="47.35375" lon="16.01136">
        <ele>480.257007</ele>
        <time>2026-07-08T08:27:18.000Z</time>
      </trkpt>
      <trkpt lat="47.35372" lon="16.01136">
        <ele>480.399058</ele>
        <time>2026-07-08T08:27:19.000Z</time>
      </trkpt>
      <trkpt lat="47.35369" lon="16.01135">
        <ele>480.550289</ele>
        <time>2026-07-08T08:27:20.000Z</time>
      </trkpt>
      <trkpt lat="47.35366" lon="16.01135">
        <ele>480.701865</ele>
        <time>2026-07-08T08:27:21.000Z</time>
      </trkpt>
      <trkpt lat="47.35363" lon="16.01135">
        <ele>480.862848</ele>
        <time>2026-07-08T08:27:22.000Z</time>
      </trkpt>
      <trkpt lat="47.3536" lon="16.01134">
        <ele>481.01362</ele>
        <time>2026-07-08T08:27:23.000Z</time>
      </trkpt>
      <trkpt lat="47.35356" lon="16.01134">
        <ele>481.174279</ele>
        <time>2026-07-08T08:27:24.000Z</time>
      </trkpt>
      <trkpt lat="47.35353" lon="16.01134">
        <ele>481.325243</ele>
        <time>2026-07-08T08:27:25.000Z</time>
      </trkpt>
      <trkpt lat="47.3535" lon="16.01133">
        <ele>481.477731</ele>
        <time>2026-07-08T08:27:26.000Z</time>
      </trkpt>
      <trkpt lat="47.35347" lon="16.01133">
        <ele>481.579125</ele>
        <time>2026-07-08T08:27:27.000Z</time>
      </trkpt>
      <trkpt lat="47.35344" lon="16.01132">
        <ele>481.624916</ele>
        <time>2026-07-08T08:27:28.000Z</time>
      </trkpt>
      <trkpt lat="47.35341" lon="16.01131">
        <ele>481.673848</ele>
        <time>2026-07-08T08:27:29.000Z</time>
      </trkpt>
      <trkpt lat="47.35338" lon="16.01131">
        <ele>481.719639</ele>
        <time>2026-07-08T08:27:30.000Z</time>
      </trkpt>
      <trkpt lat="47.35335" lon="16.0113">
        <ele>481.768571</ele>
        <time>2026-07-08T08:27:31.000Z</time>
      </trkpt>
      <trkpt lat="47.35332" lon="16.01129">
        <ele>481.814088</ele>
        <time>2026-07-08T08:27:32.000Z</time>
      </trkpt>
      <trkpt lat="47.35329" lon="16.01129">
        <ele>481.859879</ele>
        <time>2026-07-08T08:27:33.000Z</time>
      </trkpt>
      <trkpt lat="47.35326" lon="16.01128">
        <ele>481.90716</ele>
        <time>2026-07-08T08:27:34.000Z</time>
      </trkpt>
      <trkpt lat="47.35323" lon="16.01127">
        <ele>481.956092</ele>
        <time>2026-07-08T08:27:35.000Z</time>
      </trkpt>
      <trkpt lat="47.35319" lon="16.01126">
        <ele>482.005407</ele>
        <time>2026-07-08T08:27:36.000Z</time>
      </trkpt>
      <trkpt lat="47.35316" lon="16.01125">
        <ele>482.051198</ele>
        <time>2026-07-08T08:27:37.000Z</time>
      </trkpt>
      <trkpt lat="47.35313" lon="16.01125">
        <ele>482.096715</ele>
        <time>2026-07-08T08:27:38.000Z</time>
      </trkpt>
      <trkpt lat="47.3531" lon="16.01124">
        <ele>482.144161</ele>
        <time>2026-07-08T08:27:39.000Z</time>
      </trkpt>
      <trkpt lat="47.35307" lon="16.01123">
        <ele>482.193093</ele>
        <time>2026-07-08T08:27:40.000Z</time>
      </trkpt>
      <trkpt lat="47.35304" lon="16.01122">
        <ele>482.239461</ele>
        <time>2026-07-08T08:27:41.000Z</time>
      </trkpt>
      <trkpt lat="47.35301" lon="16.01121">
        <ele>482.288776</ele>
        <time>2026-07-08T08:27:42.000Z</time>
      </trkpt>
      <trkpt lat="47.35298" lon="16.0112">
        <ele>482.336616</ele>
        <time>2026-07-08T08:27:43.000Z</time>
      </trkpt>
      <trkpt lat="47.35295" lon="16.01119">
        <ele>482.383477</ele>
        <time>2026-07-08T08:27:44.000Z</time>
      </trkpt>
      <trkpt lat="47.35292" lon="16.01118">
        <ele>482.432791</ele>
        <time>2026-07-08T08:27:45.000Z</time>
      </trkpt>
      <trkpt lat="47.35289" lon="16.01117">
        <ele>482.479929</ele>
        <time>2026-07-08T08:27:46.000Z</time>
      </trkpt>
      <trkpt lat="47.35286" lon="16.01115">
        <ele>482.527366</ele>
        <time>2026-07-08T08:27:47.000Z</time>
      </trkpt>
      <trkpt lat="47.35283" lon="16.01114">
        <ele>482.57512</ele>
        <time>2026-07-08T08:27:48.000Z</time>
      </trkpt>
      <trkpt lat="47.35279" lon="16.01112">
        <ele>482.625739</ele>
        <time>2026-07-08T08:27:49.000Z</time>
      </trkpt>
      <trkpt lat="47.35276" lon="16.01111">
        <ele>482.675251</ele>
        <time>2026-07-08T08:27:50.000Z</time>
      </trkpt>
      <trkpt lat="47.35273" lon="16.01109">
        <ele>482.729372</ele>
        <time>2026-07-08T08:27:51.000Z</time>
      </trkpt>
      <trkpt lat="47.35269" lon="16.01107">
        <ele>482.785251</ele>
        <time>2026-07-08T08:27:52.000Z</time>
      </trkpt>
      <trkpt lat="47.35266" lon="16.01105">
        <ele>482.838655</ele>
        <time>2026-07-08T08:27:53.000Z</time>
      </trkpt>
      <trkpt lat="47.35263" lon="16.01104">
        <ele>482.894534</ele>
        <time>2026-07-08T08:27:54.000Z</time>
      </trkpt>
      <trkpt lat="47.35259" lon="16.01102">
        <ele>482.951118</ele>
        <time>2026-07-08T08:27:55.000Z</time>
      </trkpt>
      <trkpt lat="47.35256" lon="16.011">
        <ele>483.006997</ele>
        <time>2026-07-08T08:27:56.000Z</time>
      </trkpt>
      <trkpt lat="47.35252" lon="16.01098">
        <ele>483.063581</ele>
        <time>2026-07-08T08:27:57.000Z</time>
      </trkpt>
      <trkpt lat="47.35249" lon="16.01096">
        <ele>483.116985</ele>
        <time>2026-07-08T08:27:58.000Z</time>
      </trkpt>
      <trkpt lat="47.35245" lon="16.01094">
        <ele>483.173945</ele>
        <time>2026-07-08T08:27:59.000Z</time>
      </trkpt>
      <trkpt lat="47.35242" lon="16.01092">
        <ele>483.228756</ele>
        <time>2026-07-08T08:28:00.000Z</time>
      </trkpt>
      <trkpt lat="47.35238" lon="16.0109">
        <ele>483.285717</ele>
        <time>2026-07-08T08:28:01.000Z</time>
      </trkpt>
      <trkpt lat="47.35235" lon="16.01088">
        <ele>483.340309</ele>
        <time>2026-07-08T08:28:02.000Z</time>
      </trkpt>
      <trkpt lat="47.35232" lon="16.01085">
        <ele>483.39807</ele>
        <time>2026-07-08T08:28:03.000Z</time>
      </trkpt>
      <trkpt lat="47.35228" lon="16.01083">
        <ele>483.456692</ele>
        <time>2026-07-08T08:28:04.000Z</time>
      </trkpt>
      <trkpt lat="47.35225" lon="16.0108">
        <ele>483.512156</ele>
        <time>2026-07-08T08:28:05.000Z</time>
      </trkpt>
      <trkpt lat="47.35221" lon="16.01078">
        <ele>483.569917</ele>
        <time>2026-07-08T08:28:06.000Z</time>
      </trkpt>
      <trkpt lat="47.35218" lon="16.01076">
        <ele>483.627678</ele>
        <time>2026-07-08T08:28:07.000Z</time>
      </trkpt>
      <trkpt lat="47.35214" lon="16.01073">
        <ele>483.689028</ele>
        <time>2026-07-08T08:28:08.000Z</time>
      </trkpt>
      <trkpt lat="47.35211" lon="16.01071">
        <ele>483.748568</ele>
        <time>2026-07-08T08:28:09.000Z</time>
      </trkpt>
      <trkpt lat="47.35207" lon="16.01068">
        <ele>483.812213</ele>
        <time>2026-07-08T08:28:10.000Z</time>
      </trkpt>
      <trkpt lat="47.35203" lon="16.01065">
        <ele>483.874541</ele>
        <time>2026-07-08T08:28:11.000Z</time>
      </trkpt>
      <trkpt lat="47.352" lon="16.01062">
        <ele>483.938187</ele>
        <time>2026-07-08T08:28:12.000Z</time>
      </trkpt>
      <trkpt lat="47.35196" lon="16.01059">
        <ele>484.004931</ele>
        <time>2026-07-08T08:28:13.000Z</time>
      </trkpt>
      <trkpt lat="47.35192" lon="16.01056">
        <ele>484.07089</ele>
        <time>2026-07-08T08:28:14.000Z</time>
      </trkpt>
      <trkpt lat="47.35188" lon="16.01052">
        <ele>484.139484</ele>
        <time>2026-07-08T08:28:15.000Z</time>
      </trkpt>
      <trkpt lat="47.35184" lon="16.01049">
        <ele>484.20959</ele>
        <time>2026-07-08T08:28:16.000Z</time>
      </trkpt>
      <trkpt lat="47.3518" lon="16.01045">
        <ele>484.239807</ele>
        <time>2026-07-08T08:28:17.000Z</time>
      </trkpt>
      <trkpt lat="47.35176" lon="16.01042">
        <ele>484.084035</ele>
        <time>2026-07-08T08:28:18.000Z</time>
      </trkpt>
      <trkpt lat="47.35171" lon="16.01038">
        <ele>483.928263</ele>
        <time>2026-07-08T08:28:19.000Z</time>
      </trkpt>
      <trkpt lat="47.35167" lon="16.01035">
        <ele>483.774631</ele>
        <time>2026-07-08T08:28:20.000Z</time>
      </trkpt>
      <trkpt lat="47.35163" lon="16.0103">
        <ele>483.616092</ele>
        <time>2026-07-08T08:28:21.000Z</time>
      </trkpt>
      <trkpt lat="47.35159" lon="16.01026">
        <ele>483.453652</ele>
        <time>2026-07-08T08:28:22.000Z</time>
      </trkpt>
      <trkpt lat="47.35155" lon="16.01022">
        <ele>483.28442</ele>
        <time>2026-07-08T08:28:23.000Z</time>
      </trkpt>
      <trkpt lat="47.35151" lon="16.01017">
        <ele>483.121987</ele>
        <time>2026-07-08T08:28:24.000Z</time>
      </trkpt>
      <trkpt lat="47.35146" lon="16.01013">
        <ele>482.951193</ele>
        <time>2026-07-08T08:28:25.000Z</time>
      </trkpt>
      <trkpt lat="47.35142" lon="16.01009">
        <ele>482.779864</ele>
        <time>2026-07-08T08:28:26.000Z</time>
      </trkpt>
      <trkpt lat="47.35137" lon="16.01005">
        <ele>482.599019</ele>
        <time>2026-07-08T08:28:27.000Z</time>
      </trkpt>
      <trkpt lat="47.35132" lon="16.01001">
        <ele>482.419908</ele>
        <time>2026-07-08T08:28:28.000Z</time>
      </trkpt>
      <trkpt lat="47.35127" lon="16.00997">
        <ele>482.227657</ele>
        <time>2026-07-08T08:28:29.000Z</time>
      </trkpt>
      <trkpt lat="47.35121" lon="16.00993">
        <ele>482.033496</ele>
        <time>2026-07-08T08:28:30.000Z</time>
      </trkpt>
      <trkpt lat="47.35116" lon="16.0099">
        <ele>481.845069</ele>
        <time>2026-07-08T08:28:31.000Z</time>
      </trkpt>
      <trkpt lat="47.3511" lon="16.00987">
        <ele>481.65173</ele>
        <time>2026-07-08T08:28:32.000Z</time>
      </trkpt>
      <trkpt lat="47.35104" lon="16.00985">
        <ele>481.45206</ele>
        <time>2026-07-08T08:28:33.000Z</time>
      </trkpt>
      <trkpt lat="47.35098" lon="16.00983">
        <ele>481.237619</ele>
        <time>2026-07-08T08:28:34.000Z</time>
      </trkpt>
      <trkpt lat="47.35091" lon="16.00981">
        <ele>481.020014</ele>
        <time>2026-07-08T08:28:35.000Z</time>
      </trkpt>
      <trkpt lat="47.35084" lon="16.00979">
        <ele>480.791243</ele>
        <time>2026-07-08T08:28:36.000Z</time>
      </trkpt>
      <trkpt lat="47.35077" lon="16.00978">
        <ele>480.551248</ele>
        <time>2026-07-08T08:28:37.000Z</time>
      </trkpt>
      <trkpt lat="47.35069" lon="16.00978">
        <ele>480.298868</ele>
        <time>2026-07-08T08:28:38.000Z</time>
      </trkpt>
      <trkpt lat="47.35061" lon="16.00976">
        <ele>480.032737</ele>
        <time>2026-07-08T08:28:39.000Z</time>
      </trkpt>
      <trkpt lat="47.35052" lon="16.00975">
        <ele>479.757162</ele>
        <time>2026-07-08T08:28:40.000Z</time>
      </trkpt>
      <trkpt lat="47.35043" lon="16.00974">
        <ele>479.464644</ele>
        <time>2026-07-08T08:28:41.000Z</time>
      </trkpt>
      <trkpt lat="47.35034" lon="16.00972">
        <ele>479.170698</ele>
        <time>2026-07-08T08:28:42.000Z</time>
      </trkpt>
      <trkpt lat="47.35026" lon="16.0097">
        <ele>478.883138</ele>
        <time>2026-07-08T08:28:43.000Z</time>
      </trkpt>
      <trkpt lat="47.35017" lon="16.00968">
        <ele>478.595577</ele>
        <time>2026-07-08T08:28:44.000Z</time>
      </trkpt>
      <trkpt lat="47.35008" lon="16.00965">
        <ele>478.036958</ele>
        <time>2026-07-08T08:28:45.000Z</time>
      </trkpt>
      <trkpt lat="47.34999" lon="16.00961">
        <ele>477.241653</ele>
        <time>2026-07-08T08:28:46.000Z</time>
      </trkpt>
      <trkpt lat="47.3499" lon="16.00955">
        <ele>476.392163</ele>
        <time>2026-07-08T08:28:47.000Z</time>
      </trkpt>
      <trkpt lat="47.34981" lon="16.00949">
        <ele>475.528161</ele>
        <time>2026-07-08T08:28:48.000Z</time>
      </trkpt>
      <trkpt lat="47.34972" lon="16.00942">
        <ele>474.651166</ele>
        <time>2026-07-08T08:28:49.000Z</time>
      </trkpt>
      <trkpt lat="47.34962" lon="16.00935">
        <ele>473.717174</ele>
        <time>2026-07-08T08:28:50.000Z</time>
      </trkpt>
      <trkpt lat="47.34952" lon="16.00929">
        <ele>472.738454</ele>
        <time>2026-07-08T08:28:51.000Z</time>
      </trkpt>
      <trkpt lat="47.34941" lon="16.00922">
        <ele>471.670308</ele>
        <time>2026-07-08T08:28:52.000Z</time>
      </trkpt>
      <trkpt lat="47.34929" lon="16.00916">
        <ele>470.58386</ele>
        <time>2026-07-08T08:28:53.000Z</time>
      </trkpt>
      <trkpt lat="47.34916" lon="16.0091">
        <ele>469.452462</ele>
        <time>2026-07-08T08:28:54.000Z</time>
      </trkpt>
      <trkpt lat="47.34903" lon="16.00906">
        <ele>468.276018</ele>
        <time>2026-07-08T08:28:55.000Z</time>
      </trkpt>
      <trkpt lat="47.34889" lon="16.00901">
        <ele>467.059877</ele>
        <time>2026-07-08T08:28:56.000Z</time>
      </trkpt>
      <trkpt lat="47.34876" lon="16.00897">
        <ele>465.840007</ele>
        <time>2026-07-08T08:28:57.000Z</time>
      </trkpt>
      <trkpt lat="47.34861" lon="16.00894">
        <ele>464.579687</ele>
        <time>2026-07-08T08:28:58.000Z</time>
      </trkpt>
      <trkpt lat="47.34847" lon="16.0089">
        <ele>463.303304</ele>
        <time>2026-07-08T08:28:59.000Z</time>
      </trkpt>
      <trkpt lat="47.34832" lon="16.00886">
        <ele>461.832116</ele>
        <time>2026-07-08T08:29:00.000Z</time>
      </trkpt>
      <trkpt lat="47.34818" lon="16.00882">
        <ele>460.283252</ele>
        <time>2026-07-08T08:29:01.000Z</time>
      </trkpt>
      <trkpt lat="47.34803" lon="16.00878">
        <ele>458.770558</ele>
        <time>2026-07-08T08:29:02.000Z</time>
      </trkpt>
      <trkpt lat="47.3479" lon="16.00874">
        <ele>457.35192</ele>
        <time>2026-07-08T08:29:03.000Z</time>
      </trkpt>
      <trkpt lat="47.34777" lon="16.00871">
        <ele>456.002639</ele>
        <time>2026-07-08T08:29:04.000Z</time>
      </trkpt>
      <trkpt lat="47.34765" lon="16.00868">
        <ele>454.724448</ele>
        <time>2026-07-08T08:29:05.000Z</time>
      </trkpt>
      <trkpt lat="47.34754" lon="16.00865">
        <ele>453.518391</ele>
        <time>2026-07-08T08:29:06.000Z</time>
      </trkpt>
      <trkpt lat="47.34744" lon="16.00861">
        <ele>452.402009</ele>
        <time>2026-07-08T08:29:07.000Z</time>
      </trkpt>
      <trkpt lat="47.34734" lon="16.00855">
        <ele>451.324396</ele>
        <time>2026-07-08T08:29:08.000Z</time>
      </trkpt>
      <trkpt lat="47.34726" lon="16.00846">
        <ele>450.240155</ele>
        <time>2026-07-08T08:29:09.000Z</time>
      </trkpt>
      <trkpt lat="47.34719" lon="16.00835">
        <ele>449.152766</ele>
        <time>2026-07-08T08:29:10.000Z</time>
      </trkpt>
      <trkpt lat="47.34713" lon="16.00822">
        <ele>448.052218</ele>
        <time>2026-07-08T08:29:11.000Z</time>
      </trkpt>
      <trkpt lat="47.34709" lon="16.00808">
        <ele>446.956174</ele>
        <time>2026-07-08T08:29:12.000Z</time>
      </trkpt>
      <trkpt lat="47.34705" lon="16.00794">
        <ele>445.892689</ele>
        <time>2026-07-08T08:29:13.000Z</time>
      </trkpt>
      <trkpt lat="47.34702" lon="16.0078">
        <ele>444.832878</ele>
        <time>2026-07-08T08:29:14.000Z</time>
      </trkpt>
      <trkpt lat="47.34699" lon="16.00766">
        <ele>444.061683</ele>
        <time>2026-07-08T08:29:15.000Z</time>
      </trkpt>
      <trkpt lat="47.34695" lon="16.00752">
        <ele>444.351815</ele>
        <time>2026-07-08T08:29:16.000Z</time>
      </trkpt>
      <trkpt lat="47.34692" lon="16.00739">
        <ele>444.632465</ele>
        <time>2026-07-08T08:29:17.000Z</time>
      </trkpt>
      <trkpt lat="47.3469" lon="16.00726">
        <ele>444.903844</ele>
        <time>2026-07-08T08:29:18.000Z</time>
      </trkpt>
      <trkpt lat="47.34687" lon="16.00713">
        <ele>445.169748</ele>
        <time>2026-07-08T08:29:19.000Z</time>
      </trkpt>
      <trkpt lat="47.34685" lon="16.00701">
        <ele>445.430796</ele>
        <time>2026-07-08T08:29:20.000Z</time>
      </trkpt>
      <trkpt lat="47.34683" lon="16.00689">
        <ele>445.678213</ele>
        <time>2026-07-08T08:29:21.000Z</time>
      </trkpt>
      <trkpt lat="47.34682" lon="16.00677">
        <ele>445.916618</ele>
        <time>2026-07-08T08:29:22.000Z</time>
      </trkpt>
      <trkpt lat="47.34681" lon="16.00666">
        <ele>446.139561</ele>
        <time>2026-07-08T08:29:23.000Z</time>
      </trkpt>
      <trkpt lat="47.34682" lon="16.00655">
        <ele>446.348536</ele>
        <time>2026-07-08T08:29:24.000Z</time>
      </trkpt>
      <trkpt lat="47.34683" lon="16.00646">
        <ele>446.535367</ele>
        <time>2026-07-08T08:29:25.000Z</time>
      </trkpt>
      <trkpt lat="47.34685" lon="16.00639">
        <ele>446.700471</ele>
        <time>2026-07-08T08:29:26.000Z</time>
      </trkpt>
      <trkpt lat="47.34688" lon="16.00632">
        <ele>446.846645</ele>
        <time>2026-07-08T08:29:27.000Z</time>
      </trkpt>
      <trkpt lat="47.34691" lon="16.00628">
        <ele>446.968967</ele>
        <time>2026-07-08T08:29:28.000Z</time>
      </trkpt>
      <trkpt lat="47.34693" lon="16.00624">
        <ele>447.080602</ele>
        <time>2026-07-08T08:29:29.000Z</time>
      </trkpt>
      <trkpt lat="47.34695" lon="16.0062">
        <ele>447.17571</ele>
        <time>2026-07-08T08:29:30.000Z</time>
      </trkpt>
      <trkpt lat="47.34697" lon="16.00617">
        <ele>447.260897</ele>
        <time>2026-07-08T08:29:31.000Z</time>
      </trkpt>
      <trkpt lat="47.34699" lon="16.00614">
        <ele>447.338174</ele>
        <time>2026-07-08T08:29:32.000Z</time>
      </trkpt>
      <trkpt lat="47.347" lon="16.00612">
        <ele>447.40449</ele>
        <time>2026-07-08T08:29:33.000Z</time>
      </trkpt>
      <trkpt lat="47.34702" lon="16.00609">
        <ele>447.477421</ele>
        <time>2026-07-08T08:29:34.000Z</time>
      </trkpt>
      <trkpt lat="47.34703" lon="16.00606">
        <ele>447.544279</ele>
        <time>2026-07-08T08:29:35.000Z</time>
      </trkpt>
      <trkpt lat="47.34705" lon="16.00604">
        <ele>447.599768</ele>
        <time>2026-07-08T08:29:36.000Z</time>
      </trkpt>
      <trkpt lat="47.34706" lon="16.00602">
        <ele>447.6595</ele>
        <time>2026-07-08T08:29:37.000Z</time>
      </trkpt>
      <trkpt lat="47.34707" lon="16.006">
        <ele>447.714989</ele>
        <time>2026-07-08T08:29:38.000Z</time>
      </trkpt>
      <trkpt lat="47.34709" lon="16.00598">
        <ele>447.781799</ele>
        <time>2026-07-08T08:29:39.000Z</time>
      </trkpt>
      <trkpt lat="47.3471" lon="16.00595">
        <ele>447.844893</ele>
        <time>2026-07-08T08:29:40.000Z</time>
      </trkpt>
      <trkpt lat="47.34711" lon="16.00593">
        <ele>447.90475</ele>
        <time>2026-07-08T08:29:41.000Z</time>
      </trkpt>
      <trkpt lat="47.34712" lon="16.0059">
        <ele>447.966357</ele>
        <time>2026-07-08T08:29:42.000Z</time>
      </trkpt>
      <trkpt lat="47.34713" lon="16.00587">
        <ele>448.026602</ele>
        <time>2026-07-08T08:29:43.000Z</time>
      </trkpt>
      <trkpt lat="47.34714" lon="16.00585">
        <ele>448.081593</ele>
        <time>2026-07-08T08:29:44.000Z</time>
      </trkpt>
      <trkpt lat="47.34715" lon="16.00582">
        <ele>448.138272</ele>
        <time>2026-07-08T08:29:45.000Z</time>
      </trkpt>
      <trkpt lat="47.34715" lon="16.00579">
        <ele>448.19898</ele>
        <time>2026-07-08T08:29:46.000Z</time>
      </trkpt>
      <trkpt lat="47.34716" lon="16.00576">
        <ele>448.260834</ele>
        <time>2026-07-08T08:29:47.000Z</time>
      </trkpt>
      <trkpt lat="47.34716" lon="16.00573">
        <ele>448.321188</ele>
        <time>2026-07-08T08:29:48.000Z</time>
      </trkpt>
      <trkpt lat="47.34716" lon="16.0057">
        <ele>448.383534</ele>
        <time>2026-07-08T08:29:49.000Z</time>
      </trkpt>
      <trkpt lat="47.34716" lon="16.00567">
        <ele>448.447874</ele>
        <time>2026-07-08T08:29:50.000Z</time>
      </trkpt>
      <trkpt lat="47.34716" lon="16.00564">
        <ele>448.513623</ele>
        <time>2026-07-08T08:29:51.000Z</time>
      </trkpt>
      <trkpt lat="47.34715" lon="16.00561">
        <ele>448.578171</ele>
        <time>2026-07-08T08:29:52.000Z</time>
      </trkpt>
      <trkpt lat="47.34714" lon="16.00558">
        <ele>448.640219</ele>
        <time>2026-07-08T08:29:53.000Z</time>
      </trkpt>
      <trkpt lat="47.34713" lon="16.00555">
        <ele>448.703296</ele>
        <time>2026-07-08T08:29:54.000Z</time>
      </trkpt>
      <trkpt lat="47.34711" lon="16.00553">
        <ele>448.769787</ele>
        <time>2026-07-08T08:29:55.000Z</time>
      </trkpt>
      <trkpt lat="47.3471" lon="16.00551">
        <ele>448.828231</ele>
        <time>2026-07-08T08:29:56.000Z</time>
      </trkpt>
      <trkpt lat="47.34709" lon="16.00548">
        <ele>448.890719</ele>
        <time>2026-07-08T08:29:57.000Z</time>
      </trkpt>
      <trkpt lat="47.34707" lon="16.00546">
        <ele>448.947669</ele>
        <time>2026-07-08T08:29:58.000Z</time>
      </trkpt>
      <trkpt lat="47.34706" lon="16.00544">
        <ele>449.008097</ele>
        <time>2026-07-08T08:29:59.000Z</time>
      </trkpt>
      <trkpt lat="47.34704" lon="16.00542">
        <ele>449.065223</ele>
        <time>2026-07-08T08:30:00.000Z</time>
      </trkpt>
      <trkpt lat="47.34703" lon="16.00541">
        <ele>449.121107</ele>
        <time>2026-07-08T08:30:01.000Z</time>
      </trkpt>
      <trkpt lat="47.34701" lon="16.00539">
        <ele>449.179362</ele>
        <time>2026-07-08T08:30:02.000Z</time>
      </trkpt>
      <trkpt lat="47.34699" lon="16.00537">
        <ele>449.243033</ele>
        <time>2026-07-08T08:30:03.000Z</time>
      </trkpt>
      <trkpt lat="47.34698" lon="16.00536">
        <ele>449.304115</ele>
        <time>2026-07-08T08:30:04.000Z</time>
      </trkpt>
      <trkpt lat="47.34696" lon="16.00535">
        <ele>449.427031</ele>
        <time>2026-07-08T08:30:05.000Z</time>
      </trkpt>
      <trkpt lat="47.34694" lon="16.00533">
        <ele>449.582982</ele>
        <time>2026-07-08T08:30:06.000Z</time>
      </trkpt>
      <trkpt lat="47.34692" lon="16.00532">
        <ele>449.721904</ele>
        <time>2026-07-08T08:30:07.000Z</time>
      </trkpt>
      <trkpt lat="47.3469" lon="16.00531">
        <ele>449.864909</ele>
        <time>2026-07-08T08:30:08.000Z</time>
      </trkpt>
      <trkpt lat="47.34688" lon="16.00529">
        <ele>450.012389</ele>
        <time>2026-07-08T08:30:09.000Z</time>
      </trkpt>
      <trkpt lat="47.34687" lon="16.00528">
        <ele>450.147654</ele>
        <time>2026-07-08T08:30:10.000Z</time>
      </trkpt>
      <trkpt lat="47.34685" lon="16.00526">
        <ele>450.279726</ele>
        <time>2026-07-08T08:30:11.000Z</time>
      </trkpt>
      <trkpt lat="47.34684" lon="16.00524">
        <ele>450.431899</ele>
        <time>2026-07-08T08:30:12.000Z</time>
      </trkpt>
      <trkpt lat="47.34682" lon="16.00523">
        <ele>450.563971</ele>
        <time>2026-07-08T08:30:13.000Z</time>
      </trkpt>
      <trkpt lat="47.3468" lon="16.00521">
        <ele>450.702893</ele>
        <time>2026-07-08T08:30:14.000Z</time>
      </trkpt>
      <trkpt lat="47.34679" lon="16.0052">
        <ele>450.850405</ele>
        <time>2026-07-08T08:30:15.000Z</time>
      </trkpt>
      <trkpt lat="47.34677" lon="16.00518">
        <ele>450.991746</ele>
        <time>2026-07-08T08:30:16.000Z</time>
      </trkpt>
      <trkpt lat="47.34675" lon="16.00517">
        <ele>451.122082</ele>
        <time>2026-07-08T08:30:17.000Z</time>
      </trkpt>
      <trkpt lat="47.34673" lon="16.00516">
        <ele>451.269562</ele>
        <time>2026-07-08T08:30:18.000Z</time>
      </trkpt>
      <trkpt lat="47.34672" lon="16.00515">
        <ele>451.412567</ele>
        <time>2026-07-08T08:30:19.000Z</time>
      </trkpt>
      <trkpt lat="47.3467" lon="16.00513">
        <ele>451.549198</ele>
        <time>2026-07-08T08:30:20.000Z</time>
      </trkpt>
      <trkpt lat="47.34668" lon="16.00512">
        <ele>451.684464</ele>
        <time>2026-07-08T08:30:21.000Z</time>
      </trkpt>
      <trkpt lat="47.34667" lon="16.0051">
        <ele>451.825805</ele>
        <time>2026-07-08T08:30:22.000Z</time>
      </trkpt>
      <trkpt lat="47.34665" lon="16.00509">
        <ele>451.964727</ele>
        <time>2026-07-08T08:30:23.000Z</time>
      </trkpt>
      <trkpt lat="47.34663" lon="16.00508">
        <ele>452.095064</ele>
        <time>2026-07-08T08:30:24.000Z</time>
      </trkpt>
      <trkpt lat="47.34662" lon="16.00506">
        <ele>452.241603</ele>
        <time>2026-07-08T08:30:25.000Z</time>
      </trkpt>
      <trkpt lat="47.3466" lon="16.00504">
        <ele>452.385485</ele>
        <time>2026-07-08T08:30:26.000Z</time>
      </trkpt>
      <trkpt lat="47.34658" lon="16.00503">
        <ele>452.518221</ele>
        <time>2026-07-08T08:30:27.000Z</time>
      </trkpt>
      <trkpt lat="47.34657" lon="16.00501">
        <ele>452.659562</ele>
        <time>2026-07-08T08:30:28.000Z</time>
      </trkpt>
      <trkpt lat="47.34655" lon="16.005">
        <ele>452.796194</ele>
        <time>2026-07-08T08:30:29.000Z</time>
      </trkpt>
      <trkpt lat="47.34653" lon="16.00499">
        <ele>452.93146</ele>
        <time>2026-07-08T08:30:30.000Z</time>
      </trkpt>
      <trkpt lat="47.34651" lon="16.00497">
        <ele>453.078939</ele>
        <time>2026-07-08T08:30:31.000Z</time>
      </trkpt>
      <trkpt lat="47.3465" lon="16.00496">
        <ele>453.209276</ele>
        <time>2026-07-08T08:30:32.000Z</time>
      </trkpt>
      <trkpt lat="47.34648" lon="16.00495">
        <ele>453.345908</ele>
        <time>2026-07-08T08:30:33.000Z</time>
      </trkpt>
      <trkpt lat="47.34646" lon="16.00493">
        <ele>453.48483</ele>
        <time>2026-07-08T08:30:34.000Z</time>
      </trkpt>
      <trkpt lat="47.34645" lon="16.00492">
        <ele>453.620096</ele>
        <time>2026-07-08T08:30:35.000Z</time>
      </trkpt>
      <trkpt lat="47.34643" lon="16.00491">
        <ele>453.769544</ele>
        <time>2026-07-08T08:30:36.000Z</time>
      </trkpt>
      <trkpt lat="47.34641" lon="16.00489">
        <ele>453.899881</ele>
        <time>2026-07-08T08:30:37.000Z</time>
      </trkpt>
      <trkpt lat="47.34639" lon="16.00488">
        <ele>454.051426</ele>
        <time>2026-07-08T08:30:38.000Z</time>
      </trkpt>
      <trkpt lat="47.34638" lon="16.00486">
        <ele>454.186692</ele>
        <time>2026-07-08T08:30:39.000Z</time>
      </trkpt>
      <trkpt lat="47.34636" lon="16.00485">
        <ele>454.328033</ele>
        <time>2026-07-08T08:30:40.000Z</time>
      </trkpt>
      <trkpt lat="47.34634" lon="16.00484">
        <ele>454.46706</ele>
        <time>2026-07-08T08:30:41.000Z</time>
      </trkpt>
      <trkpt lat="47.34633" lon="16.00482">
        <ele>454.605982</ele>
        <time>2026-07-08T08:30:42.000Z</time>
      </trkpt>
      <trkpt lat="47.34631" lon="16.00481">
        <ele>454.747323</ele>
        <time>2026-07-08T08:30:43.000Z</time>
      </trkpt>
      <trkpt lat="47.34629" lon="16.0048">
        <ele>454.890329</ele>
        <time>2026-07-08T08:30:44.000Z</time>
      </trkpt>
      <trkpt lat="47.34627" lon="16.00478">
        <ele>455.02696</ele>
        <time>2026-07-08T08:30:45.000Z</time>
      </trkpt>
      <trkpt lat="47.34626" lon="16.00477">
        <ele>455.172156</ele>
        <time>2026-07-08T08:30:46.000Z</time>
      </trkpt>
      <trkpt lat="47.34624" lon="16.00476">
        <ele>455.315161</ele>
        <time>2026-07-08T08:30:47.000Z</time>
      </trkpt>
      <trkpt lat="47.34622" lon="16.00474">
        <ele>455.462641</ele>
        <time>2026-07-08T08:30:48.000Z</time>
      </trkpt>
      <trkpt lat="47.3462" lon="16.00473">
        <ele>455.605647</ele>
        <time>2026-07-08T08:30:49.000Z</time>
      </trkpt>
      <trkpt lat="47.34618" lon="16.00472">
        <ele>455.753159</ele>
        <time>2026-07-08T08:30:50.000Z</time>
      </trkpt>
      <trkpt lat="47.34616" lon="16.0047">
        <ele>455.906925</ele>
        <time>2026-07-08T08:30:51.000Z</time>
      </trkpt>
      <trkpt lat="47.34615" lon="16.00469">
        <ele>456.047872</ele>
        <time>2026-07-08T08:30:52.000Z</time>
      </trkpt>
      <trkpt lat="47.34613" lon="16.00467">
        <ele>456.195384</ele>
        <time>2026-07-08T08:30:53.000Z</time>
      </trkpt>
      <trkpt lat="47.34611" lon="16.00466">
        <ele>456.332015</ele>
        <time>2026-07-08T08:30:54.000Z</time>
      </trkpt>
      <trkpt lat="47.34609" lon="16.00465">
        <ele>456.475021</ele>
        <time>2026-07-08T08:30:55.000Z</time>
      </trkpt>
      <trkpt lat="47.34607" lon="16.00463">
        <ele>456.632983</ele>
        <time>2026-07-08T08:30:56.000Z</time>
      </trkpt>
      <trkpt lat="47.34605" lon="16.00462">
        <ele>456.782431</ele>
        <time>2026-07-08T08:30:57.000Z</time>
      </trkpt>
      <trkpt lat="47.34604" lon="16.0046">
        <ele>456.934931</ele>
        <time>2026-07-08T08:30:58.000Z</time>
      </trkpt>
      <trkpt lat="47.34602" lon="16.00459">
        <ele>457.076273</ele>
        <time>2026-07-08T08:30:59.000Z</time>
      </trkpt>
      <trkpt lat="47.346" lon="16.00457">
        <ele>457.223785</ele>
        <time>2026-07-08T08:31:00.000Z</time>
      </trkpt>
      <trkpt lat="47.34598" lon="16.00456">
        <ele>457.360416</ele>
        <time>2026-07-08T08:31:01.000Z</time>
      </trkpt>
      <trkpt lat="47.34597" lon="16.00455">
        <ele>457.490753</ele>
        <time>2026-07-08T08:31:02.000Z</time>
      </trkpt>
      <trkpt lat="47.34595" lon="16.00453">
        <ele>457.637293</ele>
        <time>2026-07-08T08:31:03.000Z</time>
      </trkpt>
      <trkpt lat="47.34593" lon="16.00452">
        <ele>457.778634</ele>
        <time>2026-07-08T08:31:04.000Z</time>
      </trkpt>
      <trkpt lat="47.34592" lon="16.0045">
        <ele>457.90671</ele>
        <time>2026-07-08T08:31:05.000Z</time>
      </trkpt>
      <trkpt lat="47.3459" lon="16.00449">
        <ele>458.052355</ele>
        <time>2026-07-08T08:31:06.000Z</time>
      </trkpt>
      <trkpt lat="47.34588" lon="16.00448">
        <ele>458.197551</ele>
        <time>2026-07-08T08:31:07.000Z</time>
      </trkpt>
      <trkpt lat="47.34586" lon="16.00447">
        <ele>458.334183</ele>
        <time>2026-07-08T08:31:08.000Z</time>
      </trkpt>
      <trkpt lat="47.34585" lon="16.00446">
        <ele>458.458177</ele>
        <time>2026-07-08T08:31:09.000Z</time>
      </trkpt>
      <trkpt lat="47.34583" lon="16.00444">
        <ele>458.587476</ele>
        <time>2026-07-08T08:31:10.000Z</time>
      </trkpt>
      <trkpt lat="47.34582" lon="16.00442">
        <ele>458.736782</ele>
        <time>2026-07-08T08:31:11.000Z</time>
      </trkpt>
      <trkpt lat="47.3458" lon="16.00441">
        <ele>458.878124</ele>
        <time>2026-07-08T08:31:12.000Z</time>
      </trkpt>
      <trkpt lat="47.34578" lon="16.0044">
        <ele>459.019071</ele>
        <time>2026-07-08T08:31:13.000Z</time>
      </trkpt>
      <trkpt lat="47.34576" lon="16.00438">
        <ele>459.155703</ele>
        <time>2026-07-08T08:31:14.000Z</time>
      </trkpt>
      <trkpt lat="47.34575" lon="16.00437">
        <ele>459.290969</ele>
        <time>2026-07-08T08:31:15.000Z</time>
      </trkpt>
      <trkpt lat="47.34573" lon="16.00435">
        <ele>459.432029</ele>
        <time>2026-07-08T08:31:16.000Z</time>
      </trkpt>
      <trkpt lat="47.34572" lon="16.00433">
        <ele>459.573371</ele>
        <time>2026-07-08T08:31:17.000Z</time>
      </trkpt>
      <trkpt lat="47.3457" lon="16.00432">
        <ele>459.716377</ele>
        <time>2026-07-08T08:31:18.000Z</time>
      </trkpt>
      <trkpt lat="47.34568" lon="16.00431">
        <ele>459.870143</ele>
        <time>2026-07-08T08:31:19.000Z</time>
      </trkpt>
      <trkpt lat="47.34566" lon="16.00429">
        <ele>460.000481</ele>
        <time>2026-07-08T08:31:20.000Z</time>
      </trkpt>
      <trkpt lat="47.34564" lon="16.00428">
        <ele>460.147961</ele>
        <time>2026-07-08T08:31:21.000Z</time>
      </trkpt>
      <trkpt lat="47.34562" lon="16.00427">
        <ele>460.303912</ele>
        <time>2026-07-08T08:31:22.000Z</time>
      </trkpt>
      <trkpt lat="47.34561" lon="16.00425">
        <ele>460.449108</ele>
        <time>2026-07-08T08:31:23.000Z</time>
      </trkpt>
      <trkpt lat="47.34559" lon="16.00424">
        <ele>460.59045</ele>
        <time>2026-07-08T08:31:24.000Z</time>
      </trkpt>
      <trkpt lat="47.34557" lon="16.00422">
        <ele>460.725717</ele>
        <time>2026-07-08T08:31:25.000Z</time>
      </trkpt>
      <trkpt lat="47.34555" lon="16.00421">
        <ele>460.879483</ele>
        <time>2026-07-08T08:31:26.000Z</time>
      </trkpt>
      <trkpt lat="47.34554" lon="16.0042">
        <ele>461.022489</ele>
        <time>2026-07-08T08:31:27.000Z</time>
      </trkpt>
      <trkpt lat="47.34552" lon="16.00418">
        <ele>461.170001</ele>
        <time>2026-07-08T08:31:28.000Z</time>
      </trkpt>
      <trkpt lat="47.3455" lon="16.00417">
        <ele>461.325953</ele>
        <time>2026-07-08T08:31:29.000Z</time>
      </trkpt>
      <trkpt lat="47.34548" lon="16.00415">
        <ele>461.472493</ele>
        <time>2026-07-08T08:31:30.000Z</time>
      </trkpt>
      <trkpt lat="47.34546" lon="16.00414">
        <ele>461.632587</ele>
        <time>2026-07-08T08:31:31.000Z</time>
      </trkpt>
      <trkpt lat="47.34544" lon="16.00412">
        <ele>461.775593</ele>
        <time>2026-07-08T08:31:32.000Z</time>
      </trkpt>
      <trkpt lat="47.34542" lon="16.00411">
        <ele>461.952805</ele>
        <time>2026-07-08T08:31:33.000Z</time>
      </trkpt>
      <trkpt lat="47.3454" lon="16.00409">
        <ele>462.125744</ele>
        <time>2026-07-08T08:31:34.000Z</time>
      </trkpt>
      <trkpt lat="47.34538" lon="16.00407">
        <ele>462.156651</ele>
        <time>2026-07-08T08:31:35.000Z</time>
      </trkpt>
      <trkpt lat="47.34535" lon="16.00405">
        <ele>462.160148</ele>
        <time>2026-07-08T08:31:36.000Z</time>
      </trkpt>
      <trkpt lat="47.34533" lon="16.00403">
        <ele>462.163525</ele>
        <time>2026-07-08T08:31:37.000Z</time>
      </trkpt>
      <trkpt lat="47.34531" lon="16.00401">
        <ele>462.16701</ele>
        <time>2026-07-08T08:31:38.000Z</time>
      </trkpt>
      <trkpt lat="47.34529" lon="16.00399">
        <ele>462.17066</ele>
        <time>2026-07-08T08:31:39.000Z</time>
      </trkpt>
      <trkpt lat="47.34527" lon="16.00396">
        <ele>462.174092</ele>
        <time>2026-07-08T08:31:40.000Z</time>
      </trkpt>
      <trkpt lat="47.34525" lon="16.00394">
        <ele>462.177905</ele>
        <time>2026-07-08T08:31:41.000Z</time>
      </trkpt>
      <trkpt lat="47.34523" lon="16.00391">
        <ele>462.181663</ele>
        <time>2026-07-08T08:31:42.000Z</time>
      </trkpt>
      <trkpt lat="47.3452" lon="16.00389">
        <ele>462.185585</ele>
        <time>2026-07-08T08:31:43.000Z</time>
      </trkpt>
      <trkpt lat="47.34518" lon="16.00386">
        <ele>462.189343</ele>
        <time>2026-07-08T08:31:44.000Z</time>
      </trkpt>
      <trkpt lat="47.34516" lon="16.00384">
        <ele>462.19321</ele>
        <time>2026-07-08T08:31:45.000Z</time>
      </trkpt>
      <trkpt lat="47.34514" lon="16.00382">
        <ele>462.196807</ele>
        <time>2026-07-08T08:31:46.000Z</time>
      </trkpt>
      <trkpt lat="47.34511" lon="16.00379">
        <ele>462.200404</ele>
        <time>2026-07-08T08:31:47.000Z</time>
      </trkpt>
      <trkpt lat="47.3451" lon="16.00377">
        <ele>462.203454</ele>
        <time>2026-07-08T08:31:48.000Z</time>
      </trkpt>
      <trkpt lat="47.34508" lon="16.00375">
        <ele>462.206503</ele>
        <time>2026-07-08T08:31:49.000Z</time>
      </trkpt>
      <trkpt lat="47.34506" lon="16.00373">
        <ele>462.209773</ele>
        <time>2026-07-08T08:31:50.000Z</time>
      </trkpt>
      <trkpt lat="47.34504" lon="16.00371">
        <ele>462.213206</ele>
        <time>2026-07-08T08:31:51.000Z</time>
      </trkpt>
      <trkpt lat="47.34502" lon="16.00369">
        <ele>462.216803</ele>
        <time>2026-07-08T08:31:52.000Z</time>
      </trkpt>
      <trkpt lat="47.34499" lon="16.00367">
        <ele>462.220563</ele>
        <time>2026-07-08T08:31:53.000Z</time>
      </trkpt>
      <trkpt lat="47.34497" lon="16.00364">
        <ele>462.224436</ele>
        <time>2026-07-08T08:31:54.000Z</time>
      </trkpt>
      <trkpt lat="47.34493" lon="16.00359">
        <ele>462.232229</ele>
        <time>2026-07-08T08:31:56.000Z</time>
      </trkpt>
      <trkpt lat="47.3449" lon="16.00356">
        <ele>462.236162</ele>
        <time>2026-07-08T08:31:57.000Z</time>
      </trkpt>
      <trkpt lat="47.34486" lon="16.0035">
        <ele>462.244189</ele>
        <time>2026-07-08T08:31:58.000Z</time>
      </trkpt>
      <trkpt lat="47.34484" lon="16.00347">
        <ele>462.247959</ele>
        <time>2026-07-08T08:32:00.000Z</time>
      </trkpt>
      <trkpt lat="47.34479" lon="16.00342">
        <ele>462.256461</ele>
        <time>2026-07-08T08:32:02.000Z</time>
      </trkpt>
      <trkpt lat="47.34474" lon="16.00335">
        <ele>462.265582</ele>
        <time>2026-07-08T08:32:03.000Z</time>
      </trkpt>
      <trkpt lat="47.34471" lon="16.00332">
        <ele>462.270447</ele>
        <time>2026-07-08T08:32:04.000Z</time>
      </trkpt>
      <trkpt lat="47.34468" lon="16.00328">
        <ele>462.275434</ele>
        <time>2026-07-08T08:32:05.000Z</time>
      </trkpt>
      <trkpt lat="47.34466" lon="16.00324">
        <ele>462.28026</ele>
        <time>2026-07-08T08:32:06.000Z</time>
      </trkpt>
      <trkpt lat="47.34463" lon="16.00321">
        <ele>462.285449</ele>
        <time>2026-07-08T08:32:07.000Z</time>
      </trkpt>
      <trkpt lat="47.3446" lon="16.00317">
        <ele>462.290536</ele>
        <time>2026-07-08T08:32:08.000Z</time>
      </trkpt>
      <trkpt lat="47.34457" lon="16.00313">
        <ele>462.296394</ele>
        <time>2026-07-08T08:32:09.000Z</time>
      </trkpt>
      <trkpt lat="47.34453" lon="16.00308">
        <ele>462.302677</ele>
        <time>2026-07-08T08:32:10.000Z</time>
      </trkpt>
      <trkpt lat="47.3445" lon="16.00303">
        <ele>462.309183</ele>
        <time>2026-07-08T08:32:11.000Z</time>
      </trkpt>
      <trkpt lat="47.34446" lon="16.00298">
        <ele>462.316176</ele>
        <time>2026-07-08T08:32:12.000Z</time>
      </trkpt>
      <trkpt lat="47.34442" lon="16.00293">
        <ele>462.323643</ele>
        <time>2026-07-08T08:32:13.000Z</time>
      </trkpt>
      <trkpt lat="47.34437" lon="16.00288">
        <ele>462.331594</ele>
        <time>2026-07-08T08:32:14.000Z</time>
      </trkpt>
      <trkpt lat="47.34432" lon="16.00282">
        <ele>462.339934</ele>
        <time>2026-07-08T08:32:15.000Z</time>
      </trkpt>
      <trkpt lat="47.34427" lon="16.00276">
        <ele>462.348657</ele>
        <time>2026-07-08T08:32:16.000Z</time>
      </trkpt>
      <trkpt lat="47.34422" lon="16.0027">
        <ele>462.357648</ele>
        <time>2026-07-08T08:32:17.000Z</time>
      </trkpt>
      <trkpt lat="47.34417" lon="16.00264">
        <ele>462.36671</ele>
        <time>2026-07-08T08:32:18.000Z</time>
      </trkpt>
      <trkpt lat="47.34411" lon="16.00257">
        <ele>462.376631</ele>
        <time>2026-07-08T08:32:19.000Z</time>
      </trkpt>
      <trkpt lat="47.34405" lon="16.0025">
        <ele>462.38689</ele>
        <time>2026-07-08T08:32:20.000Z</time>
      </trkpt>
      <trkpt lat="47.34399" lon="16.00242">
        <ele>462.377986</ele>
        <time>2026-07-08T08:32:21.000Z</time>
      </trkpt>
      <trkpt lat="47.34393" lon="16.00234">
        <ele>462.02965</ele>
        <time>2026-07-08T08:32:22.000Z</time>
      </trkpt>
      <trkpt lat="47.34386" lon="16.00226">
        <ele>461.666898</ele>
        <time>2026-07-08T08:32:23.000Z</time>
      </trkpt>
      <trkpt lat="47.3438" lon="16.00216">
        <ele>461.297181</ele>
        <time>2026-07-08T08:32:24.000Z</time>
      </trkpt>
      <trkpt lat="47.34374" lon="16.00206">
        <ele>460.919864</ele>
        <time>2026-07-08T08:32:25.000Z</time>
      </trkpt>
      <trkpt lat="47.34368" lon="16.00195">
        <ele>460.527524</ele>
        <time>2026-07-08T08:32:26.000Z</time>
      </trkpt>
      <trkpt lat="47.34362" lon="16.00185">
        <ele>460.127664</ele>
        <time>2026-07-08T08:32:27.000Z</time>
      </trkpt>
      <trkpt lat="47.34356" lon="16.00174">
        <ele>459.720798</ele>
        <time>2026-07-08T08:32:28.000Z</time>
      </trkpt>
      <trkpt lat="47.34349" lon="16.00163">
        <ele>459.309237</ele>
        <time>2026-07-08T08:32:29.000Z</time>
      </trkpt>
      <trkpt lat="47.34342" lon="16.00153">
        <ele>458.897048</ele>
        <time>2026-07-08T08:32:30.000Z</time>
      </trkpt>
      <trkpt lat="47.34334" lon="16.00144">
        <ele>458.472649</ele>
        <time>2026-07-08T08:32:31.000Z</time>
      </trkpt>
      <trkpt lat="47.34325" lon="16.00135">
        <ele>458.046176</ele>
        <time>2026-07-08T08:32:32.000Z</time>
      </trkpt>
      <trkpt lat="47.34316" lon="16.00128">
        <ele>457.620727</ele>
        <time>2026-07-08T08:32:33.000Z</time>
      </trkpt>
      <trkpt lat="47.34307" lon="16.00122">
        <ele>457.185532</ele>
        <time>2026-07-08T08:32:34.000Z</time>
      </trkpt>
      <trkpt lat="47.34298" lon="16.00115">
        <ele>456.767679</ele>
        <time>2026-07-08T08:32:35.000Z</time>
      </trkpt>
      <trkpt lat="47.34289" lon="16.0011">
        <ele>456.350604</ele>
        <time>2026-07-08T08:32:36.000Z</time>
      </trkpt>
      <trkpt lat="47.3428" lon="16.00103">
        <ele>455.936532</ele>
        <time>2026-07-08T08:32:37.000Z</time>
      </trkpt>
      <trkpt lat="47.34271" lon="16.00097">
        <ele>455.533453</ele>
        <time>2026-07-08T08:32:38.000Z</time>
      </trkpt>
      <trkpt lat="47.34263" lon="16.00089">
        <ele>455.127718</ele>
        <time>2026-07-08T08:32:39.000Z</time>
      </trkpt>
      <trkpt lat="47.34255" lon="16.0008">
        <ele>454.727901</ele>
        <time>2026-07-08T08:32:40.000Z</time>
      </trkpt>
      <trkpt lat="47.34248" lon="16.0007">
        <ele>454.33019</ele>
        <time>2026-07-08T08:32:41.000Z</time>
      </trkpt>
      <trkpt lat="47.34242" lon="16.00059">
        <ele>453.935804</ele>
        <time>2026-07-08T08:32:42.000Z</time>
      </trkpt>
      <trkpt lat="47.34236" lon="16.00048">
        <ele>453.53211</ele>
        <time>2026-07-08T08:32:43.000Z</time>
      </trkpt>
      <trkpt lat="47.34231" lon="16.00035">
        <ele>453.121515</ele>
        <time>2026-07-08T08:32:44.000Z</time>
      </trkpt>
      <trkpt lat="47.34226" lon="16.00022">
        <ele>452.711547</ele>
        <time>2026-07-08T08:32:45.000Z</time>
      </trkpt>
      <trkpt lat="47.34221" lon="16.00008">
        <ele>452.292434</ele>
        <time>2026-07-08T08:32:46.000Z</time>
      </trkpt>
      <trkpt lat="47.34217" lon="15.99995">
        <ele>451.879508</ele>
        <time>2026-07-08T08:32:47.000Z</time>
      </trkpt>
      <trkpt lat="47.34212" lon="15.99982">
        <ele>451.472737</ele>
        <time>2026-07-08T08:32:48.000Z</time>
      </trkpt>
      <trkpt lat="47.34208" lon="15.99968">
        <ele>451.071294</ele>
        <time>2026-07-08T08:32:49.000Z</time>
      </trkpt>
      <trkpt lat="47.34204" lon="15.99955">
        <ele>450.671917</ele>
        <time>2026-07-08T08:32:50.000Z</time>
      </trkpt>
      <trkpt lat="47.34201" lon="15.99942">
        <ele>450.280599</ele>
        <time>2026-07-08T08:32:51.000Z</time>
      </trkpt>
      <trkpt lat="47.34197" lon="15.99928">
        <ele>449.888895</ele>
        <time>2026-07-08T08:32:52.000Z</time>
      </trkpt>
      <trkpt lat="47.34194" lon="15.99915">
        <ele>449.500737</ele>
        <time>2026-07-08T08:32:53.000Z</time>
      </trkpt>
      <trkpt lat="47.3419" lon="15.99902">
        <ele>449.104952</ele>
        <time>2026-07-08T08:32:54.000Z</time>
      </trkpt>
      <trkpt lat="47.34186" lon="15.99889">
        <ele>448.702527</ele>
        <time>2026-07-08T08:32:55.000Z</time>
      </trkpt>
      <trkpt lat="47.34182" lon="15.99875">
        <ele>448.289335</ele>
        <time>2026-07-08T08:32:56.000Z</time>
      </trkpt>
      <trkpt lat="47.34178" lon="15.9986">
        <ele>447.860908</ele>
        <time>2026-07-08T08:32:57.000Z</time>
      </trkpt>
      <trkpt lat="47.34174" lon="15.99846">
        <ele>447.32981</ele>
        <time>2026-07-08T08:32:58.000Z</time>
      </trkpt>
      <trkpt lat="47.3417" lon="15.9983">
        <ele>446.623903</ele>
        <time>2026-07-08T08:32:59.000Z</time>
      </trkpt>
      <trkpt lat="47.34166" lon="15.99814">
        <ele>445.901556</ele>
        <time>2026-07-08T08:33:00.000Z</time>
      </trkpt>
      <trkpt lat="47.34162" lon="15.99798">
        <ele>445.168986</ele>
        <time>2026-07-08T08:33:01.000Z</time>
      </trkpt>
      <trkpt lat="47.34157" lon="15.99782">
        <ele>444.423823</ele>
        <time>2026-07-08T08:33:02.000Z</time>
      </trkpt>
      <trkpt lat="47.34153" lon="15.99766">
        <ele>443.693543</ele>
        <time>2026-07-08T08:33:03.000Z</time>
      </trkpt>
      <trkpt lat="47.34149" lon="15.9975">
        <ele>442.953053</ele>
        <time>2026-07-08T08:33:04.000Z</time>
      </trkpt>
      <trkpt lat="47.34144" lon="15.99735">
        <ele>442.258353</ele>
        <time>2026-07-08T08:33:05.000Z</time>
      </trkpt>
      <trkpt lat="47.34141" lon="15.9972">
        <ele>441.588732</ele>
        <time>2026-07-08T08:33:06.000Z</time>
      </trkpt>
      <trkpt lat="47.34137" lon="15.99706">
        <ele>440.93423</ele>
        <time>2026-07-08T08:33:07.000Z</time>
      </trkpt>
      <trkpt lat="47.34133" lon="15.99691">
        <ele>440.272554</ele>
        <time>2026-07-08T08:33:08.000Z</time>
      </trkpt>
      <trkpt lat="47.34129" lon="15.99677">
        <ele>439.589648</ele>
        <time>2026-07-08T08:33:09.000Z</time>
      </trkpt>
      <trkpt lat="47.34124" lon="15.99662">
        <ele>438.90429</ele>
        <time>2026-07-08T08:33:10.000Z</time>
      </trkpt>
      <trkpt lat="47.3412" lon="15.99646">
        <ele>438.17092</ele>
        <time>2026-07-08T08:33:11.000Z</time>
      </trkpt>
      <trkpt lat="47.34115" lon="15.99629">
        <ele>437.404188</ele>
        <time>2026-07-08T08:33:12.000Z</time>
      </trkpt>
      <trkpt lat="47.3411" lon="15.99613">
        <ele>436.631025</ele>
        <time>2026-07-08T08:33:13.000Z</time>
      </trkpt>
      <trkpt lat="47.34105" lon="15.99596">
        <ele>435.582874</ele>
        <time>2026-07-08T08:33:14.000Z</time>
      </trkpt>
      <trkpt lat="47.34099" lon="15.99579">
        <ele>434.303461</ele>
        <time>2026-07-08T08:33:15.000Z</time>
      </trkpt>
      <trkpt lat="47.34094" lon="15.99561">
        <ele>432.989386</ele>
        <time>2026-07-08T08:33:16.000Z</time>
      </trkpt>
      <trkpt lat="47.34088" lon="15.99543">
        <ele>431.677256</ele>
        <time>2026-07-08T08:33:17.000Z</time>
      </trkpt>
      <trkpt lat="47.34083" lon="15.99526">
        <ele>430.381487</ele>
        <time>2026-07-08T08:33:18.000Z</time>
      </trkpt>
      <trkpt lat="47.34077" lon="15.99508">
        <ele>429.089346</ele>
        <time>2026-07-08T08:33:19.000Z</time>
      </trkpt>
      <trkpt lat="47.34071" lon="15.99491">
        <ele>427.780785</ele>
        <time>2026-07-08T08:33:20.000Z</time>
      </trkpt>
      <trkpt lat="47.34066" lon="15.99473">
        <ele>426.452279</ele>
        <time>2026-07-08T08:33:21.000Z</time>
      </trkpt>
      <trkpt lat="47.3406" lon="15.99455">
        <ele>425.133988</ele>
        <time>2026-07-08T08:33:22.000Z</time>
      </trkpt>
      <trkpt lat="47.34056" lon="15.99437">
        <ele>423.831978</ele>
        <time>2026-07-08T08:33:23.000Z</time>
      </trkpt>
      <trkpt lat="47.34051" lon="15.99418">
        <ele>422.492794</ele>
        <time>2026-07-08T08:33:24.000Z</time>
      </trkpt>
      <trkpt lat="47.34047" lon="15.99399">
        <ele>421.152839</ele>
        <time>2026-07-08T08:33:25.000Z</time>
      </trkpt>
      <trkpt lat="47.34044" lon="15.9938">
        <ele>419.814686</ele>
        <time>2026-07-08T08:33:26.000Z</time>
      </trkpt>
      <trkpt lat="47.3404" lon="15.99361">
        <ele>418.494675</ele>
        <time>2026-07-08T08:33:27.000Z</time>
      </trkpt>
      <trkpt lat="47.34037" lon="15.99342">
        <ele>417.432646</ele>
        <time>2026-07-08T08:33:28.000Z</time>
      </trkpt>
      <trkpt lat="47.34035" lon="15.99325">
        <ele>416.417589</ele>
        <time>2026-07-08T08:33:29.000Z</time>
      </trkpt>
      <trkpt lat="47.34032" lon="15.99308">
        <ele>415.451908</ele>
        <time>2026-07-08T08:33:30.000Z</time>
      </trkpt>
      <trkpt lat="47.34029" lon="15.99293">
        <ele>414.541486</ele>
        <time>2026-07-08T08:33:31.000Z</time>
      </trkpt>
      <trkpt lat="47.34027" lon="15.99278">
        <ele>413.707782</ele>
        <time>2026-07-08T08:33:32.000Z</time>
      </trkpt>
      <trkpt lat="47.34027" lon="15.99264">
        <ele>412.925912</ele>
        <time>2026-07-08T08:33:33.000Z</time>
      </trkpt>
      <trkpt lat="47.34027" lon="15.99251">
        <ele>412.150336</ele>
        <time>2026-07-08T08:33:34.000Z</time>
      </trkpt>
      <trkpt lat="47.34029" lon="15.99237">
        <ele>411.379425</ele>
        <time>2026-07-08T08:33:35.000Z</time>
      </trkpt>
      <trkpt lat="47.34033" lon="15.99224">
        <ele>410.589762</ele>
        <time>2026-07-08T08:33:36.000Z</time>
      </trkpt>
      <trkpt lat="47.34037" lon="15.99211">
        <ele>409.788926</ele>
        <time>2026-07-08T08:33:37.000Z</time>
      </trkpt>
      <trkpt lat="47.34041" lon="15.99199">
        <ele>409.018761</ele>
        <time>2026-07-08T08:33:38.000Z</time>
      </trkpt>
      <trkpt lat="47.34045" lon="15.99187">
        <ele>408.248541</ele>
        <time>2026-07-08T08:33:39.000Z</time>
      </trkpt>
      <trkpt lat="47.3405" lon="15.99176">
        <ele>407.531668</ele>
        <time>2026-07-08T08:33:40.000Z</time>
      </trkpt>
      <trkpt lat="47.34053" lon="15.99165">
        <ele>406.845664</ele>
        <time>2026-07-08T08:33:41.000Z</time>
      </trkpt>
      <trkpt lat="47.34055" lon="15.99154">
        <ele>406.198224</ele>
        <time>2026-07-08T08:33:42.000Z</time>
      </trkpt>
      <trkpt lat="47.34056" lon="15.99144">
        <ele>405.620921</ele>
        <time>2026-07-08T08:33:43.000Z</time>
      </trkpt>
      <trkpt lat="47.34054" lon="15.99135">
        <ele>405.081262</ele>
        <time>2026-07-08T08:33:44.000Z</time>
      </trkpt>
      <trkpt lat="47.34051" lon="15.99127">
        <ele>404.548398</ele>
        <time>2026-07-08T08:33:45.000Z</time>
      </trkpt>
      <trkpt lat="47.34045" lon="15.99121">
        <ele>403.994932</ele>
        <time>2026-07-08T08:33:46.000Z</time>
      </trkpt>
      <trkpt lat="47.34038" lon="15.9912">
        <ele>403.467548</ele>
        <time>2026-07-08T08:33:47.000Z</time>
      </trkpt>
      <trkpt lat="47.34032" lon="15.9912">
        <ele>403.322221</ele>
        <time>2026-07-08T08:33:48.000Z</time>
      </trkpt>
      <trkpt lat="47.34025" lon="15.99123">
        <ele>403.170068</ele>
        <time>2026-07-08T08:33:49.000Z</time>
      </trkpt>
      <trkpt lat="47.34019" lon="15.99126">
        <ele>403.019577</ele>
        <time>2026-07-08T08:33:50.000Z</time>
      </trkpt>
      <trkpt lat="47.34012" lon="15.9913">
        <ele>402.867613</ele>
        <time>2026-07-08T08:33:51.000Z</time>
      </trkpt>
      <trkpt lat="47.34005" lon="15.99133">
        <ele>402.711515</ele>
        <time>2026-07-08T08:33:52.000Z</time>
      </trkpt>
      <trkpt lat="47.33999" lon="15.99136">
        <ele>402.559841</ele>
        <time>2026-07-08T08:33:53.000Z</time>
      </trkpt>
      <trkpt lat="47.33992" lon="15.99139">
        <ele>402.406067</ele>
        <time>2026-07-08T08:33:54.000Z</time>
      </trkpt>
      <trkpt lat="47.33985" lon="15.99141">
        <ele>402.253174</ele>
        <time>2026-07-08T08:33:55.000Z</time>
      </trkpt>
      <trkpt lat="47.33979" lon="15.99143">
        <ele>402.102741</ele>
        <time>2026-07-08T08:33:56.000Z</time>
      </trkpt>
      <trkpt lat="47.33972" lon="15.99146">
        <ele>401.957801</ele>
        <time>2026-07-08T08:33:57.000Z</time>
      </trkpt>
      <trkpt lat="47.33966" lon="15.9915">
        <ele>401.806289</ele>
        <time>2026-07-08T08:33:58.000Z</time>
      </trkpt>
      <trkpt lat="47.3396" lon="15.99155">
        <ele>401.660963</ele>
        <time>2026-07-08T08:33:59.000Z</time>
      </trkpt>
      <trkpt lat="47.33954" lon="15.9916">
        <ele>401.516827</ele>
        <time>2026-07-08T08:34:00.000Z</time>
      </trkpt>
      <trkpt lat="47.33948" lon="15.99164">
        <ele>401.369008</ele>
        <time>2026-07-08T08:34:01.000Z</time>
      </trkpt>
      <trkpt lat="47.33942" lon="15.99168">
        <ele>401.224409</ele>
        <time>2026-07-08T08:34:02.000Z</time>
      </trkpt>
      <trkpt lat="47.33936" lon="15.9917">
        <ele>401.081873</ele>
        <time>2026-07-08T08:34:03.000Z</time>
      </trkpt>
      <trkpt lat="47.3393" lon="15.99171">
        <ele>400.943476</ele>
        <time>2026-07-08T08:34:04.000Z</time>
      </trkpt>
      <trkpt lat="47.33923" lon="15.99169">
        <ele>400.800656</ele>
        <time>2026-07-08T08:34:05.000Z</time>
      </trkpt>
      <trkpt lat="47.33918" lon="15.99165">
        <ele>400.666501</ele>
        <time>2026-07-08T08:34:06.000Z</time>
      </trkpt>
      <trkpt lat="47.33913" lon="15.9916">
        <ele>400.53042</ele>
        <time>2026-07-08T08:34:07.000Z</time>
      </trkpt>
      <trkpt lat="47.33908" lon="15.99154">
        <ele>400.394187</ele>
        <time>2026-07-08T08:34:08.000Z</time>
      </trkpt>
      <trkpt lat="47.33904" lon="15.99147">
        <ele>400.257909</ele>
        <time>2026-07-08T08:34:09.000Z</time>
      </trkpt>
      <trkpt lat="47.339" lon="15.99139">
        <ele>400.119558</ele>
        <time>2026-07-08T08:34:10.000Z</time>
      </trkpt>
      <trkpt lat="47.33897" lon="15.99132">
        <ele>399.982769</ele>
        <time>2026-07-08T08:34:11.000Z</time>
      </trkpt>
      <trkpt lat="47.33893" lon="15.99124">
        <ele>399.843247</ele>
        <time>2026-07-08T08:34:12.000Z</time>
      </trkpt>
      <trkpt lat="47.33889" lon="15.99117">
        <ele>399.710156</ele>
        <time>2026-07-08T08:34:13.000Z</time>
      </trkpt>
      <trkpt lat="47.33886" lon="15.9911">
        <ele>399.579368</ele>
        <time>2026-07-08T08:34:14.000Z</time>
      </trkpt>
      <trkpt lat="47.33882" lon="15.99103">
        <ele>399.538003</ele>
        <time>2026-07-08T08:34:15.000Z</time>
      </trkpt>
      <trkpt lat="47.33879" lon="15.99096">
        <ele>399.547945</ele>
        <time>2026-07-08T08:34:16.000Z</time>
      </trkpt>
      <trkpt lat="47.33875" lon="15.99089">
        <ele>399.557911</ele>
        <time>2026-07-08T08:34:17.000Z</time>
      </trkpt>
      <trkpt lat="47.33871" lon="15.99083">
        <ele>399.567465</ele>
        <time>2026-07-08T08:34:18.000Z</time>
      </trkpt>
      <trkpt lat="47.33867" lon="15.99077">
        <ele>399.576922</ele>
        <time>2026-07-08T08:34:19.000Z</time>
      </trkpt>
      <trkpt lat="47.33863" lon="15.99072">
        <ele>399.586561</ele>
        <time>2026-07-08T08:34:20.000Z</time>
      </trkpt>
      <trkpt lat="47.33858" lon="15.99068">
        <ele>399.596046</ele>
        <time>2026-07-08T08:34:21.000Z</time>
      </trkpt>
      <trkpt lat="47.33852" lon="15.99066">
        <ele>399.605686</ele>
        <time>2026-07-08T08:34:22.000Z</time>
      </trkpt>
      <trkpt lat="47.33847" lon="15.99065">
        <ele>399.615354</ele>
        <time>2026-07-08T08:34:23.000Z</time>
      </trkpt>
      <trkpt lat="47.33841" lon="15.99065">
        <ele>399.625488</ele>
        <time>2026-07-08T08:34:24.000Z</time>
      </trkpt>
      <trkpt lat="47.33835" lon="15.99067">
        <ele>399.635343</ele>
        <time>2026-07-08T08:34:25.000Z</time>
      </trkpt>
      <trkpt lat="47.33829" lon="15.9907">
        <ele>399.64539</ele>
        <time>2026-07-08T08:34:26.000Z</time>
      </trkpt>
      <trkpt lat="47.33824" lon="15.99074">
        <ele>399.655716</ele>
        <time>2026-07-08T08:34:27.000Z</time>
      </trkpt>
      <trkpt lat="47.33818" lon="15.99077">
        <ele>399.666159</ele>
        <time>2026-07-08T08:34:28.000Z</time>
      </trkpt>
      <trkpt lat="47.33812" lon="15.9908">
        <ele>399.676842</ele>
        <time>2026-07-08T08:34:29.000Z</time>
      </trkpt>
      <trkpt lat="47.33806" lon="15.99082">
        <ele>399.687388</ele>
        <time>2026-07-08T08:34:30.000Z</time>
      </trkpt>
      <trkpt lat="47.338" lon="15.99085">
        <ele>399.698227</ele>
        <time>2026-07-08T08:34:31.000Z</time>
      </trkpt>
      <trkpt lat="47.33793" lon="15.99087">
        <ele>399.708862</ele>
        <time>2026-07-08T08:34:32.000Z</time>
      </trkpt>
      <trkpt lat="47.33787" lon="15.99088">
        <ele>399.71991</ele>
        <time>2026-07-08T08:34:33.000Z</time>
      </trkpt>
      <trkpt lat="47.3378" lon="15.99088">
        <ele>399.730872</ele>
        <time>2026-07-08T08:34:34.000Z</time>
      </trkpt>
      <trkpt lat="47.33774" lon="15.99087">
        <ele>399.741518</ele>
        <time>2026-07-08T08:34:35.000Z</time>
      </trkpt>
      <trkpt lat="47.33768" lon="15.99086">
        <ele>399.752096</ele>
        <time>2026-07-08T08:34:36.000Z</time>
      </trkpt>
      <trkpt lat="47.33762" lon="15.99085">
        <ele>399.762824</ele>
        <time>2026-07-08T08:34:37.000Z</time>
      </trkpt>
      <trkpt lat="47.33755" lon="15.99083">
        <ele>399.773385</ele>
        <time>2026-07-08T08:34:38.000Z</time>
      </trkpt>
      <trkpt lat="47.33749" lon="15.99082">
        <ele>399.783763</ele>
        <time>2026-07-08T08:34:39.000Z</time>
      </trkpt>
      <trkpt lat="47.33743" lon="15.99081">
        <ele>399.793974</ele>
        <time>2026-07-08T08:34:40.000Z</time>
      </trkpt>
      <trkpt lat="47.33737" lon="15.9908">
        <ele>399.80417</ele>
        <time>2026-07-08T08:34:41.000Z</time>
      </trkpt>
      <trkpt lat="47.33731" lon="15.99079">
        <ele>399.814341</ele>
        <time>2026-07-08T08:34:42.000Z</time>
      </trkpt>
      <trkpt lat="47.33725" lon="15.99078">
        <ele>399.824501</ele>
        <time>2026-07-08T08:34:43.000Z</time>
      </trkpt>
      <trkpt lat="47.33719" lon="15.99078">
        <ele>399.834636</ele>
        <time>2026-07-08T08:34:44.000Z</time>
      </trkpt>
      <trkpt lat="47.33713" lon="15.99077">
        <ele>399.876754</ele>
        <time>2026-07-08T08:34:45.000Z</time>
      </trkpt>
      <trkpt lat="47.33708" lon="15.99078">
        <ele>399.918944</ele>
        <time>2026-07-08T08:34:46.000Z</time>
      </trkpt>
      <trkpt lat="47.33702" lon="15.99078">
        <ele>399.961133</ele>
        <time>2026-07-08T08:34:47.000Z</time>
      </trkpt>
      <trkpt lat="47.33696" lon="15.99078">
        <ele>400.002657</ele>
        <time>2026-07-08T08:34:48.000Z</time>
      </trkpt>
      <trkpt lat="47.3369" lon="15.99079">
        <ele>400.044295</ele>
        <time>2026-07-08T08:34:49.000Z</time>
      </trkpt>
      <trkpt lat="47.33685" lon="15.9908">
        <ele>400.086614</ele>
        <time>2026-07-08T08:34:50.000Z</time>
      </trkpt>
      <trkpt lat="47.33679" lon="15.99081">
        <ele>400.128252</ele>
        <time>2026-07-08T08:34:51.000Z</time>
      </trkpt>
      <trkpt lat="47.33673" lon="15.99081">
        <ele>400.170614</ele>
        <time>2026-07-08T08:34:52.000Z</time>
      </trkpt>
      <trkpt lat="47.33667" lon="15.99082">
        <ele>400.212357</ele>
        <time>2026-07-08T08:34:53.000Z</time>
      </trkpt>
      <trkpt lat="47.33662" lon="15.99083">
        <ele>400.253321</ele>
        <time>2026-07-08T08:34:54.000Z</time>
      </trkpt>
      <trkpt lat="47.33656" lon="15.99084">
        <ele>400.295064</ele>
        <time>2026-07-08T08:34:55.000Z</time>
      </trkpt>
      <trkpt lat="47.33651" lon="15.99085">
        <ele>400.335254</ele>
        <time>2026-07-08T08:34:56.000Z</time>
      </trkpt>
      <trkpt lat="47.33645" lon="15.99086">
        <ele>400.375327</ele>
        <time>2026-07-08T08:34:57.000Z</time>
      </trkpt>
      <trkpt lat="47.3364" lon="15.99086">
        <ele>400.41407</ele>
        <time>2026-07-08T08:34:58.000Z</time>
      </trkpt>
      <trkpt lat="47.33634" lon="15.99087">
        <ele>400.45349</ele>
        <time>2026-07-08T08:34:59.000Z</time>
      </trkpt>
      <trkpt lat="47.33629" lon="15.99088">
        <ele>400.492233</ele>
        <time>2026-07-08T08:35:01.000Z</time>
      </trkpt>
      <trkpt lat="47.33624" lon="15.99089">
        <ele>400.530307</ele>
        <time>2026-07-08T08:35:02.000Z</time>
      </trkpt>
      <trkpt lat="47.33619" lon="15.99089">
        <ele>400.568963</ele>
        <time>2026-07-08T08:35:03.000Z</time>
      </trkpt>
      <trkpt lat="47.33614" lon="15.9909">
        <ele>400.605376</ele>
        <time>2026-07-08T08:35:04.000Z</time>
      </trkpt>
      <trkpt lat="47.33609" lon="15.9909">
        <ele>400.640314</ele>
        <time>2026-07-08T08:35:05.000Z</time>
      </trkpt>
      <trkpt lat="47.33604" lon="15.9909">
        <ele>400.674492</ele>
        <time>2026-07-08T08:35:06.000Z</time>
      </trkpt>
      <trkpt lat="47.33599" lon="15.9909">
        <ele>400.708671</ele>
        <time>2026-07-08T08:35:07.000Z</time>
      </trkpt>
      <trkpt lat="47.33595" lon="15.9909">
        <ele>400.742123</ele>
        <time>2026-07-08T08:35:08.000Z</time>
      </trkpt>
      <trkpt lat="47.3359" lon="15.9909">
        <ele>400.776333</ele>
        <time>2026-07-08T08:35:09.000Z</time>
      </trkpt>
      <trkpt lat="47.33585" lon="15.99089">
        <ele>400.811326</ele>
        <time>2026-07-08T08:35:10.000Z</time>
      </trkpt>
      <trkpt lat="47.33581" lon="15.99089">
        <ele>400.845562</ele>
        <time>2026-07-08T08:35:11.000Z</time>
      </trkpt>
      <trkpt lat="47.33576" lon="15.99088">
        <ele>400.879829</ele>
        <time>2026-07-08T08:35:12.000Z</time>
      </trkpt>
      <trkpt lat="47.33571" lon="15.99088">
        <ele>400.913411</ele>
        <time>2026-07-08T08:35:13.000Z</time>
      </trkpt>
      <trkpt lat="47.33567" lon="15.99087">
        <ele>400.947679</ele>
        <time>2026-07-08T08:35:14.000Z</time>
      </trkpt>
      <trkpt lat="47.33562" lon="15.99087">
        <ele>400.982031</ele>
        <time>2026-07-08T08:35:15.000Z</time>
      </trkpt>
      <trkpt lat="47.33557" lon="15.99086">
        <ele>401.015497</ele>
        <time>2026-07-08T08:35:16.000Z</time>
      </trkpt>
      <trkpt lat="47.33553" lon="15.99086">
        <ele>401.049676</ele>
        <time>2026-07-08T08:35:17.000Z</time>
      </trkpt>
      <trkpt lat="47.33548" lon="15.99086">
        <ele>401.081086</ele>
        <time>2026-07-08T08:35:18.000Z</time>
      </trkpt>
      <trkpt lat="47.33544" lon="15.99085">
        <ele>401.112196</ele>
        <time>2026-07-08T08:35:19.000Z</time>
      </trkpt>
      <trkpt lat="47.3354" lon="15.99083">
        <ele>401.141072</ele>
        <time>2026-07-08T08:35:20.000Z</time>
      </trkpt>
      <trkpt lat="47.33537" lon="15.99081">
        <ele>401.186496</ele>
        <time>2026-07-08T08:35:21.000Z</time>
      </trkpt>
      <trkpt lat="47.33533" lon="15.99078">
        <ele>401.231791</ele>
        <time>2026-07-08T08:35:22.000Z</time>
      </trkpt>
      <trkpt lat="47.33529" lon="15.99076">
        <ele>401.278036</ele>
        <time>2026-07-08T08:35:23.000Z</time>
      </trkpt>
      <trkpt lat="47.33526" lon="15.99075">
        <ele>401.322646</ele>
        <time>2026-07-08T08:35:24.000Z</time>
      </trkpt>
      <trkpt lat="47.33522" lon="15.99073">
        <ele>401.368126</ele>
        <time>2026-07-08T08:35:25.000Z</time>
      </trkpt>
      <trkpt lat="47.33518" lon="15.99071">
        <ele>401.414291</ele>
        <time>2026-07-08T08:35:26.000Z</time>
      </trkpt>
      <trkpt lat="47.33515" lon="15.9907">
        <ele>401.459323</ele>
        <time>2026-07-08T08:35:27.000Z</time>
      </trkpt>
      <trkpt lat="47.33511" lon="15.99069">
        <ele>401.505103</ele>
        <time>2026-07-08T08:35:28.000Z</time>
      </trkpt>
      <trkpt lat="47.33507" lon="15.99067">
        <ele>401.550136</ele>
        <time>2026-07-08T08:35:29.000Z</time>
      </trkpt>
      <trkpt lat="47.33504" lon="15.99066">
        <ele>401.592493</ele>
        <time>2026-07-08T08:35:30.000Z</time>
      </trkpt>
      <trkpt lat="47.335" lon="15.99064">
        <ele>401.635737</ele>
        <time>2026-07-08T08:35:31.000Z</time>
      </trkpt>
      <trkpt lat="47.33497" lon="15.99062">
        <ele>401.678982</ele>
        <time>2026-07-08T08:35:32.000Z</time>
      </trkpt>
      <trkpt lat="47.33493" lon="15.99061">
        <ele>401.722481</ele>
        <time>2026-07-08T08:35:33.000Z</time>
      </trkpt>
      <trkpt lat="47.33489" lon="15.99059">
        <ele>401.767514</ele>
        <time>2026-07-08T08:35:34.000Z</time>
      </trkpt>
      <trkpt lat="47.33486" lon="15.99058">
        <ele>401.811416</ele>
        <time>2026-07-08T08:35:35.000Z</time>
      </trkpt>
      <trkpt lat="47.33482" lon="15.99057">
        <ele>401.855562</ele>
        <time>2026-07-08T08:35:36.000Z</time>
      </trkpt>
      <trkpt lat="47.33479" lon="15.99055">
        <ele>401.895449</ele>
        <time>2026-07-08T08:35:37.000Z</time>
      </trkpt>
      <trkpt lat="47.33476" lon="15.99054">
        <ele>401.934402</ele>
        <time>2026-07-08T08:35:38.000Z</time>
      </trkpt>
      <trkpt lat="47.33472" lon="15.99053">
        <ele>401.974927</ele>
        <time>2026-07-08T08:35:39.000Z</time>
      </trkpt>
      <trkpt lat="47.33469" lon="15.99051">
        <ele>402.017284</ele>
        <time>2026-07-08T08:35:40.000Z</time>
      </trkpt>
      <trkpt lat="47.33465" lon="15.9905">
        <ele>402.058932</ele>
        <time>2026-07-08T08:35:41.000Z</time>
      </trkpt>
      <trkpt lat="47.33462" lon="15.99048">
        <ele>402.101491</ele>
        <time>2026-07-08T08:35:42.000Z</time>
      </trkpt>
      <trkpt lat="47.33458" lon="15.99047">
        <ele>402.144265</ele>
        <time>2026-07-08T08:35:43.000Z</time>
      </trkpt>
      <trkpt lat="47.33455" lon="15.99045">
        <ele>402.18479</ele>
        <time>2026-07-08T08:35:44.000Z</time>
      </trkpt>
      <trkpt lat="47.33452" lon="15.99044">
        <ele>402.227792</ele>
        <time>2026-07-08T08:35:45.000Z</time>
      </trkpt>
      <trkpt lat="47.33448" lon="15.99042">
        <ele>402.268317</ele>
        <time>2026-07-08T08:35:46.000Z</time>
      </trkpt>
      <trkpt lat="47.33445" lon="15.99041">
        <ele>402.310448</ele>
        <time>2026-07-08T08:35:47.000Z</time>
      </trkpt>
      <trkpt lat="47.33441" lon="15.99039">
        <ele>402.353222</ele>
        <time>2026-07-08T08:35:48.000Z</time>
      </trkpt>
      <trkpt lat="47.33438" lon="15.99038">
        <ele>402.395579</ele>
        <time>2026-07-08T08:35:49.000Z</time>
      </trkpt>
      <trkpt lat="47.33434" lon="15.99037">
        <ele>402.43775</ele>
        <time>2026-07-08T08:35:50.000Z</time>
      </trkpt>
      <trkpt lat="47.33431" lon="15.99036">
        <ele>402.479589</ele>
        <time>2026-07-08T08:35:51.000Z</time>
      </trkpt>
      <trkpt lat="47.33427" lon="15.99035">
        <ele>402.521041</ele>
        <time>2026-07-08T08:35:52.000Z</time>
      </trkpt>
      <trkpt lat="47.33424" lon="15.99034">
        <ele>402.564033</ele>
        <time>2026-07-08T08:35:53.000Z</time>
      </trkpt>
      <trkpt lat="47.3342" lon="15.99033">
        <ele>402.608178</ele>
        <time>2026-07-08T08:35:54.000Z</time>
      </trkpt>
      <trkpt lat="47.33416" lon="15.99032">
        <ele>402.652324</ele>
        <time>2026-07-08T08:35:55.000Z</time>
      </trkpt>
      <trkpt lat="47.33413" lon="15.99031">
        <ele>402.694163</ele>
        <time>2026-07-08T08:35:56.000Z</time>
      </trkpt>
      <trkpt lat="47.33409" lon="15.99029">
        <ele>402.738065</ele>
        <time>2026-07-08T08:35:57.000Z</time>
      </trkpt>
      <trkpt lat="47.33406" lon="15.99028">
        <ele>402.780839</ele>
        <time>2026-07-08T08:35:58.000Z</time>
      </trkpt>
      <trkpt lat="47.33402" lon="15.99026">
        <ele>402.825872</ele>
        <time>2026-07-08T08:35:59.000Z</time>
      </trkpt>
      <trkpt lat="47.33398" lon="15.99025">
        <ele>402.871652</ele>
        <time>2026-07-08T08:36:00.000Z</time>
      </trkpt>
      <trkpt lat="47.33395" lon="15.99024">
        <ele>402.915797</ele>
        <time>2026-07-08T08:36:01.000Z</time>
      </trkpt>
      <trkpt lat="47.33391" lon="15.99023">
        <ele>402.959684</ele>
        <time>2026-07-08T08:36:02.000Z</time>
      </trkpt>
      <trkpt lat="47.33387" lon="15.99022">
        <ele>403.003377</ele>
        <time>2026-07-08T08:36:03.000Z</time>
      </trkpt>
      <trkpt lat="47.33384" lon="15.99021">
        <ele>403.048014</ele>
        <time>2026-07-08T08:36:04.000Z</time>
      </trkpt>
      <trkpt lat="47.3338" lon="15.99019">
        <ele>403.093621</ele>
        <time>2026-07-08T08:36:05.000Z</time>
      </trkpt>
      <trkpt lat="47.33376" lon="15.99018">
        <ele>403.140545</ele>
        <time>2026-07-08T08:36:06.000Z</time>
      </trkpt>
      <trkpt lat="47.33372" lon="15.99017">
        <ele>403.18845</ele>
        <time>2026-07-08T08:36:07.000Z</time>
      </trkpt>
      <trkpt lat="47.33368" lon="15.99016">
        <ele>403.236202</ele>
        <time>2026-07-08T08:36:08.000Z</time>
      </trkpt>
      <trkpt lat="47.33364" lon="15.99014">
        <ele>403.36505</ele>
        <time>2026-07-08T08:36:09.000Z</time>
      </trkpt>
      <trkpt lat="47.3336" lon="15.99013">
        <ele>403.539363</ele>
        <time>2026-07-08T08:36:10.000Z</time>
      </trkpt>
      <trkpt lat="47.33356" lon="15.99012">
        <ele>403.704747</ele>
        <time>2026-07-08T08:36:11.000Z</time>
      </trkpt>
      <trkpt lat="47.33353" lon="15.99011">
        <ele>403.856467</ele>
        <time>2026-07-08T08:36:12.000Z</time>
      </trkpt>
      <trkpt lat="47.33349" lon="15.9901">
        <ele>404.007198</ele>
        <time>2026-07-08T08:36:13.000Z</time>
      </trkpt>
      <trkpt lat="47.33346" lon="15.99009">
        <ele>404.146405</ele>
        <time>2026-07-08T08:36:14.000Z</time>
      </trkpt>
      <trkpt lat="47.33343" lon="15.99008">
        <ele>404.280338</ele>
        <time>2026-07-08T08:36:15.000Z</time>
      </trkpt>
      <trkpt lat="47.33339" lon="15.99007">
        <ele>404.427883</ele>
        <time>2026-07-08T08:36:16.000Z</time>
      </trkpt>
      <trkpt lat="47.33336" lon="15.99006">
        <ele>404.571256</ele>
        <time>2026-07-08T08:36:17.000Z</time>
      </trkpt>
      <trkpt lat="47.33333" lon="15.99005">
        <ele>404.714629</ele>
        <time>2026-07-08T08:36:18.000Z</time>
      </trkpt>
      <trkpt lat="47.33329" lon="15.99004">
        <ele>404.864856</ele>
        <time>2026-07-08T08:36:19.000Z</time>
      </trkpt>
      <trkpt lat="47.33326" lon="15.99003">
        <ele>405.018457</ele>
        <time>2026-07-08T08:36:20.000Z</time>
      </trkpt>
      <trkpt lat="47.33322" lon="15.99001">
        <ele>405.175527</ele>
        <time>2026-07-08T08:36:21.000Z</time>
      </trkpt>
      <trkpt lat="47.33319" lon="15.99">
        <ele>405.336157</ele>
        <time>2026-07-08T08:36:22.000Z</time>
      </trkpt>
      <trkpt lat="47.33315" lon="15.98999">
        <ele>405.496243</ele>
        <time>2026-07-08T08:36:23.000Z</time>
      </trkpt>
      <trkpt lat="47.33311" lon="15.98998">
        <ele>405.653313</ele>
        <time>2026-07-08T08:36:24.000Z</time>
      </trkpt>
      <trkpt lat="47.33308" lon="15.98997">
        <ele>405.814538</ele>
        <time>2026-07-08T08:36:25.000Z</time>
      </trkpt>
      <trkpt lat="47.33304" lon="15.98996">
        <ele>405.966258</ele>
        <time>2026-07-08T08:36:26.000Z</time>
      </trkpt>
      <trkpt lat="47.33301" lon="15.98995">
        <ele>406.107763</ele>
        <time>2026-07-08T08:36:27.000Z</time>
      </trkpt>
      <trkpt lat="47.33297" lon="15.98995">
        <ele>406.253862</ele>
        <time>2026-07-08T08:36:28.000Z</time>
      </trkpt>
      <trkpt lat="47.33294" lon="15.98994">
        <ele>406.395748</ele>
        <time>2026-07-08T08:36:29.000Z</time>
      </trkpt>
      <trkpt lat="47.33291" lon="15.98993">
        <ele>406.53303</ele>
        <time>2026-07-08T08:36:30.000Z</time>
      </trkpt>
      <trkpt lat="47.33288" lon="15.98993">
        <ele>406.666496</ele>
        <time>2026-07-08T08:36:31.000Z</time>
      </trkpt>
      <trkpt lat="47.33285" lon="15.98992">
        <ele>406.796239</ele>
        <time>2026-07-08T08:36:32.000Z</time>
      </trkpt>
      <trkpt lat="47.33282" lon="15.98991">
        <ele>406.925501</ele>
        <time>2026-07-08T08:36:33.000Z</time>
      </trkpt>
      <trkpt lat="47.33279" lon="15.98991">
        <ele>407.061962</ele>
        <time>2026-07-08T08:36:34.000Z</time>
      </trkpt>
      <trkpt lat="47.33276" lon="15.9899">
        <ele>407.190448</ele>
        <time>2026-07-08T08:36:35.000Z</time>
      </trkpt>
      <trkpt lat="47.33273" lon="15.9899">
        <ele>407.310481</ele>
        <time>2026-07-08T08:36:36.000Z</time>
      </trkpt>
      <trkpt lat="47.3327" lon="15.98989">
        <ele>407.438967</ele>
        <time>2026-07-08T08:36:37.000Z</time>
      </trkpt>
      <trkpt lat="47.33267" lon="15.98989">
        <ele>407.562924</ele>
        <time>2026-07-08T08:36:38.000Z</time>
      </trkpt>
      <trkpt lat="47.33264" lon="15.98989">
        <ele>407.673914</ele>
        <time>2026-07-08T08:36:39.000Z</time>
      </trkpt>
      <trkpt lat="47.33262" lon="15.98988">
        <ele>407.782208</ele>
        <time>2026-07-08T08:36:40.000Z</time>
      </trkpt>
      <trkpt lat="47.33259" lon="15.98987">
        <ele>407.890002</ele>
        <time>2026-07-08T08:36:41.000Z</time>
      </trkpt>
      <trkpt lat="47.33257" lon="15.98986">
        <ele>408.000238</ele>
        <time>2026-07-08T08:36:42.000Z</time>
      </trkpt>
      <trkpt lat="47.33254" lon="15.98986">
        <ele>408.108532</ele>
        <time>2026-07-08T08:36:43.000Z</time>
      </trkpt>
      <trkpt lat="47.33252" lon="15.98985">
        <ele>408.215279</ele>
        <time>2026-07-08T08:36:44.000Z</time>
      </trkpt>
      <trkpt lat="47.33249" lon="15.98985">
        <ele>408.322298</ele>
        <time>2026-07-08T08:36:45.000Z</time>
      </trkpt>
      <trkpt lat="47.33247" lon="15.98984">
        <ele>408.430092</ele>
        <time>2026-07-08T08:36:46.000Z</time>
      </trkpt>
      <trkpt lat="47.33244" lon="15.98984">
        <ele>408.533245</ele>
        <time>2026-07-08T08:36:47.000Z</time>
      </trkpt>
      <trkpt lat="47.33242" lon="15.98983">
        <ele>408.640614</ele>
        <time>2026-07-08T08:36:48.000Z</time>
      </trkpt>
      <trkpt lat="47.3324" lon="15.98983">
        <ele>408.739554</ele>
        <time>2026-07-08T08:36:49.000Z</time>
      </trkpt>
      <trkpt lat="47.33237" lon="15.98982">
        <ele>408.838116</ele>
        <time>2026-07-08T08:36:50.000Z</time>
      </trkpt>
      <trkpt lat="47.33235" lon="15.98982">
        <ele>408.94591</ele>
        <time>2026-07-08T08:36:51.000Z</time>
      </trkpt>
      <trkpt lat="47.33232" lon="15.98981">
        <ele>409.052044</ele>
        <time>2026-07-08T08:36:52.000Z</time>
      </trkpt>
      <trkpt lat="47.3323" lon="15.9898">
        <ele>409.160338</ele>
        <time>2026-07-08T08:36:53.000Z</time>
      </trkpt>
      <trkpt lat="47.33227" lon="15.98979">
        <ele>409.268633</ele>
        <time>2026-07-08T08:36:54.000Z</time>
      </trkpt>
      <trkpt lat="47.33225" lon="15.98979">
        <ele>409.375379</ele>
        <time>2026-07-08T08:36:55.000Z</time>
      </trkpt>
      <trkpt lat="47.33222" lon="15.98979">
        <ele>409.486369</ele>
        <time>2026-07-08T08:36:56.000Z</time>
      </trkpt>
      <trkpt lat="47.3322" lon="15.98978">
        <ele>409.593388</ele>
        <time>2026-07-08T08:36:57.000Z</time>
      </trkpt>
      <trkpt lat="47.33217" lon="15.98978">
        <ele>409.700756</ele>
        <time>2026-07-08T08:36:58.000Z</time>
      </trkpt>
      <trkpt lat="47.33215" lon="15.98978">
        <ele>409.807503</ele>
        <time>2026-07-08T08:36:59.000Z</time>
      </trkpt>
      <trkpt lat="47.33212" lon="15.98977">
        <ele>409.914872</ele>
        <time>2026-07-08T08:37:00.000Z</time>
      </trkpt>
      <trkpt lat="47.3321" lon="15.98977">
        <ele>410.030681</ele>
        <time>2026-07-08T08:37:01.000Z</time>
      </trkpt>
      <trkpt lat="47.33207" lon="15.98976">
        <ele>410.147348</ele>
        <time>2026-07-08T08:37:02.000Z</time>
      </trkpt>
      <trkpt lat="47.33204" lon="15.98975">
        <ele>410.26038</ele>
        <time>2026-07-08T08:37:03.000Z</time>
      </trkpt>
      <trkpt lat="47.33202" lon="15.98974">
        <ele>410.378852</ele>
        <time>2026-07-08T08:37:04.000Z</time>
      </trkpt>
      <trkpt lat="47.33199" lon="15.98973">
        <ele>410.497324</ele>
        <time>2026-07-08T08:37:05.000Z</time>
      </trkpt>
      <trkpt lat="47.33196" lon="15.98972">
        <ele>410.610356</ele>
        <time>2026-07-08T08:37:06.000Z</time>
      </trkpt>
      <trkpt lat="47.33194" lon="15.98971">
        <ele>410.728828</ele>
        <time>2026-07-08T08:37:07.000Z</time>
      </trkpt>
      <trkpt lat="47.33191" lon="15.9897">
        <ele>410.8473</ele>
        <time>2026-07-08T08:37:08.000Z</time>
      </trkpt>
      <trkpt lat="47.33188" lon="15.98969">
        <ele>410.91133</ele>
        <time>2026-07-08T08:37:09.000Z</time>
      </trkpt>
      <trkpt lat="47.33186" lon="15.98968">
        <ele>410.917355</ele>
        <time>2026-07-08T08:37:10.000Z</time>
      </trkpt>
      <trkpt lat="47.33183" lon="15.98967">
        <ele>410.923817</ele>
        <time>2026-07-08T08:37:11.000Z</time>
      </trkpt>
      <trkpt lat="47.3318" lon="15.98966">
        <ele>410.930197</ele>
        <time>2026-07-08T08:37:12.000Z</time>
      </trkpt>
      <trkpt lat="47.33178" lon="15.98965">
        <ele>410.936134</ele>
        <time>2026-07-08T08:37:13.000Z</time>
      </trkpt>
      <trkpt lat="47.33175" lon="15.98964">
        <ele>410.94207</ele>
        <time>2026-07-08T08:37:14.000Z</time>
      </trkpt>
      <trkpt lat="47.33173" lon="15.98963">
        <ele>410.947486</ele>
        <time>2026-07-08T08:37:15.000Z</time>
      </trkpt>
      <trkpt lat="47.33171" lon="15.98962">
        <ele>410.953131</ele>
        <time>2026-07-08T08:37:16.000Z</time>
      </trkpt>
      <trkpt lat="47.33168" lon="15.9896">
        <ele>410.959045</ele>
        <time>2026-07-08T08:37:17.000Z</time>
      </trkpt>
      <trkpt lat="47.33166" lon="15.98959">
        <ele>410.96469</ele>
        <time>2026-07-08T08:37:18.000Z</time>
      </trkpt>
      <trkpt lat="47.33164" lon="15.98958">
        <ele>410.970185</ele>
        <time>2026-07-08T08:37:19.000Z</time>
      </trkpt>
      <trkpt lat="47.33161" lon="15.98957">
        <ele>410.975824</ele>
        <time>2026-07-08T08:37:20.000Z</time>
      </trkpt>
      <trkpt lat="47.33159" lon="15.98956">
        <ele>410.980836</ele>
        <time>2026-07-08T08:37:21.000Z</time>
      </trkpt>
      <trkpt lat="47.33157" lon="15.98955">
        <ele>410.986268</ele>
        <time>2026-07-08T08:37:22.000Z</time>
      </trkpt>
      <trkpt lat="47.33155" lon="15.98954">
        <ele>410.991699</ele>
        <time>2026-07-08T08:37:23.000Z</time>
      </trkpt>
      <trkpt lat="47.33153" lon="15.98952">
        <ele>410.997401</ele>
        <time>2026-07-08T08:37:24.000Z</time>
      </trkpt>
      <trkpt lat="47.3315" lon="15.98951">
        <ele>411.003586</ele>
        <time>2026-07-08T08:37:25.000Z</time>
      </trkpt>
      <trkpt lat="47.33148" lon="15.9895">
        <ele>411.009662</ele>
        <time>2026-07-08T08:37:26.000Z</time>
      </trkpt>
      <trkpt lat="47.33145" lon="15.98948">
        <ele>411.016171</ele>
        <time>2026-07-08T08:37:27.000Z</time>
      </trkpt>
      <trkpt lat="47.33142" lon="15.98947">
        <ele>411.022196</ele>
        <time>2026-07-08T08:37:28.000Z</time>
      </trkpt>
      <trkpt lat="47.3314" lon="15.98946">
        <ele>411.028487</ele>
        <time>2026-07-08T08:37:29.000Z</time>
      </trkpt>
      <trkpt lat="47.33137" lon="15.98945">
        <ele>411.034867</ele>
        <time>2026-07-08T08:37:30.000Z</time>
      </trkpt>
      <trkpt lat="47.33134" lon="15.98944">
        <ele>411.04115</ele>
        <time>2026-07-08T08:37:31.000Z</time>
      </trkpt>
      <trkpt lat="47.33132" lon="15.98944">
        <ele>411.047614</ele>
        <time>2026-07-08T08:37:32.000Z</time>
      </trkpt>
      <trkpt lat="47.33129" lon="15.98943">
        <ele>411.054123</ele>
        <time>2026-07-08T08:37:33.000Z</time>
      </trkpt>
      <trkpt lat="47.33126" lon="15.98942">
        <ele>411.061516</ele>
        <time>2026-07-08T08:37:34.000Z</time>
      </trkpt>
      <trkpt lat="47.33122" lon="15.98942">
        <ele>411.069104</ele>
        <time>2026-07-08T08:37:35.000Z</time>
      </trkpt>
      <trkpt lat="47.33119" lon="15.98942">
        <ele>411.077139</ele>
        <time>2026-07-08T08:37:36.000Z</time>
      </trkpt>
      <trkpt lat="47.33115" lon="15.98941">
        <ele>411.085174</ele>
        <time>2026-07-08T08:37:37.000Z</time>
      </trkpt>
      <trkpt lat="47.33112" lon="15.98941">
        <ele>411.093677</ele>
        <time>2026-07-08T08:37:38.000Z</time>
      </trkpt>
      <trkpt lat="47.33108" lon="15.9894">
        <ele>411.102208</ele>
        <time>2026-07-08T08:37:39.000Z</time>
      </trkpt>
      <trkpt lat="47.33104" lon="15.9894">
        <ele>411.11053</ele>
        <time>2026-07-08T08:37:40.000Z</time>
      </trkpt>
      <trkpt lat="47.33101" lon="15.98939">
        <ele>411.118589</ele>
        <time>2026-07-08T08:37:41.000Z</time>
      </trkpt>
      <trkpt lat="47.33097" lon="15.98938">
        <ele>411.126706</ele>
        <time>2026-07-08T08:37:42.000Z</time>
      </trkpt>
      <trkpt lat="47.33094" lon="15.98937">
        <ele>411.1353</ele>
        <time>2026-07-08T08:37:43.000Z</time>
      </trkpt>
      <trkpt lat="47.3309" lon="15.98936">
        <ele>411.14347</ele>
        <time>2026-07-08T08:37:44.000Z</time>
      </trkpt>
      <trkpt lat="47.33087" lon="15.98935">
        <ele>411.151641</ele>
        <time>2026-07-08T08:37:45.000Z</time>
      </trkpt>
      <trkpt lat="47.33083" lon="15.98935">
        <ele>411.160211</ele>
        <time>2026-07-08T08:37:46.000Z</time>
      </trkpt>
      <trkpt lat="47.33079" lon="15.98933">
        <ele>411.16867</ele>
        <time>2026-07-08T08:37:47.000Z</time>
      </trkpt>
      <trkpt lat="47.33076" lon="15.98932">
        <ele>411.177291</ele>
        <time>2026-07-08T08:37:48.000Z</time>
      </trkpt>
      <trkpt lat="47.33072" lon="15.98931">
        <ele>411.186616</ele>
        <time>2026-07-08T08:37:49.000Z</time>
      </trkpt>
      <trkpt lat="47.33067" lon="15.9893">
        <ele>411.19652</ele>
        <time>2026-07-08T08:37:50.000Z</time>
      </trkpt>
      <trkpt lat="47.33063" lon="15.98928">
        <ele>411.207166</ele>
        <time>2026-07-08T08:37:51.000Z</time>
      </trkpt>
      <trkpt lat="47.33058" lon="15.98926">
        <ele>411.218597</ele>
        <time>2026-07-08T08:37:52.000Z</time>
      </trkpt>
      <trkpt lat="47.33053" lon="15.98924">
        <ele>411.23047</ele>
        <time>2026-07-08T08:37:53.000Z</time>
      </trkpt>
      <trkpt lat="47.33048" lon="15.98922">
        <ele>411.243381</ele>
        <time>2026-07-08T08:37:54.000Z</time>
      </trkpt>
      <trkpt lat="47.33042" lon="15.9892">
        <ele>411.255919</ele>
        <time>2026-07-08T08:37:55.000Z</time>
      </trkpt>
      <trkpt lat="47.33037" lon="15.98918">
        <ele>411.268642</ele>
        <time>2026-07-08T08:37:56.000Z</time>
      </trkpt>
      <trkpt lat="47.33032" lon="15.98916">
        <ele>411.28118</ele>
        <time>2026-07-08T08:37:57.000Z</time>
      </trkpt>
      <trkpt lat="47.33027" lon="15.98915">
        <ele>411.292874</ele>
        <time>2026-07-08T08:37:58.000Z</time>
      </trkpt>
      <trkpt lat="47.33022" lon="15.98913">
        <ele>411.303559</ele>
        <time>2026-07-08T08:37:59.000Z</time>
      </trkpt>
      <trkpt lat="47.33018" lon="15.9891">
        <ele>411.313019</ele>
        <time>2026-07-08T08:38:00.000Z</time>
      </trkpt>
      <trkpt lat="47.33015" lon="15.98906">
        <ele>411.290685</ele>
        <time>2026-07-08T08:38:01.000Z</time>
      </trkpt>
      <trkpt lat="47.33013" lon="15.98901">
        <ele>411.120811</ele>
        <time>2026-07-08T08:38:02.000Z</time>
      </trkpt>
      <trkpt lat="47.33012" lon="15.98895">
        <ele>410.948713</ele>
        <time>2026-07-08T08:38:03.000Z</time>
      </trkpt>
      <trkpt lat="47.33013" lon="15.98889">
        <ele>410.789158</ele>
        <time>2026-07-08T08:38:04.000Z</time>
      </trkpt>
      <trkpt lat="47.33014" lon="15.98883">
        <ele>410.62222</ele>
        <time>2026-07-08T08:38:05.000Z</time>
      </trkpt>
      <trkpt lat="47.33015" lon="15.98877">
        <ele>410.463774</ele>
        <time>2026-07-08T08:38:06.000Z</time>
      </trkpt>
      <trkpt lat="47.33017" lon="15.98871">
        <ele>410.297998</ele>
        <time>2026-07-08T08:38:07.000Z</time>
      </trkpt>
      <trkpt lat="47.33018" lon="15.98865">
        <ele>410.134683</ele>
        <time>2026-07-08T08:38:08.000Z</time>
      </trkpt>
      <trkpt lat="47.3302" lon="15.98859">
        <ele>409.966441</ele>
        <time>2026-07-08T08:38:09.000Z</time>
      </trkpt>
      <trkpt lat="47.33021" lon="15.98853">
        <ele>409.804469</ele>
        <time>2026-07-08T08:38:10.000Z</time>
      </trkpt>
      <trkpt lat="47.33023" lon="15.98848">
        <ele>409.651231</ele>
        <time>2026-07-08T08:38:11.000Z</time>
      </trkpt>
      <trkpt lat="47.33024" lon="15.98842">
        <ele>409.490371</ele>
        <time>2026-07-08T08:38:12.000Z</time>
      </trkpt>
      <trkpt lat="47.33026" lon="15.98836">
        <ele>409.329511</ele>
        <time>2026-07-08T08:38:13.000Z</time>
      </trkpt>
      <trkpt lat="47.33027" lon="15.98831">
        <ele>409.1711</ele>
        <time>2026-07-08T08:38:14.000Z</time>
      </trkpt>
      <trkpt lat="47.33029" lon="15.98825">
        <ele>409.005325</ele>
        <time>2026-07-08T08:38:15.000Z</time>
      </trkpt>
      <trkpt lat="47.3303" lon="15.98819">
        <ele>408.84201</ele>
        <time>2026-07-08T08:38:16.000Z</time>
      </trkpt>
      <trkpt lat="47.33032" lon="15.98813">
        <ele>408.67419</ele>
        <time>2026-07-08T08:38:17.000Z</time>
      </trkpt>
      <trkpt lat="47.33034" lon="15.98808">
        <ele>408.505334</ele>
        <time>2026-07-08T08:38:18.000Z</time>
      </trkpt>
      <trkpt lat="47.33035" lon="15.98802">
        <ele>408.342019</ele>
        <time>2026-07-08T08:38:19.000Z</time>
      </trkpt>
      <trkpt lat="47.33036" lon="15.98796">
        <ele>408.177761</ele>
        <time>2026-07-08T08:38:20.000Z</time>
      </trkpt>
      <trkpt lat="47.33035" lon="15.9879">
        <ele>408.029481</ele>
        <time>2026-07-08T08:38:21.000Z</time>
      </trkpt>
      <trkpt lat="47.33031" lon="15.98786">
        <ele>407.859698</ele>
        <time>2026-07-08T08:38:22.000Z</time>
      </trkpt>
      <trkpt lat="47.33027" lon="15.98781">
        <ele>407.65957</ele>
        <time>2026-07-08T08:38:23.000Z</time>
      </trkpt>
      <trkpt lat="47.33024" lon="15.98774">
        <ele>407.43703</ele>
        <time>2026-07-08T08:38:24.000Z</time>
      </trkpt>
      <trkpt lat="47.33021" lon="15.98766">
        <ele>407.191697</ele>
        <time>2026-07-08T08:38:25.000Z</time>
      </trkpt>
      <trkpt lat="47.33019" lon="15.98756">
        <ele>406.917568</ele>
        <time>2026-07-08T08:38:26.000Z</time>
      </trkpt>
      <trkpt lat="47.33017" lon="15.98746">
        <ele>406.630636</ele>
        <time>2026-07-08T08:38:27.000Z</time>
      </trkpt>
      <trkpt lat="47.33015" lon="15.98735">
        <ele>406.335052</ele>
        <time>2026-07-08T08:38:28.000Z</time>
      </trkpt>
      <trkpt lat="47.33012" lon="15.98724">
        <ele>406.033546</ele>
        <time>2026-07-08T08:38:29.000Z</time>
      </trkpt>
      <trkpt lat="47.3301" lon="15.98713">
        <ele>405.736704</ele>
        <time>2026-07-08T08:38:30.000Z</time>
      </trkpt>
      <trkpt lat="47.33006" lon="15.98703">
        <ele>405.444101</ele>
        <time>2026-07-08T08:38:31.000Z</time>
      </trkpt>
      <trkpt lat="47.33002" lon="15.98694">
        <ele>405.147639</ele>
        <time>2026-07-08T08:38:32.000Z</time>
      </trkpt>
      <trkpt lat="47.32998" lon="15.98685">
        <ele>404.860174</ele>
        <time>2026-07-08T08:38:33.000Z</time>
      </trkpt>
      <trkpt lat="47.32993" lon="15.98676">
        <ele>404.569113</ele>
        <time>2026-07-08T08:38:34.000Z</time>
      </trkpt>
      <trkpt lat="47.32988" lon="15.98668">
        <ele>404.362135</ele>
        <time>2026-07-08T08:38:35.000Z</time>
      </trkpt>
      <trkpt lat="47.32984" lon="15.9866">
        <ele>404.477488</ele>
        <time>2026-07-08T08:38:36.000Z</time>
      </trkpt>
      <trkpt lat="47.3298" lon="15.98652">
        <ele>404.591621</ele>
        <time>2026-07-08T08:38:37.000Z</time>
      </trkpt>
      <trkpt lat="47.32976" lon="15.98644">
        <ele>404.700808</ele>
        <time>2026-07-08T08:38:38.000Z</time>
      </trkpt>
      <trkpt lat="47.32973" lon="15.98636">
        <ele>404.802032</ele>
        <time>2026-07-08T08:38:39.000Z</time>
      </trkpt>
      <trkpt lat="47.32971" lon="15.98629">
        <ele>404.897116</ele>
        <time>2026-07-08T08:38:40.000Z</time>
      </trkpt>
      <trkpt lat="47.32969" lon="15.98621">
        <ele>404.984527</ele>
        <time>2026-07-08T08:38:41.000Z</time>
      </trkpt>
      <trkpt lat="47.32968" lon="15.98614">
        <ele>405.068727</ele>
        <time>2026-07-08T08:38:42.000Z</time>
      </trkpt>
      <trkpt lat="47.32966" lon="15.98607">
        <ele>405.148663</ele>
        <time>2026-07-08T08:38:43.000Z</time>
      </trkpt>
      <trkpt lat="47.32965" lon="15.98601">
        <ele>405.225418</ele>
        <time>2026-07-08T08:38:44.000Z</time>
      </trkpt>
      <trkpt lat="47.32963" lon="15.98594">
        <ele>405.300179</ele>
        <time>2026-07-08T08:38:45.000Z</time>
      </trkpt>
      <trkpt lat="47.3296" lon="15.98589">
        <ele>405.372359</ele>
        <time>2026-07-08T08:38:46.000Z</time>
      </trkpt>
      <trkpt lat="47.32957" lon="15.98585">
        <ele>405.441399</ele>
        <time>2026-07-08T08:38:47.000Z</time>
      </trkpt>
      <trkpt lat="47.32953" lon="15.98583">
        <ele>405.510019</ele>
        <time>2026-07-08T08:38:48.000Z</time>
      </trkpt>
      <trkpt lat="47.32949" lon="15.98581">
        <ele>405.57888</ele>
        <time>2026-07-08T08:38:49.000Z</time>
      </trkpt>
      <trkpt lat="47.32945" lon="15.98579">
        <ele>405.650099</ele>
        <time>2026-07-08T08:38:50.000Z</time>
      </trkpt>
      <trkpt lat="47.32941" lon="15.98577">
        <ele>405.722231</ele>
        <time>2026-07-08T08:38:51.000Z</time>
      </trkpt>
      <trkpt lat="47.32937" lon="15.98575">
        <ele>405.791535</ele>
        <time>2026-07-08T08:38:52.000Z</time>
      </trkpt>
      <trkpt lat="47.32933" lon="15.98573">
        <ele>405.854819</ele>
        <time>2026-07-08T08:38:53.000Z</time>
      </trkpt>
      <trkpt lat="47.3293" lon="15.98572">
        <ele>405.916514</ele>
        <time>2026-07-08T08:38:54.000Z</time>
      </trkpt>
      <trkpt lat="47.32926" lon="15.98571">
        <ele>405.97531</ele>
        <time>2026-07-08T08:38:55.000Z</time>
      </trkpt>
      <trkpt lat="47.32923" lon="15.9857">
        <ele>406.034835</ele>
        <time>2026-07-08T08:38:56.000Z</time>
      </trkpt>
      <trkpt lat="47.32919" lon="15.98568">
        <ele>406.093363</ele>
        <time>2026-07-08T08:38:57.000Z</time>
      </trkpt>
      <trkpt lat="47.32916" lon="15.98567">
        <ele>406.146514</ele>
        <time>2026-07-08T08:38:58.000Z</time>
      </trkpt>
      <trkpt lat="47.32913" lon="15.98566">
        <ele>406.205108</ele>
        <time>2026-07-08T08:38:59.000Z</time>
      </trkpt>
      <trkpt lat="47.32909" lon="15.98566">
        <ele>406.261283</ele>
        <time>2026-07-08T08:39:00.000Z</time>
      </trkpt>
      <trkpt lat="47.32906" lon="15.98566">
        <ele>406.319006</ele>
        <time>2026-07-08T08:39:01.000Z</time>
      </trkpt>
      <trkpt lat="47.32903" lon="15.98567">
        <ele>406.371341</ele>
        <time>2026-07-08T08:39:02.000Z</time>
      </trkpt>
      <trkpt lat="47.32899" lon="15.98568">
        <ele>406.430916</ele>
        <time>2026-07-08T08:39:03.000Z</time>
      </trkpt>
      <trkpt lat="47.32896" lon="15.98571">
        <ele>406.486168</ele>
        <time>2026-07-08T08:39:04.000Z</time>
      </trkpt>
      <trkpt lat="47.32894" lon="15.98573">
        <ele>406.538605</ele>
        <time>2026-07-08T08:39:05.000Z</time>
      </trkpt>
      <trkpt lat="47.32891" lon="15.98576">
        <ele>406.59503</ele>
        <time>2026-07-08T08:39:06.000Z</time>
      </trkpt>
      <trkpt lat="47.32889" lon="15.9858">
        <ele>406.655035</ele>
        <time>2026-07-08T08:39:07.000Z</time>
      </trkpt>
      <trkpt lat="47.32886" lon="15.98584">
        <ele>406.713671</ele>
        <time>2026-07-08T08:39:08.000Z</time>
      </trkpt>
      <trkpt lat="47.32884" lon="15.98589">
        <ele>406.773895</ele>
        <time>2026-07-08T08:39:09.000Z</time>
      </trkpt>
      <trkpt lat="47.32882" lon="15.98593">
        <ele>406.829459</ele>
        <time>2026-07-08T08:39:10.000Z</time>
      </trkpt>
      <trkpt lat="47.3288" lon="15.98597">
        <ele>406.888095</ele>
        <time>2026-07-08T08:39:11.000Z</time>
      </trkpt>
      <trkpt lat="47.32878" lon="15.986">
        <ele>406.94396</ele>
        <time>2026-07-08T08:39:12.000Z</time>
      </trkpt>
      <trkpt lat="47.32876" lon="15.98604">
        <ele>406.998628</ele>
        <time>2026-07-08T08:39:13.000Z</time>
      </trkpt>
      <trkpt lat="47.32873" lon="15.98608">
        <ele>407.05393</ele>
        <time>2026-07-08T08:39:14.000Z</time>
      </trkpt>
      <trkpt lat="47.32871" lon="15.98611">
        <ele>407.11077</ele>
        <time>2026-07-08T08:39:15.000Z</time>
      </trkpt>
      <trkpt lat="47.32868" lon="15.98615">
        <ele>407.164121</ele>
        <time>2026-07-08T08:39:16.000Z</time>
      </trkpt>
      <trkpt lat="47.32866" lon="15.98618">
        <ele>407.217033</ele>
        <time>2026-07-08T08:39:17.000Z</time>
      </trkpt>
      <trkpt lat="47.32864" lon="15.98621">
        <ele>407.270392</ele>
        <time>2026-07-08T08:39:18.000Z</time>
      </trkpt>
      <trkpt lat="47.32862" lon="15.98625">
        <ele>407.304146</ele>
        <time>2026-07-08T08:39:19.000Z</time>
      </trkpt>
      <trkpt lat="47.3286" lon="15.98629">
        <ele>407.299845</ele>
        <time>2026-07-08T08:39:20.000Z</time>
      </trkpt>
      <trkpt lat="47.32858" lon="15.98634">
        <ele>407.295308</ele>
        <time>2026-07-08T08:39:21.000Z</time>
      </trkpt>
      <trkpt lat="47.32857" lon="15.98639">
        <ele>407.290574</ele>
        <time>2026-07-08T08:39:22.000Z</time>
      </trkpt>
      <trkpt lat="47.32856" lon="15.98644">
        <ele>407.285611</ele>
        <time>2026-07-08T08:39:23.000Z</time>
      </trkpt>
      <trkpt lat="47.32854" lon="15.9865">
        <ele>407.280391</ele>
        <time>2026-07-08T08:39:24.000Z</time>
      </trkpt>
      <trkpt lat="47.32853" lon="15.98656">
        <ele>407.27476</ele>
        <time>2026-07-08T08:39:25.000Z</time>
      </trkpt>
      <trkpt lat="47.32851" lon="15.98662">
        <ele>407.268961</ele>
        <time>2026-07-08T08:39:26.000Z</time>
      </trkpt>
      <trkpt lat="47.32849" lon="15.98668">
        <ele>407.262809</ele>
        <time>2026-07-08T08:39:27.000Z</time>
      </trkpt>
      <trkpt lat="47.32847" lon="15.98675">
        <ele>407.256524</ele>
        <time>2026-07-08T08:39:28.000Z</time>
      </trkpt>
      <trkpt lat="47.32845" lon="15.98681">
        <ele>407.250184</ele>
        <time>2026-07-08T08:39:29.000Z</time>
      </trkpt>
      <trkpt lat="47.32843" lon="15.98688">
        <ele>407.243666</ele>
        <time>2026-07-08T08:39:30.000Z</time>
      </trkpt>
      <trkpt lat="47.3284" lon="15.98694">
        <ele>407.237085</ele>
        <time>2026-07-08T08:39:31.000Z</time>
      </trkpt>
      <trkpt lat="47.32838" lon="15.98701">
        <ele>407.230785</ele>
        <time>2026-07-08T08:39:32.000Z</time>
      </trkpt>
      <trkpt lat="47.32836" lon="15.98707">
        <ele>407.224172</ele>
        <time>2026-07-08T08:39:33.000Z</time>
      </trkpt>
      <trkpt lat="47.32833" lon="15.98714">
        <ele>407.217654</ele>
        <time>2026-07-08T08:39:34.000Z</time>
      </trkpt>
      <trkpt lat="47.32831" lon="15.9872">
        <ele>407.211226</ele>
        <time>2026-07-08T08:39:35.000Z</time>
      </trkpt>
      <trkpt lat="47.32828" lon="15.98726">
        <ele>407.204731</ele>
        <time>2026-07-08T08:39:36.000Z</time>
      </trkpt>
      <trkpt lat="47.32825" lon="15.98733">
        <ele>407.197953</ele>
        <time>2026-07-08T08:39:37.000Z</time>
      </trkpt>
      <trkpt lat="47.32823" lon="15.98739">
        <ele>407.191319</ele>
        <time>2026-07-08T08:39:38.000Z</time>
      </trkpt>
      <trkpt lat="47.3282" lon="15.98745">
        <ele>407.184612</ele>
        <time>2026-07-08T08:39:39.000Z</time>
      </trkpt>
      <trkpt lat="47.32817" lon="15.98752">
        <ele>407.17783</ele>
        <time>2026-07-08T08:39:40.000Z</time>
      </trkpt>
      <trkpt lat="47.32814" lon="15.98758">
        <ele>407.170833</ele>
        <time>2026-07-08T08:39:41.000Z</time>
      </trkpt>
      <trkpt lat="47.32811" lon="15.98765">
        <ele>407.163833</ele>
        <time>2026-07-08T08:39:42.000Z</time>
      </trkpt>
      <trkpt lat="47.32808" lon="15.98771">
        <ele>407.156978</ele>
        <time>2026-07-08T08:39:43.000Z</time>
      </trkpt>
      <trkpt lat="47.32804" lon="15.98778">
        <ele>407.149818</ele>
        <time>2026-07-08T08:39:44.000Z</time>
      </trkpt>
      <trkpt lat="47.32801" lon="15.98784">
        <ele>407.14282</ele>
        <time>2026-07-08T08:39:45.000Z</time>
      </trkpt>
      <trkpt lat="47.32798" lon="15.98791">
        <ele>407.135675</ele>
        <time>2026-07-08T08:39:46.000Z</time>
      </trkpt>
      <trkpt lat="47.32795" lon="15.98797">
        <ele>407.12875</ele>
        <time>2026-07-08T08:39:47.000Z</time>
      </trkpt>
      <trkpt lat="47.32792" lon="15.98804">
        <ele>407.121899</ele>
        <time>2026-07-08T08:39:48.000Z</time>
      </trkpt>
      <trkpt lat="47.32789" lon="15.9881">
        <ele>407.114901</ele>
        <time>2026-07-08T08:39:49.000Z</time>
      </trkpt>
      <trkpt lat="47.32786" lon="15.98817">
        <ele>407.107899</ele>
        <time>2026-07-08T08:39:50.000Z</time>
      </trkpt>
      <trkpt lat="47.32783" lon="15.98823">
        <ele>407.101095</ele>
        <time>2026-07-08T08:39:51.000Z</time>
      </trkpt>
      <trkpt lat="47.32779" lon="15.98828">
        <ele>407.094209</ele>
        <time>2026-07-08T08:39:52.000Z</time>
      </trkpt>
      <trkpt lat="47.32775" lon="15.98834">
        <ele>407.087349</ele>
        <time>2026-07-08T08:39:53.000Z</time>
      </trkpt>
      <trkpt lat="47.32771" lon="15.98839">
        <ele>407.080169</ele>
        <time>2026-07-08T08:39:54.000Z</time>
      </trkpt>
      <trkpt lat="47.32767" lon="15.98845">
        <ele>407.072946</ele>
        <time>2026-07-08T08:39:55.000Z</time>
      </trkpt>
      <trkpt lat="47.32762" lon="15.98849">
        <ele>407.07267</ele>
        <time>2026-07-08T08:39:56.000Z</time>
      </trkpt>
      <trkpt lat="47.32758" lon="15.98854">
        <ele>407.073457</ele>
        <time>2026-07-08T08:39:57.000Z</time>
      </trkpt>
      <trkpt lat="47.32753" lon="15.98859">
        <ele>407.074228</ele>
        <time>2026-07-08T08:39:58.000Z</time>
      </trkpt>
      <trkpt lat="47.32748" lon="15.98864">
        <ele>407.074994</ele>
        <time>2026-07-08T08:39:59.000Z</time>
      </trkpt>
      <trkpt lat="47.32743" lon="15.98869">
        <ele>407.075788</ele>
        <time>2026-07-08T08:40:00.000Z</time>
      </trkpt>
      <trkpt lat="47.32739" lon="15.98873">
        <ele>407.07657</ele>
        <time>2026-07-08T08:40:01.000Z</time>
      </trkpt>
      <trkpt lat="47.32733" lon="15.98878">
        <ele>407.077389</ele>
        <time>2026-07-08T08:40:02.000Z</time>
      </trkpt>
      <trkpt lat="47.32728" lon="15.98882">
        <ele>407.078153</ele>
        <time>2026-07-08T08:40:03.000Z</time>
      </trkpt>
      <trkpt lat="47.32723" lon="15.98885">
        <ele>407.078931</ele>
        <time>2026-07-08T08:40:04.000Z</time>
      </trkpt>
      <trkpt lat="47.32718" lon="15.98887">
        <ele>407.079687</ele>
        <time>2026-07-08T08:40:05.000Z</time>
      </trkpt>
      <trkpt lat="47.32712" lon="15.98889">
        <ele>407.080433</ele>
        <time>2026-07-08T08:40:06.000Z</time>
      </trkpt>
      <trkpt lat="47.32707" lon="15.9889">
        <ele>407.081159</ele>
        <time>2026-07-08T08:40:07.000Z</time>
      </trkpt>
      <trkpt lat="47.32702" lon="15.98891">
        <ele>407.081869</ele>
        <time>2026-07-08T08:40:08.000Z</time>
      </trkpt>
      <trkpt lat="47.32697" lon="15.98892">
        <ele>407.082571</ele>
        <time>2026-07-08T08:40:09.000Z</time>
      </trkpt>
      <trkpt lat="47.32692" lon="15.98893">
        <ele>407.083256</ele>
        <time>2026-07-08T08:40:10.000Z</time>
      </trkpt>
      <trkpt lat="47.32687" lon="15.98894">
        <ele>407.083928</ele>
        <time>2026-07-08T08:40:11.000Z</time>
      </trkpt>
      <trkpt lat="47.32682" lon="15.98895">
        <ele>407.084587</ele>
        <time>2026-07-08T08:40:12.000Z</time>
      </trkpt>
      <trkpt lat="47.32677" lon="15.98896">
        <ele>407.085233</ele>
        <time>2026-07-08T08:40:13.000Z</time>
      </trkpt>
      <trkpt lat="47.32673" lon="15.98898">
        <ele>407.085869</ele>
        <time>2026-07-08T08:40:14.000Z</time>
      </trkpt>
      <trkpt lat="47.32669" lon="15.989">
        <ele>407.086501</ele>
        <time>2026-07-08T08:40:15.000Z</time>
      </trkpt>
      <trkpt lat="47.32665" lon="15.98904">
        <ele>407.087152</ele>
        <time>2026-07-08T08:40:16.000Z</time>
      </trkpt>
      <trkpt lat="47.32661" lon="15.98909">
        <ele>407.087821</ele>
        <time>2026-07-08T08:40:17.000Z</time>
      </trkpt>
      <trkpt lat="47.32658" lon="15.98915">
        <ele>407.088511</ele>
        <time>2026-07-08T08:40:18.000Z</time>
      </trkpt>
      <trkpt lat="47.32655" lon="15.98921">
        <ele>407.089236</ele>
        <time>2026-07-08T08:40:19.000Z</time>
      </trkpt>
      <trkpt lat="47.32651" lon="15.98928">
        <ele>407.089975</ele>
        <time>2026-07-08T08:40:20.000Z</time>
      </trkpt>
      <trkpt lat="47.32647" lon="15.98933">
        <ele>407.090706</ele>
        <time>2026-07-08T08:40:21.000Z</time>
      </trkpt>
      <trkpt lat="47.32643" lon="15.98936">
        <ele>407.091384</ele>
        <time>2026-07-08T08:40:22.000Z</time>
      </trkpt>
      <trkpt lat="47.32638" lon="15.98937">
        <ele>407.092043</ele>
        <time>2026-07-08T08:40:23.000Z</time>
      </trkpt>
      <trkpt lat="47.32633" lon="15.98937">
        <ele>407.092696</ele>
        <time>2026-07-08T08:40:24.000Z</time>
      </trkpt>
      <trkpt lat="47.32628" lon="15.98936">
        <ele>407.093371</ele>
        <time>2026-07-08T08:40:25.000Z</time>
      </trkpt>
      <trkpt lat="47.32624" lon="15.98934">
        <ele>407.094023</ele>
        <time>2026-07-08T08:40:26.000Z</time>
      </trkpt>
      <trkpt lat="47.32619" lon="15.98932">
        <ele>407.094687</ele>
        <time>2026-07-08T08:40:27.000Z</time>
      </trkpt>
      <trkpt lat="47.32614" lon="15.9893">
        <ele>407.095352</ele>
        <time>2026-07-08T08:40:28.000Z</time>
      </trkpt>
      <trkpt lat="47.3261" lon="15.98927">
        <ele>407.095999</ele>
        <time>2026-07-08T08:40:29.000Z</time>
      </trkpt>
      <trkpt lat="47.32605" lon="15.98925">
        <ele>407.121774</ele>
        <time>2026-07-08T08:40:30.000Z</time>
      </trkpt>
      <trkpt lat="47.326" lon="15.98923">
        <ele>407.19348</ele>
        <time>2026-07-08T08:40:31.000Z</time>
      </trkpt>
      <trkpt lat="47.32596" lon="15.98921">
        <ele>407.266596</ele>
        <time>2026-07-08T08:40:32.000Z</time>
      </trkpt>
      <trkpt lat="47.32591" lon="15.98919">
        <ele>407.343081</ele>
        <time>2026-07-08T08:40:33.000Z</time>
      </trkpt>
      <trkpt lat="47.32586" lon="15.98917">
        <ele>407.416473</ele>
        <time>2026-07-08T08:40:34.000Z</time>
      </trkpt>
      <trkpt lat="47.32581" lon="15.98915">
        <ele>407.491555</ele>
        <time>2026-07-08T08:40:35.000Z</time>
      </trkpt>
      <trkpt lat="47.32576" lon="15.98913">
        <ele>407.564671</ele>
        <time>2026-07-08T08:40:36.000Z</time>
      </trkpt>
      <trkpt lat="47.32571" lon="15.98911">
        <ele>407.637786</ele>
        <time>2026-07-08T08:40:37.000Z</time>
      </trkpt>
      <trkpt lat="47.32566" lon="15.98909">
        <ele>407.711809</ele>
        <time>2026-07-08T08:40:38.000Z</time>
      </trkpt>
      <trkpt lat="47.32562" lon="15.98907">
        <ele>407.784925</ele>
        <time>2026-07-08T08:40:39.000Z</time>
      </trkpt>
      <trkpt lat="47.32557" lon="15.98905">
        <ele>407.856362</ele>
        <time>2026-07-08T08:40:40.000Z</time>
      </trkpt>
      <trkpt lat="47.32552" lon="15.98903">
        <ele>407.926125</ele>
        <time>2026-07-08T08:40:41.000Z</time>
      </trkpt>
      <trkpt lat="47.32548" lon="15.98901">
        <ele>407.997063</ele>
        <time>2026-07-08T08:40:42.000Z</time>
      </trkpt>
      <trkpt lat="47.32543" lon="15.989">
        <ele>408.06541</ele>
        <time>2026-07-08T08:40:43.000Z</time>
      </trkpt>
      <trkpt lat="47.32538" lon="15.98898">
        <ele>408.136591</ele>
        <time>2026-07-08T08:40:44.000Z</time>
      </trkpt>
      <trkpt lat="47.32534" lon="15.98896">
        <ele>408.205485</ele>
        <time>2026-07-08T08:40:45.000Z</time>
      </trkpt>
      <trkpt lat="47.3253" lon="15.98894">
        <ele>408.270743</ele>
        <time>2026-07-08T08:40:46.000Z</time>
      </trkpt>
      <trkpt lat="47.32525" lon="15.98893">
        <ele>408.335515</ele>
        <time>2026-07-08T08:40:47.000Z</time>
      </trkpt>
      <trkpt lat="47.32521" lon="15.98891">
        <ele>408.396536</ele>
        <time>2026-07-08T08:40:48.000Z</time>
      </trkpt>
      <trkpt lat="47.32517" lon="15.9889">
        <ele>408.455147</ele>
        <time>2026-07-08T08:40:49.000Z</time>
      </trkpt>
      <trkpt lat="47.32514" lon="15.98888">
        <ele>408.512329</ele>
        <time>2026-07-08T08:40:50.000Z</time>
      </trkpt>
      <trkpt lat="47.3251" lon="15.98887">
        <ele>408.569744</ele>
        <time>2026-07-08T08:40:51.000Z</time>
      </trkpt>
      <trkpt lat="47.32506" lon="15.98885">
        <ele>408.628825</ele>
        <time>2026-07-08T08:40:52.000Z</time>
      </trkpt>
      <trkpt lat="47.32502" lon="15.98884">
        <ele>408.683941</ele>
        <time>2026-07-08T08:40:53.000Z</time>
      </trkpt>
      <trkpt lat="47.32498" lon="15.98882">
        <ele>408.743022</ele>
        <time>2026-07-08T08:40:54.000Z</time>
      </trkpt>
      <trkpt lat="47.32495" lon="15.98881">
        <ele>408.798432</ele>
        <time>2026-07-08T08:40:55.000Z</time>
      </trkpt>
      <trkpt lat="47.32491" lon="15.98879">
        <ele>408.854187</ele>
        <time>2026-07-08T08:40:56.000Z</time>
      </trkpt>
      <trkpt lat="47.32488" lon="15.98878">
        <ele>408.907346</ele>
        <time>2026-07-08T08:40:57.000Z</time>
      </trkpt>
      <trkpt lat="47.32484" lon="15.98877">
        <ele>408.960254</ele>
        <time>2026-07-08T08:40:58.000Z</time>
      </trkpt>
      <trkpt lat="47.32481" lon="15.98875">
        <ele>409.013681</ele>
        <time>2026-07-08T08:40:59.000Z</time>
      </trkpt>
      <trkpt lat="47.32477" lon="15.98873">
        <ele>409.072187</ele>
        <time>2026-07-08T08:41:00.000Z</time>
      </trkpt>
      <trkpt lat="47.32473" lon="15.98872">
        <ele>409.132687</ele>
        <time>2026-07-08T08:41:01.000Z</time>
      </trkpt>
      <trkpt lat="47.32469" lon="15.9887">
        <ele>409.192301</ele>
        <time>2026-07-08T08:41:02.000Z</time>
      </trkpt>
      <trkpt lat="47.32465" lon="15.98868">
        <ele>409.253322</ele>
        <time>2026-07-08T08:41:03.000Z</time>
      </trkpt>
      <trkpt lat="47.32461" lon="15.98867">
        <ele>409.310986</ele>
        <time>2026-07-08T08:41:04.000Z</time>
      </trkpt>
      <trkpt lat="47.32457" lon="15.98865">
        <ele>409.368914</ele>
        <time>2026-07-08T08:41:05.000Z</time>
      </trkpt>
      <trkpt lat="47.32453" lon="15.98864">
        <ele>409.427995</ele>
        <time>2026-07-08T08:41:06.000Z</time>
      </trkpt>
      <trkpt lat="47.3245" lon="15.98862">
        <ele>409.486204</ele>
        <time>2026-07-08T08:41:07.000Z</time>
      </trkpt>
      <trkpt lat="47.32446" lon="15.98861">
        <ele>409.543868</ele>
        <time>2026-07-08T08:41:08.000Z</time>
      </trkpt>
      <trkpt lat="47.32442" lon="15.98859">
        <ele>409.603771</ele>
        <time>2026-07-08T08:41:09.000Z</time>
      </trkpt>
      <trkpt lat="47.32438" lon="15.98857">
        <ele>409.66198</ele>
        <time>2026-07-08T08:41:10.000Z</time>
      </trkpt>
      <trkpt lat="47.32434" lon="15.98856">
        <ele>409.719644</ele>
        <time>2026-07-08T08:41:11.000Z</time>
      </trkpt>
      <trkpt lat="47.32431" lon="15.98854">
        <ele>409.749771</ele>
        <time>2026-07-08T08:41:12.000Z</time>
      </trkpt>
      <trkpt lat="47.32427" lon="15.98853">
        <ele>409.772252</ele>
        <time>2026-07-08T08:41:13.000Z</time>
      </trkpt>
      <trkpt lat="47.32423" lon="15.98851">
        <ele>409.794399</ele>
        <time>2026-07-08T08:41:14.000Z</time>
      </trkpt>
      <trkpt lat="47.32419" lon="15.98849">
        <ele>409.816664</ele>
        <time>2026-07-08T08:41:15.000Z</time>
      </trkpt>
      <trkpt lat="47.32416" lon="15.98847">
        <ele>409.838265</ele>
        <time>2026-07-08T08:41:16.000Z</time>
      </trkpt>
      <trkpt lat="47.32412" lon="15.98846">
        <ele>409.860194</ele>
        <time>2026-07-08T08:41:17.000Z</time>
      </trkpt>
      <trkpt lat="47.32408" lon="15.98844">
        <ele>409.882229</ele>
        <time>2026-07-08T08:41:18.000Z</time>
      </trkpt>
      <trkpt lat="47.32405" lon="15.98843">
        <ele>409.904709</ele>
        <time>2026-07-08T08:41:19.000Z</time>
      </trkpt>
      <trkpt lat="47.32401" lon="15.98841">
        <ele>409.927099</ele>
        <time>2026-07-08T08:41:20.000Z</time>
      </trkpt>
      <trkpt lat="47.32397" lon="15.98839">
        <ele>409.948822</ele>
        <time>2026-07-08T08:41:21.000Z</time>
      </trkpt>
      <trkpt lat="47.32394" lon="15.98837">
        <ele>409.971087</ele>
        <time>2026-07-08T08:41:22.000Z</time>
      </trkpt>
      <trkpt lat="47.3239" lon="15.98835">
        <ele>409.993476</ele>
        <time>2026-07-08T08:41:23.000Z</time>
      </trkpt>
      <trkpt lat="47.32386" lon="15.98834">
        <ele>410.014963</ele>
        <time>2026-07-08T08:41:24.000Z</time>
      </trkpt>
      <trkpt lat="47.32383" lon="15.98832">
        <ele>410.037352</ele>
        <time>2026-07-08T08:41:25.000Z</time>
      </trkpt>
      <trkpt lat="47.32379" lon="15.9883">
        <ele>410.059617</ele>
        <time>2026-07-08T08:41:26.000Z</time>
      </trkpt>
      <trkpt lat="47.32375" lon="15.98828">
        <ele>410.080676</ele>
        <time>2026-07-08T08:41:27.000Z</time>
      </trkpt>
      <trkpt lat="47.32372" lon="15.98827">
        <ele>410.101858</ele>
        <time>2026-07-08T08:41:28.000Z</time>
      </trkpt>
      <trkpt lat="47.32369" lon="15.98825">
        <ele>410.121965</ele>
        <time>2026-07-08T08:41:29.000Z</time>
      </trkpt>
      <trkpt lat="47.32365" lon="15.98823">
        <ele>410.143023</ele>
        <time>2026-07-08T08:41:30.000Z</time>
      </trkpt>
      <trkpt lat="47.32362" lon="15.98821">
        <ele>410.162999</ele>
        <time>2026-07-08T08:41:31.000Z</time>
      </trkpt>
      <trkpt lat="47.32358" lon="15.9882">
        <ele>410.18328</ele>
        <time>2026-07-08T08:41:32.000Z</time>
      </trkpt>
      <trkpt lat="47.32355" lon="15.98819">
        <ele>410.2028</ele>
        <time>2026-07-08T08:41:33.000Z</time>
      </trkpt>
      <trkpt lat="47.32352" lon="15.98817">
        <ele>410.220902</ele>
        <time>2026-07-08T08:41:34.000Z</time>
      </trkpt>
      <trkpt lat="47.32349" lon="15.98815">
        <ele>410.238206</ele>
        <time>2026-07-08T08:41:35.000Z</time>
      </trkpt>
      <trkpt lat="47.32346" lon="15.98814">
        <ele>410.257516</ele>
        <time>2026-07-08T08:41:36.000Z</time>
      </trkpt>
      <trkpt lat="47.32343" lon="15.98812">
        <ele>410.276704</ele>
        <time>2026-07-08T08:41:37.000Z</time>
      </trkpt>
      <trkpt lat="47.3234" lon="15.98812">
        <ele>410.294627</ele>
        <time>2026-07-08T08:41:38.000Z</time>
      </trkpt>
      <trkpt lat="47.32337" lon="15.98812">
        <ele>410.310057</ele>
        <time>2026-07-08T08:41:39.000Z</time>
      </trkpt>
      <trkpt lat="47.32335" lon="15.98812">
        <ele>410.323561</ele>
        <time>2026-07-08T08:41:40.000Z</time>
      </trkpt>
      <trkpt lat="47.32333" lon="15.98813">
        <ele>410.336717</ele>
        <time>2026-07-08T08:41:41.000Z</time>
      </trkpt>
      <trkpt lat="47.32331" lon="15.98815">
        <ele>410.349539</ele>
        <time>2026-07-08T08:41:42.000Z</time>
      </trkpt>
      <trkpt lat="47.32329" lon="15.98817">
        <ele>410.363134</ele>
        <time>2026-07-08T08:41:43.000Z</time>
      </trkpt>
      <trkpt lat="47.32326" lon="15.98819">
        <ele>410.379013</ele>
        <time>2026-07-08T08:41:44.000Z</time>
      </trkpt>
      <trkpt lat="47.32324" lon="15.98822">
        <ele>410.397874</ele>
        <time>2026-07-08T08:41:45.000Z</time>
      </trkpt>
      <trkpt lat="47.3232" lon="15.98825">
        <ele>410.419337</ele>
        <time>2026-07-08T08:41:46.000Z</time>
      </trkpt>
      <trkpt lat="47.32316" lon="15.98827">
        <ele>410.443474</ele>
        <time>2026-07-08T08:41:47.000Z</time>
      </trkpt>
      <trkpt lat="47.32312" lon="15.98827">
        <ele>410.466451</ele>
        <time>2026-07-08T08:41:48.000Z</time>
      </trkpt>
      <trkpt lat="47.32308" lon="15.98826">
        <ele>410.4902</ele>
        <time>2026-07-08T08:41:49.000Z</time>
      </trkpt>
      <trkpt lat="47.32305" lon="15.98824">
        <ele>410.511118</ele>
        <time>2026-07-08T08:41:50.000Z</time>
      </trkpt>
      <trkpt lat="47.32302" lon="15.98822">
        <ele>410.529069</ele>
        <time>2026-07-08T08:41:51.000Z</time>
      </trkpt>
      <trkpt lat="47.323" lon="15.9882">
        <ele>410.545322</ele>
        <time>2026-07-08T08:41:52.000Z</time>
      </trkpt>
      <trkpt lat="47.32297" lon="15.98819">
        <ele>410.561054</ele>
        <time>2026-07-08T08:41:53.000Z</time>
      </trkpt>
      <trkpt lat="47.32295" lon="15.98817">
        <ele>410.576312</ele>
        <time>2026-07-08T08:41:54.000Z</time>
      </trkpt>
      <trkpt lat="47.32292" lon="15.98814">
        <ele>410.593939</ele>
        <time>2026-07-08T08:41:55.000Z</time>
      </trkpt>
      <trkpt lat="47.32289" lon="15.98812">
        <ele>410.612254</ele>
        <time>2026-07-08T08:41:56.000Z</time>
      </trkpt>
      <trkpt lat="47.32286" lon="15.9881">
        <ele>410.632597</ele>
        <time>2026-07-08T08:41:57.000Z</time>
      </trkpt>
      <trkpt lat="47.32283" lon="15.98807">
        <ele>410.653623</ele>
        <time>2026-07-08T08:41:58.000Z</time>
      </trkpt>
      <trkpt lat="47.32279" lon="15.98805">
        <ele>410.674999</ele>
        <time>2026-07-08T08:41:59.000Z</time>
      </trkpt>
      <trkpt lat="47.32276" lon="15.98803">
        <ele>410.696741</ele>
        <time>2026-07-08T08:42:00.000Z</time>
      </trkpt>
      <trkpt lat="47.32273" lon="15.988">
        <ele>410.716931</ele>
        <time>2026-07-08T08:42:01.000Z</time>
      </trkpt>
      <trkpt lat="47.3227" lon="15.98798">
        <ele>410.737625</ele>
        <time>2026-07-08T08:42:02.000Z</time>
      </trkpt>
      <trkpt lat="47.32267" lon="15.98795">
        <ele>410.757316</ele>
        <time>2026-07-08T08:42:03.000Z</time>
      </trkpt>
      <trkpt lat="47.32263" lon="15.98793">
        <ele>410.805972</ele>
        <time>2026-07-08T08:42:04.000Z</time>
      </trkpt>
      <trkpt lat="47.3226" lon="15.9879">
        <ele>410.863625</ele>
        <time>2026-07-08T08:42:05.000Z</time>
      </trkpt>
      <trkpt lat="47.32256" lon="15.98788">
        <ele>410.922161</ele>
        <time>2026-07-08T08:42:06.000Z</time>
      </trkpt>
      <trkpt lat="47.32253" lon="15.98785">
        <ele>410.982124</ele>
        <time>2026-07-08T08:42:07.000Z</time>
      </trkpt>
      <trkpt lat="47.3225" lon="15.98782">
        <ele>411.038007</ele>
        <time>2026-07-08T08:42:08.000Z</time>
      </trkpt>
      <trkpt lat="47.32246" lon="15.98779">
        <ele>411.095384</ele>
        <time>2026-07-08T08:42:09.000Z</time>
      </trkpt>
      <trkpt lat="47.32243" lon="15.98777">
        <ele>411.153549</ele>
        <time>2026-07-08T08:42:10.000Z</time>
      </trkpt>
      <trkpt lat="47.3224" lon="15.98774">
        <ele>411.210415</ele>
        <time>2026-07-08T08:42:11.000Z</time>
      </trkpt>
      <trkpt lat="47.32236" lon="15.98771">
        <ele>411.267792</ele>
        <time>2026-07-08T08:42:12.000Z</time>
      </trkpt>
      <trkpt lat="47.32233" lon="15.98768">
        <ele>411.326327</ele>
        <time>2026-07-08T08:42:13.000Z</time>
      </trkpt>
      <trkpt lat="47.32229" lon="15.98765">
        <ele>411.390394</ele>
        <time>2026-07-08T08:42:14.000Z</time>
      </trkpt>
      <trkpt lat="47.32225" lon="15.98762">
        <ele>411.456261</ele>
        <time>2026-07-08T08:42:15.000Z</time>
      </trkpt>
      <trkpt lat="47.32221" lon="15.98758">
        <ele>411.527213</ele>
        <time>2026-07-08T08:42:16.000Z</time>
      </trkpt>
      <trkpt lat="47.32217" lon="15.98753">
        <ele>411.605384</ele>
        <time>2026-07-08T08:42:17.000Z</time>
      </trkpt>
      <trkpt lat="47.32213" lon="15.98749">
        <ele>411.685472</ele>
        <time>2026-07-08T08:42:18.000Z</time>
      </trkpt>
      <trkpt lat="47.32208" lon="15.98745">
        <ele>411.770425</ele>
        <time>2026-07-08T08:42:19.000Z</time>
      </trkpt>
      <trkpt lat="47.32203" lon="15.9874">
        <ele>411.860479</ele>
        <time>2026-07-08T08:42:20.000Z</time>
      </trkpt>
      <trkpt lat="47.32197" lon="15.98736">
        <ele>411.949034</ele>
        <time>2026-07-08T08:42:21.000Z</time>
      </trkpt>
      <trkpt lat="47.32192" lon="15.98732">
        <ele>412.03438</ele>
        <time>2026-07-08T08:42:22.000Z</time>
      </trkpt>
      <trkpt lat="47.32187" lon="15.98728">
        <ele>412.117938</ele>
        <time>2026-07-08T08:42:23.000Z</time>
      </trkpt>
      <trkpt lat="47.32182" lon="15.98725">
        <ele>412.19926</ele>
        <time>2026-07-08T08:42:24.000Z</time>
      </trkpt>
      <trkpt lat="47.32178" lon="15.98722">
        <ele>412.274387</ele>
        <time>2026-07-08T08:42:25.000Z</time>
      </trkpt>
      <trkpt lat="47.32173" lon="15.98719">
        <ele>412.345967</ele>
        <time>2026-07-08T08:42:26.000Z</time>
      </trkpt>
      <trkpt lat="47.32169" lon="15.98716">
        <ele>412.412102</ele>
        <time>2026-07-08T08:42:27.000Z</time>
      </trkpt>
      <trkpt lat="47.32166" lon="15.98713">
        <ele>412.47601</ele>
        <time>2026-07-08T08:42:28.000Z</time>
      </trkpt>
      <trkpt lat="47.32162" lon="15.98711">
        <ele>412.5368</ele>
        <time>2026-07-08T08:42:29.000Z</time>
      </trkpt>
      <trkpt lat="47.32159" lon="15.98708">
        <ele>412.592214</ele>
        <time>2026-07-08T08:42:30.000Z</time>
      </trkpt>
      <trkpt lat="47.32156" lon="15.98706">
        <ele>412.642717</ele>
        <time>2026-07-08T08:42:31.000Z</time>
      </trkpt>
      <trkpt lat="47.32153" lon="15.98704">
        <ele>412.689187</ele>
        <time>2026-07-08T08:42:32.000Z</time>
      </trkpt>
      <trkpt lat="47.3215" lon="15.98703">
        <ele>412.728121</ele>
        <time>2026-07-08T08:42:33.000Z</time>
      </trkpt>
      <trkpt lat="47.32149" lon="15.98701">
        <ele>412.757627</ele>
        <time>2026-07-08T08:42:34.000Z</time>
      </trkpt>
      <trkpt lat="47.32148" lon="15.98701">
        <ele>412.769957</ele>
        <time>2026-07-08T08:42:35.000Z</time>
      </trkpt>
      <trkpt lat="47.32148" lon="15.98701">
        <ele>412.773566</ele>
        <time>2026-07-08T08:42:36.000Z</time>
      </trkpt>
      <trkpt lat="47.32144" lon="15.98698">
        <ele>412.831653</ele>
        <time>2026-07-08T08:42:46.000Z</time>
      </trkpt>
      <trkpt lat="47.32143" lon="15.98698">
        <ele>412.845059</ele>
        <time>2026-07-08T08:42:47.000Z</time>
      </trkpt>
      <trkpt lat="47.32142" lon="15.98697">
        <ele>412.861593</ele>
        <time>2026-07-08T08:42:48.000Z</time>
      </trkpt>
      <trkpt lat="47.32141" lon="15.98697">
        <ele>412.875958</ele>
        <time>2026-07-08T08:42:49.000Z</time>
      </trkpt>
      <trkpt lat="47.32141" lon="15.98696">
        <ele>412.886252</ele>
        <time>2026-07-08T08:42:50.000Z</time>
      </trkpt>
      <trkpt lat="47.3214" lon="15.98696">
        <ele>412.894084</ele>
        <time>2026-07-08T08:42:51.000Z</time>
      </trkpt>
      <trkpt lat="47.3214" lon="15.98695">
        <ele>412.901822</ele>
        <time>2026-07-08T08:42:52.000Z</time>
      </trkpt>
      <trkpt lat="47.3214" lon="15.98695">
        <ele>412.905207</ele>
        <time>2026-07-08T08:42:53.000Z</time>
      </trkpt>
      <trkpt lat="47.32137" lon="15.9869">
        <ele>412.976322</ele>
        <time>2026-07-08T08:43:25.000Z</time>
      </trkpt>
      <trkpt lat="47.32136" lon="15.98689">
        <ele>412.991599</ele>
        <time>2026-07-08T08:43:26.000Z</time>
      </trkpt>
      <trkpt lat="47.32135" lon="15.98687">
        <ele>413.009235</ele>
        <time>2026-07-08T08:43:27.000Z</time>
      </trkpt>
      <trkpt lat="47.32135" lon="15.98686">
        <ele>413.027675</ele>
        <time>2026-07-08T08:43:28.000Z</time>
      </trkpt>
      <trkpt lat="47.32134" lon="15.98684">
        <ele>413.046115</ele>
        <time>2026-07-08T08:43:29.000Z</time>
      </trkpt>
      <trkpt lat="47.32133" lon="15.98683">
        <ele>413.065441</ele>
        <time>2026-07-08T08:43:30.000Z</time>
      </trkpt>
      <trkpt lat="47.32132" lon="15.98681">
        <ele>413.083881</ele>
        <time>2026-07-08T08:43:31.000Z</time>
      </trkpt>
      <trkpt lat="47.32132" lon="15.9868">
        <ele>413.099544</ele>
        <time>2026-07-08T08:43:32.000Z</time>
      </trkpt>
      <trkpt lat="47.32131" lon="15.98679">
        <ele>413.1188</ele>
        <time>2026-07-08T08:43:33.000Z</time>
      </trkpt>
      <trkpt lat="47.3213" lon="15.98678">
        <ele>413.134463</ele>
        <time>2026-07-08T08:43:34.000Z</time>
      </trkpt>
      <trkpt lat="47.32129" lon="15.98678">
        <ele>413.150235</ele>
        <time>2026-07-08T08:43:35.000Z</time>
      </trkpt>
      <trkpt lat="47.32128" lon="15.98677">
        <ele>413.164601</ele>
        <time>2026-07-08T08:43:36.000Z</time>
      </trkpt>
      <trkpt lat="47.32127" lon="15.98677">
        <ele>413.174894</ele>
        <time>2026-07-08T08:43:37.000Z</time>
      </trkpt>
      <trkpt lat="47.32127" lon="15.98676">
        <ele>413.178504</ele>
        <time>2026-07-08T08:43:38.000Z</time>
      </trkpt>
      <trkpt lat="47.32127" lon="15.98676">
        <ele>413.179516</ele>
        <time>2026-07-08T08:43:39.000Z</time>
      </trkpt>
      <trkpt lat="47.32127" lon="15.98676">
        <ele>413.179516</ele>
        <time>2026-07-08T08:47:17.000Z</time>
      </trkpt>
      <trkpt lat="47.32125" lon="15.98676">
        <ele>413.206404</ele>
        <time>2026-07-08T08:51:12.000Z</time>
      </trkpt>
      <trkpt lat="47.32126" lon="15.98675">
        <ele>413.224944</ele>
        <time>2026-07-08T08:51:13.000Z</time>
      </trkpt>
      <trkpt lat="47.32123" lon="15.98674">
        <ele>413.273426</ele>
        <time>2026-07-08T08:51:40.000Z</time>
      </trkpt>
      <trkpt lat="47.32121" lon="15.98673">
        <ele>413.300237</ele>
        <time>2026-07-08T08:51:41.000Z</time>
      </trkpt>
      <trkpt lat="47.3212" lon="15.98672">
        <ele>413.327966</ele>
        <time>2026-07-08T08:51:42.000Z</time>
      </trkpt>
      <trkpt lat="47.32118" lon="15.98671">
        <ele>413.350873</ele>
        <time>2026-07-08T08:51:43.000Z</time>
      </trkpt>
      <trkpt lat="47.32117" lon="15.9867">
        <ele>413.374108</ele>
        <time>2026-07-08T08:51:44.000Z</time>
      </trkpt>
      <trkpt lat="47.32115" lon="15.98669">
        <ele>413.397934</ele>
        <time>2026-07-08T08:51:45.000Z</time>
      </trkpt>
      <trkpt lat="47.32113" lon="15.98668">
        <ele>413.430185</ele>
        <time>2026-07-08T08:51:46.000Z</time>
      </trkpt>
      <trkpt lat="47.32111" lon="15.98666">
        <ele>413.467632</ele>
        <time>2026-07-08T08:51:47.000Z</time>
      </trkpt>
      <trkpt lat="47.32109" lon="15.98665">
        <ele>413.51658</ele>
        <time>2026-07-08T08:51:48.000Z</time>
      </trkpt>
      <trkpt lat="47.32107" lon="15.98663">
        <ele>413.566606</ele>
        <time>2026-07-08T08:51:49.000Z</time>
      </trkpt>
      <trkpt lat="47.32104" lon="15.98662">
        <ele>413.620762</ele>
        <time>2026-07-08T08:51:50.000Z</time>
      </trkpt>
      <trkpt lat="47.32102" lon="15.9866">
        <ele>413.673857</ele>
        <time>2026-07-08T08:51:51.000Z</time>
      </trkpt>
      <trkpt lat="47.32099" lon="15.98659">
        <ele>413.726952</ele>
        <time>2026-07-08T08:51:52.000Z</time>
      </trkpt>
      <trkpt lat="47.32097" lon="15.98657">
        <ele>413.779328</ele>
        <time>2026-07-08T08:51:53.000Z</time>
      </trkpt>
      <trkpt lat="47.32094" lon="15.98656">
        <ele>413.830651</ele>
        <time>2026-07-08T08:51:54.000Z</time>
      </trkpt>
      <trkpt lat="47.32092" lon="15.98655">
        <ele>413.882371</ele>
        <time>2026-07-08T08:51:55.000Z</time>
      </trkpt>
      <trkpt lat="47.3209" lon="15.98653">
        <ele>413.930366</ele>
        <time>2026-07-08T08:51:56.000Z</time>
      </trkpt>
      <trkpt lat="47.32087" lon="15.98652">
        <ele>413.976064</ele>
        <time>2026-07-08T08:51:57.000Z</time>
      </trkpt>
      <trkpt lat="47.32085" lon="15.98651">
        <ele>414.020369</ele>
        <time>2026-07-08T08:51:58.000Z</time>
      </trkpt>
      <trkpt lat="47.32083" lon="15.98649">
        <ele>414.065779</ele>
        <time>2026-07-08T08:51:59.000Z</time>
      </trkpt>
      <trkpt lat="47.32081" lon="15.98648">
        <ele>414.108775</ele>
        <time>2026-07-08T08:52:00.000Z</time>
      </trkpt>
      <trkpt lat="47.32079" lon="15.98647">
        <ele>414.151251</ele>
        <time>2026-07-08T08:52:01.000Z</time>
      </trkpt>
      <trkpt lat="47.32077" lon="15.98646">
        <ele>414.201548</ele>
        <time>2026-07-08T08:52:02.000Z</time>
      </trkpt>
      <trkpt lat="47.32075" lon="15.98644">
        <ele>414.249329</ele>
        <time>2026-07-08T08:52:03.000Z</time>
      </trkpt>
      <trkpt lat="47.32072" lon="15.98642">
        <ele>414.300607</ele>
        <time>2026-07-08T08:52:04.000Z</time>
      </trkpt>
      <trkpt lat="47.3207" lon="15.98641">
        <ele>414.353213</ele>
        <time>2026-07-08T08:52:05.000Z</time>
      </trkpt>
      <trkpt lat="47.32067" lon="15.98639">
        <ele>414.408635</ele>
        <time>2026-07-08T08:52:06.000Z</time>
      </trkpt>
      <trkpt lat="47.32065" lon="15.98637">
        <ele>414.463961</ele>
        <time>2026-07-08T08:52:07.000Z</time>
      </trkpt>
      <trkpt lat="47.32062" lon="15.98635">
        <ele>414.523398</ele>
        <time>2026-07-08T08:52:08.000Z</time>
      </trkpt>
      <trkpt lat="47.32059" lon="15.98633">
        <ele>414.584735</ele>
        <time>2026-07-08T08:52:09.000Z</time>
      </trkpt>
      <trkpt lat="47.32057" lon="15.98631">
        <ele>414.642698</ele>
        <time>2026-07-08T08:52:10.000Z</time>
      </trkpt>
      <trkpt lat="47.32054" lon="15.98629">
        <ele>414.698648</ele>
        <time>2026-07-08T08:52:11.000Z</time>
      </trkpt>
      <trkpt lat="47.32051" lon="15.98627">
        <ele>414.764557</ele>
        <time>2026-07-08T08:52:12.000Z</time>
      </trkpt>
      <trkpt lat="47.32048" lon="15.98624">
        <ele>414.834061</ele>
        <time>2026-07-08T08:52:13.000Z</time>
      </trkpt>
      <trkpt lat="47.32045" lon="15.98622">
        <ele>414.908798</ele>
        <time>2026-07-08T08:52:14.000Z</time>
      </trkpt>
      <trkpt lat="47.32041" lon="15.98619">
        <ele>414.988432</ele>
        <time>2026-07-08T08:52:15.000Z</time>
      </trkpt>
      <trkpt lat="47.32038" lon="15.98616">
        <ele>415.064691</ele>
        <time>2026-07-08T08:52:16.000Z</time>
      </trkpt>
      <trkpt lat="47.32035" lon="15.98613">
        <ele>415.144326</ele>
        <time>2026-07-08T08:52:17.000Z</time>
      </trkpt>
      <trkpt lat="47.32031" lon="15.98609">
        <ele>415.228703</ele>
        <time>2026-07-08T08:52:18.000Z</time>
      </trkpt>
      <trkpt lat="47.32027" lon="15.98606">
        <ele>415.310045</ele>
        <time>2026-07-08T08:52:19.000Z</time>
      </trkpt>
      <trkpt lat="47.32023" lon="15.98603">
        <ele>415.396574</ele>
        <time>2026-07-08T08:52:20.000Z</time>
      </trkpt>
      <trkpt lat="47.3202" lon="15.98601">
        <ele>415.478981</ele>
        <time>2026-07-08T08:52:21.000Z</time>
      </trkpt>
      <trkpt lat="47.32016" lon="15.98598">
        <ele>415.561408</ele>
        <time>2026-07-08T08:52:22.000Z</time>
      </trkpt>
      <trkpt lat="47.32012" lon="15.98595">
        <ele>415.641471</ele>
        <time>2026-07-08T08:52:23.000Z</time>
      </trkpt>
      <trkpt lat="47.32009" lon="15.98592">
        <ele>415.717435</ele>
        <time>2026-07-08T08:52:24.000Z</time>
      </trkpt>
      <trkpt lat="47.32006" lon="15.9859">
        <ele>415.790417</ele>
        <time>2026-07-08T08:52:25.000Z</time>
      </trkpt>
      <trkpt lat="47.32003" lon="15.98588">
        <ele>415.85693</ele>
        <time>2026-07-08T08:52:26.000Z</time>
      </trkpt>
      <trkpt lat="47.32" lon="15.98586">
        <ele>415.920644</ele>
        <time>2026-07-08T08:52:27.000Z</time>
      </trkpt>
      <trkpt lat="47.31997" lon="15.98584">
        <ele>415.98541</ele>
        <time>2026-07-08T08:52:28.000Z</time>
      </trkpt>
      <trkpt lat="47.31994" lon="15.98581">
        <ele>416.052549</ele>
        <time>2026-07-08T08:52:29.000Z</time>
      </trkpt>
      <trkpt lat="47.31991" lon="15.98579">
        <ele>416.121</ele>
        <time>2026-07-08T08:52:30.000Z</time>
      </trkpt>
      <trkpt lat="47.31987" lon="15.98576">
        <ele>416.191623</ele>
        <time>2026-07-08T08:52:31.000Z</time>
      </trkpt>
      <trkpt lat="47.31984" lon="15.98574">
        <ele>416.263425</ele>
        <time>2026-07-08T08:52:32.000Z</time>
      </trkpt>
      <trkpt lat="47.31981" lon="15.98572">
        <ele>416.333453</ele>
        <time>2026-07-08T08:52:33.000Z</time>
      </trkpt>
      <trkpt lat="47.31978" lon="15.98569">
        <ele>416.400592</ele>
        <time>2026-07-08T08:52:34.000Z</time>
      </trkpt>
      <trkpt lat="47.31975" lon="15.98567">
        <ele>416.472394</ele>
        <time>2026-07-08T08:52:35.000Z</time>
      </trkpt>
      <trkpt lat="47.31971" lon="15.98565">
        <ele>416.541849</ele>
        <time>2026-07-08T08:52:36.000Z</time>
      </trkpt>
      <trkpt lat="47.31968" lon="15.98563">
        <ele>416.608958</ele>
        <time>2026-07-08T08:52:37.000Z</time>
      </trkpt>
      <trkpt lat="47.31965" lon="15.98561">
        <ele>416.674868</ele>
        <time>2026-07-08T08:52:38.000Z</time>
      </trkpt>
      <trkpt lat="47.31962" lon="15.98559">
        <ele>416.743238</ele>
        <time>2026-07-08T08:52:39.000Z</time>
      </trkpt>
      <trkpt lat="47.31959" lon="15.98556">
        <ele>416.809148</ele>
        <time>2026-07-08T08:52:40.000Z</time>
      </trkpt>
      <trkpt lat="47.31956" lon="15.98554">
        <ele>416.879176</ele>
        <time>2026-07-08T08:52:41.000Z</time>
      </trkpt>
      <trkpt lat="47.31953" lon="15.98552">
        <ele>416.94569</ele>
        <time>2026-07-08T08:52:42.000Z</time>
      </trkpt>
      <trkpt lat="47.3195" lon="15.9855">
        <ele>417.015429</ele>
        <time>2026-07-08T08:52:43.000Z</time>
      </trkpt>
      <trkpt lat="47.31947" lon="15.98548">
        <ele>417.085447</ele>
        <time>2026-07-08T08:52:44.000Z</time>
      </trkpt>
      <trkpt lat="47.31944" lon="15.98546">
        <ele>417.147609</ele>
        <time>2026-07-08T08:52:45.000Z</time>
      </trkpt>
      <trkpt lat="47.31942" lon="15.98545">
        <ele>417.211271</ele>
        <time>2026-07-08T08:52:46.000Z</time>
      </trkpt>
      <trkpt lat="47.31939" lon="15.98543">
        <ele>417.268036</ele>
        <time>2026-07-08T08:52:47.000Z</time>
      </trkpt>
      <trkpt lat="47.31937" lon="15.98541">
        <ele>417.331187</ele>
        <time>2026-07-08T08:52:48.000Z</time>
      </trkpt>
      <trkpt lat="47.31935" lon="15.98538">
        <ele>417.39101</ele>
        <time>2026-07-08T08:52:49.000Z</time>
      </trkpt>
      <trkpt lat="47.31933" lon="15.98536">
        <ele>417.440305</ele>
        <time>2026-07-08T08:52:50.000Z</time>
      </trkpt>
      <trkpt lat="47.31932" lon="15.98533">
        <ele>417.493273</ele>
        <time>2026-07-08T08:52:51.000Z</time>
      </trkpt>
      <trkpt lat="47.3193" lon="15.98531">
        <ele>417.542811</ele>
        <time>2026-07-08T08:52:52.000Z</time>
      </trkpt>
      <trkpt lat="47.31929" lon="15.98527">
        <ele>417.598827</ele>
        <time>2026-07-08T08:52:53.000Z</time>
      </trkpt>
      <trkpt lat="47.31927" lon="15.98524">
        <ele>417.665687</ele>
        <time>2026-07-08T08:52:54.000Z</time>
      </trkpt>
      <trkpt lat="47.31925" lon="15.9852">
        <ele>417.73787</ele>
        <time>2026-07-08T08:52:55.000Z</time>
      </trkpt>
      <trkpt lat="47.31923" lon="15.98516">
        <ele>417.813923</ele>
        <time>2026-07-08T08:52:56.000Z</time>
      </trkpt>
      <trkpt lat="47.3192" lon="15.98513">
        <ele>417.897586</ele>
        <time>2026-07-08T08:52:57.000Z</time>
      </trkpt>
      <trkpt lat="47.31916" lon="15.98511">
        <ele>417.986612</ele>
        <time>2026-07-08T08:52:58.000Z</time>
      </trkpt>
      <trkpt lat="47.31912" lon="15.9851">
        <ele>418.075933</ele>
        <time>2026-07-08T08:52:59.000Z</time>
      </trkpt>
      <trkpt lat="47.31908" lon="15.98508">
        <ele>418.162732</ele>
        <time>2026-07-08T08:53:00.000Z</time>
      </trkpt>
      <trkpt lat="47.31904" lon="15.98507">
        <ele>418.253802</ele>
        <time>2026-07-08T08:53:01.000Z</time>
      </trkpt>
      <trkpt lat="47.319" lon="15.98505">
        <ele>418.339312</ele>
        <time>2026-07-08T08:53:02.000Z</time>
      </trkpt>
      <trkpt lat="47.31897" lon="15.98503">
        <ele>418.418035</ele>
        <time>2026-07-08T08:53:03.000Z</time>
      </trkpt>
      <trkpt lat="47.31894" lon="15.98501">
        <ele>418.496757</ele>
        <time>2026-07-08T08:53:04.000Z</time>
      </trkpt>
      <trkpt lat="47.31891" lon="15.98499">
        <ele>418.572326</ele>
        <time>2026-07-08T08:53:05.000Z</time>
      </trkpt>
      <trkpt lat="47.31887" lon="15.98497">
        <ele>418.649012</ele>
        <time>2026-07-08T08:53:06.000Z</time>
      </trkpt>
      <trkpt lat="47.31884" lon="15.98495">
        <ele>418.722937</ele>
        <time>2026-07-08T08:53:07.000Z</time>
      </trkpt>
      <trkpt lat="47.31881" lon="15.98493">
        <ele>418.79754</ele>
        <time>2026-07-08T08:53:08.000Z</time>
      </trkpt>
      <trkpt lat="47.31878" lon="15.98491">
        <ele>418.873448</ele>
        <time>2026-07-08T08:53:09.000Z</time>
      </trkpt>
      <trkpt lat="47.31875" lon="15.98488">
        <ele>418.948051</ele>
        <time>2026-07-08T08:53:10.000Z</time>
      </trkpt>
      <trkpt lat="47.31872" lon="15.98486">
        <ele>419.02408</ele>
        <time>2026-07-08T08:53:11.000Z</time>
      </trkpt>
      <trkpt lat="47.31869" lon="15.98483">
        <ele>419.099385</ele>
        <time>2026-07-08T08:53:12.000Z</time>
      </trkpt>
      <trkpt lat="47.31866" lon="15.98481">
        <ele>419.173988</ele>
        <time>2026-07-08T08:53:13.000Z</time>
      </trkpt>
      <trkpt lat="47.31863" lon="15.98479">
        <ele>419.247914</ele>
        <time>2026-07-08T08:53:14.000Z</time>
      </trkpt>
      <trkpt lat="47.3186" lon="15.98477">
        <ele>419.321185</ele>
        <time>2026-07-08T08:53:15.000Z</time>
      </trkpt>
      <trkpt lat="47.31857" lon="15.98475">
        <ele>419.395111</ele>
        <time>2026-07-08T08:53:16.000Z</time>
      </trkpt>
      <trkpt lat="47.31854" lon="15.98472">
        <ele>419.473656</ele>
        <time>2026-07-08T08:53:17.000Z</time>
      </trkpt>
      <trkpt lat="47.31851" lon="15.9847">
        <ele>419.552868</ele>
        <time>2026-07-08T08:53:18.000Z</time>
      </trkpt>
      <trkpt lat="47.31848" lon="15.98468">
        <ele>419.629436</ele>
        <time>2026-07-08T08:53:19.000Z</time>
      </trkpt>
      <trkpt lat="47.31845" lon="15.98465">
        <ele>419.707982</ele>
        <time>2026-07-08T08:53:20.000Z</time>
      </trkpt>
      <trkpt lat="47.31841" lon="15.98463">
        <ele>419.786704</ele>
        <time>2026-07-08T08:53:21.000Z</time>
      </trkpt>
      <trkpt lat="47.31838" lon="15.98461">
        <ele>419.864606</ele>
        <time>2026-07-08T08:53:22.000Z</time>
      </trkpt>
      <trkpt lat="47.31835" lon="15.98459">
        <ele>419.93921</ele>
        <time>2026-07-08T08:53:23.000Z</time>
      </trkpt>
      <trkpt lat="47.31832" lon="15.98456">
        <ele>420.011429</ele>
        <time>2026-07-08T08:53:24.000Z</time>
      </trkpt>
      <trkpt lat="47.31829" lon="15.98454">
        <ele>420.084802</ele>
        <time>2026-07-08T08:53:25.000Z</time>
      </trkpt>
      <trkpt lat="47.31826" lon="15.98452">
        <ele>420.159405</ele>
        <time>2026-07-08T08:53:26.000Z</time>
      </trkpt>
      <trkpt lat="47.31824" lon="15.98449">
        <ele>420.230122</ele>
        <time>2026-07-08T08:53:27.000Z</time>
      </trkpt>
      <trkpt lat="47.31821" lon="15.98447">
        <ele>420.304048</ele>
        <time>2026-07-08T08:53:28.000Z</time>
      </trkpt>
      <trkpt lat="47.31818" lon="15.98445">
        <ele>420.374049</ele>
        <time>2026-07-08T08:53:29.000Z</time>
      </trkpt>
      <trkpt lat="47.31815" lon="15.98443">
        <ele>420.448653</ele>
        <time>2026-07-08T08:53:30.000Z</time>
      </trkpt>
      <trkpt lat="47.31812" lon="15.9844">
        <ele>420.523256</ele>
        <time>2026-07-08T08:53:31.000Z</time>
      </trkpt>
      <trkpt lat="47.31809" lon="15.98438">
        <ele>420.595212</ele>
        <time>2026-07-08T08:53:32.000Z</time>
      </trkpt>
      <trkpt lat="47.31806" lon="15.98436">
        <ele>420.665214</ele>
        <time>2026-07-08T08:53:33.000Z</time>
      </trkpt>
      <trkpt lat="47.31803" lon="15.98434">
        <ele>420.734525</ele>
        <time>2026-07-08T08:53:34.000Z</time>
      </trkpt>
      <trkpt lat="47.318" lon="15.98432">
        <ele>420.80845</ele>
        <time>2026-07-08T08:53:35.000Z</time>
      </trkpt>
      <trkpt lat="47.31797" lon="15.9843">
        <ele>420.879088</ele>
        <time>2026-07-08T08:53:36.000Z</time>
      </trkpt>
      <trkpt lat="47.31794" lon="15.98428">
        <ele>420.951731</ele>
        <time>2026-07-08T08:53:37.000Z</time>
      </trkpt>
      <trkpt lat="47.31791" lon="15.98425">
        <ele>421.025819</ele>
        <time>2026-07-08T08:53:38.000Z</time>
      </trkpt>
      <trkpt lat="47.31788" lon="15.98423">
        <ele>421.099259</ele>
        <time>2026-07-08T08:53:39.000Z</time>
      </trkpt>
      <trkpt lat="47.31785" lon="15.98421">
        <ele>421.174089</ele>
        <time>2026-07-08T08:53:40.000Z</time>
      </trkpt>
      <trkpt lat="47.31782" lon="15.98419">
        <ele>421.25217</ele>
        <time>2026-07-08T08:53:41.000Z</time>
      </trkpt>
      <trkpt lat="47.31779" lon="15.98417">
        <ele>421.326265</ele>
        <time>2026-07-08T08:53:42.000Z</time>
      </trkpt>
      <trkpt lat="47.31776" lon="15.98415">
        <ele>421.40499</ele>
        <time>2026-07-08T08:53:43.000Z</time>
      </trkpt>
      <trkpt lat="47.31773" lon="15.98412">
        <ele>421.479765</ele>
        <time>2026-07-08T08:53:44.000Z</time>
      </trkpt>
      <trkpt lat="47.3177" lon="15.9841">
        <ele>421.555243</ele>
        <time>2026-07-08T08:53:45.000Z</time>
      </trkpt>
      <trkpt lat="47.31767" lon="15.98408">
        <ele>421.631986</ele>
        <time>2026-07-08T08:53:46.000Z</time>
      </trkpt>
      <trkpt lat="47.31764" lon="15.98406">
        <ele>421.704796</ele>
        <time>2026-07-08T08:53:47.000Z</time>
      </trkpt>
      <trkpt lat="47.31761" lon="15.98404">
        <ele>421.776423</ele>
        <time>2026-07-08T08:53:48.000Z</time>
      </trkpt>
      <trkpt lat="47.31758" lon="15.98402">
        <ele>421.849232</ele>
        <time>2026-07-08T08:53:49.000Z</time>
      </trkpt>
      <trkpt lat="47.31755" lon="15.984">
        <ele>421.925522</ele>
        <time>2026-07-08T08:53:50.000Z</time>
      </trkpt>
      <trkpt lat="47.31752" lon="15.98398">
        <ele>421.997149</ele>
        <time>2026-07-08T08:53:51.000Z</time>
      </trkpt>
      <trkpt lat="47.31749" lon="15.98396">
        <ele>422.064699</ele>
        <time>2026-07-08T08:53:52.000Z</time>
      </trkpt>
      <trkpt lat="47.31746" lon="15.98394">
        <ele>422.134877</ele>
        <time>2026-07-08T08:53:53.000Z</time>
      </trkpt>
      <trkpt lat="47.31743" lon="15.98393">
        <ele>422.198397</ele>
        <time>2026-07-08T08:53:54.000Z</time>
      </trkpt>
      <trkpt lat="47.3174" lon="15.98391">
        <ele>422.267413</ele>
        <time>2026-07-08T08:53:55.000Z</time>
      </trkpt>
      <trkpt lat="47.31738" lon="15.98389">
        <ele>422.329718</ele>
        <time>2026-07-08T08:53:56.000Z</time>
      </trkpt>
      <trkpt lat="47.31735" lon="15.98387">
        <ele>422.392616</ele>
        <time>2026-07-08T08:53:57.000Z</time>
      </trkpt>
      <trkpt lat="47.31733" lon="15.98385">
        <ele>422.456998</ele>
        <time>2026-07-08T08:53:58.000Z</time>
      </trkpt>
      <trkpt lat="47.3173" lon="15.98383">
        <ele>422.51949</ele>
        <time>2026-07-08T08:53:59.000Z</time>
      </trkpt>
      <trkpt lat="47.31728" lon="15.98381">
        <ele>422.582389</ele>
        <time>2026-07-08T08:54:00.000Z</time>
      </trkpt>
      <trkpt lat="47.31725" lon="15.98379">
        <ele>422.645909</ele>
        <time>2026-07-08T08:54:01.000Z</time>
      </trkpt>
      <trkpt lat="47.31723" lon="15.98377">
        <ele>422.712728</ele>
        <time>2026-07-08T08:54:02.000Z</time>
      </trkpt>
      <trkpt lat="47.3172" lon="15.98375">
        <ele>422.775626</ele>
        <time>2026-07-08T08:54:03.000Z</time>
      </trkpt>
      <trkpt lat="47.31718" lon="15.98373">
        <ele>422.838525</ele>
        <time>2026-07-08T08:54:04.000Z</time>
      </trkpt>
      <trkpt lat="47.31715" lon="15.98371">
        <ele>422.907328</ele>
        <time>2026-07-08T08:54:05.000Z</time>
      </trkpt>
      <trkpt lat="47.31712" lon="15.98369">
        <ele>422.970226</ele>
        <time>2026-07-08T08:54:06.000Z</time>
      </trkpt>
      <trkpt lat="47.3171" lon="15.98367">
        <ele>423.034608</ele>
        <time>2026-07-08T08:54:07.000Z</time>
      </trkpt>
      <trkpt lat="47.31707" lon="15.98365">
        <ele>423.09896</ele>
        <time>2026-07-08T08:54:08.000Z</time>
      </trkpt>
      <trkpt lat="47.31704" lon="15.98364">
        <ele>423.165925</ele>
        <time>2026-07-08T08:54:09.000Z</time>
      </trkpt>
      <trkpt lat="47.31702" lon="15.98362">
        <ele>423.231454</ele>
        <time>2026-07-08T08:54:10.000Z</time>
      </trkpt>
      <trkpt lat="47.31699" lon="15.9836">
        <ele>423.297614</ele>
        <time>2026-07-08T08:54:11.000Z</time>
      </trkpt>
      <trkpt lat="47.31696" lon="15.98358">
        <ele>423.360513</ele>
        <time>2026-07-08T08:54:12.000Z</time>
      </trkpt>
      <trkpt lat="47.31694" lon="15.98356">
        <ele>423.425364</ele>
        <time>2026-07-08T08:54:13.000Z</time>
      </trkpt>
      <trkpt lat="47.31691" lon="15.98354">
        <ele>423.488262</ele>
        <time>2026-07-08T08:54:14.000Z</time>
      </trkpt>
      <trkpt lat="47.31689" lon="15.98352">
        <ele>423.553425</ele>
        <time>2026-07-08T08:54:15.000Z</time>
      </trkpt>
      <trkpt lat="47.31686" lon="15.98349">
        <ele>423.617807</ele>
        <time>2026-07-08T08:54:16.000Z</time>
      </trkpt>
      <trkpt lat="47.31684" lon="15.98347">
        <ele>423.684626</ele>
        <time>2026-07-08T08:54:17.000Z</time>
      </trkpt>
      <trkpt lat="47.31681" lon="15.98346">
        <ele>423.742209</ele>
        <time>2026-07-08T08:54:18.000Z</time>
      </trkpt>
      <trkpt lat="47.31679" lon="15.98344">
        <ele>423.807135</ele>
        <time>2026-07-08T08:54:19.000Z</time>
      </trkpt>
      <trkpt lat="47.31676" lon="15.98342">
        <ele>423.870033</ele>
        <time>2026-07-08T08:54:20.000Z</time>
      </trkpt>
      <trkpt lat="47.31673" lon="15.9834">
        <ele>423.938989</ele>
        <time>2026-07-08T08:54:21.000Z</time>
      </trkpt>
      <trkpt lat="47.31671" lon="15.98337">
        <ele>424.006039</ele>
        <time>2026-07-08T08:54:22.000Z</time>
      </trkpt>
      <trkpt lat="47.31668" lon="15.98335">
        <ele>424.07816</ele>
        <time>2026-07-08T08:54:23.000Z</time>
      </trkpt>
      <trkpt lat="47.31665" lon="15.98333">
        <ele>424.146964</ele>
        <time>2026-07-08T08:54:24.000Z</time>
      </trkpt>
      <trkpt lat="47.31662" lon="15.98331">
        <ele>424.212492</ele>
        <time>2026-07-08T08:54:25.000Z</time>
      </trkpt>
      <trkpt lat="47.3166" lon="15.98329">
        <ele>424.27469</ele>
        <time>2026-07-08T08:54:26.000Z</time>
      </trkpt>
      <trkpt lat="47.31657" lon="15.98328">
        <ele>424.33821</ele>
        <time>2026-07-08T08:54:27.000Z</time>
      </trkpt>
      <trkpt lat="47.31655" lon="15.98325">
        <ele>424.407166</ele>
        <time>2026-07-08T08:54:28.000Z</time>
      </trkpt>
      <trkpt lat="47.31652" lon="15.98323">
        <ele>424.477328</ele>
        <time>2026-07-08T08:54:29.000Z</time>
      </trkpt>
      <trkpt lat="47.31649" lon="15.98321">
        <ele>424.545546</ele>
        <time>2026-07-08T08:54:30.000Z</time>
      </trkpt>
      <trkpt lat="47.31646" lon="15.98319">
        <ele>424.612366</ele>
        <time>2026-07-08T08:54:31.000Z</time>
      </trkpt>
      <trkpt lat="47.31644" lon="15.98317">
        <ele>424.675265</ele>
        <time>2026-07-08T08:54:32.000Z</time>
      </trkpt>
      <trkpt lat="47.31642" lon="15.98315">
        <ele>424.731375</ele>
        <time>2026-07-08T08:54:33.000Z</time>
      </trkpt>
      <trkpt lat="47.31639" lon="15.98312">
        <ele>424.797344</ele>
        <time>2026-07-08T08:54:34.000Z</time>
      </trkpt>
      <trkpt lat="47.31637" lon="15.9831">
        <ele>424.867847</ele>
        <time>2026-07-08T08:54:35.000Z</time>
      </trkpt>
      <trkpt lat="47.31634" lon="15.98307">
        <ele>424.93473</ele>
        <time>2026-07-08T08:54:36.000Z</time>
      </trkpt>
      <trkpt lat="47.31631" lon="15.98305">
        <ele>424.95456</ele>
        <time>2026-07-08T08:54:37.000Z</time>
      </trkpt>
      <trkpt lat="47.31628" lon="15.98302">
        <ele>424.973914</ele>
        <time>2026-07-08T08:54:38.000Z</time>
      </trkpt>
      <trkpt lat="47.31625" lon="15.98299">
        <ele>424.994021</ele>
        <time>2026-07-08T08:54:39.000Z</time>
      </trkpt>
      <trkpt lat="47.31622" lon="15.98296">
        <ele>425.014128</ele>
        <time>2026-07-08T08:54:40.000Z</time>
      </trkpt>
      <trkpt lat="47.31619" lon="15.98294">
        <ele>425.033472</ele>
        <time>2026-07-08T08:54:41.000Z</time>
      </trkpt>
      <trkpt lat="47.31616" lon="15.98292">
        <ele>425.052816</ele>
        <time>2026-07-08T08:54:42.000Z</time>
      </trkpt>
      <trkpt lat="47.31613" lon="15.98289">
        <ele>425.073355</ele>
        <time>2026-07-08T08:54:43.000Z</time>
      </trkpt>
      <trkpt lat="47.3161" lon="15.98287">
        <ele>425.093209</ele>
        <time>2026-07-08T08:54:44.000Z</time>
      </trkpt>
      <trkpt lat="47.31607" lon="15.98284">
        <ele>425.114301</ele>
        <time>2026-07-08T08:54:45.000Z</time>
      </trkpt>
      <trkpt lat="47.31604" lon="15.98282">
        <ele>425.134015</ele>
        <time>2026-07-08T08:54:46.000Z</time>
      </trkpt>
      <trkpt lat="47.316" lon="15.9828">
        <ele>425.154381</ele>
        <time>2026-07-08T08:54:47.000Z</time>
      </trkpt>
      <trkpt lat="47.31597" lon="15.98277">
        <ele>425.174235</ele>
        <time>2026-07-08T08:54:48.000Z</time>
      </trkpt>
      <trkpt lat="47.31594" lon="15.98275">
        <ele>425.194952</ele>
        <time>2026-07-08T08:54:49.000Z</time>
      </trkpt>
      <trkpt lat="47.31591" lon="15.98272">
        <ele>425.216003</ele>
        <time>2026-07-08T08:54:50.000Z</time>
      </trkpt>
      <trkpt lat="47.31587" lon="15.9827">
        <ele>425.237092</ele>
        <time>2026-07-08T08:54:51.000Z</time>
      </trkpt>
      <trkpt lat="47.31584" lon="15.98268">
        <ele>425.257812</ele>
        <time>2026-07-08T08:54:52.000Z</time>
      </trkpt>
      <trkpt lat="47.31581" lon="15.98266">
        <ele>425.279037</ele>
        <time>2026-07-08T08:54:53.000Z</time>
      </trkpt>
      <trkpt lat="47.31577" lon="15.98263">
        <ele>425.300773</ele>
        <time>2026-07-08T08:54:54.000Z</time>
      </trkpt>
      <trkpt lat="47.31574" lon="15.98261">
        <ele>425.321998</ele>
        <time>2026-07-08T08:54:55.000Z</time>
      </trkpt>
      <trkpt lat="47.31571" lon="15.98258">
        <ele>425.344247</ele>
        <time>2026-07-08T08:54:56.000Z</time>
      </trkpt>
      <trkpt lat="47.31567" lon="15.98256">
        <ele>425.366496</ele>
        <time>2026-07-08T08:54:57.000Z</time>
      </trkpt>
      <trkpt lat="47.31564" lon="15.98253">
        <ele>425.388277</ele>
        <time>2026-07-08T08:54:58.000Z</time>
      </trkpt>
      <trkpt lat="47.31561" lon="15.9825">
        <ele>425.410397</ele>
        <time>2026-07-08T08:54:59.000Z</time>
      </trkpt>
      <trkpt lat="47.31557" lon="15.98246">
        <ele>425.433189</ele>
        <time>2026-07-08T08:55:00.000Z</time>
      </trkpt>
      <trkpt lat="47.31554" lon="15.98242">
        <ele>425.456005</ele>
        <time>2026-07-08T08:55:01.000Z</time>
      </trkpt>
      <trkpt lat="47.31551" lon="15.98239">
        <ele>425.477416</ele>
        <time>2026-07-08T08:55:02.000Z</time>
      </trkpt>
      <trkpt lat="47.31548" lon="15.98235">
        <ele>425.49979</ele>
        <time>2026-07-08T08:55:03.000Z</time>
      </trkpt>
      <trkpt lat="47.31545" lon="15.98232">
        <ele>425.521917</ele>
        <time>2026-07-08T08:55:04.000Z</time>
      </trkpt>
      <trkpt lat="47.31542" lon="15.98228">
        <ele>425.543801</ele>
        <time>2026-07-08T08:55:05.000Z</time>
      </trkpt>
      <trkpt lat="47.3154" lon="15.98225">
        <ele>425.563617</ele>
        <time>2026-07-08T08:55:06.000Z</time>
      </trkpt>
      <trkpt lat="47.31537" lon="15.98222">
        <ele>425.582757</ele>
        <time>2026-07-08T08:55:07.000Z</time>
      </trkpt>
      <trkpt lat="47.31534" lon="15.9822">
        <ele>425.600996</ele>
        <time>2026-07-08T08:55:08.000Z</time>
      </trkpt>
      <trkpt lat="47.31531" lon="15.98217">
        <ele>425.620796</ele>
        <time>2026-07-08T08:55:09.000Z</time>
      </trkpt>
      <trkpt lat="47.31529" lon="15.98213">
        <ele>425.641362</ele>
        <time>2026-07-08T08:55:10.000Z</time>
      </trkpt>
      <trkpt lat="47.31526" lon="15.98209">
        <ele>425.661706</ele>
        <time>2026-07-08T08:55:11.000Z</time>
      </trkpt>
      <trkpt lat="47.31524" lon="15.98205">
        <ele>425.683226</ele>
        <time>2026-07-08T08:55:12.000Z</time>
      </trkpt>
      <trkpt lat="47.31522" lon="15.982">
        <ele>425.705062</ele>
        <time>2026-07-08T08:55:13.000Z</time>
      </trkpt>
      <trkpt lat="47.3152" lon="15.98196">
        <ele>425.726895</ele>
        <time>2026-07-08T08:55:14.000Z</time>
      </trkpt>
      <trkpt lat="47.31518" lon="15.98191">
        <ele>425.74937</ele>
        <time>2026-07-08T08:55:15.000Z</time>
      </trkpt>
      <trkpt lat="47.31515" lon="15.98186">
        <ele>425.771853</ele>
        <time>2026-07-08T08:55:16.000Z</time>
      </trkpt>
      <trkpt lat="47.31513" lon="15.98181">
        <ele>425.794677</ele>
        <time>2026-07-08T08:55:17.000Z</time>
      </trkpt>
      <trkpt lat="47.31511" lon="15.98177">
        <ele>425.816847</ele>
        <time>2026-07-08T08:55:18.000Z</time>
      </trkpt>
      <trkpt lat="47.31508" lon="15.98172">
        <ele>425.839644</ele>
        <time>2026-07-08T08:55:19.000Z</time>
      </trkpt>
      <trkpt lat="47.31506" lon="15.98167">
        <ele>425.863081</ele>
        <time>2026-07-08T08:55:20.000Z</time>
      </trkpt>
      <trkpt lat="47.31504" lon="15.98162">
        <ele>425.88656</ele>
        <time>2026-07-08T08:55:21.000Z</time>
      </trkpt>
      <trkpt lat="47.31501" lon="15.98157">
        <ele>425.910038</ele>
        <time>2026-07-08T08:55:22.000Z</time>
      </trkpt>
      <trkpt lat="47.31499" lon="15.98152">
        <ele>425.933156</ele>
        <time>2026-07-08T08:55:23.000Z</time>
      </trkpt>
      <trkpt lat="47.31496" lon="15.98148">
        <ele>425.95629</ele>
        <time>2026-07-08T08:55:24.000Z</time>
      </trkpt>
      <trkpt lat="47.31494" lon="15.98143">
        <ele>425.934571</ele>
        <time>2026-07-08T08:55:25.000Z</time>
      </trkpt>
      <trkpt lat="47.31492" lon="15.98138">
        <ele>425.900144</ele>
        <time>2026-07-08T08:55:26.000Z</time>
      </trkpt>
      <trkpt lat="47.31489" lon="15.98134">
        <ele>425.866727</ele>
        <time>2026-07-08T08:55:27.000Z</time>
      </trkpt>
      <trkpt lat="47.31487" lon="15.98129">
        <ele>425.834316</ele>
        <time>2026-07-08T08:55:28.000Z</time>
      </trkpt>
      <trkpt lat="47.31485" lon="15.98125">
        <ele>425.801906</ele>
        <time>2026-07-08T08:55:29.000Z</time>
      </trkpt>
      <trkpt lat="47.31483" lon="15.9812">
        <ele>425.769001</ele>
        <time>2026-07-08T08:55:30.000Z</time>
      </trkpt>
      <trkpt lat="47.31481" lon="15.98116">
        <ele>425.733559</ele>
        <time>2026-07-08T08:55:31.000Z</time>
      </trkpt>
      <trkpt lat="47.31479" lon="15.98111">
        <ele>425.698155</ele>
        <time>2026-07-08T08:55:32.000Z</time>
      </trkpt>
      <trkpt lat="47.31476" lon="15.98106">
        <ele>425.663753</ele>
        <time>2026-07-08T08:55:33.000Z</time>
      </trkpt>
      <trkpt lat="47.31474" lon="15.98101">
        <ele>425.628785</ele>
        <time>2026-07-08T08:55:34.000Z</time>
      </trkpt>
      <trkpt lat="47.31473" lon="15.98096">
        <ele>425.59384</ele>
        <time>2026-07-08T08:55:35.000Z</time>
      </trkpt>
      <trkpt lat="47.31471" lon="15.9809">
        <ele>425.559017</ele>
        <time>2026-07-08T08:55:36.000Z</time>
      </trkpt>
      <trkpt lat="47.3147" lon="15.98085">
        <ele>425.522969</ele>
        <time>2026-07-08T08:55:37.000Z</time>
      </trkpt>
      <trkpt lat="47.3147" lon="15.98079">
        <ele>425.486557</ele>
        <time>2026-07-08T08:55:38.000Z</time>
      </trkpt>
      <trkpt lat="47.3147" lon="15.98072">
        <ele>425.448599</ele>
        <time>2026-07-08T08:55:39.000Z</time>
      </trkpt>
      <trkpt lat="47.3147" lon="15.98066">
        <ele>425.409683</ele>
        <time>2026-07-08T08:55:40.000Z</time>
      </trkpt>
      <trkpt lat="47.31472" lon="15.9806">
        <ele>425.370598</ele>
        <time>2026-07-08T08:55:41.000Z</time>
      </trkpt>
      <trkpt lat="47.31474" lon="15.98054">
        <ele>425.32869</ele>
        <time>2026-07-08T08:55:42.000Z</time>
      </trkpt>
      <trkpt lat="47.31477" lon="15.98048">
        <ele>425.286245</ele>
        <time>2026-07-08T08:55:43.000Z</time>
      </trkpt>
      <trkpt lat="47.31481" lon="15.98043">
        <ele>425.243343</ele>
        <time>2026-07-08T08:55:44.000Z</time>
      </trkpt>
      <trkpt lat="47.31484" lon="15.98038">
        <ele>425.199565</ele>
        <time>2026-07-08T08:55:45.000Z</time>
      </trkpt>
      <trkpt lat="47.31488" lon="15.98034">
        <ele>425.156852</ele>
        <time>2026-07-08T08:55:46.000Z</time>
      </trkpt>
      <trkpt lat="47.31491" lon="15.98029">
        <ele>425.1148</ele>
        <time>2026-07-08T08:55:47.000Z</time>
      </trkpt>
      <trkpt lat="47.31495" lon="15.98025">
        <ele>425.074331</ele>
        <time>2026-07-08T08:55:48.000Z</time>
      </trkpt>
      <trkpt lat="47.31498" lon="15.9802">
        <ele>425.03493</ele>
        <time>2026-07-08T08:55:49.000Z</time>
      </trkpt>
      <trkpt lat="47.31501" lon="15.98016">
        <ele>424.998594</ele>
        <time>2026-07-08T08:55:50.000Z</time>
      </trkpt>
      <trkpt lat="47.31504" lon="15.98012">
        <ele>424.964379</ele>
        <time>2026-07-08T08:55:51.000Z</time>
      </trkpt>
      <trkpt lat="47.31507" lon="15.98009">
        <ele>424.93002</ele>
        <time>2026-07-08T08:55:52.000Z</time>
      </trkpt>
      <trkpt lat="47.3151" lon="15.98005">
        <ele>424.894492</ele>
        <time>2026-07-08T08:55:53.000Z</time>
      </trkpt>
      <trkpt lat="47.31513" lon="15.98001">
        <ele>424.860132</ele>
        <time>2026-07-08T08:55:54.000Z</time>
      </trkpt>
      <trkpt lat="47.31516" lon="15.97998">
        <ele>424.826149</ele>
        <time>2026-07-08T08:55:55.000Z</time>
      </trkpt>
      <trkpt lat="47.31519" lon="15.97994">
        <ele>424.792537</ele>
        <time>2026-07-08T08:55:56.000Z</time>
      </trkpt>
      <trkpt lat="47.31522" lon="15.97991">
        <ele>424.759288</ele>
        <time>2026-07-08T08:55:57.000Z</time>
      </trkpt>
      <trkpt lat="47.31525" lon="15.97987">
        <ele>424.725889</ele>
        <time>2026-07-08T08:55:58.000Z</time>
      </trkpt>
      <trkpt lat="47.31528" lon="15.97984">
        <ele>424.691529</ele>
        <time>2026-07-08T08:55:59.000Z</time>
      </trkpt>
      <trkpt lat="47.31531" lon="15.9798">
        <ele>424.658786</ele>
        <time>2026-07-08T08:56:00.000Z</time>
      </trkpt>
      <trkpt lat="47.31533" lon="15.97976">
        <ele>424.626044</ele>
        <time>2026-07-08T08:56:01.000Z</time>
      </trkpt>
      <trkpt lat="47.31536" lon="15.97973">
        <ele>424.593043</ele>
        <time>2026-07-08T08:56:02.000Z</time>
      </trkpt>
      <trkpt lat="47.31539" lon="15.97969">
        <ele>424.559644</ele>
        <time>2026-07-08T08:56:03.000Z</time>
      </trkpt>
      <trkpt lat="47.31542" lon="15.97965">
        <ele>424.524901</ele>
        <time>2026-07-08T08:56:04.000Z</time>
      </trkpt>
      <trkpt lat="47.31545" lon="15.97962">
        <ele>424.490542</ele>
        <time>2026-07-08T08:56:05.000Z</time>
      </trkpt>
      <trkpt lat="47.31548" lon="15.97958">
        <ele>424.453662</ele>
        <time>2026-07-08T08:56:06.000Z</time>
      </trkpt>
      <trkpt lat="47.31551" lon="15.97954">
        <ele>424.417734</ele>
        <time>2026-07-08T08:56:07.000Z</time>
      </trkpt>
      <trkpt lat="47.31554" lon="15.9795">
        <ele>424.381398</ele>
        <time>2026-07-08T08:56:08.000Z</time>
      </trkpt>
      <trkpt lat="47.31557" lon="15.97946">
        <ele>424.291649</ele>
        <time>2026-07-08T08:56:09.000Z</time>
      </trkpt>
      <trkpt lat="47.3156" lon="15.97942">
        <ele>424.160284</ele>
        <time>2026-07-08T08:56:10.000Z</time>
      </trkpt>
      <trkpt lat="47.31563" lon="15.97938">
        <ele>424.045941</ele>
        <time>2026-07-08T08:56:11.000Z</time>
      </trkpt>
      <trkpt lat="47.31565" lon="15.97935">
        <ele>423.933169</ele>
        <time>2026-07-08T08:56:12.000Z</time>
      </trkpt>
      <trkpt lat="47.31567" lon="15.9793">
        <ele>423.823743</ele>
        <time>2026-07-08T08:56:13.000Z</time>
      </trkpt>
      <trkpt lat="47.31568" lon="15.97926">
        <ele>423.719918</ele>
        <time>2026-07-08T08:56:14.000Z</time>
      </trkpt>
      <trkpt lat="47.31567" lon="15.97921">
        <ele>423.615145</ele>
        <time>2026-07-08T08:56:15.000Z</time>
      </trkpt>
      <trkpt lat="47.31566" lon="15.97917">
        <ele>423.501696</ele>
        <time>2026-07-08T08:56:16.000Z</time>
      </trkpt>
      <trkpt lat="47.31563" lon="15.97912">
        <ele>423.376946</ele>
        <time>2026-07-08T08:56:17.000Z</time>
      </trkpt>
      <trkpt lat="47.3156" lon="15.97908">
        <ele>423.247223</ele>
        <time>2026-07-08T08:56:18.000Z</time>
      </trkpt>
      <trkpt lat="47.31557" lon="15.97904">
        <ele>423.103162</ele>
        <time>2026-07-08T08:56:19.000Z</time>
      </trkpt>
      <trkpt lat="47.31554" lon="15.979">
        <ele>422.960128</ele>
        <time>2026-07-08T08:56:20.000Z</time>
      </trkpt>
      <trkpt lat="47.3155" lon="15.97895">
        <ele>422.812163</ele>
        <time>2026-07-08T08:56:21.000Z</time>
      </trkpt>
      <trkpt lat="47.31546" lon="15.97891">
        <ele>422.656385</ele>
        <time>2026-07-08T08:56:22.000Z</time>
      </trkpt>
      <trkpt lat="47.31543" lon="15.97886">
        <ele>422.492428</ele>
        <time>2026-07-08T08:56:23.000Z</time>
      </trkpt>
      <trkpt lat="47.31539" lon="15.97881">
        <ele>422.320678</ele>
        <time>2026-07-08T08:56:24.000Z</time>
      </trkpt>
      <trkpt lat="47.31534" lon="15.97875">
        <ele>422.138236</ele>
        <time>2026-07-08T08:56:25.000Z</time>
      </trkpt>
      <trkpt lat="47.3153" lon="15.9787">
        <ele>421.945885</ele>
        <time>2026-07-08T08:56:26.000Z</time>
      </trkpt>
      <trkpt lat="47.31525" lon="15.97864">
        <ele>421.743274</ele>
        <time>2026-07-08T08:56:27.000Z</time>
      </trkpt>
      <trkpt lat="47.31519" lon="15.97859">
        <ele>421.519575</ele>
        <time>2026-07-08T08:56:28.000Z</time>
      </trkpt>
      <trkpt lat="47.31513" lon="15.97853">
        <ele>421.287746</ele>
        <time>2026-07-08T08:56:29.000Z</time>
      </trkpt>
      <trkpt lat="47.31507" lon="15.97847">
        <ele>421.046507</ele>
        <time>2026-07-08T08:56:30.000Z</time>
      </trkpt>
      <trkpt lat="47.315" lon="15.97842">
        <ele>420.791733</ele>
        <time>2026-07-08T08:56:31.000Z</time>
      </trkpt>
      <trkpt lat="47.31492" lon="15.97837">
        <ele>420.524376</ele>
        <time>2026-07-08T08:56:32.000Z</time>
      </trkpt>
      <trkpt lat="47.31484" lon="15.97832">
        <ele>420.239336</ele>
        <time>2026-07-08T08:56:33.000Z</time>
      </trkpt>
      <trkpt lat="47.31475" lon="15.97829">
        <ele>419.944385</ele>
        <time>2026-07-08T08:56:34.000Z</time>
      </trkpt>
      <trkpt lat="47.31466" lon="15.97827">
        <ele>419.625247</ele>
        <time>2026-07-08T08:56:35.000Z</time>
      </trkpt>
      <trkpt lat="47.31456" lon="15.97825">
        <ele>419.298734</ele>
        <time>2026-07-08T08:56:36.000Z</time>
      </trkpt>
      <trkpt lat="47.31445" lon="15.97825">
        <ele>418.957477</ele>
        <time>2026-07-08T08:56:37.000Z</time>
      </trkpt>
      <trkpt lat="47.31434" lon="15.97826">
        <ele>418.609455</ele>
        <time>2026-07-08T08:56:38.000Z</time>
      </trkpt>
      <trkpt lat="47.31424" lon="15.97828">
        <ele>418.184693</ele>
        <time>2026-07-08T08:56:39.000Z</time>
      </trkpt>
      <trkpt lat="47.31413" lon="15.97832">
        <ele>417.729798</ele>
        <time>2026-07-08T08:56:40.000Z</time>
      </trkpt>
      <trkpt lat="47.31402" lon="15.97837">
        <ele>417.270429</ele>
        <time>2026-07-08T08:56:41.000Z</time>
      </trkpt>
      <trkpt lat="47.31392" lon="15.97843">
        <ele>416.81616</ele>
        <time>2026-07-08T08:56:42.000Z</time>
      </trkpt>
      <trkpt lat="47.31381" lon="15.97848">
        <ele>416.352902</ele>
        <time>2026-07-08T08:56:43.000Z</time>
      </trkpt>
      <trkpt lat="47.3137" lon="15.97853">
        <ele>415.890909</ele>
        <time>2026-07-08T08:56:44.000Z</time>
      </trkpt>
      <trkpt lat="47.3136" lon="15.9786">
        <ele>415.435889</ele>
        <time>2026-07-08T08:56:45.000Z</time>
      </trkpt>
      <trkpt lat="47.3135" lon="15.97869">
        <ele>414.97613</ele>
        <time>2026-07-08T08:56:46.000Z</time>
      </trkpt>
      <trkpt lat="47.31342" lon="15.9788">
        <ele>414.530069</ele>
        <time>2026-07-08T08:56:47.000Z</time>
      </trkpt>
      <trkpt lat="47.31335" lon="15.97891">
        <ele>414.090379</ele>
        <time>2026-07-08T08:56:48.000Z</time>
      </trkpt>
      <trkpt lat="47.31329" lon="15.97904">
        <ele>413.665625</ele>
        <time>2026-07-08T08:56:49.000Z</time>
      </trkpt>
      <trkpt lat="47.31323" lon="15.97916">
        <ele>413.257531</ele>
        <time>2026-07-08T08:56:50.000Z</time>
      </trkpt>
      <trkpt lat="47.31318" lon="15.97928">
        <ele>412.870054</ele>
        <time>2026-07-08T08:56:51.000Z</time>
      </trkpt>
      <trkpt lat="47.31313" lon="15.97938">
        <ele>412.50079</ele>
        <time>2026-07-08T08:56:52.000Z</time>
      </trkpt>
      <trkpt lat="47.31307" lon="15.97948">
        <ele>412.151498</ele>
        <time>2026-07-08T08:56:53.000Z</time>
      </trkpt>
      <trkpt lat="47.31301" lon="15.97955">
        <ele>411.817747</ele>
        <time>2026-07-08T08:56:54.000Z</time>
      </trkpt>
      <trkpt lat="47.31294" lon="15.9796">
        <ele>411.520789</ele>
        <time>2026-07-08T08:56:55.000Z</time>
      </trkpt>
      <trkpt lat="47.31288" lon="15.97962">
        <ele>411.248352</ele>
        <time>2026-07-08T08:56:56.000Z</time>
      </trkpt>
      <trkpt lat="47.31281" lon="15.97961">
        <ele>410.9556</ele>
        <time>2026-07-08T08:56:57.000Z</time>
      </trkpt>
      <trkpt lat="47.31275" lon="15.97957">
        <ele>410.673484</ele>
        <time>2026-07-08T08:56:58.000Z</time>
      </trkpt>
      <trkpt lat="47.31269" lon="15.97947">
        <ele>410.259623</ele>
        <time>2026-07-08T08:56:59.000Z</time>
      </trkpt>
      <trkpt lat="47.31265" lon="15.97935">
        <ele>409.846325</ele>
        <time>2026-07-08T08:57:00.000Z</time>
      </trkpt>
      <trkpt lat="47.3126" lon="15.97922">
        <ele>409.422437</ele>
        <time>2026-07-08T08:57:01.000Z</time>
      </trkpt>
      <trkpt lat="47.31254" lon="15.97911">
        <ele>409.002774</ele>
        <time>2026-07-08T08:57:02.000Z</time>
      </trkpt>
      <trkpt lat="47.31247" lon="15.97902">
        <ele>408.585992</ele>
        <time>2026-07-08T08:57:03.000Z</time>
      </trkpt>
      <trkpt lat="47.31239" lon="15.97897">
        <ele>408.193636</ele>
        <time>2026-07-08T08:57:04.000Z</time>
      </trkpt>
      <trkpt lat="47.31231" lon="15.97894">
        <ele>407.825772</ele>
        <time>2026-07-08T08:57:05.000Z</time>
      </trkpt>
      <trkpt lat="47.31223" lon="15.97895">
        <ele>407.446726</ele>
        <time>2026-07-08T08:57:06.000Z</time>
      </trkpt>
      <trkpt lat="47.31214" lon="15.97899">
        <ele>407.031403</ele>
        <time>2026-07-08T08:57:07.000Z</time>
      </trkpt>
      <trkpt lat="47.31205" lon="15.97903">
        <ele>406.605042</ele>
        <time>2026-07-08T08:57:08.000Z</time>
      </trkpt>
      <trkpt lat="47.31195" lon="15.97906">
        <ele>406.169768</ele>
        <time>2026-07-08T08:57:09.000Z</time>
      </trkpt>
      <trkpt lat="47.31185" lon="15.97908">
        <ele>405.730769</ele>
        <time>2026-07-08T08:57:10.000Z</time>
      </trkpt>
      <trkpt lat="47.31175" lon="15.97909">
        <ele>405.285744</ele>
        <time>2026-07-08T08:57:11.000Z</time>
      </trkpt>
      <trkpt lat="47.31165" lon="15.97909">
        <ele>404.845654</ele>
        <time>2026-07-08T08:57:12.000Z</time>
      </trkpt>
      <trkpt lat="47.31156" lon="15.97909">
        <ele>404.432246</ele>
        <time>2026-07-08T08:57:13.000Z</time>
      </trkpt>
      <trkpt lat="47.31147" lon="15.97909">
        <ele>404.041053</ele>
        <time>2026-07-08T08:57:14.000Z</time>
      </trkpt>
      <trkpt lat="47.3114" lon="15.97908">
        <ele>403.706993</ele>
        <time>2026-07-08T08:57:15.000Z</time>
      </trkpt>
      <trkpt lat="47.31133" lon="15.97906">
        <ele>403.416181</ele>
        <time>2026-07-08T08:57:16.000Z</time>
      </trkpt>
      <trkpt lat="47.31128" lon="15.97902">
        <ele>403.186039</ele>
        <time>2026-07-08T08:57:17.000Z</time>
      </trkpt>
      <trkpt lat="47.31123" lon="15.97896">
        <ele>403.24258</ele>
        <time>2026-07-08T08:57:18.000Z</time>
      </trkpt>
      <trkpt lat="47.31119" lon="15.9789">
        <ele>403.298861</ele>
        <time>2026-07-08T08:57:19.000Z</time>
      </trkpt>
      <trkpt lat="47.31116" lon="15.97884">
        <ele>403.350101</ele>
        <time>2026-07-08T08:57:20.000Z</time>
      </trkpt>
      <trkpt lat="47.31112" lon="15.97879">
        <ele>403.398463</ele>
        <time>2026-07-08T08:57:21.000Z</time>
      </trkpt>
      <trkpt lat="47.31108" lon="15.97874">
        <ele>403.445513</ele>
        <time>2026-07-08T08:57:22.000Z</time>
      </trkpt>
      <trkpt lat="47.31104" lon="15.9787">
        <ele>403.491657</ele>
        <time>2026-07-08T08:57:23.000Z</time>
      </trkpt>
      <trkpt lat="47.311" lon="15.97867">
        <ele>403.536065</ele>
        <time>2026-07-08T08:57:24.000Z</time>
      </trkpt>
      <trkpt lat="47.31096" lon="15.97864">
        <ele>403.578912</ele>
        <time>2026-07-08T08:57:25.000Z</time>
      </trkpt>
      <trkpt lat="47.31093" lon="15.97861">
        <ele>403.61864</ele>
        <time>2026-07-08T08:57:26.000Z</time>
      </trkpt>
      <trkpt lat="47.31088" lon="15.97859">
        <ele>403.661197</ele>
        <time>2026-07-08T08:57:27.000Z</time>
      </trkpt>
      <trkpt lat="47.31084" lon="15.97857">
        <ele>403.702041</ele>
        <time>2026-07-08T08:57:28.000Z</time>
      </trkpt>
      <trkpt lat="47.3108" lon="15.97855">
        <ele>403.746395</ele>
        <time>2026-07-08T08:57:29.000Z</time>
      </trkpt>
      <trkpt lat="47.31075" lon="15.97854">
        <ele>403.790914</ele>
        <time>2026-07-08T08:57:30.000Z</time>
      </trkpt>
      <trkpt lat="47.31071" lon="15.97852">
        <ele>403.835789</ele>
        <time>2026-07-08T08:57:31.000Z</time>
      </trkpt>
      <trkpt lat="47.31066" lon="15.9785">
        <ele>403.882153</ele>
        <time>2026-07-08T08:57:32.000Z</time>
      </trkpt>
      <trkpt lat="47.31062" lon="15.97848">
        <ele>403.926507</ele>
        <time>2026-07-08T08:57:33.000Z</time>
      </trkpt>
      <trkpt lat="47.31057" lon="15.97847">
        <ele>403.970557</ele>
        <time>2026-07-08T08:57:34.000Z</time>
      </trkpt>
      <trkpt lat="47.31053" lon="15.97845">
        <ele>404.01434</ele>
        <time>2026-07-08T08:57:35.000Z</time>
      </trkpt>
      <trkpt lat="47.31048" lon="15.97844">
        <ele>404.056125</ele>
        <time>2026-07-08T08:57:36.000Z</time>
      </trkpt>
      <trkpt lat="47.31044" lon="15.97843">
        <ele>404.100176</ele>
        <time>2026-07-08T08:57:37.000Z</time>
      </trkpt>
      <trkpt lat="47.3104" lon="15.97841">
        <ele>404.141437</ele>
        <time>2026-07-08T08:57:38.000Z</time>
      </trkpt>
      <trkpt lat="47.31035" lon="15.9784">
        <ele>404.182284</ele>
        <time>2026-07-08T08:57:39.000Z</time>
      </trkpt>
      <trkpt lat="47.31031" lon="15.97839">
        <ele>404.222074</ele>
        <time>2026-07-08T08:57:40.000Z</time>
      </trkpt>
      <trkpt lat="47.31027" lon="15.97837">
        <ele>404.261327</ele>
        <time>2026-07-08T08:57:41.000Z</time>
      </trkpt>
      <trkpt lat="47.31023" lon="15.97836">
        <ele>404.300436</ele>
        <time>2026-07-08T08:57:42.000Z</time>
      </trkpt>
      <trkpt lat="47.31019" lon="15.97835">
        <ele>404.339844</ele>
        <time>2026-07-08T08:57:43.000Z</time>
      </trkpt>
      <trkpt lat="47.31015" lon="15.97833">
        <ele>404.379251</ele>
        <time>2026-07-08T08:57:44.000Z</time>
      </trkpt>
      <trkpt lat="47.31011" lon="15.97832">
        <ele>404.420513</ele>
        <time>2026-07-08T08:57:45.000Z</time>
      </trkpt>
      <trkpt lat="47.31007" lon="15.9783">
        <ele>404.459621</ele>
        <time>2026-07-08T08:57:46.000Z</time>
      </trkpt>
      <trkpt lat="47.31003" lon="15.97829">
        <ele>404.500735</ele>
        <time>2026-07-08T08:57:47.000Z</time>
      </trkpt>
      <trkpt lat="47.30999" lon="15.97828">
        <ele>404.540777</ele>
        <time>2026-07-08T08:57:48.000Z</time>
      </trkpt>
      <trkpt lat="47.30995" lon="15.97826">
        <ele>404.579751</ele>
        <time>2026-07-08T08:57:49.000Z</time>
      </trkpt>
      <trkpt lat="47.30991" lon="15.97825">
        <ele>404.618602</ele>
        <time>2026-07-08T08:57:50.000Z</time>
      </trkpt>
      <trkpt lat="47.30987" lon="15.97824">
        <ele>404.657855</ele>
        <time>2026-07-08T08:57:51.000Z</time>
      </trkpt>
      <trkpt lat="47.30983" lon="15.97823">
        <ele>404.696592</ele>
        <time>2026-07-08T08:57:52.000Z</time>
      </trkpt>
      <trkpt lat="47.30979" lon="15.97822">
        <ele>404.734505</ele>
        <time>2026-07-08T08:57:53.000Z</time>
      </trkpt>
      <trkpt lat="47.30975" lon="15.97821">
        <ele>404.77161</ele>
        <time>2026-07-08T08:57:54.000Z</time>
      </trkpt>
      <trkpt lat="47.30971" lon="15.97819">
        <ele>404.807782</ele>
        <time>2026-07-08T08:57:55.000Z</time>
      </trkpt>
      <trkpt lat="47.30968" lon="15.97818">
        <ele>404.842885</ele>
        <time>2026-07-08T08:57:56.000Z</time>
      </trkpt>
      <trkpt lat="47.30964" lon="15.97817">
        <ele>404.88121</ele>
        <time>2026-07-08T08:57:57.000Z</time>
      </trkpt>
      <trkpt lat="47.3096" lon="15.97816">
        <ele>405.004911</ele>
        <time>2026-07-08T08:57:58.000Z</time>
      </trkpt>
      <trkpt lat="47.30956" lon="15.97815">
        <ele>405.177637</ele>
        <time>2026-07-08T08:57:59.000Z</time>
      </trkpt>
      <trkpt lat="47.30953" lon="15.97814">
        <ele>405.345848</ele>
        <time>2026-07-08T08:58:00.000Z</time>
      </trkpt>
      <trkpt lat="47.30949" lon="15.97813">
        <ele>405.518574</ele>
        <time>2026-07-08T08:58:01.000Z</time>
      </trkpt>
      <trkpt lat="47.30945" lon="15.97812">
        <ele>405.692531</ele>
        <time>2026-07-08T08:58:02.000Z</time>
      </trkpt>
      <trkpt lat="47.30942" lon="15.9781">
        <ele>405.862719</ele>
        <time>2026-07-08T08:58:03.000Z</time>
      </trkpt>
      <trkpt lat="47.30938" lon="15.97809">
        <ele>406.038917</ele>
        <time>2026-07-08T08:58:04.000Z</time>
      </trkpt>
      <trkpt lat="47.30934" lon="15.97807">
        <ele>406.216868</ele>
        <time>2026-07-08T08:58:05.000Z</time>
      </trkpt>
      <trkpt lat="47.30931" lon="15.97805">
        <ele>406.393512</ele>
        <time>2026-07-08T08:58:06.000Z</time>
      </trkpt>
      <trkpt lat="47.30927" lon="15.97803">
        <ele>406.568213</ele>
        <time>2026-07-08T08:58:07.000Z</time>
      </trkpt>
      <trkpt lat="47.30924" lon="15.97801">
        <ele>406.740567</ele>
        <time>2026-07-08T08:58:08.000Z</time>
      </trkpt>
      <trkpt lat="47.3092" lon="15.97798">
        <ele>406.919137</ele>
        <time>2026-07-08T08:58:09.000Z</time>
      </trkpt>
      <trkpt lat="47.30917" lon="15.97796">
        <ele>407.094997</ele>
        <time>2026-07-08T08:58:10.000Z</time>
      </trkpt>
      <trkpt lat="47.30913" lon="15.97793">
        <ele>407.276368</ele>
        <time>2026-07-08T08:58:11.000Z</time>
      </trkpt>
      <trkpt lat="47.3091" lon="15.9779">
        <ele>407.449653</ele>
        <time>2026-07-08T08:58:12.000Z</time>
      </trkpt>
      <trkpt lat="47.30907" lon="15.97788">
        <ele>407.632488</ele>
        <time>2026-07-08T08:58:13.000Z</time>
      </trkpt>
      <trkpt lat="47.30903" lon="15.97785">
        <ele>407.801772</ele>
        <time>2026-07-08T08:58:14.000Z</time>
      </trkpt>
      <trkpt lat="47.309" lon="15.97782">
        <ele>407.964794</ele>
        <time>2026-07-08T08:58:15.000Z</time>
      </trkpt>
      <trkpt lat="47.30897" lon="15.97779">
        <ele>408.126172</ele>
        <time>2026-07-08T08:58:16.000Z</time>
      </trkpt>
      <trkpt lat="47.30895" lon="15.97777">
        <ele>408.270415</ele>
        <time>2026-07-08T08:58:17.000Z</time>
      </trkpt>
      <trkpt lat="47.30892" lon="15.97774">
        <ele>408.423787</ele>
        <time>2026-07-08T08:58:18.000Z</time>
      </trkpt>
      <trkpt lat="47.3089" lon="15.97771">
        <ele>408.571781</ele>
        <time>2026-07-08T08:58:19.000Z</time>
      </trkpt>
      <trkpt lat="47.30887" lon="15.97768">
        <ele>408.708725</ele>
        <time>2026-07-08T08:58:20.000Z</time>
      </trkpt>
      <trkpt lat="47.30885" lon="15.97765">
        <ele>408.842159</ele>
        <time>2026-07-08T08:58:21.000Z</time>
      </trkpt>
      <trkpt lat="47.30883" lon="15.97763">
        <ele>408.973581</ele>
        <time>2026-07-08T08:58:22.000Z</time>
      </trkpt>
      <trkpt lat="47.30881" lon="15.9776">
        <ele>409.098082</ele>
        <time>2026-07-08T08:58:23.000Z</time>
      </trkpt>
      <trkpt lat="47.30879" lon="15.97757">
        <ele>409.207401</ele>
        <time>2026-07-08T08:58:24.000Z</time>
      </trkpt>
      <trkpt lat="47.30878" lon="15.97754">
        <ele>409.326756</ele>
        <time>2026-07-08T08:58:25.000Z</time>
      </trkpt>
      <trkpt lat="47.30876" lon="15.97752">
        <ele>409.437859</ele>
        <time>2026-07-08T08:58:26.000Z</time>
      </trkpt>
      <trkpt lat="47.30875" lon="15.97749">
        <ele>409.548709</ele>
        <time>2026-07-08T08:58:27.000Z</time>
      </trkpt>
      <trkpt lat="47.30873" lon="15.97746">
        <ele>409.657386</ele>
        <time>2026-07-08T08:58:28.000Z</time>
      </trkpt>
      <trkpt lat="47.30872" lon="15.97743">
        <ele>409.761322</ele>
        <time>2026-07-08T08:58:29.000Z</time>
      </trkpt>
      <trkpt lat="47.30871" lon="15.97741">
        <ele>409.859246</ele>
        <time>2026-07-08T08:58:30.000Z</time>
      </trkpt>
      <trkpt lat="47.30869" lon="15.97738">
        <ele>409.967485</ele>
        <time>2026-07-08T08:58:31.000Z</time>
      </trkpt>
      <trkpt lat="47.30868" lon="15.97735">
        <ele>410.065409</ele>
        <time>2026-07-08T08:58:32.000Z</time>
      </trkpt>
      <trkpt lat="47.30867" lon="15.97732">
        <ele>410.171185</ele>
        <time>2026-07-08T08:58:33.000Z</time>
      </trkpt>
      <trkpt lat="47.30866" lon="15.9773">
        <ele>410.269716</ele>
        <time>2026-07-08T08:58:34.000Z</time>
      </trkpt>
      <trkpt lat="47.30865" lon="15.97727">
        <ele>410.367787</ele>
        <time>2026-07-08T08:58:35.000Z</time>
      </trkpt>
      <trkpt lat="47.30864" lon="15.97724">
        <ele>410.470918</ele>
        <time>2026-07-08T08:58:36.000Z</time>
      </trkpt>
      <trkpt lat="47.30862" lon="15.97721">
        <ele>410.579364</ele>
        <time>2026-07-08T08:58:37.000Z</time>
      </trkpt>
      <trkpt lat="47.30861" lon="15.97718">
        <ele>410.683445</ele>
        <time>2026-07-08T08:58:38.000Z</time>
      </trkpt>
      <trkpt lat="47.3086" lon="15.97715">
        <ele>410.787525</ele>
        <time>2026-07-08T08:58:39.000Z</time>
      </trkpt>
      <trkpt lat="47.3086" lon="15.97712">
        <ele>410.893713</ele>
        <time>2026-07-08T08:58:40.000Z</time>
      </trkpt>
      <trkpt lat="47.30859" lon="15.97709">
        <ele>410.994081</ele>
        <time>2026-07-08T08:58:41.000Z</time>
      </trkpt>
      <trkpt lat="47.30858" lon="15.97706">
        <ele>411.098162</ele>
        <time>2026-07-08T08:58:42.000Z</time>
      </trkpt>
      <trkpt lat="47.30857" lon="15.97703">
        <ele>411.202242</ele>
        <time>2026-07-08T08:58:43.000Z</time>
      </trkpt>
      <trkpt lat="47.30856" lon="15.977">
        <ele>411.307235</ele>
        <time>2026-07-08T08:58:44.000Z</time>
      </trkpt>
      <trkpt lat="47.30855" lon="15.97697">
        <ele>411.416939</ele>
        <time>2026-07-08T08:58:45.000Z</time>
      </trkpt>
      <trkpt lat="47.30854" lon="15.97694">
        <ele>411.52102</ele>
        <time>2026-07-08T08:58:46.000Z</time>
      </trkpt>
      <trkpt lat="47.30853" lon="15.97691">
        <ele>411.621388</ele>
        <time>2026-07-08T08:58:47.000Z</time>
      </trkpt>
      <trkpt lat="47.30852" lon="15.97687">
        <ele>411.727576</ele>
        <time>2026-07-08T08:58:48.000Z</time>
      </trkpt>
      <trkpt lat="47.30852" lon="15.97684">
        <ele>411.829305</ele>
        <time>2026-07-08T08:58:49.000Z</time>
      </trkpt>
      <trkpt lat="47.30851" lon="15.97681">
        <ele>411.941356</ele>
        <time>2026-07-08T08:58:50.000Z</time>
      </trkpt>
      <trkpt lat="47.3085" lon="15.97677">
        <ele>412.054969</ele>
        <time>2026-07-08T08:58:51.000Z</time>
      </trkpt>
      <trkpt lat="47.30849" lon="15.97674">
        <ele>412.162624</ele>
        <time>2026-07-08T08:58:52.000Z</time>
      </trkpt>
      <trkpt lat="47.30849" lon="15.97671">
        <ele>412.277621</ele>
        <time>2026-07-08T08:58:53.000Z</time>
      </trkpt>
      <trkpt lat="47.30848" lon="15.97667">
        <ele>412.392618</ele>
        <time>2026-07-08T08:58:54.000Z</time>
      </trkpt>
      <trkpt lat="47.30847" lon="15.97663">
        <ele>412.512217</ele>
        <time>2026-07-08T08:58:55.000Z</time>
      </trkpt>
      <trkpt lat="47.30846" lon="15.9766">
        <ele>412.62882</ele>
        <time>2026-07-08T08:58:56.000Z</time>
      </trkpt>
      <trkpt lat="47.30846" lon="15.97656">
        <ele>412.749733</ele>
        <time>2026-07-08T08:58:57.000Z</time>
      </trkpt>
      <trkpt lat="47.30845" lon="15.97653">
        <ele>412.867985</ele>
        <time>2026-07-08T08:58:58.000Z</time>
      </trkpt>
      <trkpt lat="47.30844" lon="15.97649">
        <ele>412.988899</ele>
        <time>2026-07-08T08:58:59.000Z</time>
      </trkpt>
      <trkpt lat="47.30843" lon="15.97645">
        <ele>413.105443</ele>
        <time>2026-07-08T08:59:00.000Z</time>
      </trkpt>
      <trkpt lat="47.30842" lon="15.97642">
        <ele>413.201582</ele>
        <time>2026-07-08T08:59:01.000Z</time>
      </trkpt>
      <trkpt lat="47.30841" lon="15.97639">
        <ele>413.281966</ele>
        <time>2026-07-08T08:59:02.000Z</time>
      </trkpt>
      <trkpt lat="47.3084" lon="15.97635">
        <ele>413.360324</ele>
        <time>2026-07-08T08:59:03.000Z</time>
      </trkpt>
      <trkpt lat="47.30839" lon="15.97632">
        <ele>413.439708</ele>
        <time>2026-07-08T08:59:04.000Z</time>
      </trkpt>
      <trkpt lat="47.30838" lon="15.97629">
        <ele>413.525498</ele>
        <time>2026-07-08T08:59:05.000Z</time>
      </trkpt>
      <trkpt lat="47.30837" lon="15.97625">
        <ele>413.61671</ele>
        <time>2026-07-08T08:59:06.000Z</time>
      </trkpt>
      <trkpt lat="47.30835" lon="15.97621">
        <ele>413.707922</ele>
        <time>2026-07-08T08:59:07.000Z</time>
      </trkpt>
      <trkpt lat="47.30835" lon="15.97618">
        <ele>413.796409</ele>
        <time>2026-07-08T08:59:08.000Z</time>
      </trkpt>
      <trkpt lat="47.30834" lon="15.97613">
        <ele>413.896966</ele>
        <time>2026-07-08T08:59:09.000Z</time>
      </trkpt>
      <trkpt lat="47.30834" lon="15.97608">
        <ele>414.00398</ele>
        <time>2026-07-08T08:59:10.000Z</time>
      </trkpt>
      <trkpt lat="47.30833" lon="15.97603">
        <ele>414.118228</ele>
        <time>2026-07-08T08:59:11.000Z</time>
      </trkpt>
      <trkpt lat="47.30831" lon="15.97598">
        <ele>414.23853</ele>
        <time>2026-07-08T08:59:12.000Z</time>
      </trkpt>
      <trkpt lat="47.3083" lon="15.97594">
        <ele>414.351529</ele>
        <time>2026-07-08T08:59:13.000Z</time>
      </trkpt>
      <trkpt lat="47.30828" lon="15.97589">
        <ele>414.471313</ele>
        <time>2026-07-08T08:59:14.000Z</time>
      </trkpt>
      <trkpt lat="47.30826" lon="15.97585">
        <ele>414.585594</ele>
        <time>2026-07-08T08:59:15.000Z</time>
      </trkpt>
      <trkpt lat="47.30824" lon="15.97581">
        <ele>414.701557</ele>
        <time>2026-07-08T08:59:16.000Z</time>
      </trkpt>
      <trkpt lat="47.30822" lon="15.97577">
        <ele>414.806787</ele>
        <time>2026-07-08T08:59:17.000Z</time>
      </trkpt>
      <trkpt lat="47.3082" lon="15.97573">
        <ele>414.912923</ele>
        <time>2026-07-08T08:59:18.000Z</time>
      </trkpt>
      <trkpt lat="47.30818" lon="15.9757">
        <ele>415.014714</ele>
        <time>2026-07-08T08:59:19.000Z</time>
      </trkpt>
      <trkpt lat="47.30816" lon="15.97566">
        <ele>415.114187</ele>
        <time>2026-07-08T08:59:20.000Z</time>
      </trkpt>
      <trkpt lat="47.30814" lon="15.97563">
        <ele>415.215458</ele>
        <time>2026-07-08T08:59:21.000Z</time>
      </trkpt>
      <trkpt lat="47.30813" lon="15.97559">
        <ele>415.316702</ele>
        <time>2026-07-08T08:59:22.000Z</time>
      </trkpt>
      <trkpt lat="47.30811" lon="15.97555">
        <ele>415.414394</ele>
        <time>2026-07-08T08:59:23.000Z</time>
      </trkpt>
      <trkpt lat="47.30809" lon="15.97552">
        <ele>415.516185</ele>
        <time>2026-07-08T08:59:24.000Z</time>
      </trkpt>
      <trkpt lat="47.30807" lon="15.97548">
        <ele>415.619403</ele>
        <time>2026-07-08T08:59:25.000Z</time>
      </trkpt>
      <trkpt lat="47.30805" lon="15.97544">
        <ele>415.720675</ele>
        <time>2026-07-08T08:59:26.000Z</time>
      </trkpt>
      <trkpt lat="47.30803" lon="15.97541">
        <ele>415.823761</ele>
        <time>2026-07-08T08:59:27.000Z</time>
      </trkpt>
      <trkpt lat="47.30801" lon="15.97537">
        <ele>415.925552</ele>
        <time>2026-07-08T08:59:28.000Z</time>
      </trkpt>
      <trkpt lat="47.30799" lon="15.97534">
        <ele>416.031688</ele>
        <time>2026-07-08T08:59:29.000Z</time>
      </trkpt>
      <trkpt lat="47.30797" lon="15.9753">
        <ele>416.13012</ele>
        <time>2026-07-08T08:59:30.000Z</time>
      </trkpt>
      <trkpt lat="47.30795" lon="15.97527">
        <ele>416.23191</ele>
        <time>2026-07-08T08:59:31.000Z</time>
      </trkpt>
      <trkpt lat="47.30793" lon="15.97523">
        <ele>416.337141</ele>
        <time>2026-07-08T08:59:32.000Z</time>
      </trkpt>
      <trkpt lat="47.30791" lon="15.97519">
        <ele>416.442372</ele>
        <time>2026-07-08T08:59:33.000Z</time>
      </trkpt>
      <trkpt lat="47.30789" lon="15.97516">
        <ele>416.545873</ele>
        <time>2026-07-08T08:59:34.000Z</time>
      </trkpt>
      <trkpt lat="47.30787" lon="15.97512">
        <ele>416.647664</ele>
        <time>2026-07-08T08:59:35.000Z</time>
      </trkpt>
      <trkpt lat="47.30785" lon="15.97509">
        <ele>416.7538</ele>
        <time>2026-07-08T08:59:36.000Z</time>
      </trkpt>
      <trkpt lat="47.30783" lon="15.97505">
        <ele>416.859031</ele>
        <time>2026-07-08T08:59:37.000Z</time>
      </trkpt>
      <trkpt lat="47.30781" lon="15.97502">
        <ele>416.962966</ele>
        <time>2026-07-08T08:59:38.000Z</time>
      </trkpt>
      <trkpt lat="47.30778" lon="15.97498">
        <ele>417.073667</ele>
        <time>2026-07-08T08:59:39.000Z</time>
      </trkpt>
      <trkpt lat="47.30776" lon="15.97495">
        <ele>417.177601</ele>
        <time>2026-07-08T08:59:40.000Z</time>
      </trkpt>
      <trkpt lat="47.30774" lon="15.97491">
        <ele>417.287042</ele>
        <time>2026-07-08T08:59:41.000Z</time>
      </trkpt>
      <trkpt lat="47.30772" lon="15.97487">
        <ele>417.39482</ele>
        <time>2026-07-08T08:59:42.000Z</time>
      </trkpt>
      <trkpt lat="47.3077" lon="15.97484">
        <ele>417.503213</ele>
        <time>2026-07-08T08:59:43.000Z</time>
      </trkpt>
      <trkpt lat="47.30767" lon="15.9748">
        <ele>417.60935</ele>
        <time>2026-07-08T08:59:44.000Z</time>
      </trkpt>
      <trkpt lat="47.30765" lon="15.97477">
        <ele>417.717743</ele>
        <time>2026-07-08T08:59:45.000Z</time>
      </trkpt>
      <trkpt lat="47.30763" lon="15.97473">
        <ele>417.82388</ele>
        <time>2026-07-08T08:59:46.000Z</time>
      </trkpt>
      <trkpt lat="47.30761" lon="15.9747">
        <ele>417.932273</ele>
        <time>2026-07-08T08:59:47.000Z</time>
      </trkpt>
      <trkpt lat="47.30758" lon="15.97466">
        <ele>418.03679</ele>
        <time>2026-07-08T08:59:48.000Z</time>
      </trkpt>
      <trkpt lat="47.30754" lon="15.9746">
        <ele>418.243573</ele>
        <time>2026-07-08T08:59:50.000Z</time>
      </trkpt>
      <trkpt lat="47.3075" lon="15.97453">
        <ele>418.438475</ele>
        <time>2026-07-08T08:59:51.000Z</time>
      </trkpt>
      <trkpt lat="47.30748" lon="15.9745">
        <ele>418.535927</ele>
        <time>2026-07-08T08:59:52.000Z</time>
      </trkpt>
      <trkpt lat="47.30746" lon="15.97447">
        <ele>418.632712</ele>
        <time>2026-07-08T08:59:53.000Z</time>
      </trkpt>
      <trkpt lat="47.30744" lon="15.97444">
        <ele>418.730985</ele>
        <time>2026-07-08T08:59:54.000Z</time>
      </trkpt>
      <trkpt lat="47.30742" lon="15.97441">
        <ele>418.821431</ele>
        <time>2026-07-08T08:59:55.000Z</time>
      </trkpt>
      <trkpt lat="47.3074" lon="15.97438">
        <ele>418.914994</ele>
        <time>2026-07-08T08:59:56.000Z</time>
      </trkpt>
      <trkpt lat="47.30738" lon="15.97435">
        <ele>419.004081</ele>
        <time>2026-07-08T08:59:57.000Z</time>
      </trkpt>
      <trkpt lat="47.30736" lon="15.97432">
        <ele>419.121302</ele>
        <time>2026-07-08T08:59:58.000Z</time>
      </trkpt>
      <trkpt lat="47.30734" lon="15.97429">
        <ele>419.26516</ele>
        <time>2026-07-08T08:59:59.000Z</time>
      </trkpt>
      <trkpt lat="47.30732" lon="15.97426">
        <ele>419.413972</ele>
        <time>2026-07-08T09:00:00.000Z</time>
      </trkpt>
      <trkpt lat="47.3073" lon="15.97423">
        <ele>419.565073</ele>
        <time>2026-07-08T09:00:01.000Z</time>
      </trkpt>
      <trkpt lat="47.30728" lon="15.9742">
        <ele>419.697005</ele>
        <time>2026-07-08T09:00:02.000Z</time>
      </trkpt>
      <trkpt lat="47.30726" lon="15.97417">
        <ele>419.837374</ele>
        <time>2026-07-08T09:00:03.000Z</time>
      </trkpt>
      <trkpt lat="47.30724" lon="15.97414">
        <ele>419.974351</ele>
        <time>2026-07-08T09:00:04.000Z</time>
      </trkpt>
      <trkpt lat="47.30722" lon="15.97411">
        <ele>420.108039</ele>
        <time>2026-07-08T09:00:05.000Z</time>
      </trkpt>
      <trkpt lat="47.30721" lon="15.97408">
        <ele>420.24106</ele>
        <time>2026-07-08T09:00:06.000Z</time>
      </trkpt>
      <trkpt lat="47.3072" lon="15.97405">
        <ele>420.371562</ele>
        <time>2026-07-08T09:00:07.000Z</time>
      </trkpt>
      <trkpt lat="47.30718" lon="15.97402">
        <ele>420.496602</ele>
        <time>2026-07-08T09:00:08.000Z</time>
      </trkpt>
      <trkpt lat="47.30717" lon="15.97399">
        <ele>420.610909</ele>
        <time>2026-07-08T09:00:09.000Z</time>
      </trkpt>
      <trkpt lat="47.30716" lon="15.97395">
        <ele>420.733588</ele>
        <time>2026-07-08T09:00:10.000Z</time>
      </trkpt>
      <trkpt lat="47.30715" lon="15.97392">
        <ele>420.852689</ele>
        <time>2026-07-08T09:00:11.000Z</time>
      </trkpt>
      <trkpt lat="47.30714" lon="15.97389">
        <ele>420.966108</ele>
        <time>2026-07-08T09:00:12.000Z</time>
      </trkpt>
      <trkpt lat="47.30714" lon="15.97386">
        <ele>421.077373</ele>
        <time>2026-07-08T09:00:13.000Z</time>
      </trkpt>
      <trkpt lat="47.30714" lon="15.97383">
        <ele>421.191223</ele>
        <time>2026-07-08T09:00:14.000Z</time>
      </trkpt>
      <trkpt lat="47.30713" lon="15.9738">
        <ele>421.294299</ele>
        <time>2026-07-08T09:00:15.000Z</time>
      </trkpt>
      <trkpt lat="47.30713" lon="15.97377">
        <ele>421.397991</ele>
        <time>2026-07-08T09:00:16.000Z</time>
      </trkpt>
      <trkpt lat="47.30713" lon="15.97374">
        <ele>421.497666</ele>
        <time>2026-07-08T09:00:17.000Z</time>
      </trkpt>
      <trkpt lat="47.30713" lon="15.97371">
        <ele>421.600372</ele>
        <time>2026-07-08T09:00:18.000Z</time>
      </trkpt>
      <trkpt lat="47.30713" lon="15.97368">
        <ele>421.703448</ele>
        <time>2026-07-08T09:00:19.000Z</time>
      </trkpt>
      <trkpt lat="47.30712" lon="15.97365">
        <ele>421.80714</ele>
        <time>2026-07-08T09:00:20.000Z</time>
      </trkpt>
      <trkpt lat="47.30712" lon="15.97362">
        <ele>421.909184</ele>
        <time>2026-07-08T09:00:21.000Z</time>
      </trkpt>
      <trkpt lat="47.30711" lon="15.97359">
        <ele>422.008026</ele>
        <time>2026-07-08T09:00:22.000Z</time>
      </trkpt>
      <trkpt lat="47.3071" lon="15.97357">
        <ele>422.101939</ele>
        <time>2026-07-08T09:00:23.000Z</time>
      </trkpt>
      <trkpt lat="47.3071" lon="15.97354">
        <ele>422.207574</ele>
        <time>2026-07-08T09:00:24.000Z</time>
      </trkpt>
      <trkpt lat="47.30709" lon="15.97351">
        <ele>422.31321</ele>
        <time>2026-07-08T09:00:25.000Z</time>
      </trkpt>
      <trkpt lat="47.30709" lon="15.97348">
        <ele>422.412052</ele>
        <time>2026-07-08T09:00:26.000Z</time>
      </trkpt>
      <trkpt lat="47.30708" lon="15.97345">
        <ele>422.514096</ele>
        <time>2026-07-08T09:00:27.000Z</time>
      </trkpt>
      <trkpt lat="47.30708" lon="15.97342">
        <ele>422.614406</ele>
        <time>2026-07-08T09:00:28.000Z</time>
      </trkpt>
      <trkpt lat="47.30707" lon="15.9734">
        <ele>422.703532</ele>
        <time>2026-07-08T09:00:29.000Z</time>
      </trkpt>
      <trkpt lat="47.30707" lon="15.97337">
        <ele>422.793715</ele>
        <time>2026-07-08T09:00:30.000Z</time>
      </trkpt>
      <trkpt lat="47.30706" lon="15.97334">
        <ele>422.899351</ele>
        <time>2026-07-08T09:00:31.000Z</time>
      </trkpt>
      <trkpt lat="47.30706" lon="15.97332">
        <ele>422.995056</ele>
        <time>2026-07-08T09:00:32.000Z</time>
      </trkpt>
      <trkpt lat="47.30705" lon="15.97329">
        <ele>423.092901</ele>
        <time>2026-07-08T09:00:33.000Z</time>
      </trkpt>
      <trkpt lat="47.30705" lon="15.97326">
        <ele>423.19522</ele>
        <time>2026-07-08T09:00:34.000Z</time>
      </trkpt>
      <trkpt lat="47.30704" lon="15.97323">
        <ele>423.287631</ele>
        <time>2026-07-08T09:00:35.000Z</time>
      </trkpt>
      <trkpt lat="47.30704" lon="15.97321">
        <ele>423.375097</ele>
        <time>2026-07-08T09:00:36.000Z</time>
      </trkpt>
      <trkpt lat="47.30703" lon="15.97319">
        <ele>423.47433</ele>
        <time>2026-07-08T09:00:37.000Z</time>
      </trkpt>
      <trkpt lat="47.30701" lon="15.97317">
        <ele>423.576305</ele>
        <time>2026-07-08T09:00:38.000Z</time>
      </trkpt>
      <trkpt lat="47.30699" lon="15.97315">
        <ele>423.681841</ele>
        <time>2026-07-08T09:00:39.000Z</time>
      </trkpt>
      <trkpt lat="47.30698" lon="15.97313">
        <ele>423.784462</ele>
        <time>2026-07-08T09:00:40.000Z</time>
      </trkpt>
      <trkpt lat="47.30695" lon="15.97313">
        <ele>423.897286</ele>
        <time>2026-07-08T09:00:41.000Z</time>
      </trkpt>
      <trkpt lat="47.30693" lon="15.97312">
        <ele>424.004558</ele>
        <time>2026-07-08T09:00:42.000Z</time>
      </trkpt>
      <trkpt lat="47.30691" lon="15.97312">
        <ele>424.130629</ele>
        <time>2026-07-08T09:00:43.000Z</time>
      </trkpt>
      <trkpt lat="47.30688" lon="15.97313">
        <ele>424.267856</ele>
        <time>2026-07-08T09:00:44.000Z</time>
      </trkpt>
      <trkpt lat="47.30685" lon="15.97313">
        <ele>424.410539</ele>
        <time>2026-07-08T09:00:45.000Z</time>
      </trkpt>
      <trkpt lat="47.30682" lon="15.97314">
        <ele>424.563707</ele>
        <time>2026-07-08T09:00:46.000Z</time>
      </trkpt>
      <trkpt lat="47.30679" lon="15.97315">
        <ele>424.725982</ele>
        <time>2026-07-08T09:00:47.000Z</time>
      </trkpt>
      <trkpt lat="47.30676" lon="15.97315">
        <ele>424.888256</ele>
        <time>2026-07-08T09:00:48.000Z</time>
      </trkpt>
      <trkpt lat="47.30673" lon="15.97315">
        <ele>425.054987</ele>
        <time>2026-07-08T09:00:49.000Z</time>
      </trkpt>
      <trkpt lat="47.3067" lon="15.97316">
        <ele>425.206427</ele>
        <time>2026-07-08T09:00:50.000Z</time>
      </trkpt>
      <trkpt lat="47.30666" lon="15.97316">
        <ele>425.367799</ele>
        <time>2026-07-08T09:00:51.000Z</time>
      </trkpt>
      <trkpt lat="47.30663" lon="15.97316">
        <ele>425.524277</ele>
        <time>2026-07-08T09:00:52.000Z</time>
      </trkpt>
      <trkpt lat="47.3066" lon="15.97316">
        <ele>425.675563</ele>
        <time>2026-07-08T09:00:53.000Z</time>
      </trkpt>
      <trkpt lat="47.30657" lon="15.97316">
        <ele>425.83708</ele>
        <time>2026-07-08T09:00:54.000Z</time>
      </trkpt>
      <trkpt lat="47.30654" lon="15.97315">
        <ele>425.998596</ele>
        <time>2026-07-08T09:00:55.000Z</time>
      </trkpt>
      <trkpt lat="47.30651" lon="15.97315">
        <ele>426.155261</ele>
        <time>2026-07-08T09:00:56.000Z</time>
      </trkpt>
      <trkpt lat="47.30648" lon="15.97315">
        <ele>426.316959</ele>
        <time>2026-07-08T09:00:57.000Z</time>
      </trkpt>
      <trkpt lat="47.30644" lon="15.97314">
        <ele>426.478909</ele>
        <time>2026-07-08T09:00:58.000Z</time>
      </trkpt>
      <trkpt lat="47.30641" lon="15.97314">
        <ele>426.630543</ele>
        <time>2026-07-08T09:00:59.000Z</time>
      </trkpt>
      <trkpt lat="47.30638" lon="15.97314">
        <ele>426.787021</ele>
        <time>2026-07-08T09:01:00.000Z</time>
      </trkpt>
      <trkpt lat="47.30635" lon="15.97314">
        <ele>426.938461</ele>
        <time>2026-07-08T09:01:01.000Z</time>
      </trkpt>
      <trkpt lat="47.30632" lon="15.97314">
        <ele>427.089902</ele>
        <time>2026-07-08T09:01:02.000Z</time>
      </trkpt>
      <trkpt lat="47.30629" lon="15.97314">
        <ele>427.236145</ele>
        <time>2026-07-08T09:01:03.000Z</time>
      </trkpt>
      <trkpt lat="47.30626" lon="15.97314">
        <ele>427.387585</ele>
        <time>2026-07-08T09:01:04.000Z</time>
      </trkpt>
      <trkpt lat="47.30624" lon="15.97314">
        <ele>427.528951</ele>
        <time>2026-07-08T09:01:05.000Z</time>
      </trkpt>
      <trkpt lat="47.30621" lon="15.97314">
        <ele>427.670151</ele>
        <time>2026-07-08T09:01:06.000Z</time>
      </trkpt>
      <trkpt lat="47.30618" lon="15.97314">
        <ele>427.816554</ele>
        <time>2026-07-08T09:01:07.000Z</time>
      </trkpt>
      <trkpt lat="47.30615" lon="15.97314">
        <ele>427.96784</ele>
        <time>2026-07-08T09:01:08.000Z</time>
      </trkpt>
      <trkpt lat="47.30612" lon="15.97314">
        <ele>428.10904</ele>
        <time>2026-07-08T09:01:09.000Z</time>
      </trkpt>
      <trkpt lat="47.30609" lon="15.97314">
        <ele>428.248258</ele>
        <time>2026-07-08T09:01:10.000Z</time>
      </trkpt>
      <trkpt lat="47.30606" lon="15.97314">
        <ele>428.376856</ele>
        <time>2026-07-08T09:01:11.000Z</time>
      </trkpt>
      <trkpt lat="47.30603" lon="15.97314">
        <ele>428.510152</ele>
        <time>2026-07-08T09:01:12.000Z</time>
      </trkpt>
      <trkpt lat="47.306" lon="15.97313">
        <ele>428.648771</ele>
        <time>2026-07-08T09:01:13.000Z</time>
      </trkpt>
      <trkpt lat="47.30598" lon="15.97313">
        <ele>428.77827</ele>
        <time>2026-07-08T09:01:14.000Z</time>
      </trkpt>
      <trkpt lat="47.30595" lon="15.97312">
        <ele>428.907768</ele>
        <time>2026-07-08T09:01:15.000Z</time>
      </trkpt>
      <trkpt lat="47.30592" lon="15.97311">
        <ele>429.042691</ele>
        <time>2026-07-08T09:01:16.000Z</time>
      </trkpt>
      <trkpt lat="47.30589" lon="15.97311">
        <ele>429.173641</ele>
        <time>2026-07-08T09:01:17.000Z</time>
      </trkpt>
      <trkpt lat="47.30586" lon="15.9731">
        <ele>429.301459</ele>
        <time>2026-07-08T09:01:18.000Z</time>
      </trkpt>
      <trkpt lat="47.30584" lon="15.97308">
        <ele>429.422171</ele>
        <time>2026-07-08T09:01:19.000Z</time>
      </trkpt>
      <trkpt lat="47.30581" lon="15.97307">
        <ele>429.548223</ele>
        <time>2026-07-08T09:01:20.000Z</time>
      </trkpt>
      <trkpt lat="47.30579" lon="15.97306">
        <ele>429.669935</ele>
        <time>2026-07-08T09:01:21.000Z</time>
      </trkpt>
      <trkpt lat="47.30576" lon="15.97304">
        <ele>429.801342</ele>
        <time>2026-07-08T09:01:22.000Z</time>
      </trkpt>
      <trkpt lat="47.30574" lon="15.97302">
        <ele>429.925546</ele>
        <time>2026-07-08T09:01:23.000Z</time>
      </trkpt>
      <trkpt lat="47.30571" lon="15.973">
        <ele>430.052116</ele>
        <time>2026-07-08T09:01:24.000Z</time>
      </trkpt>
      <trkpt lat="47.30569" lon="15.97299">
        <ele>430.167583</ele>
        <time>2026-07-08T09:01:25.000Z</time>
      </trkpt>
      <trkpt lat="47.30567" lon="15.97297">
        <ele>430.277597</ele>
        <time>2026-07-08T09:01:26.000Z</time>
      </trkpt>
      <trkpt lat="47.30565" lon="15.97296">
        <ele>430.379919</ele>
        <time>2026-07-08T09:01:27.000Z</time>
      </trkpt>
      <trkpt lat="47.30563" lon="15.97295">
        <ele>430.485619</ele>
        <time>2026-07-08T09:01:28.000Z</time>
      </trkpt>
      <trkpt lat="47.3056" lon="15.97294">
        <ele>430.595715</ele>
        <time>2026-07-08T09:01:29.000Z</time>
      </trkpt>
      <trkpt lat="47.30558" lon="15.97293">
        <ele>430.694853</ele>
        <time>2026-07-08T09:01:30.000Z</time>
      </trkpt>
      <trkpt lat="47.30556" lon="15.97292">
        <ele>430.802551</ele>
        <time>2026-07-08T09:01:31.000Z</time>
      </trkpt>
      <trkpt lat="47.30554" lon="15.97291">
        <ele>430.91137</ele>
        <time>2026-07-08T09:01:32.000Z</time>
      </trkpt>
      <trkpt lat="47.30552" lon="15.97289">
        <ele>431.010507</ele>
        <time>2026-07-08T09:01:33.000Z</time>
      </trkpt>
      <trkpt lat="47.3055" lon="15.97288">
        <ele>431.110859</ele>
        <time>2026-07-08T09:01:34.000Z</time>
      </trkpt>
      <trkpt lat="47.30548" lon="15.97286">
        <ele>431.216849</ele>
        <time>2026-07-08T09:01:35.000Z</time>
      </trkpt>
      <trkpt lat="47.30546" lon="15.97285">
        <ele>431.313346</ele>
        <time>2026-07-08T09:01:36.000Z</time>
      </trkpt>
      <trkpt lat="47.30544" lon="15.97283">
        <ele>431.411487</ele>
        <time>2026-07-08T09:01:37.000Z</time>
      </trkpt>
      <trkpt lat="47.30542" lon="15.97282">
        <ele>431.514508</ele>
        <time>2026-07-08T09:01:38.000Z</time>
      </trkpt>
      <trkpt lat="47.3054" lon="15.9728">
        <ele>431.613459</ele>
        <time>2026-07-08T09:01:39.000Z</time>
      </trkpt>
      <trkpt lat="47.30539" lon="15.97279">
        <ele>431.708386</ele>
        <time>2026-07-08T09:01:40.000Z</time>
      </trkpt>
      <trkpt lat="47.30537" lon="15.97277">
        <ele>431.807524</ele>
        <time>2026-07-08T09:01:41.000Z</time>
      </trkpt>
      <trkpt lat="47.30534" lon="15.97276">
        <ele>431.913224</ele>
        <time>2026-07-08T09:01:42.000Z</time>
      </trkpt>
      <trkpt lat="47.30532" lon="15.97275">
        <ele>432.015545</ele>
        <time>2026-07-08T09:01:43.000Z</time>
      </trkpt>
      <trkpt lat="47.3053" lon="15.97274">
        <ele>432.121246</ele>
        <time>2026-07-08T09:01:44.000Z</time>
      </trkpt>
      <trkpt lat="47.30528" lon="15.97273">
        <ele>432.211943</ele>
        <time>2026-07-08T09:01:45.000Z</time>
      </trkpt>
      <trkpt lat="47.30526" lon="15.97272">
        <ele>432.317644</ele>
        <time>2026-07-08T09:01:46.000Z</time>
      </trkpt>
      <trkpt lat="47.30524" lon="15.97271">
        <ele>432.412571</ele>
        <time>2026-07-08T09:01:47.000Z</time>
      </trkpt>
      <trkpt lat="47.30522" lon="15.97269">
        <ele>432.512924</ele>
        <time>2026-07-08T09:01:48.000Z</time>
      </trkpt>
      <trkpt lat="47.3052" lon="15.97268">
        <ele>432.614572</ele>
        <time>2026-07-08T09:01:49.000Z</time>
      </trkpt>
      <trkpt lat="47.30518" lon="15.97267">
        <ele>432.720272</ele>
        <time>2026-07-08T09:01:50.000Z</time>
      </trkpt>
      <trkpt lat="47.30516" lon="15.97266">
        <ele>432.826931</ele>
        <time>2026-07-08T09:01:51.000Z</time>
      </trkpt>
      <trkpt lat="47.30514" lon="15.97265">
        <ele>432.930336</ele>
        <time>2026-07-08T09:01:52.000Z</time>
      </trkpt>
      <trkpt lat="47.30512" lon="15.97263">
        <ele>433.039154</ele>
        <time>2026-07-08T09:01:53.000Z</time>
      </trkpt>
      <trkpt lat="47.30509" lon="15.97262">
        <ele>433.146853</ele>
        <time>2026-07-08T09:01:54.000Z</time>
      </trkpt>
      <trkpt lat="47.30507" lon="15.97261">
        <ele>433.250258</ele>
        <time>2026-07-08T09:01:55.000Z</time>
      </trkpt>
      <trkpt lat="47.30505" lon="15.97259">
        <ele>433.36994</ele>
        <time>2026-07-08T09:01:56.000Z</time>
      </trkpt>
      <trkpt lat="47.30503" lon="15.97258">
        <ele>433.481463</ele>
        <time>2026-07-08T09:01:57.000Z</time>
      </trkpt>
      <trkpt lat="47.30501" lon="15.97256">
        <ele>433.596979</ele>
        <time>2026-07-08T09:01:58.000Z</time>
      </trkpt>
      <trkpt lat="47.30498" lon="15.97254">
        <ele>433.718021</ele>
        <time>2026-07-08T09:01:59.000Z</time>
      </trkpt>
      <trkpt lat="47.30496" lon="15.97252">
        <ele>433.830647</ele>
        <time>2026-07-08T09:02:00.000Z</time>
      </trkpt>
      <trkpt lat="47.30494" lon="15.97251">
        <ele>433.948771</ele>
        <time>2026-07-08T09:02:01.000Z</time>
      </trkpt>
      <trkpt lat="47.30491" lon="15.97249">
        <ele>434.072397</ele>
        <time>2026-07-08T09:02:02.000Z</time>
      </trkpt>
      <trkpt lat="47.30489" lon="15.97247">
        <ele>434.190521</ele>
        <time>2026-07-08T09:02:03.000Z</time>
      </trkpt>
      <trkpt lat="47.30487" lon="15.97245">
        <ele>434.304559</ele>
        <time>2026-07-08T09:02:04.000Z</time>
      </trkpt>
      <trkpt lat="47.30485" lon="15.97244">
        <ele>434.416082</ele>
        <time>2026-07-08T09:02:05.000Z</time>
      </trkpt>
      <trkpt lat="47.30483" lon="15.97242">
        <ele>434.527031</ele>
        <time>2026-07-08T09:02:06.000Z</time>
      </trkpt>
      <trkpt lat="47.30481" lon="15.9724">
        <ele>434.637981</ele>
        <time>2026-07-08T09:02:07.000Z</time>
      </trkpt>
      <trkpt lat="47.30479" lon="15.97237">
        <ele>434.752541</ele>
        <time>2026-07-08T09:02:08.000Z</time>
      </trkpt>
      <trkpt lat="47.30477" lon="15.97235">
        <ele>434.859722</ele>
        <time>2026-07-08T09:02:09.000Z</time>
      </trkpt>
      <trkpt lat="47.30475" lon="15.97234">
        <ele>434.948513</ele>
        <time>2026-07-08T09:02:10.000Z</time>
      </trkpt>
      <trkpt lat="47.30474" lon="15.97232">
        <ele>435.014005</ele>
        <time>2026-07-08T09:02:11.000Z</time>
      </trkpt>
      <trkpt lat="47.30474" lon="15.97231">
        <ele>435.055577</ele>
        <time>2026-07-08T09:02:12.000Z</time>
      </trkpt>
      <trkpt lat="47.30473" lon="15.9723">
        <ele>435.102295</ele>
        <time>2026-07-08T09:02:13.000Z</time>
      </trkpt>
      <trkpt lat="47.30472" lon="15.9723">
        <ele>435.155145</ele>
        <time>2026-07-08T09:02:14.000Z</time>
      </trkpt>
      <trkpt lat="47.3047" lon="15.97229">
        <ele>435.235403</ele>
        <time>2026-07-08T09:02:15.000Z</time>
      </trkpt>
      <trkpt lat="47.30468" lon="15.97229">
        <ele>435.338739</ele>
        <time>2026-07-08T09:02:16.000Z</time>
      </trkpt>
      <trkpt lat="47.30466" lon="15.97228">
        <ele>435.445482</ele>
        <time>2026-07-08T09:02:17.000Z</time>
      </trkpt>
      <trkpt lat="47.30463" lon="15.97228">
        <ele>435.569802</ele>
        <time>2026-07-08T09:02:18.000Z</time>
      </trkpt>
      <trkpt lat="47.3046" lon="15.97227">
        <ele>435.698963</ele>
        <time>2026-07-08T09:02:19.000Z</time>
      </trkpt>
      <trkpt lat="47.30457" lon="15.97228">
        <ele>435.836846</ele>
        <time>2026-07-08T09:02:20.000Z</time>
      </trkpt>
      <trkpt lat="47.30454" lon="15.97228">
        <ele>435.967796</ele>
        <time>2026-07-08T09:02:21.000Z</time>
      </trkpt>
      <trkpt lat="47.30451" lon="15.97229">
        <ele>436.104539</ele>
        <time>2026-07-08T09:02:22.000Z</time>
      </trkpt>
      <trkpt lat="47.30449" lon="15.97231">
        <ele>436.238417</ele>
        <time>2026-07-08T09:02:23.000Z</time>
      </trkpt>
      <trkpt lat="47.30446" lon="15.97231">
        <ele>436.364863</ele>
        <time>2026-07-08T09:02:24.000Z</time>
      </trkpt>
      <trkpt lat="47.30443" lon="15.97232">
        <ele>436.410292</ele>
        <time>2026-07-08T09:02:25.000Z</time>
      </trkpt>
      <trkpt lat="47.30441" lon="15.97234">
        <ele>436.443615</ele>
        <time>2026-07-08T09:02:26.000Z</time>
      </trkpt>
      <trkpt lat="47.30438" lon="15.97235">
        <ele>436.476447</ele>
        <time>2026-07-08T09:02:27.000Z</time>
      </trkpt>
      <trkpt lat="47.30436" lon="15.97236">
        <ele>436.509771</ele>
        <time>2026-07-08T09:02:28.000Z</time>
      </trkpt>
      <trkpt lat="47.30433" lon="15.97237">
        <ele>436.543827</ele>
        <time>2026-07-08T09:02:29.000Z</time>
      </trkpt>
      <trkpt lat="47.30431" lon="15.97238">
        <ele>436.576659</ele>
        <time>2026-07-08T09:02:30.000Z</time>
      </trkpt>
      <trkpt lat="47.30428" lon="15.97239">
        <ele>436.609727</ele>
        <time>2026-07-08T09:02:31.000Z</time>
      </trkpt>
      <trkpt lat="47.30426" lon="15.9724">
        <ele>436.643622</ele>
        <time>2026-07-08T09:02:32.000Z</time>
      </trkpt>
      <trkpt lat="47.30423" lon="15.97242">
        <ele>436.676028</ele>
        <time>2026-07-08T09:02:33.000Z</time>
      </trkpt>
      <trkpt lat="47.30421" lon="15.97243">
        <ele>436.709352</ele>
        <time>2026-07-08T09:02:34.000Z</time>
      </trkpt>
      <trkpt lat="47.30418" lon="15.97244">
        <ele>436.743409</ele>
        <time>2026-07-08T09:02:35.000Z</time>
      </trkpt>
      <trkpt lat="47.30416" lon="15.97245">
        <ele>436.775833</ele>
        <time>2026-07-08T09:02:36.000Z</time>
      </trkpt>
      <trkpt lat="47.30413" lon="15.97245">
        <ele>436.808258</ele>
        <time>2026-07-08T09:02:37.000Z</time>
      </trkpt>
      <trkpt lat="47.30411" lon="15.97246">
        <ele>436.843343</ele>
        <time>2026-07-08T09:02:38.000Z</time>
      </trkpt>
      <trkpt lat="47.30408" lon="15.97247">
        <ele>436.875767</ele>
        <time>2026-07-08T09:02:39.000Z</time>
      </trkpt>
      <trkpt lat="47.30406" lon="15.97248">
        <ele>436.90802</ele>
        <time>2026-07-08T09:02:40.000Z</time>
      </trkpt>
      <trkpt lat="47.30403" lon="15.97248">
        <ele>436.940124</ele>
        <time>2026-07-08T09:02:41.000Z</time>
      </trkpt>
      <trkpt lat="47.304" lon="15.97249">
        <ele>436.974519</ele>
        <time>2026-07-08T09:02:42.000Z</time>
      </trkpt>
      <trkpt lat="47.30398" lon="15.97249">
        <ele>437.006206</ele>
        <time>2026-07-08T09:02:43.000Z</time>
      </trkpt>
      <trkpt lat="47.30395" lon="15.97249">
        <ele>437.03916</ele>
        <time>2026-07-08T09:02:44.000Z</time>
      </trkpt>
      <trkpt lat="47.30393" lon="15.97249">
        <ele>437.070847</ele>
        <time>2026-07-08T09:02:45.000Z</time>
      </trkpt>
      <trkpt lat="47.3039" lon="15.97249">
        <ele>437.102534</ele>
        <time>2026-07-08T09:02:46.000Z</time>
      </trkpt>
      <trkpt lat="47.30388" lon="15.97248">
        <ele>437.134407</ele>
        <time>2026-07-08T09:02:47.000Z</time>
      </trkpt>
      <trkpt lat="47.30385" lon="15.97248">
        <ele>437.168898</ele>
        <time>2026-07-08T09:02:48.000Z</time>
      </trkpt>
      <trkpt lat="47.30383" lon="15.97247">
        <ele>437.200875</ele>
        <time>2026-07-08T09:02:49.000Z</time>
      </trkpt>
      <trkpt lat="47.3038" lon="15.97247">
        <ele>437.2333</ele>
        <time>2026-07-08T09:02:50.000Z</time>
      </trkpt>
      <trkpt lat="47.30378" lon="15.97246">
        <ele>437.266132</ele>
        <time>2026-07-08T09:02:51.000Z</time>
      </trkpt>
      <trkpt lat="47.30375" lon="15.97245">
        <ele>437.298964</ele>
        <time>2026-07-08T09:02:52.000Z</time>
      </trkpt>
      <trkpt lat="47.30373" lon="15.97244">
        <ele>437.328916</ele>
        <time>2026-07-08T09:02:53.000Z</time>
      </trkpt>
      <trkpt lat="47.3037" lon="15.97243">
        <ele>437.361169</ele>
        <time>2026-07-08T09:02:54.000Z</time>
      </trkpt>
      <trkpt lat="47.30368" lon="15.97242">
        <ele>437.395916</ele>
        <time>2026-07-08T09:02:55.000Z</time>
      </trkpt>
      <trkpt lat="47.30365" lon="15.97242">
        <ele>437.430149</ele>
        <time>2026-07-08T09:02:56.000Z</time>
      </trkpt>
      <trkpt lat="47.30362" lon="15.97242">
        <ele>437.465638</ele>
        <time>2026-07-08T09:02:57.000Z</time>
      </trkpt>
      <trkpt lat="47.30359" lon="15.97243">
        <ele>437.5015</ele>
        <time>2026-07-08T09:02:58.000Z</time>
      </trkpt>
      <trkpt lat="47.30356" lon="15.97244">
        <ele>437.545283</ele>
        <time>2026-07-08T09:02:59.000Z</time>
      </trkpt>
      <trkpt lat="47.30352" lon="15.97245">
        <ele>437.59047</ele>
        <time>2026-07-08T09:03:00.000Z</time>
      </trkpt>
      <trkpt lat="47.30349" lon="15.97246">
        <ele>437.636902</ele>
        <time>2026-07-08T09:03:01.000Z</time>
      </trkpt>
      <trkpt lat="47.30345" lon="15.97247">
        <ele>437.688475</ele>
        <time>2026-07-08T09:03:02.000Z</time>
      </trkpt>
      <trkpt lat="47.30341" lon="15.97248">
        <ele>437.743248</ele>
        <time>2026-07-08T09:03:03.000Z</time>
      </trkpt>
      <trkpt lat="47.30336" lon="15.9725">
        <ele>437.800397</ele>
        <time>2026-07-08T09:03:04.000Z</time>
      </trkpt>
      <trkpt lat="47.30332" lon="15.97253">
        <ele>437.859284</ele>
        <time>2026-07-08T09:03:05.000Z</time>
      </trkpt>
      <trkpt lat="47.30327" lon="15.97255">
        <ele>437.91965</ele>
        <time>2026-07-08T09:03:06.000Z</time>
      </trkpt>
      <trkpt lat="47.30323" lon="15.97257">
        <ele>437.980302</ele>
        <time>2026-07-08T09:03:07.000Z</time>
      </trkpt>
      <trkpt lat="47.30318" lon="15.9726">
        <ele>438.041866</ele>
        <time>2026-07-08T09:03:08.000Z</time>
      </trkpt>
      <trkpt lat="47.30314" lon="15.97262">
        <ele>438.103869</ele>
        <time>2026-07-08T09:03:09.000Z</time>
      </trkpt>
      <trkpt lat="47.30309" lon="15.97264">
        <ele>438.16709</ele>
        <time>2026-07-08T09:03:10.000Z</time>
      </trkpt>
      <trkpt lat="47.30304" lon="15.97265">
        <ele>438.231094</ele>
        <time>2026-07-08T09:03:11.000Z</time>
      </trkpt>
      <trkpt lat="47.30299" lon="15.97267">
        <ele>438.296758</ele>
        <time>2026-07-08T09:03:12.000Z</time>
      </trkpt>
      <trkpt lat="47.30294" lon="15.9727">
        <ele>438.363405</ele>
        <time>2026-07-08T09:03:13.000Z</time>
      </trkpt>
      <trkpt lat="47.30289" lon="15.97272">
        <ele>438.430519</ele>
        <time>2026-07-08T09:03:14.000Z</time>
      </trkpt>
      <trkpt lat="47.30284" lon="15.97274">
        <ele>438.499087</ele>
        <time>2026-07-08T09:03:15.000Z</time>
      </trkpt>
      <trkpt lat="47.30278" lon="15.97276">
        <ele>438.568428</ele>
        <time>2026-07-08T09:03:17.000Z</time>
      </trkpt>
      <trkpt lat="47.30273" lon="15.97278">
        <ele>438.640228</ele>
        <time>2026-07-08T09:03:18.000Z</time>
      </trkpt>
      <trkpt lat="47.30267" lon="15.9728">
        <ele>438.579344</ele>
        <time>2026-07-08T09:03:19.000Z</time>
      </trkpt>
      <trkpt lat="47.30262" lon="15.97282">
        <ele>438.457319</ele>
        <time>2026-07-08T09:03:20.000Z</time>
      </trkpt>
      <trkpt lat="47.30256" lon="15.97285">
        <ele>438.331815</ele>
        <time>2026-07-08T09:03:21.000Z</time>
      </trkpt>
      <trkpt lat="47.3025" lon="15.97288">
        <ele>438.201524</ele>
        <time>2026-07-08T09:03:22.000Z</time>
      </trkpt>
      <trkpt lat="47.30244" lon="15.9729">
        <ele>438.068741</ele>
        <time>2026-07-08T09:03:23.000Z</time>
      </trkpt>
      <trkpt lat="47.30237" lon="15.97292">
        <ele>437.930228</ele>
        <time>2026-07-08T09:03:24.000Z</time>
      </trkpt>
      <trkpt lat="47.3023" lon="15.97294">
        <ele>437.787351</ele>
        <time>2026-07-08T09:03:25.000Z</time>
      </trkpt>
      <trkpt lat="47.30224" lon="15.97296">
        <ele>437.643605</ele>
        <time>2026-07-08T09:03:26.000Z</time>
      </trkpt>
      <trkpt lat="47.30217" lon="15.97298">
        <ele>437.500585</ele>
        <time>2026-07-08T09:03:27.000Z</time>
      </trkpt>
      <trkpt lat="47.3021" lon="15.973">
        <ele>437.358021</ele>
        <time>2026-07-08T09:03:28.000Z</time>
      </trkpt>
      <trkpt lat="47.30204" lon="15.97302">
        <ele>437.223222</ele>
        <time>2026-07-08T09:03:29.000Z</time>
      </trkpt>
      <trkpt lat="47.30197" lon="15.97305">
        <ele>437.086733</ele>
        <time>2026-07-08T09:03:30.000Z</time>
      </trkpt>
      <trkpt lat="47.30191" lon="15.97307">
        <ele>436.952266</ele>
        <time>2026-07-08T09:03:31.000Z</time>
      </trkpt>
      <trkpt lat="47.30185" lon="15.97309">
        <ele>436.81639</ele>
        <time>2026-07-08T09:03:32.000Z</time>
      </trkpt>
      <trkpt lat="47.30178" lon="15.97312">
        <ele>436.67493</ele>
        <time>2026-07-08T09:03:33.000Z</time>
      </trkpt>
      <trkpt lat="47.30172" lon="15.97316">
        <ele>436.540641</ele>
        <time>2026-07-08T09:03:34.000Z</time>
      </trkpt>
      <trkpt lat="47.30167" lon="15.97321">
        <ele>436.404521</ele>
        <time>2026-07-08T09:03:35.000Z</time>
      </trkpt>
      <trkpt lat="47.30161" lon="15.97325">
        <ele>436.264712</ele>
        <time>2026-07-08T09:03:36.000Z</time>
      </trkpt>
      <trkpt lat="47.30155" lon="15.9733">
        <ele>436.121572</ele>
        <time>2026-07-08T09:03:37.000Z</time>
      </trkpt>
      <trkpt lat="47.30148" lon="15.97335">
        <ele>435.976132</ele>
        <time>2026-07-08T09:03:38.000Z</time>
      </trkpt>
      <trkpt lat="47.30142" lon="15.9734">
        <ele>435.821866</ele>
        <time>2026-07-08T09:03:39.000Z</time>
      </trkpt>
      <trkpt lat="47.30135" lon="15.97346">
        <ele>435.666217</ele>
        <time>2026-07-08T09:03:40.000Z</time>
      </trkpt>
      <trkpt lat="47.30129" lon="15.97351">
        <ele>435.505806</ele>
        <time>2026-07-08T09:03:41.000Z</time>
      </trkpt>
      <trkpt lat="47.30122" lon="15.97357">
        <ele>435.341069</ele>
        <time>2026-07-08T09:03:42.000Z</time>
      </trkpt>
      <trkpt lat="47.30115" lon="15.97363">
        <ele>435.177912</ele>
        <time>2026-07-08T09:03:43.000Z</time>
      </trkpt>
      <trkpt lat="47.30108" lon="15.97369">
        <ele>435.010092</ele>
        <time>2026-07-08T09:03:44.000Z</time>
      </trkpt>
      <trkpt lat="47.30101" lon="15.97375">
        <ele>434.826903</ele>
        <time>2026-07-08T09:03:45.000Z</time>
      </trkpt>
      <trkpt lat="47.30095" lon="15.97383">
        <ele>434.623833</ele>
        <time>2026-07-08T09:03:46.000Z</time>
      </trkpt>
      <trkpt lat="47.30089" lon="15.9739">
        <ele>434.421271</ele>
        <time>2026-07-08T09:03:47.000Z</time>
      </trkpt>
      <trkpt lat="47.30083" lon="15.97398">
        <ele>434.216061</ele>
        <time>2026-07-08T09:03:48.000Z</time>
      </trkpt>
      <trkpt lat="47.30077" lon="15.97407">
        <ele>434.009114</ele>
        <time>2026-07-08T09:03:49.000Z</time>
      </trkpt>
      <trkpt lat="47.30071" lon="15.97416">
        <ele>433.802166</ele>
        <time>2026-07-08T09:03:50.000Z</time>
      </trkpt>
      <trkpt lat="47.30066" lon="15.97424">
        <ele>433.60187</ele>
        <time>2026-07-08T09:03:51.000Z</time>
      </trkpt>
      <trkpt lat="47.3006" lon="15.97432">
        <ele>433.397344</ele>
        <time>2026-07-08T09:03:52.000Z</time>
      </trkpt>
      <trkpt lat="47.30054" lon="15.9744">
        <ele>433.195564</ele>
        <time>2026-07-08T09:03:53.000Z</time>
      </trkpt>
      <trkpt lat="47.30048" lon="15.97448">
        <ele>432.992866</ele>
        <time>2026-07-08T09:03:54.000Z</time>
      </trkpt>
      <trkpt lat="47.30042" lon="15.97456">
        <ele>432.797132</ele>
        <time>2026-07-08T09:03:55.000Z</time>
      </trkpt>
      <trkpt lat="47.30036" lon="15.97463">
        <ele>432.591967</ele>
        <time>2026-07-08T09:03:56.000Z</time>
      </trkpt>
      <trkpt lat="47.3003" lon="15.9747">
        <ele>432.399062</ele>
        <time>2026-07-08T09:03:57.000Z</time>
      </trkpt>
      <trkpt lat="47.30023" lon="15.97477">
        <ele>432.203023</ele>
        <time>2026-07-08T09:03:58.000Z</time>
      </trkpt>
      <trkpt lat="47.30017" lon="15.97483">
        <ele>432.011953</ele>
        <time>2026-07-08T09:03:59.000Z</time>
      </trkpt>
      <trkpt lat="47.30011" lon="15.97489">
        <ele>431.82393</ele>
        <time>2026-07-08T09:04:00.000Z</time>
      </trkpt>
      <trkpt lat="47.30005" lon="15.97495">
        <ele>431.634076</ele>
        <time>2026-07-08T09:04:01.000Z</time>
      </trkpt>
      <trkpt lat="47.29999" lon="15.97502">
        <ele>431.443157</ele>
        <time>2026-07-08T09:04:02.000Z</time>
      </trkpt>
      <trkpt lat="47.29992" lon="15.97508">
        <ele>431.251251</ele>
        <time>2026-07-08T09:04:03.000Z</time>
      </trkpt>
      <trkpt lat="47.29986" lon="15.97514">
        <ele>431.061125</ele>
        <time>2026-07-08T09:04:04.000Z</time>
      </trkpt>
      <trkpt lat="47.2998" lon="15.9752">
        <ele>430.871932</ele>
        <time>2026-07-08T09:04:05.000Z</time>
      </trkpt>
      <trkpt lat="47.29974" lon="15.97526">
        <ele>430.685786</ele>
        <time>2026-07-08T09:04:06.000Z</time>
      </trkpt>
      <trkpt lat="47.29968" lon="15.97532">
        <ele>430.504803</ele>
        <time>2026-07-08T09:04:07.000Z</time>
      </trkpt>
      <trkpt lat="47.29962" lon="15.97538">
        <ele>430.319745</ele>
        <time>2026-07-08T09:04:08.000Z</time>
      </trkpt>
      <trkpt lat="47.29956" lon="15.97545">
        <ele>430.125628</ele>
        <time>2026-07-08T09:04:09.000Z</time>
      </trkpt>
      <trkpt lat="47.2995" lon="15.97551">
        <ele>429.944262</ele>
        <time>2026-07-08T09:04:10.000Z</time>
      </trkpt>
      <trkpt lat="47.29944" lon="15.97555">
        <ele>429.766539</ele>
        <time>2026-07-08T09:04:11.000Z</time>
      </trkpt>
      <trkpt lat="47.29939" lon="15.97561">
        <ele>429.583083</ele>
        <time>2026-07-08T09:04:12.000Z</time>
      </trkpt>
      <trkpt lat="47.29934" lon="15.97568">
        <ele>429.401248</ele>
        <time>2026-07-08T09:04:13.000Z</time>
      </trkpt>
      <trkpt lat="47.29929" lon="15.97575">
        <ele>429.218523</ele>
        <time>2026-07-08T09:04:14.000Z</time>
      </trkpt>
      <trkpt lat="47.29923" lon="15.97582">
        <ele>429.027142</ele>
        <time>2026-07-08T09:04:15.000Z</time>
      </trkpt>
      <trkpt lat="47.29917" lon="15.97589">
        <ele>428.826585</ele>
        <time>2026-07-08T09:04:16.000Z</time>
      </trkpt>
      <trkpt lat="47.29911" lon="15.97595">
        <ele>428.627118</ele>
        <time>2026-07-08T09:04:17.000Z</time>
      </trkpt>
      <trkpt lat="47.29905" lon="15.97603">
        <ele>428.416846</ele>
        <time>2026-07-08T09:04:18.000Z</time>
      </trkpt>
      <trkpt lat="47.29899" lon="15.9761">
        <ele>428.206041</ele>
        <time>2026-07-08T09:04:19.000Z</time>
      </trkpt>
      <trkpt lat="47.29893" lon="15.97618">
        <ele>427.994394</ele>
        <time>2026-07-08T09:04:20.000Z</time>
      </trkpt>
      <trkpt lat="47.29887" lon="15.97626">
        <ele>427.779562</ele>
        <time>2026-07-08T09:04:21.000Z</time>
      </trkpt>
      <trkpt lat="47.2988" lon="15.97634">
        <ele>427.559216</ele>
        <time>2026-07-08T09:04:22.000Z</time>
      </trkpt>
      <trkpt lat="47.29874" lon="15.97642">
        <ele>427.334514</ele>
        <time>2026-07-08T09:04:23.000Z</time>
      </trkpt>
      <trkpt lat="47.29868" lon="15.9765">
        <ele>427.118157</ele>
        <time>2026-07-08T09:04:24.000Z</time>
      </trkpt>
      <trkpt lat="47.29861" lon="15.97658">
        <ele>426.892612</ele>
        <time>2026-07-08T09:04:25.000Z</time>
      </trkpt>
      <trkpt lat="47.29855" lon="15.97666">
        <ele>426.665535</ele>
        <time>2026-07-08T09:04:26.000Z</time>
      </trkpt>
      <trkpt lat="47.29849" lon="15.97675">
        <ele>426.445023</ele>
        <time>2026-07-08T09:04:27.000Z</time>
      </trkpt>
      <trkpt lat="47.29843" lon="15.97683">
        <ele>426.222591</ele>
        <time>2026-07-08T09:04:28.000Z</time>
      </trkpt>
      <trkpt lat="47.29837" lon="15.97692">
        <ele>426.000658</ele>
        <time>2026-07-08T09:04:29.000Z</time>
      </trkpt>
      <trkpt lat="47.2983" lon="15.977">
        <ele>425.779929</ele>
        <time>2026-07-08T09:04:30.000Z</time>
      </trkpt>
      <trkpt lat="47.29824" lon="15.97708">
        <ele>425.599427</ele>
        <time>2026-07-08T09:04:31.000Z</time>
      </trkpt>
      <trkpt lat="47.29818" lon="15.97716">
        <ele>425.51434</ele>
        <time>2026-07-08T09:04:32.000Z</time>
      </trkpt>
      <trkpt lat="47.29812" lon="15.97724">
        <ele>425.428771</ele>
        <time>2026-07-08T09:04:33.000Z</time>
      </trkpt>
      <trkpt lat="47.29806" lon="15.97733">
        <ele>425.342231</ele>
        <time>2026-07-08T09:04:34.000Z</time>
      </trkpt>
      <trkpt lat="47.298" lon="15.97741">
        <ele>425.257143</ele>
        <time>2026-07-08T09:04:35.000Z</time>
      </trkpt>
      <trkpt lat="47.29794" lon="15.97749">
        <ele>425.173947</ele>
        <time>2026-07-08T09:04:36.000Z</time>
      </trkpt>
      <trkpt lat="47.29788" lon="15.97756">
        <ele>425.089391</ele>
        <time>2026-07-08T09:04:37.000Z</time>
      </trkpt>
      <trkpt lat="47.29781" lon="15.97762">
        <ele>425.005862</ele>
        <time>2026-07-08T09:04:38.000Z</time>
      </trkpt>
      <trkpt lat="47.29774" lon="15.97767">
        <ele>424.923086</ele>
        <time>2026-07-08T09:04:39.000Z</time>
      </trkpt>
      <trkpt lat="47.29767" lon="15.97771">
        <ele>424.846862</ele>
        <time>2026-07-08T09:04:40.000Z</time>
      </trkpt>
      <trkpt lat="47.29761" lon="15.97772">
        <ele>424.780117</ele>
        <time>2026-07-08T09:04:41.000Z</time>
      </trkpt>
      <trkpt lat="47.29755" lon="15.97774">
        <ele>424.723986</ele>
        <time>2026-07-08T09:04:42.000Z</time>
      </trkpt>
      <trkpt lat="47.2975" lon="15.97776">
        <ele>424.670102</ele>
        <time>2026-07-08T09:04:43.000Z</time>
      </trkpt>
      <trkpt lat="47.29745" lon="15.97778">
        <ele>424.617222</ele>
        <time>2026-07-08T09:04:44.000Z</time>
      </trkpt>
      <trkpt lat="47.29741" lon="15.9778">
        <ele>424.566471</ele>
        <time>2026-07-08T09:04:45.000Z</time>
      </trkpt>
      <trkpt lat="47.29736" lon="15.97783">
        <ele>424.516202</ele>
        <time>2026-07-08T09:04:46.000Z</time>
      </trkpt>
      <trkpt lat="47.29732" lon="15.97786">
        <ele>424.463739</ele>
        <time>2026-07-08T09:04:47.000Z</time>
      </trkpt>
      <trkpt lat="47.29727" lon="15.97788">
        <ele>424.410792</ele>
        <time>2026-07-08T09:04:48.000Z</time>
      </trkpt>
      <trkpt lat="47.29722" lon="15.9779">
        <ele>424.356315</ele>
        <time>2026-07-08T09:04:49.000Z</time>
      </trkpt>
      <trkpt lat="47.29717" lon="15.97793">
        <ele>424.302045</ele>
        <time>2026-07-08T09:04:50.000Z</time>
      </trkpt>
      <trkpt lat="47.29711" lon="15.97794">
        <ele>424.244614</ele>
        <time>2026-07-08T09:04:51.000Z</time>
      </trkpt>
      <trkpt lat="47.29706" lon="15.97796">
        <ele>424.186307</ele>
        <time>2026-07-08T09:04:52.000Z</time>
      </trkpt>
      <trkpt lat="47.297" lon="15.97798">
        <ele>424.126378</ele>
        <time>2026-07-08T09:04:53.000Z</time>
      </trkpt>
      <trkpt lat="47.29694" lon="15.978">
        <ele>424.062072</ele>
        <time>2026-07-08T09:04:54.000Z</time>
      </trkpt>
      <trkpt lat="47.29688" lon="15.97802">
        <ele>423.998092</ele>
        <time>2026-07-08T09:04:55.000Z</time>
      </trkpt>
      <trkpt lat="47.29682" lon="15.97804">
        <ele>423.932081</ele>
        <time>2026-07-08T09:04:56.000Z</time>
      </trkpt>
      <trkpt lat="47.29676" lon="15.97806">
        <ele>423.864743</ele>
        <time>2026-07-08T09:04:57.000Z</time>
      </trkpt>
      <trkpt lat="47.29669" lon="15.97808">
        <ele>423.795681</ele>
        <time>2026-07-08T09:04:58.000Z</time>
      </trkpt>
      <trkpt lat="47.29663" lon="15.9781">
        <ele>423.65496</ele>
        <time>2026-07-08T09:04:59.000Z</time>
      </trkpt>
      <trkpt lat="47.29656" lon="15.97812">
        <ele>423.396208</ele>
        <time>2026-07-08T09:05:00.000Z</time>
      </trkpt>
      <trkpt lat="47.29649" lon="15.97814">
        <ele>423.127606</ele>
        <time>2026-07-08T09:05:01.000Z</time>
      </trkpt>
      <trkpt lat="47.29642" lon="15.97817">
        <ele>422.851139</ele>
        <time>2026-07-08T09:05:02.000Z</time>
      </trkpt>
      <trkpt lat="47.29634" lon="15.97819">
        <ele>422.565221</ele>
        <time>2026-07-08T09:05:03.000Z</time>
      </trkpt>
      <trkpt lat="47.29626" lon="15.97821">
        <ele>422.269127</ele>
        <time>2026-07-08T09:05:04.000Z</time>
      </trkpt>
      <trkpt lat="47.29618" lon="15.97822">
        <ele>421.959658</ele>
        <time>2026-07-08T09:05:05.000Z</time>
      </trkpt>
      <trkpt lat="47.2961" lon="15.97823">
        <ele>421.647544</ele>
        <time>2026-07-08T09:05:06.000Z</time>
      </trkpt>
      <trkpt lat="47.29602" lon="15.97824">
        <ele>421.347049</ele>
        <time>2026-07-08T09:05:07.000Z</time>
      </trkpt>
      <trkpt lat="47.29594" lon="15.97825">
        <ele>421.047037</ele>
        <time>2026-07-08T09:05:08.000Z</time>
      </trkpt>
      <trkpt lat="47.29586" lon="15.97825">
        <ele>420.751114</ele>
        <time>2026-07-08T09:05:09.000Z</time>
      </trkpt>
      <trkpt lat="47.29578" lon="15.97825">
        <ele>420.447649</ele>
        <time>2026-07-08T09:05:10.000Z</time>
      </trkpt>
      <trkpt lat="47.2957" lon="15.97826">
        <ele>420.151726</ele>
        <time>2026-07-08T09:05:11.000Z</time>
      </trkpt>
      <trkpt lat="47.29563" lon="15.97827">
        <ele>419.884599</ele>
        <time>2026-07-08T09:05:12.000Z</time>
      </trkpt>
      <trkpt lat="47.29556" lon="15.97829">
        <ele>419.628572</ele>
        <time>2026-07-08T09:05:13.000Z</time>
      </trkpt>
      <trkpt lat="47.2955" lon="15.97832">
        <ele>419.380618</ele>
        <time>2026-07-08T09:05:14.000Z</time>
      </trkpt>
      <trkpt lat="47.29543" lon="15.97834">
        <ele>419.112583</ele>
        <time>2026-07-08T09:05:15.000Z</time>
      </trkpt>
      <trkpt lat="47.29536" lon="15.97836">
        <ele>418.848645</ele>
        <time>2026-07-08T09:05:16.000Z</time>
      </trkpt>
      <trkpt lat="47.29529" lon="15.97836">
        <ele>418.586363</ele>
        <time>2026-07-08T09:05:17.000Z</time>
      </trkpt>
      <trkpt lat="47.29522" lon="15.97836">
        <ele>418.33167</ele>
        <time>2026-07-08T09:05:18.000Z</time>
      </trkpt>
      <trkpt lat="47.29516" lon="15.97835">
        <ele>418.104893</ele>
        <time>2026-07-08T09:05:19.000Z</time>
      </trkpt>
      <trkpt lat="47.2951" lon="15.97833">
        <ele>417.888037</ele>
        <time>2026-07-08T09:05:20.000Z</time>
      </trkpt>
      <trkpt lat="47.29505" lon="15.97831">
        <ele>417.683138</ele>
        <time>2026-07-08T09:05:21.000Z</time>
      </trkpt>
      <trkpt lat="47.295" lon="15.97829">
        <ele>417.501889</ele>
        <time>2026-07-08T09:05:22.000Z</time>
      </trkpt>
      <trkpt lat="47.29496" lon="15.97828">
        <ele>417.347308</ele>
        <time>2026-07-08T09:05:23.000Z</time>
      </trkpt>
      <trkpt lat="47.29492" lon="15.97827">
        <ele>417.195357</ele>
        <time>2026-07-08T09:05:24.000Z</time>
      </trkpt>
      <trkpt lat="47.29488" lon="15.97826">
        <ele>417.020822</ele>
        <time>2026-07-08T09:05:25.000Z</time>
      </trkpt>
      <trkpt lat="47.29482" lon="15.97825">
        <ele>416.81205</ele>
        <time>2026-07-08T09:05:26.000Z</time>
      </trkpt>
      <trkpt lat="47.29475" lon="15.97824">
        <ele>416.557029</ele>
        <time>2026-07-08T09:05:27.000Z</time>
      </trkpt>
      <trkpt lat="47.29467" lon="15.97824">
        <ele>416.265907</ele>
        <time>2026-07-08T09:05:28.000Z</time>
      </trkpt>
      <trkpt lat="47.29459" lon="15.97824">
        <ele>415.967518</ele>
        <time>2026-07-08T09:05:29.000Z</time>
      </trkpt>
      <trkpt lat="47.29451" lon="15.97825">
        <ele>415.676312</ele>
        <time>2026-07-08T09:05:30.000Z</time>
      </trkpt>
      <trkpt lat="47.29444" lon="15.97825">
        <ele>415.428867</ele>
        <time>2026-07-08T09:05:31.000Z</time>
      </trkpt>
      <trkpt lat="47.29438" lon="15.97824">
        <ele>415.221318</ele>
        <time>2026-07-08T09:05:32.000Z</time>
      </trkpt>
      <trkpt lat="47.29433" lon="15.97824">
        <ele>415.034932</ele>
        <time>2026-07-08T09:05:33.000Z</time>
      </trkpt>
      <trkpt lat="47.29428" lon="15.97823">
        <ele>414.826797</ele>
        <time>2026-07-08T09:05:34.000Z</time>
      </trkpt>
      <trkpt lat="47.29422" lon="15.97822">
        <ele>414.61538</ele>
        <time>2026-07-08T09:05:35.000Z</time>
      </trkpt>
      <trkpt lat="47.29415" lon="15.97822">
        <ele>414.382373</ele>
        <time>2026-07-08T09:05:36.000Z</time>
      </trkpt>
      <trkpt lat="47.29409" lon="15.97822">
        <ele>414.153123</ele>
        <time>2026-07-08T09:05:37.000Z</time>
      </trkpt>
      <trkpt lat="47.29403" lon="15.97823">
        <ele>413.934441</ele>
        <time>2026-07-08T09:05:38.000Z</time>
      </trkpt>
      <trkpt lat="47.29397" lon="15.97824">
        <ele>413.72492</ele>
        <time>2026-07-08T09:05:39.000Z</time>
      </trkpt>
      <trkpt lat="47.29392" lon="15.97826">
        <ele>413.534093</ele>
        <time>2026-07-08T09:05:40.000Z</time>
      </trkpt>
      <trkpt lat="47.29388" lon="15.97828">
        <ele>413.353891</ele>
        <time>2026-07-08T09:05:41.000Z</time>
      </trkpt>
      <trkpt lat="47.29384" lon="15.97831">
        <ele>413.200394</ele>
        <time>2026-07-08T09:05:42.000Z</time>
      </trkpt>
      <trkpt lat="47.2938" lon="15.97833">
        <ele>413.064271</ele>
        <time>2026-07-08T09:05:43.000Z</time>
      </trkpt>
      <trkpt lat="47.29377" lon="15.97835">
        <ele>412.927679</ele>
        <time>2026-07-08T09:05:44.000Z</time>
      </trkpt>
      <trkpt lat="47.29374" lon="15.97837">
        <ele>412.800477</ele>
        <time>2026-07-08T09:05:45.000Z</time>
      </trkpt>
      <trkpt lat="47.29371" lon="15.97838">
        <ele>412.716703</ele>
        <time>2026-07-08T09:05:46.000Z</time>
      </trkpt>
      <trkpt lat="47.29371" lon="15.97839">
        <ele>412.67338</ele>
        <time>2026-07-08T09:05:47.000Z</time>
      </trkpt>
      <trkpt lat="47.29371" lon="15.9784">
        <ele>412.638069</ele>
        <time>2026-07-08T09:05:48.000Z</time>
      </trkpt>
      <trkpt lat="47.29372" lon="15.9784">
        <ele>412.608854</ele>
        <time>2026-07-08T09:05:49.000Z</time>
      </trkpt>
      <trkpt lat="47.29372" lon="15.9784">
        <ele>412.586869</ele>
        <time>2026-07-08T09:05:50.000Z</time>
      </trkpt>
      <trkpt lat="47.29372" lon="15.97839">
        <ele>412.557608</ele>
        <time>2026-07-08T09:05:51.000Z</time>
      </trkpt>
      <trkpt lat="47.29373" lon="15.97838">
        <ele>412.535017</ele>
        <time>2026-07-08T09:05:52.000Z</time>
      </trkpt>
      <trkpt lat="47.29373" lon="15.97837">
        <ele>412.507176</ele>
        <time>2026-07-08T09:05:53.000Z</time>
      </trkpt>
      <trkpt lat="47.29373" lon="15.97837">
        <ele>412.503537</ele>
        <time>2026-07-08T09:05:54.000Z</time>
      </trkpt>
      <trkpt lat="47.29374" lon="15.97836">
        <ele>412.465371</ele>
        <time>2026-07-08T09:05:55.000Z</time>
      </trkpt>
      <trkpt lat="47.29375" lon="15.97835">
        <ele>412.413953</ele>
        <time>2026-07-08T09:05:56.000Z</time>
      </trkpt>
      <trkpt lat="47.29377" lon="15.97834">
        <ele>412.355023</ele>
        <time>2026-07-08T09:05:57.000Z</time>
      </trkpt>
      <trkpt lat="47.29378" lon="15.97833">
        <ele>412.291786</ele>
        <time>2026-07-08T09:05:58.000Z</time>
      </trkpt>
      <trkpt lat="47.2938" lon="15.97832">
        <ele>412.224416</ele>
        <time>2026-07-08T09:05:59.000Z</time>
      </trkpt>
      <trkpt lat="47.29381" lon="15.97829">
        <ele>412.144746</ele>
        <time>2026-07-08T09:06:00.000Z</time>
      </trkpt>
      <trkpt lat="47.29381" lon="15.97826">
        <ele>412.075259</ele>
        <time>2026-07-08T09:06:01.000Z</time>
      </trkpt>
      <trkpt lat="47.29379" lon="15.97824">
        <ele>411.998269</ele>
        <time>2026-07-08T09:06:02.000Z</time>
      </trkpt>
      <trkpt lat="47.29377" lon="15.97822">
        <ele>411.911091</ele>
        <time>2026-07-08T09:06:03.000Z</time>
      </trkpt>
      <trkpt lat="47.29375" lon="15.97821">
        <ele>411.805202</ele>
        <time>2026-07-08T09:06:04.000Z</time>
      </trkpt>
      <trkpt lat="47.29372" lon="15.9782">
        <ele>411.702586</ele>
        <time>2026-07-08T09:06:05.000Z</time>
      </trkpt>
      <trkpt lat="47.29369" lon="15.97819">
        <ele>411.604808</ele>
        <time>2026-07-08T09:06:06.000Z</time>
      </trkpt>
      <trkpt lat="47.29366" lon="15.97818">
        <ele>411.492886</ele>
        <time>2026-07-08T09:06:07.000Z</time>
      </trkpt>
      <trkpt lat="47.29363" lon="15.97817">
        <ele>411.364004</ele>
        <time>2026-07-08T09:06:08.000Z</time>
      </trkpt>
      <trkpt lat="47.29359" lon="15.97816">
        <ele>411.220359</ele>
        <time>2026-07-08T09:06:09.000Z</time>
      </trkpt>
      <trkpt lat="47.29355" lon="15.97816">
        <ele>411.074615</ele>
        <time>2026-07-08T09:06:10.000Z</time>
      </trkpt>
      <trkpt lat="47.29351" lon="15.97816">
        <ele>410.918142</ele>
        <time>2026-07-08T09:06:11.000Z</time>
      </trkpt>
      <trkpt lat="47.29346" lon="15.97816">
        <ele>410.761592</ele>
        <time>2026-07-08T09:06:12.000Z</time>
      </trkpt>
      <trkpt lat="47.29342" lon="15.97816">
        <ele>410.590564</ele>
        <time>2026-07-08T09:06:13.000Z</time>
      </trkpt>
      <trkpt lat="47.29337" lon="15.97815">
        <ele>410.39727</ele>
        <time>2026-07-08T09:06:14.000Z</time>
      </trkpt>
      <trkpt lat="47.29332" lon="15.97814">
        <ele>410.181077</ele>
        <time>2026-07-08T09:06:15.000Z</time>
      </trkpt>
      <trkpt lat="47.29326" lon="15.97813">
        <ele>409.941937</ele>
        <time>2026-07-08T09:06:16.000Z</time>
      </trkpt>
      <trkpt lat="47.2932" lon="15.97812">
        <ele>409.690574</ele>
        <time>2026-07-08T09:06:17.000Z</time>
      </trkpt>
      <trkpt lat="47.29314" lon="15.97811">
        <ele>409.415974</ele>
        <time>2026-07-08T09:06:18.000Z</time>
      </trkpt>
      <trkpt lat="47.29307" lon="15.97811">
        <ele>409.137474</ele>
        <time>2026-07-08T09:06:19.000Z</time>
      </trkpt>
      <trkpt lat="47.293" lon="15.97812">
        <ele>408.836862</ele>
        <time>2026-07-08T09:06:20.000Z</time>
      </trkpt>
      <trkpt lat="47.29294" lon="15.97812">
        <ele>408.545378</ele>
        <time>2026-07-08T09:06:21.000Z</time>
      </trkpt>
      <trkpt lat="47.29287" lon="15.97812">
        <ele>408.245399</ele>
        <time>2026-07-08T09:06:22.000Z</time>
      </trkpt>
      <trkpt lat="47.29279" lon="15.97812">
        <ele>407.924039</ele>
        <time>2026-07-08T09:06:23.000Z</time>
      </trkpt>
      <trkpt lat="47.29271" lon="15.97813">
        <ele>407.589637</ele>
        <time>2026-07-08T09:06:24.000Z</time>
      </trkpt>
      <trkpt lat="47.29263" lon="15.97813">
        <ele>407.250704</ele>
        <time>2026-07-08T09:06:25.000Z</time>
      </trkpt>
      <trkpt lat="47.29256" lon="15.97815">
        <ele>406.91469</ele>
        <time>2026-07-08T09:06:26.000Z</time>
      </trkpt>
      <trkpt lat="47.29248" lon="15.97816">
        <ele>406.570151</ele>
        <time>2026-07-08T09:06:27.000Z</time>
      </trkpt>
      <trkpt lat="47.29239" lon="15.97817">
        <ele>406.217362</ele>
        <time>2026-07-08T09:06:28.000Z</time>
      </trkpt>
      <trkpt lat="47.29231" lon="15.97818">
        <ele>405.847741</ele>
        <time>2026-07-08T09:06:29.000Z</time>
      </trkpt>
      <trkpt lat="47.29222" lon="15.97819">
        <ele>405.473848</ele>
        <time>2026-07-08T09:06:30.000Z</time>
      </trkpt>
      <trkpt lat="47.29214" lon="15.9782">
        <ele>405.108718</ele>
        <time>2026-07-08T09:06:31.000Z</time>
      </trkpt>
      <trkpt lat="47.29205" lon="15.9782">
        <ele>404.735911</ele>
        <time>2026-07-08T09:06:32.000Z</time>
      </trkpt>
      <trkpt lat="47.29196" lon="15.97819">
        <ele>404.358149</ele>
        <time>2026-07-08T09:06:33.000Z</time>
      </trkpt>
      <trkpt lat="47.29187" lon="15.97817">
        <ele>403.978914</ele>
        <time>2026-07-08T09:06:34.000Z</time>
      </trkpt>
      <trkpt lat="47.29178" lon="15.97815">
        <ele>403.5885</ele>
        <time>2026-07-08T09:06:35.000Z</time>
      </trkpt>
      <trkpt lat="47.29169" lon="15.97813">
        <ele>403.194982</ele>
        <time>2026-07-08T09:06:36.000Z</time>
      </trkpt>
      <trkpt lat="47.2916" lon="15.9781">
        <ele>402.803812</ele>
        <time>2026-07-08T09:06:37.000Z</time>
      </trkpt>
      <trkpt lat="47.29152" lon="15.97806">
        <ele>402.278343</ele>
        <time>2026-07-08T09:06:38.000Z</time>
      </trkpt>
      <trkpt lat="47.29144" lon="15.97803">
        <ele>401.767084</ele>
        <time>2026-07-08T09:06:39.000Z</time>
      </trkpt>
      <trkpt lat="47.29136" lon="15.97799">
        <ele>401.2665</ele>
        <time>2026-07-08T09:06:40.000Z</time>
      </trkpt>
      <trkpt lat="47.29128" lon="15.97796">
        <ele>400.763485</ele>
        <time>2026-07-08T09:06:41.000Z</time>
      </trkpt>
      <trkpt lat="47.2912" lon="15.97792">
        <ele>400.249416</ele>
        <time>2026-07-08T09:06:42.000Z</time>
      </trkpt>
      <trkpt lat="47.29113" lon="15.97788">
        <ele>399.741162</ele>
        <time>2026-07-08T09:06:43.000Z</time>
      </trkpt>
      <trkpt lat="47.29105" lon="15.97784">
        <ele>399.234265</ele>
        <time>2026-07-08T09:06:44.000Z</time>
      </trkpt>
      <trkpt lat="47.29097" lon="15.9778">
        <ele>398.74619</ele>
        <time>2026-07-08T09:06:45.000Z</time>
      </trkpt>
      <trkpt lat="47.2909" lon="15.97776">
        <ele>398.26112</ele>
        <time>2026-07-08T09:06:46.000Z</time>
      </trkpt>
      <trkpt lat="47.29083" lon="15.97772">
        <ele>397.802037</ele>
        <time>2026-07-08T09:06:47.000Z</time>
      </trkpt>
      <trkpt lat="47.29077" lon="15.97768">
        <ele>397.379884</ele>
        <time>2026-07-08T09:06:48.000Z</time>
      </trkpt>
      <trkpt lat="47.29071" lon="15.97764">
        <ele>397.013447</ele>
        <time>2026-07-08T09:06:49.000Z</time>
      </trkpt>
      <trkpt lat="47.29067" lon="15.9776">
        <ele>396.678803</ele>
        <time>2026-07-08T09:06:50.000Z</time>
      </trkpt>
      <trkpt lat="47.29063" lon="15.97757">
        <ele>396.387843</ele>
        <time>2026-07-08T09:06:51.000Z</time>
      </trkpt>
      <trkpt lat="47.29058" lon="15.97755">
        <ele>396.118505</ele>
        <time>2026-07-08T09:06:52.000Z</time>
      </trkpt>
      <trkpt lat="47.29053" lon="15.97756">
        <ele>395.810672</ele>
        <time>2026-07-08T09:06:53.000Z</time>
      </trkpt>
      <trkpt lat="47.29047" lon="15.97756">
        <ele>395.447347</ele>
        <time>2026-07-08T09:06:54.000Z</time>
      </trkpt>
      <trkpt lat="47.29041" lon="15.97757">
        <ele>395.073487</ele>
        <time>2026-07-08T09:06:55.000Z</time>
      </trkpt>
      <trkpt lat="47.29035" lon="15.9776">
        <ele>394.676392</ele>
        <time>2026-07-08T09:06:56.000Z</time>
      </trkpt>
      <trkpt lat="47.2903" lon="15.97766">
        <ele>394.274278</ele>
        <time>2026-07-08T09:06:57.000Z</time>
      </trkpt>
      <trkpt lat="47.29025" lon="15.97772">
        <ele>393.854703</ele>
        <time>2026-07-08T09:06:58.000Z</time>
      </trkpt>
      <trkpt lat="47.29019" lon="15.97779">
        <ele>393.429682</ele>
        <time>2026-07-08T09:06:59.000Z</time>
      </trkpt>
      <trkpt lat="47.29014" lon="15.97785">
        <ele>393.010685</ele>
        <time>2026-07-08T09:07:00.000Z</time>
      </trkpt>
      <trkpt lat="47.29009" lon="15.97791">
        <ele>392.628732</ele>
        <time>2026-07-08T09:07:01.000Z</time>
      </trkpt>
      <trkpt lat="47.29004" lon="15.97797">
        <ele>392.236718</ele>
        <time>2026-07-08T09:07:02.000Z</time>
      </trkpt>
      <trkpt lat="47.29" lon="15.97803">
        <ele>391.860671</ele>
        <time>2026-07-08T09:07:03.000Z</time>
      </trkpt>
      <trkpt lat="47.28996" lon="15.9781">
        <ele>391.501573</ele>
        <time>2026-07-08T09:07:04.000Z</time>
      </trkpt>
      <trkpt lat="47.28992" lon="15.97816">
        <ele>391.182541</ele>
        <time>2026-07-08T09:07:05.000Z</time>
      </trkpt>
      <trkpt lat="47.28988" lon="15.97822">
        <ele>390.892291</ele>
        <time>2026-07-08T09:07:06.000Z</time>
      </trkpt>
      <trkpt lat="47.28984" lon="15.97827">
        <ele>390.587371</ele>
        <time>2026-07-08T09:07:07.000Z</time>
      </trkpt>
      <trkpt lat="47.28979" lon="15.9783">
        <ele>390.301744</ele>
        <time>2026-07-08T09:07:08.000Z</time>
      </trkpt>
      <trkpt lat="47.28973" lon="15.97832">
        <ele>390.00078</ele>
        <time>2026-07-08T09:07:09.000Z</time>
      </trkpt>
      <trkpt lat="47.28968" lon="15.97832">
        <ele>389.683592</ele>
        <time>2026-07-08T09:07:10.000Z</time>
      </trkpt>
      <trkpt lat="47.28962" lon="15.97833">
        <ele>389.366921</ele>
        <time>2026-07-08T09:07:11.000Z</time>
      </trkpt>
      <trkpt lat="47.28956" lon="15.97833">
        <ele>389.028989</ele>
        <time>2026-07-08T09:07:12.000Z</time>
      </trkpt>
      <trkpt lat="47.28949" lon="15.97832">
        <ele>388.685108</ele>
        <time>2026-07-08T09:07:13.000Z</time>
      </trkpt>
      <trkpt lat="47.28943" lon="15.97832">
        <ele>388.32988</ele>
        <time>2026-07-08T09:07:14.000Z</time>
      </trkpt>
      <trkpt lat="47.28936" lon="15.97831">
        <ele>387.95334</ele>
        <time>2026-07-08T09:07:15.000Z</time>
      </trkpt>
      <trkpt lat="47.28929" lon="15.9783">
        <ele>387.581801</ele>
        <time>2026-07-08T09:07:16.000Z</time>
      </trkpt>
      <trkpt lat="47.28922" lon="15.9783">
        <ele>387.182815</ele>
        <time>2026-07-08T09:07:17.000Z</time>
      </trkpt>
      <trkpt lat="47.28914" lon="15.97829">
        <ele>386.772357</ele>
        <time>2026-07-08T09:07:18.000Z</time>
      </trkpt>
      <trkpt lat="47.28907" lon="15.97828">
        <ele>386.351869</ele>
        <time>2026-07-08T09:07:19.000Z</time>
      </trkpt>
      <trkpt lat="47.28899" lon="15.97827">
        <ele>385.92615</ele>
        <time>2026-07-08T09:07:20.000Z</time>
      </trkpt>
      <trkpt lat="47.28891" lon="15.97826">
        <ele>385.486595</ele>
        <time>2026-07-08T09:07:21.000Z</time>
      </trkpt>
      <trkpt lat="47.28883" lon="15.97824">
        <ele>385.046047</ele>
        <time>2026-07-08T09:07:22.000Z</time>
      </trkpt>
      <trkpt lat="47.28875" lon="15.97822">
        <ele>384.60378</ele>
        <time>2026-07-08T09:07:23.000Z</time>
      </trkpt>
      <trkpt lat="47.28867" lon="15.9782">
        <ele>384.149496</ele>
        <time>2026-07-08T09:07:24.000Z</time>
      </trkpt>
      <trkpt lat="47.28858" lon="15.97817">
        <ele>383.687757</ele>
        <time>2026-07-08T09:07:25.000Z</time>
      </trkpt>
      <trkpt lat="47.2885" lon="15.97815">
        <ele>383.218355</ele>
        <time>2026-07-08T09:07:26.000Z</time>
      </trkpt>
      <trkpt lat="47.28841" lon="15.97812">
        <ele>382.743636</ele>
        <time>2026-07-08T09:07:27.000Z</time>
      </trkpt>
      <trkpt lat="47.28833" lon="15.97809">
        <ele>382.269709</ele>
        <time>2026-07-08T09:07:28.000Z</time>
      </trkpt>
      <trkpt lat="47.28824" lon="15.97806">
        <ele>381.868046</ele>
        <time>2026-07-08T09:07:29.000Z</time>
      </trkpt>
      <trkpt lat="47.28816" lon="15.97803">
        <ele>381.757378</ele>
        <time>2026-07-08T09:07:30.000Z</time>
      </trkpt>
      <trkpt lat="47.28807" lon="15.97801">
        <ele>381.647262</ele>
        <time>2026-07-08T09:07:31.000Z</time>
      </trkpt>
      <trkpt lat="47.28799" lon="15.97798">
        <ele>381.536396</ele>
        <time>2026-07-08T09:07:32.000Z</time>
      </trkpt>
      <trkpt lat="47.28791" lon="15.97795">
        <ele>381.428198</ele>
        <time>2026-07-08T09:07:33.000Z</time>
      </trkpt>
      <trkpt lat="47.28782" lon="15.97792">
        <ele>381.320565</ele>
        <time>2026-07-08T09:07:34.000Z</time>
      </trkpt>
      <trkpt lat="47.28774" lon="15.9779">
        <ele>381.21435</ele>
        <time>2026-07-08T09:07:35.000Z</time>
      </trkpt>
      <trkpt lat="47.28766" lon="15.97787">
        <ele>381.110794</ele>
        <time>2026-07-08T09:07:36.000Z</time>
      </trkpt>
      <trkpt lat="47.28758" lon="15.97785">
        <ele>381.008963</ele>
        <time>2026-07-08T09:07:37.000Z</time>
      </trkpt>
      <trkpt lat="47.28751" lon="15.97782">
        <ele>380.910825</ele>
        <time>2026-07-08T09:07:38.000Z</time>
      </trkpt>
      <trkpt lat="47.28743" lon="15.97779">
        <ele>380.813475</ele>
        <time>2026-07-08T09:07:39.000Z</time>
      </trkpt>
      <trkpt lat="47.28736" lon="15.97775">
        <ele>380.717953</ele>
        <time>2026-07-08T09:07:40.000Z</time>
      </trkpt>
      <trkpt lat="47.2873" lon="15.9777">
        <ele>380.626119</ele>
        <time>2026-07-08T09:07:41.000Z</time>
      </trkpt>
      <trkpt lat="47.28724" lon="15.97765">
        <ele>380.536477</ele>
        <time>2026-07-08T09:07:42.000Z</time>
      </trkpt>
      <trkpt lat="47.28718" lon="15.9776">
        <ele>380.451251</ele>
        <time>2026-07-08T09:07:43.000Z</time>
      </trkpt>
      <trkpt lat="47.28712" lon="15.97755">
        <ele>380.369287</ele>
        <time>2026-07-08T09:07:44.000Z</time>
      </trkpt>
      <trkpt lat="47.28707" lon="15.97751">
        <ele>380.28727</ele>
        <time>2026-07-08T09:07:45.000Z</time>
      </trkpt>
      <trkpt lat="47.28701" lon="15.97747">
        <ele>380.208301</ele>
        <time>2026-07-08T09:07:46.000Z</time>
      </trkpt>
      <trkpt lat="47.28696" lon="15.97742">
        <ele>380.13072</ele>
        <time>2026-07-08T09:07:47.000Z</time>
      </trkpt>
      <trkpt lat="47.28691" lon="15.97737">
        <ele>380.05197</ele>
        <time>2026-07-08T09:07:48.000Z</time>
      </trkpt>
      <trkpt lat="47.28686" lon="15.97732">
        <ele>379.974353</ele>
        <time>2026-07-08T09:07:49.000Z</time>
      </trkpt>
      <trkpt lat="47.28681" lon="15.97727">
        <ele>379.898282</ele>
        <time>2026-07-08T09:07:50.000Z</time>
      </trkpt>
      <trkpt lat="47.28676" lon="15.97721">
        <ele>379.820534</ele>
        <time>2026-07-08T09:07:51.000Z</time>
      </trkpt>
      <trkpt lat="47.28672" lon="15.97715">
        <ele>379.745141</ele>
        <time>2026-07-08T09:07:52.000Z</time>
      </trkpt>
      <trkpt lat="47.28668" lon="15.97708">
        <ele>379.668769</ele>
        <time>2026-07-08T09:07:53.000Z</time>
      </trkpt>
      <trkpt lat="47.28664" lon="15.97702">
        <ele>379.582046</ele>
        <time>2026-07-08T09:07:54.000Z</time>
      </trkpt>
      <trkpt lat="47.2866" lon="15.97695">
        <ele>379.443632</ele>
        <time>2026-07-08T09:07:55.000Z</time>
      </trkpt>
      <trkpt lat="47.28656" lon="15.97688">
        <ele>379.304215</ele>
        <time>2026-07-08T09:07:56.000Z</time>
      </trkpt>
      <trkpt lat="47.28653" lon="15.97681">
        <ele>379.167457</ele>
        <time>2026-07-08T09:07:57.000Z</time>
      </trkpt>
      <trkpt lat="47.28649" lon="15.97674">
        <ele>379.027559</ele>
        <time>2026-07-08T09:07:58.000Z</time>
      </trkpt>
      <trkpt lat="47.28644" lon="15.97668">
        <ele>378.883829</ele>
        <time>2026-07-08T09:07:59.000Z</time>
      </trkpt>
      <trkpt lat="47.2864" lon="15.97661">
        <ele>378.737337</ele>
        <time>2026-07-08T09:08:00.000Z</time>
      </trkpt>
      <trkpt lat="47.28635" lon="15.97655">
        <ele>378.588081</ele>
        <time>2026-07-08T09:08:01.000Z</time>
      </trkpt>
      <trkpt lat="47.2863" lon="15.97648">
        <ele>378.437129</ele>
        <time>2026-07-08T09:08:02.000Z</time>
      </trkpt>
      <trkpt lat="47.28625" lon="15.97642">
        <ele>378.279229</ele>
        <time>2026-07-08T09:08:03.000Z</time>
      </trkpt>
      <trkpt lat="47.28619" lon="15.97636">
        <ele>378.114232</ele>
        <time>2026-07-08T09:08:04.000Z</time>
      </trkpt>
      <trkpt lat="47.28614" lon="15.9763">
        <ele>377.950128</ele>
        <time>2026-07-08T09:08:05.000Z</time>
      </trkpt>
      <trkpt lat="47.28607" lon="15.97624">
        <ele>377.778359</ele>
        <time>2026-07-08T09:08:06.000Z</time>
      </trkpt>
      <trkpt lat="47.28601" lon="15.97617">
        <ele>377.606756</ele>
        <time>2026-07-08T09:08:07.000Z</time>
      </trkpt>
      <trkpt lat="47.28595" lon="15.97611">
        <ele>377.425863</ele>
        <time>2026-07-08T09:08:08.000Z</time>
      </trkpt>
      <trkpt lat="47.28589" lon="15.97604">
        <ele>377.244091</ele>
        <time>2026-07-08T09:08:09.000Z</time>
      </trkpt>
      <trkpt lat="47.28582" lon="15.97597">
        <ele>377.053898</ele>
        <time>2026-07-08T09:08:10.000Z</time>
      </trkpt>
      <trkpt lat="47.28575" lon="15.9759">
        <ele>376.856074</ele>
        <time>2026-07-08T09:08:11.000Z</time>
      </trkpt>
      <trkpt lat="47.28567" lon="15.97582">
        <ele>376.64809</ele>
        <time>2026-07-08T09:08:12.000Z</time>
      </trkpt>
      <trkpt lat="47.2856" lon="15.97575">
        <ele>376.447608</ele>
        <time>2026-07-08T09:08:13.000Z</time>
      </trkpt>
      <trkpt lat="47.28553" lon="15.97567">
        <ele>376.247177</ele>
        <time>2026-07-08T09:08:14.000Z</time>
      </trkpt>
      <trkpt lat="47.28546" lon="15.97559">
        <ele>376.037311</ele>
        <time>2026-07-08T09:08:15.000Z</time>
      </trkpt>
      <trkpt lat="47.28539" lon="15.97551">
        <ele>375.82004</ele>
        <time>2026-07-08T09:08:16.000Z</time>
      </trkpt>
      <trkpt lat="47.28531" lon="15.97542">
        <ele>375.59539</ele>
        <time>2026-07-08T09:08:17.000Z</time>
      </trkpt>
      <trkpt lat="47.28523" lon="15.97533">
        <ele>375.266124</ele>
        <time>2026-07-08T09:08:18.000Z</time>
      </trkpt>
      <trkpt lat="47.28514" lon="15.97525">
        <ele>374.753896</ele>
        <time>2026-07-08T09:08:19.000Z</time>
      </trkpt>
      <trkpt lat="47.28505" lon="15.97517">
        <ele>374.241188</ele>
        <time>2026-07-08T09:08:20.000Z</time>
      </trkpt>
      <trkpt lat="47.28496" lon="15.97508">
        <ele>373.717098</ele>
        <time>2026-07-08T09:08:21.000Z</time>
      </trkpt>
      <trkpt lat="47.28488" lon="15.97499">
        <ele>373.199498</ele>
        <time>2026-07-08T09:08:22.000Z</time>
      </trkpt>
      <trkpt lat="47.28479" lon="15.9749">
        <ele>372.675968</ele>
        <time>2026-07-08T09:08:23.000Z</time>
      </trkpt>
      <trkpt lat="47.28471" lon="15.9748">
        <ele>372.162298</ele>
        <time>2026-07-08T09:08:24.000Z</time>
      </trkpt>
      <trkpt lat="47.28462" lon="15.97471">
        <ele>371.652669</ele>
        <time>2026-07-08T09:08:25.000Z</time>
      </trkpt>
      <trkpt lat="47.28454" lon="15.97462">
        <ele>371.158784</ele>
        <time>2026-07-08T09:08:26.000Z</time>
      </trkpt>
      <trkpt lat="47.28447" lon="15.97454">
        <ele>370.688582</ele>
        <time>2026-07-08T09:08:27.000Z</time>
      </trkpt>
      <trkpt lat="47.28439" lon="15.97446">
        <ele>370.226265</ele>
        <time>2026-07-08T09:08:28.000Z</time>
      </trkpt>
      <trkpt lat="47.28431" lon="15.97438">
        <ele>369.773333</ele>
        <time>2026-07-08T09:08:29.000Z</time>
      </trkpt>
      <trkpt lat="47.28424" lon="15.97431">
        <ele>369.330418</ele>
        <time>2026-07-08T09:08:30.000Z</time>
      </trkpt>
      <trkpt lat="47.28417" lon="15.97424">
        <ele>368.901206</ele>
        <time>2026-07-08T09:08:31.000Z</time>
      </trkpt>
      <trkpt lat="47.28409" lon="15.97417">
        <ele>368.457232</ele>
        <time>2026-07-08T09:08:32.000Z</time>
      </trkpt>
      <trkpt lat="47.28402" lon="15.9741">
        <ele>368.026177</ele>
        <time>2026-07-08T09:08:33.000Z</time>
      </trkpt>
      <trkpt lat="47.28395" lon="15.97402">
        <ele>367.597536</ele>
        <time>2026-07-08T09:08:34.000Z</time>
      </trkpt>
      <trkpt lat="47.28388" lon="15.97394">
        <ele>367.174387</ele>
        <time>2026-07-08T09:08:35.000Z</time>
      </trkpt>
      <trkpt lat="47.28382" lon="15.97386">
        <ele>366.782416</ele>
        <time>2026-07-08T09:08:36.000Z</time>
      </trkpt>
      <trkpt lat="47.28376" lon="15.97379">
        <ele>366.599699</ele>
        <time>2026-07-08T09:08:37.000Z</time>
      </trkpt>
      <trkpt lat="47.28371" lon="15.97373">
        <ele>366.572549</ele>
        <time>2026-07-08T09:08:38.000Z</time>
      </trkpt>
      <trkpt lat="47.28366" lon="15.97368">
        <ele>366.546679</ele>
        <time>2026-07-08T09:08:39.000Z</time>
      </trkpt>
      <trkpt lat="47.28361" lon="15.97362">
        <ele>366.520995</ele>
        <time>2026-07-08T09:08:40.000Z</time>
      </trkpt>
      <trkpt lat="47.28356" lon="15.97356">
        <ele>366.495969</ele>
        <time>2026-07-08T09:08:41.000Z</time>
      </trkpt>
      <trkpt lat="47.28352" lon="15.9735">
        <ele>366.471127</ele>
        <time>2026-07-08T09:08:42.000Z</time>
      </trkpt>
      <trkpt lat="47.28347" lon="15.97344">
        <ele>366.446743</ele>
        <time>2026-07-08T09:08:43.000Z</time>
      </trkpt>
      <trkpt lat="47.28343" lon="15.97339">
        <ele>366.423165</ele>
        <time>2026-07-08T09:08:44.000Z</time>
      </trkpt>
      <trkpt lat="47.28339" lon="15.97333">
        <ele>366.400366</ele>
        <time>2026-07-08T09:08:45.000Z</time>
      </trkpt>
      <trkpt lat="47.28335" lon="15.97327">
        <ele>366.376713</ele>
        <time>2026-07-08T09:08:46.000Z</time>
      </trkpt>
      <trkpt lat="47.28331" lon="15.9732">
        <ele>366.352899</ele>
        <time>2026-07-08T09:08:47.000Z</time>
      </trkpt>
      <trkpt lat="47.28327" lon="15.97313">
        <ele>366.32887</ele>
        <time>2026-07-08T09:08:48.000Z</time>
      </trkpt>
      <trkpt lat="47.28323" lon="15.97307">
        <ele>366.305084</ele>
        <time>2026-07-08T09:08:49.000Z</time>
      </trkpt>
      <trkpt lat="47.28319" lon="15.97301">
        <ele>366.280612</ele>
        <time>2026-07-08T09:08:50.000Z</time>
      </trkpt>
      <trkpt lat="47.28314" lon="15.97295">
        <ele>366.255908</ele>
        <time>2026-07-08T09:08:51.000Z</time>
      </trkpt>
      <trkpt lat="47.28309" lon="15.9729">
        <ele>366.231863</ele>
        <time>2026-07-08T09:08:52.000Z</time>
      </trkpt>
      <trkpt lat="47.28305" lon="15.97285">
        <ele>366.20798</ele>
        <time>2026-07-08T09:08:53.000Z</time>
      </trkpt>
      <trkpt lat="47.283" lon="15.97281">
        <ele>366.184596</ele>
        <time>2026-07-08T09:08:54.000Z</time>
      </trkpt>
      <trkpt lat="47.28294" lon="15.97277">
        <ele>366.161252</ele>
        <time>2026-07-08T09:08:55.000Z</time>
      </trkpt>
      <trkpt lat="47.28289" lon="15.97273">
        <ele>366.137778</ele>
        <time>2026-07-08T09:08:56.000Z</time>
      </trkpt>
      <trkpt lat="47.28284" lon="15.97269">
        <ele>366.114393</ele>
        <time>2026-07-08T09:08:57.000Z</time>
      </trkpt>
      <trkpt lat="47.2828" lon="15.97265">
        <ele>366.092341</ele>
        <time>2026-07-08T09:08:58.000Z</time>
      </trkpt>
      <trkpt lat="47.28275" lon="15.97261">
        <ele>366.070288</ele>
        <time>2026-07-08T09:08:59.000Z</time>
      </trkpt>
      <trkpt lat="47.2827" lon="15.97257">
        <ele>366.048278</ele>
        <time>2026-07-08T09:09:00.000Z</time>
      </trkpt>
      <trkpt lat="47.28265" lon="15.97254">
        <ele>366.026139</ele>
        <time>2026-07-08T09:09:01.000Z</time>
      </trkpt>
      <trkpt lat="47.28261" lon="15.9725">
        <ele>366.004356</ele>
        <time>2026-07-08T09:09:02.000Z</time>
      </trkpt>
      <trkpt lat="47.28256" lon="15.97246">
        <ele>365.983841</ele>
        <time>2026-07-08T09:09:03.000Z</time>
      </trkpt>
      <trkpt lat="47.28252" lon="15.97242">
        <ele>365.963167</ele>
        <time>2026-07-08T09:09:04.000Z</time>
      </trkpt>
      <trkpt lat="47.28248" lon="15.97239">
        <ele>365.94454</ele>
        <time>2026-07-08T09:09:05.000Z</time>
      </trkpt>
      <trkpt lat="47.28244" lon="15.97236">
        <ele>365.926664</ele>
        <time>2026-07-08T09:09:06.000Z</time>
      </trkpt>
      <trkpt lat="47.2824" lon="15.97234">
        <ele>365.910738</ele>
        <time>2026-07-08T09:09:07.000Z</time>
      </trkpt>
      <trkpt lat="47.28237" lon="15.97232">
        <ele>365.895863</ele>
        <time>2026-07-08T09:09:08.000Z</time>
      </trkpt>
      <trkpt lat="47.28234" lon="15.97231">
        <ele>365.876766</ele>
        <time>2026-07-08T09:09:09.000Z</time>
      </trkpt>
      <trkpt lat="47.28231" lon="15.97231">
        <ele>365.808111</ele>
        <time>2026-07-08T09:09:10.000Z</time>
      </trkpt>
      <trkpt lat="47.28228" lon="15.97233">
        <ele>365.737725</ele>
        <time>2026-07-08T09:09:11.000Z</time>
      </trkpt>
      <trkpt lat="47.28225" lon="15.97236">
        <ele>365.660411</ele>
        <time>2026-07-08T09:09:12.000Z</time>
      </trkpt>
      <trkpt lat="47.28222" lon="15.97239">
        <ele>365.581712</ele>
        <time>2026-07-08T09:09:13.000Z</time>
      </trkpt>
      <trkpt lat="47.2822" lon="15.97244">
        <ele>365.491798</ele>
        <time>2026-07-08T09:09:14.000Z</time>
      </trkpt>
      <trkpt lat="47.28217" lon="15.97249">
        <ele>365.399621</ele>
        <time>2026-07-08T09:09:15.000Z</time>
      </trkpt>
      <trkpt lat="47.28214" lon="15.97253">
        <ele>365.306002</ele>
        <time>2026-07-08T09:09:16.000Z</time>
      </trkpt>
      <trkpt lat="47.28211" lon="15.97258">
        <ele>365.214611</ele>
        <time>2026-07-08T09:09:17.000Z</time>
      </trkpt>
      <trkpt lat="47.28208" lon="15.97262">
        <ele>365.122046</ele>
        <time>2026-07-08T09:09:18.000Z</time>
      </trkpt>
      <trkpt lat="47.28205" lon="15.97266">
        <ele>365.027786</ele>
        <time>2026-07-08T09:09:19.000Z</time>
      </trkpt>
      <trkpt lat="47.28202" lon="15.9727">
        <ele>364.937128</ele>
        <time>2026-07-08T09:09:20.000Z</time>
      </trkpt>
      <trkpt lat="47.28198" lon="15.97273">
        <ele>364.845654</ele>
        <time>2026-07-08T09:09:21.000Z</time>
      </trkpt>
      <trkpt lat="47.28195" lon="15.97277">
        <ele>364.753297</ele>
        <time>2026-07-08T09:09:22.000Z</time>
      </trkpt>
      <trkpt lat="47.28192" lon="15.9728">
        <ele>364.668049</ele>
        <time>2026-07-08T09:09:23.000Z</time>
      </trkpt>
      <trkpt lat="47.28188" lon="15.97284">
        <ele>364.576556</ele>
        <time>2026-07-08T09:09:24.000Z</time>
      </trkpt>
      <trkpt lat="47.28185" lon="15.97287">
        <ele>364.491018</ele>
        <time>2026-07-08T09:09:25.000Z</time>
      </trkpt>
      <trkpt lat="47.28182" lon="15.9729">
        <ele>364.40304</ele>
        <time>2026-07-08T09:09:26.000Z</time>
      </trkpt>
      <trkpt lat="47.28179" lon="15.97293">
        <ele>364.316878</ele>
        <time>2026-07-08T09:09:27.000Z</time>
      </trkpt>
      <trkpt lat="47.28176" lon="15.97296">
        <ele>364.242283</ele>
        <time>2026-07-08T09:09:28.000Z</time>
      </trkpt>
      <trkpt lat="47.28174" lon="15.97299">
        <ele>364.183658</ele>
        <time>2026-07-08T09:09:29.000Z</time>
      </trkpt>
      <trkpt lat="47.28172" lon="15.973">
        <ele>364.142809</ele>
        <time>2026-07-08T09:09:30.000Z</time>
      </trkpt>
      <trkpt lat="47.28172" lon="15.97301">
        <ele>364.125398</ele>
        <time>2026-07-08T09:09:31.000Z</time>
      </trkpt>
      <trkpt lat="47.28172" lon="15.97301">
        <ele>364.120739</ele>
        <time>2026-07-08T09:09:32.000Z</time>
      </trkpt>
      <trkpt lat="47.28168" lon="15.97304">
        <ele>364.032717</ele>
        <time>2026-07-08T09:09:42.000Z</time>
      </trkpt>
      <trkpt lat="47.28166" lon="15.97305">
        <ele>363.975265</ele>
        <time>2026-07-08T09:09:43.000Z</time>
      </trkpt>
      <trkpt lat="47.28163" lon="15.97308">
        <ele>363.911028</ele>
        <time>2026-07-08T09:09:44.000Z</time>
      </trkpt>
      <trkpt lat="47.2816" lon="15.9731">
        <ele>363.839046</ele>
        <time>2026-07-08T09:09:45.000Z</time>
      </trkpt>
      <trkpt lat="47.28158" lon="15.97313">
        <ele>363.768328</ele>
        <time>2026-07-08T09:09:46.000Z</time>
      </trkpt>
      <trkpt lat="47.28155" lon="15.97315">
        <ele>363.699528</ele>
        <time>2026-07-08T09:09:47.000Z</time>
      </trkpt>
      <trkpt lat="47.28153" lon="15.97317">
        <ele>363.637357</ele>
        <time>2026-07-08T09:09:48.000Z</time>
      </trkpt>
      <trkpt lat="47.28151" lon="15.97319">
        <ele>363.583182</ele>
        <time>2026-07-08T09:09:49.000Z</time>
      </trkpt>
      <trkpt lat="47.28149" lon="15.97321">
        <ele>363.529862</ele>
        <time>2026-07-08T09:09:50.000Z</time>
      </trkpt>
      <trkpt lat="47.28147" lon="15.97323">
        <ele>363.481018</ele>
        <time>2026-07-08T09:09:51.000Z</time>
      </trkpt>
      <trkpt lat="47.28145" lon="15.97325">
        <ele>363.434804</ele>
        <time>2026-07-08T09:09:52.000Z</time>
      </trkpt>
      <trkpt lat="47.28143" lon="15.97326">
        <ele>363.397151</ele>
        <time>2026-07-08T09:09:53.000Z</time>
      </trkpt>
      <trkpt lat="47.28142" lon="15.97327">
        <ele>363.356844</ele>
        <time>2026-07-08T09:09:54.000Z</time>
      </trkpt>
      <trkpt lat="47.2814" lon="15.97329">
        <ele>363.309092</ele>
        <time>2026-07-08T09:09:55.000Z</time>
      </trkpt>
      <trkpt lat="47.28139" lon="15.97333">
        <ele>363.254367</ele>
        <time>2026-07-08T09:09:56.000Z</time>
      </trkpt>
      <trkpt lat="47.28138" lon="15.97336">
        <ele>363.199642</ele>
        <time>2026-07-08T09:09:57.000Z</time>
      </trkpt>
      <trkpt lat="47.28136" lon="15.97339">
        <ele>363.146243</ele>
        <time>2026-07-08T09:09:58.000Z</time>
      </trkpt>
      <trkpt lat="47.28136" lon="15.97342">
        <ele>363.089777</ele>
        <time>2026-07-08T09:09:59.000Z</time>
      </trkpt>
      <trkpt lat="47.28136" lon="15.97346">
        <ele>363.027428</ele>
        <time>2026-07-08T09:10:00.000Z</time>
      </trkpt>
      <trkpt lat="47.28137" lon="15.97351">
        <ele>362.956555</ele>
        <time>2026-07-08T09:10:01.000Z</time>
      </trkpt>
      <trkpt lat="47.28139" lon="15.97356">
        <ele>362.877175</ele>
        <time>2026-07-08T09:10:02.000Z</time>
      </trkpt>
      <trkpt lat="47.2814" lon="15.97362">
        <ele>362.77583</ele>
        <time>2026-07-08T09:10:03.000Z</time>
      </trkpt>
      <trkpt lat="47.28142" lon="15.9737">
        <ele>362.651604</ele>
        <time>2026-07-08T09:10:04.000Z</time>
      </trkpt>
      <trkpt lat="47.28143" lon="15.97379">
        <ele>362.511776</ele>
        <time>2026-07-08T09:10:05.000Z</time>
      </trkpt>
      <trkpt lat="47.28145" lon="15.97389">
        <ele>362.36382</ele>
        <time>2026-07-08T09:10:06.000Z</time>
      </trkpt>
      <trkpt lat="47.28147" lon="15.97399">
        <ele>362.204907</ele>
        <time>2026-07-08T09:10:07.000Z</time>
      </trkpt>
      <trkpt lat="47.28149" lon="15.9741">
        <ele>362.039072</ele>
        <time>2026-07-08T09:10:08.000Z</time>
      </trkpt>
      <trkpt lat="47.28151" lon="15.9742">
        <ele>361.836345</ele>
        <time>2026-07-08T09:10:09.000Z</time>
      </trkpt>
      <trkpt lat="47.28154" lon="15.97432">
        <ele>361.530001</ele>
        <time>2026-07-08T09:10:10.000Z</time>
      </trkpt>
      <trkpt lat="47.28155" lon="15.97443">
        <ele>361.2276</ele>
        <time>2026-07-08T09:10:11.000Z</time>
      </trkpt>
      <trkpt lat="47.28158" lon="15.97454">
        <ele>360.923779</ele>
        <time>2026-07-08T09:10:12.000Z</time>
      </trkpt>
      <trkpt lat="47.2816" lon="15.97465">
        <ele>360.609858</ele>
        <time>2026-07-08T09:10:13.000Z</time>
      </trkpt>
      <trkpt lat="47.28162" lon="15.97477">
        <ele>360.294863</ele>
        <time>2026-07-08T09:10:14.000Z</time>
      </trkpt>
      <trkpt lat="47.28164" lon="15.97489">
        <ele>359.977862</ele>
        <time>2026-07-08T09:10:15.000Z</time>
      </trkpt>
      <trkpt lat="47.28166" lon="15.975">
        <ele>359.660861</ele>
        <time>2026-07-08T09:10:16.000Z</time>
      </trkpt>
      <trkpt lat="47.28168" lon="15.97512">
        <ele>359.334277</ele>
        <time>2026-07-08T09:10:17.000Z</time>
      </trkpt>
      <trkpt lat="47.2817" lon="15.97524">
        <ele>359.008682</ele>
        <time>2026-07-08T09:10:18.000Z</time>
      </trkpt>
      <trkpt lat="47.28172" lon="15.97537">
        <ele>358.676373</ele>
        <time>2026-07-08T09:10:19.000Z</time>
      </trkpt>
      <trkpt lat="47.28175" lon="15.97549">
        <ele>358.342174</ele>
        <time>2026-07-08T09:10:20.000Z</time>
      </trkpt>
      <trkpt lat="47.28177" lon="15.97561">
        <ele>358.00731</ele>
        <time>2026-07-08T09:10:21.000Z</time>
      </trkpt>
      <trkpt lat="47.28179" lon="15.97573">
        <ele>357.67819</ele>
        <time>2026-07-08T09:10:22.000Z</time>
      </trkpt>
      <trkpt lat="47.28181" lon="15.97585">
        <ele>357.355139</ele>
        <time>2026-07-08T09:10:23.000Z</time>
      </trkpt>
      <trkpt lat="47.28183" lon="15.97597">
        <ele>357.049273</ele>
        <time>2026-07-08T09:10:24.000Z</time>
      </trkpt>
      <trkpt lat="47.28185" lon="15.97608">
        <ele>356.746874</ele>
        <time>2026-07-08T09:10:25.000Z</time>
      </trkpt>
      <trkpt lat="47.28187" lon="15.97619">
        <ele>356.447674</ele>
        <time>2026-07-08T09:10:26.000Z</time>
      </trkpt>
      <trkpt lat="47.28188" lon="15.9763">
        <ele>356.150385</ele>
        <time>2026-07-08T09:10:27.000Z</time>
      </trkpt>
      <trkpt lat="47.2819" lon="15.9764">
        <ele>355.866774</ele>
        <time>2026-07-08T09:10:28.000Z</time>
      </trkpt>
      <trkpt lat="47.28192" lon="15.9765">
        <ele>355.592866</ele>
        <time>2026-07-08T09:10:29.000Z</time>
      </trkpt>
      <trkpt lat="47.28194" lon="15.9766">
        <ele>355.318508</ele>
        <time>2026-07-08T09:10:30.000Z</time>
      </trkpt>
      <trkpt lat="47.28196" lon="15.9767">
        <ele>355.049797</ele>
        <time>2026-07-08T09:10:31.000Z</time>
      </trkpt>
      <trkpt lat="47.28198" lon="15.9768">
        <ele>354.965105</ele>
        <time>2026-07-08T09:10:32.000Z</time>
      </trkpt>
      <trkpt lat="47.282" lon="15.97689">
        <ele>354.986684</ele>
        <time>2026-07-08T09:10:33.000Z</time>
      </trkpt>
      <trkpt lat="47.28201" lon="15.97698">
        <ele>355.008687</ele>
        <time>2026-07-08T09:10:34.000Z</time>
      </trkpt>
      <trkpt lat="47.28203" lon="15.97708">
        <ele>355.030632</ele>
        <time>2026-07-08T09:10:35.000Z</time>
      </trkpt>
      <trkpt lat="47.28205" lon="15.97717">
        <ele>355.051538</ele>
        <time>2026-07-08T09:10:36.000Z</time>
      </trkpt>
      <trkpt lat="47.28206" lon="15.97726">
        <ele>355.07283</ele>
        <time>2026-07-08T09:10:37.000Z</time>
      </trkpt>
      <trkpt lat="47.28208" lon="15.97735">
        <ele>355.093736</ele>
        <time>2026-07-08T09:10:38.000Z</time>
      </trkpt>
      <trkpt lat="47.28209" lon="15.97744">
        <ele>355.114494</ele>
        <time>2026-07-08T09:10:39.000Z</time>
      </trkpt>
      <trkpt lat="47.28211" lon="15.97752">
        <ele>355.134088</ele>
        <time>2026-07-08T09:10:40.000Z</time>
      </trkpt>
      <trkpt lat="47.28212" lon="15.9776">
        <ele>355.152811</ele>
        <time>2026-07-08T09:10:41.000Z</time>
      </trkpt>
      <trkpt lat="47.28213" lon="15.97768">
        <ele>355.17093</ele>
        <time>2026-07-08T09:10:42.000Z</time>
      </trkpt>
      <trkpt lat="47.28215" lon="15.97776">
        <ele>355.188313</ele>
        <time>2026-07-08T09:10:43.000Z</time>
      </trkpt>
      <trkpt lat="47.28216" lon="15.97783">
        <ele>355.205695</ele>
        <time>2026-07-08T09:10:44.000Z</time>
      </trkpt>
      <trkpt lat="47.28217" lon="15.97791">
        <ele>355.223814</ele>
        <time>2026-07-08T09:10:45.000Z</time>
      </trkpt>
      <trkpt lat="47.28219" lon="15.97799">
        <ele>355.241886</ele>
        <time>2026-07-08T09:10:46.000Z</time>
      </trkpt>
      <trkpt lat="47.2822" lon="15.97805">
        <ele>355.257606</ele>
        <time>2026-07-08T09:10:47.000Z</time>
      </trkpt>
      <trkpt lat="47.28221" lon="15.97812">
        <ele>355.272802</ele>
        <time>2026-07-08T09:10:48.000Z</time>
      </trkpt>
      <trkpt lat="47.28222" lon="15.97818">
        <ele>355.287998</ele>
        <time>2026-07-08T09:10:49.000Z</time>
      </trkpt>
      <trkpt lat="47.28224" lon="15.97824">
        <ele>355.302634</ele>
        <time>2026-07-08T09:10:50.000Z</time>
      </trkpt>
      <trkpt lat="47.28225" lon="15.97831">
        <ele>355.317091</ele>
        <time>2026-07-08T09:10:51.000Z</time>
      </trkpt>
      <trkpt lat="47.28226" lon="15.97836">
        <ele>355.330591</ele>
        <time>2026-07-08T09:10:52.000Z</time>
      </trkpt>
      <trkpt lat="47.28227" lon="15.97842">
        <ele>355.344054</ele>
        <time>2026-07-08T09:10:53.000Z</time>
      </trkpt>
      <trkpt lat="47.28228" lon="15.97847">
        <ele>355.356463</ele>
        <time>2026-07-08T09:10:54.000Z</time>
      </trkpt>
      <trkpt lat="47.28229" lon="15.97852">
        <ele>355.368006</ele>
        <time>2026-07-08T09:10:55.000Z</time>
      </trkpt>
      <trkpt lat="47.2823" lon="15.97857">
        <ele>355.378913</ele>
        <time>2026-07-08T09:10:56.000Z</time>
      </trkpt>
      <trkpt lat="47.28231" lon="15.9786">
        <ele>355.387459</ele>
        <time>2026-07-08T09:10:57.000Z</time>
      </trkpt>
      <trkpt lat="47.28232" lon="15.97864">
        <ele>355.395307</ele>
        <time>2026-07-08T09:10:58.000Z</time>
      </trkpt>
      <trkpt lat="47.28232" lon="15.97867">
        <ele>355.402275</ele>
        <time>2026-07-08T09:10:59.000Z</time>
      </trkpt>
      <trkpt lat="47.28232" lon="15.9787">
        <ele>355.408592</ele>
        <time>2026-07-08T09:11:00.000Z</time>
      </trkpt>
      <trkpt lat="47.28232" lon="15.97872">
        <ele>355.41404</ele>
        <time>2026-07-08T09:11:01.000Z</time>
      </trkpt>
      <trkpt lat="47.28231" lon="15.97874">
        <ele>355.419117</ele>
        <time>2026-07-08T09:11:02.000Z</time>
      </trkpt>
      <trkpt lat="47.2823" lon="15.97876">
        <ele>355.425663</ele>
        <time>2026-07-08T09:11:03.000Z</time>
      </trkpt>
      <trkpt lat="47.28229" lon="15.97878">
        <ele>355.431088</ele>
        <time>2026-07-08T09:11:04.000Z</time>
      </trkpt>
      <trkpt lat="47.28228" lon="15.9788">
        <ele>355.436521</ele>
        <time>2026-07-08T09:11:05.000Z</time>
      </trkpt>
      <trkpt lat="47.28227" lon="15.97883">
        <ele>355.442553</ele>
        <time>2026-07-08T09:11:06.000Z</time>
      </trkpt>
      <trkpt lat="47.28226" lon="15.97885">
        <ele>355.448938</ele>
        <time>2026-07-08T09:11:07.000Z</time>
      </trkpt>
      <trkpt lat="47.28226" lon="15.97888">
        <ele>355.455791</ele>
        <time>2026-07-08T09:11:08.000Z</time>
      </trkpt>
      <trkpt lat="47.28225" lon="15.97891">
        <ele>355.462929</ele>
        <time>2026-07-08T09:11:09.000Z</time>
      </trkpt>
      <trkpt lat="47.28223" lon="15.97894">
        <ele>355.470786</ele>
        <time>2026-07-08T09:11:10.000Z</time>
      </trkpt>
      <trkpt lat="47.28222" lon="15.97897">
        <ele>355.47959</ele>
        <time>2026-07-08T09:11:11.000Z</time>
      </trkpt>
      <trkpt lat="47.28221" lon="15.97901">
        <ele>355.488198</ele>
        <time>2026-07-08T09:11:12.000Z</time>
      </trkpt>
      <trkpt lat="47.2822" lon="15.97904">
        <ele>355.497081</ele>
        <time>2026-07-08T09:11:13.000Z</time>
      </trkpt>
      <trkpt lat="47.2822" lon="15.97908">
        <ele>355.505878</ele>
        <time>2026-07-08T09:11:14.000Z</time>
      </trkpt>
      <trkpt lat="47.28221" lon="15.97912">
        <ele>355.515275</ele>
        <time>2026-07-08T09:11:15.000Z</time>
      </trkpt>
      <trkpt lat="47.28221" lon="15.97917">
        <ele>355.52547</ele>
        <time>2026-07-08T09:11:16.000Z</time>
      </trkpt>
      <trkpt lat="47.28222" lon="15.97921">
        <ele>355.535895</ele>
        <time>2026-07-08T09:11:17.000Z</time>
      </trkpt>
      <trkpt lat="47.28222" lon="15.97926">
        <ele>355.546181</ele>
        <time>2026-07-08T09:11:18.000Z</time>
      </trkpt>
      <trkpt lat="47.28223" lon="15.9793">
        <ele>355.546935</ele>
        <time>2026-07-08T09:11:19.000Z</time>
      </trkpt>
      <trkpt lat="47.28225" lon="15.97933">
        <ele>355.54418</ele>
        <time>2026-07-08T09:11:20.000Z</time>
      </trkpt>
      <trkpt lat="47.28227" lon="15.97935">
        <ele>355.541406</ele>
        <time>2026-07-08T09:11:21.000Z</time>
      </trkpt>
      <trkpt lat="47.28229" lon="15.97938">
        <ele>355.538835</ele>
        <time>2026-07-08T09:11:22.000Z</time>
      </trkpt>
      <trkpt lat="47.28231" lon="15.9794">
        <ele>355.536328</ele>
        <time>2026-07-08T09:11:23.000Z</time>
      </trkpt>
      <trkpt lat="47.28232" lon="15.97944">
        <ele>355.533194</ele>
        <time>2026-07-08T09:11:24.000Z</time>
      </trkpt>
      <trkpt lat="47.28233" lon="15.97949">
        <ele>355.52965</ele>
        <time>2026-07-08T09:11:25.000Z</time>
      </trkpt>
      <trkpt lat="47.28233" lon="15.97955">
        <ele>355.52573</ele>
        <time>2026-07-08T09:11:26.000Z</time>
      </trkpt>
      <trkpt lat="47.28233" lon="15.97961">
        <ele>355.521604</ele>
        <time>2026-07-08T09:11:27.000Z</time>
      </trkpt>
      <trkpt lat="47.28232" lon="15.97967">
        <ele>355.517473</ele>
        <time>2026-07-08T09:11:28.000Z</time>
      </trkpt>
      <trkpt lat="47.28232" lon="15.97973">
        <ele>355.513347</ele>
        <time>2026-07-08T09:11:29.000Z</time>
      </trkpt>
      <trkpt lat="47.28232" lon="15.97979">
        <ele>355.509357</ele>
        <time>2026-07-08T09:11:30.000Z</time>
      </trkpt>
      <trkpt lat="47.28232" lon="15.97985">
        <ele>355.5053</ele>
        <time>2026-07-08T09:11:31.000Z</time>
      </trkpt>
      <trkpt lat="47.28233" lon="15.97991">
        <ele>355.5013</ele>
        <time>2026-07-08T09:11:32.000Z</time>
      </trkpt>
      <trkpt lat="47.28233" lon="15.97997">
        <ele>355.497026</ele>
        <time>2026-07-08T09:11:33.000Z</time>
      </trkpt>
      <trkpt lat="47.28233" lon="15.98003">
        <ele>355.492556</ele>
        <time>2026-07-08T09:11:34.000Z</time>
      </trkpt>
      <trkpt lat="47.28233" lon="15.9801">
        <ele>355.488213</ele>
        <time>2026-07-08T09:11:35.000Z</time>
      </trkpt>
      <trkpt lat="47.28232" lon="15.98016">
        <ele>355.483714</ele>
        <time>2026-07-08T09:11:36.000Z</time>
      </trkpt>
      <trkpt lat="47.28231" lon="15.98022">
        <ele>355.479509</ele>
        <time>2026-07-08T09:11:37.000Z</time>
      </trkpt>
      <trkpt lat="47.2823" lon="15.98027">
        <ele>355.475732</ele>
        <time>2026-07-08T09:11:38.000Z</time>
      </trkpt>
      <trkpt lat="47.28228" lon="15.98032">
        <ele>355.472309</ele>
        <time>2026-07-08T09:11:39.000Z</time>
      </trkpt>
      <trkpt lat="47.28227" lon="15.98035">
        <ele>355.469234</ele>
        <time>2026-07-08T09:11:40.000Z</time>
      </trkpt>
      <trkpt lat="47.28225" lon="15.98039">
        <ele>355.466274</ele>
        <time>2026-07-08T09:11:41.000Z</time>
      </trkpt>
      <trkpt lat="47.28223" lon="15.98043">
        <ele>355.463143</ele>
        <time>2026-07-08T09:11:42.000Z</time>
      </trkpt>
      <trkpt lat="47.28221" lon="15.98046">
        <ele>355.459835</ele>
        <time>2026-07-08T09:11:43.000Z</time>
      </trkpt>
      <trkpt lat="47.28219" lon="15.98051">
        <ele>355.456306</ele>
        <time>2026-07-08T09:11:44.000Z</time>
      </trkpt>
      <trkpt lat="47.28218" lon="15.98055">
        <ele>355.452713</ele>
        <time>2026-07-08T09:11:45.000Z</time>
      </trkpt>
      <trkpt lat="47.28217" lon="15.98061">
        <ele>355.448968</ele>
        <time>2026-07-08T09:11:46.000Z</time>
      </trkpt>
      <trkpt lat="47.28215" lon="15.98066">
        <ele>355.445208</ele>
        <time>2026-07-08T09:11:47.000Z</time>
      </trkpt>
      <trkpt lat="47.28214" lon="15.98071">
        <ele>355.441431</ele>
        <time>2026-07-08T09:11:48.000Z</time>
      </trkpt>
      <trkpt lat="47.28213" lon="15.98076">
        <ele>355.437978</ele>
        <time>2026-07-08T09:11:49.000Z</time>
      </trkpt>
      <trkpt lat="47.28212" lon="15.9808">
        <ele>355.434579</ele>
        <time>2026-07-08T09:11:50.000Z</time>
      </trkpt>
      <trkpt lat="47.28212" lon="15.98085">
        <ele>355.431171</ele>
        <time>2026-07-08T09:11:51.000Z</time>
      </trkpt>
      <trkpt lat="47.28212" lon="15.9809">
        <ele>355.427993</ele>
        <time>2026-07-08T09:11:52.000Z</time>
      </trkpt>
      <trkpt lat="47.28214" lon="15.98094">
        <ele>355.424511</ele>
        <time>2026-07-08T09:11:53.000Z</time>
      </trkpt>
      <trkpt lat="47.28216" lon="15.98098">
        <ele>355.421109</ele>
        <time>2026-07-08T09:11:54.000Z</time>
      </trkpt>
      <trkpt lat="47.28219" lon="15.981">
        <ele>355.417682</ele>
        <time>2026-07-08T09:11:55.000Z</time>
      </trkpt>
      <trkpt lat="47.28222" lon="15.98102">
        <ele>355.414329</ele>
        <time>2026-07-08T09:11:56.000Z</time>
      </trkpt>
      <trkpt lat="47.28225" lon="15.98102">
        <ele>355.411238</ele>
        <time>2026-07-08T09:11:57.000Z</time>
      </trkpt>
      <trkpt lat="47.28228" lon="15.98103">
        <ele>355.408259</ele>
        <time>2026-07-08T09:11:58.000Z</time>
      </trkpt>
      <trkpt lat="47.28231" lon="15.98104">
        <ele>355.405108</ele>
        <time>2026-07-08T09:11:59.000Z</time>
      </trkpt>
      <trkpt lat="47.28234" lon="15.98105">
        <ele>355.402171</ele>
        <time>2026-07-08T09:12:00.000Z</time>
      </trkpt>
      <trkpt lat="47.28237" lon="15.98107">
        <ele>355.39946</ele>
        <time>2026-07-08T09:12:01.000Z</time>
      </trkpt>
      <trkpt lat="47.28239" lon="15.98108">
        <ele>355.397029</ele>
        <time>2026-07-08T09:12:02.000Z</time>
      </trkpt>
      <trkpt lat="47.28241" lon="15.98109">
        <ele>355.394481</ele>
        <time>2026-07-08T09:12:03.000Z</time>
      </trkpt>
      <trkpt lat="47.28243" lon="15.9811">
        <ele>355.392244</ele>
        <time>2026-07-08T09:12:04.000Z</time>
      </trkpt>
      <trkpt lat="47.28246" lon="15.98111">
        <ele>355.38993</ele>
        <time>2026-07-08T09:12:05.000Z</time>
      </trkpt>
      <trkpt lat="47.28248" lon="15.98111">
        <ele>355.387673</ele>
        <time>2026-07-08T09:12:06.000Z</time>
      </trkpt>
      <trkpt lat="47.28249" lon="15.98112">
        <ele>355.38634</ele>
        <time>2026-07-08T09:12:07.000Z</time>
      </trkpt>
      <trkpt lat="47.28249" lon="15.98112">
        <ele>355.38605</ele>
        <time>2026-07-08T09:12:08.000Z</time>
      </trkpt>
      <trkpt lat="47.28248" lon="15.98114">
        <ele>355.383874</ele>
        <time>2026-07-08T09:12:21.000Z</time>
      </trkpt>
      <trkpt lat="47.28247" lon="15.98114">
        <ele>355.382858</ele>
        <time>2026-07-08T09:12:22.000Z</time>
      </trkpt>
      <trkpt lat="47.28246" lon="15.98113">
        <ele>355.381371</ele>
        <time>2026-07-08T09:12:23.000Z</time>
      </trkpt>
      <trkpt lat="47.28244" lon="15.98113">
        <ele>355.379943</ele>
        <time>2026-07-08T09:12:24.000Z</time>
      </trkpt>
      <trkpt lat="47.28243" lon="15.98111">
        <ele>355.378033</ele>
        <time>2026-07-08T09:12:25.000Z</time>
      </trkpt>
      <trkpt lat="47.28241" lon="15.9811">
        <ele>355.375892</ele>
        <time>2026-07-08T09:12:26.000Z</time>
      </trkpt>
      <trkpt lat="47.28238" lon="15.9811">
        <ele>355.373324</ele>
        <time>2026-07-08T09:12:27.000Z</time>
      </trkpt>
      <trkpt lat="47.28235" lon="15.98109">
        <ele>355.370545</ele>
        <time>2026-07-08T09:12:28.000Z</time>
      </trkpt>
      <trkpt lat="47.28233" lon="15.98108">
        <ele>355.367625</ele>
        <time>2026-07-08T09:12:29.000Z</time>
      </trkpt>
      <trkpt lat="47.2823" lon="15.98107">
        <ele>355.346511</ele>
        <time>2026-07-08T09:12:30.000Z</time>
      </trkpt>
      <trkpt lat="47.28226" lon="15.98106">
        <ele>355.315525</ele>
        <time>2026-07-08T09:12:31.000Z</time>
      </trkpt>
      <trkpt lat="47.28223" lon="15.98105">
        <ele>355.285156</ele>
        <time>2026-07-08T09:12:32.000Z</time>
      </trkpt>
      <trkpt lat="47.2822" lon="15.98104">
        <ele>355.258659</ele>
        <time>2026-07-08T09:12:33.000Z</time>
      </trkpt>
      <trkpt lat="47.28217" lon="15.98103">
        <ele>355.231632</ele>
        <time>2026-07-08T09:12:34.000Z</time>
      </trkpt>
      <trkpt lat="47.28215" lon="15.98103">
        <ele>355.210331</ele>
        <time>2026-07-08T09:12:35.000Z</time>
      </trkpt>
      <trkpt lat="47.28213" lon="15.98105">
        <ele>355.190228</ele>
        <time>2026-07-08T09:12:36.000Z</time>
      </trkpt>
      <trkpt lat="47.28211" lon="15.98108">
        <ele>355.165239</ele>
        <time>2026-07-08T09:12:37.000Z</time>
      </trkpt>
      <trkpt lat="47.2821" lon="15.98112">
        <ele>355.136041</ele>
        <time>2026-07-08T09:12:38.000Z</time>
      </trkpt>
      <trkpt lat="47.28209" lon="15.98117">
        <ele>355.103517</ele>
        <time>2026-07-08T09:12:39.000Z</time>
      </trkpt>
      <trkpt lat="47.28208" lon="15.98122">
        <ele>355.067811</ele>
        <time>2026-07-08T09:12:40.000Z</time>
      </trkpt>
      <trkpt lat="47.28207" lon="15.98128">
        <ele>355.029867</ele>
        <time>2026-07-08T09:12:41.000Z</time>
      </trkpt>
      <trkpt lat="47.28206" lon="15.98134">
        <ele>354.996178</ele>
        <time>2026-07-08T09:12:42.000Z</time>
      </trkpt>
      <trkpt lat="47.28206" lon="15.98139">
        <ele>354.960188</ele>
        <time>2026-07-08T09:12:43.000Z</time>
      </trkpt>
      <trkpt lat="47.28205" lon="15.98145">
        <ele>354.92285</ele>
        <time>2026-07-08T09:12:44.000Z</time>
      </trkpt>
      <trkpt lat="47.28204" lon="15.98151">
        <ele>354.885727</ele>
        <time>2026-07-08T09:12:45.000Z</time>
      </trkpt>
      <trkpt lat="47.28203" lon="15.98157">
        <ele>354.848993</ele>
        <time>2026-07-08T09:12:46.000Z</time>
      </trkpt>
      <trkpt lat="47.28202" lon="15.98162">
        <ele>354.815116</ele>
        <time>2026-07-08T09:12:47.000Z</time>
      </trkpt>
      <trkpt lat="47.28201" lon="15.98167">
        <ele>354.780191</ele>
        <time>2026-07-08T09:12:48.000Z</time>
      </trkpt>
      <trkpt lat="47.282" lon="15.98172">
        <ele>354.74753</ele>
        <time>2026-07-08T09:12:49.000Z</time>
      </trkpt>
      <trkpt lat="47.282" lon="15.98178">
        <ele>354.712615</ele>
        <time>2026-07-08T09:12:50.000Z</time>
      </trkpt>
      <trkpt lat="47.28199" lon="15.98183">
        <ele>354.677088</ele>
        <time>2026-07-08T09:12:51.000Z</time>
      </trkpt>
      <trkpt lat="47.28198" lon="15.98189">
        <ele>354.640354</ele>
        <time>2026-07-08T09:12:52.000Z</time>
      </trkpt>
      <trkpt lat="47.28197" lon="15.98195">
        <ele>354.603425</ele>
        <time>2026-07-08T09:12:53.000Z</time>
      </trkpt>
      <trkpt lat="47.28196" lon="15.98201">
        <ele>354.563865</ele>
        <time>2026-07-08T09:12:54.000Z</time>
      </trkpt>
      <trkpt lat="47.28195" lon="15.98207">
        <ele>354.523875</ele>
        <time>2026-07-08T09:12:55.000Z</time>
      </trkpt>
      <trkpt lat="47.28194" lon="15.98214">
        <ele>354.483428</ele>
        <time>2026-07-08T09:12:56.000Z</time>
      </trkpt>
      <trkpt lat="47.28193" lon="15.9822">
        <ele>354.441842</ele>
        <time>2026-07-08T09:12:57.000Z</time>
      </trkpt>
      <trkpt lat="47.28192" lon="15.98227">
        <ele>354.401253</ele>
        <time>2026-07-08T09:12:58.000Z</time>
      </trkpt>
      <trkpt lat="47.28191" lon="15.98233">
        <ele>354.361491</ele>
        <time>2026-07-08T09:12:59.000Z</time>
      </trkpt>
      <trkpt lat="47.2819" lon="15.98239">
        <ele>354.31946</ele>
        <time>2026-07-08T09:13:00.000Z</time>
      </trkpt>
      <trkpt lat="47.28189" lon="15.98246">
        <ele>354.277266</ele>
        <time>2026-07-08T09:13:01.000Z</time>
      </trkpt>
      <trkpt lat="47.28188" lon="15.98253">
        <ele>354.23482</ele>
        <time>2026-07-08T09:13:02.000Z</time>
      </trkpt>
      <trkpt lat="47.28187" lon="15.98259">
        <ele>354.191407</ele>
        <time>2026-07-08T09:13:03.000Z</time>
      </trkpt>
      <trkpt lat="47.28186" lon="15.98266">
        <ele>354.146963</ele>
        <time>2026-07-08T09:13:04.000Z</time>
      </trkpt>
      <trkpt lat="47.28185" lon="15.98273">
        <ele>354.10355</ele>
        <time>2026-07-08T09:13:05.000Z</time>
      </trkpt>
      <trkpt lat="47.28184" lon="15.9828">
        <ele>354.058028</ele>
        <time>2026-07-08T09:13:06.000Z</time>
      </trkpt>
      <trkpt lat="47.28183" lon="15.98287">
        <ele>354.014801</ele>
        <time>2026-07-08T09:13:07.000Z</time>
      </trkpt>
      <trkpt lat="47.28182" lon="15.98294">
        <ele>353.970167</ele>
        <time>2026-07-08T09:13:08.000Z</time>
      </trkpt>
      <trkpt lat="47.28181" lon="15.98301">
        <ele>353.92351</ele>
        <time>2026-07-08T09:13:09.000Z</time>
      </trkpt>
      <trkpt lat="47.2818" lon="15.98309">
        <ele>353.876432</ele>
        <time>2026-07-08T09:13:10.000Z</time>
      </trkpt>
      <trkpt lat="47.28179" lon="15.98316">
        <ele>353.828353</ele>
        <time>2026-07-08T09:13:11.000Z</time>
      </trkpt>
      <trkpt lat="47.28178" lon="15.98324">
        <ele>353.781262</ele>
        <time>2026-07-08T09:13:12.000Z</time>
      </trkpt>
      <trkpt lat="47.28177" lon="15.98331">
        <ele>353.731968</ele>
        <time>2026-07-08T09:13:13.000Z</time>
      </trkpt>
      <trkpt lat="47.28175" lon="15.98339">
        <ele>353.662635</ele>
        <time>2026-07-08T09:13:14.000Z</time>
      </trkpt>
      <trkpt lat="47.28174" lon="15.98347">
        <ele>353.579967</ele>
        <time>2026-07-08T09:13:15.000Z</time>
      </trkpt>
      <trkpt lat="47.28173" lon="15.98355">
        <ele>353.496006</ele>
        <time>2026-07-08T09:13:16.000Z</time>
      </trkpt>
      <trkpt lat="47.28172" lon="15.98363">
        <ele>353.413054</ele>
        <time>2026-07-08T09:13:17.000Z</time>
      </trkpt>
      <trkpt lat="47.2817" lon="15.98371">
        <ele>353.329093</ele>
        <time>2026-07-08T09:13:18.000Z</time>
      </trkpt>
      <trkpt lat="47.28169" lon="15.98379">
        <ele>353.243516</ele>
        <time>2026-07-08T09:13:19.000Z</time>
      </trkpt>
      <trkpt lat="47.28168" lon="15.98387">
        <ele>353.158928</ele>
        <time>2026-07-08T09:13:20.000Z</time>
      </trkpt>
      <trkpt lat="47.28166" lon="15.98396">
        <ele>353.071025</ele>
        <time>2026-07-08T09:13:21.000Z</time>
      </trkpt>
      <trkpt lat="47.28165" lon="15.98404">
        <ele>352.984458</ele>
        <time>2026-07-08T09:13:22.000Z</time>
      </trkpt>
      <trkpt lat="47.28164" lon="15.98413">
        <ele>352.896226</ele>
        <time>2026-07-08T09:13:23.000Z</time>
      </trkpt>
      <trkpt lat="47.28163" lon="15.98421">
        <ele>352.812627</ele>
        <time>2026-07-08T09:13:24.000Z</time>
      </trkpt>
      <trkpt lat="47.28161" lon="15.98428">
        <ele>352.738872</ele>
        <time>2026-07-08T09:13:25.000Z</time>
      </trkpt>
      <trkpt lat="47.2816" lon="15.98434">
        <ele>352.673889</ele>
        <time>2026-07-08T09:13:26.000Z</time>
      </trkpt>
      <trkpt lat="47.28158" lon="15.9844">
        <ele>352.608906</ele>
        <time>2026-07-08T09:13:27.000Z</time>
      </trkpt>
      <trkpt lat="47.28157" lon="15.98445">
        <ele>352.549328</ele>
        <time>2026-07-08T09:13:28.000Z</time>
      </trkpt>
      <trkpt lat="47.28155" lon="15.98449">
        <ele>352.507651</ele>
        <time>2026-07-08T09:13:29.000Z</time>
      </trkpt>
      <trkpt lat="47.28155" lon="15.98451">
        <ele>352.483106</ele>
        <time>2026-07-08T09:13:30.000Z</time>
      </trkpt>
      <trkpt lat="47.28154" lon="15.98453">
        <ele>352.461808</ele>
        <time>2026-07-08T09:13:31.000Z</time>
      </trkpt>
      <trkpt lat="47.28154" lon="15.98454">
        <ele>352.444479</ele>
        <time>2026-07-08T09:13:32.000Z</time>
      </trkpt>
      <trkpt lat="47.28154" lon="15.98456">
        <ele>352.428587</ele>
        <time>2026-07-08T09:13:33.000Z</time>
      </trkpt>
      <trkpt lat="47.28154" lon="15.98457">
        <ele>352.418425</ele>
        <time>2026-07-08T09:13:34.000Z</time>
      </trkpt>
      <trkpt lat="47.28154" lon="15.98457">
        <ele>352.413375</ele>
        <time>2026-07-08T09:13:35.000Z</time>
      </trkpt>
      <trkpt lat="47.28154" lon="15.98457">
        <ele>352.411342</ele>
        <time>2026-07-08T09:13:36.000Z</time>
      </trkpt>
      <trkpt lat="47.28156" lon="15.98461">
        <ele>352.360856</ele>
        <time>2026-07-08T09:13:40.000Z</time>
      </trkpt>
      <trkpt lat="47.28158" lon="15.98463">
        <ele>352.315125</ele>
        <time>2026-07-08T09:13:41.000Z</time>
      </trkpt>
      <trkpt lat="47.28161" lon="15.98465">
        <ele>352.26895</ele>
        <time>2026-07-08T09:13:42.000Z</time>
      </trkpt>
      <trkpt lat="47.28164" lon="15.98467">
        <ele>352.2192</ele>
        <time>2026-07-08T09:13:43.000Z</time>
      </trkpt>
      <trkpt lat="47.28167" lon="15.9847">
        <ele>352.166545</ele>
        <time>2026-07-08T09:13:44.000Z</time>
      </trkpt>
      <trkpt lat="47.2817" lon="15.98473">
        <ele>352.116423</ele>
        <time>2026-07-08T09:13:45.000Z</time>
      </trkpt>
      <trkpt lat="47.28173" lon="15.98476">
        <ele>352.063232</ele>
        <time>2026-07-08T09:13:46.000Z</time>
      </trkpt>
      <trkpt lat="47.28176" lon="15.98479">
        <ele>352.007158</ele>
        <time>2026-07-08T09:13:47.000Z</time>
      </trkpt>
      <trkpt lat="47.28179" lon="15.98482">
        <ele>351.945035</ele>
        <time>2026-07-08T09:13:48.000Z</time>
      </trkpt>
      <trkpt lat="47.28183" lon="15.98486">
        <ele>351.882926</ele>
        <time>2026-07-08T09:13:49.000Z</time>
      </trkpt>
      <trkpt lat="47.28186" lon="15.9849">
        <ele>351.815373</ele>
        <time>2026-07-08T09:13:50.000Z</time>
      </trkpt>
      <trkpt lat="47.2819" lon="15.98494">
        <ele>351.749648</ele>
        <time>2026-07-08T09:13:51.000Z</time>
      </trkpt>
      <trkpt lat="47.28193" lon="15.98498">
        <ele>351.683319</ele>
        <time>2026-07-08T09:13:52.000Z</time>
      </trkpt>
      <trkpt lat="47.28197" lon="15.98502">
        <ele>351.616977</ele>
        <time>2026-07-08T09:13:53.000Z</time>
      </trkpt>
      <trkpt lat="47.28201" lon="15.98506">
        <ele>351.545804</ele>
        <time>2026-07-08T09:13:54.000Z</time>
      </trkpt>
      <trkpt lat="47.28204" lon="15.98509">
        <ele>351.479475</ele>
        <time>2026-07-08T09:13:55.000Z</time>
      </trkpt>
      <trkpt lat="47.28208" lon="15.98513">
        <ele>351.411336</ele>
        <time>2026-07-08T09:13:56.000Z</time>
      </trkpt>
      <trkpt lat="47.28212" lon="15.98517">
        <ele>351.342549</ele>
        <time>2026-07-08T09:13:57.000Z</time>
      </trkpt>
      <trkpt lat="47.28216" lon="15.98521">
        <ele>351.274996</ele>
        <time>2026-07-08T09:13:58.000Z</time>
      </trkpt>
      <trkpt lat="47.28219" lon="15.98525">
        <ele>351.206858</ele>
        <time>2026-07-08T09:13:59.000Z</time>
      </trkpt>
      <trkpt lat="47.28223" lon="15.98528">
        <ele>351.139191</ele>
        <time>2026-07-08T09:14:00.000Z</time>
      </trkpt>
      <trkpt lat="47.28227" lon="15.98532">
        <ele>351.069828</ele>
        <time>2026-07-08T09:14:01.000Z</time>
      </trkpt>
      <trkpt lat="47.28231" lon="15.98536">
        <ele>351.012848</ele>
        <time>2026-07-08T09:14:02.000Z</time>
      </trkpt>
      <trkpt lat="47.28234" lon="15.9854">
        <ele>350.995315</ele>
        <time>2026-07-08T09:14:03.000Z</time>
      </trkpt>
      <trkpt lat="47.28238" lon="15.98544">
        <ele>350.976836</ele>
        <time>2026-07-08T09:14:04.000Z</time>
      </trkpt>
      <trkpt lat="47.28242" lon="15.98548">
        <ele>350.960063</ele>
        <time>2026-07-08T09:14:05.000Z</time>
      </trkpt>
      <trkpt lat="47.28246" lon="15.98552">
        <ele>350.942673</ele>
        <time>2026-07-08T09:14:06.000Z</time>
      </trkpt>
      <trkpt lat="47.28249" lon="15.98555">
        <ele>350.926224</ele>
        <time>2026-07-08T09:14:07.000Z</time>
      </trkpt>
      <trkpt lat="47.28253" lon="15.98559">
        <ele>350.909774</ele>
        <time>2026-07-08T09:14:08.000Z</time>
      </trkpt>
      <trkpt lat="47.28256" lon="15.98562">
        <ele>350.894265</ele>
        <time>2026-07-08T09:14:09.000Z</time>
      </trkpt>
      <trkpt lat="47.28259" lon="15.98565">
        <ele>350.878246</ele>
        <time>2026-07-08T09:14:10.000Z</time>
      </trkpt>
      <trkpt lat="47.28263" lon="15.98568">
        <ele>350.862835</ele>
        <time>2026-07-08T09:14:11.000Z</time>
      </trkpt>
      <trkpt lat="47.28266" lon="15.98571">
        <ele>350.850102</ele>
        <time>2026-07-08T09:14:12.000Z</time>
      </trkpt>
      <trkpt lat="47.28268" lon="15.98572">
        <ele>350.839281</ele>
        <time>2026-07-08T09:14:13.000Z</time>
      </trkpt>
      <trkpt lat="47.28271" lon="15.98574">
        <ele>350.828059</ele>
        <time>2026-07-08T09:14:14.000Z</time>
      </trkpt>
      <trkpt lat="47.28274" lon="15.98575">
        <ele>350.816913</ele>
        <time>2026-07-08T09:14:15.000Z</time>
      </trkpt>
      <trkpt lat="47.28277" lon="15.98575">
        <ele>350.805245</ele>
        <time>2026-07-08T09:14:16.000Z</time>
      </trkpt>
      <trkpt lat="47.28279" lon="15.98575">
        <ele>350.795432</ele>
        <time>2026-07-08T09:14:17.000Z</time>
      </trkpt>
      <trkpt lat="47.28281" lon="15.98577">
        <ele>350.786504</ele>
        <time>2026-07-08T09:14:18.000Z</time>
      </trkpt>
      <trkpt lat="47.28282" lon="15.98581">
        <ele>350.776726</ele>
        <time>2026-07-08T09:14:19.000Z</time>
      </trkpt>
      <trkpt lat="47.28282" lon="15.98585">
        <ele>350.765995</ele>
        <time>2026-07-08T09:14:20.000Z</time>
      </trkpt>
      <trkpt lat="47.28284" lon="15.98589">
        <ele>350.754213</ele>
        <time>2026-07-08T09:14:21.000Z</time>
      </trkpt>
      <trkpt lat="47.28286" lon="15.98592">
        <ele>350.741913</ele>
        <time>2026-07-08T09:14:22.000Z</time>
      </trkpt>
      <trkpt lat="47.28289" lon="15.98594">
        <ele>350.72818</ele>
        <time>2026-07-08T09:14:23.000Z</time>
      </trkpt>
      <trkpt lat="47.28292" lon="15.98596">
        <ele>350.715374</ele>
        <time>2026-07-08T09:14:24.000Z</time>
      </trkpt>
      <trkpt lat="47.28295" lon="15.986">
        <ele>350.70139</ele>
        <time>2026-07-08T09:14:25.000Z</time>
      </trkpt>
      <trkpt lat="47.28297" lon="15.98604">
        <ele>350.686979</ele>
        <time>2026-07-08T09:14:26.000Z</time>
      </trkpt>
      <trkpt lat="47.28299" lon="15.98609">
        <ele>350.671986</ele>
        <time>2026-07-08T09:14:27.000Z</time>
      </trkpt>
      <trkpt lat="47.283" lon="15.98615">
        <ele>350.656346</ele>
        <time>2026-07-08T09:14:28.000Z</time>
      </trkpt>
      <trkpt lat="47.28302" lon="15.98621">
        <ele>350.640214</ele>
        <time>2026-07-08T09:14:29.000Z</time>
      </trkpt>
      <trkpt lat="47.28303" lon="15.98626">
        <ele>350.624083</ele>
        <time>2026-07-08T09:14:30.000Z</time>
      </trkpt>
      <trkpt lat="47.28304" lon="15.98632">
        <ele>350.608716</ele>
        <time>2026-07-08T09:14:31.000Z</time>
      </trkpt>
      <trkpt lat="47.28306" lon="15.98637">
        <ele>350.592831</ele>
        <time>2026-07-08T09:14:32.000Z</time>
      </trkpt>
      <trkpt lat="47.28307" lon="15.98643">
        <ele>350.577587</ele>
        <time>2026-07-08T09:14:33.000Z</time>
      </trkpt>
      <trkpt lat="47.28308" lon="15.98648">
        <ele>350.562344</ele>
        <time>2026-07-08T09:14:34.000Z</time>
      </trkpt>
      <trkpt lat="47.28309" lon="15.98654">
        <ele>350.546708</ele>
        <time>2026-07-08T09:14:35.000Z</time>
      </trkpt>
      <trkpt lat="47.2831" lon="15.9866">
        <ele>350.531684</ele>
        <time>2026-07-08T09:14:36.000Z</time>
      </trkpt>
      <trkpt lat="47.28312" lon="15.98665">
        <ele>350.515937</ele>
        <time>2026-07-08T09:14:37.000Z</time>
      </trkpt>
      <trkpt lat="47.28312" lon="15.98671">
        <ele>350.500394</ele>
        <time>2026-07-08T09:14:38.000Z</time>
      </trkpt>
      <trkpt lat="47.28312" lon="15.98677">
        <ele>350.485355</ele>
        <time>2026-07-08T09:14:39.000Z</time>
      </trkpt>
      <trkpt lat="47.28311" lon="15.98682">
        <ele>350.470331</ele>
        <time>2026-07-08T09:14:40.000Z</time>
      </trkpt>
      <trkpt lat="47.2831" lon="15.98687">
        <ele>350.455575</ele>
        <time>2026-07-08T09:14:41.000Z</time>
      </trkpt>
      <trkpt lat="47.28308" lon="15.98692">
        <ele>350.440909</ele>
        <time>2026-07-08T09:14:42.000Z</time>
      </trkpt>
      <trkpt lat="47.28307" lon="15.98698">
        <ele>350.425541</ele>
        <time>2026-07-08T09:14:43.000Z</time>
      </trkpt>
      <trkpt lat="47.28306" lon="15.98704">
        <ele>350.409328</ele>
        <time>2026-07-08T09:14:44.000Z</time>
      </trkpt>
      <trkpt lat="47.28306" lon="15.9871">
        <ele>350.39297</ele>
        <time>2026-07-08T09:14:45.000Z</time>
      </trkpt>
      <trkpt lat="47.28307" lon="15.98716">
        <ele>350.376126</ele>
        <time>2026-07-08T09:14:46.000Z</time>
      </trkpt>
      <trkpt lat="47.28308" lon="15.98722">
        <ele>350.36026</ele>
        <time>2026-07-08T09:14:47.000Z</time>
      </trkpt>
      <trkpt lat="47.2831" lon="15.98727">
        <ele>350.344739</ele>
        <time>2026-07-08T09:14:48.000Z</time>
      </trkpt>
      <trkpt lat="47.28313" lon="15.9873">
        <ele>350.32939</ele>
        <time>2026-07-08T09:14:49.000Z</time>
      </trkpt>
      <trkpt lat="47.28317" lon="15.98734">
        <ele>350.322302</ele>
        <time>2026-07-08T09:14:50.000Z</time>
      </trkpt>
      <trkpt lat="47.2832" lon="15.98739">
        <ele>350.333516</ele>
        <time>2026-07-08T09:14:51.000Z</time>
      </trkpt>
      <trkpt lat="47.28323" lon="15.98744">
        <ele>350.34506</ele>
        <time>2026-07-08T09:14:52.000Z</time>
      </trkpt>
      <trkpt lat="47.28326" lon="15.98749">
        <ele>350.356801</ele>
        <time>2026-07-08T09:14:53.000Z</time>
      </trkpt>
      <trkpt lat="47.28328" lon="15.98755">
        <ele>350.36827</ele>
        <time>2026-07-08T09:14:54.000Z</time>
      </trkpt>
      <trkpt lat="47.2833" lon="15.98761">
        <ele>350.379872</ele>
        <time>2026-07-08T09:14:55.000Z</time>
      </trkpt>
      <trkpt lat="47.28332" lon="15.98766">
        <ele>350.390938</ele>
        <time>2026-07-08T09:14:56.000Z</time>
      </trkpt>
      <trkpt lat="47.28334" lon="15.98772">
        <ele>350.402233</ele>
        <time>2026-07-08T09:14:57.000Z</time>
      </trkpt>
      <trkpt lat="47.28336" lon="15.98778">
        <ele>350.413737</ele>
        <time>2026-07-08T09:14:58.000Z</time>
      </trkpt>
      <trkpt lat="47.28338" lon="15.98785">
        <ele>350.425719</ele>
        <time>2026-07-08T09:14:59.000Z</time>
      </trkpt>
      <trkpt lat="47.2834" lon="15.98791">
        <ele>350.437327</ele>
        <time>2026-07-08T09:15:00.000Z</time>
      </trkpt>
      <trkpt lat="47.28342" lon="15.98797">
        <ele>350.44899</ele>
        <time>2026-07-08T09:15:01.000Z</time>
      </trkpt>
      <trkpt lat="47.28343" lon="15.98803">
        <ele>350.460653</ele>
        <time>2026-07-08T09:15:02.000Z</time>
      </trkpt>
      <trkpt lat="47.28345" lon="15.9881">
        <ele>350.472378</ele>
        <time>2026-07-08T09:15:03.000Z</time>
      </trkpt>
      <trkpt lat="47.28347" lon="15.98816">
        <ele>350.483925</ele>
        <time>2026-07-08T09:15:04.000Z</time>
      </trkpt>
      <trkpt lat="47.28348" lon="15.98823">
        <ele>350.496127</ele>
        <time>2026-07-08T09:15:05.000Z</time>
      </trkpt>
      <trkpt lat="47.28349" lon="15.98829">
        <ele>350.508111</ele>
        <time>2026-07-08T09:15:06.000Z</time>
      </trkpt>
      <trkpt lat="47.2835" lon="15.98836">
        <ele>350.520144</ele>
        <time>2026-07-08T09:15:07.000Z</time>
      </trkpt>
      <trkpt lat="47.28351" lon="15.98843">
        <ele>350.532233</ele>
        <time>2026-07-08T09:15:08.000Z</time>
      </trkpt>
      <trkpt lat="47.28353" lon="15.9885">
        <ele>350.54472</ele>
        <time>2026-07-08T09:15:09.000Z</time>
      </trkpt>
      <trkpt lat="47.28354" lon="15.98857">
        <ele>350.556922</ele>
        <time>2026-07-08T09:15:10.000Z</time>
      </trkpt>
      <trkpt lat="47.28355" lon="15.98864">
        <ele>350.568955</ele>
        <time>2026-07-08T09:15:11.000Z</time>
      </trkpt>
      <trkpt lat="47.28356" lon="15.98871">
        <ele>350.581441</ele>
        <time>2026-07-08T09:15:12.000Z</time>
      </trkpt>
      <trkpt lat="47.28357" lon="15.98877">
        <ele>350.593305</ele>
        <time>2026-07-08T09:15:13.000Z</time>
      </trkpt>
      <trkpt lat="47.28358" lon="15.98884">
        <ele>350.60524</ele>
        <time>2026-07-08T09:15:14.000Z</time>
      </trkpt>
      <trkpt lat="47.28358" lon="15.98891">
        <ele>350.617413</ele>
        <time>2026-07-08T09:15:15.000Z</time>
      </trkpt>
      <trkpt lat="47.28358" lon="15.98898">
        <ele>350.629173</ele>
        <time>2026-07-08T09:15:16.000Z</time>
      </trkpt>
      <trkpt lat="47.28358" lon="15.98905">
        <ele>350.641279</ele>
        <time>2026-07-08T09:15:17.000Z</time>
      </trkpt>
      <trkpt lat="47.28358" lon="15.98912">
        <ele>350.653384</ele>
        <time>2026-07-08T09:15:18.000Z</time>
      </trkpt>
      <trkpt lat="47.28358" lon="15.98919">
        <ele>350.665328</ele>
        <time>2026-07-08T09:15:19.000Z</time>
      </trkpt>
      <trkpt lat="47.28358" lon="15.98925">
        <ele>350.676745</ele>
        <time>2026-07-08T09:15:20.000Z</time>
      </trkpt>
      <trkpt lat="47.28358" lon="15.98932">
        <ele>350.68868</ele>
        <time>2026-07-08T09:15:21.000Z</time>
      </trkpt>
      <trkpt lat="47.28358" lon="15.98939">
        <ele>350.699994</ele>
        <time>2026-07-08T09:15:22.000Z</time>
      </trkpt>
      <trkpt lat="47.28357" lon="15.98945">
        <ele>350.711478</ele>
        <time>2026-07-08T09:15:23.000Z</time>
      </trkpt>
      <trkpt lat="47.28357" lon="15.98952">
        <ele>350.723135</ele>
        <time>2026-07-08T09:15:24.000Z</time>
      </trkpt>
      <trkpt lat="47.28356" lon="15.98959">
        <ele>350.734608</ele>
        <time>2026-07-08T09:15:25.000Z</time>
      </trkpt>
      <trkpt lat="47.28355" lon="15.98965">
        <ele>350.745858</ele>
        <time>2026-07-08T09:15:26.000Z</time>
      </trkpt>
      <trkpt lat="47.28353" lon="15.98971">
        <ele>350.757652</ele>
        <time>2026-07-08T09:15:27.000Z</time>
      </trkpt>
      <trkpt lat="47.28352" lon="15.98978">
        <ele>350.769124</ele>
        <time>2026-07-08T09:15:28.000Z</time>
      </trkpt>
      <trkpt lat="47.2835" lon="15.98984">
        <ele>350.784214</ele>
        <time>2026-07-08T09:15:29.000Z</time>
      </trkpt>
      <trkpt lat="47.28348" lon="15.98989">
        <ele>350.805735</ele>
        <time>2026-07-08T09:15:30.000Z</time>
      </trkpt>
      <trkpt lat="47.28347" lon="15.98995">
        <ele>350.827078</ele>
        <time>2026-07-08T09:15:31.000Z</time>
      </trkpt>
      <trkpt lat="47.28346" lon="15.99001">
        <ele>350.848042</ele>
        <time>2026-07-08T09:15:32.000Z</time>
      </trkpt>
      <trkpt lat="47.28345" lon="15.99007">
        <ele>350.86819</ele>
        <time>2026-07-08T09:15:33.000Z</time>
      </trkpt>
      <trkpt lat="47.28345" lon="15.99013">
        <ele>350.888911</ele>
        <time>2026-07-08T09:15:34.000Z</time>
      </trkpt>
      <trkpt lat="47.28343" lon="15.99019">
        <ele>350.909391</ele>
        <time>2026-07-08T09:15:35.000Z</time>
      </trkpt>
      <trkpt lat="47.28342" lon="15.99024">
        <ele>350.927203</ele>
        <time>2026-07-08T09:15:36.000Z</time>
      </trkpt>
      <trkpt lat="47.28341" lon="15.9903">
        <ele>350.947365</ele>
        <time>2026-07-08T09:15:37.000Z</time>
      </trkpt>
      <trkpt lat="47.2834" lon="15.99036">
        <ele>350.968301</ele>
        <time>2026-07-08T09:15:38.000Z</time>
      </trkpt>
      <trkpt lat="47.28339" lon="15.99042">
        <ele>350.989021</ele>
        <time>2026-07-08T09:15:39.000Z</time>
      </trkpt>
      <trkpt lat="47.28338" lon="15.99047">
        <ele>351.008316</ele>
        <time>2026-07-08T09:15:40.000Z</time>
      </trkpt>
      <trkpt lat="47.28337" lon="15.99052">
        <ele>351.024953</ele>
        <time>2026-07-08T09:15:41.000Z</time>
      </trkpt>
      <trkpt lat="47.28337" lon="15.99057">
        <ele>351.041074</ele>
        <time>2026-07-08T09:15:42.000Z</time>
      </trkpt>
      <trkpt lat="47.28337" lon="15.99061">
        <ele>351.054711</ele>
        <time>2026-07-08T09:15:43.000Z</time>
      </trkpt>
      <trkpt lat="47.28336" lon="15.99064">
        <ele>351.067338</ele>
        <time>2026-07-08T09:15:44.000Z</time>
      </trkpt>
      <trkpt lat="47.28335" lon="15.99067">
        <ele>351.078764</ele>
        <time>2026-07-08T09:15:45.000Z</time>
      </trkpt>
      <trkpt lat="47.28335" lon="15.9907">
        <ele>351.089373</ele>
        <time>2026-07-08T09:15:46.000Z</time>
      </trkpt>
      <trkpt lat="47.28334" lon="15.99072">
        <ele>351.096559</ele>
        <time>2026-07-08T09:15:47.000Z</time>
      </trkpt>
      <trkpt lat="47.28335" lon="15.99073">
        <ele>351.100492</ele>
        <time>2026-07-08T09:15:48.000Z</time>
      </trkpt>
      <trkpt lat="47.28335" lon="15.99074">
        <ele>351.101848</ele>
        <time>2026-07-08T09:15:49.000Z</time>
      </trkpt>
      <trkpt lat="47.28334" lon="15.99084">
        <ele>351.13524</ele>
        <time>2026-07-08T09:15:59.000Z</time>
      </trkpt>
      <trkpt lat="47.28334" lon="15.99086">
        <ele>351.144389</ele>
        <time>2026-07-08T09:16:00.000Z</time>
      </trkpt>
      <trkpt lat="47.28334" lon="15.99089">
        <ele>351.153877</ele>
        <time>2026-07-08T09:16:01.000Z</time>
      </trkpt>
      <trkpt lat="47.28334" lon="15.99092">
        <ele>351.164092</ele>
        <time>2026-07-08T09:16:02.000Z</time>
      </trkpt>
      <trkpt lat="47.28334" lon="15.99095">
        <ele>351.175038</ele>
        <time>2026-07-08T09:16:03.000Z</time>
      </trkpt>
      <trkpt lat="47.28333" lon="15.99099">
        <ele>351.186755</ele>
        <time>2026-07-08T09:16:04.000Z</time>
      </trkpt>
      <trkpt lat="47.28332" lon="15.99102">
        <ele>351.199002</ele>
        <time>2026-07-08T09:16:05.000Z</time>
      </trkpt>
      <trkpt lat="47.28331" lon="15.99105">
        <ele>351.211871</ele>
        <time>2026-07-08T09:16:06.000Z</time>
      </trkpt>
      <trkpt lat="47.2833" lon="15.99109">
        <ele>351.224762</ele>
        <time>2026-07-08T09:16:07.000Z</time>
      </trkpt>
      <trkpt lat="47.2833" lon="15.99113">
        <ele>351.238317</ele>
        <time>2026-07-08T09:16:08.000Z</time>
      </trkpt>
      <trkpt lat="47.2833" lon="15.99117">
        <ele>351.251193</ele>
        <time>2026-07-08T09:16:09.000Z</time>
      </trkpt>
      <trkpt lat="47.2833" lon="15.99121">
        <ele>351.264894</ele>
        <time>2026-07-08T09:16:10.000Z</time>
      </trkpt>
      <trkpt lat="47.2833" lon="15.99125">
        <ele>351.278194</ele>
        <time>2026-07-08T09:16:11.000Z</time>
      </trkpt>
      <trkpt lat="47.28329" lon="15.99129">
        <ele>351.291158</ele>
        <time>2026-07-08T09:16:12.000Z</time>
      </trkpt>
      <trkpt lat="47.28329" lon="15.99133">
        <ele>351.305607</ele>
        <time>2026-07-08T09:16:13.000Z</time>
      </trkpt>
      <trkpt lat="47.28328" lon="15.99137">
        <ele>351.320592</ele>
        <time>2026-07-08T09:16:14.000Z</time>
      </trkpt>
      <trkpt lat="47.28328" lon="15.99141">
        <ele>351.335376</ele>
        <time>2026-07-08T09:16:15.000Z</time>
      </trkpt>
      <trkpt lat="47.28327" lon="15.99146">
        <ele>351.35069</ele>
        <time>2026-07-08T09:16:16.000Z</time>
      </trkpt>
      <trkpt lat="47.28326" lon="15.9915">
        <ele>351.365799</ele>
        <time>2026-07-08T09:16:17.000Z</time>
      </trkpt>
      <trkpt lat="47.28326" lon="15.99154">
        <ele>351.380582</ele>
        <time>2026-07-08T09:16:18.000Z</time>
      </trkpt>
      <trkpt lat="47.28325" lon="15.99159">
        <ele>351.395567</ele>
        <time>2026-07-08T09:16:19.000Z</time>
      </trkpt>
      <trkpt lat="47.28325" lon="15.99163">
        <ele>351.410849</ele>
        <time>2026-07-08T09:16:20.000Z</time>
      </trkpt>
      <trkpt lat="47.28325" lon="15.99167">
        <ele>351.424823</ele>
        <time>2026-07-08T09:16:21.000Z</time>
      </trkpt>
      <trkpt lat="47.28324" lon="15.99172">
        <ele>351.439272</ele>
        <time>2026-07-08T09:16:22.000Z</time>
      </trkpt>
      <trkpt lat="47.28324" lon="15.99176">
        <ele>351.45398</ele>
        <time>2026-07-08T09:16:23.000Z</time>
      </trkpt>
      <trkpt lat="47.28323" lon="15.99181">
        <ele>351.471106</ele>
        <time>2026-07-08T09:16:24.000Z</time>
      </trkpt>
      <trkpt lat="47.28323" lon="15.99187">
        <ele>351.490582</ele>
        <time>2026-07-08T09:16:25.000Z</time>
      </trkpt>
      <trkpt lat="47.28322" lon="15.99192">
        <ele>351.510394</ele>
        <time>2026-07-08T09:16:26.000Z</time>
      </trkpt>
      <trkpt lat="47.28322" lon="15.99198">
        <ele>351.53061</ele>
        <time>2026-07-08T09:16:27.000Z</time>
      </trkpt>
      <trkpt lat="47.28321" lon="15.99204">
        <ele>351.549691</ele>
        <time>2026-07-08T09:16:28.000Z</time>
      </trkpt>
      <trkpt lat="47.28321" lon="15.9921">
        <ele>351.569012</ele>
        <time>2026-07-08T09:16:29.000Z</time>
      </trkpt>
      <trkpt lat="47.28321" lon="15.99215">
        <ele>351.588488</ele>
        <time>2026-07-08T09:16:30.000Z</time>
      </trkpt>
      <trkpt lat="47.2832" lon="15.99227">
        <ele>351.628552</ele>
        <time>2026-07-08T09:16:32.000Z</time>
      </trkpt>
      <trkpt lat="47.2832" lon="15.99233">
        <ele>351.649036</ele>
        <time>2026-07-08T09:16:33.000Z</time>
      </trkpt>
      <trkpt lat="47.28318" lon="15.99245">
        <ele>351.683679</ele>
        <time>2026-07-08T09:16:34.000Z</time>
      </trkpt>
      <trkpt lat="47.28317" lon="15.99251">
        <ele>351.695747</ele>
        <time>2026-07-08T09:16:36.000Z</time>
      </trkpt>
      <trkpt lat="47.28315" lon="15.99263">
        <ele>351.719815</ele>
        <time>2026-07-08T09:16:37.000Z</time>
      </trkpt>
      <trkpt lat="47.28314" lon="15.99269">
        <ele>351.731693</ele>
        <time>2026-07-08T09:16:38.000Z</time>
      </trkpt>
      <trkpt lat="47.28314" lon="15.99275">
        <ele>351.743636</ele>
        <time>2026-07-08T09:16:39.000Z</time>
      </trkpt>
      <trkpt lat="47.28313" lon="15.99281">
        <ele>351.755527</ele>
        <time>2026-07-08T09:16:40.000Z</time>
      </trkpt>
      <trkpt lat="47.28312" lon="15.99287">
        <ele>351.767373</ele>
        <time>2026-07-08T09:16:41.000Z</time>
      </trkpt>
      <trkpt lat="47.28312" lon="15.99293">
        <ele>351.77918</ele>
        <time>2026-07-08T09:16:42.000Z</time>
      </trkpt>
      <trkpt lat="47.28311" lon="15.99298">
        <ele>351.790421</ele>
        <time>2026-07-08T09:16:43.000Z</time>
      </trkpt>
      <trkpt lat="47.2831" lon="15.99304">
        <ele>351.801687</ele>
        <time>2026-07-08T09:16:44.000Z</time>
      </trkpt>
      <trkpt lat="47.2831" lon="15.9931">
        <ele>351.813001</ele>
        <time>2026-07-08T09:16:45.000Z</time>
      </trkpt>
      <trkpt lat="47.28309" lon="15.99315">
        <ele>351.824179</ele>
        <time>2026-07-08T09:16:46.000Z</time>
      </trkpt>
      <trkpt lat="47.28308" lon="15.99321">
        <ele>351.835017</ele>
        <time>2026-07-08T09:16:47.000Z</time>
      </trkpt>
      <trkpt lat="47.28307" lon="15.99327">
        <ele>351.846829</ele>
        <time>2026-07-08T09:16:48.000Z</time>
      </trkpt>
      <trkpt lat="47.28306" lon="15.99333">
        <ele>351.858518</ele>
        <time>2026-07-08T09:16:49.000Z</time>
      </trkpt>
      <trkpt lat="47.28305" lon="15.99339">
        <ele>351.870965</ele>
        <time>2026-07-08T09:16:50.000Z</time>
      </trkpt>
      <trkpt lat="47.28304" lon="15.99345">
        <ele>351.883602</ele>
        <time>2026-07-08T09:16:51.000Z</time>
      </trkpt>
      <trkpt lat="47.28303" lon="15.99352">
        <ele>351.897213</ele>
        <time>2026-07-08T09:16:52.000Z</time>
      </trkpt>
      <trkpt lat="47.28302" lon="15.99358">
        <ele>351.910624</ele>
        <time>2026-07-08T09:16:53.000Z</time>
      </trkpt>
      <trkpt lat="47.283" lon="15.99365">
        <ele>351.924564</ele>
        <time>2026-07-08T09:16:54.000Z</time>
      </trkpt>
      <trkpt lat="47.28298" lon="15.99371">
        <ele>351.937557</ele>
        <time>2026-07-08T09:16:55.000Z</time>
      </trkpt>
      <trkpt lat="47.28296" lon="15.99377">
        <ele>351.951223</ele>
        <time>2026-07-08T09:16:56.000Z</time>
      </trkpt>
      <trkpt lat="47.28293" lon="15.99383">
        <ele>351.965063</ele>
        <time>2026-07-08T09:16:57.000Z</time>
      </trkpt>
      <trkpt lat="47.28291" lon="15.9939">
        <ele>351.979125</ele>
        <time>2026-07-08T09:16:58.000Z</time>
      </trkpt>
      <trkpt lat="47.2829" lon="15.99397">
        <ele>351.993227</ele>
        <time>2026-07-08T09:16:59.000Z</time>
      </trkpt>
      <trkpt lat="47.2829" lon="15.99404">
        <ele>352.007317</ele>
        <time>2026-07-08T09:17:00.000Z</time>
      </trkpt>
      <trkpt lat="47.28292" lon="15.99411">
        <ele>352.020923</ele>
        <time>2026-07-08T09:17:01.000Z</time>
      </trkpt>
      <trkpt lat="47.28295" lon="15.99416">
        <ele>352.033854</ele>
        <time>2026-07-08T09:17:02.000Z</time>
      </trkpt>
      <trkpt lat="47.28297" lon="15.99421">
        <ele>352.045588</ele>
        <time>2026-07-08T09:17:03.000Z</time>
      </trkpt>
      <trkpt lat="47.283" lon="15.99423">
        <ele>352.054859</ele>
        <time>2026-07-08T09:17:04.000Z</time>
      </trkpt>
      <trkpt lat="47.28303" lon="15.99425">
        <ele>352.064866</ele>
        <time>2026-07-08T09:17:05.000Z</time>
      </trkpt>
      <trkpt lat="47.28306" lon="15.99428">
        <ele>352.075204</ele>
        <time>2026-07-08T09:17:06.000Z</time>
      </trkpt>
      <trkpt lat="47.28309" lon="15.9943">
        <ele>352.083999</ele>
        <time>2026-07-08T09:17:07.000Z</time>
      </trkpt>
      <trkpt lat="47.28312" lon="15.99431">
        <ele>352.094064</ele>
        <time>2026-07-08T09:17:08.000Z</time>
      </trkpt>
      <trkpt lat="47.28315" lon="15.99433">
        <ele>352.103185</ele>
        <time>2026-07-08T09:17:09.000Z</time>
      </trkpt>
      <trkpt lat="47.2832" lon="15.99432">
        <ele>352.115975</ele>
        <time>2026-07-08T09:17:10.000Z</time>
      </trkpt>
      <trkpt lat="47.28324" lon="15.99431">
        <ele>352.129025</ele>
        <time>2026-07-08T09:17:11.000Z</time>
      </trkpt>
      <trkpt lat="47.2833" lon="15.99428">
        <ele>352.14618</ele>
        <time>2026-07-08T09:17:12.000Z</time>
      </trkpt>
      <trkpt lat="47.28335" lon="15.99426">
        <ele>352.160674</ele>
        <time>2026-07-08T09:17:13.000Z</time>
      </trkpt>
      <trkpt lat="47.28338" lon="15.99424">
        <ele>352.171482</ele>
        <time>2026-07-08T09:17:14.000Z</time>
      </trkpt>
      <trkpt lat="47.28341" lon="15.9942">
        <ele>352.18326</ele>
        <time>2026-07-08T09:17:15.000Z</time>
      </trkpt>
      <trkpt lat="47.28342" lon="15.99415">
        <ele>352.195713</ele>
        <time>2026-07-08T09:17:16.000Z</time>
      </trkpt>
      <trkpt lat="47.28343" lon="15.9941">
        <ele>352.236792</ele>
        <time>2026-07-08T09:17:17.000Z</time>
      </trkpt>
      <trkpt lat="47.28342" lon="15.99405">
        <ele>352.278029</ele>
        <time>2026-07-08T09:17:18.000Z</time>
      </trkpt>
      <trkpt lat="47.28342" lon="15.994">
        <ele>352.317291</ele>
        <time>2026-07-08T09:17:19.000Z</time>
      </trkpt>
      <trkpt lat="47.28341" lon="15.99396">
        <ele>352.35438</ele>
        <time>2026-07-08T09:17:20.000Z</time>
      </trkpt>
      <trkpt lat="47.28339" lon="15.99392">
        <ele>352.390569</ele>
        <time>2026-07-08T09:17:21.000Z</time>
      </trkpt>
      <trkpt lat="47.28338" lon="15.99389">
        <ele>352.424348</ele>
        <time>2026-07-08T09:17:22.000Z</time>
      </trkpt>
      <trkpt lat="47.28336" lon="15.99385">
        <ele>352.461522</ele>
        <time>2026-07-08T09:17:23.000Z</time>
      </trkpt>
      <trkpt lat="47.28334" lon="15.99382">
        <ele>352.497394</ele>
        <time>2026-07-08T09:17:24.000Z</time>
      </trkpt>
      <trkpt lat="47.28334" lon="15.99378">
        <ele>352.530032</ele>
        <time>2026-07-08T09:17:25.000Z</time>
      </trkpt>
      <trkpt lat="47.28336" lon="15.99375">
        <ele>352.560919</ele>
        <time>2026-07-08T09:17:26.000Z</time>
      </trkpt>
      <trkpt lat="47.28338" lon="15.99375">
        <ele>352.591033</ele>
        <time>2026-07-08T09:17:27.000Z</time>
      </trkpt>
      <trkpt lat="47.2834" lon="15.99378">
        <ele>352.619914</ele>
        <time>2026-07-08T09:17:28.000Z</time>
      </trkpt>
      <trkpt lat="47.28341" lon="15.99382">
        <ele>352.656104</ele>
        <time>2026-07-08T09:17:29.000Z</time>
      </trkpt>
      <trkpt lat="47.28343" lon="15.99386">
        <ele>352.695555</ele>
        <time>2026-07-08T09:17:30.000Z</time>
      </trkpt>
      <trkpt lat="47.28344" lon="15.99391">
        <ele>352.735746</ele>
        <time>2026-07-08T09:17:31.000Z</time>
      </trkpt>
      <trkpt lat="47.28345" lon="15.99396">
        <ele>352.778278</ele>
        <time>2026-07-08T09:17:32.000Z</time>
      </trkpt>
      <trkpt lat="47.28346" lon="15.99401">
        <ele>352.821552</ele>
        <time>2026-07-08T09:17:33.000Z</time>
      </trkpt>
      <trkpt lat="47.28347" lon="15.99406">
        <ele>352.862891</ele>
        <time>2026-07-08T09:17:34.000Z</time>
      </trkpt>
      <trkpt lat="47.28348" lon="15.9941">
        <ele>352.904774</ele>
        <time>2026-07-08T09:17:35.000Z</time>
      </trkpt>
      <trkpt lat="47.28349" lon="15.99415">
        <ele>352.94341</ele>
        <time>2026-07-08T09:17:36.000Z</time>
      </trkpt>
      <trkpt lat="47.2835" lon="15.99419">
        <ele>352.97979</ele>
        <time>2026-07-08T09:17:37.000Z</time>
      </trkpt>
      <trkpt lat="47.28351" lon="15.99423">
        <ele>353.016879</ele>
        <time>2026-07-08T09:17:38.000Z</time>
      </trkpt>
      <trkpt lat="47.28352" lon="15.99427">
        <ele>353.050585</ele>
        <time>2026-07-08T09:17:39.000Z</time>
      </trkpt>
      <trkpt lat="47.28352" lon="15.99431">
        <ele>353.082969</ele>
        <time>2026-07-08T09:17:40.000Z</time>
      </trkpt>
      <trkpt lat="47.28352" lon="15.99434">
        <ele>353.108968</ele>
        <time>2026-07-08T09:17:41.000Z</time>
      </trkpt>
      <trkpt lat="47.2835" lon="15.99437">
        <ele>353.1362</ele>
        <time>2026-07-08T09:17:42.000Z</time>
      </trkpt>
      <trkpt lat="47.28348" lon="15.99438">
        <ele>353.16389</ele>
        <time>2026-07-08T09:17:43.000Z</time>
      </trkpt>
      <trkpt lat="47.28346" lon="15.99437">
        <ele>353.194235</ele>
        <time>2026-07-08T09:17:44.000Z</time>
      </trkpt>
      <trkpt lat="47.28343" lon="15.99437">
        <ele>353.225004</ele>
        <time>2026-07-08T09:17:45.000Z</time>
      </trkpt>
      <trkpt lat="47.28341" lon="15.99435">
        <ele>353.253219</ele>
        <time>2026-07-08T09:17:46.000Z</time>
      </trkpt>
      <trkpt lat="47.28339" lon="15.99434">
        <ele>353.281286</ele>
        <time>2026-07-08T09:17:47.000Z</time>
      </trkpt>
      <trkpt lat="47.28337" lon="15.99432">
        <ele>353.310792</ele>
        <time>2026-07-08T09:17:48.000Z</time>
      </trkpt>
      <trkpt lat="47.28335" lon="15.99432">
        <ele>353.332503</ele>
        <time>2026-07-08T09:17:49.000Z</time>
      </trkpt>
      <trkpt lat="47.28334" lon="15.99433">
        <ele>353.349083</ele>
        <time>2026-07-08T09:17:50.000Z</time>
      </trkpt>
      <trkpt lat="47.28333" lon="15.99434">
        <ele>353.35604</ele>
        <time>2026-07-08T09:17:51.000Z</time>
      </trkpt>
      <trkpt lat="47.28333" lon="15.99434">
        <ele>353.360905</ele>
        <time>2026-07-08T09:17:52.000Z</time>
      </trkpt>
      <trkpt lat="47.2833" lon="15.99441">
        <ele>353.427317</ele>
        <time>2026-07-08T09:17:55.000Z</time>
      </trkpt>
      <trkpt lat="47.2833" lon="15.99445">
        <ele>353.45668</ele>
        <time>2026-07-08T09:17:56.000Z</time>
      </trkpt>
      <trkpt lat="47.28329" lon="15.99449">
        <ele>353.489144</ele>
        <time>2026-07-08T09:17:57.000Z</time>
      </trkpt>
      <trkpt lat="47.28328" lon="15.99453">
        <ele>353.525462</ele>
        <time>2026-07-08T09:17:58.000Z</time>
      </trkpt>
      <trkpt lat="47.28326" lon="15.99457">
        <ele>353.566599</ele>
        <time>2026-07-08T09:17:59.000Z</time>
      </trkpt>
      <trkpt lat="47.28325" lon="15.99462">
        <ele>353.612065</ele>
        <time>2026-07-08T09:18:00.000Z</time>
      </trkpt>
      <trkpt lat="47.28323" lon="15.99467">
        <ele>353.66013</ele>
        <time>2026-07-08T09:18:01.000Z</time>
      </trkpt>
      <trkpt lat="47.28321" lon="15.99473">
        <ele>353.707763</ele>
        <time>2026-07-08T09:18:02.000Z</time>
      </trkpt>
      <trkpt lat="47.28319" lon="15.99478">
        <ele>353.758567</ele>
        <time>2026-07-08T09:18:03.000Z</time>
      </trkpt>
      <trkpt lat="47.28318" lon="15.99484">
        <ele>353.808407</ele>
        <time>2026-07-08T09:18:04.000Z</time>
      </trkpt>
      <trkpt lat="47.28317" lon="15.9949">
        <ele>353.858819</ele>
        <time>2026-07-08T09:18:05.000Z</time>
      </trkpt>
      <trkpt lat="47.28316" lon="15.99496">
        <ele>353.910552</ele>
        <time>2026-07-08T09:18:06.000Z</time>
      </trkpt>
      <trkpt lat="47.28315" lon="15.99502">
        <ele>353.960444</ele>
        <time>2026-07-08T09:18:07.000Z</time>
      </trkpt>
      <trkpt lat="47.28314" lon="15.99508">
        <ele>354.011649</ele>
        <time>2026-07-08T09:18:08.000Z</time>
      </trkpt>
      <trkpt lat="47.28313" lon="15.99514">
        <ele>354.062688</ele>
        <time>2026-07-08T09:18:09.000Z</time>
      </trkpt>
      <trkpt lat="47.28312" lon="15.99521">
        <ele>354.115637</ele>
        <time>2026-07-08T09:18:10.000Z</time>
      </trkpt>
      <trkpt lat="47.28311" lon="15.99527">
        <ele>354.168429</ele>
        <time>2026-07-08T09:18:11.000Z</time>
      </trkpt>
      <trkpt lat="47.2831" lon="15.99533">
        <ele>354.220427</ele>
        <time>2026-07-08T09:18:12.000Z</time>
      </trkpt>
      <trkpt lat="47.28308" lon="15.99539">
        <ele>354.273818</ele>
        <time>2026-07-08T09:18:13.000Z</time>
      </trkpt>
      <trkpt lat="47.28307" lon="15.99546">
        <ele>354.327405</ele>
        <time>2026-07-08T09:18:14.000Z</time>
      </trkpt>
      <trkpt lat="47.28306" lon="15.99552">
        <ele>354.348975</ele>
        <time>2026-07-08T09:18:15.000Z</time>
      </trkpt>
      <trkpt lat="47.28305" lon="15.99559">
        <ele>354.331372</ele>
        <time>2026-07-08T09:18:16.000Z</time>
      </trkpt>
      <trkpt lat="47.28304" lon="15.99565">
        <ele>354.313768</ele>
        <time>2026-07-08T09:18:17.000Z</time>
      </trkpt>
      <trkpt lat="47.28303" lon="15.99571">
        <ele>354.296763</ele>
        <time>2026-07-08T09:18:18.000Z</time>
      </trkpt>
      <trkpt lat="47.28303" lon="15.99578">
        <ele>354.279315</ele>
        <time>2026-07-08T09:18:19.000Z</time>
      </trkpt>
      <trkpt lat="47.28302" lon="15.99585">
        <ele>354.261195</ele>
        <time>2026-07-08T09:18:20.000Z</time>
      </trkpt>
      <trkpt lat="47.28301" lon="15.99591">
        <ele>354.243747</ele>
        <time>2026-07-08T09:18:21.000Z</time>
      </trkpt>
      <trkpt lat="47.283" lon="15.99598">
        <ele>354.225628</ele>
        <time>2026-07-08T09:18:22.000Z</time>
      </trkpt>
      <trkpt lat="47.28299" lon="15.99604">
        <ele>354.207766</ele>
        <time>2026-07-08T09:18:23.000Z</time>
      </trkpt>
      <trkpt lat="47.28298" lon="15.99611">
        <ele>354.189647</ele>
        <time>2026-07-08T09:18:24.000Z</time>
      </trkpt>
      <trkpt lat="47.28297" lon="15.99618">
        <ele>354.171527</ele>
        <time>2026-07-08T09:18:25.000Z</time>
      </trkpt>
      <trkpt lat="47.28296" lon="15.99625">
        <ele>354.153228</ele>
        <time>2026-07-08T09:18:26.000Z</time>
      </trkpt>
      <trkpt lat="47.28295" lon="15.99631">
        <ele>354.134851</ele>
        <time>2026-07-08T09:18:27.000Z</time>
      </trkpt>
      <trkpt lat="47.28294" lon="15.99638">
        <ele>354.116883</ele>
        <time>2026-07-08T09:18:28.000Z</time>
      </trkpt>
      <trkpt lat="47.28293" lon="15.99645">
        <ele>354.098654</ele>
        <time>2026-07-08T09:18:29.000Z</time>
      </trkpt>
      <trkpt lat="47.28292" lon="15.99652">
        <ele>354.080018</ele>
        <time>2026-07-08T09:18:30.000Z</time>
      </trkpt>
      <trkpt lat="47.28291" lon="15.99659">
        <ele>354.061124</ele>
        <time>2026-07-08T09:18:31.000Z</time>
      </trkpt>
      <trkpt lat="47.2829" lon="15.99666">
        <ele>354.04223</ele>
        <time>2026-07-08T09:18:32.000Z</time>
      </trkpt>
      <trkpt lat="47.28289" lon="15.99673">
        <ele>354.023672</ele>
        <time>2026-07-08T09:18:33.000Z</time>
      </trkpt>
      <trkpt lat="47.28288" lon="15.9968">
        <ele>354.004778</ele>
        <time>2026-07-08T09:18:34.000Z</time>
      </trkpt>
      <trkpt lat="47.28287" lon="15.99686">
        <ele>353.98655</ele>
        <time>2026-07-08T09:18:35.000Z</time>
      </trkpt>
      <trkpt lat="47.28286" lon="15.99694">
        <ele>353.967138</ele>
        <time>2026-07-08T09:18:36.000Z</time>
      </trkpt>
      <trkpt lat="47.28285" lon="15.99701">
        <ele>353.947727</ele>
        <time>2026-07-08T09:18:37.000Z</time>
      </trkpt>
      <trkpt lat="47.28284" lon="15.99708">
        <ele>353.928574</ele>
        <time>2026-07-08T09:18:38.000Z</time>
      </trkpt>
      <trkpt lat="47.28283" lon="15.99715">
        <ele>353.909163</ele>
        <time>2026-07-08T09:18:39.000Z</time>
      </trkpt>
      <trkpt lat="47.28282" lon="15.99722">
        <ele>353.889493</ele>
        <time>2026-07-08T09:18:40.000Z</time>
      </trkpt>
      <trkpt lat="47.28281" lon="15.9973">
        <ele>353.870082</ele>
        <time>2026-07-08T09:18:41.000Z</time>
      </trkpt>
      <trkpt lat="47.2828" lon="15.99737">
        <ele>353.850485</ele>
        <time>2026-07-08T09:18:42.000Z</time>
      </trkpt>
      <trkpt lat="47.2828" lon="15.99744">
        <ele>353.831214</ele>
        <time>2026-07-08T09:18:43.000Z</time>
      </trkpt>
      <trkpt lat="47.28279" lon="15.99751">
        <ele>353.811544</ele>
        <time>2026-07-08T09:18:44.000Z</time>
      </trkpt>
      <trkpt lat="47.28278" lon="15.99759">
        <ele>353.791615</ele>
        <time>2026-07-08T09:18:45.000Z</time>
      </trkpt>
      <trkpt lat="47.28277" lon="15.99766">
        <ele>353.771563</ele>
        <time>2026-07-08T09:18:46.000Z</time>
      </trkpt>
      <trkpt lat="47.28276" lon="15.99774">
        <ele>353.751446</ele>
        <time>2026-07-08T09:18:47.000Z</time>
      </trkpt>
      <trkpt lat="47.28275" lon="15.99781">
        <ele>353.731776</ele>
        <time>2026-07-08T09:18:48.000Z</time>
      </trkpt>
      <trkpt lat="47.28274" lon="15.99789">
        <ele>353.711587</ele>
        <time>2026-07-08T09:18:49.000Z</time>
      </trkpt>
      <trkpt lat="47.28273" lon="15.99796">
        <ele>353.691917</ele>
        <time>2026-07-08T09:18:50.000Z</time>
      </trkpt>
      <trkpt lat="47.28272" lon="15.99803">
        <ele>353.671471</ele>
        <time>2026-07-08T09:18:51.000Z</time>
      </trkpt>
      <trkpt lat="47.2827" lon="15.99811">
        <ele>353.649589</ele>
        <time>2026-07-08T09:18:52.000Z</time>
      </trkpt>
      <trkpt lat="47.28269" lon="15.99819">
        <ele>353.627523</ele>
        <time>2026-07-08T09:18:53.000Z</time>
      </trkpt>
      <trkpt lat="47.28268" lon="15.99826">
        <ele>353.60518</ele>
        <time>2026-07-08T09:18:54.000Z</time>
      </trkpt>
      <trkpt lat="47.28267" lon="15.99834">
        <ele>353.583391</ele>
        <time>2026-07-08T09:18:55.000Z</time>
      </trkpt>
      <trkpt lat="47.28266" lon="15.99841">
        <ele>353.561602</ele>
        <time>2026-07-08T09:18:56.000Z</time>
      </trkpt>
      <trkpt lat="47.28265" lon="15.99849">
        <ele>353.540652</ele>
        <time>2026-07-08T09:18:57.000Z</time>
      </trkpt>
      <trkpt lat="47.28264" lon="15.99856">
        <ele>353.519502</ele>
        <time>2026-07-08T09:18:58.000Z</time>
      </trkpt>
      <trkpt lat="47.28263" lon="15.99863">
        <ele>353.498551</ele>
        <time>2026-07-08T09:18:59.000Z</time>
      </trkpt>
      <trkpt lat="47.28262" lon="15.9987">
        <ele>353.477601</ele>
        <time>2026-07-08T09:19:00.000Z</time>
      </trkpt>
      <trkpt lat="47.28261" lon="15.99877">
        <ele>353.45693</ele>
        <time>2026-07-08T09:19:01.000Z</time>
      </trkpt>
      <trkpt lat="47.2826" lon="15.99885">
        <ele>353.43598</ele>
        <time>2026-07-08T09:19:02.000Z</time>
      </trkpt>
      <trkpt lat="47.28259" lon="15.99892">
        <ele>353.41475</ele>
        <time>2026-07-08T09:19:03.000Z</time>
      </trkpt>
      <trkpt lat="47.28258" lon="15.99899">
        <ele>353.392876</ele>
        <time>2026-07-08T09:19:04.000Z</time>
      </trkpt>
      <trkpt lat="47.28257" lon="15.99907">
        <ele>353.370528</ele>
        <time>2026-07-08T09:19:05.000Z</time>
      </trkpt>
      <trkpt lat="47.28256" lon="15.99915">
        <ele>353.348816</ele>
        <time>2026-07-08T09:19:06.000Z</time>
      </trkpt>
      <trkpt lat="47.28255" lon="15.99922">
        <ele>353.327027</ele>
        <time>2026-07-08T09:19:07.000Z</time>
      </trkpt>
      <trkpt lat="47.28254" lon="15.9993">
        <ele>353.305385</ele>
        <time>2026-07-08T09:19:08.000Z</time>
      </trkpt>
      <trkpt lat="47.28253" lon="15.99937">
        <ele>353.283596</ele>
        <time>2026-07-08T09:19:09.000Z</time>
      </trkpt>
      <trkpt lat="47.28252" lon="15.99944">
        <ele>353.262461</ele>
        <time>2026-07-08T09:19:10.000Z</time>
      </trkpt>
      <trkpt lat="47.28251" lon="15.99952">
        <ele>353.241232</ele>
        <time>2026-07-08T09:19:11.000Z</time>
      </trkpt>
      <trkpt lat="47.2825" lon="15.99959">
        <ele>353.220152</ele>
        <time>2026-07-08T09:19:12.000Z</time>
      </trkpt>
      <trkpt lat="47.28249" lon="15.99966">
        <ele>353.199202</ele>
        <time>2026-07-08T09:19:13.000Z</time>
      </trkpt>
      <trkpt lat="47.28248" lon="15.99973">
        <ele>353.177972</ele>
        <time>2026-07-08T09:19:14.000Z</time>
      </trkpt>
      <trkpt lat="47.28247" lon="15.99981">
        <ele>353.157174</ele>
        <time>2026-07-08T09:19:15.000Z</time>
      </trkpt>
      <trkpt lat="47.28246" lon="15.99988">
        <ele>353.136224</ele>
        <time>2026-07-08T09:19:16.000Z</time>
      </trkpt>
      <trkpt lat="47.28245" lon="15.99995">
        <ele>353.115552</ele>
        <time>2026-07-08T09:19:17.000Z</time>
      </trkpt>
      <trkpt lat="47.28244" lon="16.00002">
        <ele>353.094682</ele>
        <time>2026-07-08T09:19:18.000Z</time>
      </trkpt>
      <trkpt lat="47.28243" lon="16.00009">
        <ele>353.073732</ele>
        <time>2026-07-08T09:19:19.000Z</time>
      </trkpt>
      <trkpt lat="47.28243" lon="16.00017">
        <ele>353.05277</ele>
        <time>2026-07-08T09:19:20.000Z</time>
      </trkpt>
      <trkpt lat="47.28242" lon="16.00024">
        <ele>353.0319</ele>
        <time>2026-07-08T09:19:21.000Z</time>
      </trkpt>
      <trkpt lat="47.28241" lon="16.00031">
        <ele>353.010257</ele>
        <time>2026-07-08T09:19:22.000Z</time>
      </trkpt>
      <trkpt lat="47.2824" lon="16.00039">
        <ele>352.988615</ele>
        <time>2026-07-08T09:19:23.000Z</time>
      </trkpt>
      <trkpt lat="47.28239" lon="16.00046">
        <ele>352.967464</ele>
        <time>2026-07-08T09:19:24.000Z</time>
      </trkpt>
      <trkpt lat="47.28238" lon="16.00054">
        <ele>352.945675</ele>
        <time>2026-07-08T09:19:25.000Z</time>
      </trkpt>
      <trkpt lat="47.28238" lon="16.00061">
        <ele>352.924596</ele>
        <time>2026-07-08T09:19:26.000Z</time>
      </trkpt>
      <trkpt lat="47.28237" lon="16.00068">
        <ele>352.902807</ele>
        <time>2026-07-08T09:19:27.000Z</time>
      </trkpt>
      <trkpt lat="47.28236" lon="16.00076">
        <ele>352.972423</ele>
        <time>2026-07-08T09:19:28.000Z</time>
      </trkpt>
      <trkpt lat="47.28235" lon="16.00083">
        <ele>353.052456</ele>
        <time>2026-07-08T09:19:29.000Z</time>
      </trkpt>
      <trkpt lat="47.28234" lon="16.00091">
        <ele>353.131546</ele>
        <time>2026-07-08T09:19:30.000Z</time>
      </trkpt>
      <trkpt lat="47.28233" lon="16.00098">
        <ele>353.209028</ele>
        <time>2026-07-08T09:19:31.000Z</time>
      </trkpt>
      <trkpt lat="47.28232" lon="16.00105">
        <ele>353.285734</ele>
        <time>2026-07-08T09:19:32.000Z</time>
      </trkpt>
      <trkpt lat="47.28231" lon="16.00112">
        <ele>353.361704</ele>
        <time>2026-07-08T09:19:33.000Z</time>
      </trkpt>
      <trkpt lat="47.28231" lon="16.00119">
        <ele>353.433951</ele>
        <time>2026-07-08T09:19:34.000Z</time>
      </trkpt>
      <trkpt lat="47.28231" lon="16.00125">
        <ele>353.505104</ele>
        <time>2026-07-08T09:19:35.000Z</time>
      </trkpt>
      <trkpt lat="47.28232" lon="16.00131">
        <ele>353.573013</ele>
        <time>2026-07-08T09:19:36.000Z</time>
      </trkpt>
      <trkpt lat="47.28234" lon="16.00136">
        <ele>353.636303</ele>
        <time>2026-07-08T09:19:37.000Z</time>
      </trkpt>
      <trkpt lat="47.28236" lon="16.00141">
        <ele>353.694327</ele>
        <time>2026-07-08T09:19:38.000Z</time>
      </trkpt>
      <trkpt lat="47.28238" lon="16.00146">
        <ele>353.753037</ele>
        <time>2026-07-08T09:19:39.000Z</time>
      </trkpt>
      <trkpt lat="47.28239" lon="16.00151">
        <ele>353.815423</ele>
        <time>2026-07-08T09:19:40.000Z</time>
      </trkpt>
      <trkpt lat="47.2824" lon="16.00157">
        <ele>353.880361</ele>
        <time>2026-07-08T09:19:41.000Z</time>
      </trkpt>
      <trkpt lat="47.2824" lon="16.00163">
        <ele>353.941399</ele>
        <time>2026-07-08T09:19:42.000Z</time>
      </trkpt>
      <trkpt lat="47.28238" lon="16.00168">
        <ele>354.002386</ele>
        <time>2026-07-08T09:19:43.000Z</time>
      </trkpt>
      <trkpt lat="47.28236" lon="16.00173">
        <ele>354.064788</ele>
        <time>2026-07-08T09:19:44.000Z</time>
      </trkpt>
      <trkpt lat="47.28233" lon="16.00178">
        <ele>354.127383</ele>
        <time>2026-07-08T09:19:45.000Z</time>
      </trkpt>
      <trkpt lat="47.28231" lon="16.00182">
        <ele>354.189153</ele>
        <time>2026-07-08T09:19:46.000Z</time>
      </trkpt>
      <trkpt lat="47.28229" lon="16.00187">
        <ele>354.250705</ele>
        <time>2026-07-08T09:19:47.000Z</time>
      </trkpt>
      <trkpt lat="47.28227" lon="16.00193">
        <ele>354.315112</ele>
        <time>2026-07-08T09:19:48.000Z</time>
      </trkpt>
      <trkpt lat="47.28225" lon="16.00198">
        <ele>354.378773</ele>
        <time>2026-07-08T09:19:49.000Z</time>
      </trkpt>
      <trkpt lat="47.28223" lon="16.00204">
        <ele>354.444284</ele>
        <time>2026-07-08T09:19:50.000Z</time>
      </trkpt>
      <trkpt lat="47.28222" lon="16.00209">
        <ele>354.508663</ele>
        <time>2026-07-08T09:19:51.000Z</time>
      </trkpt>
      <trkpt lat="47.2822" lon="16.00215">
        <ele>354.572603</ele>
        <time>2026-07-08T09:19:52.000Z</time>
      </trkpt>
      <trkpt lat="47.28219" lon="16.0022">
        <ele>354.635556</ele>
        <time>2026-07-08T09:19:53.000Z</time>
      </trkpt>
      <trkpt lat="47.28217" lon="16.00226">
        <ele>354.698509</ele>
        <time>2026-07-08T09:19:54.000Z</time>
      </trkpt>
      <trkpt lat="47.28216" lon="16.00231">
        <ele>354.761088</ele>
        <time>2026-07-08T09:19:55.000Z</time>
      </trkpt>
      <trkpt lat="47.28214" lon="16.00237">
        <ele>354.822075</ele>
        <time>2026-07-08T09:19:56.000Z</time>
      </trkpt>
      <trkpt lat="47.28213" lon="16.00242">
        <ele>354.883063</ele>
        <time>2026-07-08T09:19:57.000Z</time>
      </trkpt>
      <trkpt lat="47.28211" lon="16.00247">
        <ele>354.944455</ele>
        <time>2026-07-08T09:19:58.000Z</time>
      </trkpt>
      <trkpt lat="47.2821" lon="16.00252">
        <ele>355.002314</ele>
        <time>2026-07-08T09:19:59.000Z</time>
      </trkpt>
      <trkpt lat="47.28209" lon="16.00258">
        <ele>355.063166</ele>
        <time>2026-07-08T09:20:00.000Z</time>
      </trkpt>
      <trkpt lat="47.28208" lon="16.00263">
        <ele>355.120493</ele>
        <time>2026-07-08T09:20:01.000Z</time>
      </trkpt>
      <trkpt lat="47.28206" lon="16.00268">
        <ele>355.178824</ele>
        <time>2026-07-08T09:20:02.000Z</time>
      </trkpt>
      <trkpt lat="47.28205" lon="16.00273">
        <ele>355.238676</ele>
        <time>2026-07-08T09:20:03.000Z</time>
      </trkpt>
      <trkpt lat="47.28204" lon="16.00279">
        <ele>355.29753</ele>
        <time>2026-07-08T09:20:04.000Z</time>
      </trkpt>
      <trkpt lat="47.28202" lon="16.00284">
        <ele>355.354975</ele>
        <time>2026-07-08T09:20:05.000Z</time>
      </trkpt>
      <trkpt lat="47.28201" lon="16.00289">
        <ele>355.412822</ele>
        <time>2026-07-08T09:20:06.000Z</time>
      </trkpt>
      <trkpt lat="47.282" lon="16.00294">
        <ele>355.4692</ele>
        <time>2026-07-08T09:20:07.000Z</time>
      </trkpt>
      <trkpt lat="47.282" lon="16.00299">
        <ele>355.523419</ele>
        <time>2026-07-08T09:20:08.000Z</time>
      </trkpt>
      <trkpt lat="47.28199" lon="16.00304">
        <ele>355.574522</ele>
        <time>2026-07-08T09:20:09.000Z</time>
      </trkpt>
      <trkpt lat="47.28198" lon="16.00308">
        <ele>355.625312</ele>
        <time>2026-07-08T09:20:10.000Z</time>
      </trkpt>
      <trkpt lat="47.28198" lon="16.00313">
        <ele>355.674342</ele>
        <time>2026-07-08T09:20:11.000Z</time>
      </trkpt>
      <trkpt lat="47.28197" lon="16.00317">
        <ele>355.736337</ele>
        <time>2026-07-08T09:20:12.000Z</time>
      </trkpt>
      <trkpt lat="47.28197" lon="16.00321">
        <ele>355.971093</ele>
        <time>2026-07-08T09:20:13.000Z</time>
      </trkpt>
      <trkpt lat="47.28196" lon="16.00326">
        <ele>356.199309</ele>
        <time>2026-07-08T09:20:14.000Z</time>
      </trkpt>
      <trkpt lat="47.28196" lon="16.0033">
        <ele>356.418171</ele>
        <time>2026-07-08T09:20:15.000Z</time>
      </trkpt>
      <trkpt lat="47.28195" lon="16.00334">
        <ele>356.637033</ele>
        <time>2026-07-08T09:20:16.000Z</time>
      </trkpt>
      <trkpt lat="47.28195" lon="16.00338">
        <ele>356.855895</ele>
        <time>2026-07-08T09:20:18.000Z</time>
      </trkpt>
      <trkpt lat="47.28195" lon="16.00342">
        <ele>357.071279</ele>
        <time>2026-07-08T09:20:19.000Z</time>
      </trkpt>
      <trkpt lat="47.28195" lon="16.00345">
        <ele>357.27637</ele>
        <time>2026-07-08T09:20:20.000Z</time>
      </trkpt>
      <trkpt lat="47.28194" lon="16.00349">
        <ele>357.492193</ele>
        <time>2026-07-08T09:20:21.000Z</time>
      </trkpt>
      <trkpt lat="47.28194" lon="16.00354">
        <ele>357.718332</ele>
        <time>2026-07-08T09:20:22.000Z</time>
      </trkpt>
      <trkpt lat="47.28194" lon="16.00357">
        <ele>357.922809</ele>
        <time>2026-07-08T09:20:23.000Z</time>
      </trkpt>
      <trkpt lat="47.28194" lon="16.00361">
        <ele>358.122535</ele>
        <time>2026-07-08T09:20:24.000Z</time>
      </trkpt>
      <trkpt lat="47.28194" lon="16.00364">
        <ele>358.300107</ele>
        <time>2026-07-08T09:20:25.000Z</time>
      </trkpt>
      <trkpt lat="47.28194" lon="16.00368">
        <ele>358.488441</ele>
        <time>2026-07-08T09:20:26.000Z</time>
      </trkpt>
      <trkpt lat="47.28194" lon="16.00371">
        <ele>358.676774</ele>
        <time>2026-07-08T09:20:27.000Z</time>
      </trkpt>
      <trkpt lat="47.28194" lon="16.00374">
        <ele>358.838203</ele>
        <time>2026-07-08T09:20:28.000Z</time>
      </trkpt>
      <trkpt lat="47.28194" lon="16.00378">
        <ele>359.010394</ele>
        <time>2026-07-08T09:20:29.000Z</time>
      </trkpt>
      <trkpt lat="47.28194" lon="16.00381">
        <ele>359.188673</ele>
        <time>2026-07-08T09:20:30.000Z</time>
      </trkpt>
      <trkpt lat="47.28194" lon="16.00384">
        <ele>359.371626</ele>
        <time>2026-07-08T09:20:31.000Z</time>
      </trkpt>
      <trkpt lat="47.28194" lon="16.00388">
        <ele>359.549375</ele>
        <time>2026-07-08T09:20:32.000Z</time>
      </trkpt>
      <trkpt lat="47.28193" lon="16.00391">
        <ele>359.729759</ele>
        <time>2026-07-08T09:20:33.000Z</time>
      </trkpt>
      <trkpt lat="47.28193" lon="16.00395">
        <ele>359.929012</ele>
        <time>2026-07-08T09:20:34.000Z</time>
      </trkpt>
      <trkpt lat="47.28193" lon="16.00398">
        <ele>360.106761</ele>
        <time>2026-07-08T09:20:35.000Z</time>
      </trkpt>
      <trkpt lat="47.28193" lon="16.00401">
        <ele>360.26819</ele>
        <time>2026-07-08T09:20:36.000Z</time>
      </trkpt>
      <trkpt lat="47.28193" lon="16.00404">
        <ele>360.429814</ele>
        <time>2026-07-08T09:20:37.000Z</time>
      </trkpt>
      <trkpt lat="47.28193" lon="16.00407">
        <ele>360.586063</ele>
        <time>2026-07-08T09:20:38.000Z</time>
      </trkpt>
      <trkpt lat="47.28193" lon="16.0041">
        <ele>360.736939</ele>
        <time>2026-07-08T09:20:39.000Z</time>
      </trkpt>
      <trkpt lat="47.28193" lon="16.00412">
        <ele>360.887606</ele>
        <time>2026-07-08T09:20:40.000Z</time>
      </trkpt>
      <trkpt lat="47.28193" lon="16.00415">
        <ele>361.032892</ele>
        <time>2026-07-08T09:20:41.000Z</time>
      </trkpt>
      <trkpt lat="47.28193" lon="16.00418">
        <ele>361.178178</ele>
        <time>2026-07-08T09:20:42.000Z</time>
      </trkpt>
      <trkpt lat="47.28193" lon="16.0042">
        <ele>361.312702</ele>
        <time>2026-07-08T09:20:43.000Z</time>
      </trkpt>
      <trkpt lat="47.28193" lon="16.00422">
        <ele>361.425702</ele>
        <time>2026-07-08T09:20:44.000Z</time>
      </trkpt>
      <trkpt lat="47.28193" lon="16.00424">
        <ele>361.533321</ele>
        <time>2026-07-08T09:20:45.000Z</time>
      </trkpt>
      <trkpt lat="47.28193" lon="16.00427">
        <ele>361.651968</ele>
        <time>2026-07-08T09:20:46.000Z</time>
      </trkpt>
      <trkpt lat="47.28193" lon="16.00428">
        <ele>361.74915</ele>
        <time>2026-07-08T09:20:47.000Z</time>
      </trkpt>
      <trkpt lat="47.28193" lon="16.0043">
        <ele>361.851388</ele>
        <time>2026-07-08T09:20:48.000Z</time>
      </trkpt>
      <trkpt lat="47.28193" lon="16.00432">
        <ele>361.948245</ele>
        <time>2026-07-08T09:20:49.000Z</time>
      </trkpt>
      <trkpt lat="47.28193" lon="16.00434">
        <ele>362.045103</ele>
        <time>2026-07-08T09:20:50.000Z</time>
      </trkpt>
      <trkpt lat="47.28193" lon="16.00436">
        <ele>362.157301</ele>
        <time>2026-07-08T09:20:51.000Z</time>
      </trkpt>
      <trkpt lat="47.28193" lon="16.00438">
        <ele>362.275948</ele>
        <time>2026-07-08T09:20:52.000Z</time>
      </trkpt>
      <trkpt lat="47.28193" lon="16.0044">
        <ele>362.399964</ele>
        <time>2026-07-08T09:20:53.000Z</time>
      </trkpt>
      <trkpt lat="47.28193" lon="16.00443">
        <ele>362.52935</ele>
        <time>2026-07-08T09:20:54.000Z</time>
      </trkpt>
      <trkpt lat="47.28193" lon="16.00445">
        <ele>362.643459</ele>
        <time>2026-07-08T09:20:55.000Z</time>
      </trkpt>
      <trkpt lat="47.28192" lon="16.00448">
        <ele>362.790681</ele>
        <time>2026-07-08T09:20:56.000Z</time>
      </trkpt>
      <trkpt lat="47.28192" lon="16.0045">
        <ele>362.941283</ele>
        <time>2026-07-08T09:20:57.000Z</time>
      </trkpt>
      <trkpt lat="47.28191" lon="16.00453">
        <ele>363.101855</ele>
        <time>2026-07-08T09:20:58.000Z</time>
      </trkpt>
      <trkpt lat="47.28191" lon="16.00456">
        <ele>363.274046</ele>
        <time>2026-07-08T09:20:59.000Z</time>
      </trkpt>
      <trkpt lat="47.28191" lon="16.00459">
        <ele>363.437219</ele>
        <time>2026-07-08T09:21:00.000Z</time>
      </trkpt>
      <trkpt lat="47.28191" lon="16.00462">
        <ele>363.598648</ele>
        <time>2026-07-08T09:21:01.000Z</time>
      </trkpt>
      <trkpt lat="47.28191" lon="16.00465">
        <ele>363.760077</ele>
        <time>2026-07-08T09:21:02.000Z</time>
      </trkpt>
      <trkpt lat="47.28191" lon="16.00468">
        <ele>363.89669</ele>
        <time>2026-07-08T09:21:03.000Z</time>
      </trkpt>
      <trkpt lat="47.28191" lon="16.0047">
        <ele>364.038604</ele>
        <time>2026-07-08T09:21:04.000Z</time>
      </trkpt>
      <trkpt lat="47.2819" lon="16.00473">
        <ele>364.197845</ele>
        <time>2026-07-08T09:21:05.000Z</time>
      </trkpt>
      <trkpt lat="47.2819" lon="16.00476">
        <ele>364.361018</ele>
        <time>2026-07-08T09:21:06.000Z</time>
      </trkpt>
      <trkpt lat="47.2819" lon="16.00479">
        <ele>364.523225</ele>
        <time>2026-07-08T09:21:07.000Z</time>
      </trkpt>
      <trkpt lat="47.2819" lon="16.00482">
        <ele>364.657749</ele>
        <time>2026-07-08T09:21:08.000Z</time>
      </trkpt>
      <trkpt lat="47.2819" lon="16.00484">
        <ele>364.792273</ele>
        <time>2026-07-08T09:21:09.000Z</time>
      </trkpt>
      <trkpt lat="47.2819" lon="16.00487">
        <ele>364.933075</ele>
        <time>2026-07-08T09:21:10.000Z</time>
      </trkpt>
      <trkpt lat="47.2819" lon="16.0049">
        <ele>365.078361</ele>
        <time>2026-07-08T09:21:11.000Z</time>
      </trkpt>
      <trkpt lat="47.2819" lon="16.00493">
        <ele>365.240567</ele>
        <time>2026-07-08T09:21:12.000Z</time>
      </trkpt>
      <trkpt lat="47.2819" lon="16.00495">
        <ele>365.387789</ele>
        <time>2026-07-08T09:21:13.000Z</time>
      </trkpt>
      <trkpt lat="47.28189" lon="16.00498">
        <ele>365.528038</ele>
        <time>2026-07-08T09:21:14.000Z</time>
      </trkpt>
      <trkpt lat="47.28189" lon="16.00501">
        <ele>365.683837</ele>
        <time>2026-07-08T09:21:15.000Z</time>
      </trkpt>
      <trkpt lat="47.28188" lon="16.00503">
        <ele>365.831059</ele>
        <time>2026-07-08T09:21:16.000Z</time>
      </trkpt>
      <trkpt lat="47.28188" lon="16.00506">
        <ele>365.976477</ele>
        <time>2026-07-08T09:21:17.000Z</time>
      </trkpt>
      <trkpt lat="47.28187" lon="16.00508">
        <ele>366.122009</ele>
        <time>2026-07-08T09:21:18.000Z</time>
      </trkpt>
      <trkpt lat="47.28186" lon="16.00511">
        <ele>366.29706</ele>
        <time>2026-07-08T09:21:19.000Z</time>
      </trkpt>
      <trkpt lat="47.28185" lon="16.00514">
        <ele>366.444059</ele>
        <time>2026-07-08T09:21:20.000Z</time>
      </trkpt>
      <trkpt lat="47.28184" lon="16.00516">
        <ele>366.578375</ele>
        <time>2026-07-08T09:21:21.000Z</time>
      </trkpt>
      <trkpt lat="47.28184" lon="16.00518">
        <ele>366.714021</ele>
        <time>2026-07-08T09:21:22.000Z</time>
      </trkpt>
      <trkpt lat="47.28183" lon="16.00521">
        <ele>366.862761</ele>
        <time>2026-07-08T09:21:23.000Z</time>
      </trkpt>
      <trkpt lat="47.28182" lon="16.00523">
        <ele>367.001001</ele>
        <time>2026-07-08T09:21:24.000Z</time>
      </trkpt>
      <trkpt lat="47.28181" lon="16.00525">
        <ele>367.139061</ele>
        <time>2026-07-08T09:21:25.000Z</time>
      </trkpt>
      <trkpt lat="47.2818" lon="16.00527">
        <ele>367.282952</ele>
        <time>2026-07-08T09:21:26.000Z</time>
      </trkpt>
      <trkpt lat="47.28179" lon="16.00529">
        <ele>367.408144</ele>
        <time>2026-07-08T09:21:27.000Z</time>
      </trkpt>
      <trkpt lat="47.28178" lon="16.00531">
        <ele>367.550642</ele>
        <time>2026-07-08T09:21:28.000Z</time>
      </trkpt>
      <trkpt lat="47.28178" lon="16.00534">
        <ele>367.690891</ele>
        <time>2026-07-08T09:21:29.000Z</time>
      </trkpt>
      <trkpt lat="47.28177" lon="16.00536">
        <ele>367.820489</ele>
        <time>2026-07-08T09:21:30.000Z</time>
      </trkpt>
      <trkpt lat="47.28175" lon="16.00538">
        <ele>367.971434</ele>
        <time>2026-07-08T09:21:31.000Z</time>
      </trkpt>
      <trkpt lat="47.28174" lon="16.00539">
        <ele>368.088498</ele>
        <time>2026-07-08T09:21:32.000Z</time>
      </trkpt>
      <trkpt lat="47.28173" lon="16.00541">
        <ele>368.216201</ele>
        <time>2026-07-08T09:21:33.000Z</time>
      </trkpt>
      <trkpt lat="47.28172" lon="16.00543">
        <ele>368.376631</ele>
        <time>2026-07-08T09:21:34.000Z</time>
      </trkpt>
      <trkpt lat="47.2817" lon="16.00544">
        <ele>368.523494</ele>
        <time>2026-07-08T09:21:35.000Z</time>
      </trkpt>
      <trkpt lat="47.28168" lon="16.00546">
        <ele>368.686437</ele>
        <time>2026-07-08T09:21:36.000Z</time>
      </trkpt>
      <trkpt lat="47.28167" lon="16.00548">
        <ele>368.827909</ele>
        <time>2026-07-08T09:21:37.000Z</time>
      </trkpt>
      <trkpt lat="47.28165" lon="16.0055">
        <ele>369.000433</ele>
        <time>2026-07-08T09:21:38.000Z</time>
      </trkpt>
      <trkpt lat="47.28164" lon="16.00551">
        <ele>369.150837</ele>
        <time>2026-07-08T09:21:39.000Z</time>
      </trkpt>
      <trkpt lat="47.28162" lon="16.00553">
        <ele>369.336025</ele>
        <time>2026-07-08T09:21:40.000Z</time>
      </trkpt>
      <trkpt lat="47.2816" lon="16.00555">
        <ele>369.514018</ele>
        <time>2026-07-08T09:21:41.000Z</time>
      </trkpt>
      <trkpt lat="47.28158" lon="16.00556">
        <ele>369.661678</ele>
        <time>2026-07-08T09:21:42.000Z</time>
      </trkpt>
      <trkpt lat="47.28156" lon="16.00556">
        <ele>369.806966</ele>
        <time>2026-07-08T09:21:43.000Z</time>
      </trkpt>
      <trkpt lat="47.28154" lon="16.00557">
        <ele>369.978243</ele>
        <time>2026-07-08T09:21:44.000Z</time>
      </trkpt>
      <trkpt lat="47.28152" lon="16.00558">
        <ele>370.140194</ele>
        <time>2026-07-08T09:21:45.000Z</time>
      </trkpt>
      <trkpt lat="47.2815" lon="16.00559">
        <ele>370.294548</ele>
        <time>2026-07-08T09:21:46.000Z</time>
      </trkpt>
      <trkpt lat="47.28149" lon="16.0056">
        <ele>370.444808</ele>
        <time>2026-07-08T09:21:47.000Z</time>
      </trkpt>
      <trkpt lat="47.28147" lon="16.00561">
        <ele>370.595069</ele>
        <time>2026-07-08T09:21:48.000Z</time>
      </trkpt>
      <trkpt lat="47.28145" lon="16.00562">
        <ele>370.760041</ele>
        <time>2026-07-08T09:21:49.000Z</time>
      </trkpt>
      <trkpt lat="47.28143" lon="16.00563">
        <ele>370.943281</ele>
        <time>2026-07-08T09:21:50.000Z</time>
      </trkpt>
      <trkpt lat="47.28141" lon="16.00564">
        <ele>371.111956</ele>
        <time>2026-07-08T09:21:51.000Z</time>
      </trkpt>
      <trkpt lat="47.28139" lon="16.00566">
        <ele>371.2827</ele>
        <time>2026-07-08T09:21:52.000Z</time>
      </trkpt>
      <trkpt lat="47.28137" lon="16.00567">
        <ele>371.457988</ele>
        <time>2026-07-08T09:21:53.000Z</time>
      </trkpt>
      <trkpt lat="47.28135" lon="16.00569">
        <ele>371.624979</ele>
        <time>2026-07-08T09:21:54.000Z</time>
      </trkpt>
      <trkpt lat="47.28133" lon="16.0057">
        <ele>371.795908</ele>
        <time>2026-07-08T09:21:55.000Z</time>
      </trkpt>
      <trkpt lat="47.28131" lon="16.00572">
        <ele>371.949975</ele>
        <time>2026-07-08T09:21:56.000Z</time>
      </trkpt>
      <trkpt lat="47.28129" lon="16.00575">
        <ele>372.14892</ele>
        <time>2026-07-08T09:21:57.000Z</time>
      </trkpt>
      <trkpt lat="47.28128" lon="16.00577">
        <ele>372.31799</ele>
        <time>2026-07-08T09:21:58.000Z</time>
      </trkpt>
      <trkpt lat="47.28127" lon="16.0058">
        <ele>372.493445</ele>
        <time>2026-07-08T09:21:59.000Z</time>
      </trkpt>
      <trkpt lat="47.28126" lon="16.00582">
        <ele>372.65646</ele>
        <time>2026-07-08T09:22:00.000Z</time>
      </trkpt>
      <trkpt lat="47.28125" lon="16.00585">
        <ele>372.814594</ele>
        <time>2026-07-08T09:22:01.000Z</time>
      </trkpt>
      <trkpt lat="47.28124" lon="16.00588">
        <ele>372.968029</ele>
        <time>2026-07-08T09:22:02.000Z</time>
      </trkpt>
      <trkpt lat="47.28124" lon="16.00591">
        <ele>373.123485</ele>
        <time>2026-07-08T09:22:03.000Z</time>
      </trkpt>
      <trkpt lat="47.28124" lon="16.00594">
        <ele>373.272685</ele>
        <time>2026-07-08T09:22:04.000Z</time>
      </trkpt>
      <trkpt lat="47.28124" lon="16.00596">
        <ele>373.421885</ele>
        <time>2026-07-08T09:22:05.000Z</time>
      </trkpt>
      <trkpt lat="47.28124" lon="16.00599">
        <ele>373.577341</ele>
        <time>2026-07-08T09:22:06.000Z</time>
      </trkpt>
      <trkpt lat="47.28125" lon="16.00602">
        <ele>373.725576</ele>
        <time>2026-07-08T09:22:07.000Z</time>
      </trkpt>
      <trkpt lat="47.28126" lon="16.00605">
        <ele>373.881708</ele>
        <time>2026-07-08T09:22:08.000Z</time>
      </trkpt>
      <trkpt lat="47.28127" lon="16.00607">
        <ele>374.034881</ele>
        <time>2026-07-08T09:22:09.000Z</time>
      </trkpt>
      <trkpt lat="47.28127" lon="16.0061">
        <ele>374.186172</ele>
        <time>2026-07-08T09:22:10.000Z</time>
      </trkpt>
      <trkpt lat="47.28128" lon="16.00612">
        <ele>374.336152</ele>
        <time>2026-07-08T09:22:11.000Z</time>
      </trkpt>
      <trkpt lat="47.28129" lon="16.00615">
        <ele>374.461805</ele>
        <time>2026-07-08T09:22:12.000Z</time>
      </trkpt>
      <trkpt lat="47.2813" lon="16.00617">
        <ele>374.590575</ele>
        <time>2026-07-08T09:22:13.000Z</time>
      </trkpt>
      <trkpt lat="47.2813" lon="16.00619">
        <ele>374.718205</ele>
        <time>2026-07-08T09:22:14.000Z</time>
      </trkpt>
      <trkpt lat="47.28131" lon="16.00621">
        <ele>374.863526</ele>
        <time>2026-07-08T09:22:15.000Z</time>
      </trkpt>
      <trkpt lat="47.28132" lon="16.00624">
        <ele>375.012652</ele>
        <time>2026-07-08T09:22:16.000Z</time>
      </trkpt>
      <trkpt lat="47.28134" lon="16.00626">
        <ele>375.164944</ele>
        <time>2026-07-08T09:22:17.000Z</time>
      </trkpt>
      <trkpt lat="47.28135" lon="16.00627">
        <ele>375.312744</ele>
        <time>2026-07-08T09:22:18.000Z</time>
      </trkpt>
      <trkpt lat="47.28137" lon="16.00629">
        <ele>375.460863</ele>
        <time>2026-07-08T09:22:19.000Z</time>
      </trkpt>
      <trkpt lat="47.28139" lon="16.0063">
        <ele>375.62449</ele>
        <time>2026-07-08T09:22:20.000Z</time>
      </trkpt>
      <trkpt lat="47.28141" lon="16.00631">
        <ele>375.778808</ele>
        <time>2026-07-08T09:22:21.000Z</time>
      </trkpt>
      <trkpt lat="47.28142" lon="16.00633">
        <ele>375.933575</ele>
        <time>2026-07-08T09:22:22.000Z</time>
      </trkpt>
      <trkpt lat="47.28144" lon="16.00634">
        <ele>376.081694</ele>
        <time>2026-07-08T09:22:23.000Z</time>
      </trkpt>
      <trkpt lat="47.28145" lon="16.00636">
        <ele>376.217617</ele>
        <time>2026-07-08T09:22:24.000Z</time>
      </trkpt>
      <trkpt lat="47.28147" lon="16.00637">
        <ele>376.367218</ele>
        <time>2026-07-08T09:22:25.000Z</time>
      </trkpt>
      <trkpt lat="47.28149" lon="16.00638">
        <ele>376.519331</ele>
        <time>2026-07-08T09:22:26.000Z</time>
      </trkpt>
      <trkpt lat="47.2815" lon="16.0064">
        <ele>376.660921</ele>
        <time>2026-07-08T09:22:27.000Z</time>
      </trkpt>
      <trkpt lat="47.28152" lon="16.00641">
        <ele>376.805552</ele>
        <time>2026-07-08T09:22:28.000Z</time>
      </trkpt>
      <trkpt lat="47.28153" lon="16.00643">
        <ele>376.947142</ele>
        <time>2026-07-08T09:22:29.000Z</time>
      </trkpt>
      <trkpt lat="47.28155" lon="16.00644">
        <ele>377.088732</ele>
        <time>2026-07-08T09:22:30.000Z</time>
      </trkpt>
      <trkpt lat="47.28156" lon="16.00646">
        <ele>377.217692</ele>
        <time>2026-07-08T09:22:31.000Z</time>
      </trkpt>
      <trkpt lat="47.28157" lon="16.00648">
        <ele>377.353441</ele>
        <time>2026-07-08T09:22:32.000Z</time>
      </trkpt>
      <trkpt lat="47.28159" lon="16.00649">
        <ele>377.489364</ele>
        <time>2026-07-08T09:22:33.000Z</time>
      </trkpt>
      <trkpt lat="47.28161" lon="16.0065">
        <ele>377.632342</ele>
        <time>2026-07-08T09:22:34.000Z</time>
      </trkpt>
      <trkpt lat="47.28162" lon="16.00651">
        <ele>377.779577</ele>
        <time>2026-07-08T09:22:35.000Z</time>
      </trkpt>
      <trkpt lat="47.28164" lon="16.00652">
        <ele>377.91533</ele>
        <time>2026-07-08T09:22:36.000Z</time>
      </trkpt>
      <trkpt lat="47.28165" lon="16.00653">
        <ele>378.051254</ele>
        <time>2026-07-08T09:22:37.000Z</time>
      </trkpt>
      <trkpt lat="47.28167" lon="16.00655">
        <ele>378.189938</ele>
        <time>2026-07-08T09:22:38.000Z</time>
      </trkpt>
      <trkpt lat="47.28169" lon="16.00656">
        <ele>378.344705</ele>
        <time>2026-07-08T09:22:39.000Z</time>
      </trkpt>
      <trkpt lat="47.2817" lon="16.00658">
        <ele>378.499472</ele>
        <time>2026-07-08T09:22:40.000Z</time>
      </trkpt>
      <trkpt lat="47.28172" lon="16.0066">
        <ele>378.661068</ele>
        <time>2026-07-08T09:22:41.000Z</time>
      </trkpt>
      <trkpt lat="47.28173" lon="16.00662">
        <ele>378.815677</ele>
        <time>2026-07-08T09:22:42.000Z</time>
      </trkpt>
      <trkpt lat="47.28174" lon="16.00664">
        <ele>378.954999</ele>
        <time>2026-07-08T09:22:43.000Z</time>
      </trkpt>
      <trkpt lat="47.28176" lon="16.00666">
        <ele>379.107289</ele>
        <time>2026-07-08T09:22:44.000Z</time>
      </trkpt>
      <trkpt lat="47.28177" lon="16.00668">
        <ele>379.247623</ele>
        <time>2026-07-08T09:22:45.000Z</time>
      </trkpt>
      <trkpt lat="47.28178" lon="16.0067">
        <ele>379.392389</ele>
        <time>2026-07-08T09:22:46.000Z</time>
      </trkpt>
      <trkpt lat="47.28179" lon="16.00673">
        <ele>379.54852</ele>
        <time>2026-07-08T09:22:47.000Z</time>
      </trkpt>
      <trkpt lat="47.28179" lon="16.00676">
        <ele>379.696834</ele>
        <time>2026-07-08T09:22:48.000Z</time>
      </trkpt>
      <trkpt lat="47.28179" lon="16.00678">
        <ele>379.831372</ele>
        <time>2026-07-08T09:22:49.000Z</time>
      </trkpt>
      <trkpt lat="47.2818" lon="16.00681">
        <ele>379.98057</ele>
        <time>2026-07-08T09:22:50.000Z</time>
      </trkpt>
      <trkpt lat="47.2818" lon="16.00684">
        <ele>380.1245</ele>
        <time>2026-07-08T09:22:51.000Z</time>
      </trkpt>
      <trkpt lat="47.2818" lon="16.00686">
        <ele>380.26228</ele>
        <time>2026-07-08T09:22:52.000Z</time>
      </trkpt>
      <trkpt lat="47.2818" lon="16.00689">
        <ele>380.40621</ele>
        <time>2026-07-08T09:22:53.000Z</time>
      </trkpt>
      <trkpt lat="47.28179" lon="16.00692">
        <ele>380.540747</ele>
        <time>2026-07-08T09:22:54.000Z</time>
      </trkpt>
      <trkpt lat="47.28179" lon="16.00694">
        <ele>380.684677</ele>
        <time>2026-07-08T09:22:55.000Z</time>
      </trkpt>
      <trkpt lat="47.28179" lon="16.00697">
        <ele>380.834894</ele>
        <time>2026-07-08T09:22:56.000Z</time>
      </trkpt>
      <trkpt lat="47.28178" lon="16.007">
        <ele>380.988327</ele>
        <time>2026-07-08T09:22:57.000Z</time>
      </trkpt>
      <trkpt lat="47.28178" lon="16.00703">
        <ele>381.151443</ele>
        <time>2026-07-08T09:22:58.000Z</time>
      </trkpt>
      <trkpt lat="47.28177" lon="16.00705">
        <ele>381.299677</ele>
        <time>2026-07-08T09:22:59.000Z</time>
      </trkpt>
      <trkpt lat="47.28177" lon="16.00708">
        <ele>381.444663</ele>
        <time>2026-07-08T09:23:00.000Z</time>
      </trkpt>
      <trkpt lat="47.28176" lon="16.00711">
        <ele>381.589648</ele>
        <time>2026-07-08T09:23:01.000Z</time>
      </trkpt>
      <trkpt lat="47.28176" lon="16.00714">
        <ele>381.741281</ele>
        <time>2026-07-08T09:23:02.000Z</time>
      </trkpt>
      <trkpt lat="47.28175" lon="16.00716">
        <ele>381.879399</ele>
        <time>2026-07-08T09:23:03.000Z</time>
      </trkpt>
      <trkpt lat="47.28175" lon="16.00719">
        <ele>382.019927</ele>
        <time>2026-07-08T09:23:04.000Z</time>
      </trkpt>
      <trkpt lat="47.28174" lon="16.00721">
        <ele>382.179345</ele>
        <time>2026-07-08T09:23:05.000Z</time>
      </trkpt>
      <trkpt lat="47.28173" lon="16.00724">
        <ele>382.333141</ele>
        <time>2026-07-08T09:23:06.000Z</time>
      </trkpt>
      <trkpt lat="47.28172" lon="16.00727">
        <ele>382.494142</ele>
        <time>2026-07-08T09:23:07.000Z</time>
      </trkpt>
      <trkpt lat="47.28171" lon="16.0073">
        <ele>382.678697</ele>
        <time>2026-07-08T09:23:08.000Z</time>
      </trkpt>
      <trkpt lat="47.2817" lon="16.00733">
        <ele>382.842401</ele>
        <time>2026-07-08T09:23:09.000Z</time>
      </trkpt>
      <trkpt lat="47.2817" lon="16.00736">
        <ele>383.029349</ele>
        <time>2026-07-08T09:23:10.000Z</time>
      </trkpt>
      <trkpt lat="47.2817" lon="16.00739">
        <ele>383.205787</ele>
        <time>2026-07-08T09:23:11.000Z</time>
      </trkpt>
      <trkpt lat="47.2817" lon="16.00743">
        <ele>383.376081</ele>
        <time>2026-07-08T09:23:12.000Z</time>
      </trkpt>
      <trkpt lat="47.28169" lon="16.00746">
        <ele>383.536776</ele>
        <time>2026-07-08T09:23:13.000Z</time>
      </trkpt>
      <trkpt lat="47.28169" lon="16.00748">
        <ele>383.69021</ele>
        <time>2026-07-08T09:23:14.000Z</time>
      </trkpt>
      <trkpt lat="47.28168" lon="16.00751">
        <ele>383.859205</ele>
        <time>2026-07-08T09:23:15.000Z</time>
      </trkpt>
      <trkpt lat="47.28167" lon="16.00754">
        <ele>384.02291</ele>
        <time>2026-07-08T09:23:16.000Z</time>
      </trkpt>
      <trkpt lat="47.28167" lon="16.00757">
        <ele>384.073612</ele>
        <time>2026-07-08T09:23:17.000Z</time>
      </trkpt>
      <trkpt lat="47.28166" lon="16.0076">
        <ele>384.120502</ele>
        <time>2026-07-08T09:23:18.000Z</time>
      </trkpt>
      <trkpt lat="47.28166" lon="16.00763">
        <ele>384.163297</ele>
        <time>2026-07-08T09:23:19.000Z</time>
      </trkpt>
      <trkpt lat="47.28165" lon="16.00766">
        <ele>384.211832</ele>
        <time>2026-07-08T09:23:20.000Z</time>
      </trkpt>
      <trkpt lat="47.28164" lon="16.00769">
        <ele>384.262936</ele>
        <time>2026-07-08T09:23:21.000Z</time>
      </trkpt>
      <trkpt lat="47.28164" lon="16.00772">
        <ele>384.310579</ele>
        <time>2026-07-08T09:23:22.000Z</time>
      </trkpt>
      <trkpt lat="47.28163" lon="16.00776">
        <ele>384.360985</ele>
        <time>2026-07-08T09:23:23.000Z</time>
      </trkpt>
      <trkpt lat="47.28162" lon="16.00779">
        <ele>384.407876</ele>
        <time>2026-07-08T09:23:24.000Z</time>
      </trkpt>
      <trkpt lat="47.28161" lon="16.00782">
        <ele>384.458979</ele>
        <time>2026-07-08T09:23:25.000Z</time>
      </trkpt>
      <trkpt lat="47.28161" lon="16.00785">
        <ele>384.506623</ele>
        <time>2026-07-08T09:23:26.000Z</time>
      </trkpt>
      <trkpt lat="47.2816" lon="16.00788">
        <ele>384.554267</ele>
        <time>2026-07-08T09:23:27.000Z</time>
      </trkpt>
      <trkpt lat="47.28159" lon="16.00791">
        <ele>384.605467</ele>
        <time>2026-07-08T09:23:28.000Z</time>
      </trkpt>
      <trkpt lat="47.28158" lon="16.00794">
        <ele>384.654537</ele>
        <time>2026-07-08T09:23:29.000Z</time>
      </trkpt>
      <trkpt lat="47.28158" lon="16.00797">
        <ele>384.701428</ele>
        <time>2026-07-08T09:23:30.000Z</time>
      </trkpt>
      <trkpt lat="47.28157" lon="16.008">
        <ele>384.748318</ele>
        <time>2026-07-08T09:23:31.000Z</time>
      </trkpt>
      <trkpt lat="47.28156" lon="16.00803">
        <ele>384.795962</ele>
        <time>2026-07-08T09:23:32.000Z</time>
      </trkpt>
      <trkpt lat="47.28155" lon="16.00806">
        <ele>384.842852</ele>
        <time>2026-07-08T09:23:33.000Z</time>
      </trkpt>
      <trkpt lat="47.28155" lon="16.00809">
        <ele>384.890499</ele>
        <time>2026-07-08T09:23:34.000Z</time>
      </trkpt>
      <trkpt lat="47.28154" lon="16.00813">
        <ele>384.940194</ele>
        <time>2026-07-08T09:23:35.000Z</time>
      </trkpt>
      <trkpt lat="47.28154" lon="16.00816">
        <ele>384.98873</ele>
        <time>2026-07-08T09:23:36.000Z</time>
      </trkpt>
      <trkpt lat="47.28153" lon="16.00819">
        <ele>385.031524</ele>
        <time>2026-07-08T09:23:37.000Z</time>
      </trkpt>
      <trkpt lat="47.28152" lon="16.00821">
        <ele>385.07563</ele>
        <time>2026-07-08T09:23:38.000Z</time>
      </trkpt>
      <trkpt lat="47.28152" lon="16.00824">
        <ele>385.121857</ele>
        <time>2026-07-08T09:23:39.000Z</time>
      </trkpt>
      <trkpt lat="47.28151" lon="16.00827">
        <ele>385.167517</ele>
        <time>2026-07-08T09:23:40.000Z</time>
      </trkpt>
      <trkpt lat="47.28151" lon="16.00831">
        <ele>385.21561</ele>
        <time>2026-07-08T09:23:41.000Z</time>
      </trkpt>
      <trkpt lat="47.28151" lon="16.00834">
        <ele>385.263357</ele>
        <time>2026-07-08T09:23:42.000Z</time>
      </trkpt>
      <trkpt lat="47.2815" lon="16.00837">
        <ele>385.312568</ele>
        <time>2026-07-08T09:23:43.000Z</time>
      </trkpt>
      <trkpt lat="47.2815" lon="16.0084">
        <ele>385.362115</ele>
        <time>2026-07-08T09:23:44.000Z</time>
      </trkpt>
      <trkpt lat="47.28149" lon="16.00844">
        <ele>385.413536</ele>
        <time>2026-07-08T09:23:45.000Z</time>
      </trkpt>
      <trkpt lat="47.28149" lon="16.00847">
        <ele>385.461183</ele>
        <time>2026-07-08T09:23:46.000Z</time>
      </trkpt>
      <trkpt lat="47.28148" lon="16.0085">
        <ele>385.510878</ele>
        <time>2026-07-08T09:23:47.000Z</time>
      </trkpt>
      <trkpt lat="47.28147" lon="16.00853">
        <ele>385.557768</ele>
        <time>2026-07-08T09:23:48.000Z</time>
      </trkpt>
      <trkpt lat="47.28147" lon="16.00856">
        <ele>385.608175</ele>
        <time>2026-07-08T09:23:49.000Z</time>
      </trkpt>
      <trkpt lat="47.28145" lon="16.00859">
        <ele>385.660928</ele>
        <time>2026-07-08T09:23:50.000Z</time>
      </trkpt>
      <trkpt lat="47.28144" lon="16.00863">
        <ele>385.713002</ele>
        <time>2026-07-08T09:23:51.000Z</time>
      </trkpt>
      <trkpt lat="47.28143" lon="16.00866">
        <ele>385.765076</ele>
        <time>2026-07-08T09:23:52.000Z</time>
      </trkpt>
      <trkpt lat="47.28143" lon="16.00869">
        <ele>385.814098</ele>
        <time>2026-07-08T09:23:53.000Z</time>
      </trkpt>
      <trkpt lat="47.28142" lon="16.00872">
        <ele>385.864505</ele>
        <time>2026-07-08T09:23:54.000Z</time>
      </trkpt>
      <trkpt lat="47.28141" lon="16.00875">
        <ele>385.915609</ele>
        <time>2026-07-08T09:23:55.000Z</time>
      </trkpt>
      <trkpt lat="47.2814" lon="16.00879">
        <ele>385.966015</ele>
        <time>2026-07-08T09:23:56.000Z</time>
      </trkpt>
      <trkpt lat="47.2814" lon="16.00882">
        <ele>386.017119</ele>
        <time>2026-07-08T09:23:57.000Z</time>
      </trkpt>
      <trkpt lat="47.28139" lon="16.00885">
        <ele>386.066814</ele>
        <time>2026-07-08T09:23:58.000Z</time>
      </trkpt>
      <trkpt lat="47.28138" lon="16.00888">
        <ele>386.118888</ele>
        <time>2026-07-08T09:23:59.000Z</time>
      </trkpt>
      <trkpt lat="47.28137" lon="16.00891">
        <ele>386.169623</ele>
        <time>2026-07-08T09:24:00.000Z</time>
      </trkpt>
      <trkpt lat="47.28136" lon="16.00895">
        <ele>386.222813</ele>
        <time>2026-07-08T09:24:01.000Z</time>
      </trkpt>
      <trkpt lat="47.28135" lon="16.00898">
        <ele>386.277402</ele>
        <time>2026-07-08T09:24:02.000Z</time>
      </trkpt>
      <trkpt lat="47.28134" lon="16.00902">
        <ele>386.334109</ele>
        <time>2026-07-08T09:24:03.000Z</time>
      </trkpt>
      <trkpt lat="47.28134" lon="16.00905">
        <ele>386.388698</ele>
        <time>2026-07-08T09:24:04.000Z</time>
      </trkpt>
      <trkpt lat="47.28133" lon="16.00909">
        <ele>386.448919</ele>
        <time>2026-07-08T09:24:05.000Z</time>
      </trkpt>
      <trkpt lat="47.28132" lon="16.00913">
        <ele>386.505626</ele>
        <time>2026-07-08T09:24:06.000Z</time>
      </trkpt>
      <trkpt lat="47.28131" lon="16.00917">
        <ele>386.56725</ele>
        <time>2026-07-08T09:24:07.000Z</time>
      </trkpt>
      <trkpt lat="47.2813" lon="16.00921">
        <ele>386.627799</ele>
        <time>2026-07-08T09:24:08.000Z</time>
      </trkpt>
      <trkpt lat="47.28129" lon="16.00925">
        <ele>386.688042</ele>
        <time>2026-07-08T09:24:09.000Z</time>
      </trkpt>
      <trkpt lat="47.28128" lon="16.00928">
        <ele>386.749995</ele>
        <time>2026-07-08T09:24:10.000Z</time>
      </trkpt>
      <trkpt lat="47.28127" lon="16.00932">
        <ele>386.811618</ele>
        <time>2026-07-08T09:24:11.000Z</time>
      </trkpt>
      <trkpt lat="47.28126" lon="16.00936">
        <ele>386.871861</ele>
        <time>2026-07-08T09:24:12.000Z</time>
      </trkpt>
      <trkpt lat="47.28125" lon="16.0094">
        <ele>386.93487</ele>
        <time>2026-07-08T09:24:13.000Z</time>
      </trkpt>
      <trkpt lat="47.28124" lon="16.00944">
        <ele>386.997878</ele>
        <time>2026-07-08T09:24:14.000Z</time>
      </trkpt>
      <trkpt lat="47.28123" lon="16.00948">
        <ele>387.06378</ele>
        <time>2026-07-08T09:24:15.000Z</time>
      </trkpt>
      <trkpt lat="47.28122" lon="16.00953">
        <ele>387.132366</ele>
        <time>2026-07-08T09:24:16.000Z</time>
      </trkpt>
      <trkpt lat="47.28121" lon="16.00957">
        <ele>387.199553</ele>
        <time>2026-07-08T09:24:17.000Z</time>
      </trkpt>
      <trkpt lat="47.2812" lon="16.00962">
        <ele>387.271735</ele>
        <time>2026-07-08T09:24:18.000Z</time>
      </trkpt>
      <trkpt lat="47.2812" lon="16.00966">
        <ele>387.341923</ele>
        <time>2026-07-08T09:24:19.000Z</time>
      </trkpt>
      <trkpt lat="47.28118" lon="16.00971">
        <ele>387.418922</ele>
        <time>2026-07-08T09:24:20.000Z</time>
      </trkpt>
      <trkpt lat="47.28117" lon="16.00976">
        <ele>387.490317</ele>
        <time>2026-07-08T09:24:21.000Z</time>
      </trkpt>
      <trkpt lat="47.28117" lon="16.00981">
        <ele>387.566247</ele>
        <time>2026-07-08T09:24:22.000Z</time>
      </trkpt>
      <trkpt lat="47.28116" lon="16.00986">
        <ele>387.643294</ele>
        <time>2026-07-08T09:24:23.000Z</time>
      </trkpt>
      <trkpt lat="47.28115" lon="16.00991">
        <ele>387.72318</ele>
        <time>2026-07-08T09:24:24.000Z</time>
      </trkpt>
      <trkpt lat="47.28114" lon="16.00997">
        <ele>387.80632</ele>
        <time>2026-07-08T09:24:25.000Z</time>
      </trkpt>
      <trkpt lat="47.28113" lon="16.01002">
        <ele>387.889031</ele>
        <time>2026-07-08T09:24:26.000Z</time>
      </trkpt>
      <trkpt lat="47.28112" lon="16.01008">
        <ele>387.930107</ele>
        <time>2026-07-08T09:24:27.000Z</time>
      </trkpt>
      <trkpt lat="47.28112" lon="16.01014">
        <ele>387.849179</ele>
        <time>2026-07-08T09:24:28.000Z</time>
      </trkpt>
      <trkpt lat="47.28111" lon="16.01019">
        <ele>387.767872</ele>
        <time>2026-07-08T09:24:29.000Z</time>
      </trkpt>
      <trkpt lat="47.2811" lon="16.01025">
        <ele>387.682996</ele>
        <time>2026-07-08T09:24:30.000Z</time>
      </trkpt>
      <trkpt lat="47.28109" lon="16.01032">
        <ele>387.594425</ele>
        <time>2026-07-08T09:24:31.000Z</time>
      </trkpt>
      <trkpt lat="47.28107" lon="16.01038">
        <ele>387.503965</ele>
        <time>2026-07-08T09:24:32.000Z</time>
      </trkpt>
      <trkpt lat="47.28106" lon="16.01044">
        <ele>387.412749</ele>
        <time>2026-07-08T09:24:33.000Z</time>
      </trkpt>
      <trkpt lat="47.28105" lon="16.01051">
        <ele>387.318337</ele>
        <time>2026-07-08T09:24:34.000Z</time>
      </trkpt>
      <trkpt lat="47.28104" lon="16.01058">
        <ele>387.220484</ele>
        <time>2026-07-08T09:24:35.000Z</time>
      </trkpt>
      <trkpt lat="47.28102" lon="16.01064">
        <ele>387.127391</ele>
        <time>2026-07-08T09:24:36.000Z</time>
      </trkpt>
      <trkpt lat="47.28101" lon="16.01071">
        <ele>387.032395</ele>
        <time>2026-07-08T09:24:37.000Z</time>
      </trkpt>
      <trkpt lat="47.28099" lon="16.01078">
        <ele>386.931549</ele>
        <time>2026-07-08T09:24:38.000Z</time>
      </trkpt>
      <trkpt lat="47.28098" lon="16.01085">
        <ele>386.822261</ele>
        <time>2026-07-08T09:24:39.000Z</time>
      </trkpt>
      <trkpt lat="47.28096" lon="16.01093">
        <ele>386.709565</ele>
        <time>2026-07-08T09:24:40.000Z</time>
      </trkpt>
      <trkpt lat="47.28095" lon="16.01102">
        <ele>386.591567</ele>
        <time>2026-07-08T09:24:41.000Z</time>
      </trkpt>
      <trkpt lat="47.28093" lon="16.0111">
        <ele>386.468259</ele>
        <time>2026-07-08T09:24:42.000Z</time>
      </trkpt>
      <trkpt lat="47.28092" lon="16.01119">
        <ele>386.342631</ele>
        <time>2026-07-08T09:24:43.000Z</time>
      </trkpt>
      <trkpt lat="47.28091" lon="16.01129">
        <ele>386.210424</ele>
        <time>2026-07-08T09:24:44.000Z</time>
      </trkpt>
      <trkpt lat="47.2809" lon="16.01138">
        <ele>386.078356</ele>
        <time>2026-07-08T09:24:45.000Z</time>
      </trkpt>
      <trkpt lat="47.28089" lon="16.01148">
        <ele>385.947458</ele>
        <time>2026-07-08T09:24:46.000Z</time>
      </trkpt>
      <trkpt lat="47.2809" lon="16.01157">
        <ele>385.816184</ele>
        <time>2026-07-08T09:24:47.000Z</time>
      </trkpt>
      <trkpt lat="47.28091" lon="16.01167">
        <ele>385.685742</ele>
        <time>2026-07-08T09:24:48.000Z</time>
      </trkpt>
      <trkpt lat="47.28093" lon="16.01176">
        <ele>385.55363</ele>
        <time>2026-07-08T09:24:49.000Z</time>
      </trkpt>
      <trkpt lat="47.28095" lon="16.01185">
        <ele>385.424732</ele>
        <time>2026-07-08T09:24:50.000Z</time>
      </trkpt>
      <trkpt lat="47.28097" lon="16.01194">
        <ele>385.293325</ele>
        <time>2026-07-08T09:24:51.000Z</time>
      </trkpt>
      <trkpt lat="47.28099" lon="16.01203">
        <ele>385.163198</ele>
        <time>2026-07-08T09:24:52.000Z</time>
      </trkpt>
      <trkpt lat="47.28101" lon="16.01212">
        <ele>385.036933</ele>
        <time>2026-07-08T09:24:53.000Z</time>
      </trkpt>
      <trkpt lat="47.28102" lon="16.01221">
        <ele>384.910524</ele>
        <time>2026-07-08T09:24:54.000Z</time>
      </trkpt>
      <trkpt lat="47.28104" lon="16.01229">
        <ele>384.787692</ele>
        <time>2026-07-08T09:24:55.000Z</time>
      </trkpt>
      <trkpt lat="47.28105" lon="16.01238">
        <ele>384.668445</ele>
        <time>2026-07-08T09:24:56.000Z</time>
      </trkpt>
      <trkpt lat="47.28105" lon="16.01247">
        <ele>384.548091</ele>
        <time>2026-07-08T09:24:57.000Z</time>
      </trkpt>
      <trkpt lat="47.28105" lon="16.01255">
        <ele>384.431323</ele>
        <time>2026-07-08T09:24:58.000Z</time>
      </trkpt>
      <trkpt lat="47.28105" lon="16.01263">
        <ele>384.317787</ele>
        <time>2026-07-08T09:24:59.000Z</time>
      </trkpt>
      <trkpt lat="47.28104" lon="16.01271">
        <ele>384.424765</ele>
        <time>2026-07-08T09:25:00.000Z</time>
      </trkpt>
      <trkpt lat="47.28102" lon="16.01279">
        <ele>384.551871</ele>
        <time>2026-07-08T09:25:01.000Z</time>
      </trkpt>
      <trkpt lat="47.28101" lon="16.01287">
        <ele>384.672453</ele>
        <time>2026-07-08T09:25:02.000Z</time>
      </trkpt>
      <trkpt lat="47.281" lon="16.01294">
        <ele>384.788536</ele>
        <time>2026-07-08T09:25:03.000Z</time>
      </trkpt>
      <trkpt lat="47.281" lon="16.01302">
        <ele>384.901415</ele>
        <time>2026-07-08T09:25:04.000Z</time>
      </trkpt>
      <trkpt lat="47.28099" lon="16.01309">
        <ele>385.012277</ele>
        <time>2026-07-08T09:25:05.000Z</time>
      </trkpt>
      <trkpt lat="47.281" lon="16.01316">
        <ele>385.120065</ele>
        <time>2026-07-08T09:25:06.000Z</time>
      </trkpt>
      <trkpt lat="47.281" lon="16.01323">
        <ele>385.228353</ele>
        <time>2026-07-08T09:25:07.000Z</time>
      </trkpt>
      <trkpt lat="47.28101" lon="16.01329">
        <ele>385.331499</ele>
        <time>2026-07-08T09:25:08.000Z</time>
      </trkpt>
      <trkpt lat="47.28102" lon="16.01336">
        <ele>385.435791</ele>
        <time>2026-07-08T09:25:09.000Z</time>
      </trkpt>
      <trkpt lat="47.28102" lon="16.01343">
        <ele>385.541604</ele>
        <time>2026-07-08T09:25:10.000Z</time>
      </trkpt>
      <trkpt lat="47.28103" lon="16.0135">
        <ele>385.645575</ele>
        <time>2026-07-08T09:25:11.000Z</time>
      </trkpt>
      <trkpt lat="47.28104" lon="16.01356">
        <ele>385.749868</ele>
        <time>2026-07-08T09:25:12.000Z</time>
      </trkpt>
      <trkpt lat="47.28104" lon="16.01363">
        <ele>385.85112</ele>
        <time>2026-07-08T09:25:13.000Z</time>
      </trkpt>
      <trkpt lat="47.28105" lon="16.01369">
        <ele>385.948704</ele>
        <time>2026-07-08T09:25:14.000Z</time>
      </trkpt>
      <trkpt lat="47.28105" lon="16.01375">
        <ele>386.045054</ele>
        <time>2026-07-08T09:25:15.000Z</time>
      </trkpt>
      <trkpt lat="47.28106" lon="16.01381">
        <ele>386.138717</ele>
        <time>2026-07-08T09:25:16.000Z</time>
      </trkpt>
      <trkpt lat="47.28107" lon="16.01387">
        <ele>386.232379</ele>
        <time>2026-07-08T09:25:17.000Z</time>
      </trkpt>
      <trkpt lat="47.28107" lon="16.01393">
        <ele>386.322641</ele>
        <time>2026-07-08T09:25:18.000Z</time>
      </trkpt>
      <trkpt lat="47.28108" lon="16.01399">
        <ele>386.415394</ele>
        <time>2026-07-08T09:25:19.000Z</time>
      </trkpt>
      <trkpt lat="47.28108" lon="16.01405">
        <ele>386.508395</ele>
        <time>2026-07-08T09:25:20.000Z</time>
      </trkpt>
      <trkpt lat="47.28109" lon="16.01411">
        <ele>386.598657</ele>
        <time>2026-07-08T09:25:21.000Z</time>
      </trkpt>
      <trkpt lat="47.2811" lon="16.01417">
        <ele>386.688693</ele>
        <time>2026-07-08T09:25:22.000Z</time>
      </trkpt>
      <trkpt lat="47.28111" lon="16.01422">
        <ele>386.778243</ele>
        <time>2026-07-08T09:25:23.000Z</time>
      </trkpt>
      <trkpt lat="47.28111" lon="16.01428">
        <ele>386.868191</ele>
        <time>2026-07-08T09:25:24.000Z</time>
      </trkpt>
      <trkpt lat="47.28112" lon="16.01434">
        <ele>386.958139</ele>
        <time>2026-07-08T09:25:25.000Z</time>
      </trkpt>
      <trkpt lat="47.28112" lon="16.0144">
        <ele>387.046561</ele>
        <time>2026-07-08T09:25:26.000Z</time>
      </trkpt>
      <trkpt lat="47.28113" lon="16.01445">
        <ele>387.136509</ele>
        <time>2026-07-08T09:25:27.000Z</time>
      </trkpt>
      <trkpt lat="47.28113" lon="16.01451">
        <ele>387.225627</ele>
        <time>2026-07-08T09:25:28.000Z</time>
      </trkpt>
      <trkpt lat="47.28114" lon="16.01457">
        <ele>387.310998</ele>
        <time>2026-07-08T09:25:29.000Z</time>
      </trkpt>
      <trkpt lat="47.28114" lon="16.01462">
        <ele>387.39942</ele>
        <time>2026-07-08T09:25:30.000Z</time>
      </trkpt>
      <trkpt lat="47.28115" lon="16.01468">
        <ele>387.484792</ele>
        <time>2026-07-08T09:25:31.000Z</time>
      </trkpt>
      <trkpt lat="47.28115" lon="16.01473">
        <ele>387.570494</ele>
        <time>2026-07-08T09:25:32.000Z</time>
      </trkpt>
      <trkpt lat="47.28116" lon="16.01478">
        <ele>387.649478</ele>
        <time>2026-07-08T09:25:33.000Z</time>
      </trkpt>
      <trkpt lat="47.28116" lon="16.01484">
        <ele>387.733325</ele>
        <time>2026-07-08T09:25:34.000Z</time>
      </trkpt>
      <trkpt lat="47.28117" lon="16.01489">
        <ele>387.812602</ele>
        <time>2026-07-08T09:25:35.000Z</time>
      </trkpt>
      <trkpt lat="47.28117" lon="16.01494">
        <ele>387.896448</ele>
        <time>2026-07-08T09:25:36.000Z</time>
      </trkpt>
      <trkpt lat="47.28118" lon="16.015">
        <ele>387.978771</ele>
        <time>2026-07-08T09:25:37.000Z</time>
      </trkpt>
      <trkpt lat="47.28118" lon="16.01505">
        <ele>388.05906</ele>
        <time>2026-07-08T09:25:38.000Z</time>
      </trkpt>
      <trkpt lat="47.28118" lon="16.0151">
        <ele>388.137521</ele>
        <time>2026-07-08T09:25:39.000Z</time>
      </trkpt>
      <trkpt lat="47.28118" lon="16.01515">
        <ele>388.217649</ele>
        <time>2026-07-08T09:25:40.000Z</time>
      </trkpt>
      <trkpt lat="47.28118" lon="16.0152">
        <ele>388.297778</ele>
        <time>2026-07-08T09:25:41.000Z</time>
      </trkpt>
      <trkpt lat="47.28118" lon="16.01525">
        <ele>388.375001</ele>
        <time>2026-07-08T09:25:42.000Z</time>
      </trkpt>
      <trkpt lat="47.28117" lon="16.0153">
        <ele>388.421483</ele>
        <time>2026-07-08T09:25:43.000Z</time>
      </trkpt>
      <trkpt lat="47.28117" lon="16.01535">
        <ele>388.462114</ele>
        <time>2026-07-08T09:25:44.000Z</time>
      </trkpt>
      <trkpt lat="47.28117" lon="16.0154">
        <ele>388.501954</ele>
        <time>2026-07-08T09:25:45.000Z</time>
      </trkpt>
      <trkpt lat="47.28117" lon="16.01545">
        <ele>388.541708</ele>
        <time>2026-07-08T09:25:46.000Z</time>
      </trkpt>
      <trkpt lat="47.28116" lon="16.0155">
        <ele>388.581548</ele>
        <time>2026-07-08T09:25:47.000Z</time>
      </trkpt>
      <trkpt lat="47.28116" lon="16.01555">
        <ele>388.621293</ele>
        <time>2026-07-08T09:25:48.000Z</time>
      </trkpt>
      <trkpt lat="47.28115" lon="16.0156">
        <ele>388.658269</ele>
        <time>2026-07-08T09:25:49.000Z</time>
      </trkpt>
      <trkpt lat="47.28114" lon="16.01565">
        <ele>388.698013</ele>
        <time>2026-07-08T09:25:50.000Z</time>
      </trkpt>
      <trkpt lat="47.28114" lon="16.0157">
        <ele>388.736752</ele>
        <time>2026-07-08T09:25:51.000Z</time>
      </trkpt>
      <trkpt lat="47.28113" lon="16.01575">
        <ele>388.777274</ele>
        <time>2026-07-08T09:25:52.000Z</time>
      </trkpt>
      <trkpt lat="47.28112" lon="16.0158">
        <ele>388.819351</ele>
        <time>2026-07-08T09:25:53.000Z</time>
      </trkpt>
      <trkpt lat="47.28112" lon="16.01585">
        <ele>388.861999</ele>
        <time>2026-07-08T09:25:54.000Z</time>
      </trkpt>
      <trkpt lat="47.28111" lon="16.01591">
        <ele>388.906905</ele>
        <time>2026-07-08T09:25:55.000Z</time>
      </trkpt>
      <trkpt lat="47.2811" lon="16.01596">
        <ele>388.953104</ele>
        <time>2026-07-08T09:25:56.000Z</time>
      </trkpt>
      <trkpt lat="47.28109" lon="16.01602">
        <ele>389.000081</ele>
        <time>2026-07-08T09:25:57.000Z</time>
      </trkpt>
      <trkpt lat="47.28108" lon="16.01608">
        <ele>389.048854</ele>
        <time>2026-07-08T09:25:58.000Z</time>
      </trkpt>
      <trkpt lat="47.28107" lon="16.01614">
        <ele>389.097892</ele>
        <time>2026-07-08T09:25:59.000Z</time>
      </trkpt>
      <trkpt lat="47.28106" lon="16.0162">
        <ele>389.147884</ele>
        <time>2026-07-08T09:26:00.000Z</time>
      </trkpt>
      <trkpt lat="47.28104" lon="16.01626">
        <ele>389.196352</ele>
        <time>2026-07-08T09:26:01.000Z</time>
      </trkpt>
      <trkpt lat="47.28103" lon="16.01631">
        <ele>389.242884</ele>
        <time>2026-07-08T09:26:02.000Z</time>
      </trkpt>
      <trkpt lat="47.28101" lon="16.01636">
        <ele>389.289111</ele>
        <time>2026-07-08T09:26:03.000Z</time>
      </trkpt>
      <trkpt lat="47.281" lon="16.01642">
        <ele>389.335562</ele>
        <time>2026-07-08T09:26:04.000Z</time>
      </trkpt>
      <trkpt lat="47.281" lon="16.01648">
        <ele>389.381344</ele>
        <time>2026-07-08T09:26:05.000Z</time>
      </trkpt>
      <trkpt lat="47.28099" lon="16.01654">
        <ele>389.427749</ele>
        <time>2026-07-08T09:26:06.000Z</time>
      </trkpt>
      <trkpt lat="47.28099" lon="16.01659">
        <ele>389.474155</ele>
        <time>2026-07-08T09:26:07.000Z</time>
      </trkpt>
      <trkpt lat="47.28099" lon="16.01665">
        <ele>389.519456</ele>
        <time>2026-07-08T09:26:08.000Z</time>
      </trkpt>
      <trkpt lat="47.28099" lon="16.01671">
        <ele>389.565491</ele>
        <time>2026-07-08T09:26:09.000Z</time>
      </trkpt>
      <trkpt lat="47.28099" lon="16.01677">
        <ele>389.61232</ele>
        <time>2026-07-08T09:26:10.000Z</time>
      </trkpt>
      <trkpt lat="47.28099" lon="16.01682">
        <ele>389.656768</ele>
        <time>2026-07-08T09:26:11.000Z</time>
      </trkpt>
      <trkpt lat="47.28099" lon="16.01688">
        <ele>389.702009</ele>
        <time>2026-07-08T09:26:12.000Z</time>
      </trkpt>
      <trkpt lat="47.28098" lon="16.01694">
        <ele>389.748103</ele>
        <time>2026-07-08T09:26:13.000Z</time>
      </trkpt>
      <trkpt lat="47.28098" lon="16.017">
        <ele>389.794947</ele>
        <time>2026-07-08T09:26:14.000Z</time>
      </trkpt>
      <trkpt lat="47.28098" lon="16.01706">
        <ele>389.840982</ele>
        <time>2026-07-08T09:26:15.000Z</time>
      </trkpt>
      <trkpt lat="47.28098" lon="16.01712">
        <ele>389.888661</ele>
        <time>2026-07-08T09:26:16.000Z</time>
      </trkpt>
      <trkpt lat="47.28098" lon="16.01717">
        <ele>389.93483</ele>
        <time>2026-07-08T09:26:17.000Z</time>
      </trkpt>
      <trkpt lat="47.28098" lon="16.01723">
        <ele>389.98251</ele>
        <time>2026-07-08T09:26:18.000Z</time>
      </trkpt>
      <trkpt lat="47.28097" lon="16.01729">
        <ele>390.029397</ele>
        <time>2026-07-08T09:26:19.000Z</time>
      </trkpt>
      <trkpt lat="47.28097" lon="16.01735">
        <ele>390.077827</ele>
        <time>2026-07-08T09:26:20.000Z</time>
      </trkpt>
      <trkpt lat="47.28097" lon="16.01742">
        <ele>390.127093</ele>
        <time>2026-07-08T09:26:21.000Z</time>
      </trkpt>
      <trkpt lat="47.28097" lon="16.01748">
        <ele>390.176358</ele>
        <time>2026-07-08T09:26:22.000Z</time>
      </trkpt>
      <trkpt lat="47.28096" lon="16.01754">
        <ele>390.225126</ele>
        <time>2026-07-08T09:26:23.000Z</time>
      </trkpt>
      <trkpt lat="47.28096" lon="16.0176">
        <ele>390.274834</ele>
        <time>2026-07-08T09:26:24.000Z</time>
      </trkpt>
      <trkpt lat="47.28095" lon="16.01766">
        <ele>390.325504</ele>
        <time>2026-07-08T09:26:25.000Z</time>
      </trkpt>
      <trkpt lat="47.28094" lon="16.01773">
        <ele>390.376958</ele>
        <time>2026-07-08T09:26:26.000Z</time>
      </trkpt>
      <trkpt lat="47.28094" lon="16.01779">
        <ele>390.42588</ele>
        <time>2026-07-08T09:26:27.000Z</time>
      </trkpt>
      <trkpt lat="47.28093" lon="16.01785">
        <ele>390.476204</ele>
        <time>2026-07-08T09:26:28.000Z</time>
      </trkpt>
      <trkpt lat="47.28092" lon="16.01791">
        <ele>390.489069</ele>
        <time>2026-07-08T09:26:29.000Z</time>
      </trkpt>
      <trkpt lat="47.28091" lon="16.01797">
        <ele>390.483625</ele>
        <time>2026-07-08T09:26:30.000Z</time>
      </trkpt>
      <trkpt lat="47.2809" lon="16.01804">
        <ele>390.478041</ele>
        <time>2026-07-08T09:26:31.000Z</time>
      </trkpt>
      <trkpt lat="47.28089" lon="16.0181">
        <ele>390.47256</ele>
        <time>2026-07-08T09:26:32.000Z</time>
      </trkpt>
      <trkpt lat="47.28088" lon="16.01816">
        <ele>390.466976</ele>
        <time>2026-07-08T09:26:33.000Z</time>
      </trkpt>
      <trkpt lat="47.28087" lon="16.01822">
        <ele>390.461529</ele>
        <time>2026-07-08T09:26:34.000Z</time>
      </trkpt>
      <trkpt lat="47.28085" lon="16.01828">
        <ele>390.45597</ele>
        <time>2026-07-08T09:26:35.000Z</time>
      </trkpt>
      <trkpt lat="47.28084" lon="16.01834">
        <ele>390.4502</ele>
        <time>2026-07-08T09:26:36.000Z</time>
      </trkpt>
      <trkpt lat="47.28083" lon="16.0184">
        <ele>390.444432</ele>
        <time>2026-07-08T09:26:37.000Z</time>
      </trkpt>
      <trkpt lat="47.28081" lon="16.01846">
        <ele>390.438829</ele>
        <time>2026-07-08T09:26:38.000Z</time>
      </trkpt>
      <trkpt lat="47.2808" lon="16.01853">
        <ele>390.432813</ele>
        <time>2026-07-08T09:26:39.000Z</time>
      </trkpt>
      <trkpt lat="47.28078" lon="16.01859">
        <ele>390.426879</ele>
        <time>2026-07-08T09:26:40.000Z</time>
      </trkpt>
      <trkpt lat="47.28077" lon="16.01866">
        <ele>390.42078</ele>
        <time>2026-07-08T09:26:41.000Z</time>
      </trkpt>
      <trkpt lat="47.28076" lon="16.01873">
        <ele>390.414454</ele>
        <time>2026-07-08T09:26:42.000Z</time>
      </trkpt>
      <trkpt lat="47.28074" lon="16.0188">
        <ele>390.408212</ele>
        <time>2026-07-08T09:26:43.000Z</time>
      </trkpt>
      <trkpt lat="47.28073" lon="16.01887">
        <ele>390.402115</ele>
        <time>2026-07-08T09:26:44.000Z</time>
      </trkpt>
      <trkpt lat="47.28072" lon="16.01893">
        <ele>390.395989</ele>
        <time>2026-07-08T09:26:45.000Z</time>
      </trkpt>
      <trkpt lat="47.28071" lon="16.019">
        <ele>390.389721</ele>
        <time>2026-07-08T09:26:46.000Z</time>
      </trkpt>
      <trkpt lat="47.2807" lon="16.01907">
        <ele>390.383564</ele>
        <time>2026-07-08T09:26:47.000Z</time>
      </trkpt>
      <trkpt lat="47.2807" lon="16.01914">
        <ele>390.377571</ele>
        <time>2026-07-08T09:26:48.000Z</time>
      </trkpt>
      <trkpt lat="47.2807" lon="16.01921">
        <ele>390.371435</ele>
        <time>2026-07-08T09:26:49.000Z</time>
      </trkpt>
      <trkpt lat="47.2807" lon="16.01928">
        <ele>390.365475</ele>
        <time>2026-07-08T09:26:50.000Z</time>
      </trkpt>
      <trkpt lat="47.2807" lon="16.01935">
        <ele>390.359429</ele>
        <time>2026-07-08T09:26:51.000Z</time>
      </trkpt>
      <trkpt lat="47.2807" lon="16.01942">
        <ele>390.353294</ele>
        <time>2026-07-08T09:26:52.000Z</time>
      </trkpt>
      <trkpt lat="47.28069" lon="16.01949">
        <ele>390.347126</ele>
        <time>2026-07-08T09:26:53.000Z</time>
      </trkpt>
      <trkpt lat="47.28069" lon="16.01955">
        <ele>390.34132</ele>
        <time>2026-07-08T09:26:54.000Z</time>
      </trkpt>
      <trkpt lat="47.28068" lon="16.01962">
        <ele>390.335398</ele>
        <time>2026-07-08T09:26:55.000Z</time>
      </trkpt>
      <trkpt lat="47.28067" lon="16.01969">
        <ele>390.329413</ele>
        <time>2026-07-08T09:26:56.000Z</time>
      </trkpt>
      <trkpt lat="47.28066" lon="16.01975">
        <ele>390.323713</ele>
        <time>2026-07-08T09:26:57.000Z</time>
      </trkpt>
      <trkpt lat="47.28065" lon="16.01982">
        <ele>390.31781</ele>
        <time>2026-07-08T09:26:58.000Z</time>
      </trkpt>
      <trkpt lat="47.28064" lon="16.01988">
        <ele>390.312076</ele>
        <time>2026-07-08T09:26:59.000Z</time>
      </trkpt>
      <trkpt lat="47.28063" lon="16.01994">
        <ele>390.306328</ele>
        <time>2026-07-08T09:27:00.000Z</time>
      </trkpt>
      <trkpt lat="47.28063" lon="16.02001">
        <ele>390.300422</ele>
        <time>2026-07-08T09:27:01.000Z</time>
      </trkpt>
      <trkpt lat="47.28062" lon="16.02007">
        <ele>390.294864</ele>
        <time>2026-07-08T09:27:02.000Z</time>
      </trkpt>
      <trkpt lat="47.28062" lon="16.02014">
        <ele>390.289097</ele>
        <time>2026-07-08T09:27:03.000Z</time>
      </trkpt>
      <trkpt lat="47.28061" lon="16.0202">
        <ele>390.283388</ele>
        <time>2026-07-08T09:27:04.000Z</time>
      </trkpt>
      <trkpt lat="47.28061" lon="16.02027">
        <ele>390.277774</ele>
        <time>2026-07-08T09:27:05.000Z</time>
      </trkpt>
      <trkpt lat="47.28061" lon="16.02033">
        <ele>390.272516</ele>
        <time>2026-07-08T09:27:06.000Z</time>
      </trkpt>
      <trkpt lat="47.28061" lon="16.02039">
        <ele>390.267427</ele>
        <time>2026-07-08T09:27:07.000Z</time>
      </trkpt>
      <trkpt lat="47.28061" lon="16.02044">
        <ele>390.262431</ele>
        <time>2026-07-08T09:27:08.000Z</time>
      </trkpt>
      <trkpt lat="47.28062" lon="16.0205">
        <ele>390.363638</ele>
        <time>2026-07-08T09:27:09.000Z</time>
      </trkpt>
      <trkpt lat="47.28062" lon="16.02056">
        <ele>390.520791</ele>
        <time>2026-07-08T09:27:10.000Z</time>
      </trkpt>
      <trkpt lat="47.28063" lon="16.02061">
        <ele>390.68484</ele>
        <time>2026-07-08T09:27:11.000Z</time>
      </trkpt>
      <trkpt lat="47.28064" lon="16.02067">
        <ele>390.836381</ele>
        <time>2026-07-08T09:27:12.000Z</time>
      </trkpt>
      <trkpt lat="47.28064" lon="16.02072">
        <ele>390.990148</ele>
        <time>2026-07-08T09:27:13.000Z</time>
      </trkpt>
      <trkpt lat="47.28065" lon="16.02077">
        <ele>391.143215</ele>
        <time>2026-07-08T09:27:14.000Z</time>
      </trkpt>
      <trkpt lat="47.28066" lon="16.02082">
        <ele>391.299009</ele>
        <time>2026-07-08T09:27:15.000Z</time>
      </trkpt>
      <trkpt lat="47.28068" lon="16.02088">
        <ele>391.459933</ele>
        <time>2026-07-08T09:27:16.000Z</time>
      </trkpt>
      <trkpt lat="47.28069" lon="16.02093">
        <ele>391.621191</ele>
        <time>2026-07-08T09:27:17.000Z</time>
      </trkpt>
      <trkpt lat="47.2807" lon="16.02099">
        <ele>391.779426</ele>
        <time>2026-07-08T09:27:18.000Z</time>
      </trkpt>
      <trkpt lat="47.28071" lon="16.02104">
        <ele>391.933684</ele>
        <time>2026-07-08T09:27:19.000Z</time>
      </trkpt>
      <trkpt lat="47.28072" lon="16.02109">
        <ele>392.081309</ele>
        <time>2026-07-08T09:27:20.000Z</time>
      </trkpt>
      <trkpt lat="47.28073" lon="16.02114">
        <ele>392.228935</ele>
        <time>2026-07-08T09:27:21.000Z</time>
      </trkpt>
      <trkpt lat="47.28074" lon="16.02119">
        <ele>392.373808</ele>
        <time>2026-07-08T09:27:22.000Z</time>
      </trkpt>
      <trkpt lat="47.28075" lon="16.02123">
        <ele>392.51868</ele>
        <time>2026-07-08T09:27:23.000Z</time>
      </trkpt>
      <trkpt lat="47.28076" lon="16.02128">
        <ele>392.663592</ele>
        <time>2026-07-08T09:27:24.000Z</time>
      </trkpt>
      <trkpt lat="47.28077" lon="16.02133">
        <ele>392.799053</ele>
        <time>2026-07-08T09:27:25.000Z</time>
      </trkpt>
      <trkpt lat="47.28079" lon="16.02137">
        <ele>392.941834</ele>
        <time>2026-07-08T09:27:26.000Z</time>
      </trkpt>
      <trkpt lat="47.2808" lon="16.02142">
        <ele>393.088002</ele>
        <time>2026-07-08T09:27:27.000Z</time>
      </trkpt>
      <trkpt lat="47.28081" lon="16.02147">
        <ele>393.224935</ele>
        <time>2026-07-08T09:27:28.000Z</time>
      </trkpt>
      <trkpt lat="47.28082" lon="16.02151">
        <ele>393.361732</ele>
        <time>2026-07-08T09:27:29.000Z</time>
      </trkpt>
      <trkpt lat="47.28083" lon="16.02156">
        <ele>393.501229</ele>
        <time>2026-07-08T09:27:30.000Z</time>
      </trkpt>
      <trkpt lat="47.28084" lon="16.02161">
        <ele>393.644971</ele>
        <time>2026-07-08T09:27:31.000Z</time>
      </trkpt>
      <trkpt lat="47.28086" lon="16.02165">
        <ele>393.787752</ele>
        <time>2026-07-08T09:27:32.000Z</time>
      </trkpt>
      <trkpt lat="47.28087" lon="16.0217">
        <ele>393.931494</ele>
        <time>2026-07-08T09:27:33.000Z</time>
      </trkpt>
      <trkpt lat="47.28088" lon="16.02174">
        <ele>394.064815</ele>
        <time>2026-07-08T09:27:34.000Z</time>
      </trkpt>
      <trkpt lat="47.28089" lon="16.02179">
        <ele>394.198918</ele>
        <time>2026-07-08T09:27:35.000Z</time>
      </trkpt>
      <trkpt lat="47.28091" lon="16.02183">
        <ele>394.34091</ele>
        <time>2026-07-08T09:27:36.000Z</time>
      </trkpt>
      <trkpt lat="47.28092" lon="16.02188">
        <ele>394.480367</ele>
        <time>2026-07-08T09:27:37.000Z</time>
      </trkpt>
      <trkpt lat="47.28094" lon="16.02192">
        <ele>394.612287</ele>
        <time>2026-07-08T09:27:38.000Z</time>
      </trkpt>
      <trkpt lat="47.28095" lon="16.02196">
        <ele>394.746706</ele>
        <time>2026-07-08T09:27:39.000Z</time>
      </trkpt>
      <trkpt lat="47.28097" lon="16.022">
        <ele>394.881126</ele>
        <time>2026-07-08T09:27:40.000Z</time>
      </trkpt>
      <trkpt lat="47.28098" lon="16.02204">
        <ele>395.01056</ele>
        <time>2026-07-08T09:27:41.000Z</time>
      </trkpt>
      <trkpt lat="47.281" lon="16.02208">
        <ele>395.133022</ele>
        <time>2026-07-08T09:27:42.000Z</time>
      </trkpt>
      <trkpt lat="47.28101" lon="16.02212">
        <ele>395.253546</ele>
        <time>2026-07-08T09:27:43.000Z</time>
      </trkpt>
      <trkpt lat="47.28102" lon="16.02216">
        <ele>395.369689</ele>
        <time>2026-07-08T09:27:44.000Z</time>
      </trkpt>
      <trkpt lat="47.28103" lon="16.02219">
        <ele>395.484093</ele>
        <time>2026-07-08T09:27:45.000Z</time>
      </trkpt>
      <trkpt lat="47.28105" lon="16.02223">
        <ele>395.594318</ele>
        <time>2026-07-08T09:27:46.000Z</time>
      </trkpt>
      <trkpt lat="47.28106" lon="16.02226">
        <ele>395.707321</ele>
        <time>2026-07-08T09:27:47.000Z</time>
      </trkpt>
      <trkpt lat="47.28107" lon="16.02229">
        <ele>395.813356</ele>
        <time>2026-07-08T09:27:48.000Z</time>
      </trkpt>
      <trkpt lat="47.28108" lon="16.02233">
        <ele>395.920908</ele>
        <time>2026-07-08T09:27:49.000Z</time>
      </trkpt>
      <trkpt lat="47.2811" lon="16.02237">
        <ele>396.03891</ele>
        <time>2026-07-08T09:27:50.000Z</time>
      </trkpt>
      <trkpt lat="47.28111" lon="16.0224">
        <ele>396.155053</ele>
        <time>2026-07-08T09:27:51.000Z</time>
      </trkpt>
      <trkpt lat="47.28112" lon="16.02244">
        <ele>396.26522</ele>
        <time>2026-07-08T09:27:52.000Z</time>
      </trkpt>
      <trkpt lat="47.28113" lon="16.02247">
        <ele>396.378223</ele>
        <time>2026-07-08T09:27:53.000Z</time>
      </trkpt>
      <trkpt lat="47.28114" lon="16.02251">
        <ele>396.491226</ele>
        <time>2026-07-08T09:27:54.000Z</time>
      </trkpt>
      <trkpt lat="47.28115" lon="16.02255">
        <ele>396.604019</ele>
        <time>2026-07-08T09:27:55.000Z</time>
      </trkpt>
      <trkpt lat="47.28116" lon="16.02258">
        <ele>396.716812</ele>
        <time>2026-07-08T09:27:56.000Z</time>
      </trkpt>
      <trkpt lat="47.28117" lon="16.02262">
        <ele>396.826979</ele>
        <time>2026-07-08T09:27:57.000Z</time>
      </trkpt>
      <trkpt lat="47.28118" lon="16.02266">
        <ele>396.945052</ele>
        <time>2026-07-08T09:27:58.000Z</time>
      </trkpt>
      <trkpt lat="47.28119" lon="16.02269">
        <ele>397.051053</ele>
        <time>2026-07-08T09:27:59.000Z</time>
      </trkpt>
      <trkpt lat="47.2812" lon="16.02273">
        <ele>397.156036</ele>
        <time>2026-07-08T09:28:00.000Z</time>
      </trkpt>
      <trkpt lat="47.2812" lon="16.02276">
        <ele>397.25456</ele>
        <time>2026-07-08T09:28:01.000Z</time>
      </trkpt>
      <trkpt lat="47.28121" lon="16.0228">
        <ele>397.358626</ele>
        <time>2026-07-08T09:28:02.000Z</time>
      </trkpt>
      <trkpt lat="47.28121" lon="16.02283">
        <ele>397.459919</ele>
        <time>2026-07-08T09:28:03.000Z</time>
      </trkpt>
      <trkpt lat="47.28122" lon="16.02287">
        <ele>397.560435</ele>
        <time>2026-07-08T09:28:04.000Z</time>
      </trkpt>
      <trkpt lat="47.28122" lon="16.0229">
        <ele>397.659643</ele>
        <time>2026-07-08T09:28:05.000Z</time>
      </trkpt>
      <trkpt lat="47.28122" lon="16.02294">
        <ele>397.75065</ele>
        <time>2026-07-08T09:28:06.000Z</time>
      </trkpt>
      <trkpt lat="47.28122" lon="16.02297">
        <ele>397.760013</ele>
        <time>2026-07-08T09:28:07.000Z</time>
      </trkpt>
      <trkpt lat="47.28123" lon="16.02299">
        <ele>397.749317</ele>
        <time>2026-07-08T09:28:08.000Z</time>
      </trkpt>
      <trkpt lat="47.28123" lon="16.02302">
        <ele>397.738351</ele>
        <time>2026-07-08T09:28:09.000Z</time>
      </trkpt>
      <trkpt lat="47.28123" lon="16.02305">
        <ele>397.727137</ele>
        <time>2026-07-08T09:28:10.000Z</time>
      </trkpt>
      <trkpt lat="47.28123" lon="16.02308">
        <ele>397.717647</ele>
        <time>2026-07-08T09:28:11.000Z</time>
      </trkpt>
      <trkpt lat="47.28124" lon="16.02311">
        <ele>397.707123</ele>
        <time>2026-07-08T09:28:12.000Z</time>
      </trkpt>
      <trkpt lat="47.28123" lon="16.02314">
        <ele>397.693953</ele>
        <time>2026-07-08T09:28:13.000Z</time>
      </trkpt>
      <trkpt lat="47.28121" lon="16.02317">
        <ele>397.678125</ele>
        <time>2026-07-08T09:28:14.000Z</time>
      </trkpt>
      <trkpt lat="47.28119" lon="16.02321">
        <ele>397.659733</ele>
        <time>2026-07-08T09:28:15.000Z</time>
      </trkpt>
      <trkpt lat="47.28117" lon="16.02325">
        <ele>397.641791</ele>
        <time>2026-07-08T09:28:16.000Z</time>
      </trkpt>
      <trkpt lat="47.28115" lon="16.02329">
        <ele>397.622537</ele>
        <time>2026-07-08T09:28:17.000Z</time>
      </trkpt>
      <trkpt lat="47.28114" lon="16.02334">
        <ele>397.604115</ele>
        <time>2026-07-08T09:28:18.000Z</time>
      </trkpt>
      <trkpt lat="47.28113" lon="16.02339">
        <ele>397.586237</ele>
        <time>2026-07-08T09:28:19.000Z</time>
      </trkpt>
      <trkpt lat="47.28113" lon="16.02343">
        <ele>397.569272</ele>
        <time>2026-07-08T09:28:20.000Z</time>
      </trkpt>
      <trkpt lat="47.28113" lon="16.02348">
        <ele>397.552442</ele>
        <time>2026-07-08T09:28:21.000Z</time>
      </trkpt>
      <trkpt lat="47.28113" lon="16.02352">
        <ele>397.535621</ele>
        <time>2026-07-08T09:28:22.000Z</time>
      </trkpt>
      <trkpt lat="47.28113" lon="16.02356">
        <ele>397.519547</ele>
        <time>2026-07-08T09:28:23.000Z</time>
      </trkpt>
      <trkpt lat="47.28113" lon="16.02361">
        <ele>397.5031</ele>
        <time>2026-07-08T09:28:24.000Z</time>
      </trkpt>
      <trkpt lat="47.28112" lon="16.02365">
        <ele>397.486135</ele>
        <time>2026-07-08T09:28:25.000Z</time>
      </trkpt>
      <trkpt lat="47.28112" lon="16.02369">
        <ele>397.47072</ele>
        <time>2026-07-08T09:28:26.000Z</time>
      </trkpt>
      <trkpt lat="47.28112" lon="16.02374">
        <ele>397.453817</ele>
        <time>2026-07-08T09:28:27.000Z</time>
      </trkpt>
      <trkpt lat="47.28111" lon="16.02378">
        <ele>397.436924</ele>
        <time>2026-07-08T09:28:28.000Z</time>
      </trkpt>
      <trkpt lat="47.28111" lon="16.02383">
        <ele>397.419509</ele>
        <time>2026-07-08T09:28:29.000Z</time>
      </trkpt>
      <trkpt lat="47.2811" lon="16.02387">
        <ele>397.402252</ele>
        <time>2026-07-08T09:28:30.000Z</time>
      </trkpt>
      <trkpt lat="47.28109" lon="16.02392">
        <ele>397.384138</ele>
        <time>2026-07-08T09:28:31.000Z</time>
      </trkpt>
      <trkpt lat="47.28108" lon="16.02397">
        <ele>397.366437</ele>
        <time>2026-07-08T09:28:32.000Z</time>
      </trkpt>
      <trkpt lat="47.28107" lon="16.02401">
        <ele>397.349445</ele>
        <time>2026-07-08T09:28:33.000Z</time>
      </trkpt>
      <trkpt lat="47.28106" lon="16.02405">
        <ele>397.33241</ele>
        <time>2026-07-08T09:28:34.000Z</time>
      </trkpt>
      <trkpt lat="47.28104" lon="16.02409">
        <ele>397.314336</ele>
        <time>2026-07-08T09:28:35.000Z</time>
      </trkpt>
      <trkpt lat="47.28103" lon="16.02413">
        <ele>397.296978</ele>
        <time>2026-07-08T09:28:36.000Z</time>
      </trkpt>
      <trkpt lat="47.28101" lon="16.02417">
        <ele>397.279334</ele>
        <time>2026-07-08T09:28:37.000Z</time>
      </trkpt>
      <trkpt lat="47.28099" lon="16.02421">
        <ele>397.261702</ele>
        <time>2026-07-08T09:28:38.000Z</time>
      </trkpt>
      <trkpt lat="47.28097" lon="16.02425">
        <ele>397.243127</ele>
        <time>2026-07-08T09:28:39.000Z</time>
      </trkpt>
      <trkpt lat="47.28095" lon="16.02429">
        <ele>397.223586</ele>
        <time>2026-07-08T09:28:40.000Z</time>
      </trkpt>
      <trkpt lat="47.28093" lon="16.02434">
        <ele>397.2027</ele>
        <time>2026-07-08T09:28:41.000Z</time>
      </trkpt>
      <trkpt lat="47.2809" lon="16.02438">
        <ele>397.179036</ele>
        <time>2026-07-08T09:28:42.000Z</time>
      </trkpt>
      <trkpt lat="47.28087" lon="16.02443">
        <ele>397.153341</ele>
        <time>2026-07-08T09:28:43.000Z</time>
      </trkpt>
      <trkpt lat="47.28083" lon="16.02448">
        <ele>397.126485</ele>
        <time>2026-07-08T09:28:44.000Z</time>
      </trkpt>
      <trkpt lat="47.28079" lon="16.02453">
        <ele>397.098418</ele>
        <time>2026-07-08T09:28:45.000Z</time>
      </trkpt>
      <trkpt lat="47.28075" lon="16.02458">
        <ele>397.068671</ele>
        <time>2026-07-08T09:28:46.000Z</time>
      </trkpt>
      <trkpt lat="47.28071" lon="16.02463">
        <ele>397.038924</ele>
        <time>2026-07-08T09:28:47.000Z</time>
      </trkpt>
      <trkpt lat="47.28066" lon="16.02468">
        <ele>397.007873</ele>
        <time>2026-07-08T09:28:48.000Z</time>
      </trkpt>
      <trkpt lat="47.28061" lon="16.02473">
        <ele>396.974731</ele>
        <time>2026-07-08T09:28:49.000Z</time>
      </trkpt>
      <trkpt lat="47.28056" lon="16.02478">
        <ele>396.940551</ele>
        <time>2026-07-08T09:28:50.000Z</time>
      </trkpt>
      <trkpt lat="47.2805" lon="16.02482">
        <ele>396.905043</ele>
        <time>2026-07-08T09:28:51.000Z</time>
      </trkpt>
      <trkpt lat="47.28044" lon="16.02487">
        <ele>396.86844</ele>
        <time>2026-07-08T09:28:52.000Z</time>
      </trkpt>
      <trkpt lat="47.28039" lon="16.02491">
        <ele>396.832149</ele>
        <time>2026-07-08T09:28:53.000Z</time>
      </trkpt>
      <trkpt lat="47.28033" lon="16.02496">
        <ele>396.797488</ele>
        <time>2026-07-08T09:28:54.000Z</time>
      </trkpt>
      <trkpt lat="47.28028" lon="16.025">
        <ele>396.674335</ele>
        <time>2026-07-08T09:28:55.000Z</time>
      </trkpt>
      <trkpt lat="47.28023" lon="16.02504">
        <ele>396.403986</ele>
        <time>2026-07-08T09:28:56.000Z</time>
      </trkpt>
      <trkpt lat="47.28017" lon="16.02509">
        <ele>396.106621</ele>
        <time>2026-07-08T09:28:57.000Z</time>
      </trkpt>
      <trkpt lat="47.2801" lon="16.02514">
        <ele>395.784001</ele>
        <time>2026-07-08T09:28:58.000Z</time>
      </trkpt>
      <trkpt lat="47.28004" lon="16.02519">
        <ele>395.447774</ele>
        <time>2026-07-08T09:28:59.000Z</time>
      </trkpt>
      <trkpt lat="47.27997" lon="16.02524">
        <ele>395.098298</ele>
        <time>2026-07-08T09:29:00.000Z</time>
      </trkpt>
      <trkpt lat="47.27989" lon="16.02528">
        <ele>394.733331</ele>
        <time>2026-07-08T09:29:01.000Z</time>
      </trkpt>
      <trkpt lat="47.27981" lon="16.02533">
        <ele>394.3497</ele>
        <time>2026-07-08T09:29:02.000Z</time>
      </trkpt>
      <trkpt lat="47.27973" lon="16.02537">
        <ele>393.952151</ele>
        <time>2026-07-08T09:29:03.000Z</time>
      </trkpt>
      <trkpt lat="47.27964" lon="16.02541">
        <ele>393.547897</ele>
        <time>2026-07-08T09:29:04.000Z</time>
      </trkpt>
      <trkpt lat="47.27956" lon="16.02545">
        <ele>393.138449</ele>
        <time>2026-07-08T09:29:05.000Z</time>
      </trkpt>
      <trkpt lat="47.27947" lon="16.0255">
        <ele>392.729493</ele>
        <time>2026-07-08T09:29:06.000Z</time>
      </trkpt>
      <trkpt lat="47.27939" lon="16.02556">
        <ele>392.314159</ele>
        <time>2026-07-08T09:29:07.000Z</time>
      </trkpt>
      <trkpt lat="47.27931" lon="16.02563">
        <ele>391.888195</ele>
        <time>2026-07-08T09:29:08.000Z</time>
      </trkpt>
      <trkpt lat="47.27923" lon="16.02571">
        <ele>391.466834</ele>
        <time>2026-07-08T09:29:09.000Z</time>
      </trkpt>
      <trkpt lat="47.27916" lon="16.0258">
        <ele>391.044659</ele>
        <time>2026-07-08T09:29:10.000Z</time>
      </trkpt>
      <trkpt lat="47.27909" lon="16.0259">
        <ele>390.626975</ele>
        <time>2026-07-08T09:29:11.000Z</time>
      </trkpt>
      <trkpt lat="47.27903" lon="16.026">
        <ele>390.204851</ele>
        <time>2026-07-08T09:29:12.000Z</time>
      </trkpt>
      <trkpt lat="47.27897" lon="16.0261">
        <ele>389.801518</ele>
        <time>2026-07-08T09:29:13.000Z</time>
      </trkpt>
      <trkpt lat="47.27892" lon="16.0262">
        <ele>389.404377</ele>
        <time>2026-07-08T09:29:14.000Z</time>
      </trkpt>
      <trkpt lat="47.27886" lon="16.0263">
        <ele>389.015479</ele>
        <time>2026-07-08T09:29:15.000Z</time>
      </trkpt>
      <trkpt lat="47.27882" lon="16.0264">
        <ele>388.66167</ele>
        <time>2026-07-08T09:29:16.000Z</time>
      </trkpt>
      <trkpt lat="47.27877" lon="16.02649">
        <ele>388.419205</ele>
        <time>2026-07-08T09:29:17.000Z</time>
      </trkpt>
      <trkpt lat="47.27873" lon="16.02658">
        <ele>388.201618</ele>
        <time>2026-07-08T09:29:18.000Z</time>
      </trkpt>
      <trkpt lat="47.2787" lon="16.02665">
        <ele>387.996571</ele>
        <time>2026-07-08T09:29:19.000Z</time>
      </trkpt>
      <trkpt lat="47.27866" lon="16.02673">
        <ele>387.800455</ele>
        <time>2026-07-08T09:29:20.000Z</time>
      </trkpt>
      <trkpt lat="47.27863" lon="16.0268">
        <ele>387.609629</ele>
        <time>2026-07-08T09:29:21.000Z</time>
      </trkpt>
      <trkpt lat="47.27859" lon="16.02687">
        <ele>387.433102</ele>
        <time>2026-07-08T09:29:22.000Z</time>
      </trkpt>
      <trkpt lat="47.27856" lon="16.02693">
        <ele>387.263732</ele>
        <time>2026-07-08T09:29:23.000Z</time>
      </trkpt>
      <trkpt lat="47.27853" lon="16.02699">
        <ele>387.101415</ele>
        <time>2026-07-08T09:29:24.000Z</time>
      </trkpt>
      <trkpt lat="47.27851" lon="16.02705">
        <ele>386.949802</ele>
        <time>2026-07-08T09:29:25.000Z</time>
      </trkpt>
      <trkpt lat="47.27848" lon="16.02711">
        <ele>386.803542</ele>
        <time>2026-07-08T09:29:26.000Z</time>
      </trkpt>
      <trkpt lat="47.27845" lon="16.02716">
        <ele>386.662635</ele>
        <time>2026-07-08T09:29:27.000Z</time>
      </trkpt>
      <trkpt lat="47.27843" lon="16.02721">
        <ele>386.52156</ele>
        <time>2026-07-08T09:29:28.000Z</time>
      </trkpt>
      <trkpt lat="47.27839" lon="16.02725">
        <ele>386.388321</ele>
        <time>2026-07-08T09:29:29.000Z</time>
      </trkpt>
      <trkpt lat="47.27836" lon="16.02727">
        <ele>386.264564</ele>
        <time>2026-07-08T09:29:30.000Z</time>
      </trkpt>
      <trkpt lat="47.27832" lon="16.02728">
        <ele>386.137086</ele>
        <time>2026-07-08T09:29:31.000Z</time>
      </trkpt>
      <trkpt lat="47.27828" lon="16.02727">
        <ele>386.011379</ele>
        <time>2026-07-08T09:29:32.000Z</time>
      </trkpt>
      <trkpt lat="47.27824" lon="16.02725">
        <ele>385.891335</ele>
        <time>2026-07-08T09:29:33.000Z</time>
      </trkpt>
      <trkpt lat="47.27821" lon="16.02723">
        <ele>385.77342</ele>
        <time>2026-07-08T09:29:34.000Z</time>
      </trkpt>
      <trkpt lat="47.27817" lon="16.02721">
        <ele>385.654016</ele>
        <time>2026-07-08T09:29:35.000Z</time>
      </trkpt>
      <trkpt lat="47.27813" lon="16.0272">
        <ele>385.511919</ele>
        <time>2026-07-08T09:29:36.000Z</time>
      </trkpt>
      <trkpt lat="47.27808" lon="16.02718">
        <ele>385.357667</ele>
        <time>2026-07-08T09:29:37.000Z</time>
      </trkpt>
      <trkpt lat="47.27803" lon="16.02714">
        <ele>385.176136</ele>
        <time>2026-07-08T09:29:38.000Z</time>
      </trkpt>
      <trkpt lat="47.27797" lon="16.0271">
        <ele>384.973771</ele>
        <time>2026-07-08T09:29:39.000Z</time>
      </trkpt>
      <trkpt lat="47.27791" lon="16.02706">
        <ele>384.751457</ele>
        <time>2026-07-08T09:29:40.000Z</time>
      </trkpt>
      <trkpt lat="47.27784" lon="16.02701">
        <ele>384.507191</ele>
        <time>2026-07-08T09:29:41.000Z</time>
      </trkpt>
      <trkpt lat="47.27777" lon="16.02696">
        <ele>384.247541</ele>
        <time>2026-07-08T09:29:42.000Z</time>
      </trkpt>
      <trkpt lat="47.27769" lon="16.02691">
        <ele>383.988741</ele>
        <time>2026-07-08T09:29:43.000Z</time>
      </trkpt>
      <trkpt lat="47.27761" lon="16.02687">
        <ele>383.728757</ele>
        <time>2026-07-08T09:29:44.000Z</time>
      </trkpt>
      <trkpt lat="47.27754" lon="16.02683">
        <ele>383.488144</ele>
        <time>2026-07-08T09:29:45.000Z</time>
      </trkpt>
      <trkpt lat="47.27747" lon="16.0268">
        <ele>383.253412</ele>
        <time>2026-07-08T09:29:46.000Z</time>
      </trkpt>
      <trkpt lat="47.2774" lon="16.02677">
        <ele>383.013973</ele>
        <time>2026-07-08T09:29:47.000Z</time>
      </trkpt>
      <trkpt lat="47.27733" lon="16.02673">
        <ele>382.700743</ele>
        <time>2026-07-08T09:29:48.000Z</time>
      </trkpt>
      <trkpt lat="47.27725" lon="16.0267">
        <ele>382.370243</ele>
        <time>2026-07-08T09:29:49.000Z</time>
      </trkpt>
      <trkpt lat="47.27717" lon="16.02667">
        <ele>382.035783</ele>
        <time>2026-07-08T09:29:50.000Z</time>
      </trkpt>
      <trkpt lat="47.27709" lon="16.02663">
        <ele>381.682336</ele>
        <time>2026-07-08T09:29:51.000Z</time>
      </trkpt>
      <trkpt lat="47.27701" lon="16.02659">
        <ele>381.320652</ele>
        <time>2026-07-08T09:29:52.000Z</time>
      </trkpt>
      <trkpt lat="47.27692" lon="16.02654">
        <ele>380.945491</ele>
        <time>2026-07-08T09:29:53.000Z</time>
      </trkpt>
      <trkpt lat="47.27684" lon="16.02648">
        <ele>380.560608</ele>
        <time>2026-07-08T09:29:54.000Z</time>
      </trkpt>
      <trkpt lat="47.27675" lon="16.02642">
        <ele>380.175826</ele>
        <time>2026-07-08T09:29:55.000Z</time>
      </trkpt>
      <trkpt lat="47.27667" lon="16.02635">
        <ele>379.789406</ele>
        <time>2026-07-08T09:29:56.000Z</time>
      </trkpt>
      <trkpt lat="47.27659" lon="16.02629">
        <ele>379.401622</ele>
        <time>2026-07-08T09:29:57.000Z</time>
      </trkpt>
      <trkpt lat="47.27651" lon="16.02622">
        <ele>379.017425</ele>
        <time>2026-07-08T09:29:58.000Z</time>
      </trkpt>
      <trkpt lat="47.27643" lon="16.02615">
        <ele>378.63398</ele>
        <time>2026-07-08T09:29:59.000Z</time>
      </trkpt>
      <trkpt lat="47.27635" lon="16.02608">
        <ele>378.251954</ele>
        <time>2026-07-08T09:30:00.000Z</time>
      </trkpt>
      <trkpt lat="47.27627" lon="16.02601">
        <ele>377.874897</ele>
        <time>2026-07-08T09:30:01.000Z</time>
      </trkpt>
      <trkpt lat="47.27619" lon="16.02594">
        <ele>377.509907</ele>
        <time>2026-07-08T09:30:02.000Z</time>
      </trkpt>
      <trkpt lat="47.27612" lon="16.02588">
        <ele>377.142788</ele>
        <time>2026-07-08T09:30:03.000Z</time>
      </trkpt>
      <trkpt lat="47.27605" lon="16.02581">
        <ele>376.794147</ele>
        <time>2026-07-08T09:30:04.000Z</time>
      </trkpt>
      <trkpt lat="47.27598" lon="16.02573">
        <ele>376.446914</ele>
        <time>2026-07-08T09:30:05.000Z</time>
      </trkpt>
      <trkpt lat="47.27593" lon="16.02564">
        <ele>376.113667</ele>
        <time>2026-07-08T09:30:06.000Z</time>
      </trkpt>
      <trkpt lat="47.27588" lon="16.02554">
        <ele>375.79202</ele>
        <time>2026-07-08T09:30:07.000Z</time>
      </trkpt>
      <trkpt lat="47.27585" lon="16.02544">
        <ele>375.604701</ele>
        <time>2026-07-08T09:30:08.000Z</time>
      </trkpt>
      <trkpt lat="47.27583" lon="16.02534">
        <ele>375.716154</ele>
        <time>2026-07-08T09:30:09.000Z</time>
      </trkpt>
      <trkpt lat="47.27582" lon="16.02525">
        <ele>375.821039</ele>
        <time>2026-07-08T09:30:10.000Z</time>
      </trkpt>
      <trkpt lat="47.2758" lon="16.02515">
        <ele>375.924543</ele>
        <time>2026-07-08T09:30:11.000Z</time>
      </trkpt>
      <trkpt lat="47.27579" lon="16.02506">
        <ele>376.024597</ele>
        <time>2026-07-08T09:30:12.000Z</time>
      </trkpt>
      <trkpt lat="47.27578" lon="16.02497">
        <ele>376.122252</ele>
        <time>2026-07-08T09:30:13.000Z</time>
      </trkpt>
      <trkpt lat="47.27577" lon="16.02488">
        <ele>376.21725</ele>
        <time>2026-07-08T09:30:14.000Z</time>
      </trkpt>
      <trkpt lat="47.27576" lon="16.02479">
        <ele>376.312835</ele>
        <time>2026-07-08T09:30:15.000Z</time>
      </trkpt>
      <trkpt lat="47.27575" lon="16.02471">
        <ele>376.405255</ele>
        <time>2026-07-08T09:30:16.000Z</time>
      </trkpt>
      <trkpt lat="47.27574" lon="16.02462">
        <ele>376.496849</ele>
        <time>2026-07-08T09:30:17.000Z</time>
      </trkpt>
      <trkpt lat="47.27573" lon="16.02454">
        <ele>376.58765</ele>
        <time>2026-07-08T09:30:18.000Z</time>
      </trkpt>
      <trkpt lat="47.27572" lon="16.02446">
        <ele>376.675306</ele>
        <time>2026-07-08T09:30:19.000Z</time>
      </trkpt>
      <trkpt lat="47.27572" lon="16.02438">
        <ele>376.761401</ele>
        <time>2026-07-08T09:30:20.000Z</time>
      </trkpt>
      <trkpt lat="47.27571" lon="16.0243">
        <ele>376.847497</ele>
        <time>2026-07-08T09:30:21.000Z</time>
      </trkpt>
      <trkpt lat="47.2757" lon="16.02422">
        <ele>376.932785</ele>
        <time>2026-07-08T09:30:22.000Z</time>
      </trkpt>
      <trkpt lat="47.27569" lon="16.02414">
        <ele>377.015523</ele>
        <time>2026-07-08T09:30:23.000Z</time>
      </trkpt>
      <trkpt lat="47.27568" lon="16.02407">
        <ele>377.097565</ele>
        <time>2026-07-08T09:30:24.000Z</time>
      </trkpt>
      <trkpt lat="47.27567" lon="16.02399">
        <ele>377.1779</ele>
        <time>2026-07-08T09:30:25.000Z</time>
      </trkpt>
      <trkpt lat="47.27566" lon="16.02392">
        <ele>377.254528</ele>
        <time>2026-07-08T09:30:26.000Z</time>
      </trkpt>
      <trkpt lat="47.27565" lon="16.02385">
        <ele>377.330691</ele>
        <time>2026-07-08T09:30:27.000Z</time>
      </trkpt>
      <trkpt lat="47.27564" lon="16.02378">
        <ele>377.406854</ele>
        <time>2026-07-08T09:30:28.000Z</time>
      </trkpt>
      <trkpt lat="47.27563" lon="16.02372">
        <ele>377.479573</ele>
        <time>2026-07-08T09:30:29.000Z</time>
      </trkpt>
      <trkpt lat="47.27562" lon="16.02365">
        <ele>377.552613</ele>
        <time>2026-07-08T09:30:30.000Z</time>
      </trkpt>
      <trkpt lat="47.27561" lon="16.02359">
        <ele>377.6215</ele>
        <time>2026-07-08T09:30:31.000Z</time>
      </trkpt>
      <trkpt lat="47.2756" lon="16.02352">
        <ele>377.690387</ele>
        <time>2026-07-08T09:30:32.000Z</time>
      </trkpt>
      <trkpt lat="47.27559" lon="16.02346">
        <ele>377.758618</ele>
        <time>2026-07-08T09:30:33.000Z</time>
      </trkpt>
      <trkpt lat="47.27558" lon="16.0234">
        <ele>377.822333</ele>
        <time>2026-07-08T09:30:34.000Z</time>
      </trkpt>
      <trkpt lat="47.27557" lon="16.02335">
        <ele>377.885016</ele>
        <time>2026-07-08T09:30:35.000Z</time>
      </trkpt>
      <trkpt lat="47.27555" lon="16.02329">
        <ele>377.945571</ele>
        <time>2026-07-08T09:30:36.000Z</time>
      </trkpt>
      <trkpt lat="47.27554" lon="16.02324">
        <ele>378.004574</ele>
        <time>2026-07-08T09:30:37.000Z</time>
      </trkpt>
      <trkpt lat="47.27553" lon="16.02319">
        <ele>378.059601</ele>
        <time>2026-07-08T09:30:38.000Z</time>
      </trkpt>
      <trkpt lat="47.27551" lon="16.02315">
        <ele>378.112309</ele>
        <time>2026-07-08T09:30:39.000Z</time>
      </trkpt>
      <trkpt lat="47.2755" lon="16.02311">
        <ele>378.163593</ele>
        <time>2026-07-08T09:30:40.000Z</time>
      </trkpt>
      <trkpt lat="47.27548" lon="16.02307">
        <ele>378.21117</ele>
        <time>2026-07-08T09:30:41.000Z</time>
      </trkpt>
      <trkpt lat="47.27546" lon="16.02303">
        <ele>378.25989</ele>
        <time>2026-07-08T09:30:42.000Z</time>
      </trkpt>
      <trkpt lat="47.27544" lon="16.023">
        <ele>378.307652</ele>
        <time>2026-07-08T09:30:43.000Z</time>
      </trkpt>
      <trkpt lat="47.27541" lon="16.02297">
        <ele>378.358242</ele>
        <time>2026-07-08T09:30:44.000Z</time>
      </trkpt>
      <trkpt lat="47.27539" lon="16.02295">
        <ele>378.436048</ele>
        <time>2026-07-08T09:30:45.000Z</time>
      </trkpt>
      <trkpt lat="47.27536" lon="16.02292">
        <ele>378.599931</ele>
        <time>2026-07-08T09:30:46.000Z</time>
      </trkpt>
      <trkpt lat="47.27534" lon="16.0229">
        <ele>378.755763</ele>
        <time>2026-07-08T09:30:47.000Z</time>
      </trkpt>
      <trkpt lat="47.27531" lon="16.02288">
        <ele>378.906173</ele>
        <time>2026-07-08T09:30:48.000Z</time>
      </trkpt>
      <trkpt lat="47.27529" lon="16.02286">
        <ele>379.056583</ele>
        <time>2026-07-08T09:30:49.000Z</time>
      </trkpt>
      <trkpt lat="47.27526" lon="16.02284">
        <ele>379.202166</ele>
        <time>2026-07-08T09:30:50.000Z</time>
      </trkpt>
      <trkpt lat="47.27524" lon="16.02282">
        <ele>379.349803</ele>
        <time>2026-07-08T09:30:51.000Z</time>
      </trkpt>
      <trkpt lat="47.27521" lon="16.02281">
        <ele>379.502377</ele>
        <time>2026-07-08T09:30:52.000Z</time>
      </trkpt>
      <trkpt lat="47.27518" lon="16.02279">
        <ele>379.65495</ele>
        <time>2026-07-08T09:30:53.000Z</time>
      </trkpt>
      <trkpt lat="47.27516" lon="16.02278">
        <ele>379.812482</ele>
        <time>2026-07-08T09:30:54.000Z</time>
      </trkpt>
      <trkpt lat="47.27513" lon="16.02277">
        <ele>379.962675</ele>
        <time>2026-07-08T09:30:55.000Z</time>
      </trkpt>
      <trkpt lat="47.2751" lon="16.02275">
        <ele>380.116863</ele>
        <time>2026-07-08T09:30:56.000Z</time>
      </trkpt>
      <trkpt lat="47.27507" lon="16.02274">
        <ele>380.270088</ele>
        <time>2026-07-08T09:30:57.000Z</time>
      </trkpt>
      <trkpt lat="47.27505" lon="16.02273">
        <ele>380.419206</ele>
        <time>2026-07-08T09:30:58.000Z</time>
      </trkpt>
      <trkpt lat="47.27502" lon="16.02272">
        <ele>380.568324</ele>
        <time>2026-07-08T09:30:59.000Z</time>
      </trkpt>
      <trkpt lat="47.27499" lon="16.02271">
        <ele>380.713499</ele>
        <time>2026-07-08T09:31:00.000Z</time>
      </trkpt>
      <trkpt lat="47.27497" lon="16.02269">
        <ele>380.853678</ele>
        <time>2026-07-08T09:31:01.000Z</time>
      </trkpt>
      <trkpt lat="47.27494" lon="16.02268">
        <ele>381.000885</ele>
        <time>2026-07-08T09:31:02.000Z</time>
      </trkpt>
      <trkpt lat="47.27492" lon="16.02267">
        <ele>381.139911</ele>
        <time>2026-07-08T09:31:03.000Z</time>
      </trkpt>
      <trkpt lat="47.27489" lon="16.02266">
        <ele>381.289029</ele>
        <time>2026-07-08T09:31:04.000Z</time>
      </trkpt>
      <trkpt lat="47.27486" lon="16.02265">
        <ele>381.426003</ele>
        <time>2026-07-08T09:31:05.000Z</time>
      </trkpt>
      <trkpt lat="47.27484" lon="16.02264">
        <ele>381.563961</ele>
        <time>2026-07-08T09:31:06.000Z</time>
      </trkpt>
      <trkpt lat="47.27481" lon="16.02263">
        <ele>381.702987</ele>
        <time>2026-07-08T09:31:07.000Z</time>
      </trkpt>
      <trkpt lat="47.27479" lon="16.02261">
        <ele>381.842013</ele>
        <time>2026-07-08T09:31:08.000Z</time>
      </trkpt>
      <trkpt lat="47.27477" lon="16.0226">
        <ele>381.972267</ele>
        <time>2026-07-08T09:31:09.000Z</time>
      </trkpt>
      <trkpt lat="47.27474" lon="16.02259">
        <ele>382.111293</ele>
        <time>2026-07-08T09:31:10.000Z</time>
      </trkpt>
      <trkpt lat="47.27472" lon="16.02258">
        <ele>382.248267</ele>
        <time>2026-07-08T09:31:11.000Z</time>
      </trkpt>
      <trkpt lat="47.27469" lon="16.02257">
        <ele>382.375066</ele>
        <time>2026-07-08T09:31:12.000Z</time>
      </trkpt>
      <trkpt lat="47.27467" lon="16.02256">
        <ele>382.503784</ele>
        <time>2026-07-08T09:31:13.000Z</time>
      </trkpt>
      <trkpt lat="47.27465" lon="16.02255">
        <ele>382.630582</ele>
        <time>2026-07-08T09:31:14.000Z</time>
      </trkpt>
      <trkpt lat="47.27462" lon="16.02254">
        <ele>382.767556</ele>
        <time>2026-07-08T09:31:15.000Z</time>
      </trkpt>
      <trkpt lat="47.2746" lon="16.02253">
        <ele>382.894355</ele>
        <time>2026-07-08T09:31:16.000Z</time>
      </trkpt>
      <trkpt lat="47.27458" lon="16.02252">
        <ele>383.016091</ele>
        <time>2026-07-08T09:31:17.000Z</time>
      </trkpt>
      <trkpt lat="47.27455" lon="16.02251">
        <ele>383.142889</ele>
        <time>2026-07-08T09:31:18.000Z</time>
      </trkpt>
      <trkpt lat="47.27453" lon="16.0225">
        <ele>383.276898</ele>
        <time>2026-07-08T09:31:19.000Z</time>
      </trkpt>
      <trkpt lat="47.27451" lon="16.02249">
        <ele>383.40591</ele>
        <time>2026-07-08T09:31:20.000Z</time>
      </trkpt>
      <trkpt lat="47.27448" lon="16.02248">
        <ele>383.543868</ele>
        <time>2026-07-08T09:31:21.000Z</time>
      </trkpt>
      <trkpt lat="47.27446" lon="16.02246">
        <ele>383.686595</ele>
        <time>2026-07-08T09:31:22.000Z</time>
      </trkpt>
      <trkpt lat="47.27443" lon="16.02245">
        <ele>383.815607</ele>
        <time>2026-07-08T09:31:23.000Z</time>
      </trkpt>
      <trkpt lat="47.27441" lon="16.02244">
        <ele>383.950879</ele>
        <time>2026-07-08T09:31:24.000Z</time>
      </trkpt>
      <trkpt lat="47.27438" lon="16.02243">
        <ele>384.082758</ele>
        <time>2026-07-08T09:31:25.000Z</time>
      </trkpt>
      <trkpt lat="47.27436" lon="16.02242">
        <ele>384.209557</ele>
        <time>2026-07-08T09:31:26.000Z</time>
      </trkpt>
      <trkpt lat="47.27434" lon="16.02241">
        <ele>384.336355</ele>
        <time>2026-07-08T09:31:27.000Z</time>
      </trkpt>
      <trkpt lat="47.27431" lon="16.0224">
        <ele>384.468234</ele>
        <time>2026-07-08T09:31:28.000Z</time>
      </trkpt>
      <trkpt lat="47.27429" lon="16.02239">
        <ele>384.595032</ele>
        <time>2026-07-08T09:31:29.000Z</time>
      </trkpt>
      <trkpt lat="47.27427" lon="16.02238">
        <ele>384.721831</ele>
        <time>2026-07-08T09:31:30.000Z</time>
      </trkpt>
      <trkpt lat="47.27424" lon="16.02237">
        <ele>384.85584</ele>
        <time>2026-07-08T09:31:31.000Z</time>
      </trkpt>
      <trkpt lat="47.27422" lon="16.02236">
        <ele>384.972533</ele>
        <time>2026-07-08T09:31:32.000Z</time>
      </trkpt>
      <trkpt lat="47.2742" lon="16.02235">
        <ele>385.094269</ele>
        <time>2026-07-08T09:31:33.000Z</time>
      </trkpt>
      <trkpt lat="47.27418" lon="16.02234">
        <ele>385.214087</ele>
        <time>2026-07-08T09:31:34.000Z</time>
      </trkpt>
      <trkpt lat="47.27416" lon="16.02233">
        <ele>385.340886</ele>
        <time>2026-07-08T09:31:35.000Z</time>
      </trkpt>
      <trkpt lat="47.27413" lon="16.02233">
        <ele>385.459895</ele>
        <time>2026-07-08T09:31:36.000Z</time>
      </trkpt>
      <trkpt lat="47.27411" lon="16.02232">
        <ele>385.574586</ele>
        <time>2026-07-08T09:31:37.000Z</time>
      </trkpt>
      <trkpt lat="47.27409" lon="16.02231">
        <ele>385.696322</ele>
        <time>2026-07-08T09:31:38.000Z</time>
      </trkpt>
      <trkpt lat="47.27407" lon="16.0223">
        <ele>385.806896</ele>
        <time>2026-07-08T09:31:39.000Z</time>
      </trkpt>
      <trkpt lat="47.27405" lon="16.02229">
        <ele>385.906308</ele>
        <time>2026-07-08T09:31:40.000Z</time>
      </trkpt>
      <trkpt lat="47.27403" lon="16.02228">
        <ele>386.012988</ele>
        <time>2026-07-08T09:31:41.000Z</time>
      </trkpt>
      <trkpt lat="47.27402" lon="16.02227">
        <ele>386.102327</ele>
        <time>2026-07-08T09:31:42.000Z</time>
      </trkpt>
      <trkpt lat="47.274" lon="16.02226">
        <ele>386.197841</ele>
        <time>2026-07-08T09:31:43.000Z</time>
      </trkpt>
      <trkpt lat="47.27398" lon="16.02226">
        <ele>386.292203</ele>
        <time>2026-07-08T09:31:44.000Z</time>
      </trkpt>
      <trkpt lat="47.27397" lon="16.02225">
        <ele>386.381542</ele>
        <time>2026-07-08T09:31:45.000Z</time>
      </trkpt>
      <trkpt lat="47.27395" lon="16.02224">
        <ele>386.464739</ele>
        <time>2026-07-08T09:31:46.000Z</time>
      </trkpt>
      <trkpt lat="47.27394" lon="16.02223">
        <ele>386.549088</ele>
        <time>2026-07-08T09:31:47.000Z</time>
      </trkpt>
      <trkpt lat="47.27392" lon="16.02222">
        <ele>386.634724</ele>
        <time>2026-07-08T09:31:48.000Z</time>
      </trkpt>
      <trkpt lat="47.27391" lon="16.02222">
        <ele>386.729086</ele>
        <time>2026-07-08T09:31:49.000Z</time>
      </trkpt>
      <trkpt lat="47.27389" lon="16.0222">
        <ele>386.828754</ele>
        <time>2026-07-08T09:31:50.000Z</time>
      </trkpt>
      <trkpt lat="47.27387" lon="16.0222">
        <ele>386.928166</ele>
        <time>2026-07-08T09:31:51.000Z</time>
      </trkpt>
      <trkpt lat="47.27385" lon="16.02219">
        <ele>387.026603</ele>
        <time>2026-07-08T09:31:52.000Z</time>
      </trkpt>
      <trkpt lat="47.27383" lon="16.02218">
        <ele>387.136182</ele>
        <time>2026-07-08T09:31:53.000Z</time>
      </trkpt>
      <trkpt lat="47.27381" lon="16.02217">
        <ele>387.244877</ele>
        <time>2026-07-08T09:31:54.000Z</time>
      </trkpt>
      <trkpt lat="47.27379" lon="16.02217">
        <ele>387.354457</ele>
        <time>2026-07-08T09:31:55.000Z</time>
      </trkpt>
      <trkpt lat="47.27377" lon="16.02216">
        <ele>387.466131</ele>
        <time>2026-07-08T09:31:56.000Z</time>
      </trkpt>
      <trkpt lat="47.27375" lon="16.02215">
        <ele>387.585141</ele>
        <time>2026-07-08T09:31:57.000Z</time>
      </trkpt>
      <trkpt lat="47.27373" lon="16.02214">
        <ele>387.702845</ele>
        <time>2026-07-08T09:31:58.000Z</time>
      </trkpt>
      <trkpt lat="47.27371" lon="16.02214">
        <ele>387.815954</ele>
        <time>2026-07-08T09:31:59.000Z</time>
      </trkpt>
      <trkpt lat="47.27369" lon="16.02213">
        <ele>387.932311</ele>
        <time>2026-07-08T09:32:00.000Z</time>
      </trkpt>
      <trkpt lat="47.27367" lon="16.02212">
        <ele>388.069585</ele>
        <time>2026-07-08T09:32:01.000Z</time>
      </trkpt>
      <trkpt lat="47.27365" lon="16.02211">
        <ele>388.211631</ele>
        <time>2026-07-08T09:32:02.000Z</time>
      </trkpt>
      <trkpt lat="47.27363" lon="16.0221">
        <ele>388.352277</ele>
        <time>2026-07-08T09:32:03.000Z</time>
      </trkpt>
      <trkpt lat="47.27361" lon="16.0221">
        <ele>388.502757</ele>
        <time>2026-07-08T09:32:04.000Z</time>
      </trkpt>
      <trkpt lat="47.27359" lon="16.02209">
        <ele>388.641013</ele>
        <time>2026-07-08T09:32:05.000Z</time>
      </trkpt>
      <trkpt lat="47.27357" lon="16.02208">
        <ele>388.77927</ele>
        <time>2026-07-08T09:32:06.000Z</time>
      </trkpt>
      <trkpt lat="47.27355" lon="16.02208">
        <ele>388.903392</ele>
        <time>2026-07-08T09:32:07.000Z</time>
      </trkpt>
      <trkpt lat="47.27353" lon="16.02207">
        <ele>389.035114</ele>
        <time>2026-07-08T09:32:08.000Z</time>
      </trkpt>
      <trkpt lat="47.27351" lon="16.02207">
        <ele>389.15831</ele>
        <time>2026-07-08T09:32:09.000Z</time>
      </trkpt>
      <trkpt lat="47.27349" lon="16.02206">
        <ele>389.277027</ele>
        <time>2026-07-08T09:32:10.000Z</time>
      </trkpt>
      <trkpt lat="47.27348" lon="16.02205">
        <ele>389.403476</ele>
        <time>2026-07-08T09:32:11.000Z</time>
      </trkpt>
      <trkpt lat="47.27346" lon="16.02205">
        <ele>389.520068</ele>
        <time>2026-07-08T09:32:12.000Z</time>
      </trkpt>
      <trkpt lat="47.27344" lon="16.02204">
        <ele>389.632322</ele>
        <time>2026-07-08T09:32:13.000Z</time>
      </trkpt>
      <trkpt lat="47.27342" lon="16.02203">
        <ele>389.762133</ele>
        <time>2026-07-08T09:32:14.000Z</time>
      </trkpt>
      <trkpt lat="47.27341" lon="16.02203">
        <ele>389.885329</ele>
        <time>2026-07-08T09:32:15.000Z</time>
      </trkpt>
      <trkpt lat="47.27339" lon="16.02202">
        <ele>390.008525</ele>
        <time>2026-07-08T09:32:16.000Z</time>
      </trkpt>
      <trkpt lat="47.27337" lon="16.02202">
        <ele>390.12855</ele>
        <time>2026-07-08T09:32:17.000Z</time>
      </trkpt>
      <trkpt lat="47.27335" lon="16.02201">
        <ele>390.247267</ele>
        <time>2026-07-08T09:32:18.000Z</time>
      </trkpt>
      <trkpt lat="47.27334" lon="16.022">
        <ele>390.360904</ele>
        <time>2026-07-08T09:32:19.000Z</time>
      </trkpt>
      <trkpt lat="47.27332" lon="16.022">
        <ele>390.490715</ele>
        <time>2026-07-08T09:32:20.000Z</time>
      </trkpt>
      <trkpt lat="47.2733" lon="16.02199">
        <ele>390.615922</ele>
        <time>2026-07-08T09:32:21.000Z</time>
      </trkpt>
      <trkpt lat="47.27328" lon="16.02198">
        <ele>390.739118</ele>
        <time>2026-07-08T09:32:22.000Z</time>
      </trkpt>
      <trkpt lat="47.27326" lon="16.02198">
        <ele>390.868929</ele>
        <time>2026-07-08T09:32:23.000Z</time>
      </trkpt>
      <trkpt lat="47.27325" lon="16.02197">
        <ele>390.995378</ele>
        <time>2026-07-08T09:32:24.000Z</time>
      </trkpt>
      <trkpt lat="47.27323" lon="16.02196">
        <ele>391.120586</ele>
        <time>2026-07-08T09:32:25.000Z</time>
      </trkpt>
      <trkpt lat="47.27321" lon="16.02196">
        <ele>391.251276</ele>
        <time>2026-07-08T09:32:26.000Z</time>
      </trkpt>
      <trkpt lat="47.27319" lon="16.02195">
        <ele>391.361281</ele>
        <time>2026-07-08T09:32:27.000Z</time>
      </trkpt>
      <trkpt lat="47.27317" lon="16.02195">
        <ele>391.493004</ele>
        <time>2026-07-08T09:32:28.000Z</time>
      </trkpt>
      <trkpt lat="47.27316" lon="16.02194">
        <ele>391.618211</ele>
        <time>2026-07-08T09:32:29.000Z</time>
      </trkpt>
      <trkpt lat="47.27314" lon="16.02193">
        <ele>391.741407</ele>
        <time>2026-07-08T09:32:30.000Z</time>
      </trkpt>
      <trkpt lat="47.27312" lon="16.02193">
        <ele>391.871218</ele>
        <time>2026-07-08T09:32:31.000Z</time>
      </trkpt>
      <trkpt lat="47.2731" lon="16.02192">
        <ele>391.997667</ele>
        <time>2026-07-08T09:32:32.000Z</time>
      </trkpt>
      <trkpt lat="47.27308" lon="16.02191">
        <ele>392.117693</ele>
        <time>2026-07-08T09:32:33.000Z</time>
      </trkpt>
      <trkpt lat="47.27307" lon="16.02191">
        <ele>392.240888</ele>
        <time>2026-07-08T09:32:34.000Z</time>
      </trkpt>
      <trkpt lat="47.27305" lon="16.0219">
        <ele>392.364084</ele>
        <time>2026-07-08T09:32:35.000Z</time>
      </trkpt>
      <trkpt lat="47.27303" lon="16.0219">
        <ele>392.493895</ele>
        <time>2026-07-08T09:32:36.000Z</time>
      </trkpt>
      <trkpt lat="47.27301" lon="16.02189">
        <ele>392.616328</ele>
        <time>2026-07-08T09:32:37.000Z</time>
      </trkpt>
      <trkpt lat="47.27299" lon="16.02189">
        <ele>392.74045</ele>
        <time>2026-07-08T09:32:38.000Z</time>
      </trkpt>
      <trkpt lat="47.27298" lon="16.02188">
        <ele>392.859167</ele>
        <time>2026-07-08T09:32:39.000Z</time>
      </trkpt>
      <trkpt lat="47.27296" lon="16.02187">
        <ele>392.984374</ele>
        <time>2026-07-08T09:32:40.000Z</time>
      </trkpt>
      <trkpt lat="47.27294" lon="16.02187">
        <ele>393.100967</ele>
        <time>2026-07-08T09:32:41.000Z</time>
      </trkpt>
      <trkpt lat="47.27292" lon="16.02187">
        <ele>393.222803</ele>
        <time>2026-07-08T09:32:42.000Z</time>
      </trkpt>
      <trkpt lat="47.2729" lon="16.02186">
        <ele>393.352614</ele>
        <time>2026-07-08T09:32:43.000Z</time>
      </trkpt>
      <trkpt lat="47.27289" lon="16.02186">
        <ele>393.47581</ele>
        <time>2026-07-08T09:32:44.000Z</time>
      </trkpt>
      <trkpt lat="47.27287" lon="16.02185">
        <ele>393.601018</ele>
        <time>2026-07-08T09:32:45.000Z</time>
      </trkpt>
      <trkpt lat="47.27285" lon="16.02184">
        <ele>393.737455</ele>
        <time>2026-07-08T09:32:46.000Z</time>
      </trkpt>
      <trkpt lat="47.27283" lon="16.02184">
        <ele>393.867266</ele>
        <time>2026-07-08T09:32:47.000Z</time>
      </trkpt>
      <trkpt lat="47.27281" lon="16.02183">
        <ele>393.990462</ele>
        <time>2026-07-08T09:32:48.000Z</time>
      </trkpt>
      <trkpt lat="47.27279" lon="16.02183">
        <ele>394.113658</ele>
        <time>2026-07-08T09:32:49.000Z</time>
      </trkpt>
      <trkpt lat="47.27277" lon="16.02182">
        <ele>394.244348</ele>
        <time>2026-07-08T09:32:50.000Z</time>
      </trkpt>
      <trkpt lat="47.27275" lon="16.02181">
        <ele>394.384994</ele>
        <time>2026-07-08T09:32:51.000Z</time>
      </trkpt>
      <trkpt lat="47.27274" lon="16.02181">
        <ele>394.511444</ele>
        <time>2026-07-08T09:32:52.000Z</time>
      </trkpt>
      <trkpt lat="47.27272" lon="16.0218">
        <ele>394.637893</ele>
        <time>2026-07-08T09:32:53.000Z</time>
      </trkpt>
      <trkpt lat="47.2727" lon="16.02179">
        <ele>394.77433</ele>
        <time>2026-07-08T09:32:54.000Z</time>
      </trkpt>
      <trkpt lat="47.27268" lon="16.02179">
        <ele>394.903417</ele>
        <time>2026-07-08T09:32:55.000Z</time>
      </trkpt>
      <trkpt lat="47.27266" lon="16.02178">
        <ele>395.039855</ele>
        <time>2026-07-08T09:32:56.000Z</time>
      </trkpt>
      <trkpt lat="47.27264" lon="16.02178">
        <ele>395.176292</ele>
        <time>2026-07-08T09:32:57.000Z</time>
      </trkpt>
      <trkpt lat="47.27262" lon="16.02178">
        <ele>395.298128</ele>
        <time>2026-07-08T09:32:58.000Z</time>
      </trkpt>
      <trkpt lat="47.2726" lon="16.02177">
        <ele>395.432953</ele>
        <time>2026-07-08T09:32:59.000Z</time>
      </trkpt>
      <trkpt lat="47.27258" lon="16.02177">
        <ele>395.567546</ele>
        <time>2026-07-08T09:33:00.000Z</time>
      </trkpt>
      <trkpt lat="47.27256" lon="16.02177">
        <ele>395.703983</ele>
        <time>2026-07-08T09:33:01.000Z</time>
      </trkpt>
      <trkpt lat="47.27254" lon="16.02176">
        <ele>395.840421</ele>
        <time>2026-07-08T09:33:02.000Z</time>
      </trkpt>
      <trkpt lat="47.27252" lon="16.02176">
        <ele>395.965628</ele>
        <time>2026-07-08T09:33:03.000Z</time>
      </trkpt>
      <trkpt lat="47.2725" lon="16.02175">
        <ele>396.105011</ele>
        <time>2026-07-08T09:33:04.000Z</time>
      </trkpt>
      <trkpt lat="47.27248" lon="16.02174">
        <ele>396.243267</ele>
        <time>2026-07-08T09:33:05.000Z</time>
      </trkpt>
      <trkpt lat="47.27246" lon="16.02174">
        <ele>396.392984</ele>
        <time>2026-07-08T09:33:06.000Z</time>
      </trkpt>
      <trkpt lat="47.27244" lon="16.02173">
        <ele>396.547829</ele>
        <time>2026-07-08T09:33:07.000Z</time>
      </trkpt>
      <trkpt lat="47.27242" lon="16.02172">
        <ele>396.692638</ele>
        <time>2026-07-08T09:33:08.000Z</time>
      </trkpt>
      <trkpt lat="47.2724" lon="16.02171">
        <ele>396.829912</ele>
        <time>2026-07-08T09:33:09.000Z</time>
      </trkpt>
      <trkpt lat="47.27238" lon="16.02171">
        <ele>396.979628</ele>
        <time>2026-07-08T09:33:10.000Z</time>
      </trkpt>
      <trkpt lat="47.27235" lon="16.0217">
        <ele>397.128717</ele>
        <time>2026-07-08T09:33:11.000Z</time>
      </trkpt>
      <trkpt lat="47.27233" lon="16.0217">
        <ele>397.285084</ele>
        <time>2026-07-08T09:33:12.000Z</time>
      </trkpt>
      <trkpt lat="47.27231" lon="16.0217">
        <ele>397.433684</ele>
        <time>2026-07-08T09:33:13.000Z</time>
      </trkpt>
      <trkpt lat="47.27229" lon="16.02169">
        <ele>397.575587</ele>
        <time>2026-07-08T09:33:14.000Z</time>
      </trkpt>
      <trkpt lat="47.27226" lon="16.02169">
        <ele>397.738611</ele>
        <time>2026-07-08T09:33:15.000Z</time>
      </trkpt>
      <trkpt lat="47.27224" lon="16.02168">
        <ele>397.894978</ele>
        <time>2026-07-08T09:33:16.000Z</time>
      </trkpt>
      <trkpt lat="47.27222" lon="16.02168">
        <ele>398.044694</ele>
        <time>2026-07-08T09:33:17.000Z</time>
      </trkpt>
      <trkpt lat="47.2722" lon="16.02167">
        <ele>398.202651</ele>
        <time>2026-07-08T09:33:18.000Z</time>
      </trkpt>
      <trkpt lat="47.27217" lon="16.02167">
        <ele>398.371353</ele>
        <time>2026-07-08T09:33:19.000Z</time>
      </trkpt>
      <trkpt lat="47.27215" lon="16.02166">
        <ele>398.540485</ele>
        <time>2026-07-08T09:33:20.000Z</time>
      </trkpt>
      <trkpt lat="47.27209" lon="16.02165">
        <ele>398.893811</ele>
        <time>2026-07-08T09:33:21.000Z</time>
      </trkpt>
      <trkpt lat="47.27207" lon="16.02164">
        <ele>399.074538</ele>
        <time>2026-07-08T09:33:23.000Z</time>
      </trkpt>
      <trkpt lat="47.27204" lon="16.02164">
        <ele>399.272184</ele>
        <time>2026-07-08T09:33:24.000Z</time>
      </trkpt>
      <trkpt lat="47.27198" lon="16.02162">
        <ele>399.686096</ele>
        <time>2026-07-08T09:33:25.000Z</time>
      </trkpt>
      <trkpt lat="47.27195" lon="16.02162">
        <ele>399.902528</ele>
        <time>2026-07-08T09:33:26.000Z</time>
      </trkpt>
      <trkpt lat="47.27191" lon="16.02161">
        <ele>400.01534</ele>
        <time>2026-07-08T09:33:27.000Z</time>
      </trkpt>
      <trkpt lat="47.27188" lon="16.02161">
        <ele>400.037538</ele>
        <time>2026-07-08T09:33:28.000Z</time>
      </trkpt>
      <trkpt lat="47.27185" lon="16.0216">
        <ele>400.059869</ele>
        <time>2026-07-08T09:33:29.000Z</time>
      </trkpt>
      <trkpt lat="47.27182" lon="16.0216">
        <ele>400.082797</ele>
        <time>2026-07-08T09:33:30.000Z</time>
      </trkpt>
      <trkpt lat="47.27179" lon="16.02159">
        <ele>400.106456</ele>
        <time>2026-07-08T09:33:31.000Z</time>
      </trkpt>
      <trkpt lat="47.27176" lon="16.02159">
        <ele>400.128654</ele>
        <time>2026-07-08T09:33:32.000Z</time>
      </trkpt>
      <trkpt lat="47.27173" lon="16.02158">
        <ele>400.153044</ele>
        <time>2026-07-08T09:33:33.000Z</time>
      </trkpt>
      <trkpt lat="47.2717" lon="16.02157">
        <ele>400.176829</ele>
        <time>2026-07-08T09:33:34.000Z</time>
      </trkpt>
      <trkpt lat="47.27166" lon="16.02157">
        <ele>400.20287</ele>
        <time>2026-07-08T09:33:35.000Z</time>
      </trkpt>
      <trkpt lat="47.27163" lon="16.02156">
        <ele>400.227458</ele>
        <time>2026-07-08T09:33:36.000Z</time>
      </trkpt>
      <trkpt lat="47.27159" lon="16.02155">
        <ele>400.25367</ele>
        <time>2026-07-08T09:33:37.000Z</time>
      </trkpt>
      <trkpt lat="47.27156" lon="16.02154">
        <ele>400.281097</ele>
        <time>2026-07-08T09:33:38.000Z</time>
      </trkpt>
      <trkpt lat="47.27152" lon="16.02154">
        <ele>400.30695</ele>
        <time>2026-07-08T09:33:39.000Z</time>
      </trkpt>
      <trkpt lat="47.27148" lon="16.02153">
        <ele>400.334172</ele>
        <time>2026-07-08T09:33:40.000Z</time>
      </trkpt>
      <trkpt lat="47.27145" lon="16.02153">
        <ele>400.362222</ele>
        <time>2026-07-08T09:33:41.000Z</time>
      </trkpt>
      <trkpt lat="47.27141" lon="16.02152">
        <ele>400.39032</ele>
        <time>2026-07-08T09:33:42.000Z</time>
      </trkpt>
      <trkpt lat="47.27137" lon="16.02152">
        <ele>400.419206</ele>
        <time>2026-07-08T09:33:43.000Z</time>
      </trkpt>
      <trkpt lat="47.27133" lon="16.02151">
        <ele>400.448884</ele>
        <time>2026-07-08T09:33:44.000Z</time>
      </trkpt>
      <trkpt lat="47.27129" lon="16.0215">
        <ele>400.478714</ele>
        <time>2026-07-08T09:33:45.000Z</time>
      </trkpt>
      <trkpt lat="47.27125" lon="16.02149">
        <ele>400.508543</ele>
        <time>2026-07-08T09:33:46.000Z</time>
      </trkpt>
      <trkpt lat="47.27121" lon="16.02148">
        <ele>400.538158</ele>
        <time>2026-07-08T09:33:47.000Z</time>
      </trkpt>
      <trkpt lat="47.27117" lon="16.02148">
        <ele>400.56834</ele>
        <time>2026-07-08T09:33:48.000Z</time>
      </trkpt>
      <trkpt lat="47.27113" lon="16.02147">
        <ele>400.597817</ele>
        <time>2026-07-08T09:33:49.000Z</time>
      </trkpt>
      <trkpt lat="47.27109" lon="16.02147">
        <ele>400.628841</ele>
        <time>2026-07-08T09:33:50.000Z</time>
      </trkpt>
      <trkpt lat="47.27104" lon="16.02146">
        <ele>400.660847</ele>
        <time>2026-07-08T09:33:51.000Z</time>
      </trkpt>
      <trkpt lat="47.271" lon="16.02145">
        <ele>400.693579</ele>
        <time>2026-07-08T09:33:52.000Z</time>
      </trkpt>
      <trkpt lat="47.27096" lon="16.02144">
        <ele>400.725386</ele>
        <time>2026-07-08T09:33:53.000Z</time>
      </trkpt>
      <trkpt lat="47.27091" lon="16.02144">
        <ele>400.757099</ele>
        <time>2026-07-08T09:33:54.000Z</time>
      </trkpt>
      <trkpt lat="47.27087" lon="16.02143">
        <ele>400.789637</ele>
        <time>2026-07-08T09:33:55.000Z</time>
      </trkpt>
      <trkpt lat="47.27083" lon="16.02142">
        <ele>400.821393</ele>
        <time>2026-07-08T09:33:56.000Z</time>
      </trkpt>
      <trkpt lat="47.27078" lon="16.02142">
        <ele>400.854662</ele>
        <time>2026-07-08T09:33:57.000Z</time>
      </trkpt>
      <trkpt lat="47.27074" lon="16.02141">
        <ele>400.887987</ele>
        <time>2026-07-08T09:33:58.000Z</time>
      </trkpt>
      <trkpt lat="47.27069" lon="16.0214">
        <ele>400.921376</ele>
        <time>2026-07-08T09:33:59.000Z</time>
      </trkpt>
      <trkpt lat="47.27065" lon="16.02139">
        <ele>400.954596</ele>
        <time>2026-07-08T09:34:00.000Z</time>
      </trkpt>
      <trkpt lat="47.2706" lon="16.02139">
        <ele>400.986403</ele>
        <time>2026-07-08T09:34:01.000Z</time>
      </trkpt>
      <trkpt lat="47.27056" lon="16.02138">
        <ele>401.018849</ele>
        <time>2026-07-08T09:34:02.000Z</time>
      </trkpt>
      <trkpt lat="47.27052" lon="16.02138">
        <ele>401.049096</ele>
        <time>2026-07-08T09:34:03.000Z</time>
      </trkpt>
      <trkpt lat="47.27048" lon="16.02137">
        <ele>401.080076</ele>
        <time>2026-07-08T09:34:04.000Z</time>
      </trkpt>
      <trkpt lat="47.27044" lon="16.02136">
        <ele>401.109692</ele>
        <time>2026-07-08T09:34:05.000Z</time>
      </trkpt>
      <trkpt lat="47.27039" lon="16.02136">
        <ele>401.140608</ele>
        <time>2026-07-08T09:34:06.000Z</time>
      </trkpt>
      <trkpt lat="47.27035" lon="16.02136">
        <ele>401.170855</ele>
        <time>2026-07-08T09:34:07.000Z</time>
      </trkpt>
      <trkpt lat="47.27031" lon="16.02135">
        <ele>401.201835</ele>
        <time>2026-07-08T09:34:08.000Z</time>
      </trkpt>
      <trkpt lat="47.27027" lon="16.02134">
        <ele>401.231451</ele>
        <time>2026-07-08T09:34:09.000Z</time>
      </trkpt>
      <trkpt lat="47.27023" lon="16.02134">
        <ele>401.260898</ele>
        <time>2026-07-08T09:34:10.000Z</time>
      </trkpt>
      <trkpt lat="47.27019" lon="16.02134">
        <ele>401.288948</ele>
        <time>2026-07-08T09:34:11.000Z</time>
      </trkpt>
      <trkpt lat="47.27016" lon="16.02133">
        <ele>401.316169</ele>
        <time>2026-07-08T09:34:12.000Z</time>
      </trkpt>
      <trkpt lat="47.27012" lon="16.02133">
        <ele>401.388294</ele>
        <time>2026-07-08T09:34:13.000Z</time>
      </trkpt>
      <trkpt lat="47.27009" lon="16.02132">
        <ele>401.491456</ele>
        <time>2026-07-08T09:34:14.000Z</time>
      </trkpt>
      <trkpt lat="47.27006" lon="16.0213">
        <ele>401.594211</ele>
        <time>2026-07-08T09:34:15.000Z</time>
      </trkpt>
      <trkpt lat="47.27002" lon="16.02128">
        <ele>401.705907</ele>
        <time>2026-07-08T09:34:16.000Z</time>
      </trkpt>
      <trkpt lat="47.26999" lon="16.02126">
        <ele>401.818215</ele>
        <time>2026-07-08T09:34:17.000Z</time>
      </trkpt>
      <trkpt lat="47.26996" lon="16.02122">
        <ele>401.922586</ele>
        <time>2026-07-08T09:34:18.000Z</time>
      </trkpt>
      <trkpt lat="47.26994" lon="16.02119">
        <ele>402.013435</ele>
        <time>2026-07-08T09:34:19.000Z</time>
      </trkpt>
      <trkpt lat="47.26993" lon="16.02116">
        <ele>402.080299</ele>
        <time>2026-07-08T09:34:20.000Z</time>
      </trkpt>
      <trkpt lat="47.26992" lon="16.02113">
        <ele>402.139782</ele>
        <time>2026-07-08T09:34:21.000Z</time>
      </trkpt>
      <trkpt lat="47.26991" lon="16.02111">
        <ele>402.185217</ele>
        <time>2026-07-08T09:34:22.000Z</time>
      </trkpt>
      <trkpt lat="47.26991" lon="16.02111">
        <ele>402.200265</ele>
        <time>2026-07-08T09:34:23.000Z</time>
      </trkpt>
      <trkpt lat="47.26988" lon="16.02114">
        <ele>402.300877</ele>
        <time>2026-07-08T09:34:35.000Z</time>
      </trkpt>
      <trkpt lat="47.26989" lon="16.02116">
        <ele>402.355439</ele>
        <time>2026-07-08T09:34:36.000Z</time>
      </trkpt>
      <trkpt lat="47.26989" lon="16.02119">
        <ele>402.417809</ele>
        <time>2026-07-08T09:34:37.000Z</time>
      </trkpt>
      <trkpt lat="47.2699" lon="16.02123">
        <ele>402.48269</ele>
        <time>2026-07-08T09:34:38.000Z</time>
      </trkpt>
      <trkpt lat="47.26989" lon="16.02126">
        <ele>402.550573</ele>
        <time>2026-07-08T09:34:39.000Z</time>
      </trkpt>
      <trkpt lat="47.26987" lon="16.02128">
        <ele>402.614323</ele>
        <time>2026-07-08T09:34:40.000Z</time>
      </trkpt>
      <trkpt lat="47.26985" lon="16.02129">
        <ele>402.696691</ele>
        <time>2026-07-08T09:34:41.000Z</time>
      </trkpt>
      <trkpt lat="47.26982" lon="16.02129">
        <ele>402.780224</ele>
        <time>2026-07-08T09:34:42.000Z</time>
      </trkpt>
      <trkpt lat="47.26979" lon="16.02129">
        <ele>402.875439</ele>
        <time>2026-07-08T09:34:43.000Z</time>
      </trkpt>
      <trkpt lat="47.26975" lon="16.02129">
        <ele>402.970847</ele>
        <time>2026-07-08T09:34:44.000Z</time>
      </trkpt>
      <trkpt lat="47.26972" lon="16.0213">
        <ele>403.069369</ele>
        <time>2026-07-08T09:34:45.000Z</time>
      </trkpt>
      <trkpt lat="47.26969" lon="16.0213">
        <ele>403.168077</ele>
        <time>2026-07-08T09:34:46.000Z</time>
      </trkpt>
      <trkpt lat="47.26965" lon="16.0213">
        <ele>403.269264</ele>
        <time>2026-07-08T09:34:47.000Z</time>
      </trkpt>
      <trkpt lat="47.26962" lon="16.02131">
        <ele>403.361856</ele>
        <time>2026-07-08T09:34:48.000Z</time>
      </trkpt>
      <trkpt lat="47.26959" lon="16.02131">
        <ele>403.463525</ele>
        <time>2026-07-08T09:34:49.000Z</time>
      </trkpt>
      <trkpt lat="47.26956" lon="16.02132">
        <ele>403.556315</ele>
        <time>2026-07-08T09:34:50.000Z</time>
      </trkpt>
      <trkpt lat="47.26952" lon="16.02133">
        <ele>403.661702</ele>
        <time>2026-07-08T09:34:51.000Z</time>
      </trkpt>
      <trkpt lat="47.26949" lon="16.02133">
        <ele>403.767089</ele>
        <time>2026-07-08T09:34:52.000Z</time>
      </trkpt>
      <trkpt lat="47.26945" lon="16.02134">
        <ele>403.879018</ele>
        <time>2026-07-08T09:34:53.000Z</time>
      </trkpt>
      <trkpt lat="47.26941" lon="16.02135">
        <ele>403.9906</ele>
        <time>2026-07-08T09:34:54.000Z</time>
      </trkpt>
      <trkpt lat="47.26938" lon="16.02136">
        <ele>404.095986</ele>
        <time>2026-07-08T09:34:55.000Z</time>
      </trkpt>
      <trkpt lat="47.26935" lon="16.02137">
        <ele>404.195497</ele>
        <time>2026-07-08T09:34:56.000Z</time>
      </trkpt>
      <trkpt lat="47.26932" lon="16.02138">
        <ele>404.286592</ele>
        <time>2026-07-08T09:34:57.000Z</time>
      </trkpt>
      <trkpt lat="47.26929" lon="16.02139">
        <ele>404.378111</ele>
        <time>2026-07-08T09:34:58.000Z</time>
      </trkpt>
      <trkpt lat="47.26926" lon="16.0214">
        <ele>404.46963</ele>
        <time>2026-07-08T09:34:59.000Z</time>
      </trkpt>
      <trkpt lat="47.26923" lon="16.02141">
        <ele>404.551576</ele>
        <time>2026-07-08T09:35:00.000Z</time>
      </trkpt>
      <trkpt lat="47.2692" lon="16.02141">
        <ele>404.63644</ele>
        <time>2026-07-08T09:35:01.000Z</time>
      </trkpt>
      <trkpt lat="47.26917" lon="16.02142">
        <ele>404.727535</ele>
        <time>2026-07-08T09:35:02.000Z</time>
      </trkpt>
      <trkpt lat="47.26914" lon="16.02143">
        <ele>404.808505</ele>
        <time>2026-07-08T09:35:03.000Z</time>
      </trkpt>
      <trkpt lat="47.26911" lon="16.02143">
        <ele>404.898587</ele>
        <time>2026-07-08T09:35:04.000Z</time>
      </trkpt>
      <trkpt lat="47.26909" lon="16.02144">
        <ele>404.983859</ele>
        <time>2026-07-08T09:35:05.000Z</time>
      </trkpt>
      <trkpt lat="47.26906" lon="16.02145">
        <ele>405.066695</ele>
        <time>2026-07-08T09:35:06.000Z</time>
      </trkpt>
      <trkpt lat="47.26903" lon="16.02146">
        <ele>405.145726</ele>
        <time>2026-07-08T09:35:07.000Z</time>
      </trkpt>
      <trkpt lat="47.26901" lon="16.02147">
        <ele>405.223959</ele>
        <time>2026-07-08T09:35:08.000Z</time>
      </trkpt>
      <trkpt lat="47.26898" lon="16.02148">
        <ele>405.301037</ele>
        <time>2026-07-08T09:35:09.000Z</time>
      </trkpt>
      <trkpt lat="47.26896" lon="16.02149">
        <ele>405.377158</ele>
        <time>2026-07-08T09:35:10.000Z</time>
      </trkpt>
      <trkpt lat="47.26893" lon="16.0215">
        <ele>405.459103</ele>
        <time>2026-07-08T09:35:11.000Z</time>
      </trkpt>
      <trkpt lat="47.2689" lon="16.02151">
        <ele>405.541471</ele>
        <time>2026-07-08T09:35:12.000Z</time>
      </trkpt>
      <trkpt lat="47.26888" lon="16.02152">
        <ele>405.627195</ele>
        <time>2026-07-08T09:35:13.000Z</time>
      </trkpt>
      <trkpt lat="47.26885" lon="16.02153">
        <ele>405.710032</ele>
        <time>2026-07-08T09:35:14.000Z</time>
      </trkpt>
      <trkpt lat="47.26882" lon="16.02154">
        <ele>405.794896</ele>
        <time>2026-07-08T09:35:15.000Z</time>
      </trkpt>
      <trkpt lat="47.26879" lon="16.02155">
        <ele>405.880621</ele>
        <time>2026-07-08T09:35:16.000Z</time>
      </trkpt>
      <trkpt lat="47.26876" lon="16.02156">
        <ele>405.969241</ele>
        <time>2026-07-08T09:35:17.000Z</time>
      </trkpt>
      <trkpt lat="47.26874" lon="16.02156">
        <ele>406.047883</ele>
        <time>2026-07-08T09:35:18.000Z</time>
      </trkpt>
      <trkpt lat="47.26871" lon="16.02157">
        <ele>406.124962</ele>
        <time>2026-07-08T09:35:19.000Z</time>
      </trkpt>
      <trkpt lat="47.26869" lon="16.02158">
        <ele>406.20204</ele>
        <time>2026-07-08T09:35:20.000Z</time>
      </trkpt>
      <trkpt lat="47.26866" lon="16.02159">
        <ele>406.284876</ele>
        <time>2026-07-08T09:35:21.000Z</time>
      </trkpt>
      <trkpt lat="47.26864" lon="16.0216">
        <ele>406.360996</ele>
        <time>2026-07-08T09:35:22.000Z</time>
      </trkpt>
      <trkpt lat="47.26861" lon="16.02161">
        <ele>406.442568</ele>
        <time>2026-07-08T09:35:23.000Z</time>
      </trkpt>
      <trkpt lat="47.26858" lon="16.02161">
        <ele>406.520873</ele>
        <time>2026-07-08T09:35:24.000Z</time>
      </trkpt>
      <trkpt lat="47.26855" lon="16.02163">
        <ele>406.611674</ele>
        <time>2026-07-08T09:35:25.000Z</time>
      </trkpt>
      <trkpt lat="47.26853" lon="16.02164">
        <ele>406.705899</ele>
        <time>2026-07-08T09:35:26.000Z</time>
      </trkpt>
      <trkpt lat="47.2685" lon="16.02165">
        <ele>406.861872</ele>
        <time>2026-07-08T09:35:27.000Z</time>
      </trkpt>
      <trkpt lat="47.26848" lon="16.02166">
        <ele>407.006016</ele>
        <time>2026-07-08T09:35:28.000Z</time>
      </trkpt>
      <trkpt lat="47.26845" lon="16.02166">
        <ele>407.149397</ele>
        <time>2026-07-08T09:35:29.000Z</time>
      </trkpt>
      <trkpt lat="47.26843" lon="16.02167">
        <ele>407.281004</ele>
        <time>2026-07-08T09:35:30.000Z</time>
      </trkpt>
      <trkpt lat="47.2684" lon="16.02168">
        <ele>407.418854</ele>
        <time>2026-07-08T09:35:31.000Z</time>
      </trkpt>
      <trkpt lat="47.26838" lon="16.02168">
        <ele>407.551181</ele>
        <time>2026-07-08T09:35:32.000Z</time>
      </trkpt>
      <trkpt lat="47.26836" lon="16.02169">
        <ele>407.678857</ele>
        <time>2026-07-08T09:35:33.000Z</time>
      </trkpt>
      <trkpt lat="47.26834" lon="16.0217">
        <ele>407.803204</ele>
        <time>2026-07-08T09:35:34.000Z</time>
      </trkpt>
      <trkpt lat="47.26831" lon="16.0217">
        <ele>407.938916</ele>
        <time>2026-07-08T09:35:35.000Z</time>
      </trkpt>
      <trkpt lat="47.26829" lon="16.02171">
        <ele>408.060229</ele>
        <time>2026-07-08T09:35:36.000Z</time>
      </trkpt>
      <trkpt lat="47.26827" lon="16.02172">
        <ele>408.187043</ele>
        <time>2026-07-08T09:35:37.000Z</time>
      </trkpt>
      <trkpt lat="47.26825" lon="16.02172">
        <ele>408.31865</ele>
        <time>2026-07-08T09:35:38.000Z</time>
      </trkpt>
      <trkpt lat="47.26823" lon="16.02173">
        <ele>408.444073</ele>
        <time>2026-07-08T09:35:39.000Z</time>
      </trkpt>
      <trkpt lat="47.2682" lon="16.02173">
        <ele>408.573891</ele>
        <time>2026-07-08T09:35:40.000Z</time>
      </trkpt>
      <trkpt lat="47.26818" lon="16.02173">
        <ele>408.709603</ele>
        <time>2026-07-08T09:35:41.000Z</time>
      </trkpt>
      <trkpt lat="47.26815" lon="16.02174">
        <ele>408.851292</ele>
        <time>2026-07-08T09:35:42.000Z</time>
      </trkpt>
      <trkpt lat="47.26813" lon="16.02174">
        <ele>408.969677</ele>
        <time>2026-07-08T09:35:43.000Z</time>
      </trkpt>
      <trkpt lat="47.26811" lon="16.02175">
        <ele>409.096491</ele>
        <time>2026-07-08T09:35:44.000Z</time>
      </trkpt>
      <trkpt lat="47.26809" lon="16.02175">
        <ele>409.220979</ele>
        <time>2026-07-08T09:35:45.000Z</time>
      </trkpt>
      <trkpt lat="47.26807" lon="16.02175">
        <ele>409.339549</ele>
        <time>2026-07-08T09:35:46.000Z</time>
      </trkpt>
      <trkpt lat="47.26805" lon="16.02176">
        <ele>409.453848</ele>
        <time>2026-07-08T09:35:47.000Z</time>
      </trkpt>
      <trkpt lat="47.26803" lon="16.02176">
        <ele>409.580662</ele>
        <time>2026-07-08T09:35:48.000Z</time>
      </trkpt>
      <trkpt lat="47.268" lon="16.02177">
        <ele>409.706085</ele>
        <time>2026-07-08T09:35:49.000Z</time>
      </trkpt>
      <trkpt lat="47.26798" lon="16.02177">
        <ele>409.848238</ele>
        <time>2026-07-08T09:35:50.000Z</time>
      </trkpt>
      <trkpt lat="47.26796" lon="16.02177">
        <ele>409.966623</ele>
        <time>2026-07-08T09:35:51.000Z</time>
      </trkpt>
      <trkpt lat="47.26794" lon="16.02178">
        <ele>410.09152</ele>
        <time>2026-07-08T09:35:52.000Z</time>
      </trkpt>
      <trkpt lat="47.26791" lon="16.02178">
        <ele>410.216008</ele>
        <time>2026-07-08T09:35:53.000Z</time>
      </trkpt>
      <trkpt lat="47.2679" lon="16.02178">
        <ele>410.317716</ele>
        <time>2026-07-08T09:35:54.000Z</time>
      </trkpt>
      <trkpt lat="47.26787" lon="16.02179">
        <ele>410.442203</ele>
        <time>2026-07-08T09:35:55.000Z</time>
      </trkpt>
      <trkpt lat="47.26785" lon="16.02179">
        <ele>410.562061</ele>
        <time>2026-07-08T09:35:56.000Z</time>
      </trkpt>
      <trkpt lat="47.26783" lon="16.0218">
        <ele>410.704213</ele>
        <time>2026-07-08T09:35:57.000Z</time>
      </trkpt>
      <trkpt lat="47.26781" lon="16.0218">
        <ele>410.828701</ele>
        <time>2026-07-08T09:35:58.000Z</time>
      </trkpt>
      <trkpt lat="47.26778" lon="16.0218">
        <ele>410.958518</ele>
        <time>2026-07-08T09:35:59.000Z</time>
      </trkpt>
      <trkpt lat="47.26776" lon="16.0218">
        <ele>411.083006</ele>
        <time>2026-07-08T09:36:00.000Z</time>
      </trkpt>
      <trkpt lat="47.26774" lon="16.02181">
        <ele>411.195954</ele>
        <time>2026-07-08T09:36:01.000Z</time>
      </trkpt>
      <trkpt lat="47.26772" lon="16.02181">
        <ele>411.326053</ele>
        <time>2026-07-08T09:36:02.000Z</time>
      </trkpt>
      <trkpt lat="47.2677" lon="16.02181">
        <ele>411.439001</ele>
        <time>2026-07-08T09:36:03.000Z</time>
      </trkpt>
      <trkpt lat="47.26767" lon="16.02182">
        <ele>411.575572</ele>
        <time>2026-07-08T09:36:04.000Z</time>
      </trkpt>
      <trkpt lat="47.26765" lon="16.02182">
        <ele>411.68852</ele>
        <time>2026-07-08T09:36:05.000Z</time>
      </trkpt>
      <trkpt lat="47.26764" lon="16.02182">
        <ele>411.790587</ele>
        <time>2026-07-08T09:36:06.000Z</time>
      </trkpt>
      <trkpt lat="47.26762" lon="16.02182">
        <ele>411.903535</ele>
        <time>2026-07-08T09:36:07.000Z</time>
      </trkpt>
      <trkpt lat="47.2676" lon="16.02182">
        <ele>412.005027</ele>
        <time>2026-07-08T09:36:08.000Z</time>
      </trkpt>
      <trkpt lat="47.26758" lon="16.02182">
        <ele>412.11215</ele>
        <time>2026-07-08T09:36:09.000Z</time>
      </trkpt>
      <trkpt lat="47.26756" lon="16.02182">
        <ele>412.224839</ele>
        <time>2026-07-08T09:36:10.000Z</time>
      </trkpt>
      <trkpt lat="47.26754" lon="16.02182">
        <ele>412.316278</ele>
        <time>2026-07-08T09:36:11.000Z</time>
      </trkpt>
      <trkpt lat="47.26752" lon="16.02182">
        <ele>412.428967</ele>
        <time>2026-07-08T09:36:12.000Z</time>
      </trkpt>
      <trkpt lat="47.2675" lon="16.02182">
        <ele>412.541656</ele>
        <time>2026-07-08T09:36:13.000Z</time>
      </trkpt>
      <trkpt lat="47.26748" lon="16.02182">
        <ele>412.654927</ele>
        <time>2026-07-08T09:36:14.000Z</time>
      </trkpt>
      <trkpt lat="47.26746" lon="16.02181">
        <ele>412.769226</ele>
        <time>2026-07-08T09:36:15.000Z</time>
      </trkpt>
      <trkpt lat="47.26744" lon="16.02181">
        <ele>412.893713</ele>
        <time>2026-07-08T09:36:16.000Z</time>
      </trkpt>
      <trkpt lat="47.26742" lon="16.0218">
        <ele>413.018611</ele>
        <time>2026-07-08T09:36:17.000Z</time>
      </trkpt>
      <trkpt lat="47.2674" lon="16.0218">
        <ele>413.131882</ele>
        <time>2026-07-08T09:36:18.000Z</time>
      </trkpt>
      <trkpt lat="47.26738" lon="16.0218">
        <ele>413.245154</ele>
        <time>2026-07-08T09:36:19.000Z</time>
      </trkpt>
      <trkpt lat="47.26736" lon="16.02179">
        <ele>413.350046</ele>
        <time>2026-07-08T09:36:20.000Z</time>
      </trkpt>
      <trkpt lat="47.26734" lon="16.02179">
        <ele>413.453252</ele>
        <time>2026-07-08T09:36:21.000Z</time>
      </trkpt>
      <trkpt lat="47.26733" lon="16.02178">
        <ele>413.553802</ele>
        <time>2026-07-08T09:36:22.000Z</time>
      </trkpt>
      <trkpt lat="47.26731" lon="16.02177">
        <ele>413.660009</ele>
        <time>2026-07-08T09:36:23.000Z</time>
      </trkpt>
      <trkpt lat="47.26729" lon="16.02176">
        <ele>413.757933</ele>
        <time>2026-07-08T09:36:24.000Z</time>
      </trkpt>
      <trkpt lat="47.26727" lon="16.02175">
        <ele>413.876932</ele>
        <time>2026-07-08T09:36:25.000Z</time>
      </trkpt>
      <trkpt lat="47.26725" lon="16.02174">
        <ele>413.987281</ele>
        <time>2026-07-08T09:36:26.000Z</time>
      </trkpt>
      <trkpt lat="47.26724" lon="16.02173">
        <ele>414.093213</ele>
        <time>2026-07-08T09:36:27.000Z</time>
      </trkpt>
      <trkpt lat="47.26722" lon="16.02172">
        <ele>414.199145</ele>
        <time>2026-07-08T09:36:28.000Z</time>
      </trkpt>
      <trkpt lat="47.2672" lon="16.02171">
        <ele>414.312823</ele>
        <time>2026-07-08T09:36:29.000Z</time>
      </trkpt>
      <trkpt lat="47.26718" lon="16.0217">
        <ele>414.442691</ele>
        <time>2026-07-08T09:36:30.000Z</time>
      </trkpt>
      <trkpt lat="47.26716" lon="16.02169">
        <ele>414.565854</ele>
        <time>2026-07-08T09:36:31.000Z</time>
      </trkpt>
      <trkpt lat="47.26714" lon="16.02168">
        <ele>414.684853</ele>
        <time>2026-07-08T09:36:32.000Z</time>
      </trkpt>
      <trkpt lat="47.26712" lon="16.02166">
        <ele>414.817029</ele>
        <time>2026-07-08T09:36:33.000Z</time>
      </trkpt>
      <trkpt lat="47.26709" lon="16.02165">
        <ele>414.94675</ele>
        <time>2026-07-08T09:36:34.000Z</time>
      </trkpt>
      <trkpt lat="47.26707" lon="16.02164">
        <ele>415.075089</ele>
        <time>2026-07-08T09:36:35.000Z</time>
      </trkpt>
      <trkpt lat="47.26705" lon="16.02163">
        <ele>415.198253</ele>
        <time>2026-07-08T09:36:36.000Z</time>
      </trkpt>
      <trkpt lat="47.26703" lon="16.02162">
        <ele>415.314725</ele>
        <time>2026-07-08T09:36:37.000Z</time>
      </trkpt>
      <trkpt lat="47.26701" lon="16.02161">
        <ele>415.433724</ele>
        <time>2026-07-08T09:36:38.000Z</time>
      </trkpt>
      <trkpt lat="47.26699" lon="16.02159">
        <ele>415.556888</ele>
        <time>2026-07-08T09:36:39.000Z</time>
      </trkpt>
      <trkpt lat="47.26698" lon="16.02158">
        <ele>415.671567</ele>
        <time>2026-07-08T09:36:40.000Z</time>
      </trkpt>
      <trkpt lat="47.26696" lon="16.02157">
        <ele>415.779955</ele>
        <time>2026-07-08T09:36:41.000Z</time>
      </trkpt>
      <trkpt lat="47.26694" lon="16.02156">
        <ele>415.872717</ele>
        <time>2026-07-08T09:36:42.000Z</time>
      </trkpt>
      <trkpt lat="47.26693" lon="16.02155">
        <ele>415.970767</ele>
        <time>2026-07-08T09:36:43.000Z</time>
      </trkpt>
      <trkpt lat="47.26691" lon="16.02153">
        <ele>416.082409</ele>
        <time>2026-07-08T09:36:44.000Z</time>
      </trkpt>
      <trkpt lat="47.26689" lon="16.02151">
        <ele>416.2125</ele>
        <time>2026-07-08T09:36:45.000Z</time>
      </trkpt>
      <trkpt lat="47.26687" lon="16.02149">
        <ele>416.348685</ele>
        <time>2026-07-08T09:36:46.000Z</time>
      </trkpt>
      <trkpt lat="47.26685" lon="16.02148">
        <ele>416.486916</ele>
        <time>2026-07-08T09:36:47.000Z</time>
      </trkpt>
      <trkpt lat="47.26683" lon="16.02146">
        <ele>416.618679</ele>
        <time>2026-07-08T09:36:48.000Z</time>
      </trkpt>
      <trkpt lat="47.26681" lon="16.02143">
        <ele>416.746156</ele>
        <time>2026-07-08T09:36:49.000Z</time>
      </trkpt>
      <trkpt lat="47.2668" lon="16.0214">
        <ele>416.848773</ele>
        <time>2026-07-08T09:36:50.000Z</time>
      </trkpt>
      <trkpt lat="47.26679" lon="16.02137">
        <ele>416.916429</ele>
        <time>2026-07-08T09:36:51.000Z</time>
      </trkpt>
      <trkpt lat="47.26677" lon="16.02134">
        <ele>416.989231</ele>
        <time>2026-07-08T09:36:52.000Z</time>
      </trkpt>
      <trkpt lat="47.26677" lon="16.02131">
        <ele>417.052545</ele>
        <time>2026-07-08T09:36:53.000Z</time>
      </trkpt>
      <trkpt lat="47.26676" lon="16.02127">
        <ele>417.115858</ele>
        <time>2026-07-08T09:36:54.000Z</time>
      </trkpt>
      <trkpt lat="47.26675" lon="16.02124">
        <ele>417.180048</ele>
        <time>2026-07-08T09:36:55.000Z</time>
      </trkpt>
      <trkpt lat="47.26674" lon="16.02121">
        <ele>417.245455</ele>
        <time>2026-07-08T09:36:56.000Z</time>
      </trkpt>
      <trkpt lat="47.26673" lon="16.02118">
        <ele>417.310513</ele>
        <time>2026-07-08T09:36:57.000Z</time>
      </trkpt>
      <trkpt lat="47.26672" lon="16.02114">
        <ele>417.377611</ele>
        <time>2026-07-08T09:36:58.000Z</time>
      </trkpt>
      <trkpt lat="47.26671" lon="16.02111">
        <ele>417.446408</ele>
        <time>2026-07-08T09:36:59.000Z</time>
      </trkpt>
      <trkpt lat="47.2667" lon="16.02108">
        <ele>417.510133</ele>
        <time>2026-07-08T09:37:00.000Z</time>
      </trkpt>
      <trkpt lat="47.2667" lon="16.02105">
        <ele>417.565684</ele>
        <time>2026-07-08T09:37:01.000Z</time>
      </trkpt>
      <trkpt lat="47.26669" lon="16.02102">
        <ele>417.622446</ele>
        <time>2026-07-08T09:37:02.000Z</time>
      </trkpt>
      <trkpt lat="47.26669" lon="16.02099">
        <ele>417.687504</ele>
        <time>2026-07-08T09:37:03.000Z</time>
      </trkpt>
      <trkpt lat="47.26668" lon="16.02095">
        <ele>417.749925</ele>
        <time>2026-07-08T09:37:04.000Z</time>
      </trkpt>
      <trkpt lat="47.26667" lon="16.02093">
        <ele>417.806328</ele>
        <time>2026-07-08T09:37:05.000Z</time>
      </trkpt>
      <trkpt lat="47.26666" lon="16.02089">
        <ele>417.870518</ele>
        <time>2026-07-08T09:37:06.000Z</time>
      </trkpt>
      <trkpt lat="47.26666" lon="16.02086">
        <ele>417.932154</ele>
        <time>2026-07-08T09:37:07.000Z</time>
      </trkpt>
      <trkpt lat="47.26665" lon="16.02083">
        <ele>417.998184</ele>
        <time>2026-07-08T09:37:08.000Z</time>
      </trkpt>
      <trkpt lat="47.26664" lon="16.0208">
        <ele>418.05982</ele>
        <time>2026-07-08T09:37:09.000Z</time>
      </trkpt>
      <trkpt lat="47.26664" lon="16.02076">
        <ele>418.12401</ele>
        <time>2026-07-08T09:37:10.000Z</time>
      </trkpt>
      <trkpt lat="47.26663" lon="16.02073">
        <ele>418.192807</ele>
        <time>2026-07-08T09:37:11.000Z</time>
      </trkpt>
      <trkpt lat="47.26662" lon="16.0207">
        <ele>418.259904</ele>
        <time>2026-07-08T09:37:12.000Z</time>
      </trkpt>
      <trkpt lat="47.26661" lon="16.02066">
        <ele>418.323218</ele>
        <time>2026-07-08T09:37:13.000Z</time>
      </trkpt>
      <trkpt lat="47.2666" lon="16.02063">
        <ele>418.386943</ele>
        <time>2026-07-08T09:37:14.000Z</time>
      </trkpt>
      <trkpt lat="47.26659" lon="16.0206">
        <ele>418.458094</ele>
        <time>2026-07-08T09:37:15.000Z</time>
      </trkpt>
      <trkpt lat="47.26657" lon="16.02057">
        <ele>418.524353</ele>
        <time>2026-07-08T09:37:16.000Z</time>
      </trkpt>
      <trkpt lat="47.26656" lon="16.02054">
        <ele>418.58766</ele>
        <time>2026-07-08T09:37:17.000Z</time>
      </trkpt>
      <trkpt lat="47.26655" lon="16.02051">
        <ele>418.648053</ele>
        <time>2026-07-08T09:37:19.000Z</time>
      </trkpt>
      <trkpt lat="47.26654" lon="16.02048">
        <ele>418.714312</ele>
        <time>2026-07-08T09:37:20.000Z</time>
      </trkpt>
      <trkpt lat="47.26653" lon="16.02045">
        <ele>418.776366</ele>
        <time>2026-07-08T09:37:21.000Z</time>
      </trkpt>
      <trkpt lat="47.26652" lon="16.02042">
        <ele>418.845609</ele>
        <time>2026-07-08T09:37:22.000Z</time>
      </trkpt>
      <trkpt lat="47.2665" lon="16.02039">
        <ele>418.913205</ele>
        <time>2026-07-08T09:37:23.000Z</time>
      </trkpt>
      <trkpt lat="47.26649" lon="16.02036">
        <ele>418.973272</ele>
        <time>2026-07-08T09:37:24.000Z</time>
      </trkpt>
      <trkpt lat="47.26648" lon="16.02033">
        <ele>419.038056</ele>
        <time>2026-07-08T09:37:25.000Z</time>
      </trkpt>
      <trkpt lat="47.26646" lon="16.0203">
        <ele>419.101142</ele>
        <time>2026-07-08T09:37:26.000Z</time>
      </trkpt>
      <trkpt lat="47.26645" lon="16.02028">
        <ele>419.156715</ele>
        <time>2026-07-08T09:37:27.000Z</time>
      </trkpt>
      <trkpt lat="47.26643" lon="16.02027">
        <ele>419.209115</ele>
        <time>2026-07-08T09:37:28.000Z</time>
      </trkpt>
      <trkpt lat="47.26641" lon="16.02027">
        <ele>419.266599</ele>
        <time>2026-07-08T09:37:29.000Z</time>
      </trkpt>
      <trkpt lat="47.26638" lon="16.02027">
        <ele>419.346482</ele>
        <time>2026-07-08T09:37:30.000Z</time>
      </trkpt>
      <trkpt lat="47.26636" lon="16.02028">
        <ele>419.424889</ele>
        <time>2026-07-08T09:37:31.000Z</time>
      </trkpt>
      <trkpt lat="47.26633" lon="16.0203">
        <ele>419.507052</ele>
        <time>2026-07-08T09:37:32.000Z</time>
      </trkpt>
      <trkpt lat="47.2663" lon="16.02032">
        <ele>419.59332</ele>
        <time>2026-07-08T09:37:33.000Z</time>
      </trkpt>
      <trkpt lat="47.26628" lon="16.02035">
        <ele>419.677036</ele>
        <time>2026-07-08T09:37:34.000Z</time>
      </trkpt>
      <trkpt lat="47.26625" lon="16.02038">
        <ele>419.763576</ele>
        <time>2026-07-08T09:37:35.000Z</time>
      </trkpt>
      <trkpt lat="47.26623" lon="16.02041">
        <ele>419.853383</ele>
        <time>2026-07-08T09:37:36.000Z</time>
      </trkpt>
      <trkpt lat="47.26621" lon="16.02045">
        <ele>419.934916</ele>
        <time>2026-07-08T09:37:37.000Z</time>
      </trkpt>
      <trkpt lat="47.26619" lon="16.02048">
        <ele>420.024046</ele>
        <time>2026-07-08T09:37:38.000Z</time>
      </trkpt>
      <trkpt lat="47.26616" lon="16.02052">
        <ele>420.11839</ele>
        <time>2026-07-08T09:37:39.000Z</time>
      </trkpt>
      <trkpt lat="47.26614" lon="16.02056">
        <ele>420.216652</ele>
        <time>2026-07-08T09:37:40.000Z</time>
      </trkpt>
      <trkpt lat="47.26611" lon="16.02059">
        <ele>420.317526</ele>
        <time>2026-07-08T09:37:41.000Z</time>
      </trkpt>
      <trkpt lat="47.26608" lon="16.02063">
        <ele>420.424219</ele>
        <time>2026-07-08T09:37:42.000Z</time>
      </trkpt>
      <trkpt lat="47.26606" lon="16.02067">
        <ele>420.528966</ele>
        <time>2026-07-08T09:37:43.000Z</time>
      </trkpt>
      <trkpt lat="47.26603" lon="16.02071">
        <ele>420.636959</ele>
        <time>2026-07-08T09:37:44.000Z</time>
      </trkpt>
      <trkpt lat="47.266" lon="16.02076">
        <ele>420.748204</ele>
        <time>2026-07-08T09:37:45.000Z</time>
      </trkpt>
      <trkpt lat="47.26597" lon="16.0208">
        <ele>420.857515</ele>
        <time>2026-07-08T09:37:46.000Z</time>
      </trkpt>
      <trkpt lat="47.26594" lon="16.02084">
        <ele>420.965508</ele>
        <time>2026-07-08T09:37:47.000Z</time>
      </trkpt>
      <trkpt lat="47.26591" lon="16.02088">
        <ele>421.080726</ele>
        <time>2026-07-08T09:37:48.000Z</time>
      </trkpt>
      <trkpt lat="47.26589" lon="16.02093">
        <ele>421.190036</ele>
        <time>2026-07-08T09:37:49.000Z</time>
      </trkpt>
      <trkpt lat="47.26586" lon="16.02097">
        <ele>421.29673</ele>
        <time>2026-07-08T09:37:50.000Z</time>
      </trkpt>
      <trkpt lat="47.26583" lon="16.021">
        <ele>421.398877</ele>
        <time>2026-07-08T09:37:51.000Z</time>
      </trkpt>
      <trkpt lat="47.26581" lon="16.02104">
        <ele>421.495816</ele>
        <time>2026-07-08T09:37:52.000Z</time>
      </trkpt>
      <trkpt lat="47.26578" lon="16.02108">
        <ele>421.594199</ele>
        <time>2026-07-08T09:37:53.000Z</time>
      </trkpt>
      <trkpt lat="47.26576" lon="16.02111">
        <ele>421.682025</ele>
        <time>2026-07-08T09:37:54.000Z</time>
      </trkpt>
      <trkpt lat="47.26573" lon="16.02114">
        <ele>421.744214</ele>
        <time>2026-07-08T09:37:55.000Z</time>
      </trkpt>
      <trkpt lat="47.26571" lon="16.02117">
        <ele>421.770107</ele>
        <time>2026-07-08T09:37:56.000Z</time>
      </trkpt>
      <trkpt lat="47.26569" lon="16.02121">
        <ele>421.796608</ele>
        <time>2026-07-08T09:37:57.000Z</time>
      </trkpt>
      <trkpt lat="47.26566" lon="16.02125">
        <ele>421.824892</ele>
        <time>2026-07-08T09:37:58.000Z</time>
      </trkpt>
      <trkpt lat="47.26564" lon="16.02129">
        <ele>421.855392</ele>
        <time>2026-07-08T09:37:59.000Z</time>
      </trkpt>
      <trkpt lat="47.26562" lon="16.02133">
        <ele>421.886686</ele>
        <time>2026-07-08T09:38:00.000Z</time>
      </trkpt>
      <trkpt lat="47.26559" lon="16.02137">
        <ele>421.917304</ele>
        <time>2026-07-08T09:38:01.000Z</time>
      </trkpt>
      <trkpt lat="47.26556" lon="16.02142">
        <ele>421.949441</ele>
        <time>2026-07-08T09:38:02.000Z</time>
      </trkpt>
      <trkpt lat="47.26554" lon="16.02146">
        <ele>421.982545</ele>
        <time>2026-07-08T09:38:03.000Z</time>
      </trkpt>
      <trkpt lat="47.26551" lon="16.0215">
        <ele>422.014422</ele>
        <time>2026-07-08T09:38:04.000Z</time>
      </trkpt>
      <trkpt lat="47.26549" lon="16.02155">
        <ele>422.046727</ele>
        <time>2026-07-08T09:38:05.000Z</time>
      </trkpt>
      <trkpt lat="47.26546" lon="16.02159">
        <ele>422.080093</ele>
        <time>2026-07-08T09:38:06.000Z</time>
      </trkpt>
      <trkpt lat="47.26543" lon="16.02164">
        <ele>422.112923</ele>
        <time>2026-07-08T09:38:07.000Z</time>
      </trkpt>
      <trkpt lat="47.26541" lon="16.02168">
        <ele>422.146289</ele>
        <time>2026-07-08T09:38:08.000Z</time>
      </trkpt>
      <trkpt lat="47.26538" lon="16.02173">
        <ele>422.179655</ele>
        <time>2026-07-08T09:38:09.000Z</time>
      </trkpt>
      <trkpt lat="47.26535" lon="16.02177">
        <ele>422.212392</ele>
        <time>2026-07-08T09:38:10.000Z</time>
      </trkpt>
      <trkpt lat="47.26533" lon="16.02182">
        <ele>422.243972</ele>
        <time>2026-07-08T09:38:11.000Z</time>
      </trkpt>
      <trkpt lat="47.2653" lon="16.02186">
        <ele>422.274899</ele>
        <time>2026-07-08T09:38:12.000Z</time>
      </trkpt>
      <trkpt lat="47.26528" lon="16.0219">
        <ele>422.305751</ele>
        <time>2026-07-08T09:38:13.000Z</time>
      </trkpt>
      <trkpt lat="47.26526" lon="16.02195">
        <ele>422.337204</ele>
        <time>2026-07-08T09:38:14.000Z</time>
      </trkpt>
      <trkpt lat="47.26523" lon="16.02199">
        <ele>422.368658</ele>
        <time>2026-07-08T09:38:15.000Z</time>
      </trkpt>
      <trkpt lat="47.26521" lon="16.02203">
        <ele>422.400535</ele>
        <time>2026-07-08T09:38:16.000Z</time>
      </trkpt>
      <trkpt lat="47.26518" lon="16.02208">
        <ele>422.431988</ele>
        <time>2026-07-08T09:38:17.000Z</time>
      </trkpt>
      <trkpt lat="47.26516" lon="16.02212">
        <ele>422.464294</ele>
        <time>2026-07-08T09:38:18.000Z</time>
      </trkpt>
      <trkpt lat="47.26513" lon="16.02216">
        <ele>422.495747</ele>
        <time>2026-07-08T09:38:19.000Z</time>
      </trkpt>
      <trkpt lat="47.26511" lon="16.02221">
        <ele>422.527625</ele>
        <time>2026-07-08T09:38:20.000Z</time>
      </trkpt>
      <trkpt lat="47.26508" lon="16.02225">
        <ele>422.55993</ele>
        <time>2026-07-08T09:38:21.000Z</time>
      </trkpt>
      <trkpt lat="47.26506" lon="16.0223">
        <ele>422.592235</ele>
        <time>2026-07-08T09:38:22.000Z</time>
      </trkpt>
      <trkpt lat="47.26503" lon="16.02234">
        <ele>422.623689</ele>
        <time>2026-07-08T09:38:23.000Z</time>
      </trkpt>
      <trkpt lat="47.265" lon="16.02239">
        <ele>422.657603</ele>
        <time>2026-07-08T09:38:24.000Z</time>
      </trkpt>
      <trkpt lat="47.26497" lon="16.02243">
        <ele>422.692889</ele>
        <time>2026-07-08T09:38:25.000Z</time>
      </trkpt>
      <trkpt lat="47.26495" lon="16.02248">
        <ele>422.726803</ele>
        <time>2026-07-08T09:38:26.000Z</time>
      </trkpt>
      <trkpt lat="47.26492" lon="16.02253">
        <ele>422.763052</ele>
        <time>2026-07-08T09:38:27.000Z</time>
      </trkpt>
      <trkpt lat="47.26489" lon="16.02257">
        <ele>422.798213</ele>
        <time>2026-07-08T09:38:28.000Z</time>
      </trkpt>
      <trkpt lat="47.26486" lon="16.02262">
        <ele>422.834055</ele>
        <time>2026-07-08T09:38:29.000Z</time>
      </trkpt>
      <trkpt lat="47.26483" lon="16.02267">
        <ele>422.870592</ele>
        <time>2026-07-08T09:38:30.000Z</time>
      </trkpt>
      <trkpt lat="47.2648" lon="16.02272">
        <ele>422.904708</ele>
        <time>2026-07-08T09:38:31.000Z</time>
      </trkpt>
      <trkpt lat="47.26477" lon="16.02277">
        <ele>422.940824</ele>
        <time>2026-07-08T09:38:32.000Z</time>
      </trkpt>
      <trkpt lat="47.26475" lon="16.02281">
        <ele>422.974079</ele>
        <time>2026-07-08T09:38:33.000Z</time>
      </trkpt>
      <trkpt lat="47.26472" lon="16.02286">
        <ele>423.009121</ele>
        <time>2026-07-08T09:38:34.000Z</time>
      </trkpt>
      <trkpt lat="47.26469" lon="16.0229">
        <ele>423.043594</ele>
        <time>2026-07-08T09:38:35.000Z</time>
      </trkpt>
      <trkpt lat="47.26466" lon="16.02295">
        <ele>423.077508</ele>
        <time>2026-07-08T09:38:36.000Z</time>
      </trkpt>
      <trkpt lat="47.26463" lon="16.023">
        <ele>423.11335</ele>
        <time>2026-07-08T09:38:37.000Z</time>
      </trkpt>
      <trkpt lat="47.2646" lon="16.02304">
        <ele>423.149193</ele>
        <time>2026-07-08T09:38:38.000Z</time>
      </trkpt>
      <trkpt lat="47.26457" lon="16.02309">
        <ele>423.184633</ele>
        <time>2026-07-08T09:38:39.000Z</time>
      </trkpt>
      <trkpt lat="47.26454" lon="16.02313">
        <ele>423.305341</ele>
        <time>2026-07-08T09:38:40.000Z</time>
      </trkpt>
      <trkpt lat="47.26451" lon="16.02318">
        <ele>423.536912</ele>
        <time>2026-07-08T09:38:41.000Z</time>
      </trkpt>
      <trkpt lat="47.26448" lon="16.02322">
        <ele>423.768483</ele>
        <time>2026-07-08T09:38:42.000Z</time>
      </trkpt>
      <trkpt lat="47.26445" lon="16.02327">
        <ele>424.000054</ele>
        <time>2026-07-08T09:38:43.000Z</time>
      </trkpt>
      <trkpt lat="47.26442" lon="16.02331">
        <ele>424.221485</ele>
        <time>2026-07-08T09:38:44.000Z</time>
      </trkpt>
      <trkpt lat="47.26439" lon="16.02336">
        <ele>424.447877</ele>
        <time>2026-07-08T09:38:45.000Z</time>
      </trkpt>
      <trkpt lat="47.26436" lon="16.0234">
        <ele>424.667835</ele>
        <time>2026-07-08T09:38:46.000Z</time>
      </trkpt>
      <trkpt lat="47.26434" lon="16.02344">
        <ele>424.881365</ele>
        <time>2026-07-08T09:38:47.000Z</time>
      </trkpt>
      <trkpt lat="47.26431" lon="16.02348">
        <ele>425.089785</ele>
        <time>2026-07-08T09:38:48.000Z</time>
      </trkpt>
      <trkpt lat="47.26428" lon="16.02351">
        <ele>425.286756</ele>
        <time>2026-07-08T09:38:49.000Z</time>
      </trkpt>
      <trkpt lat="47.26425" lon="16.02355">
        <ele>425.491279</ele>
        <time>2026-07-08T09:38:50.000Z</time>
      </trkpt>
      <trkpt lat="47.26423" lon="16.02359">
        <ele>425.672786</ele>
        <time>2026-07-08T09:38:51.000Z</time>
      </trkpt>
      <trkpt lat="47.26421" lon="16.02363">
        <ele>425.853374</ele>
        <time>2026-07-08T09:38:52.000Z</time>
      </trkpt>
      <trkpt lat="47.26419" lon="16.02366">
        <ele>426.016788</ele>
        <time>2026-07-08T09:38:53.000Z</time>
      </trkpt>
      <trkpt lat="47.26417" lon="16.02369">
        <ele>426.181451</ele>
        <time>2026-07-08T09:38:54.000Z</time>
      </trkpt>
      <trkpt lat="47.26415" lon="16.02372">
        <ele>426.333235</ele>
        <time>2026-07-08T09:38:55.000Z</time>
      </trkpt>
      <trkpt lat="47.26413" lon="16.02374">
        <ele>426.477509</ele>
        <time>2026-07-08T09:38:56.000Z</time>
      </trkpt>
      <trkpt lat="47.2641" lon="16.02377">
        <ele>426.627794</ele>
        <time>2026-07-08T09:38:57.000Z</time>
      </trkpt>
      <trkpt lat="47.26408" lon="16.02379">
        <ele>426.767319</ele>
        <time>2026-07-08T09:38:58.000Z</time>
      </trkpt>
      <trkpt lat="47.26406" lon="16.02382">
        <ele>426.909191</ele>
        <time>2026-07-08T09:38:59.000Z</time>
      </trkpt>
      <trkpt lat="47.26404" lon="16.02384">
        <ele>427.053465</ele>
        <time>2026-07-08T09:39:00.000Z</time>
      </trkpt>
      <trkpt lat="47.26403" lon="16.02387">
        <ele>427.192408</ele>
        <time>2026-07-08T09:39:01.000Z</time>
      </trkpt>
      <trkpt lat="47.26401" lon="16.0239">
        <ele>427.331352</ele>
        <time>2026-07-08T09:39:02.000Z</time>
      </trkpt>
      <trkpt lat="47.26399" lon="16.02392">
        <ele>427.463892</ele>
        <time>2026-07-08T09:39:03.000Z</time>
      </trkpt>
      <trkpt lat="47.26397" lon="16.02395">
        <ele>427.605764</ele>
        <time>2026-07-08T09:39:04.000Z</time>
      </trkpt>
      <trkpt lat="47.26395" lon="16.02397">
        <ele>427.732269</ele>
        <time>2026-07-08T09:39:05.000Z</time>
      </trkpt>
      <trkpt lat="47.26394" lon="16.02399">
        <ele>427.849944</ele>
        <time>2026-07-08T09:39:06.000Z</time>
      </trkpt>
      <trkpt lat="47.26392" lon="16.02401">
        <ele>427.976449</ele>
        <time>2026-07-08T09:39:07.000Z</time>
      </trkpt>
      <trkpt lat="47.2639" lon="16.02404">
        <ele>428.093552</ele>
        <time>2026-07-08T09:39:08.000Z</time>
      </trkpt>
      <trkpt lat="47.26389" lon="16.02406">
        <ele>428.211227</ele>
        <time>2026-07-08T09:39:09.000Z</time>
      </trkpt>
      <trkpt lat="47.26387" lon="16.02408">
        <ele>428.328902</ele>
        <time>2026-07-08T09:39:10.000Z</time>
      </trkpt>
      <trkpt lat="47.26385" lon="16.0241">
        <ele>428.449816</ele>
        <time>2026-07-08T09:39:11.000Z</time>
      </trkpt>
      <trkpt lat="47.26384" lon="16.02412">
        <ele>428.569592</ele>
        <time>2026-07-08T09:39:12.000Z</time>
      </trkpt>
      <trkpt lat="47.26382" lon="16.02415">
        <ele>428.686695</ele>
        <time>2026-07-08T09:39:13.000Z</time>
      </trkpt>
      <trkpt lat="47.26381" lon="16.02417">
        <ele>428.803798</ele>
        <time>2026-07-08T09:39:14.000Z</time>
      </trkpt>
      <trkpt lat="47.26379" lon="16.02419">
        <ele>428.931153</ele>
        <time>2026-07-08T09:39:15.000Z</time>
      </trkpt>
      <trkpt lat="47.26378" lon="16.02421">
        <ele>429.0355</ele>
        <time>2026-07-08T09:39:16.000Z</time>
      </trkpt>
      <trkpt lat="47.26376" lon="16.02424">
        <ele>429.157891</ele>
        <time>2026-07-08T09:39:17.000Z</time>
      </trkpt>
      <trkpt lat="47.26375" lon="16.02426">
        <ele>429.272375</ele>
        <time>2026-07-08T09:39:18.000Z</time>
      </trkpt>
      <trkpt lat="47.26373" lon="16.02428">
        <ele>429.389478</ele>
        <time>2026-07-08T09:39:19.000Z</time>
      </trkpt>
      <trkpt lat="47.26372" lon="16.0243">
        <ele>429.503962</ele>
        <time>2026-07-08T09:39:20.000Z</time>
      </trkpt>
      <trkpt lat="47.2637" lon="16.02432">
        <ele>429.613391</ele>
        <time>2026-07-08T09:39:21.000Z</time>
      </trkpt>
      <trkpt lat="47.26369" lon="16.02434">
        <ele>429.715057</ele>
        <time>2026-07-08T09:39:22.000Z</time>
      </trkpt>
      <trkpt lat="47.26367" lon="16.02437">
        <ele>429.834045</ele>
        <time>2026-07-08T09:39:23.000Z</time>
      </trkpt>
      <trkpt lat="47.26366" lon="16.02439">
        <ele>429.938393</ele>
        <time>2026-07-08T09:39:24.000Z</time>
      </trkpt>
      <trkpt lat="47.26365" lon="16.02441">
        <ele>430.051121</ele>
        <time>2026-07-08T09:39:25.000Z</time>
      </trkpt>
      <trkpt lat="47.26363" lon="16.02443">
        <ele>430.163046</ele>
        <time>2026-07-08T09:39:26.000Z</time>
      </trkpt>
      <trkpt lat="47.26362" lon="16.02446">
        <ele>430.273762</ele>
        <time>2026-07-08T09:39:27.000Z</time>
      </trkpt>
      <trkpt lat="47.26361" lon="16.02448">
        <ele>430.383646</ele>
        <time>2026-07-08T09:39:28.000Z</time>
      </trkpt>
      <trkpt lat="47.26359" lon="16.0245">
        <ele>430.493082</ele>
        <time>2026-07-08T09:39:29.000Z</time>
      </trkpt>
      <trkpt lat="47.26358" lon="16.02453">
        <ele>430.611638</ele>
        <time>2026-07-08T09:39:30.000Z</time>
      </trkpt>
      <trkpt lat="47.26357" lon="16.02456">
        <ele>430.739227</ele>
        <time>2026-07-08T09:39:31.000Z</time>
      </trkpt>
      <trkpt lat="47.26355" lon="16.02458">
        <ele>430.861069</ele>
        <time>2026-07-08T09:39:32.000Z</time>
      </trkpt>
      <trkpt lat="47.26354" lon="16.02461">
        <ele>430.976677</ele>
        <time>2026-07-08T09:39:33.000Z</time>
      </trkpt>
      <trkpt lat="47.26353" lon="16.02464">
        <ele>431.095665</ele>
        <time>2026-07-08T09:39:34.000Z</time>
      </trkpt>
      <trkpt lat="47.26352" lon="16.02466">
        <ele>431.211286</ele>
        <time>2026-07-08T09:39:35.000Z</time>
      </trkpt>
      <trkpt lat="47.2635" lon="16.02469">
        <ele>431.326907</ele>
        <time>2026-07-08T09:39:36.000Z</time>
      </trkpt>
      <trkpt lat="47.26349" lon="16.02471">
        <ele>431.449409</ele>
        <time>2026-07-08T09:39:37.000Z</time>
      </trkpt>
      <trkpt lat="47.26347" lon="16.02473">
        <ele>431.574253</ele>
        <time>2026-07-08T09:39:38.000Z</time>
      </trkpt>
      <trkpt lat="47.26346" lon="16.02476">
        <ele>431.69403</ele>
        <time>2026-07-08T09:39:39.000Z</time>
      </trkpt>
      <trkpt lat="47.26344" lon="16.02478">
        <ele>431.812586</ele>
        <time>2026-07-08T09:39:40.000Z</time>
      </trkpt>
      <trkpt lat="47.26343" lon="16.02481">
        <ele>431.935089</ele>
        <time>2026-07-08T09:39:41.000Z</time>
      </trkpt>
      <trkpt lat="47.26341" lon="16.02483">
        <ele>432.054077</ele>
        <time>2026-07-08T09:39:42.000Z</time>
      </trkpt>
      <trkpt lat="47.2634" lon="16.02486">
        <ele>432.17658</ele>
        <time>2026-07-08T09:39:43.000Z</time>
      </trkpt>
      <trkpt lat="47.26338" lon="16.02488">
        <ele>432.299083</ele>
        <time>2026-07-08T09:39:44.000Z</time>
      </trkpt>
      <trkpt lat="47.26337" lon="16.02491">
        <ele>432.425234</ele>
        <time>2026-07-08T09:39:45.000Z</time>
      </trkpt>
      <trkpt lat="47.26335" lon="16.02493">
        <ele>432.552589</ele>
        <time>2026-07-08T09:39:46.000Z</time>
      </trkpt>
      <trkpt lat="47.26333" lon="16.02495">
        <ele>432.676783</ele>
        <time>2026-07-08T09:39:47.000Z</time>
      </trkpt>
      <trkpt lat="47.26332" lon="16.02498">
        <ele>432.799174</ele>
        <time>2026-07-08T09:39:48.000Z</time>
      </trkpt>
      <trkpt lat="47.2633" lon="16.025">
        <ele>432.929096</ele>
        <time>2026-07-08T09:39:49.000Z</time>
      </trkpt>
      <trkpt lat="47.26328" lon="16.02502">
        <ele>432.999425</ele>
        <time>2026-07-08T09:39:50.000Z</time>
      </trkpt>
      <trkpt lat="47.26326" lon="16.02505">
        <ele>433.066114</ele>
        <time>2026-07-08T09:39:51.000Z</time>
      </trkpt>
      <trkpt lat="47.26324" lon="16.02507">
        <ele>433.13983</ele>
        <time>2026-07-08T09:39:52.000Z</time>
      </trkpt>
      <trkpt lat="47.26322" lon="16.02508">
        <ele>433.203826</ele>
        <time>2026-07-08T09:39:53.000Z</time>
      </trkpt>
      <trkpt lat="47.2632" lon="16.02509">
        <ele>433.279427</ele>
        <time>2026-07-08T09:39:54.000Z</time>
      </trkpt>
      <trkpt lat="47.26317" lon="16.02511">
        <ele>433.350391</ele>
        <time>2026-07-08T09:39:55.000Z</time>
      </trkpt>
      <trkpt lat="47.26315" lon="16.02512">
        <ele>433.422066</ele>
        <time>2026-07-08T09:39:56.000Z</time>
      </trkpt>
      <trkpt lat="47.26312" lon="16.02513">
        <ele>433.495938</ele>
        <time>2026-07-08T09:39:57.000Z</time>
      </trkpt>
      <trkpt lat="47.2631" lon="16.02514">
        <ele>433.573633</ele>
        <time>2026-07-08T09:39:58.000Z</time>
      </trkpt>
      <trkpt lat="47.26307" lon="16.02515">
        <ele>433.65217</ele>
        <time>2026-07-08T09:39:59.000Z</time>
      </trkpt>
      <trkpt lat="47.26304" lon="16.02516">
        <ele>433.733895</ele>
        <time>2026-07-08T09:40:00.000Z</time>
      </trkpt>
      <trkpt lat="47.26301" lon="16.02517">
        <ele>433.820835</ele>
        <time>2026-07-08T09:40:01.000Z</time>
      </trkpt>
      <trkpt lat="47.26298" lon="16.02517">
        <ele>433.904636</ele>
        <time>2026-07-08T09:40:02.000Z</time>
      </trkpt>
      <trkpt lat="47.26296" lon="16.02518">
        <ele>433.985323</ele>
        <time>2026-07-08T09:40:03.000Z</time>
      </trkpt>
      <trkpt lat="47.26293" lon="16.02518">
        <ele>434.065754</ele>
        <time>2026-07-08T09:40:04.000Z</time>
      </trkpt>
      <trkpt lat="47.2629" lon="16.02519">
        <ele>434.149017</ele>
        <time>2026-07-08T09:40:05.000Z</time>
      </trkpt>
      <trkpt lat="47.26287" lon="16.02519">
        <ele>434.235113</ele>
        <time>2026-07-08T09:40:06.000Z</time>
      </trkpt>
      <trkpt lat="47.26284" lon="16.0252">
        <ele>434.316101</ele>
        <time>2026-07-08T09:40:07.000Z</time>
      </trkpt>
      <trkpt lat="47.26281" lon="16.02521">
        <ele>434.402197</ele>
        <time>2026-07-08T09:40:08.000Z</time>
      </trkpt>
      <trkpt lat="47.26278" lon="16.02521">
        <ele>434.482628</ele>
        <time>2026-07-08T09:40:09.000Z</time>
      </trkpt>
      <trkpt lat="47.26275" lon="16.02522">
        <ele>434.568724</ele>
        <time>2026-07-08T09:40:10.000Z</time>
      </trkpt>
      <trkpt lat="47.26272" lon="16.02522">
        <ele>434.65482</ele>
        <time>2026-07-08T09:40:11.000Z</time>
      </trkpt>
      <trkpt lat="47.26269" lon="16.02523">
        <ele>434.740916</ele>
        <time>2026-07-08T09:40:12.000Z</time>
      </trkpt>
      <trkpt lat="47.26266" lon="16.02523">
        <ele>434.83317</ele>
        <time>2026-07-08T09:40:13.000Z</time>
      </trkpt>
      <trkpt lat="47.26263" lon="16.02524">
        <ele>434.924936</ele>
        <time>2026-07-08T09:40:14.000Z</time>
      </trkpt>
      <trkpt lat="47.2626" lon="16.02524">
        <ele>435.011031</ele>
        <time>2026-07-08T09:40:15.000Z</time>
      </trkpt>
      <trkpt lat="47.26257" lon="16.02525">
        <ele>435.097366</ele>
        <time>2026-07-08T09:40:16.000Z</time>
      </trkpt>
      <trkpt lat="47.26254" lon="16.02525">
        <ele>435.186297</ele>
        <time>2026-07-08T09:40:17.000Z</time>
      </trkpt>
      <trkpt lat="47.26251" lon="16.02526">
        <ele>435.272197</ele>
        <time>2026-07-08T09:40:18.000Z</time>
      </trkpt>
      <trkpt lat="47.26248" lon="16.02526">
        <ele>435.363635</ele>
        <time>2026-07-08T09:40:19.000Z</time>
      </trkpt>
      <trkpt lat="47.26245" lon="16.02526">
        <ele>435.449382</ele>
        <time>2026-07-08T09:40:20.000Z</time>
      </trkpt>
      <trkpt lat="47.26241" lon="16.02527">
        <ele>435.541148</ele>
        <time>2026-07-08T09:40:21.000Z</time>
      </trkpt>
      <trkpt lat="47.26238" lon="16.02527">
        <ele>435.630078</ele>
        <time>2026-07-08T09:40:22.000Z</time>
      </trkpt>
      <trkpt lat="47.26235" lon="16.02528">
        <ele>435.721843</ele>
        <time>2026-07-08T09:40:23.000Z</time>
      </trkpt>
      <trkpt lat="47.26232" lon="16.02528">
        <ele>435.813609</ele>
        <time>2026-07-08T09:40:24.000Z</time>
      </trkpt>
      <trkpt lat="47.26229" lon="16.02529">
        <ele>435.902349</ele>
        <time>2026-07-08T09:40:25.000Z</time>
      </trkpt>
      <trkpt lat="47.26226" lon="16.02529">
        <ele>435.993788</ele>
        <time>2026-07-08T09:40:26.000Z</time>
      </trkpt>
      <trkpt lat="47.26223" lon="16.02529">
        <ele>436.079535</ele>
        <time>2026-07-08T09:40:27.000Z</time>
      </trkpt>
      <trkpt lat="47.26219" lon="16.0253">
        <ele>436.171116</ele>
        <time>2026-07-08T09:40:28.000Z</time>
      </trkpt>
      <trkpt lat="47.26216" lon="16.0253">
        <ele>436.256864</ele>
        <time>2026-07-08T09:40:29.000Z</time>
      </trkpt>
      <trkpt lat="47.26213" lon="16.0253">
        <ele>436.342502</ele>
        <time>2026-07-08T09:40:30.000Z</time>
      </trkpt>
      <trkpt lat="47.2621" lon="16.0253">
        <ele>436.428074</ele>
        <time>2026-07-08T09:40:31.000Z</time>
      </trkpt>
      <trkpt lat="47.26207" lon="16.02531">
        <ele>436.513712</ele>
        <time>2026-07-08T09:40:32.000Z</time>
      </trkpt>
      <trkpt lat="47.26204" lon="16.02531">
        <ele>436.59935</ele>
        <time>2026-07-08T09:40:33.000Z</time>
      </trkpt>
      <trkpt lat="47.26201" lon="16.02531">
        <ele>436.685097</ele>
        <time>2026-07-08T09:40:34.000Z</time>
      </trkpt>
      <trkpt lat="47.26198" lon="16.02531">
        <ele>436.770648</ele>
        <time>2026-07-08T09:40:35.000Z</time>
      </trkpt>
      <trkpt lat="47.26195" lon="16.02531">
        <ele>436.85905</ele>
        <time>2026-07-08T09:40:36.000Z</time>
      </trkpt>
      <trkpt lat="47.26192" lon="16.02531">
        <ele>436.9446</ele>
        <time>2026-07-08T09:40:37.000Z</time>
      </trkpt>
      <trkpt lat="47.26189" lon="16.02531">
        <ele>437.035936</ele>
        <time>2026-07-08T09:40:38.000Z</time>
      </trkpt>
      <trkpt lat="47.26186" lon="16.02531">
        <ele>437.121574</ele>
        <time>2026-07-08T09:40:39.000Z</time>
      </trkpt>
      <trkpt lat="47.26183" lon="16.02531">
        <ele>437.207322</ele>
        <time>2026-07-08T09:40:40.000Z</time>
      </trkpt>
      <trkpt lat="47.2618" lon="16.0253">
        <ele>437.293418</ele>
        <time>2026-07-08T09:40:41.000Z</time>
      </trkpt>
      <trkpt lat="47.26177" lon="16.0253">
        <ele>437.384999</ele>
        <time>2026-07-08T09:40:42.000Z</time>
      </trkpt>
      <trkpt lat="47.26174" lon="16.02529">
        <ele>437.471095</ele>
        <time>2026-07-08T09:40:43.000Z</time>
      </trkpt>
      <trkpt lat="47.26171" lon="16.02529">
        <ele>437.559688</ele>
        <time>2026-07-08T09:40:44.000Z</time>
      </trkpt>
      <trkpt lat="47.26168" lon="16.02528">
        <ele>437.646304</ele>
        <time>2026-07-08T09:40:45.000Z</time>
      </trkpt>
      <trkpt lat="47.26165" lon="16.02528">
        <ele>437.732639</ele>
        <time>2026-07-08T09:40:46.000Z</time>
      </trkpt>
      <trkpt lat="47.26162" lon="16.02527">
        <ele>437.825541</ele>
        <time>2026-07-08T09:40:47.000Z</time>
      </trkpt>
      <trkpt lat="47.26159" lon="16.02526">
        <ele>437.911875</ele>
        <time>2026-07-08T09:40:48.000Z</time>
      </trkpt>
      <trkpt lat="47.26156" lon="16.02526">
        <ele>437.998492</ele>
        <time>2026-07-08T09:40:49.000Z</time>
      </trkpt>
      <trkpt lat="47.26153" lon="16.02525">
        <ele>438.079445</ele>
        <time>2026-07-08T09:40:50.000Z</time>
      </trkpt>
      <trkpt lat="47.2615" lon="16.02525">
        <ele>438.144737</ele>
        <time>2026-07-08T09:40:51.000Z</time>
      </trkpt>
      <trkpt lat="47.26146" lon="16.02524">
        <ele>438.214328</ele>
        <time>2026-07-08T09:40:52.000Z</time>
      </trkpt>
      <trkpt lat="47.26143" lon="16.02523">
        <ele>438.280259</ele>
        <time>2026-07-08T09:40:53.000Z</time>
      </trkpt>
      <trkpt lat="47.2614" lon="16.02522">
        <ele>438.348888</ele>
        <time>2026-07-08T09:40:54.000Z</time>
      </trkpt>
      <trkpt lat="47.26137" lon="16.02522">
        <ele>438.418849</ele>
        <time>2026-07-08T09:40:55.000Z</time>
      </trkpt>
      <trkpt lat="47.26134" lon="16.02521">
        <ele>438.48844</ele>
        <time>2026-07-08T09:40:56.000Z</time>
      </trkpt>
      <trkpt lat="47.26131" lon="16.0252">
        <ele>438.556263</ele>
        <time>2026-07-08T09:40:57.000Z</time>
      </trkpt>
      <trkpt lat="47.26127" lon="16.0252">
        <ele>438.629923</ele>
        <time>2026-07-08T09:40:58.000Z</time>
      </trkpt>
      <trkpt lat="47.26124" lon="16.0252">
        <ele>438.701424</ele>
        <time>2026-07-08T09:40:59.000Z</time>
      </trkpt>
      <trkpt lat="47.26121" lon="16.02519">
        <ele>438.773166</ele>
        <time>2026-07-08T09:41:00.000Z</time>
      </trkpt>
      <trkpt lat="47.26117" lon="16.02519">
        <ele>438.846694</ele>
        <time>2026-07-08T09:41:01.000Z</time>
      </trkpt>
      <trkpt lat="47.26114" lon="16.02519">
        <ele>438.91806</ele>
        <time>2026-07-08T09:41:02.000Z</time>
      </trkpt>
      <trkpt lat="47.26111" lon="16.02519">
        <ele>438.989441</ele>
        <time>2026-07-08T09:41:03.000Z</time>
      </trkpt>
      <trkpt lat="47.26107" lon="16.0252">
        <ele>439.063028</ele>
        <time>2026-07-08T09:41:04.000Z</time>
      </trkpt>
      <trkpt lat="47.26104" lon="16.0252">
        <ele>439.138846</ele>
        <time>2026-07-08T09:41:05.000Z</time>
      </trkpt>
      <trkpt lat="47.26101" lon="16.0252">
        <ele>439.210588</ele>
        <time>2026-07-08T09:41:06.000Z</time>
      </trkpt>
      <trkpt lat="47.26097" lon="16.02521">
        <ele>439.282689</ele>
        <time>2026-07-08T09:41:07.000Z</time>
      </trkpt>
      <trkpt lat="47.26094" lon="16.02522">
        <ele>439.356583</ele>
        <time>2026-07-08T09:41:08.000Z</time>
      </trkpt>
      <trkpt lat="47.26091" lon="16.02522">
        <ele>439.428684</ele>
        <time>2026-07-08T09:41:09.000Z</time>
      </trkpt>
      <trkpt lat="47.26087" lon="16.02523">
        <ele>439.50473</ele>
        <time>2026-07-08T09:41:10.000Z</time>
      </trkpt>
      <trkpt lat="47.26084" lon="16.02523">
        <ele>439.576472</ele>
        <time>2026-07-08T09:41:11.000Z</time>
      </trkpt>
      <trkpt lat="47.2608" lon="16.02524">
        <ele>439.650365</ele>
        <time>2026-07-08T09:41:12.000Z</time>
      </trkpt>
      <trkpt lat="47.26077" lon="16.02524">
        <ele>439.717982</ele>
        <time>2026-07-08T09:41:13.000Z</time>
      </trkpt>
      <trkpt lat="47.26074" lon="16.02525">
        <ele>439.787943</ele>
        <time>2026-07-08T09:41:14.000Z</time>
      </trkpt>
      <trkpt lat="47.26071" lon="16.02526">
        <ele>439.858685</ele>
        <time>2026-07-08T09:41:15.000Z</time>
      </trkpt>
      <trkpt lat="47.26068" lon="16.02527">
        <ele>439.928001</ele>
        <time>2026-07-08T09:41:16.000Z</time>
      </trkpt>
      <trkpt lat="47.26065" lon="16.02528">
        <ele>439.998743</ele>
        <time>2026-07-08T09:41:17.000Z</time>
      </trkpt>
      <trkpt lat="47.26061" lon="16.02529">
        <ele>440.069485</ele>
        <time>2026-07-08T09:41:18.000Z</time>
      </trkpt>
      <trkpt lat="47.26058" lon="16.0253">
        <ele>440.137101</ele>
        <time>2026-07-08T09:41:19.000Z</time>
      </trkpt>
      <trkpt lat="47.26055" lon="16.02531">
        <ele>440.21208</ele>
        <time>2026-07-08T09:41:20.000Z</time>
      </trkpt>
      <trkpt lat="47.26052" lon="16.02532">
        <ele>440.284939</ele>
        <time>2026-07-08T09:41:21.000Z</time>
      </trkpt>
      <trkpt lat="47.26048" lon="16.02533">
        <ele>440.357798</ele>
        <time>2026-07-08T09:41:22.000Z</time>
      </trkpt>
      <trkpt lat="47.26045" lon="16.02534">
        <ele>440.435511</ele>
        <time>2026-07-08T09:41:23.000Z</time>
      </trkpt>
      <trkpt lat="47.26041" lon="16.02535">
        <ele>440.511475</ele>
        <time>2026-07-08T09:41:24.000Z</time>
      </trkpt>
      <trkpt lat="47.26038" lon="16.02537">
        <ele>440.585739</ele>
        <time>2026-07-08T09:41:25.000Z</time>
      </trkpt>
      <trkpt lat="47.26035" lon="16.02538">
        <ele>440.658908</ele>
        <time>2026-07-08T09:41:26.000Z</time>
      </trkpt>
      <trkpt lat="47.26031" lon="16.02539">
        <ele>440.736009</ele>
        <time>2026-07-08T09:41:27.000Z</time>
      </trkpt>
      <trkpt lat="47.26028" lon="16.0254">
        <ele>440.813722</ele>
        <time>2026-07-08T09:41:28.000Z</time>
      </trkpt>
      <trkpt lat="47.26024" lon="16.02541">
        <ele>440.888701</ele>
        <time>2026-07-08T09:41:29.000Z</time>
      </trkpt>
      <trkpt lat="47.26021" lon="16.02542">
        <ele>440.958016</ele>
        <time>2026-07-08T09:41:30.000Z</time>
      </trkpt>
      <trkpt lat="47.26018" lon="16.02543">
        <ele>441.035117</ele>
        <time>2026-07-08T09:41:31.000Z</time>
      </trkpt>
      <trkpt lat="47.26014" lon="16.02544">
        <ele>441.110396</ele>
        <time>2026-07-08T09:41:32.000Z</time>
      </trkpt>
      <trkpt lat="47.26011" lon="16.02546">
        <ele>441.179712</ele>
        <time>2026-07-08T09:41:33.000Z</time>
      </trkpt>
      <trkpt lat="47.26008" lon="16.02547">
        <ele>441.256465</ele>
        <time>2026-07-08T09:41:34.000Z</time>
      </trkpt>
      <trkpt lat="47.26005" lon="16.02549">
        <ele>441.327028</ele>
        <time>2026-07-08T09:41:35.000Z</time>
      </trkpt>
      <trkpt lat="47.26001" lon="16.02551">
        <ele>441.406199</ele>
        <time>2026-07-08T09:41:36.000Z</time>
      </trkpt>
      <trkpt lat="47.25998" lon="16.02553">
        <ele>441.484529</ele>
        <time>2026-07-08T09:41:37.000Z</time>
      </trkpt>
      <trkpt lat="47.25995" lon="16.02555">
        <ele>441.563476</ele>
        <time>2026-07-08T09:41:38.000Z</time>
      </trkpt>
      <trkpt lat="47.25992" lon="16.02557">
        <ele>441.640473</ele>
        <time>2026-07-08T09:41:39.000Z</time>
      </trkpt>
      <trkpt lat="47.25988" lon="16.0256">
        <ele>441.720219</ele>
        <time>2026-07-08T09:41:40.000Z</time>
      </trkpt>
      <trkpt lat="47.25985" lon="16.02563">
        <ele>441.798096</ele>
        <time>2026-07-08T09:41:41.000Z</time>
      </trkpt>
      <trkpt lat="47.25982" lon="16.02566">
        <ele>441.878581</ele>
        <time>2026-07-08T09:41:42.000Z</time>
      </trkpt>
      <trkpt lat="47.25979" lon="16.02569">
        <ele>441.955916</ele>
        <time>2026-07-08T09:41:43.000Z</time>
      </trkpt>
      <trkpt lat="47.25976" lon="16.02572">
        <ele>442.014228</ele>
        <time>2026-07-08T09:41:44.000Z</time>
      </trkpt>
      <trkpt lat="47.25973" lon="16.02575">
        <ele>442.073174</ele>
        <time>2026-07-08T09:41:45.000Z</time>
      </trkpt>
      <trkpt lat="47.2597" lon="16.02578">
        <ele>442.128966</ele>
        <time>2026-07-08T09:41:46.000Z</time>
      </trkpt>
      <trkpt lat="47.25967" lon="16.02582">
        <ele>442.187912</ele>
        <time>2026-07-08T09:41:47.000Z</time>
      </trkpt>
      <trkpt lat="47.25964" lon="16.02585">
        <ele>442.24816</ele>
        <time>2026-07-08T09:41:48.000Z</time>
      </trkpt>
      <trkpt lat="47.25961" lon="16.02589">
        <ele>442.307182</ele>
        <time>2026-07-08T09:41:49.000Z</time>
      </trkpt>
      <trkpt lat="47.25958" lon="16.02592">
        <ele>442.367431</ele>
        <time>2026-07-08T09:41:50.000Z</time>
      </trkpt>
      <trkpt lat="47.25955" lon="16.02595">
        <ele>442.426376</ele>
        <time>2026-07-08T09:41:51.000Z</time>
      </trkpt>
      <trkpt lat="47.25952" lon="16.02599">
        <ele>442.487974</ele>
        <time>2026-07-08T09:41:52.000Z</time>
      </trkpt>
      <trkpt lat="47.25949" lon="16.02603">
        <ele>442.550787</ele>
        <time>2026-07-08T09:41:53.000Z</time>
      </trkpt>
      <trkpt lat="47.25946" lon="16.02606">
        <ele>442.611705</ele>
        <time>2026-07-08T09:41:54.000Z</time>
      </trkpt>
      <trkpt lat="47.25943" lon="16.0261">
        <ele>442.674696</ele>
        <time>2026-07-08T09:41:55.000Z</time>
      </trkpt>
      <trkpt lat="47.2594" lon="16.02614">
        <ele>442.735613</ele>
        <time>2026-07-08T09:41:56.000Z</time>
      </trkpt>
      <trkpt lat="47.25937" lon="16.02618">
        <ele>442.798604</ele>
        <time>2026-07-08T09:41:57.000Z</time>
      </trkpt>
      <trkpt lat="47.25934" lon="16.02621">
        <ele>442.859522</ele>
        <time>2026-07-08T09:41:58.000Z</time>
      </trkpt>
      <trkpt lat="47.25931" lon="16.02625">
        <ele>442.919921</ele>
        <time>2026-07-08T09:41:59.000Z</time>
      </trkpt>
      <trkpt lat="47.25928" lon="16.02629">
        <ele>442.98221</ele>
        <time>2026-07-08T09:42:00.000Z</time>
      </trkpt>
      <trkpt lat="47.25925" lon="16.02633">
        <ele>443.045024</ele>
        <time>2026-07-08T09:42:01.000Z</time>
      </trkpt>
      <trkpt lat="47.25922" lon="16.02636">
        <ele>443.109068</ele>
        <time>2026-07-08T09:42:02.000Z</time>
      </trkpt>
      <trkpt lat="47.25919" lon="16.0264">
        <ele>443.172772</ele>
        <time>2026-07-08T09:42:03.000Z</time>
      </trkpt>
      <trkpt lat="47.25916" lon="16.02644">
        <ele>443.233689</ele>
        <time>2026-07-08T09:42:04.000Z</time>
      </trkpt>
      <trkpt lat="47.25913" lon="16.02648">
        <ele>443.292907</ele>
        <time>2026-07-08T09:42:05.000Z</time>
      </trkpt>
      <trkpt lat="47.25911" lon="16.02651">
        <ele>443.350962</ele>
        <time>2026-07-08T09:42:06.000Z</time>
      </trkpt>
      <trkpt lat="47.25908" lon="16.02655">
        <ele>443.414665</ele>
        <time>2026-07-08T09:42:07.000Z</time>
      </trkpt>
      <trkpt lat="47.25905" lon="16.02659">
        <ele>443.476819</ele>
        <time>2026-07-08T09:42:08.000Z</time>
      </trkpt>
      <trkpt lat="47.25902" lon="16.02664">
        <ele>443.540843</ele>
        <time>2026-07-08T09:42:09.000Z</time>
      </trkpt>
      <trkpt lat="47.25899" lon="16.02667">
        <ele>443.60078</ele>
        <time>2026-07-08T09:42:10.000Z</time>
      </trkpt>
      <trkpt lat="47.25896" lon="16.02671">
        <ele>443.662184</ele>
        <time>2026-07-08T09:42:11.000Z</time>
      </trkpt>
      <trkpt lat="47.25894" lon="16.02675">
        <ele>443.722469</ele>
        <time>2026-07-08T09:42:12.000Z</time>
      </trkpt>
      <trkpt lat="47.25891" lon="16.02679">
        <ele>443.782753</ele>
        <time>2026-07-08T09:42:13.000Z</time>
      </trkpt>
      <trkpt lat="47.25888" lon="16.02683">
        <ele>443.84117</ele>
        <time>2026-07-08T09:42:14.000Z</time>
      </trkpt>
      <trkpt lat="47.25885" lon="16.02687">
        <ele>443.900876</ele>
        <time>2026-07-08T09:42:15.000Z</time>
      </trkpt>
      <trkpt lat="47.25883" lon="16.0269">
        <ele>443.958689</ele>
        <time>2026-07-08T09:42:16.000Z</time>
      </trkpt>
      <trkpt lat="47.2588" lon="16.02694">
        <ele>444.016502</ele>
        <time>2026-07-08T09:42:17.000Z</time>
      </trkpt>
      <trkpt lat="47.25877" lon="16.02698">
        <ele>444.074557</ele>
        <time>2026-07-08T09:42:18.000Z</time>
      </trkpt>
      <trkpt lat="47.25874" lon="16.02701">
        <ele>444.133345</ele>
        <time>2026-07-08T09:42:19.000Z</time>
      </trkpt>
      <trkpt lat="47.25872" lon="16.02705">
        <ele>444.194011</ele>
        <time>2026-07-08T09:42:20.000Z</time>
      </trkpt>
      <trkpt lat="47.25869" lon="16.02709">
        <ele>444.254296</ele>
        <time>2026-07-08T09:42:21.000Z</time>
      </trkpt>
      <trkpt lat="47.25866" lon="16.02713">
        <ele>444.309745</ele>
        <time>2026-07-08T09:42:22.000Z</time>
      </trkpt>
      <trkpt lat="47.25864" lon="16.02716">
        <ele>444.366366</ele>
        <time>2026-07-08T09:42:23.000Z</time>
      </trkpt>
      <trkpt lat="47.25861" lon="16.0272">
        <ele>444.4237</ele>
        <time>2026-07-08T09:42:24.000Z</time>
      </trkpt>
      <trkpt lat="47.25858" lon="16.02724">
        <ele>444.480612</ele>
        <time>2026-07-08T09:42:25.000Z</time>
      </trkpt>
      <trkpt lat="47.25856" lon="16.02727">
        <ele>444.538668</ele>
        <time>2026-07-08T09:42:26.000Z</time>
      </trkpt>
      <trkpt lat="47.25853" lon="16.02731">
        <ele>444.596001</ele>
        <time>2026-07-08T09:42:27.000Z</time>
      </trkpt>
      <trkpt lat="47.2585" lon="16.02735">
        <ele>444.655219</ele>
        <time>2026-07-08T09:42:28.000Z</time>
      </trkpt>
      <trkpt lat="47.25847" lon="16.02738">
        <ele>444.711841</ele>
        <time>2026-07-08T09:42:29.000Z</time>
      </trkpt>
      <trkpt lat="47.25845" lon="16.02742">
        <ele>444.768754</ele>
        <time>2026-07-08T09:42:30.000Z</time>
      </trkpt>
      <trkpt lat="47.25842" lon="16.02745">
        <ele>444.857227</ele>
        <time>2026-07-08T09:42:31.000Z</time>
      </trkpt>
      <trkpt lat="47.25839" lon="16.02749">
        <ele>444.961878</ele>
        <time>2026-07-08T09:42:32.000Z</time>
      </trkpt>
      <trkpt lat="47.25836" lon="16.02752">
        <ele>445.067445</ele>
        <time>2026-07-08T09:42:33.000Z</time>
      </trkpt>
      <trkpt lat="47.25834" lon="16.02756">
        <ele>445.173361</ele>
        <time>2026-07-08T09:42:34.000Z</time>
      </trkpt>
      <trkpt lat="47.25831" lon="16.0276">
        <ele>445.276765</ele>
        <time>2026-07-08T09:42:35.000Z</time>
      </trkpt>
      <trkpt lat="47.25828" lon="16.02763">
        <ele>445.379953</ele>
        <time>2026-07-08T09:42:36.000Z</time>
      </trkpt>
      <trkpt lat="47.25825" lon="16.02766">
        <ele>445.486537</ele>
        <time>2026-07-08T09:42:37.000Z</time>
      </trkpt>
      <trkpt lat="47.25822" lon="16.0277">
        <ele>445.591967</ele>
        <time>2026-07-08T09:42:38.000Z</time>
      </trkpt>
      <trkpt lat="47.25819" lon="16.02773">
        <ele>445.696265</ele>
        <time>2026-07-08T09:42:39.000Z</time>
      </trkpt>
      <trkpt lat="47.25816" lon="16.02776">
        <ele>445.797238</ele>
        <time>2026-07-08T09:42:40.000Z</time>
      </trkpt>
      <trkpt lat="47.25813" lon="16.02779">
        <ele>445.901536</ele>
        <time>2026-07-08T09:42:41.000Z</time>
      </trkpt>
      <trkpt lat="47.2581" lon="16.02782">
        <ele>446.004725</ele>
        <time>2026-07-08T09:42:42.000Z</time>
      </trkpt>
      <trkpt lat="47.25807" lon="16.02786">
        <ele>446.11131</ele>
        <time>2026-07-08T09:42:43.000Z</time>
      </trkpt>
      <trkpt lat="47.25804" lon="16.02789">
        <ele>446.214499</ele>
        <time>2026-07-08T09:42:44.000Z</time>
      </trkpt>
      <trkpt lat="47.25801" lon="16.02792">
        <ele>446.317903</ele>
        <time>2026-07-08T09:42:45.000Z</time>
      </trkpt>
      <trkpt lat="47.25798" lon="16.02795">
        <ele>446.417689</ele>
        <time>2026-07-08T09:42:46.000Z</time>
      </trkpt>
      <trkpt lat="47.25795" lon="16.02798">
        <ele>446.519792</ele>
        <time>2026-07-08T09:42:47.000Z</time>
      </trkpt>
      <trkpt lat="47.25793" lon="16.02802">
        <ele>446.621971</ele>
        <time>2026-07-08T09:42:48.000Z</time>
      </trkpt>
      <trkpt lat="47.2579" lon="16.02805">
        <ele>446.719465</ele>
        <time>2026-07-08T09:42:49.000Z</time>
      </trkpt>
      <trkpt lat="47.25787" lon="16.02808">
        <ele>446.819472</ele>
        <time>2026-07-08T09:42:50.000Z</time>
      </trkpt>
      <trkpt lat="47.25784" lon="16.0281">
        <ele>446.919479</ele>
        <time>2026-07-08T09:42:51.000Z</time>
      </trkpt>
      <trkpt lat="47.25781" lon="16.02813">
        <ele>447.021583</ele>
        <time>2026-07-08T09:42:52.000Z</time>
      </trkpt>
      <trkpt lat="47.25778" lon="16.02816">
        <ele>447.12058</ele>
        <time>2026-07-08T09:42:53.000Z</time>
      </trkpt>
      <trkpt lat="47.25775" lon="16.02819">
        <ele>447.225388</ele>
        <time>2026-07-08T09:42:54.000Z</time>
      </trkpt>
      <trkpt lat="47.25771" lon="16.02822">
        <ele>447.331185</ele>
        <time>2026-07-08T09:42:55.000Z</time>
      </trkpt>
      <trkpt lat="47.25768" lon="16.02825">
        <ele>447.431192</ele>
        <time>2026-07-08T09:42:56.000Z</time>
      </trkpt>
      <trkpt lat="47.25765" lon="16.02827">
        <ele>447.533589</ele>
        <time>2026-07-08T09:42:57.000Z</time>
      </trkpt>
      <trkpt lat="47.25762" lon="16.0283">
        <ele>447.642358</ele>
        <time>2026-07-08T09:42:58.000Z</time>
      </trkpt>
      <trkpt lat="47.25759" lon="16.02833">
        <ele>447.746804</ele>
        <time>2026-07-08T09:42:59.000Z</time>
      </trkpt>
      <trkpt lat="47.25756" lon="16.02836">
        <ele>447.851613</ele>
        <time>2026-07-08T09:43:00.000Z</time>
      </trkpt>
      <trkpt lat="47.25752" lon="16.02839">
        <ele>447.958424</ele>
        <time>2026-07-08T09:43:01.000Z</time>
      </trkpt>
      <trkpt lat="47.25749" lon="16.02842">
        <ele>448.062869</ele>
        <time>2026-07-08T09:43:02.000Z</time>
      </trkpt>
      <trkpt lat="47.25746" lon="16.02845">
        <ele>448.173503</ele>
        <time>2026-07-08T09:43:03.000Z</time>
      </trkpt>
      <trkpt lat="47.25743" lon="16.02848">
        <ele>448.280743</ele>
        <time>2026-07-08T09:43:04.000Z</time>
      </trkpt>
      <trkpt lat="47.25739" lon="16.0285">
        <ele>448.387982</ele>
        <time>2026-07-08T09:43:05.000Z</time>
      </trkpt>
      <trkpt lat="47.25736" lon="16.02853">
        <ele>448.496751</ele>
        <time>2026-07-08T09:43:06.000Z</time>
      </trkpt>
      <trkpt lat="47.25733" lon="16.02856">
        <ele>448.601247</ele>
        <time>2026-07-08T09:43:07.000Z</time>
      </trkpt>
      <trkpt lat="47.25729" lon="16.02858">
        <ele>448.707546</ele>
        <time>2026-07-08T09:43:08.000Z</time>
      </trkpt>
      <trkpt lat="47.25726" lon="16.02861">
        <ele>448.815421</ele>
        <time>2026-07-08T09:43:09.000Z</time>
      </trkpt>
      <trkpt lat="47.25723" lon="16.02863">
        <ele>448.917423</ele>
        <time>2026-07-08T09:43:10.000Z</time>
      </trkpt>
      <trkpt lat="47.25719" lon="16.02865">
        <ele>449.024582</ele>
        <time>2026-07-08T09:43:11.000Z</time>
      </trkpt>
      <trkpt lat="47.25716" lon="16.02867">
        <ele>449.131005</ele>
        <time>2026-07-08T09:43:12.000Z</time>
      </trkpt>
      <trkpt lat="47.25712" lon="16.02869">
        <ele>449.236721</ele>
        <time>2026-07-08T09:43:13.000Z</time>
      </trkpt>
      <trkpt lat="47.25708" lon="16.02871">
        <ele>449.347064</ele>
        <time>2026-07-08T09:43:14.000Z</time>
      </trkpt>
      <trkpt lat="47.25705" lon="16.02873">
        <ele>449.454123</ele>
        <time>2026-07-08T09:43:15.000Z</time>
      </trkpt>
      <trkpt lat="47.25701" lon="16.02875">
        <ele>449.56511</ele>
        <time>2026-07-08T09:43:16.000Z</time>
      </trkpt>
      <trkpt lat="47.25697" lon="16.02877">
        <ele>449.674254</ele>
        <time>2026-07-08T09:43:17.000Z</time>
      </trkpt>
      <trkpt lat="47.25694" lon="16.02878">
        <ele>449.78555</ele>
        <time>2026-07-08T09:43:18.000Z</time>
      </trkpt>
      <trkpt lat="47.2569" lon="16.0288">
        <ele>449.845291</ele>
        <time>2026-07-08T09:43:19.000Z</time>
      </trkpt>
      <trkpt lat="47.25686" lon="16.02881">
        <ele>449.833294</ele>
        <time>2026-07-08T09:43:20.000Z</time>
      </trkpt>
      <trkpt lat="47.25682" lon="16.02883">
        <ele>449.821248</ele>
        <time>2026-07-08T09:43:21.000Z</time>
      </trkpt>
      <trkpt lat="47.25679" lon="16.02884">
        <ele>449.809978</ele>
        <time>2026-07-08T09:43:22.000Z</time>
      </trkpt>
      <trkpt lat="47.25675" lon="16.02886">
        <ele>449.798824</ele>
        <time>2026-07-08T09:43:23.000Z</time>
      </trkpt>
      <trkpt lat="47.25672" lon="16.02887">
        <ele>449.787818</ele>
        <time>2026-07-08T09:43:24.000Z</time>
      </trkpt>
      <trkpt lat="47.25668" lon="16.02888">
        <ele>449.776767</ele>
        <time>2026-07-08T09:43:25.000Z</time>
      </trkpt>
      <trkpt lat="47.25665" lon="16.02889">
        <ele>449.765116</ele>
        <time>2026-07-08T09:43:26.000Z</time>
      </trkpt>
      <trkpt lat="47.25661" lon="16.02891">
        <ele>449.753418</ele>
        <time>2026-07-08T09:43:27.000Z</time>
      </trkpt>
      <trkpt lat="47.25657" lon="16.02892">
        <ele>449.742208</ele>
        <time>2026-07-08T09:43:28.000Z</time>
      </trkpt>
      <trkpt lat="47.25654" lon="16.02893">
        <ele>449.731244</ele>
        <time>2026-07-08T09:43:29.000Z</time>
      </trkpt>
      <trkpt lat="47.2565" lon="16.02894">
        <ele>449.719893</ele>
        <time>2026-07-08T09:43:30.000Z</time>
      </trkpt>
      <trkpt lat="47.25647" lon="16.02895">
        <ele>449.708285</ele>
        <time>2026-07-08T09:43:31.000Z</time>
      </trkpt>
      <trkpt lat="47.25643" lon="16.02897">
        <ele>449.696537</ele>
        <time>2026-07-08T09:43:32.000Z</time>
      </trkpt>
      <trkpt lat="47.25639" lon="16.02898">
        <ele>449.684627</ele>
        <time>2026-07-08T09:43:33.000Z</time>
      </trkpt>
      <trkpt lat="47.25635" lon="16.02899">
        <ele>449.67215</ele>
        <time>2026-07-08T09:43:34.000Z</time>
      </trkpt>
      <trkpt lat="47.25631" lon="16.029">
        <ele>449.659506</ele>
        <time>2026-07-08T09:43:35.000Z</time>
      </trkpt>
      <trkpt lat="47.25627" lon="16.02902">
        <ele>449.646813</ele>
        <time>2026-07-08T09:43:36.000Z</time>
      </trkpt>
      <trkpt lat="47.25623" lon="16.02903">
        <ele>449.633522</ele>
        <time>2026-07-08T09:43:37.000Z</time>
      </trkpt>
      <trkpt lat="47.25619" lon="16.02905">
        <ele>449.621368</ele>
        <time>2026-07-08T09:43:38.000Z</time>
      </trkpt>
      <trkpt lat="47.25615" lon="16.02906">
        <ele>449.608674</ele>
        <time>2026-07-08T09:43:39.000Z</time>
      </trkpt>
      <trkpt lat="47.25611" lon="16.02908">
        <ele>449.596926</ele>
        <time>2026-07-08T09:43:40.000Z</time>
      </trkpt>
      <trkpt lat="47.25608" lon="16.02909">
        <ele>449.585421</ele>
        <time>2026-07-08T09:43:41.000Z</time>
      </trkpt>
      <trkpt lat="47.25604" lon="16.02911">
        <ele>449.574211</ele>
        <time>2026-07-08T09:43:42.000Z</time>
      </trkpt>
      <trkpt lat="47.25601" lon="16.02912">
        <ele>449.562513</ele>
        <time>2026-07-08T09:43:43.000Z</time>
      </trkpt>
      <trkpt lat="47.25597" lon="16.02913">
        <ele>449.551549</ele>
        <time>2026-07-08T09:43:44.000Z</time>
      </trkpt>
      <trkpt lat="47.25542" lon="16.02942">
        <ele>449.372979</ele>
        <time>2026-07-08T09:43:59.000Z</time>
      </trkpt>
      <trkpt lat="47.25538" lon="16.02944">
        <ele>449.359697</ele>
        <time>2026-07-08T09:44:00.000Z</time>
      </trkpt>
      <trkpt lat="47.25534" lon="16.02946">
        <ele>449.346707</ele>
        <time>2026-07-08T09:44:01.000Z</time>
      </trkpt>
      <trkpt lat="47.2553" lon="16.02947">
        <ele>449.333365</ele>
        <time>2026-07-08T09:44:02.000Z</time>
      </trkpt>
      <trkpt lat="47.25526" lon="16.02949">
        <ele>449.319674</ele>
        <time>2026-07-08T09:44:03.000Z</time>
      </trkpt>
      <trkpt lat="47.25521" lon="16.02951">
        <ele>449.30563</ele>
        <time>2026-07-08T09:44:04.000Z</time>
      </trkpt>
      <trkpt lat="47.25517" lon="16.02953">
        <ele>449.242264</ele>
        <time>2026-07-08T09:44:05.000Z</time>
      </trkpt>
      <trkpt lat="47.25513" lon="16.02955">
        <ele>449.079849</ele>
        <time>2026-07-08T09:44:06.000Z</time>
      </trkpt>
      <trkpt lat="47.25509" lon="16.02958">
        <ele>448.909997</ele>
        <time>2026-07-08T09:44:07.000Z</time>
      </trkpt>
      <trkpt lat="47.25505" lon="16.02961">
        <ele>448.747829</ele>
        <time>2026-07-08T09:44:08.000Z</time>
      </trkpt>
      <trkpt lat="47.25502" lon="16.02963">
        <ele>448.614147</ele>
        <time>2026-07-08T09:44:09.000Z</time>
      </trkpt>
      <trkpt lat="47.25499" lon="16.02965">
        <ele>448.500199</ele>
        <time>2026-07-08T09:44:10.000Z</time>
      </trkpt>
      <trkpt lat="47.25497" lon="16.02966">
        <ele>448.411429</ele>
        <time>2026-07-08T09:44:11.000Z</time>
      </trkpt>
      <trkpt lat="47.25495" lon="16.02967">
        <ele>448.341822</ele>
        <time>2026-07-08T09:44:12.000Z</time>
      </trkpt>
      <trkpt lat="47.25493" lon="16.02968">
        <ele>448.289071</ele>
        <time>2026-07-08T09:44:13.000Z</time>
      </trkpt>
      <trkpt lat="47.25493" lon="16.02968">
        <ele>448.266942</ele>
        <time>2026-07-08T09:44:14.000Z</time>
      </trkpt>
      <trkpt lat="47.25493" lon="16.02968">
        <ele>448.26328</ele>
        <time>2026-07-08T09:44:15.000Z</time>
      </trkpt>
      <trkpt lat="47.25499" lon="16.02972">
        <ele>448.026971</ele>
        <time>2026-07-08T09:52:40.000Z</time>
      </trkpt>
      <trkpt lat="47.255" lon="16.02971">
        <ele>447.990112</ele>
        <time>2026-07-08T09:52:41.000Z</time>
      </trkpt>
      <trkpt lat="47.255" lon="16.0297">
        <ele>447.952635</ele>
        <time>2026-07-08T09:52:42.000Z</time>
      </trkpt>
      <trkpt lat="47.25501" lon="16.02968">
        <ele>447.913768</ele>
        <time>2026-07-08T09:52:43.000Z</time>
      </trkpt>
      <trkpt lat="47.25501" lon="16.02967">
        <ele>447.888913</ele>
        <time>2026-07-08T09:52:44.000Z</time>
      </trkpt>
      <trkpt lat="47.255" lon="16.02966">
        <ele>447.858043</ele>
        <time>2026-07-08T09:52:45.000Z</time>
      </trkpt>
      <trkpt lat="47.255" lon="16.02966">
        <ele>447.845695</ele>
        <time>2026-07-08T09:52:46.000Z</time>
      </trkpt>
      <trkpt lat="47.255" lon="16.02966">
        <ele>447.841269</ele>
        <time>2026-07-08T09:52:47.000Z</time>
      </trkpt>
      <trkpt lat="47.25497" lon="16.02965">
        <ele>447.749936</ele>
        <time>2026-07-08T09:52:59.000Z</time>
      </trkpt>
      <trkpt lat="47.25496" lon="16.02965">
        <ele>447.690042</ele>
        <time>2026-07-08T09:53:00.000Z</time>
      </trkpt>
      <trkpt lat="47.25494" lon="16.02966">
        <ele>447.619365</ele>
        <time>2026-07-08T09:53:01.000Z</time>
      </trkpt>
      <trkpt lat="47.25492" lon="16.02967">
        <ele>447.53155</ele>
        <time>2026-07-08T09:53:02.000Z</time>
      </trkpt>
      <trkpt lat="47.25489" lon="16.02968">
        <ele>447.429603</ele>
        <time>2026-07-08T09:53:03.000Z</time>
      </trkpt>
      <trkpt lat="47.25486" lon="16.02969">
        <ele>447.313395</ele>
        <time>2026-07-08T09:53:04.000Z</time>
      </trkpt>
      <trkpt lat="47.25482" lon="16.0297">
        <ele>447.187312</ele>
        <time>2026-07-08T09:53:05.000Z</time>
      </trkpt>
      <trkpt lat="47.25479" lon="16.0297">
        <ele>447.057612</ele>
        <time>2026-07-08T09:53:06.000Z</time>
      </trkpt>
      <trkpt lat="47.25475" lon="16.02971">
        <ele>446.923461</ele>
        <time>2026-07-08T09:53:07.000Z</time>
      </trkpt>
      <trkpt lat="47.25471" lon="16.02973">
        <ele>446.766796</ele>
        <time>2026-07-08T09:53:08.000Z</time>
      </trkpt>
      <trkpt lat="47.25467" lon="16.02974">
        <ele>446.606053</ele>
        <time>2026-07-08T09:53:09.000Z</time>
      </trkpt>
      <trkpt lat="47.25462" lon="16.02975">
        <ele>446.440672</ele>
        <time>2026-07-08T09:53:10.000Z</time>
      </trkpt>
      <trkpt lat="47.25458" lon="16.02977">
        <ele>446.265043</ele>
        <time>2026-07-08T09:53:11.000Z</time>
      </trkpt>
      <trkpt lat="47.25453" lon="16.0298">
        <ele>446.082889</ele>
        <time>2026-07-08T09:53:12.000Z</time>
      </trkpt>
      <trkpt lat="47.25448" lon="16.02983">
        <ele>445.887013</ele>
        <time>2026-07-08T09:53:13.000Z</time>
      </trkpt>
      <trkpt lat="47.25443" lon="16.02985">
        <ele>445.684275</ele>
        <time>2026-07-08T09:53:14.000Z</time>
      </trkpt>
      <trkpt lat="47.25437" lon="16.02989">
        <ele>445.467735</ele>
        <time>2026-07-08T09:53:15.000Z</time>
      </trkpt>
      <trkpt lat="47.25432" lon="16.02992">
        <ele>445.24094</ele>
        <time>2026-07-08T09:53:16.000Z</time>
      </trkpt>
      <trkpt lat="47.25426" lon="16.02995">
        <ele>445.013841</ele>
        <time>2026-07-08T09:53:17.000Z</time>
      </trkpt>
      <trkpt lat="47.2542" lon="16.02999">
        <ele>444.784326</ele>
        <time>2026-07-08T09:53:18.000Z</time>
      </trkpt>
      <trkpt lat="47.25414" lon="16.03002">
        <ele>444.541192</ele>
        <time>2026-07-08T09:53:19.000Z</time>
      </trkpt>
      <trkpt lat="47.25408" lon="16.03006">
        <ele>444.294635</ele>
        <time>2026-07-08T09:53:20.000Z</time>
      </trkpt>
      <trkpt lat="47.25401" lon="16.0301">
        <ele>444.029186</ele>
        <time>2026-07-08T09:53:21.000Z</time>
      </trkpt>
      <trkpt lat="47.25394" lon="16.03014">
        <ele>443.762554</ele>
        <time>2026-07-08T09:53:22.000Z</time>
      </trkpt>
      <trkpt lat="47.25388" lon="16.03018">
        <ele>443.50617</ele>
        <time>2026-07-08T09:53:23.000Z</time>
      </trkpt>
      <trkpt lat="47.25382" lon="16.03023">
        <ele>443.259625</ele>
        <time>2026-07-08T09:53:24.000Z</time>
      </trkpt>
      <trkpt lat="47.25376" lon="16.03027">
        <ele>443.020745</ele>
        <time>2026-07-08T09:53:25.000Z</time>
      </trkpt>
      <trkpt lat="47.2537" lon="16.03031">
        <ele>442.784086</ele>
        <time>2026-07-08T09:53:26.000Z</time>
      </trkpt>
      <trkpt lat="47.25364" lon="16.03036">
        <ele>442.52105</ele>
        <time>2026-07-08T09:53:27.000Z</time>
      </trkpt>
      <trkpt lat="47.25358" lon="16.0304">
        <ele>442.256902</ele>
        <time>2026-07-08T09:53:28.000Z</time>
      </trkpt>
      <trkpt lat="47.25352" lon="16.03043">
        <ele>441.993405</ele>
        <time>2026-07-08T09:53:29.000Z</time>
      </trkpt>
      <trkpt lat="47.25345" lon="16.03045">
        <ele>441.723142</ele>
        <time>2026-07-08T09:53:30.000Z</time>
      </trkpt>
      <trkpt lat="47.25338" lon="16.03045">
        <ele>441.434238</ele>
        <time>2026-07-08T09:53:31.000Z</time>
      </trkpt>
      <trkpt lat="47.25331" lon="16.03043">
        <ele>441.137804</ele>
        <time>2026-07-08T09:53:32.000Z</time>
      </trkpt>
      <trkpt lat="47.25323" lon="16.0304">
        <ele>440.819692</ele>
        <time>2026-07-08T09:53:33.000Z</time>
      </trkpt>
      <trkpt lat="47.25316" lon="16.03034">
        <ele>440.486056</ele>
        <time>2026-07-08T09:53:34.000Z</time>
      </trkpt>
      <trkpt lat="47.25308" lon="16.03028">
        <ele>440.137046</ele>
        <time>2026-07-08T09:53:35.000Z</time>
      </trkpt>
      <trkpt lat="47.253" lon="16.03021">
        <ele>439.767287</ele>
        <time>2026-07-08T09:53:36.000Z</time>
      </trkpt>
      <trkpt lat="47.25292" lon="16.03014">
        <ele>439.395469</ele>
        <time>2026-07-08T09:53:37.000Z</time>
      </trkpt>
      <trkpt lat="47.25284" lon="16.03008">
        <ele>439.028088</ele>
        <time>2026-07-08T09:53:38.000Z</time>
      </trkpt>
      <trkpt lat="47.25276" lon="16.03001">
        <ele>438.647522</ele>
        <time>2026-07-08T09:53:39.000Z</time>
      </trkpt>
      <trkpt lat="47.25268" lon="16.02994">
        <ele>438.266601</ele>
        <time>2026-07-08T09:53:40.000Z</time>
      </trkpt>
      <trkpt lat="47.25259" lon="16.02988">
        <ele>437.889582</ele>
        <time>2026-07-08T09:53:41.000Z</time>
      </trkpt>
      <trkpt lat="47.25251" lon="16.02982">
        <ele>437.512745</ele>
        <time>2026-07-08T09:53:42.000Z</time>
      </trkpt>
      <trkpt lat="47.25242" lon="16.02976">
        <ele>437.134702</ele>
        <time>2026-07-08T09:53:43.000Z</time>
      </trkpt>
      <trkpt lat="47.25234" lon="16.0297">
        <ele>436.772942</ele>
        <time>2026-07-08T09:53:44.000Z</time>
      </trkpt>
      <trkpt lat="47.25226" lon="16.02966">
        <ele>436.410668</ele>
        <time>2026-07-08T09:53:45.000Z</time>
      </trkpt>
      <trkpt lat="47.25217" lon="16.02962">
        <ele>436.055929</ele>
        <time>2026-07-08T09:53:46.000Z</time>
      </trkpt>
      <trkpt lat="47.25209" lon="16.02959">
        <ele>435.717043</ele>
        <time>2026-07-08T09:53:47.000Z</time>
      </trkpt>
      <trkpt lat="47.25201" lon="16.02956">
        <ele>435.569407</ele>
        <time>2026-07-08T09:53:48.000Z</time>
      </trkpt>
      <trkpt lat="47.25193" lon="16.02952">
        <ele>435.780182</ele>
        <time>2026-07-08T09:53:49.000Z</time>
      </trkpt>
      <trkpt lat="47.25185" lon="16.02947">
        <ele>435.988973</ele>
        <time>2026-07-08T09:53:50.000Z</time>
      </trkpt>
      <trkpt lat="47.25178" lon="16.02941">
        <ele>436.194375</ele>
        <time>2026-07-08T09:53:51.000Z</time>
      </trkpt>
      <trkpt lat="47.25172" lon="16.02934">
        <ele>436.400633</ele>
        <time>2026-07-08T09:53:52.000Z</time>
      </trkpt>
      <trkpt lat="47.25166" lon="16.02927">
        <ele>436.600206</ele>
        <time>2026-07-08T09:53:53.000Z</time>
      </trkpt>
      <trkpt lat="47.25161" lon="16.02918">
        <ele>436.79056</ele>
        <time>2026-07-08T09:53:54.000Z</time>
      </trkpt>
      <trkpt lat="47.25157" lon="16.0291">
        <ele>436.968621</ele>
        <time>2026-07-08T09:53:55.000Z</time>
      </trkpt>
      <trkpt lat="47.25154" lon="16.02901">
        <ele>437.136841</ele>
        <time>2026-07-08T09:53:56.000Z</time>
      </trkpt>
      <trkpt lat="47.25152" lon="16.02893">
        <ele>437.286847</ele>
        <time>2026-07-08T09:53:57.000Z</time>
      </trkpt>
      <trkpt lat="47.25151" lon="16.02886">
        <ele>437.418433</ele>
        <time>2026-07-08T09:53:58.000Z</time>
      </trkpt>
      <trkpt lat="47.2515" lon="16.02879">
        <ele>437.531052</ele>
        <time>2026-07-08T09:53:59.000Z</time>
      </trkpt>
      <trkpt lat="47.2515" lon="16.02873">
        <ele>437.629477</ele>
        <time>2026-07-08T09:54:00.000Z</time>
      </trkpt>
      <trkpt lat="47.2515" lon="16.02868">
        <ele>437.729328</ele>
        <time>2026-07-08T09:54:01.000Z</time>
      </trkpt>
      <trkpt lat="47.2515" lon="16.02862">
        <ele>437.828274</ele>
        <time>2026-07-08T09:54:02.000Z</time>
      </trkpt>
      <trkpt lat="47.25151" lon="16.02856">
        <ele>437.932344</ele>
        <time>2026-07-08T09:54:03.000Z</time>
      </trkpt>
      <trkpt lat="47.25152" lon="16.02851">
        <ele>438.027048</ele>
        <time>2026-07-08T09:54:04.000Z</time>
      </trkpt>
      <trkpt lat="47.25153" lon="16.02846">
        <ele>438.116785</ele>
        <time>2026-07-08T09:54:05.000Z</time>
      </trkpt>
      <trkpt lat="47.25153" lon="16.0284">
        <ele>438.208906</ele>
        <time>2026-07-08T09:54:06.000Z</time>
      </trkpt>
      <trkpt lat="47.25154" lon="16.02835">
        <ele>438.30733</ele>
        <time>2026-07-08T09:54:07.000Z</time>
      </trkpt>
      <trkpt lat="47.25154" lon="16.02829">
        <ele>438.398596</ele>
        <time>2026-07-08T09:54:08.000Z</time>
      </trkpt>
      <trkpt lat="47.25155" lon="16.02824">
        <ele>438.487705</ele>
        <time>2026-07-08T09:54:09.000Z</time>
      </trkpt>
      <trkpt lat="47.25156" lon="16.02819">
        <ele>438.575596</ele>
        <time>2026-07-08T09:54:10.000Z</time>
      </trkpt>
      <trkpt lat="47.25156" lon="16.02815">
        <ele>438.653398</ele>
        <time>2026-07-08T09:54:11.000Z</time>
      </trkpt>
      <trkpt lat="47.25157" lon="16.02811">
        <ele>438.720565</ele>
        <time>2026-07-08T09:54:12.000Z</time>
      </trkpt>
      <trkpt lat="47.25158" lon="16.02807">
        <ele>438.801329</ele>
        <time>2026-07-08T09:54:13.000Z</time>
      </trkpt>
      <trkpt lat="47.25158" lon="16.02802">
        <ele>438.884932</ele>
        <time>2026-07-08T09:54:14.000Z</time>
      </trkpt>
      <trkpt lat="47.25158" lon="16.02796">
        <ele>438.986536</ele>
        <time>2026-07-08T09:54:15.000Z</time>
      </trkpt>
      <trkpt lat="47.25159" lon="16.02791">
        <ele>439.074921</ele>
        <time>2026-07-08T09:54:16.000Z</time>
      </trkpt>
      <trkpt lat="47.25159" lon="16.02786">
        <ele>439.160226</ele>
        <time>2026-07-08T09:54:17.000Z</time>
      </trkpt>
      <trkpt lat="47.2516" lon="16.02781">
        <ele>439.243829</ele>
        <time>2026-07-08T09:54:18.000Z</time>
      </trkpt>
      <trkpt lat="47.2516" lon="16.02777">
        <ele>439.321673</ele>
        <time>2026-07-08T09:54:19.000Z</time>
      </trkpt>
      <trkpt lat="47.25161" lon="16.02772">
        <ele>439.396779</ele>
        <time>2026-07-08T09:54:20.000Z</time>
      </trkpt>
      <trkpt lat="47.25161" lon="16.02768">
        <ele>439.471233</ele>
        <time>2026-07-08T09:54:21.000Z</time>
      </trkpt>
      <trkpt lat="47.25161" lon="16.02764">
        <ele>439.545434</ele>
        <time>2026-07-08T09:54:22.000Z</time>
      </trkpt>
      <trkpt lat="47.2516" lon="16.02758">
        <ele>439.645157</ele>
        <time>2026-07-08T09:54:23.000Z</time>
      </trkpt>
      <trkpt lat="47.2516" lon="16.02753">
        <ele>439.734715</ele>
        <time>2026-07-08T09:54:24.000Z</time>
      </trkpt>
      <trkpt lat="47.25159" lon="16.02747">
        <ele>439.84275</ele>
        <time>2026-07-08T09:54:25.000Z</time>
      </trkpt>
      <trkpt lat="47.25159" lon="16.02741">
        <ele>439.938282</ele>
        <time>2026-07-08T09:54:26.000Z</time>
      </trkpt>
      <trkpt lat="47.25159" lon="16.02737">
        <ele>440.015919</ele>
        <time>2026-07-08T09:54:27.000Z</time>
      </trkpt>
      <trkpt lat="47.25158" lon="16.02732">
        <ele>440.116669</ele>
        <time>2026-07-08T09:54:28.000Z</time>
      </trkpt>
      <trkpt lat="47.25158" lon="16.02727">
        <ele>440.230754</ele>
        <time>2026-07-08T09:54:29.000Z</time>
      </trkpt>
      <trkpt lat="47.25158" lon="16.02723">
        <ele>440.337736</ele>
        <time>2026-07-08T09:54:30.000Z</time>
      </trkpt>
      <trkpt lat="47.25158" lon="16.02718">
        <ele>440.437373</ele>
        <time>2026-07-08T09:54:31.000Z</time>
      </trkpt>
      <trkpt lat="47.25158" lon="16.02714">
        <ele>440.5347</ele>
        <time>2026-07-08T09:54:32.000Z</time>
      </trkpt>
      <trkpt lat="47.25158" lon="16.0271">
        <ele>440.62722</ele>
        <time>2026-07-08T09:54:33.000Z</time>
      </trkpt>
      <trkpt lat="47.25158" lon="16.02707">
        <ele>440.71025</ele>
        <time>2026-07-08T09:54:34.000Z</time>
      </trkpt>
      <trkpt lat="47.25158" lon="16.02704">
        <ele>440.783792</ele>
        <time>2026-07-08T09:54:35.000Z</time>
      </trkpt>
      <trkpt lat="47.25158" lon="16.02701">
        <ele>440.855047</ele>
        <time>2026-07-08T09:54:36.000Z</time>
      </trkpt>
      <trkpt lat="47.25158" lon="16.02698">
        <ele>440.926558</ele>
        <time>2026-07-08T09:54:37.000Z</time>
      </trkpt>
      <trkpt lat="47.25158" lon="16.02694">
        <ele>441.007519</ele>
        <time>2026-07-08T09:54:38.000Z</time>
      </trkpt>
      <trkpt lat="47.25159" lon="16.02691">
        <ele>441.079456</ele>
        <time>2026-07-08T09:54:39.000Z</time>
      </trkpt>
      <trkpt lat="47.25159" lon="16.02689">
        <ele>441.148141</ele>
        <time>2026-07-08T09:54:40.000Z</time>
      </trkpt>
      <trkpt lat="47.2516" lon="16.02686">
        <ele>441.216825</ele>
        <time>2026-07-08T09:54:41.000Z</time>
      </trkpt>
      <trkpt lat="47.2516" lon="16.02683">
        <ele>441.288763</ele>
        <time>2026-07-08T09:54:42.000Z</time>
      </trkpt>
      <trkpt lat="47.2516" lon="16.0268">
        <ele>441.364998</ele>
        <time>2026-07-08T09:54:43.000Z</time>
      </trkpt>
      <trkpt lat="47.2516" lon="16.02676">
        <ele>441.443284</ele>
        <time>2026-07-08T09:54:44.000Z</time>
      </trkpt>
      <trkpt lat="47.2516" lon="16.02673">
        <ele>441.524244</ele>
        <time>2026-07-08T09:54:45.000Z</time>
      </trkpt>
      <trkpt lat="47.2516" lon="16.0267">
        <ele>441.597785</ele>
        <time>2026-07-08T09:54:46.000Z</time>
      </trkpt>
      <trkpt lat="47.2516" lon="16.02667">
        <ele>441.67442</ele>
        <time>2026-07-08T09:54:47.000Z</time>
      </trkpt>
      <trkpt lat="47.25159" lon="16.02664">
        <ele>441.746357</ele>
        <time>2026-07-08T09:54:48.000Z</time>
      </trkpt>
      <trkpt lat="47.25159" lon="16.02661">
        <ele>441.817869</ele>
        <time>2026-07-08T09:54:49.000Z</time>
      </trkpt>
      <trkpt lat="47.25159" lon="16.02657">
        <ele>441.894503</ele>
        <time>2026-07-08T09:54:50.000Z</time>
      </trkpt>
      <trkpt lat="47.25159" lon="16.02654">
        <ele>441.966015</ele>
        <time>2026-07-08T09:54:51.000Z</time>
      </trkpt>
      <trkpt lat="47.25158" lon="16.02651">
        <ele>442.039298</ele>
        <time>2026-07-08T09:54:52.000Z</time>
      </trkpt>
      <trkpt lat="47.25158" lon="16.02649">
        <ele>442.101372</ele>
        <time>2026-07-08T09:54:53.000Z</time>
      </trkpt>
      <trkpt lat="47.25158" lon="16.02646">
        <ele>442.17331</ele>
        <time>2026-07-08T09:54:54.000Z</time>
      </trkpt>
      <trkpt lat="47.25157" lon="16.02643">
        <ele>442.248566</ele>
        <time>2026-07-08T09:54:55.000Z</time>
      </trkpt>
      <trkpt lat="47.25156" lon="16.0264">
        <ele>442.325731</ele>
        <time>2026-07-08T09:54:56.000Z</time>
      </trkpt>
      <trkpt lat="47.25155" lon="16.02637">
        <ele>442.400789</ele>
        <time>2026-07-08T09:54:57.000Z</time>
      </trkpt>
      <trkpt lat="47.25154" lon="16.02634">
        <ele>442.470445</ele>
        <time>2026-07-08T09:54:58.000Z</time>
      </trkpt>
      <trkpt lat="47.25154" lon="16.02631">
        <ele>442.543463</ele>
        <time>2026-07-08T09:54:59.000Z</time>
      </trkpt>
      <trkpt lat="47.25153" lon="16.02628">
        <ele>442.618719</ele>
        <time>2026-07-08T09:55:00.000Z</time>
      </trkpt>
      <trkpt lat="47.25152" lon="16.02626">
        <ele>442.68644</ele>
        <time>2026-07-08T09:55:01.000Z</time>
      </trkpt>
      <trkpt lat="47.25151" lon="16.02623">
        <ele>442.756329</ele>
        <time>2026-07-08T09:55:02.000Z</time>
      </trkpt>
      <trkpt lat="47.25151" lon="16.02621">
        <ele>442.816126</ele>
        <time>2026-07-08T09:55:03.000Z</time>
      </trkpt>
      <trkpt lat="47.2515" lon="16.02618">
        <ele>442.884965</ele>
        <time>2026-07-08T09:55:04.000Z</time>
      </trkpt>
      <trkpt lat="47.25149" lon="16.02616">
        <ele>442.953531</ele>
        <time>2026-07-08T09:55:05.000Z</time>
      </trkpt>
      <trkpt lat="47.25148" lon="16.02613">
        <ele>443.019099</ele>
        <time>2026-07-08T09:55:06.000Z</time>
      </trkpt>
      <trkpt lat="47.25147" lon="16.0261">
        <ele>443.092065</ele>
        <time>2026-07-08T09:55:07.000Z</time>
      </trkpt>
      <trkpt lat="47.25146" lon="16.02608">
        <ele>443.160905</ele>
        <time>2026-07-08T09:55:08.000Z</time>
      </trkpt>
      <trkpt lat="47.25145" lon="16.02606">
        <ele>443.225702</ele>
        <time>2026-07-08T09:55:09.000Z</time>
      </trkpt>
      <trkpt lat="47.25144" lon="16.02603">
        <ele>443.294541</ele>
        <time>2026-07-08T09:55:10.000Z</time>
      </trkpt>
      <trkpt lat="47.25143" lon="16.02601">
        <ele>443.363381</ele>
        <time>2026-07-08T09:55:11.000Z</time>
      </trkpt>
      <trkpt lat="47.25142" lon="16.02598">
        <ele>443.43222</ele>
        <time>2026-07-08T09:55:12.000Z</time>
      </trkpt>
      <trkpt lat="47.25141" lon="16.02596">
        <ele>443.496376</ele>
        <time>2026-07-08T09:55:13.000Z</time>
      </trkpt>
      <trkpt lat="47.25141" lon="16.02593">
        <ele>443.561943</ele>
        <time>2026-07-08T09:55:14.000Z</time>
      </trkpt>
      <trkpt lat="47.2514" lon="16.02591">
        <ele>443.62674</ele>
        <time>2026-07-08T09:55:15.000Z</time>
      </trkpt>
      <trkpt lat="47.25139" lon="16.02589">
        <ele>443.689552</ele>
        <time>2026-07-08T09:55:16.000Z</time>
      </trkpt>
      <trkpt lat="47.25138" lon="16.02586">
        <ele>443.758392</ele>
        <time>2026-07-08T09:55:17.000Z</time>
      </trkpt>
      <trkpt lat="47.25137" lon="16.02583">
        <ele>443.831359</ele>
        <time>2026-07-08T09:55:18.000Z</time>
      </trkpt>
      <trkpt lat="47.25136" lon="16.02581">
        <ele>443.896927</ele>
        <time>2026-07-08T09:55:19.000Z</time>
      </trkpt>
      <trkpt lat="47.25135" lon="16.02578">
        <ele>443.965766</ele>
        <time>2026-07-08T09:55:20.000Z</time>
      </trkpt>
      <trkpt lat="47.25134" lon="16.02576">
        <ele>444.034606</ele>
        <time>2026-07-08T09:55:21.000Z</time>
      </trkpt>
      <trkpt lat="47.25133" lon="16.02573">
        <ele>444.100961</ele>
        <time>2026-07-08T09:55:22.000Z</time>
      </trkpt>
      <trkpt lat="47.25132" lon="16.02571">
        <ele>444.17085</ele>
        <time>2026-07-08T09:55:23.000Z</time>
      </trkpt>
      <trkpt lat="47.25131" lon="16.02568">
        <ele>444.247411</ele>
        <time>2026-07-08T09:55:24.000Z</time>
      </trkpt>
      <trkpt lat="47.2513" lon="16.02565">
        <ele>444.318305</ele>
        <time>2026-07-08T09:55:25.000Z</time>
      </trkpt>
      <trkpt lat="47.25129" lon="16.02563">
        <ele>444.394866</ele>
        <time>2026-07-08T09:55:26.000Z</time>
      </trkpt>
      <trkpt lat="47.25128" lon="16.0256">
        <ele>444.479302</ele>
        <time>2026-07-08T09:55:27.000Z</time>
      </trkpt>
      <trkpt lat="47.25126" lon="16.02557">
        <ele>444.561909</ele>
        <time>2026-07-08T09:55:28.000Z</time>
      </trkpt>
      <trkpt lat="47.25125" lon="16.02554">
        <ele>444.64044</ele>
        <time>2026-07-08T09:55:29.000Z</time>
      </trkpt>
      <trkpt lat="47.25123" lon="16.02551">
        <ele>444.734983</ele>
        <time>2026-07-08T09:55:30.000Z</time>
      </trkpt>
      <trkpt lat="47.25122" lon="16.02548">
        <ele>444.825493</ele>
        <time>2026-07-08T09:55:31.000Z</time>
      </trkpt>
      <trkpt lat="47.2512" lon="16.02544">
        <ele>444.927592</ele>
        <time>2026-07-08T09:55:32.000Z</time>
      </trkpt>
      <trkpt lat="47.25118" lon="16.02541">
        <ele>445.031764</ele>
        <time>2026-07-08T09:55:33.000Z</time>
      </trkpt>
      <trkpt lat="47.25116" lon="16.02537">
        <ele>445.145648</ele>
        <time>2026-07-08T09:55:34.000Z</time>
      </trkpt>
      <trkpt lat="47.25114" lon="16.02533">
        <ele>445.265612</ele>
        <time>2026-07-08T09:55:35.000Z</time>
      </trkpt>
      <trkpt lat="47.25112" lon="16.02529">
        <ele>445.397679</ele>
        <time>2026-07-08T09:55:36.000Z</time>
      </trkpt>
      <trkpt lat="47.2511" lon="16.02524">
        <ele>445.535133</ele>
        <time>2026-07-08T09:55:37.000Z</time>
      </trkpt>
      <trkpt lat="47.25107" lon="16.02519">
        <ele>445.686705</ele>
        <time>2026-07-08T09:55:38.000Z</time>
      </trkpt>
      <trkpt lat="47.25104" lon="16.02514">
        <ele>445.850419</ele>
        <time>2026-07-08T09:55:39.000Z</time>
      </trkpt>
      <trkpt lat="47.25101" lon="16.02508">
        <ele>446.014132</ele>
        <time>2026-07-08T09:55:40.000Z</time>
      </trkpt>
      <trkpt lat="47.25097" lon="16.02503">
        <ele>446.196473</ele>
        <time>2026-07-08T09:55:41.000Z</time>
      </trkpt>
      <trkpt lat="47.25094" lon="16.02497">
        <ele>446.363639</ele>
        <time>2026-07-08T09:55:42.000Z</time>
      </trkpt>
      <trkpt lat="47.2509" lon="16.0249">
        <ele>446.468687</ele>
        <time>2026-07-08T09:55:43.000Z</time>
      </trkpt>
      <trkpt lat="47.25086" lon="16.02484">
        <ele>446.580509</ele>
        <time>2026-07-08T09:55:44.000Z</time>
      </trkpt>
      <trkpt lat="47.25078" lon="16.0247">
        <ele>446.815771</ele>
        <time>2026-07-08T09:55:45.000Z</time>
      </trkpt>
      <trkpt lat="47.25073" lon="16.02463">
        <ele>446.944196</ele>
        <time>2026-07-08T09:55:47.000Z</time>
      </trkpt>
      <trkpt lat="47.25068" lon="16.02456">
        <ele>447.069062</ele>
        <time>2026-07-08T09:55:48.000Z</time>
      </trkpt>
      <trkpt lat="47.25063" lon="16.02449">
        <ele>447.200128</ele>
        <time>2026-07-08T09:55:49.000Z</time>
      </trkpt>
      <trkpt lat="47.25053" lon="16.02434">
        <ele>447.464717</ele>
        <time>2026-07-08T09:55:50.000Z</time>
      </trkpt>
      <trkpt lat="47.25049" lon="16.02426">
        <ele>447.595057</ele>
        <time>2026-07-08T09:55:51.000Z</time>
      </trkpt>
      <trkpt lat="47.25045" lon="16.02418">
        <ele>447.713338</ele>
        <time>2026-07-08T09:55:52.000Z</time>
      </trkpt>
      <trkpt lat="47.25041" lon="16.02411">
        <ele>447.825465</ele>
        <time>2026-07-08T09:55:54.000Z</time>
      </trkpt>
      <trkpt lat="47.25035" lon="16.024">
        <ele>448.010274</ele>
        <time>2026-07-08T09:55:55.000Z</time>
      </trkpt>
      <trkpt lat="47.25032" lon="16.02395">
        <ele>448.091487</ele>
        <time>2026-07-08T09:55:56.000Z</time>
      </trkpt>
      <trkpt lat="47.25029" lon="16.02391">
        <ele>448.170305</ele>
        <time>2026-07-08T09:55:57.000Z</time>
      </trkpt>
      <trkpt lat="47.25026" lon="16.02387">
        <ele>448.24787</ele>
        <time>2026-07-08T09:55:58.000Z</time>
      </trkpt>
      <trkpt lat="47.25022" lon="16.02383">
        <ele>448.324381</ele>
        <time>2026-07-08T09:55:59.000Z</time>
      </trkpt>
      <trkpt lat="47.25019" lon="16.0238">
        <ele>448.393438</ele>
        <time>2026-07-08T09:56:00.000Z</time>
      </trkpt>
      <trkpt lat="47.25016" lon="16.02378">
        <ele>448.457996</ele>
        <time>2026-07-08T09:56:01.000Z</time>
      </trkpt>
      <trkpt lat="47.25014" lon="16.02376">
        <ele>448.515933</ele>
        <time>2026-07-08T09:56:02.000Z</time>
      </trkpt>
      <trkpt lat="47.25011" lon="16.02374">
        <ele>448.563844</ele>
        <time>2026-07-08T09:56:03.000Z</time>
      </trkpt>
      <trkpt lat="47.25009" lon="16.02372">
        <ele>448.615652</ele>
        <time>2026-07-08T09:56:04.000Z</time>
      </trkpt>
      <trkpt lat="47.25007" lon="16.02371">
        <ele>448.659786</ele>
        <time>2026-07-08T09:56:05.000Z</time>
      </trkpt>
      <trkpt lat="47.25004" lon="16.02369">
        <ele>448.707697</ele>
        <time>2026-07-08T09:56:06.000Z</time>
      </trkpt>
      <trkpt lat="47.25002" lon="16.02367">
        <ele>448.757279</ele>
        <time>2026-07-08T09:56:07.000Z</time>
      </trkpt>
      <trkpt lat="47.24999" lon="16.02366">
        <ele>448.810766</ele>
        <time>2026-07-08T09:56:08.000Z</time>
      </trkpt>
      <trkpt lat="47.24997" lon="16.02364">
        <ele>448.865436</ele>
        <time>2026-07-08T09:56:09.000Z</time>
      </trkpt>
      <trkpt lat="47.24994" lon="16.02363">
        <ele>448.920096</ele>
        <time>2026-07-08T09:56:10.000Z</time>
      </trkpt>
      <trkpt lat="47.24991" lon="16.02361">
        <ele>448.969051</ele>
        <time>2026-07-08T09:56:11.000Z</time>
      </trkpt>
      <trkpt lat="47.24989" lon="16.0236">
        <ele>449.021939</ele>
        <time>2026-07-08T09:56:12.000Z</time>
      </trkpt>
      <trkpt lat="47.24986" lon="16.02359">
        <ele>449.073774</ele>
        <time>2026-07-08T09:56:13.000Z</time>
      </trkpt>
      <trkpt lat="47.24983" lon="16.02358">
        <ele>449.124503</ele>
        <time>2026-07-08T09:56:14.000Z</time>
      </trkpt>
      <trkpt lat="47.2498" lon="16.02356">
        <ele>449.18216</ele>
        <time>2026-07-08T09:56:15.000Z</time>
      </trkpt>
      <trkpt lat="47.24977" lon="16.02355">
        <ele>449.252547</ele>
        <time>2026-07-08T09:56:16.000Z</time>
      </trkpt>
      <trkpt lat="47.24973" lon="16.02354">
        <ele>449.322174</ele>
        <time>2026-07-08T09:56:17.000Z</time>
      </trkpt>
      <trkpt lat="47.2497" lon="16.02353">
        <ele>449.38546</ele>
        <time>2026-07-08T09:56:18.000Z</time>
      </trkpt>
      <trkpt lat="47.24966" lon="16.02351">
        <ele>449.453327</ele>
        <time>2026-07-08T09:56:19.000Z</time>
      </trkpt>
      <trkpt lat="47.24963" lon="16.0235">
        <ele>449.518423</ele>
        <time>2026-07-08T09:56:20.000Z</time>
      </trkpt>
      <trkpt lat="47.24959" lon="16.02349">
        <ele>449.585055</ele>
        <time>2026-07-08T09:56:21.000Z</time>
      </trkpt>
      <trkpt lat="47.24956" lon="16.02348">
        <ele>449.651962</ele>
        <time>2026-07-08T09:56:22.000Z</time>
      </trkpt>
      <trkpt lat="47.24952" lon="16.02347">
        <ele>449.747932</ele>
        <time>2026-07-08T09:56:23.000Z</time>
      </trkpt>
      <trkpt lat="47.24949" lon="16.02346">
        <ele>449.894897</ele>
        <time>2026-07-08T09:56:24.000Z</time>
      </trkpt>
      <trkpt lat="47.24946" lon="16.02345">
        <ele>450.027023</ele>
        <time>2026-07-08T09:56:25.000Z</time>
      </trkpt>
      <trkpt lat="47.24943" lon="16.02343">
        <ele>450.163141</ele>
        <time>2026-07-08T09:56:26.000Z</time>
      </trkpt>
      <trkpt lat="47.2494" lon="16.02342">
        <ele>450.29058</ele>
        <time>2026-07-08T09:56:27.000Z</time>
      </trkpt>
      <trkpt lat="47.24937" lon="16.02341">
        <ele>450.409345</ele>
        <time>2026-07-08T09:56:28.000Z</time>
      </trkpt>
      <trkpt lat="47.24934" lon="16.0234">
        <ele>450.53212</ele>
        <time>2026-07-08T09:56:29.000Z</time>
      </trkpt>
      <trkpt lat="47.24931" lon="16.02339">
        <ele>450.650257</ele>
        <time>2026-07-08T09:56:30.000Z</time>
      </trkpt>
      <trkpt lat="47.24929" lon="16.02339">
        <ele>450.75467</ele>
        <time>2026-07-08T09:56:31.000Z</time>
      </trkpt>
      <trkpt lat="47.24926" lon="16.02338">
        <ele>450.868784</ele>
        <time>2026-07-08T09:56:32.000Z</time>
      </trkpt>
      <trkpt lat="47.24923" lon="16.02337">
        <ele>450.973197</ele>
        <time>2026-07-08T09:56:33.000Z</time>
      </trkpt>
      <trkpt lat="47.24921" lon="16.02337">
        <ele>451.081284</ele>
        <time>2026-07-08T09:56:34.000Z</time>
      </trkpt>
      <trkpt lat="47.24918" lon="16.02336">
        <ele>451.185284</ele>
        <time>2026-07-08T09:56:35.000Z</time>
      </trkpt>
      <trkpt lat="47.24916" lon="16.02336">
        <ele>451.296724</ele>
        <time>2026-07-08T09:56:36.000Z</time>
      </trkpt>
      <trkpt lat="47.24913" lon="16.02336">
        <ele>451.399779</ele>
        <time>2026-07-08T09:56:37.000Z</time>
      </trkpt>
      <trkpt lat="47.2491" lon="16.02336">
        <ele>451.511079</ele>
        <time>2026-07-08T09:56:38.000Z</time>
      </trkpt>
      <trkpt lat="47.24908" lon="16.02336">
        <ele>451.618402</ele>
        <time>2026-07-08T09:56:39.000Z</time>
      </trkpt>
      <trkpt lat="47.24905" lon="16.02336">
        <ele>451.729701</ele>
        <time>2026-07-08T09:56:40.000Z</time>
      </trkpt>
      <trkpt lat="47.24902" lon="16.02336">
        <ele>451.841562</ele>
        <time>2026-07-08T09:56:41.000Z</time>
      </trkpt>
      <trkpt lat="47.249" lon="16.02337">
        <ele>451.944959</ele>
        <time>2026-07-08T09:56:42.000Z</time>
      </trkpt>
      <trkpt lat="47.24897" lon="16.02337">
        <ele>452.053911</ele>
        <time>2026-07-08T09:56:43.000Z</time>
      </trkpt>
      <trkpt lat="47.24895" lon="16.02338">
        <ele>452.159369</ele>
        <time>2026-07-08T09:56:44.000Z</time>
      </trkpt>
      <trkpt lat="47.24892" lon="16.02339">
        <ele>452.275624</ele>
        <time>2026-07-08T09:56:45.000Z</time>
      </trkpt>
      <trkpt lat="47.2489" lon="16.02341">
        <ele>452.384911</ele>
        <time>2026-07-08T09:56:46.000Z</time>
      </trkpt>
      <trkpt lat="47.24887" lon="16.02342">
        <ele>452.493298</ele>
        <time>2026-07-08T09:56:47.000Z</time>
      </trkpt>
      <trkpt lat="47.24885" lon="16.02343">
        <ele>452.594848</ele>
        <time>2026-07-08T09:56:48.000Z</time>
      </trkpt>
      <trkpt lat="47.24882" lon="16.02345">
        <ele>452.704623</ele>
        <time>2026-07-08T09:56:49.000Z</time>
      </trkpt>
      <trkpt lat="47.2488" lon="16.02347">
        <ele>452.811982</ele>
        <time>2026-07-08T09:56:50.000Z</time>
      </trkpt>
      <trkpt lat="47.24878" lon="16.02349">
        <ele>452.916572</ele>
        <time>2026-07-08T09:56:51.000Z</time>
      </trkpt>
      <trkpt lat="47.24876" lon="16.02351">
        <ele>453.019464</ele>
        <time>2026-07-08T09:56:52.000Z</time>
      </trkpt>
      <trkpt lat="47.24874" lon="16.02353">
        <ele>453.122356</ele>
        <time>2026-07-08T09:56:53.000Z</time>
      </trkpt>
      <trkpt lat="47.24872" lon="16.02356">
        <ele>453.220579</ele>
        <time>2026-07-08T09:56:54.000Z</time>
      </trkpt>
      <trkpt lat="47.2487" lon="16.02358">
        <ele>453.328703</ele>
        <time>2026-07-08T09:56:55.000Z</time>
      </trkpt>
      <trkpt lat="47.24869" lon="16.02361">
        <ele>453.427721</ele>
        <time>2026-07-08T09:56:56.000Z</time>
      </trkpt>
      <trkpt lat="47.24867" lon="16.02364">
        <ele>453.537073</ele>
        <time>2026-07-08T09:56:57.000Z</time>
      </trkpt>
      <trkpt lat="47.24865" lon="16.02367">
        <ele>453.641334</ele>
        <time>2026-07-08T09:56:58.000Z</time>
      </trkpt>
      <trkpt lat="47.24864" lon="16.0237">
        <ele>453.745595</ele>
        <time>2026-07-08T09:56:59.000Z</time>
      </trkpt>
      <trkpt lat="47.24863" lon="16.02373">
        <ele>453.845965</ele>
        <time>2026-07-08T09:57:00.000Z</time>
      </trkpt>
      <trkpt lat="47.24861" lon="16.02376">
        <ele>453.954857</ele>
        <time>2026-07-08T09:57:01.000Z</time>
      </trkpt>
      <trkpt lat="47.2486" lon="16.02379">
        <ele>454.057731</ele>
        <time>2026-07-08T09:57:02.000Z</time>
      </trkpt>
      <trkpt lat="47.24859" lon="16.02383">
        <ele>454.164261</ele>
        <time>2026-07-08T09:57:03.000Z</time>
      </trkpt>
      <trkpt lat="47.24858" lon="16.02386">
        <ele>454.275901</ele>
        <time>2026-07-08T09:57:04.000Z</time>
      </trkpt>
      <trkpt lat="47.24856" lon="16.0239">
        <ele>454.387542</ele>
        <time>2026-07-08T09:57:05.000Z</time>
      </trkpt>
      <trkpt lat="47.24855" lon="16.02393">
        <ele>454.501218</ele>
        <time>2026-07-08T09:57:06.000Z</time>
      </trkpt>
      <trkpt lat="47.24854" lon="16.02397">
        <ele>454.614247</ele>
        <time>2026-07-08T09:57:07.000Z</time>
      </trkpt>
      <trkpt lat="47.24853" lon="16.024">
        <ele>454.726473</ele>
        <time>2026-07-08T09:57:08.000Z</time>
      </trkpt>
      <trkpt lat="47.24851" lon="16.02404">
        <ele>454.848052</ele>
        <time>2026-07-08T09:57:09.000Z</time>
      </trkpt>
      <trkpt lat="47.2485" lon="16.02408">
        <ele>454.969036</ele>
        <time>2026-07-08T09:57:10.000Z</time>
      </trkpt>
      <trkpt lat="47.24849" lon="16.02412">
        <ele>455.084634</ele>
        <time>2026-07-08T09:57:11.000Z</time>
      </trkpt>
      <trkpt lat="47.24848" lon="16.02416">
        <ele>455.196073</ele>
        <time>2026-07-08T09:57:12.000Z</time>
      </trkpt>
      <trkpt lat="47.24847" lon="16.0242">
        <ele>455.318446</ele>
        <time>2026-07-08T09:57:13.000Z</time>
      </trkpt>
      <trkpt lat="47.24845" lon="16.02423">
        <ele>455.43319</ele>
        <time>2026-07-08T09:57:14.000Z</time>
      </trkpt>
      <trkpt lat="47.24844" lon="16.02427">
        <ele>455.547294</ele>
        <time>2026-07-08T09:57:15.000Z</time>
      </trkpt>
      <trkpt lat="47.24843" lon="16.0243">
        <ele>455.656488</ele>
        <time>2026-07-08T09:57:16.000Z</time>
      </trkpt>
      <trkpt lat="47.24841" lon="16.02434">
        <ele>455.770165</ele>
        <time>2026-07-08T09:57:17.000Z</time>
      </trkpt>
      <trkpt lat="47.2484" lon="16.02437">
        <ele>455.881806</ele>
        <time>2026-07-08T09:57:18.000Z</time>
      </trkpt>
      <trkpt lat="47.24839" lon="16.02441">
        <ele>455.991527</ele>
        <time>2026-07-08T09:57:19.000Z</time>
      </trkpt>
      <trkpt lat="47.24838" lon="16.02444">
        <ele>456.099453</ele>
        <time>2026-07-08T09:57:20.000Z</time>
      </trkpt>
      <trkpt lat="47.24837" lon="16.02448">
        <ele>456.209175</ele>
        <time>2026-07-08T09:57:21.000Z</time>
      </trkpt>
      <trkpt lat="47.24835" lon="16.02451">
        <ele>456.321402</ele>
        <time>2026-07-08T09:57:22.000Z</time>
      </trkpt>
      <trkpt lat="47.24834" lon="16.02455">
        <ele>456.439578</ele>
        <time>2026-07-08T09:57:23.000Z</time>
      </trkpt>
      <trkpt lat="47.24833" lon="16.02459">
        <ele>456.560563</ele>
        <time>2026-07-08T09:57:24.000Z</time>
      </trkpt>
      <trkpt lat="47.24831" lon="16.02463">
        <ele>456.681157</ele>
        <time>2026-07-08T09:57:25.000Z</time>
      </trkpt>
      <trkpt lat="47.2483" lon="16.02467">
        <ele>456.806284</ele>
        <time>2026-07-08T09:57:26.000Z</time>
      </trkpt>
      <trkpt lat="47.24828" lon="16.0247">
        <ele>456.926711</ele>
        <time>2026-07-08T09:57:27.000Z</time>
      </trkpt>
      <trkpt lat="47.24826" lon="16.02474">
        <ele>457.05406</ele>
        <time>2026-07-08T09:57:28.000Z</time>
      </trkpt>
      <trkpt lat="47.24825" lon="16.02477">
        <ele>457.109543</ele>
        <time>2026-07-08T09:57:29.000Z</time>
      </trkpt>
      <trkpt lat="47.24823" lon="16.02481">
        <ele>457.11341</ele>
        <time>2026-07-08T09:57:30.000Z</time>
      </trkpt>
      <trkpt lat="47.24821" lon="16.02485">
        <ele>457.117135</ele>
        <time>2026-07-08T09:57:31.000Z</time>
      </trkpt>
      <trkpt lat="47.2482" lon="16.02488">
        <ele>457.120799</ele>
        <time>2026-07-08T09:57:32.000Z</time>
      </trkpt>
      <trkpt lat="47.24818" lon="16.02491">
        <ele>457.1246</ele>
        <time>2026-07-08T09:57:33.000Z</time>
      </trkpt>
      <trkpt lat="47.24816" lon="16.02495">
        <ele>457.128494</ele>
        <time>2026-07-08T09:57:34.000Z</time>
      </trkpt>
      <trkpt lat="47.24814" lon="16.02498">
        <ele>457.132622</ele>
        <time>2026-07-08T09:57:35.000Z</time>
      </trkpt>
      <trkpt lat="47.24811" lon="16.02502">
        <ele>457.136901</ele>
        <time>2026-07-08T09:57:36.000Z</time>
      </trkpt>
      <trkpt lat="47.24809" lon="16.02506">
        <ele>457.141653</ele>
        <time>2026-07-08T09:57:37.000Z</time>
      </trkpt>
      <trkpt lat="47.24807" lon="16.0251">
        <ele>457.146323</ele>
        <time>2026-07-08T09:57:38.000Z</time>
      </trkpt>
      <trkpt lat="47.24804" lon="16.02515">
        <ele>457.151223</ele>
        <time>2026-07-08T09:57:39.000Z</time>
      </trkpt>
      <trkpt lat="47.24802" lon="16.02519">
        <ele>457.156256</ele>
        <time>2026-07-08T09:57:40.000Z</time>
      </trkpt>
      <trkpt lat="47.24799" lon="16.02524">
        <ele>457.161454</ele>
        <time>2026-07-08T09:57:41.000Z</time>
      </trkpt>
      <trkpt lat="47.24796" lon="16.02528">
        <ele>457.167038</ele>
        <time>2026-07-08T09:57:42.000Z</time>
      </trkpt>
      <trkpt lat="47.24793" lon="16.02533">
        <ele>457.172516</ele>
        <time>2026-07-08T09:57:43.000Z</time>
      </trkpt>
      <trkpt lat="47.2479" lon="16.02538">
        <ele>457.178292</ele>
        <time>2026-07-08T09:57:44.000Z</time>
      </trkpt>
      <trkpt lat="47.24787" lon="16.02543">
        <ele>457.184036</ele>
        <time>2026-07-08T09:57:45.000Z</time>
      </trkpt>
      <trkpt lat="47.24784" lon="16.02549">
        <ele>457.189928</ele>
        <time>2026-07-08T09:57:46.000Z</time>
      </trkpt>
      <trkpt lat="47.24782" lon="16.02554">
        <ele>457.195514</ele>
        <time>2026-07-08T09:57:47.000Z</time>
      </trkpt>
      <trkpt lat="47.24779" lon="16.02559">
        <ele>457.201243</ele>
        <time>2026-07-08T09:57:48.000Z</time>
      </trkpt>
      <trkpt lat="47.24777" lon="16.02565">
        <ele>457.206901</ele>
        <time>2026-07-08T09:57:49.000Z</time>
      </trkpt>
      <trkpt lat="47.24774" lon="16.0257">
        <ele>457.21256</ele>
        <time>2026-07-08T09:57:50.000Z</time>
      </trkpt>
      <trkpt lat="47.24772" lon="16.02575">
        <ele>457.218146</ele>
        <time>2026-07-08T09:57:51.000Z</time>
      </trkpt>
      <trkpt lat="47.24769" lon="16.02581">
        <ele>457.224021</ele>
        <time>2026-07-08T09:57:52.000Z</time>
      </trkpt>
      <trkpt lat="47.24766" lon="16.02587">
        <ele>457.230037</ele>
        <time>2026-07-08T09:57:53.000Z</time>
      </trkpt>
      <trkpt lat="47.24764" lon="16.02593">
        <ele>457.23613</ele>
        <time>2026-07-08T09:57:54.000Z</time>
      </trkpt>
      <trkpt lat="47.24762" lon="16.02599">
        <ele>457.241916</ele>
        <time>2026-07-08T09:57:55.000Z</time>
      </trkpt>
      <trkpt lat="47.2476" lon="16.02605">
        <ele>457.247701</ele>
        <time>2026-07-08T09:57:56.000Z</time>
      </trkpt>
      <trkpt lat="47.24758" lon="16.0261">
        <ele>457.253142</ele>
        <time>2026-07-08T09:57:57.000Z</time>
      </trkpt>
      <trkpt lat="47.24756" lon="16.02616">
        <ele>457.258773</ele>
        <time>2026-07-08T09:57:58.000Z</time>
      </trkpt>
      <trkpt lat="47.24754" lon="16.02622">
        <ele>457.264403</ele>
        <time>2026-07-08T09:57:59.000Z</time>
      </trkpt>
      <trkpt lat="47.24752" lon="16.02628">
        <ele>457.270306</ele>
        <time>2026-07-08T09:58:00.000Z</time>
      </trkpt>
      <trkpt lat="47.2475" lon="16.02634">
        <ele>457.276247</ele>
        <time>2026-07-08T09:58:01.000Z</time>
      </trkpt>
      <trkpt lat="47.24748" lon="16.0264">
        <ele>457.282032</ele>
        <time>2026-07-08T09:58:02.000Z</time>
      </trkpt>
      <trkpt lat="47.24746" lon="16.02646">
        <ele>457.287818</ele>
        <time>2026-07-08T09:58:03.000Z</time>
      </trkpt>
      <trkpt lat="47.24744" lon="16.02652">
        <ele>457.293603</ele>
        <time>2026-07-08T09:58:04.000Z</time>
      </trkpt>
      <trkpt lat="47.24742" lon="16.02658">
        <ele>457.299234</ele>
        <time>2026-07-08T09:58:05.000Z</time>
      </trkpt>
      <trkpt lat="47.2474" lon="16.02664">
        <ele>457.305198</ele>
        <time>2026-07-08T09:58:06.000Z</time>
      </trkpt>
      <trkpt lat="47.24737" lon="16.0267">
        <ele>457.311162</ele>
        <time>2026-07-08T09:58:07.000Z</time>
      </trkpt>
      <trkpt lat="47.24735" lon="16.02676">
        <ele>457.317115</ele>
        <time>2026-07-08T09:58:08.000Z</time>
      </trkpt>
      <trkpt lat="47.24732" lon="16.02681">
        <ele>457.322844</ele>
        <time>2026-07-08T09:58:09.000Z</time>
      </trkpt>
      <trkpt lat="47.2473" lon="16.02687">
        <ele>457.328716</ele>
        <time>2026-07-08T09:58:10.000Z</time>
      </trkpt>
      <trkpt lat="47.24727" lon="16.02692">
        <ele>457.334591</ele>
        <time>2026-07-08T09:58:11.000Z</time>
      </trkpt>
      <trkpt lat="47.24724" lon="16.02698">
        <ele>457.321057</ele>
        <time>2026-07-08T09:58:12.000Z</time>
      </trkpt>
      <trkpt lat="47.24721" lon="16.02702">
        <ele>457.29663</ele>
        <time>2026-07-08T09:58:13.000Z</time>
      </trkpt>
      <trkpt lat="47.24717" lon="16.02707">
        <ele>457.271438</ele>
        <time>2026-07-08T09:58:14.000Z</time>
      </trkpt>
      <trkpt lat="47.24714" lon="16.02712">
        <ele>457.245674</ele>
        <time>2026-07-08T09:58:15.000Z</time>
      </trkpt>
      <trkpt lat="47.2471" lon="16.02716">
        <ele>457.21889</ele>
        <time>2026-07-08T09:58:16.000Z</time>
      </trkpt>
      <trkpt lat="47.24705" lon="16.0272">
        <ele>457.192276</ele>
        <time>2026-07-08T09:58:17.000Z</time>
      </trkpt>
      <trkpt lat="47.24701" lon="16.02724">
        <ele>457.166106</ele>
        <time>2026-07-08T09:58:18.000Z</time>
      </trkpt>
      <trkpt lat="47.24697" lon="16.02728">
        <ele>457.139686</ele>
        <time>2026-07-08T09:58:19.000Z</time>
      </trkpt>
      <trkpt lat="47.24693" lon="16.02733">
        <ele>457.113335</ele>
        <time>2026-07-08T09:58:20.000Z</time>
      </trkpt>
      <trkpt lat="47.24689" lon="16.02737">
        <ele>457.086984</ele>
        <time>2026-07-08T09:58:21.000Z</time>
      </trkpt>
      <trkpt lat="47.24685" lon="16.02741">
        <ele>457.06213</ele>
        <time>2026-07-08T09:58:22.000Z</time>
      </trkpt>
      <trkpt lat="47.24681" lon="16.02745">
        <ele>457.035515</ele>
        <time>2026-07-08T09:58:23.000Z</time>
      </trkpt>
      <trkpt lat="47.24677" lon="16.02749">
        <ele>457.010661</ele>
        <time>2026-07-08T09:58:24.000Z</time>
      </trkpt>
      <trkpt lat="47.24673" lon="16.02753">
        <ele>456.985135</ele>
        <time>2026-07-08T09:58:25.000Z</time>
      </trkpt>
      <trkpt lat="47.24669" lon="16.02757">
        <ele>456.959846</ele>
        <time>2026-07-08T09:58:26.000Z</time>
      </trkpt>
      <trkpt lat="47.24666" lon="16.02761">
        <ele>456.934992</ele>
        <time>2026-07-08T09:58:27.000Z</time>
      </trkpt>
      <trkpt lat="47.24662" lon="16.02765">
        <ele>456.909265</ele>
        <time>2026-07-08T09:58:28.000Z</time>
      </trkpt>
      <trkpt lat="47.24658" lon="16.02769">
        <ele>456.883765</ele>
        <time>2026-07-08T09:58:29.000Z</time>
      </trkpt>
      <trkpt lat="47.24654" lon="16.02773">
        <ele>456.856752</ele>
        <time>2026-07-08T09:58:30.000Z</time>
      </trkpt>
      <trkpt lat="47.24649" lon="16.02778">
        <ele>456.829533</ele>
        <time>2026-07-08T09:58:31.000Z</time>
      </trkpt>
      <trkpt lat="47.24645" lon="16.02782">
        <ele>456.80275</ele>
        <time>2026-07-08T09:58:32.000Z</time>
      </trkpt>
      <trkpt lat="47.24641" lon="16.02786">
        <ele>456.775737</ele>
        <time>2026-07-08T09:58:33.000Z</time>
      </trkpt>
      <trkpt lat="47.24637" lon="16.02791">
        <ele>456.748099</ele>
        <time>2026-07-08T09:58:34.000Z</time>
      </trkpt>
      <trkpt lat="47.24633" lon="16.02795">
        <ele>456.720443</ele>
        <time>2026-07-08T09:58:35.000Z</time>
      </trkpt>
      <trkpt lat="47.24628" lon="16.02799">
        <ele>456.692805</ele>
        <time>2026-07-08T09:58:36.000Z</time>
      </trkpt>
      <trkpt lat="47.24624" lon="16.02804">
        <ele>456.664944</ele>
        <time>2026-07-08T09:58:37.000Z</time>
      </trkpt>
      <trkpt lat="47.2462" lon="16.02808">
        <ele>456.636875</ele>
        <time>2026-07-08T09:58:38.000Z</time>
      </trkpt>
      <trkpt lat="47.24615" lon="16.02813">
        <ele>456.607738</ele>
        <time>2026-07-08T09:58:39.000Z</time>
      </trkpt>
      <trkpt lat="47.24611" lon="16.02818">
        <ele>456.579245</ele>
        <time>2026-07-08T09:58:40.000Z</time>
      </trkpt>
      <trkpt lat="47.24607" lon="16.02823">
        <ele>456.550534</ele>
        <time>2026-07-08T09:58:41.000Z</time>
      </trkpt>
      <trkpt lat="47.24602" lon="16.02828">
        <ele>456.520539</ele>
        <time>2026-07-08T09:58:42.000Z</time>
      </trkpt>
      <trkpt lat="47.24598" lon="16.02832">
        <ele>456.491184</ele>
        <time>2026-07-08T09:58:43.000Z</time>
      </trkpt>
      <trkpt lat="47.24593" lon="16.02837">
        <ele>456.460263</ele>
        <time>2026-07-08T09:58:44.000Z</time>
      </trkpt>
      <trkpt lat="47.24588" lon="16.02841">
        <ele>456.42927</ele>
        <time>2026-07-08T09:58:45.000Z</time>
      </trkpt>
      <trkpt lat="47.24583" lon="16.02845">
        <ele>456.398523</ele>
        <time>2026-07-08T09:58:46.000Z</time>
      </trkpt>
      <trkpt lat="47.24577" lon="16.02849">
        <ele>456.339497</ele>
        <time>2026-07-08T09:58:47.000Z</time>
      </trkpt>
      <trkpt lat="47.24572" lon="16.02852">
        <ele>456.243278</ele>
        <time>2026-07-08T09:58:48.000Z</time>
      </trkpt>
      <trkpt lat="47.24567" lon="16.02855">
        <ele>456.150275</ele>
        <time>2026-07-08T09:58:49.000Z</time>
      </trkpt>
      <trkpt lat="47.24562" lon="16.02857">
        <ele>456.057132</ele>
        <time>2026-07-08T09:58:50.000Z</time>
      </trkpt>
      <trkpt lat="47.24556" lon="16.02859">
        <ele>455.962489</ele>
        <time>2026-07-08T09:58:51.000Z</time>
      </trkpt>
      <trkpt lat="47.24551" lon="16.02861">
        <ele>455.868087</ele>
        <time>2026-07-08T09:58:52.000Z</time>
      </trkpt>
      <trkpt lat="47.24545" lon="16.02862">
        <ele>455.777428</ele>
        <time>2026-07-08T09:58:53.000Z</time>
      </trkpt>
      <trkpt lat="47.2454" lon="16.02864">
        <ele>455.685514</ele>
        <time>2026-07-08T09:58:54.000Z</time>
      </trkpt>
      <trkpt lat="47.24535" lon="16.02865">
        <ele>455.59857</ele>
        <time>2026-07-08T09:58:55.000Z</time>
      </trkpt>
      <trkpt lat="47.24529" lon="16.02866">
        <ele>455.505172</ele>
        <time>2026-07-08T09:58:56.000Z</time>
      </trkpt>
      <trkpt lat="47.24524" lon="16.02867">
        <ele>455.413258</ele>
        <time>2026-07-08T09:58:57.000Z</time>
      </trkpt>
      <trkpt lat="47.24518" lon="16.02868">
        <ele>455.320523</ele>
        <time>2026-07-08T09:58:58.000Z</time>
      </trkpt>
      <trkpt lat="47.24513" lon="16.02868">
        <ele>455.226391</ele>
        <time>2026-07-08T09:58:59.000Z</time>
      </trkpt>
      <trkpt lat="47.24507" lon="16.02868">
        <ele>455.133994</ele>
        <time>2026-07-08T09:59:00.000Z</time>
      </trkpt>
      <trkpt lat="47.24501" lon="16.02868">
        <ele>455.034563</ele>
        <time>2026-07-08T09:59:01.000Z</time>
      </trkpt>
      <trkpt lat="47.24496" lon="16.02867">
        <ele>454.940155</ele>
        <time>2026-07-08T09:59:02.000Z</time>
      </trkpt>
      <trkpt lat="47.2449" lon="16.02866">
        <ele>454.840809</ele>
        <time>2026-07-08T09:59:03.000Z</time>
      </trkpt>
      <trkpt lat="47.24484" lon="16.02866">
        <ele>454.739859</ele>
        <time>2026-07-08T09:59:04.000Z</time>
      </trkpt>
      <trkpt lat="47.24478" lon="16.02865">
        <ele>454.633729</ele>
        <time>2026-07-08T09:59:05.000Z</time>
      </trkpt>
      <trkpt lat="47.24471" lon="16.02864">
        <ele>454.527019</ele>
        <time>2026-07-08T09:59:06.000Z</time>
      </trkpt>
      <trkpt lat="47.24465" lon="16.02863">
        <ele>454.413774</ele>
        <time>2026-07-08T09:59:07.000Z</time>
      </trkpt>
      <trkpt lat="47.24458" lon="16.02861">
        <ele>454.300099</ele>
        <time>2026-07-08T09:59:08.000Z</time>
      </trkpt>
      <trkpt lat="47.24451" lon="16.02859">
        <ele>454.183616</ele>
        <time>2026-07-08T09:59:09.000Z</time>
      </trkpt>
      <trkpt lat="47.24444" lon="16.02857">
        <ele>454.059858</ele>
        <time>2026-07-08T09:59:10.000Z</time>
      </trkpt>
      <trkpt lat="47.24437" lon="16.02855">
        <ele>453.93396</ele>
        <time>2026-07-08T09:59:11.000Z</time>
      </trkpt>
      <trkpt lat="47.24429" lon="16.02852">
        <ele>453.801981</ele>
        <time>2026-07-08T09:59:12.000Z</time>
      </trkpt>
      <trkpt lat="47.24421" lon="16.0285">
        <ele>453.668984</ele>
        <time>2026-07-08T09:59:13.000Z</time>
      </trkpt>
      <trkpt lat="47.24413" lon="16.02848">
        <ele>453.532863</ele>
        <time>2026-07-08T09:59:14.000Z</time>
      </trkpt>
      <trkpt lat="47.24405" lon="16.02846">
        <ele>453.393242</ele>
        <time>2026-07-08T09:59:15.000Z</time>
      </trkpt>
      <trkpt lat="47.24397" lon="16.02845">
        <ele>453.079662</ele>
        <time>2026-07-08T09:59:16.000Z</time>
      </trkpt>
      <trkpt lat="47.24388" lon="16.02843">
        <ele>452.700516</ele>
        <time>2026-07-08T09:59:17.000Z</time>
      </trkpt>
      <trkpt lat="47.24379" lon="16.02842">
        <ele>452.312912</ele>
        <time>2026-07-08T09:59:18.000Z</time>
      </trkpt>
      <trkpt lat="47.2437" lon="16.02841">
        <ele>451.913589</ele>
        <time>2026-07-08T09:59:19.000Z</time>
      </trkpt>
      <trkpt lat="47.24361" lon="16.02841">
        <ele>451.510517</ele>
        <time>2026-07-08T09:59:20.000Z</time>
      </trkpt>
      <trkpt lat="47.24352" lon="16.02841">
        <ele>451.09403</ele>
        <time>2026-07-08T09:59:21.000Z</time>
      </trkpt>
      <trkpt lat="47.24342" lon="16.02842">
        <ele>450.672901</ele>
        <time>2026-07-08T09:59:22.000Z</time>
      </trkpt>
      <trkpt lat="47.24333" lon="16.02843">
        <ele>450.24687</ele>
        <time>2026-07-08T09:59:23.000Z</time>
      </trkpt>
      <trkpt lat="47.24323" lon="16.02843">
        <ele>449.808154</ele>
        <time>2026-07-08T09:59:24.000Z</time>
      </trkpt>
      <trkpt lat="47.24313" lon="16.02844">
        <ele>449.374032</ele>
        <time>2026-07-08T09:59:25.000Z</time>
      </trkpt>
      <trkpt lat="47.24303" lon="16.02843">
        <ele>448.922247</ele>
        <time>2026-07-08T09:59:26.000Z</time>
      </trkpt>
      <trkpt lat="47.24292" lon="16.02843">
        <ele>448.456595</ele>
        <time>2026-07-08T09:59:27.000Z</time>
      </trkpt>
      <trkpt lat="47.24282" lon="16.02841">
        <ele>447.976155</ele>
        <time>2026-07-08T09:59:28.000Z</time>
      </trkpt>
      <trkpt lat="47.24271" lon="16.02839">
        <ele>447.497247</ele>
        <time>2026-07-08T09:59:29.000Z</time>
      </trkpt>
      <trkpt lat="47.2426" lon="16.02835">
        <ele>447.008127</ele>
        <time>2026-07-08T09:59:30.000Z</time>
      </trkpt>
      <trkpt lat="47.24249" lon="16.02831">
        <ele>446.505597</ele>
        <time>2026-07-08T09:59:31.000Z</time>
      </trkpt>
      <trkpt lat="47.24238" lon="16.02826">
        <ele>446.006582</ele>
        <time>2026-07-08T09:59:32.000Z</time>
      </trkpt>
      <trkpt lat="47.24228" lon="16.02821">
        <ele>445.510812</ele>
        <time>2026-07-08T09:59:33.000Z</time>
      </trkpt>
      <trkpt lat="47.24217" lon="16.02816">
        <ele>445.098354</ele>
        <time>2026-07-08T09:59:34.000Z</time>
      </trkpt>
      <trkpt lat="47.24208" lon="16.02812">
        <ele>444.730478</ele>
        <time>2026-07-08T09:59:35.000Z</time>
      </trkpt>
      <trkpt lat="47.24199" lon="16.02807">
        <ele>444.404242</ele>
        <time>2026-07-08T09:59:36.000Z</time>
      </trkpt>
      <trkpt lat="47.24192" lon="16.028">
        <ele>444.099795</ele>
        <time>2026-07-08T09:59:37.000Z</time>
      </trkpt>
      <trkpt lat="47.24186" lon="16.02792">
        <ele>443.808121</ele>
        <time>2026-07-08T09:59:38.000Z</time>
      </trkpt>
      <trkpt lat="47.24181" lon="16.02782">
        <ele>443.506011</ele>
        <time>2026-07-08T09:59:39.000Z</time>
      </trkpt>
      <trkpt lat="47.24178" lon="16.0277">
        <ele>443.187799</ele>
        <time>2026-07-08T09:59:40.000Z</time>
      </trkpt>
      <trkpt lat="47.24176" lon="16.02757">
        <ele>442.864996</ele>
        <time>2026-07-08T09:59:41.000Z</time>
      </trkpt>
      <trkpt lat="47.24175" lon="16.02743">
        <ele>442.539426</ele>
        <time>2026-07-08T09:59:42.000Z</time>
      </trkpt>
      <trkpt lat="47.24175" lon="16.0273">
        <ele>442.210011</ele>
        <time>2026-07-08T09:59:43.000Z</time>
      </trkpt>
      <trkpt lat="47.24174" lon="16.02716">
        <ele>441.881377</ele>
        <time>2026-07-08T09:59:44.000Z</time>
      </trkpt>
      <trkpt lat="47.24174" lon="16.02702">
        <ele>441.543111</ele>
        <time>2026-07-08T09:59:45.000Z</time>
      </trkpt>
      <trkpt lat="47.24174" lon="16.02689">
        <ele>441.214575</ele>
        <time>2026-07-08T09:59:46.000Z</time>
      </trkpt>
      <trkpt lat="47.24175" lon="16.02676">
        <ele>440.895668</ele>
        <time>2026-07-08T09:59:47.000Z</time>
      </trkpt>
      <trkpt lat="47.24175" lon="16.02663">
        <ele>440.590508</ele>
        <time>2026-07-08T09:59:48.000Z</time>
      </trkpt>
      <trkpt lat="47.24176" lon="16.02652">
        <ele>440.304404</ele>
        <time>2026-07-08T09:59:49.000Z</time>
      </trkpt>
      <trkpt lat="47.24177" lon="16.0264">
        <ele>440.030402</ele>
        <time>2026-07-08T09:59:50.000Z</time>
      </trkpt>
      <trkpt lat="47.24178" lon="16.0263">
        <ele>439.772433</ele>
        <time>2026-07-08T09:59:51.000Z</time>
      </trkpt>
      <trkpt lat="47.24179" lon="16.0262">
        <ele>439.525421</ele>
        <time>2026-07-08T09:59:52.000Z</time>
      </trkpt>
      <trkpt lat="47.24179" lon="16.0261">
        <ele>439.292927</ele>
        <time>2026-07-08T09:59:53.000Z</time>
      </trkpt>
      <trkpt lat="47.24179" lon="16.02601">
        <ele>439.064195</ele>
        <time>2026-07-08T09:59:54.000Z</time>
      </trkpt>
      <trkpt lat="47.24179" lon="16.02592">
        <ele>439.067725</ele>
        <time>2026-07-08T09:59:55.000Z</time>
      </trkpt>
      <trkpt lat="47.24179" lon="16.02583">
        <ele>439.324003</ele>
        <time>2026-07-08T09:59:56.000Z</time>
      </trkpt>
      <trkpt lat="47.24179" lon="16.02575">
        <ele>439.565686</ele>
        <time>2026-07-08T09:59:57.000Z</time>
      </trkpt>
      <trkpt lat="47.24179" lon="16.02567">
        <ele>439.799265</ele>
        <time>2026-07-08T09:59:58.000Z</time>
      </trkpt>
      <trkpt lat="47.24179" lon="16.02559">
        <ele>440.023846</ele>
        <time>2026-07-08T09:59:59.000Z</time>
      </trkpt>
      <trkpt lat="47.24178" lon="16.02552">
        <ele>440.236799</ele>
        <time>2026-07-08T10:00:00.000Z</time>
      </trkpt>
      <trkpt lat="47.24178" lon="16.02544">
        <ele>440.45334</ele>
        <time>2026-07-08T10:00:01.000Z</time>
      </trkpt>
      <trkpt lat="47.24177" lon="16.02537">
        <ele>440.658295</ele>
        <time>2026-07-08T10:00:02.000Z</time>
      </trkpt>
      <trkpt lat="47.24177" lon="16.0253">
        <ele>440.862845</ele>
        <time>2026-07-08T10:00:03.000Z</time>
      </trkpt>
      <trkpt lat="47.24177" lon="16.02524">
        <ele>441.060897</ele>
        <time>2026-07-08T10:00:04.000Z</time>
      </trkpt>
      <trkpt lat="47.24176" lon="16.02517">
        <ele>441.259644</ele>
        <time>2026-07-08T10:00:05.000Z</time>
      </trkpt>
      <trkpt lat="47.24176" lon="16.0251">
        <ele>441.449351</ele>
        <time>2026-07-08T10:00:06.000Z</time>
      </trkpt>
      <trkpt lat="47.24176" lon="16.02504">
        <ele>441.630343</ele>
        <time>2026-07-08T10:00:07.000Z</time>
      </trkpt>
      <trkpt lat="47.24176" lon="16.02498">
        <ele>441.811081</ele>
        <time>2026-07-08T10:00:08.000Z</time>
      </trkpt>
      <trkpt lat="47.24175" lon="16.02492">
        <ele>441.980458</ele>
        <time>2026-07-08T10:00:10.000Z</time>
      </trkpt>
      <trkpt lat="47.24175" lon="16.02486">
        <ele>442.146655</ele>
        <time>2026-07-08T10:00:11.000Z</time>
      </trkpt>
      <trkpt lat="47.24175" lon="16.02481">
        <ele>442.306806</ele>
        <time>2026-07-08T10:00:12.000Z</time>
      </trkpt>
      <trkpt lat="47.24175" lon="16.02475">
        <ele>442.467187</ele>
        <time>2026-07-08T10:00:13.000Z</time>
      </trkpt>
      <trkpt lat="47.24175" lon="16.0247">
        <ele>442.621575</ele>
        <time>2026-07-08T10:00:14.000Z</time>
      </trkpt>
      <trkpt lat="47.24175" lon="16.02465">
        <ele>442.772991</ele>
        <time>2026-07-08T10:00:15.000Z</time>
      </trkpt>
      <trkpt lat="47.24175" lon="16.0246">
        <ele>442.921495</ele>
        <time>2026-07-08T10:00:16.000Z</time>
      </trkpt>
      <trkpt lat="47.24175" lon="16.02455">
        <ele>443.067088</ele>
        <time>2026-07-08T10:00:17.000Z</time>
      </trkpt>
      <trkpt lat="47.24175" lon="16.0245">
        <ele>443.212932</ele>
        <time>2026-07-08T10:00:18.000Z</time>
      </trkpt>
      <trkpt lat="47.24175" lon="16.02445">
        <ele>443.355613</ele>
        <time>2026-07-08T10:00:19.000Z</time>
      </trkpt>
      <trkpt lat="47.24175" lon="16.0244">
        <ele>443.495382</ele>
        <time>2026-07-08T10:00:20.000Z</time>
      </trkpt>
      <trkpt lat="47.24175" lon="16.02435">
        <ele>443.632507</ele>
        <time>2026-07-08T10:00:21.000Z</time>
      </trkpt>
      <trkpt lat="47.24175" lon="16.02431">
        <ele>443.767068</ele>
        <time>2026-07-08T10:00:22.000Z</time>
      </trkpt>
      <trkpt lat="47.24176" lon="16.02426">
        <ele>443.905595</ele>
        <time>2026-07-08T10:00:23.000Z</time>
      </trkpt>
      <trkpt lat="47.24176" lon="16.02421">
        <ele>444.045707</ele>
        <time>2026-07-08T10:00:24.000Z</time>
      </trkpt>
      <trkpt lat="47.24177" lon="16.02417">
        <ele>444.187111</ele>
        <time>2026-07-08T10:00:25.000Z</time>
      </trkpt>
      <trkpt lat="47.24177" lon="16.02412">
        <ele>444.33496</ele>
        <time>2026-07-08T10:00:26.000Z</time>
      </trkpt>
      <trkpt lat="47.24178" lon="16.02407">
        <ele>444.482123</ele>
        <time>2026-07-08T10:00:27.000Z</time>
      </trkpt>
      <trkpt lat="47.24178" lon="16.02402">
        <ele>444.620051</ele>
        <time>2026-07-08T10:00:28.000Z</time>
      </trkpt>
      <trkpt lat="47.24178" lon="16.02397">
        <ele>444.759885</ele>
        <time>2026-07-08T10:00:29.000Z</time>
      </trkpt>
      <trkpt lat="47.24179" lon="16.02392">
        <ele>444.900703</ele>
        <time>2026-07-08T10:00:30.000Z</time>
      </trkpt>
      <trkpt lat="47.24179" lon="16.02388">
        <ele>445.033479</ele>
        <time>2026-07-08T10:00:31.000Z</time>
      </trkpt>
      <trkpt lat="47.2418" lon="16.02383">
        <ele>445.177762</ele>
        <time>2026-07-08T10:00:32.000Z</time>
      </trkpt>
      <trkpt lat="47.2418" lon="16.02378">
        <ele>445.328479</ele>
        <time>2026-07-08T10:00:33.000Z</time>
      </trkpt>
      <trkpt lat="47.24181" lon="16.02373">
        <ele>445.481406</ele>
        <time>2026-07-08T10:00:34.000Z</time>
      </trkpt>
      <trkpt lat="47.24181" lon="16.02367">
        <ele>445.634333</ele>
        <time>2026-07-08T10:00:35.000Z</time>
      </trkpt>
      <trkpt lat="47.24182" lon="16.02362">
        <ele>445.784378</ele>
        <time>2026-07-08T10:00:36.000Z</time>
      </trkpt>
      <trkpt lat="47.24182" lon="16.02358">
        <ele>445.921838</ele>
        <time>2026-07-08T10:00:37.000Z</time>
      </trkpt>
      <trkpt lat="47.2418" lon="16.02353">
        <ele>446.056246</ele>
        <time>2026-07-08T10:00:38.000Z</time>
      </trkpt>
      <trkpt lat="47.24178" lon="16.0235">
        <ele>446.195135</ele>
        <time>2026-07-08T10:00:39.000Z</time>
      </trkpt>
      <trkpt lat="47.24176" lon="16.02348">
        <ele>446.30969</ele>
        <time>2026-07-08T10:00:40.000Z</time>
      </trkpt>
      <trkpt lat="47.24173" lon="16.02348">
        <ele>446.438394</ele>
        <time>2026-07-08T10:00:41.000Z</time>
      </trkpt>
      <trkpt lat="47.2417" lon="16.02349">
        <ele>446.557802</ele>
        <time>2026-07-08T10:00:42.000Z</time>
      </trkpt>
      <trkpt lat="47.24168" lon="16.02351">
        <ele>446.66551</ele>
        <time>2026-07-08T10:00:43.000Z</time>
      </trkpt>
      <trkpt lat="47.24166" lon="16.02353">
        <ele>446.769107</ele>
        <time>2026-07-08T10:00:44.000Z</time>
      </trkpt>
      <trkpt lat="47.24164" lon="16.02356">
        <ele>446.868448</ele>
        <time>2026-07-08T10:00:45.000Z</time>
      </trkpt>
      <trkpt lat="47.24163" lon="16.02358">
        <ele>446.970521</ele>
        <time>2026-07-08T10:00:46.000Z</time>
      </trkpt>
      <trkpt lat="47.24161" lon="16.02361">
        <ele>447.070578</ele>
        <time>2026-07-08T10:00:47.000Z</time>
      </trkpt>
      <trkpt lat="47.2416" lon="16.02364">
        <ele>447.16233</ele>
        <time>2026-07-08T10:00:48.000Z</time>
      </trkpt>
      <trkpt lat="47.24158" lon="16.02366">
        <ele>447.261196</ele>
        <time>2026-07-08T10:00:49.000Z</time>
      </trkpt>
      <trkpt lat="47.24157" lon="16.02369">
        <ele>447.364471</ele>
        <time>2026-07-08T10:00:50.000Z</time>
      </trkpt>
      <trkpt lat="47.24155" lon="16.02372">
        <ele>447.465528</ele>
        <time>2026-07-08T10:00:51.000Z</time>
      </trkpt>
      <trkpt lat="47.24153" lon="16.02375">
        <ele>447.565586</ele>
        <time>2026-07-08T10:00:52.000Z</time>
      </trkpt>
      <trkpt lat="47.24152" lon="16.02378">
        <ele>447.662291</ele>
        <time>2026-07-08T10:00:53.000Z</time>
      </trkpt>
      <trkpt lat="47.2415" lon="16.0238">
        <ele>447.761633</ele>
        <time>2026-07-08T10:00:54.000Z</time>
      </trkpt>
      <trkpt lat="47.24149" lon="16.02383">
        <ele>447.861691</ele>
        <time>2026-07-08T10:00:55.000Z</time>
      </trkpt>
      <trkpt lat="47.24147" lon="16.02386">
        <ele>447.958396</ele>
        <time>2026-07-08T10:00:56.000Z</time>
      </trkpt>
      <trkpt lat="47.24146" lon="16.02388">
        <ele>448.052423</ele>
        <time>2026-07-08T10:00:57.000Z</time>
      </trkpt>
      <trkpt lat="47.24144" lon="16.02391">
        <ele>448.15333</ele>
        <time>2026-07-08T10:00:58.000Z</time>
      </trkpt>
      <trkpt lat="47.24143" lon="16.02395">
        <ele>448.252753</ele>
        <time>2026-07-08T10:00:59.000Z</time>
      </trkpt>
      <trkpt lat="47.24142" lon="16.02398">
        <ele>448.34927</ele>
        <time>2026-07-08T10:01:00.000Z</time>
      </trkpt>
      <trkpt lat="47.24141" lon="16.02401">
        <ele>448.447923</ele>
        <time>2026-07-08T10:01:01.000Z</time>
      </trkpt>
      <trkpt lat="47.24139" lon="16.02403">
        <ele>448.544628</ele>
        <time>2026-07-08T10:01:02.000Z</time>
      </trkpt>
      <trkpt lat="47.24138" lon="16.02406">
        <ele>448.648751</ele>
        <time>2026-07-08T10:01:03.000Z</time>
      </trkpt>
      <trkpt lat="47.24136" lon="16.02409">
        <ele>448.752026</ele>
        <time>2026-07-08T10:01:04.000Z</time>
      </trkpt>
      <trkpt lat="47.24135" lon="16.02412">
        <ele>448.850679</ele>
        <time>2026-07-08T10:01:05.000Z</time>
      </trkpt>
      <trkpt lat="47.24133" lon="16.02415">
        <ele>448.956202</ele>
        <time>2026-07-08T10:01:06.000Z</time>
      </trkpt>
      <trkpt lat="47.24132" lon="16.02419">
        <ele>449.058106</ele>
        <time>2026-07-08T10:01:07.000Z</time>
      </trkpt>
      <trkpt lat="47.24131" lon="16.02422">
        <ele>449.163629</ele>
        <time>2026-07-08T10:01:08.000Z</time>
      </trkpt>
      <trkpt lat="47.24129" lon="16.02425">
        <ele>449.278359</ele>
        <time>2026-07-08T10:01:09.000Z</time>
      </trkpt>
      <trkpt lat="47.24128" lon="16.02428">
        <ele>449.383879</ele>
        <time>2026-07-08T10:01:10.000Z</time>
      </trkpt>
      <trkpt lat="47.24126" lon="16.02431">
        <ele>449.489627</ele>
        <time>2026-07-08T10:01:11.000Z</time>
      </trkpt>
      <trkpt lat="47.24125" lon="16.02435">
        <ele>449.597417</ele>
        <time>2026-07-08T10:01:12.000Z</time>
      </trkpt>
      <trkpt lat="47.24123" lon="16.02438">
        <ele>449.705207</ele>
        <time>2026-07-08T10:01:13.000Z</time>
      </trkpt>
      <trkpt lat="47.24122" lon="16.02441">
        <ele>449.815289</ele>
        <time>2026-07-08T10:01:14.000Z</time>
      </trkpt>
      <trkpt lat="47.2412" lon="16.02444">
        <ele>449.930114</ele>
        <time>2026-07-08T10:01:15.000Z</time>
      </trkpt>
      <trkpt lat="47.24119" lon="16.02448">
        <ele>450.04251</ele>
        <time>2026-07-08T10:01:16.000Z</time>
      </trkpt>
      <trkpt lat="47.24117" lon="16.02451">
        <ele>450.152592</ele>
        <time>2026-07-08T10:01:17.000Z</time>
      </trkpt>
      <trkpt lat="47.24116" lon="16.02454">
        <ele>450.262674</ele>
        <time>2026-07-08T10:01:18.000Z</time>
      </trkpt>
      <trkpt lat="47.24114" lon="16.02458">
        <ele>450.382187</ele>
        <time>2026-07-08T10:01:19.000Z</time>
      </trkpt>
      <trkpt lat="47.24112" lon="16.02461">
        <ele>450.497012</ele>
        <time>2026-07-08T10:01:20.000Z</time>
      </trkpt>
      <trkpt lat="47.2411" lon="16.02464">
        <ele>450.611838</ele>
        <time>2026-07-08T10:01:21.000Z</time>
      </trkpt>
      <trkpt lat="47.24109" lon="16.02468">
        <ele>450.721999</ele>
        <time>2026-07-08T10:01:22.000Z</time>
      </trkpt>
      <trkpt lat="47.24107" lon="16.02471">
        <ele>450.835722</ele>
        <time>2026-07-08T10:01:23.000Z</time>
      </trkpt>
      <trkpt lat="47.24105" lon="16.02474">
        <ele>450.941471</ele>
        <time>2026-07-08T10:01:24.000Z</time>
      </trkpt>
      <trkpt lat="47.24104" lon="16.02477">
        <ele>451.049261</ele>
        <time>2026-07-08T10:01:25.000Z</time>
      </trkpt>
      <trkpt lat="47.24102" lon="16.0248">
        <ele>451.154781</ele>
        <time>2026-07-08T10:01:26.000Z</time>
      </trkpt>
      <trkpt lat="47.24101" lon="16.02483">
        <ele>451.262571</ele>
        <time>2026-07-08T10:01:27.000Z</time>
      </trkpt>
      <trkpt lat="47.24099" lon="16.02486">
        <ele>451.375202</ele>
        <time>2026-07-08T10:01:28.000Z</time>
      </trkpt>
      <trkpt lat="47.24097" lon="16.02489">
        <ele>451.485662</ele>
        <time>2026-07-08T10:01:29.000Z</time>
      </trkpt>
      <trkpt lat="47.24096" lon="16.02493">
        <ele>451.598058</ele>
        <time>2026-07-08T10:01:30.000Z</time>
      </trkpt>
      <trkpt lat="47.24095" lon="16.02496">
        <ele>451.708646</ele>
        <time>2026-07-08T10:01:31.000Z</time>
      </trkpt>
      <trkpt lat="47.24093" lon="16.025">
        <ele>451.827935</ele>
        <time>2026-07-08T10:01:32.000Z</time>
      </trkpt>
      <trkpt lat="47.24091" lon="16.02503">
        <ele>451.94034</ele>
        <time>2026-07-08T10:01:33.000Z</time>
      </trkpt>
      <trkpt lat="47.2409" lon="16.02506">
        <ele>452.048659</ele>
        <time>2026-07-08T10:01:34.000Z</time>
      </trkpt>
      <trkpt lat="47.24088" lon="16.02509">
        <ele>452.161289</ele>
        <time>2026-07-08T10:01:35.000Z</time>
      </trkpt>
      <trkpt lat="47.24086" lon="16.02513">
        <ele>452.278628</ele>
        <time>2026-07-08T10:01:36.000Z</time>
      </trkpt>
      <trkpt lat="47.24084" lon="16.02516">
        <ele>452.395967</ele>
        <time>2026-07-08T10:01:37.000Z</time>
      </trkpt>
      <trkpt lat="47.24082" lon="16.02519">
        <ele>452.513805</ele>
        <time>2026-07-08T10:01:38.000Z</time>
      </trkpt>
      <trkpt lat="47.24081" lon="16.02522">
        <ele>452.631145</ele>
        <time>2026-07-08T10:01:39.000Z</time>
      </trkpt>
      <trkpt lat="47.24079" lon="16.02526">
        <ele>452.743775</ele>
        <time>2026-07-08T10:01:40.000Z</time>
      </trkpt>
      <trkpt lat="47.24077" lon="16.02529">
        <ele>452.861114</ele>
        <time>2026-07-08T10:01:41.000Z</time>
      </trkpt>
      <trkpt lat="47.24075" lon="16.02532">
        <ele>452.980627</ele>
        <time>2026-07-08T10:01:42.000Z</time>
      </trkpt>
      <trkpt lat="47.24073" lon="16.02535">
        <ele>453.094351</ele>
        <time>2026-07-08T10:01:43.000Z</time>
      </trkpt>
      <trkpt lat="47.24072" lon="16.02538">
        <ele>453.207422</ele>
        <time>2026-07-08T10:01:44.000Z</time>
      </trkpt>
      <trkpt lat="47.2407" lon="16.02541">
        <ele>453.318401</ele>
        <time>2026-07-08T10:01:45.000Z</time>
      </trkpt>
      <trkpt lat="47.24068" lon="16.02544">
        <ele>453.430114</ele>
        <time>2026-07-08T10:01:46.000Z</time>
      </trkpt>
      <trkpt lat="47.24066" lon="16.02547">
        <ele>453.543184</ele>
        <time>2026-07-08T10:01:47.000Z</time>
      </trkpt>
      <trkpt lat="47.24064" lon="16.0255">
        <ele>453.654163</ele>
        <time>2026-07-08T10:01:48.000Z</time>
      </trkpt>
      <trkpt lat="47.24062" lon="16.02553">
        <ele>453.767887</ele>
        <time>2026-07-08T10:01:49.000Z</time>
      </trkpt>
      <trkpt lat="47.2406" lon="16.02556">
        <ele>453.882473</ele>
        <time>2026-07-08T10:01:50.000Z</time>
      </trkpt>
      <trkpt lat="47.24058" lon="16.02559">
        <ele>453.99902</ele>
        <time>2026-07-08T10:01:51.000Z</time>
      </trkpt>
      <trkpt lat="47.24056" lon="16.02562">
        <ele>454.078894</ele>
        <time>2026-07-08T10:01:52.000Z</time>
      </trkpt>
      <trkpt lat="47.24055" lon="16.02565">
        <ele>454.154611</ele>
        <time>2026-07-08T10:01:53.000Z</time>
      </trkpt>
      <trkpt lat="47.24053" lon="16.02568">
        <ele>454.232655</ele>
        <time>2026-07-08T10:01:54.000Z</time>
      </trkpt>
      <trkpt lat="47.24051" lon="16.02572">
        <ele>454.309791</ele>
        <time>2026-07-08T10:01:55.000Z</time>
      </trkpt>
      <trkpt lat="47.24049" lon="16.02575">
        <ele>454.387836</ele>
        <time>2026-07-08T10:01:56.000Z</time>
      </trkpt>
      <trkpt lat="47.24047" lon="16.02578">
        <ele>454.468571</ele>
        <time>2026-07-08T10:01:57.000Z</time>
      </trkpt>
      <trkpt lat="47.24045" lon="16.02581">
        <ele>454.546615</ele>
        <time>2026-07-08T10:01:58.000Z</time>
      </trkpt>
      <trkpt lat="47.24043" lon="16.02584">
        <ele>454.628583</ele>
        <time>2026-07-08T10:01:59.000Z</time>
      </trkpt>
      <trkpt lat="47.2404" lon="16.02587">
        <ele>454.710552</ele>
        <time>2026-07-08T10:02:00.000Z</time>
      </trkpt>
      <trkpt lat="47.24038" lon="16.0259">
        <ele>454.790535</ele>
        <time>2026-07-08T10:02:01.000Z</time>
      </trkpt>
      <trkpt lat="47.24036" lon="16.02593">
        <ele>454.876596</ele>
        <time>2026-07-08T10:02:02.000Z</time>
      </trkpt>
      <trkpt lat="47.24034" lon="16.02596">
        <ele>454.960591</ele>
        <time>2026-07-08T10:02:03.000Z</time>
      </trkpt>
      <trkpt lat="47.24031" lon="16.02599">
        <ele>455.044586</ele>
        <time>2026-07-08T10:02:04.000Z</time>
      </trkpt>
      <trkpt lat="47.24029" lon="16.02602">
        <ele>455.128293</ele>
        <time>2026-07-08T10:02:05.000Z</time>
      </trkpt>
      <trkpt lat="47.24027" lon="16.02605">
        <ele>455.212289</ele>
        <time>2026-07-08T10:02:06.000Z</time>
      </trkpt>
      <trkpt lat="47.24024" lon="16.02607">
        <ele>455.298155</ele>
        <time>2026-07-08T10:02:07.000Z</time>
      </trkpt>
      <trkpt lat="47.24022" lon="16.0261">
        <ele>455.385158</ele>
        <time>2026-07-08T10:02:08.000Z</time>
      </trkpt>
      <trkpt lat="47.24019" lon="16.02613">
        <ele>455.471025</ele>
        <time>2026-07-08T10:02:09.000Z</time>
      </trkpt>
      <trkpt lat="47.24016" lon="16.02616">
        <ele>455.561305</ele>
        <time>2026-07-08T10:02:10.000Z</time>
      </trkpt>
      <trkpt lat="47.24014" lon="16.02619">
        <ele>455.648308</ele>
        <time>2026-07-08T10:02:11.000Z</time>
      </trkpt>
      <trkpt lat="47.24011" lon="16.02622">
        <ele>455.734175</ele>
        <time>2026-07-08T10:02:12.000Z</time>
      </trkpt>
      <trkpt lat="47.24009" lon="16.02625">
        <ele>455.824475</ele>
        <time>2026-07-08T10:02:13.000Z</time>
      </trkpt>
      <trkpt lat="47.24006" lon="16.02628">
        <ele>455.916942</ele>
        <time>2026-07-08T10:02:14.000Z</time>
      </trkpt>
      <trkpt lat="47.24003" lon="16.0263">
        <ele>456.007222</ele>
        <time>2026-07-08T10:02:15.000Z</time>
      </trkpt>
      <trkpt lat="47.24001" lon="16.02633">
        <ele>456.097522</ele>
        <time>2026-07-08T10:02:16.000Z</time>
      </trkpt>
      <trkpt lat="47.23998" lon="16.02636">
        <ele>456.188884</ele>
        <time>2026-07-08T10:02:17.000Z</time>
      </trkpt>
      <trkpt lat="47.23995" lon="16.02639">
        <ele>456.27938</ele>
        <time>2026-07-08T10:02:18.000Z</time>
      </trkpt>
      <trkpt lat="47.23993" lon="16.02642">
        <ele>456.370741</ele>
        <time>2026-07-08T10:02:19.000Z</time>
      </trkpt>
      <trkpt lat="47.2399" lon="16.02645">
        <ele>456.461022</ele>
        <time>2026-07-08T10:02:20.000Z</time>
      </trkpt>
      <trkpt lat="47.23987" lon="16.02647">
        <ele>456.553551</ele>
        <time>2026-07-08T10:02:21.000Z</time>
      </trkpt>
      <trkpt lat="47.23984" lon="16.0265">
        <ele>456.651659</ele>
        <time>2026-07-08T10:02:22.000Z</time>
      </trkpt>
      <trkpt lat="47.23981" lon="16.02653">
        <ele>456.744188</ele>
        <time>2026-07-08T10:02:23.000Z</time>
      </trkpt>
      <trkpt lat="47.23978" lon="16.02656">
        <ele>456.841077</ele>
        <time>2026-07-08T10:02:24.000Z</time>
      </trkpt>
      <trkpt lat="47.23976" lon="16.02659">
        <ele>456.933606</ele>
        <time>2026-07-08T10:02:25.000Z</time>
      </trkpt>
      <trkpt lat="47.23973" lon="16.02661">
        <ele>457.023126</ele>
        <time>2026-07-08T10:02:26.000Z</time>
      </trkpt>
      <trkpt lat="47.2397" lon="16.02664">
        <ele>457.116925</ele>
        <time>2026-07-08T10:02:27.000Z</time>
      </trkpt>
      <trkpt lat="47.23967" lon="16.02667">
        <ele>457.203901</ele>
        <time>2026-07-08T10:02:28.000Z</time>
      </trkpt>
      <trkpt lat="47.23965" lon="16.02669">
        <ele>457.291095</ele>
        <time>2026-07-08T10:02:29.000Z</time>
      </trkpt>
      <trkpt lat="47.23962" lon="16.02672">
        <ele>457.376371</ele>
        <time>2026-07-08T10:02:30.000Z</time>
      </trkpt>
      <trkpt lat="47.23959" lon="16.02674">
        <ele>457.46787</ele>
        <time>2026-07-08T10:02:31.000Z</time>
      </trkpt>
      <trkpt lat="47.23956" lon="16.02677">
        <ele>457.555064</ele>
        <time>2026-07-08T10:02:32.000Z</time>
      </trkpt>
      <trkpt lat="47.23954" lon="16.02679">
        <ele>457.639955</ele>
        <time>2026-07-08T10:02:33.000Z</time>
      </trkpt>
      <trkpt lat="47.23951" lon="16.02682">
        <ele>457.731824</ele>
        <time>2026-07-08T10:02:34.000Z</time>
      </trkpt>
      <trkpt lat="47.23948" lon="16.02684">
        <ele>457.815351</ele>
        <time>2026-07-08T10:02:35.000Z</time>
      </trkpt>
      <trkpt lat="47.23945" lon="16.02685">
        <ele>457.898878</ele>
        <time>2026-07-08T10:02:36.000Z</time>
      </trkpt>
      <trkpt lat="47.23942" lon="16.02687">
        <ele>457.985655</ele>
        <time>2026-07-08T10:02:37.000Z</time>
      </trkpt>
      <trkpt lat="47.23939" lon="16.02689">
        <ele>458.072888</ele>
        <time>2026-07-08T10:02:38.000Z</time>
      </trkpt>
      <trkpt lat="47.23936" lon="16.0269">
        <ele>458.156983</ele>
        <time>2026-07-08T10:02:39.000Z</time>
      </trkpt>
      <trkpt lat="47.23933" lon="16.02691">
        <ele>458.243369</ele>
        <time>2026-07-08T10:02:40.000Z</time>
      </trkpt>
      <trkpt lat="47.2393" lon="16.02691">
        <ele>458.331035</ele>
        <time>2026-07-08T10:02:41.000Z</time>
      </trkpt>
      <trkpt lat="47.23927" lon="16.02691">
        <ele>458.41314</ele>
        <time>2026-07-08T10:02:42.000Z</time>
      </trkpt>
      <trkpt lat="47.23924" lon="16.02691">
        <ele>458.489895</ele>
        <time>2026-07-08T10:02:43.000Z</time>
      </trkpt>
      <trkpt lat="47.23921" lon="16.0269">
        <ele>458.569724</ele>
        <time>2026-07-08T10:02:44.000Z</time>
      </trkpt>
      <trkpt lat="47.23919" lon="16.0269">
        <ele>458.646837</ele>
        <time>2026-07-08T10:02:45.000Z</time>
      </trkpt>
      <trkpt lat="47.23916" lon="16.02689">
        <ele>458.721791</ele>
        <time>2026-07-08T10:02:46.000Z</time>
      </trkpt>
      <trkpt lat="47.23913" lon="16.02688">
        <ele>458.791736</ele>
        <time>2026-07-08T10:02:47.000Z</time>
      </trkpt>
      <trkpt lat="47.23911" lon="16.02687">
        <ele>458.855948</ele>
        <time>2026-07-08T10:02:48.000Z</time>
      </trkpt>
      <trkpt lat="47.23909" lon="16.02687">
        <ele>458.917119</ele>
        <time>2026-07-08T10:02:49.000Z</time>
      </trkpt>
      <trkpt lat="47.23907" lon="16.02686">
        <ele>458.94574</ele>
        <time>2026-07-08T10:02:50.000Z</time>
      </trkpt>
      <trkpt lat="47.23905" lon="16.02685">
        <ele>458.970591</ele>
        <time>2026-07-08T10:02:51.000Z</time>
      </trkpt>
      <trkpt lat="47.23903" lon="16.02684">
        <ele>458.995668</ele>
        <time>2026-07-08T10:02:52.000Z</time>
      </trkpt>
      <trkpt lat="47.23901" lon="16.02684">
        <ele>459.019364</ele>
        <time>2026-07-08T10:02:53.000Z</time>
      </trkpt>
      <trkpt lat="47.23899" lon="16.02683">
        <ele>459.041688</ele>
        <time>2026-07-08T10:02:54.000Z</time>
      </trkpt>
      <trkpt lat="47.23897" lon="16.02682">
        <ele>459.066163</ele>
        <time>2026-07-08T10:02:55.000Z</time>
      </trkpt>
      <trkpt lat="47.23895" lon="16.02682">
        <ele>459.087329</ele>
        <time>2026-07-08T10:02:56.000Z</time>
      </trkpt>
      <trkpt lat="47.23893" lon="16.02681">
        <ele>459.11198</ele>
        <time>2026-07-08T10:02:57.000Z</time>
      </trkpt>
      <trkpt lat="47.23892" lon="16.0268">
        <ele>459.131778</ele>
        <time>2026-07-08T10:02:58.000Z</time>
      </trkpt>
      <trkpt lat="47.2389" lon="16.0268">
        <ele>459.155263</ele>
        <time>2026-07-08T10:02:59.000Z</time>
      </trkpt>
      <trkpt lat="47.23888" lon="16.02679">
        <ele>459.177228</ele>
        <time>2026-07-08T10:03:00.000Z</time>
      </trkpt>
      <trkpt lat="47.23886" lon="16.02679">
        <ele>459.198949</ele>
        <time>2026-07-08T10:03:01.000Z</time>
      </trkpt>
      <trkpt lat="47.23884" lon="16.02678">
        <ele>459.222094</ele>
        <time>2026-07-08T10:03:02.000Z</time>
      </trkpt>
      <trkpt lat="47.23883" lon="16.02678">
        <ele>459.242108</ele>
        <time>2026-07-08T10:03:03.000Z</time>
      </trkpt>
      <trkpt lat="47.23881" lon="16.02677">
        <ele>459.266302</ele>
        <time>2026-07-08T10:03:04.000Z</time>
      </trkpt>
      <trkpt lat="47.23879" lon="16.02676">
        <ele>459.286564</ele>
        <time>2026-07-08T10:03:05.000Z</time>
      </trkpt>
      <trkpt lat="47.23877" lon="16.02675">
        <ele>459.310049</ele>
        <time>2026-07-08T10:03:06.000Z</time>
      </trkpt>
      <trkpt lat="47.23876" lon="16.02674">
        <ele>459.330063</ele>
        <time>2026-07-08T10:03:07.000Z</time>
      </trkpt>
      <trkpt lat="47.23874" lon="16.02674">
        <ele>459.352977</ele>
        <time>2026-07-08T10:03:08.000Z</time>
      </trkpt>
      <trkpt lat="47.23872" lon="16.02674">
        <ele>459.374623</ele>
        <time>2026-07-08T10:03:09.000Z</time>
      </trkpt>
      <trkpt lat="47.2387" lon="16.02674">
        <ele>459.398729</ele>
        <time>2026-07-08T10:03:10.000Z</time>
      </trkpt>
      <trkpt lat="47.23868" lon="16.02673">
        <ele>459.421275</ele>
        <time>2026-07-08T10:03:11.000Z</time>
      </trkpt>
      <trkpt lat="47.23866" lon="16.02672">
        <ele>459.4456</ele>
        <time>2026-07-08T10:03:12.000Z</time>
      </trkpt>
      <trkpt lat="47.23864" lon="16.02672">
        <ele>459.469803</ele>
        <time>2026-07-08T10:03:13.000Z</time>
      </trkpt>
      <trkpt lat="47.23862" lon="16.02671">
        <ele>459.493104</ele>
        <time>2026-07-08T10:03:14.000Z</time>
      </trkpt>
      <trkpt lat="47.23861" lon="16.0267">
        <ele>459.516172</ele>
        <time>2026-07-08T10:03:15.000Z</time>
      </trkpt>
      <trkpt lat="47.23859" lon="16.0267">
        <ele>459.538137</ele>
        <time>2026-07-08T10:03:16.000Z</time>
      </trkpt>
      <trkpt lat="47.23857" lon="16.02669">
        <ele>459.562463</ele>
        <time>2026-07-08T10:03:17.000Z</time>
      </trkpt>
      <trkpt lat="47.23855" lon="16.02669">
        <ele>459.586788</ele>
        <time>2026-07-08T10:03:18.000Z</time>
      </trkpt>
      <trkpt lat="47.23853" lon="16.02668">
        <ele>459.611438</ele>
        <time>2026-07-08T10:03:19.000Z</time>
      </trkpt>
      <trkpt lat="47.23851" lon="16.02667">
        <ele>459.636089</ele>
        <time>2026-07-08T10:03:20.000Z</time>
      </trkpt>
      <trkpt lat="47.23849" lon="16.02667">
        <ele>459.66094</ele>
        <time>2026-07-08T10:03:21.000Z</time>
      </trkpt>
      <trkpt lat="47.23847" lon="16.02666">
        <ele>459.685265</ele>
        <time>2026-07-08T10:03:22.000Z</time>
      </trkpt>
      <trkpt lat="47.23845" lon="16.02666">
        <ele>459.709591</ele>
        <time>2026-07-08T10:03:23.000Z</time>
      </trkpt>
      <trkpt lat="47.23843" lon="16.02665">
        <ele>459.734241</ele>
        <time>2026-07-08T10:03:24.000Z</time>
      </trkpt>
      <trkpt lat="47.23841" lon="16.02664">
        <ele>459.761414</ele>
        <time>2026-07-08T10:03:25.000Z</time>
      </trkpt>
      <trkpt lat="47.23838" lon="16.02664">
        <ele>459.788107</ele>
        <time>2026-07-08T10:03:26.000Z</time>
      </trkpt>
      <trkpt lat="47.23836" lon="16.02663">
        <ele>459.816269</ele>
        <time>2026-07-08T10:03:27.000Z</time>
      </trkpt>
      <trkpt lat="47.23834" lon="16.02662">
        <ele>459.843878</ele>
        <time>2026-07-08T10:03:28.000Z</time>
      </trkpt>
      <trkpt lat="47.23831" lon="16.02661">
        <ele>459.875669</ele>
        <time>2026-07-08T10:03:29.000Z</time>
      </trkpt>
      <trkpt lat="47.23829" lon="16.02659">
        <ele>459.907199</ele>
        <time>2026-07-08T10:03:30.000Z</time>
      </trkpt>
      <trkpt lat="47.23826" lon="16.02658">
        <ele>459.940124</ele>
        <time>2026-07-08T10:03:31.000Z</time>
      </trkpt>
      <trkpt lat="47.23823" lon="16.02656">
        <ele>459.978522</ele>
        <time>2026-07-08T10:03:32.000Z</time>
      </trkpt>
      <trkpt lat="47.23821" lon="16.02654">
        <ele>460.017785</ele>
        <time>2026-07-08T10:03:33.000Z</time>
      </trkpt>
      <trkpt lat="47.23817" lon="16.0265">
        <ele>460.064627</ele>
        <time>2026-07-08T10:03:34.000Z</time>
      </trkpt>
      <trkpt lat="47.23814" lon="16.02646">
        <ele>460.116926</ele>
        <time>2026-07-08T10:03:35.000Z</time>
      </trkpt>
      <trkpt lat="47.23811" lon="16.02641">
        <ele>460.174875</ele>
        <time>2026-07-08T10:03:36.000Z</time>
      </trkpt>
      <trkpt lat="47.23807" lon="16.02634">
        <ele>460.242417</ele>
        <time>2026-07-08T10:03:37.000Z</time>
      </trkpt>
      <trkpt lat="47.23804" lon="16.02627">
        <ele>460.315225</ele>
        <time>2026-07-08T10:03:38.000Z</time>
      </trkpt>
      <trkpt lat="47.23801" lon="16.02618">
        <ele>460.396123</ele>
        <time>2026-07-08T10:03:39.000Z</time>
      </trkpt>
      <trkpt lat="47.23798" lon="16.02608">
        <ele>460.483002</ele>
        <time>2026-07-08T10:03:40.000Z</time>
      </trkpt>
      <trkpt lat="47.23794" lon="16.02598">
        <ele>460.576245</ele>
        <time>2026-07-08T10:03:41.000Z</time>
      </trkpt>
      <trkpt lat="47.2379" lon="16.02588">
        <ele>460.674268</ele>
        <time>2026-07-08T10:03:42.000Z</time>
      </trkpt>
      <trkpt lat="47.23786" lon="16.02577">
        <ele>460.77674</ele>
        <time>2026-07-08T10:03:43.000Z</time>
      </trkpt>
      <trkpt lat="47.23781" lon="16.02566">
        <ele>460.883198</ele>
        <time>2026-07-08T10:03:44.000Z</time>
      </trkpt>
      <trkpt lat="47.23775" lon="16.02555">
        <ele>460.994568</ele>
        <time>2026-07-08T10:03:45.000Z</time>
      </trkpt>
      <trkpt lat="47.23769" lon="16.02544">
        <ele>460.943107</ele>
        <time>2026-07-08T10:03:46.000Z</time>
      </trkpt>
      <trkpt lat="47.23762" lon="16.02534">
        <ele>460.41538</ele>
        <time>2026-07-08T10:03:47.000Z</time>
      </trkpt>
      <trkpt lat="47.23754" lon="16.02524">
        <ele>459.872369</ele>
        <time>2026-07-08T10:03:48.000Z</time>
      </trkpt>
      <trkpt lat="47.23746" lon="16.02514">
        <ele>459.311163</ele>
        <time>2026-07-08T10:03:49.000Z</time>
      </trkpt>
      <trkpt lat="47.23737" lon="16.02505">
        <ele>458.743189</ele>
        <time>2026-07-08T10:03:50.000Z</time>
      </trkpt>
      <trkpt lat="47.23727" lon="16.02497">
        <ele>458.169593</ele>
        <time>2026-07-08T10:03:51.000Z</time>
      </trkpt>
      <trkpt lat="47.23718" lon="16.0249">
        <ele>457.587276</ele>
        <time>2026-07-08T10:03:52.000Z</time>
      </trkpt>
      <trkpt lat="47.23708" lon="16.02482">
        <ele>456.999894</ele>
        <time>2026-07-08T10:03:53.000Z</time>
      </trkpt>
      <trkpt lat="47.23698" lon="16.02474">
        <ele>456.399858</ele>
        <time>2026-07-08T10:03:54.000Z</time>
      </trkpt>
      <trkpt lat="47.23688" lon="16.02465">
        <ele>455.792811</ele>
        <time>2026-07-08T10:03:55.000Z</time>
      </trkpt>
      <trkpt lat="47.23678" lon="16.02456">
        <ele>455.163953</ele>
        <time>2026-07-08T10:03:56.000Z</time>
      </trkpt>
      <trkpt lat="47.23667" lon="16.02447">
        <ele>454.516049</ele>
        <time>2026-07-08T10:03:57.000Z</time>
      </trkpt>
      <trkpt lat="47.23657" lon="16.02437">
        <ele>453.867432</ele>
        <time>2026-07-08T10:03:58.000Z</time>
      </trkpt>
      <trkpt lat="47.23647" lon="16.02426">
        <ele>453.234506</ele>
        <time>2026-07-08T10:03:59.000Z</time>
      </trkpt>
      <trkpt lat="47.23638" lon="16.02415">
        <ele>452.600619</ele>
        <time>2026-07-08T10:04:00.000Z</time>
      </trkpt>
      <trkpt lat="47.23628" lon="16.02403">
        <ele>451.948912</ele>
        <time>2026-07-08T10:04:01.000Z</time>
      </trkpt>
      <trkpt lat="47.23619" lon="16.02391">
        <ele>451.191135</ele>
        <time>2026-07-08T10:04:02.000Z</time>
      </trkpt>
      <trkpt lat="47.23609" lon="16.02379">
        <ele>450.33106</ele>
        <time>2026-07-08T10:04:03.000Z</time>
      </trkpt>
      <trkpt lat="47.23599" lon="16.02368">
        <ele>449.463143</ele>
        <time>2026-07-08T10:04:04.000Z</time>
      </trkpt>
      <trkpt lat="47.23588" lon="16.02357">
        <ele>448.573147</ele>
        <time>2026-07-08T10:04:05.000Z</time>
      </trkpt>
      <trkpt lat="47.23577" lon="16.02348">
        <ele>447.669661</ele>
        <time>2026-07-08T10:04:06.000Z</time>
      </trkpt>
      <trkpt lat="47.23565" lon="16.0234">
        <ele>446.7561</ele>
        <time>2026-07-08T10:04:07.000Z</time>
      </trkpt>
      <trkpt lat="47.23552" lon="16.02332">
        <ele>445.845419</ele>
        <time>2026-07-08T10:04:08.000Z</time>
      </trkpt>
      <trkpt lat="47.2354" lon="16.02325">
        <ele>444.928414</ele>
        <time>2026-07-08T10:04:09.000Z</time>
      </trkpt>
      <trkpt lat="47.23528" lon="16.02318">
        <ele>444.058179</ele>
        <time>2026-07-08T10:04:10.000Z</time>
      </trkpt>
      <trkpt lat="47.23516" lon="16.02312">
        <ele>443.208655</ele>
        <time>2026-07-08T10:04:11.000Z</time>
      </trkpt>
      <trkpt lat="47.23504" lon="16.02308">
        <ele>442.378526</ele>
        <time>2026-07-08T10:04:12.000Z</time>
      </trkpt>
      <trkpt lat="47.23493" lon="16.02307">
        <ele>441.590177</ele>
        <time>2026-07-08T10:04:13.000Z</time>
      </trkpt>
      <trkpt lat="47.23482" lon="16.02308">
        <ele>440.830337</ele>
        <time>2026-07-08T10:04:14.000Z</time>
      </trkpt>
      <trkpt lat="47.23471" lon="16.0231">
        <ele>440.091273</ele>
        <time>2026-07-08T10:04:15.000Z</time>
      </trkpt>
      <trkpt lat="47.23461" lon="16.02313">
        <ele>439.376874</ele>
        <time>2026-07-08T10:04:16.000Z</time>
      </trkpt>
      <trkpt lat="47.23451" lon="16.02318">
        <ele>439.267341</ele>
        <time>2026-07-08T10:04:17.000Z</time>
      </trkpt>
      <trkpt lat="47.23442" lon="16.02323">
        <ele>439.214984</ele>
        <time>2026-07-08T10:04:18.000Z</time>
      </trkpt>
      <trkpt lat="47.23434" lon="16.02329">
        <ele>439.163748</ele>
        <time>2026-07-08T10:04:19.000Z</time>
      </trkpt>
      <trkpt lat="47.23426" lon="16.02336">
        <ele>439.114788</ele>
        <time>2026-07-08T10:04:20.000Z</time>
      </trkpt>
      <trkpt lat="47.23418" lon="16.02343">
        <ele>439.066228</ele>
        <time>2026-07-08T10:04:21.000Z</time>
      </trkpt>
      <trkpt lat="47.23411" lon="16.02351">
        <ele>439.019466</ele>
        <time>2026-07-08T10:04:22.000Z</time>
      </trkpt>
      <trkpt lat="47.23405" lon="16.02359">
        <ele>438.973807</ele>
        <time>2026-07-08T10:04:23.000Z</time>
      </trkpt>
      <trkpt lat="47.23399" lon="16.02368">
        <ele>438.928838</ele>
        <time>2026-07-08T10:04:24.000Z</time>
      </trkpt>
      <trkpt lat="47.23393" lon="16.02376">
        <ele>438.885022</ele>
        <time>2026-07-08T10:04:25.000Z</time>
      </trkpt>
      <trkpt lat="47.23388" lon="16.02385">
        <ele>438.842965</ele>
        <time>2026-07-08T10:04:26.000Z</time>
      </trkpt>
      <trkpt lat="47.23383" lon="16.02393">
        <ele>438.80227</ele>
        <time>2026-07-08T10:04:27.000Z</time>
      </trkpt>
      <trkpt lat="47.23378" lon="16.02401">
        <ele>438.762912</ele>
        <time>2026-07-08T10:04:28.000Z</time>
      </trkpt>
      <trkpt lat="47.23374" lon="16.02409">
        <ele>438.726629</ele>
        <time>2026-07-08T10:04:29.000Z</time>
      </trkpt>
      <trkpt lat="47.2337" lon="16.02416">
        <ele>438.690906</ele>
        <time>2026-07-08T10:04:30.000Z</time>
      </trkpt>
      <trkpt lat="47.23366" lon="16.02423">
        <ele>438.657695</ele>
        <time>2026-07-08T10:04:31.000Z</time>
      </trkpt>
      <trkpt lat="47.23362" lon="16.0243">
        <ele>438.625957</ele>
        <time>2026-07-08T10:04:32.000Z</time>
      </trkpt>
      <trkpt lat="47.23358" lon="16.02436">
        <ele>438.594776</ele>
        <time>2026-07-08T10:04:33.000Z</time>
      </trkpt>
      <trkpt lat="47.23354" lon="16.02443">
        <ele>438.563507</ele>
        <time>2026-07-08T10:04:34.000Z</time>
      </trkpt>
      <trkpt lat="47.23351" lon="16.02449">
        <ele>438.533414</ele>
        <time>2026-07-08T10:04:35.000Z</time>
      </trkpt>
      <trkpt lat="47.23347" lon="16.02455">
        <ele>438.502781</ele>
        <time>2026-07-08T10:04:36.000Z</time>
      </trkpt>
      <trkpt lat="47.23343" lon="16.02461">
        <ele>438.472842</ele>
        <time>2026-07-08T10:04:37.000Z</time>
      </trkpt>
      <trkpt lat="47.23339" lon="16.02466">
        <ele>438.443281</ele>
        <time>2026-07-08T10:04:38.000Z</time>
      </trkpt>
      <trkpt lat="47.23335" lon="16.02472">
        <ele>438.413825</ele>
        <time>2026-07-08T10:04:39.000Z</time>
      </trkpt>
      <trkpt lat="47.23332" lon="16.02478">
        <ele>438.38554</ele>
        <time>2026-07-08T10:04:40.000Z</time>
      </trkpt>
      <trkpt lat="47.23328" lon="16.02483">
        <ele>438.357403</ele>
        <time>2026-07-08T10:04:41.000Z</time>
      </trkpt>
      <trkpt lat="47.23324" lon="16.02488">
        <ele>438.347448</ele>
        <time>2026-07-08T10:04:42.000Z</time>
      </trkpt>
      <trkpt lat="47.2332" lon="16.02494">
        <ele>438.349</ele>
        <time>2026-07-08T10:04:43.000Z</time>
      </trkpt>
      <trkpt lat="47.23316" lon="16.02499">
        <ele>438.350533</ele>
        <time>2026-07-08T10:04:44.000Z</time>
      </trkpt>
      <trkpt lat="47.23312" lon="16.02504">
        <ele>438.352101</ele>
        <time>2026-07-08T10:04:45.000Z</time>
      </trkpt>
      <trkpt lat="47.23308" lon="16.02509">
        <ele>438.353669</ele>
        <time>2026-07-08T10:04:46.000Z</time>
      </trkpt>
      <trkpt lat="47.23304" lon="16.02514">
        <ele>438.355246</ele>
        <time>2026-07-08T10:04:47.000Z</time>
      </trkpt>
      <trkpt lat="47.233" lon="16.02519">
        <ele>438.356833</ele>
        <time>2026-07-08T10:04:48.000Z</time>
      </trkpt>
      <trkpt lat="47.23296" lon="16.02524">
        <ele>438.358431</ele>
        <time>2026-07-08T10:04:49.000Z</time>
      </trkpt>
      <trkpt lat="47.23292" lon="16.02529">
        <ele>438.359994</ele>
        <time>2026-07-08T10:04:50.000Z</time>
      </trkpt>
      <trkpt lat="47.23287" lon="16.02534">
        <ele>438.361627</ele>
        <time>2026-07-08T10:04:51.000Z</time>
      </trkpt>
      <trkpt lat="47.23283" lon="16.02539">
        <ele>438.3632</ele>
        <time>2026-07-08T10:04:52.000Z</time>
      </trkpt>
      <trkpt lat="47.23278" lon="16.02543">
        <ele>438.364833</ele>
        <time>2026-07-08T10:04:53.000Z</time>
      </trkpt>
      <trkpt lat="47.23274" lon="16.02548">
        <ele>438.366503</ele>
        <time>2026-07-08T10:04:54.000Z</time>
      </trkpt>
      <trkpt lat="47.23269" lon="16.02553">
        <ele>438.368208</ele>
        <time>2026-07-08T10:04:55.000Z</time>
      </trkpt>
      <trkpt lat="47.23264" lon="16.02558">
        <ele>438.3699</ele>
        <time>2026-07-08T10:04:56.000Z</time>
      </trkpt>
      <trkpt lat="47.23259" lon="16.02563">
        <ele>438.371654</ele>
        <time>2026-07-08T10:04:57.000Z</time>
      </trkpt>
      <trkpt lat="47.23254" lon="16.02567">
        <ele>438.373427</ele>
        <time>2026-07-08T10:04:58.000Z</time>
      </trkpt>
      <trkpt lat="47.23249" lon="16.02572">
        <ele>438.375174</ele>
        <time>2026-07-08T10:04:59.000Z</time>
      </trkpt>
      <trkpt lat="47.23244" lon="16.02576">
        <ele>438.376967</ele>
        <time>2026-07-08T10:05:00.000Z</time>
      </trkpt>
      <trkpt lat="47.23238" lon="16.02581">
        <ele>438.37874</ele>
        <time>2026-07-08T10:05:01.000Z</time>
      </trkpt>
      <trkpt lat="47.23233" lon="16.02585">
        <ele>438.380538</ele>
        <time>2026-07-08T10:05:02.000Z</time>
      </trkpt>
      <trkpt lat="47.23228" lon="16.0259">
        <ele>438.382316</ele>
        <time>2026-07-08T10:05:03.000Z</time>
      </trkpt>
      <trkpt lat="47.23222" lon="16.02594">
        <ele>438.384137</ele>
        <time>2026-07-08T10:05:04.000Z</time>
      </trkpt>
      <trkpt lat="47.23217" lon="16.02598">
        <ele>438.385949</ele>
        <time>2026-07-08T10:05:05.000Z</time>
      </trkpt>
      <trkpt lat="47.23211" lon="16.02602">
        <ele>438.387762</ele>
        <time>2026-07-08T10:05:06.000Z</time>
      </trkpt>
      <trkpt lat="47.23206" lon="16.02606">
        <ele>438.389565</ele>
        <time>2026-07-08T10:05:07.000Z</time>
      </trkpt>
      <trkpt lat="47.232" lon="16.0261">
        <ele>438.391368</ele>
        <time>2026-07-08T10:05:08.000Z</time>
      </trkpt>
      <trkpt lat="47.23195" lon="16.02614">
        <ele>438.393197</ele>
        <time>2026-07-08T10:05:09.000Z</time>
      </trkpt>
      <trkpt lat="47.23189" lon="16.02618">
        <ele>438.395009</ele>
        <time>2026-07-08T10:05:10.000Z</time>
      </trkpt>
      <trkpt lat="47.23184" lon="16.02623">
        <ele>438.396829</ele>
        <time>2026-07-08T10:05:11.000Z</time>
      </trkpt>
      <trkpt lat="47.23178" lon="16.02627">
        <ele>438.398632</ele>
        <time>2026-07-08T10:05:12.000Z</time>
      </trkpt>
      <trkpt lat="47.23173" lon="16.02631">
        <ele>438.416636</ele>
        <time>2026-07-08T10:05:13.000Z</time>
      </trkpt>
      <trkpt lat="47.23168" lon="16.02635">
        <ele>438.444666</ele>
        <time>2026-07-08T10:05:14.000Z</time>
      </trkpt>
      <trkpt lat="47.23162" lon="16.02639">
        <ele>438.472696</ele>
        <time>2026-07-08T10:05:15.000Z</time>
      </trkpt>
      <trkpt lat="47.23157" lon="16.02643">
        <ele>438.501146</ele>
        <time>2026-07-08T10:05:16.000Z</time>
      </trkpt>
      <trkpt lat="47.23152" lon="16.02647">
        <ele>438.529176</ele>
        <time>2026-07-08T10:05:17.000Z</time>
      </trkpt>
      <trkpt lat="47.23146" lon="16.02651">
        <ele>438.55777</ele>
        <time>2026-07-08T10:05:18.000Z</time>
      </trkpt>
      <trkpt lat="47.23141" lon="16.02654">
        <ele>438.586364</ele>
        <time>2026-07-08T10:05:19.000Z</time>
      </trkpt>
      <trkpt lat="47.23135" lon="16.02658">
        <ele>438.615235</ele>
        <time>2026-07-08T10:05:20.000Z</time>
      </trkpt>
      <trkpt lat="47.23129" lon="16.02662">
        <ele>438.644817</ele>
        <time>2026-07-08T10:05:21.000Z</time>
      </trkpt>
      <trkpt lat="47.23123" lon="16.02666">
        <ele>438.67531</ele>
        <time>2026-07-08T10:05:22.000Z</time>
      </trkpt>
      <trkpt lat="47.23117" lon="16.02669">
        <ele>438.705685</ele>
        <time>2026-07-08T10:05:23.000Z</time>
      </trkpt>
      <trkpt lat="47.23111" lon="16.02673">
        <ele>438.736162</ele>
        <time>2026-07-08T10:05:24.000Z</time>
      </trkpt>
      <trkpt lat="47.23105" lon="16.02675">
        <ele>438.766417</ele>
        <time>2026-07-08T10:05:25.000Z</time>
      </trkpt>
      <trkpt lat="47.23099" lon="16.02677">
        <ele>438.794133</ele>
        <time>2026-07-08T10:05:26.000Z</time>
      </trkpt>
      <trkpt lat="47.23094" lon="16.02678">
        <ele>438.821151</ele>
        <time>2026-07-08T10:05:27.000Z</time>
      </trkpt>
      <trkpt lat="47.23088" lon="16.02678">
        <ele>438.847986</ele>
        <time>2026-07-08T10:05:28.000Z</time>
      </trkpt>
      <trkpt lat="47.23083" lon="16.02678">
        <ele>438.87295</ele>
        <time>2026-07-08T10:05:29.000Z</time>
      </trkpt>
      <trkpt lat="47.23077" lon="16.02678">
        <ele>438.897903</ele>
        <time>2026-07-08T10:05:30.000Z</time>
      </trkpt>
      <trkpt lat="47.23072" lon="16.02678">
        <ele>438.923351</ele>
        <time>2026-07-08T10:05:31.000Z</time>
      </trkpt>
      <trkpt lat="47.23067" lon="16.02677">
        <ele>438.946938</ele>
        <time>2026-07-08T10:05:32.000Z</time>
      </trkpt>
      <trkpt lat="47.23062" lon="16.02677">
        <ele>438.97061</ele>
        <time>2026-07-08T10:05:33.000Z</time>
      </trkpt>
      <trkpt lat="47.23057" lon="16.02676">
        <ele>438.994249</ele>
        <time>2026-07-08T10:05:34.000Z</time>
      </trkpt>
      <trkpt lat="47.23052" lon="16.02675">
        <ele>439.016985</ele>
        <time>2026-07-08T10:05:35.000Z</time>
      </trkpt>
      <trkpt lat="47.23047" lon="16.02674">
        <ele>439.039253</ele>
        <time>2026-07-08T10:05:36.000Z</time>
      </trkpt>
      <trkpt lat="47.23043" lon="16.02674">
        <ele>439.061019</ele>
        <time>2026-07-08T10:05:37.000Z</time>
      </trkpt>
      <trkpt lat="47.23038" lon="16.02673">
        <ele>439.083161</ele>
        <time>2026-07-08T10:05:38.000Z</time>
      </trkpt>
      <trkpt lat="47.23034" lon="16.02673">
        <ele>439.10434</ele>
        <time>2026-07-08T10:05:39.000Z</time>
      </trkpt>
      <trkpt lat="47.23029" lon="16.02674">
        <ele>439.126482</ele>
        <time>2026-07-08T10:05:40.000Z</time>
      </trkpt>
      <trkpt lat="47.23024" lon="16.02674">
        <ele>439.147684</ele>
        <time>2026-07-08T10:05:41.000Z</time>
      </trkpt>
      <trkpt lat="47.2302" lon="16.02675">
        <ele>439.168046</ele>
        <time>2026-07-08T10:05:42.000Z</time>
      </trkpt>
      <trkpt lat="47.23016" lon="16.02675">
        <ele>439.18794</ele>
        <time>2026-07-08T10:05:43.000Z</time>
      </trkpt>
      <trkpt lat="47.23012" lon="16.02676">
        <ele>439.208339</ele>
        <time>2026-07-08T10:05:44.000Z</time>
      </trkpt>
      <trkpt lat="47.23008" lon="16.02677">
        <ele>439.227552</ele>
        <time>2026-07-08T10:05:45.000Z</time>
      </trkpt>
      <trkpt lat="47.23004" lon="16.02679">
        <ele>439.248001</ele>
        <time>2026-07-08T10:05:46.000Z</time>
      </trkpt>
      <trkpt lat="47.23" lon="16.02681">
        <ele>439.398895</ele>
        <time>2026-07-08T10:05:47.000Z</time>
      </trkpt>
      <trkpt lat="47.22996" lon="16.02683">
        <ele>439.555998</ele>
        <time>2026-07-08T10:05:48.000Z</time>
      </trkpt>
      <trkpt lat="47.22993" lon="16.02685">
        <ele>439.702156</ele>
        <time>2026-07-08T10:05:49.000Z</time>
      </trkpt>
      <trkpt lat="47.22989" lon="16.02687">
        <ele>439.855598</ele>
        <time>2026-07-08T10:05:50.000Z</time>
      </trkpt>
      <trkpt lat="47.22985" lon="16.02689">
        <ele>440.010942</ele>
        <time>2026-07-08T10:05:51.000Z</time>
      </trkpt>
      <trkpt lat="47.22982" lon="16.02691">
        <ele>440.161689</ele>
        <time>2026-07-08T10:05:52.000Z</time>
      </trkpt>
      <trkpt lat="47.22978" lon="16.02693">
        <ele>440.311996</ele>
        <time>2026-07-08T10:05:53.000Z</time>
      </trkpt>
      <trkpt lat="47.22975" lon="16.02696">
        <ele>440.468349</ele>
        <time>2026-07-08T10:05:54.000Z</time>
      </trkpt>
      <trkpt lat="47.22971" lon="16.02698">
        <ele>440.624702</ele>
        <time>2026-07-08T10:05:55.000Z</time>
      </trkpt>
      <trkpt lat="47.22967" lon="16.027">
        <ele>440.774496</ele>
        <time>2026-07-08T10:05:56.000Z</time>
      </trkpt>
      <trkpt lat="47.22964" lon="16.02702">
        <ele>440.931896</ele>
        <time>2026-07-08T10:05:57.000Z</time>
      </trkpt>
      <trkpt lat="47.2296" lon="16.02705">
        <ele>441.083338</ele>
        <time>2026-07-08T10:05:58.000Z</time>
      </trkpt>
      <trkpt lat="47.22956" lon="16.02707">
        <ele>441.239691</ele>
        <time>2026-07-08T10:05:59.000Z</time>
      </trkpt>
      <trkpt lat="47.22953" lon="16.02709">
        <ele>441.399638</ele>
        <time>2026-07-08T10:06:00.000Z</time>
      </trkpt>
      <trkpt lat="47.22949" lon="16.02711">
        <ele>441.553081</ele>
        <time>2026-07-08T10:06:01.000Z</time>
      </trkpt>
      <trkpt lat="47.22945" lon="16.02713">
        <ele>441.710184</ele>
        <time>2026-07-08T10:06:02.000Z</time>
      </trkpt>
      <trkpt lat="47.22941" lon="16.02716">
        <ele>441.868668</ele>
        <time>2026-07-08T10:06:03.000Z</time>
      </trkpt>
      <trkpt lat="47.22938" lon="16.02718">
        <ele>442.016821</ele>
        <time>2026-07-08T10:06:04.000Z</time>
      </trkpt>
      <trkpt lat="47.22934" lon="16.02721">
        <ele>442.168263</ele>
        <time>2026-07-08T10:06:05.000Z</time>
      </trkpt>
      <trkpt lat="47.22931" lon="16.02723">
        <ele>442.317473</ele>
        <time>2026-07-08T10:06:06.000Z</time>
      </trkpt>
      <trkpt lat="47.22927" lon="16.02725">
        <ele>442.468915</ele>
        <time>2026-07-08T10:06:07.000Z</time>
      </trkpt>
      <trkpt lat="47.22924" lon="16.02728">
        <ele>442.60994</ele>
        <time>2026-07-08T10:06:08.000Z</time>
      </trkpt>
      <trkpt lat="47.22921" lon="16.0273">
        <ele>442.756098</ele>
        <time>2026-07-08T10:06:09.000Z</time>
      </trkpt>
      <trkpt lat="47.22917" lon="16.02731">
        <ele>442.899578</ele>
        <time>2026-07-08T10:06:10.000Z</time>
      </trkpt>
      <trkpt lat="47.22914" lon="16.02733">
        <ele>443.042252</ele>
        <time>2026-07-08T10:06:11.000Z</time>
      </trkpt>
      <trkpt lat="47.2291" lon="16.02734">
        <ele>443.184164</ele>
        <time>2026-07-08T10:06:12.000Z</time>
      </trkpt>
      <trkpt lat="47.22907" lon="16.02736">
        <ele>443.327643</ele>
        <time>2026-07-08T10:06:13.000Z</time>
      </trkpt>
      <trkpt lat="47.22903" lon="16.02738">
        <ele>443.469556</ele>
        <time>2026-07-08T10:06:14.000Z</time>
      </trkpt>
      <trkpt lat="47.229" lon="16.02739">
        <ele>443.609459</ele>
        <time>2026-07-08T10:06:15.000Z</time>
      </trkpt>
      <trkpt lat="47.22896" lon="16.0274">
        <ele>443.737388</ele>
        <time>2026-07-08T10:06:16.000Z</time>
      </trkpt>
      <trkpt lat="47.22893" lon="16.02741">
        <ele>443.862175</ele>
        <time>2026-07-08T10:06:17.000Z</time>
      </trkpt>
      <trkpt lat="47.2289" lon="16.02742">
        <ele>443.981923</ele>
        <time>2026-07-08T10:06:18.000Z</time>
      </trkpt>
      <trkpt lat="47.22887" lon="16.02743">
        <ele>444.109277</ele>
        <time>2026-07-08T10:06:19.000Z</time>
      </trkpt>
      <trkpt lat="47.22884" lon="16.02744">
        <ele>444.22797</ele>
        <time>2026-07-08T10:06:20.000Z</time>
      </trkpt>
      <trkpt lat="47.22881" lon="16.02745">
        <ele>444.347163</ele>
        <time>2026-07-08T10:06:21.000Z</time>
      </trkpt>
      <trkpt lat="47.22878" lon="16.02746">
        <ele>444.466911</ele>
        <time>2026-07-08T10:06:22.000Z</time>
      </trkpt>
      <trkpt lat="47.22875" lon="16.02747">
        <ele>444.586659</ele>
        <time>2026-07-08T10:06:23.000Z</time>
      </trkpt>
      <trkpt lat="47.22872" lon="16.02747">
        <ele>444.704525</ele>
        <time>2026-07-08T10:06:24.000Z</time>
      </trkpt>
      <trkpt lat="47.22869" lon="16.02748">
        <ele>444.822776</ele>
        <time>2026-07-08T10:06:25.000Z</time>
      </trkpt>
      <trkpt lat="47.22866" lon="16.02749">
        <ele>444.941026</ele>
        <time>2026-07-08T10:06:26.000Z</time>
      </trkpt>
      <trkpt lat="47.22863" lon="16.0275">
        <ele>445.059719</ele>
        <time>2026-07-08T10:06:27.000Z</time>
      </trkpt>
      <trkpt lat="47.2286" lon="16.02751">
        <ele>445.171887</ele>
        <time>2026-07-08T10:06:28.000Z</time>
      </trkpt>
      <trkpt lat="47.22857" lon="16.02751">
        <ele>445.286751</ele>
        <time>2026-07-08T10:06:29.000Z</time>
      </trkpt>
      <trkpt lat="47.22855" lon="16.02752">
        <ele>445.398325</ele>
        <time>2026-07-08T10:06:30.000Z</time>
      </trkpt>
      <trkpt lat="47.22852" lon="16.02753">
        <ele>445.50848</ele>
        <time>2026-07-08T10:06:31.000Z</time>
      </trkpt>
      <trkpt lat="47.22849" lon="16.02754">
        <ele>445.628229</ele>
        <time>2026-07-08T10:06:32.000Z</time>
      </trkpt>
      <trkpt lat="47.22846" lon="16.02755">
        <ele>445.738026</ele>
        <time>2026-07-08T10:06:33.000Z</time>
      </trkpt>
      <trkpt lat="47.22843" lon="16.02756">
        <ele>445.851556</ele>
        <time>2026-07-08T10:06:34.000Z</time>
      </trkpt>
      <trkpt lat="47.22841" lon="16.02757">
        <ele>445.959944</ele>
        <time>2026-07-08T10:06:35.000Z</time>
      </trkpt>
      <trkpt lat="47.22838" lon="16.02758">
        <ele>446.072764</ele>
        <time>2026-07-08T10:06:36.000Z</time>
      </trkpt>
      <trkpt lat="47.22835" lon="16.02759">
        <ele>446.181151</ele>
        <time>2026-07-08T10:06:37.000Z</time>
      </trkpt>
      <trkpt lat="47.22832" lon="16.02761">
        <ele>446.320137</ele>
        <time>2026-07-08T10:06:38.000Z</time>
      </trkpt>
      <trkpt lat="47.22829" lon="16.02762">
        <ele>446.501678</ele>
        <time>2026-07-08T10:06:39.000Z</time>
      </trkpt>
      <trkpt lat="47.22827" lon="16.02763">
        <ele>446.667157</ele>
        <time>2026-07-08T10:06:40.000Z</time>
      </trkpt>
      <trkpt lat="47.22824" lon="16.02764">
        <ele>446.837125</ele>
        <time>2026-07-08T10:06:41.000Z</time>
      </trkpt>
      <trkpt lat="47.22821" lon="16.02765">
        <ele>447.011773</ele>
        <time>2026-07-08T10:06:42.000Z</time>
      </trkpt>
      <trkpt lat="47.22818" lon="16.02767">
        <ele>447.193314</ele>
        <time>2026-07-08T10:06:43.000Z</time>
      </trkpt>
      <trkpt lat="47.22816" lon="16.02768">
        <ele>447.357522</ele>
        <time>2026-07-08T10:06:44.000Z</time>
      </trkpt>
      <trkpt lat="47.22813" lon="16.02769">
        <ele>447.528718</ele>
        <time>2026-07-08T10:06:45.000Z</time>
      </trkpt>
      <trkpt lat="47.2281" lon="16.0277">
        <ele>447.698686</ele>
        <time>2026-07-08T10:06:46.000Z</time>
      </trkpt>
      <trkpt lat="47.22808" lon="16.02771">
        <ele>447.873334</ele>
        <time>2026-07-08T10:06:47.000Z</time>
      </trkpt>
      <trkpt lat="47.22805" lon="16.02772">
        <ele>448.04112</ele>
        <time>2026-07-08T10:06:48.000Z</time>
      </trkpt>
      <trkpt lat="47.22802" lon="16.02773">
        <ele>448.203069</ele>
        <time>2026-07-08T10:06:49.000Z</time>
      </trkpt>
      <trkpt lat="47.228" lon="16.02775">
        <ele>448.373038</ele>
        <time>2026-07-08T10:06:50.000Z</time>
      </trkpt>
      <trkpt lat="47.22797" lon="16.02776">
        <ele>448.53573</ele>
        <time>2026-07-08T10:06:51.000Z</time>
      </trkpt>
      <trkpt lat="47.22794" lon="16.02777">
        <ele>448.705698</ele>
        <time>2026-07-08T10:06:52.000Z</time>
      </trkpt>
      <trkpt lat="47.22792" lon="16.02778">
        <ele>448.861823</ele>
        <time>2026-07-08T10:06:53.000Z</time>
      </trkpt>
      <trkpt lat="47.22789" lon="16.02779">
        <ele>449.023772</ele>
        <time>2026-07-08T10:06:54.000Z</time>
      </trkpt>
      <trkpt lat="47.22787" lon="16.0278">
        <ele>449.18102</ele>
        <time>2026-07-08T10:06:55.000Z</time>
      </trkpt>
      <trkpt lat="47.22784" lon="16.02782">
        <ele>449.343712</ele>
        <time>2026-07-08T10:06:56.000Z</time>
      </trkpt>
      <trkpt lat="47.22782" lon="16.02783">
        <ele>449.504904</ele>
        <time>2026-07-08T10:06:57.000Z</time>
      </trkpt>
      <trkpt lat="47.22779" lon="16.02784">
        <ele>449.672691</ele>
        <time>2026-07-08T10:06:58.000Z</time>
      </trkpt>
      <trkpt lat="47.22777" lon="16.02785">
        <ele>449.82474</ele>
        <time>2026-07-08T10:06:59.000Z</time>
      </trkpt>
      <trkpt lat="47.22774" lon="16.02785">
        <ele>449.977394</ele>
        <time>2026-07-08T10:07:00.000Z</time>
      </trkpt>
      <trkpt lat="47.22772" lon="16.02786">
        <ele>450.116969</ele>
        <time>2026-07-08T10:07:01.000Z</time>
      </trkpt>
      <trkpt lat="47.2277" lon="16.02786">
        <ele>450.250122</ele>
        <time>2026-07-08T10:07:02.000Z</time>
      </trkpt>
      <trkpt lat="47.22767" lon="16.02787">
        <ele>450.391664</ele>
        <time>2026-07-08T10:07:03.000Z</time>
      </trkpt>
      <trkpt lat="47.22765" lon="16.02787">
        <ele>450.526505</ele>
        <time>2026-07-08T10:07:04.000Z</time>
      </trkpt>
      <trkpt lat="47.22763" lon="16.02788">
        <ele>450.668047</ele>
        <time>2026-07-08T10:07:05.000Z</time>
      </trkpt>
      <trkpt lat="47.22761" lon="16.02789">
        <ele>450.802202</ele>
        <time>2026-07-08T10:07:06.000Z</time>
      </trkpt>
      <trkpt lat="47.22758" lon="16.02789">
        <ele>450.942317</ele>
        <time>2026-07-08T10:07:07.000Z</time>
      </trkpt>
      <trkpt lat="47.22756" lon="16.02789">
        <ele>451.087476</ele>
        <time>2026-07-08T10:07:08.000Z</time>
      </trkpt>
      <trkpt lat="47.22754" lon="16.02789">
        <ele>451.226089</ele>
        <time>2026-07-08T10:07:09.000Z</time>
      </trkpt>
      <trkpt lat="47.22751" lon="16.0279">
        <ele>451.358927</ele>
        <time>2026-07-08T10:07:10.000Z</time>
      </trkpt>
      <trkpt lat="47.22749" lon="16.0279">
        <ele>451.497539</ele>
        <time>2026-07-08T10:07:11.000Z</time>
      </trkpt>
      <trkpt lat="47.22747" lon="16.0279">
        <ele>451.630377</ele>
        <time>2026-07-08T10:07:12.000Z</time>
      </trkpt>
      <trkpt lat="47.22745" lon="16.0279">
        <ele>451.76899</ele>
        <time>2026-07-08T10:07:13.000Z</time>
      </trkpt>
      <trkpt lat="47.22743" lon="16.0279">
        <ele>451.889592</ele>
        <time>2026-07-08T10:07:14.000Z</time>
      </trkpt>
      <trkpt lat="47.2274" lon="16.0279">
        <ele>452.02243</ele>
        <time>2026-07-08T10:07:15.000Z</time>
      </trkpt>
      <trkpt lat="47.22738" lon="16.0279">
        <ele>452.143586</ele>
        <time>2026-07-08T10:07:16.000Z</time>
      </trkpt>
      <trkpt lat="47.22736" lon="16.02789">
        <ele>452.265225</ele>
        <time>2026-07-08T10:07:17.000Z</time>
      </trkpt>
      <trkpt lat="47.22734" lon="16.02789">
        <ele>452.391851</ele>
        <time>2026-07-08T10:07:18.000Z</time>
      </trkpt>
      <trkpt lat="47.22732" lon="16.02789">
        <ele>452.512661</ele>
        <time>2026-07-08T10:07:19.000Z</time>
      </trkpt>
      <trkpt lat="47.2273" lon="16.02789">
        <ele>452.646816</ele>
        <time>2026-07-08T10:07:20.000Z</time>
      </trkpt>
      <trkpt lat="47.22728" lon="16.02788">
        <ele>452.755988</ele>
        <time>2026-07-08T10:07:21.000Z</time>
      </trkpt>
      <trkpt lat="47.22726" lon="16.02788">
        <ele>452.876521</ele>
        <time>2026-07-08T10:07:22.000Z</time>
      </trkpt>
      <trkpt lat="47.22724" lon="16.02788">
        <ele>452.997331</ele>
        <time>2026-07-08T10:07:23.000Z</time>
      </trkpt>
      <trkpt lat="47.22722" lon="16.02788">
        <ele>453.130484</ele>
        <time>2026-07-08T10:07:24.000Z</time>
      </trkpt>
      <trkpt lat="47.2272" lon="16.02787">
        <ele>453.240192</ele>
        <time>2026-07-08T10:07:25.000Z</time>
      </trkpt>
      <trkpt lat="47.22718" lon="16.02787">
        <ele>453.360794</ele>
        <time>2026-07-08T10:07:26.000Z</time>
      </trkpt>
      <trkpt lat="47.22716" lon="16.02787">
        <ele>453.493632</ele>
        <time>2026-07-08T10:07:27.000Z</time>
      </trkpt>
      <trkpt lat="47.22714" lon="16.02787">
        <ele>453.614442</ele>
        <time>2026-07-08T10:07:28.000Z</time>
      </trkpt>
      <trkpt lat="47.22712" lon="16.02787">
        <ele>453.747091</ele>
        <time>2026-07-08T10:07:29.000Z</time>
      </trkpt>
      <trkpt lat="47.2271" lon="16.02787">
        <ele>453.87365</ele>
        <time>2026-07-08T10:07:30.000Z</time>
      </trkpt>
      <trkpt lat="47.22708" lon="16.02787">
        <ele>453.994182</ele>
        <time>2026-07-08T10:07:31.000Z</time>
      </trkpt>
      <trkpt lat="47.22706" lon="16.02787">
        <ele>454.114715</ele>
        <time>2026-07-08T10:07:32.000Z</time>
      </trkpt>
      <trkpt lat="47.22704" lon="16.02786">
        <ele>454.248308</ele>
        <time>2026-07-08T10:07:33.000Z</time>
      </trkpt>
      <trkpt lat="47.22702" lon="16.02786">
        <ele>454.36891</ele>
        <time>2026-07-08T10:07:34.000Z</time>
      </trkpt>
      <trkpt lat="47.227" lon="16.02786">
        <ele>454.489442</ele>
        <time>2026-07-08T10:07:35.000Z</time>
      </trkpt>
      <trkpt lat="47.22697" lon="16.02786">
        <ele>454.622091</ele>
        <time>2026-07-08T10:07:36.000Z</time>
      </trkpt>
      <trkpt lat="47.22695" lon="16.02787">
        <ele>454.742901</ele>
        <time>2026-07-08T10:07:37.000Z</time>
      </trkpt>
      <trkpt lat="47.22693" lon="16.02787">
        <ele>454.869725</ele>
        <time>2026-07-08T10:07:38.000Z</time>
      </trkpt>
      <trkpt lat="47.22691" lon="16.02787">
        <ele>455.002374</ele>
        <time>2026-07-08T10:07:39.000Z</time>
      </trkpt>
      <trkpt lat="47.22689" lon="16.02787">
        <ele>455.135966</ele>
        <time>2026-07-08T10:07:40.000Z</time>
      </trkpt>
      <trkpt lat="47.22687" lon="16.02788">
        <ele>455.264169</ele>
        <time>2026-07-08T10:07:41.000Z</time>
      </trkpt>
      <trkpt lat="47.22685" lon="16.02788">
        <ele>455.39901</ele>
        <time>2026-07-08T10:07:42.000Z</time>
      </trkpt>
      <trkpt lat="47.22683" lon="16.02789">
        <ele>455.5229</ele>
        <time>2026-07-08T10:07:43.000Z</time>
      </trkpt>
      <trkpt lat="47.2268" lon="16.0279">
        <ele>455.661659</ele>
        <time>2026-07-08T10:07:44.000Z</time>
      </trkpt>
      <trkpt lat="47.22678" lon="16.02791">
        <ele>455.808715</ele>
        <time>2026-07-08T10:07:45.000Z</time>
      </trkpt>
      <trkpt lat="47.22676" lon="16.02792">
        <ele>455.948735</ele>
        <time>2026-07-08T10:07:46.000Z</time>
      </trkpt>
      <trkpt lat="47.22674" lon="16.02793">
        <ele>456.081747</ele>
        <time>2026-07-08T10:07:47.000Z</time>
      </trkpt>
      <trkpt lat="47.22671" lon="16.02795">
        <ele>456.234497</ele>
        <time>2026-07-08T10:07:48.000Z</time>
      </trkpt>
      <trkpt lat="47.22669" lon="16.02796">
        <ele>456.379025</ele>
        <time>2026-07-08T10:07:49.000Z</time>
      </trkpt>
      <trkpt lat="47.22667" lon="16.02797">
        <ele>456.521888</ele>
        <time>2026-07-08T10:07:50.000Z</time>
      </trkpt>
      <trkpt lat="47.22665" lon="16.02798">
        <ele>456.673486</ele>
        <time>2026-07-08T10:07:51.000Z</time>
      </trkpt>
      <trkpt lat="47.22662" lon="16.028">
        <ele>456.825085</ele>
        <time>2026-07-08T10:07:52.000Z</time>
      </trkpt>
      <trkpt lat="47.2266" lon="16.02801">
        <ele>456.982213</ele>
        <time>2026-07-08T10:07:53.000Z</time>
      </trkpt>
      <trkpt lat="47.22657" lon="16.02803">
        <ele>457.087034</ele>
        <time>2026-07-08T10:07:54.000Z</time>
      </trkpt>
      <trkpt lat="47.22655" lon="16.02805">
        <ele>457.084422</ele>
        <time>2026-07-08T10:07:55.000Z</time>
      </trkpt>
      <trkpt lat="47.22652" lon="16.02807">
        <ele>457.081783</ele>
        <time>2026-07-08T10:07:56.000Z</time>
      </trkpt>
      <trkpt lat="47.2265" lon="16.02809">
        <ele>457.079</ele>
        <time>2026-07-08T10:07:57.000Z</time>
      </trkpt>
      <trkpt lat="47.22647" lon="16.0281">
        <ele>457.07604</ele>
        <time>2026-07-08T10:07:58.000Z</time>
      </trkpt>
      <trkpt lat="47.22644" lon="16.02812">
        <ele>457.073014</ele>
        <time>2026-07-08T10:07:59.000Z</time>
      </trkpt>
      <trkpt lat="47.22641" lon="16.02813">
        <ele>457.070009</ele>
        <time>2026-07-08T10:08:00.000Z</time>
      </trkpt>
      <trkpt lat="47.22638" lon="16.02815">
        <ele>457.066733</ele>
        <time>2026-07-08T10:08:01.000Z</time>
      </trkpt>
      <trkpt lat="47.22634" lon="16.02816">
        <ele>457.063458</ele>
        <time>2026-07-08T10:08:02.000Z</time>
      </trkpt>
      <trkpt lat="47.22631" lon="16.02818">
        <ele>457.060018</ele>
        <time>2026-07-08T10:08:03.000Z</time>
      </trkpt>
      <trkpt lat="47.22627" lon="16.02819">
        <ele>457.056378</ele>
        <time>2026-07-08T10:08:04.000Z</time>
      </trkpt>
      <trkpt lat="47.22623" lon="16.02821">
        <ele>457.052592</ele>
        <time>2026-07-08T10:08:05.000Z</time>
      </trkpt>
      <trkpt lat="47.2262" lon="16.02823">
        <ele>457.048896</ele>
        <time>2026-07-08T10:08:06.000Z</time>
      </trkpt>
      <trkpt lat="47.22616" lon="16.02825">
        <ele>457.04522</ele>
        <time>2026-07-08T10:08:07.000Z</time>
      </trkpt>
      <trkpt lat="47.22612" lon="16.02827">
        <ele>457.041571</ele>
        <time>2026-07-08T10:08:08.000Z</time>
      </trkpt>
      <trkpt lat="47.22609" lon="16.02828">
        <ele>457.037875</ele>
        <time>2026-07-08T10:08:09.000Z</time>
      </trkpt>
      <trkpt lat="47.22605" lon="16.0283">
        <ele>457.034235</ele>
        <time>2026-07-08T10:08:10.000Z</time>
      </trkpt>
      <trkpt lat="47.22601" lon="16.02831">
        <ele>457.030504</ele>
        <time>2026-07-08T10:08:11.000Z</time>
      </trkpt>
      <trkpt lat="47.22597" lon="16.02833">
        <ele>457.026555</ele>
        <time>2026-07-08T10:08:12.000Z</time>
      </trkpt>
      <trkpt lat="47.22593" lon="16.02835">
        <ele>457.022315</ele>
        <time>2026-07-08T10:08:13.000Z</time>
      </trkpt>
      <trkpt lat="47.22588" lon="16.02837">
        <ele>457.017948</ele>
        <time>2026-07-08T10:08:14.000Z</time>
      </trkpt>
      <trkpt lat="47.22584" lon="16.02839">
        <ele>457.01345</ele>
        <time>2026-07-08T10:08:15.000Z</time>
      </trkpt>
      <trkpt lat="47.22579" lon="16.02841">
        <ele>457.008627</ele>
        <time>2026-07-08T10:08:16.000Z</time>
      </trkpt>
      <trkpt lat="47.22574" lon="16.02843">
        <ele>457.003678</ele>
        <time>2026-07-08T10:08:17.000Z</time>
      </trkpt>
      <trkpt lat="47.22569" lon="16.02845">
        <ele>456.998655</ele>
        <time>2026-07-08T10:08:18.000Z</time>
      </trkpt>
      <trkpt lat="47.22564" lon="16.02847">
        <ele>456.993667</ele>
        <time>2026-07-08T10:08:19.000Z</time>
      </trkpt>
      <trkpt lat="47.22559" lon="16.02849">
        <ele>456.988553</ele>
        <time>2026-07-08T10:08:20.000Z</time>
      </trkpt>
      <trkpt lat="47.22553" lon="16.02851">
        <ele>456.98318</ele>
        <time>2026-07-08T10:08:21.000Z</time>
      </trkpt>
      <trkpt lat="47.22547" lon="16.02853">
        <ele>456.977637</ele>
        <time>2026-07-08T10:08:22.000Z</time>
      </trkpt>
      <trkpt lat="47.22542" lon="16.02855">
        <ele>456.972041</ele>
        <time>2026-07-08T10:08:23.000Z</time>
      </trkpt>
      <trkpt lat="47.22536" lon="16.02856">
        <ele>456.966298</ele>
        <time>2026-07-08T10:08:24.000Z</time>
      </trkpt>
      <trkpt lat="47.22529" lon="16.02856">
        <ele>456.960319</ele>
        <time>2026-07-08T10:08:25.000Z</time>
      </trkpt>
      <trkpt lat="47.22523" lon="16.02856">
        <ele>456.954249</ele>
        <time>2026-07-08T10:08:26.000Z</time>
      </trkpt>
      <trkpt lat="47.22516" lon="16.02856">
        <ele>456.947784</ele>
        <time>2026-07-08T10:08:27.000Z</time>
      </trkpt>
      <trkpt lat="47.22509" lon="16.02855">
        <ele>456.941302</ele>
        <time>2026-07-08T10:08:28.000Z</time>
      </trkpt>
      <trkpt lat="47.22502" lon="16.02853">
        <ele>456.934713</ele>
        <time>2026-07-08T10:08:29.000Z</time>
      </trkpt>
      <trkpt lat="47.22495" lon="16.02852">
        <ele>456.928021</ele>
        <time>2026-07-08T10:08:30.000Z</time>
      </trkpt>
      <trkpt lat="47.22489" lon="16.02851">
        <ele>456.921499</ele>
        <time>2026-07-08T10:08:31.000Z</time>
      </trkpt>
      <trkpt lat="47.22482" lon="16.02849">
        <ele>456.939318</ele>
        <time>2026-07-08T10:08:32.000Z</time>
      </trkpt>
      <trkpt lat="47.22475" lon="16.02848">
        <ele>456.994336</ele>
        <time>2026-07-08T10:08:33.000Z</time>
      </trkpt>
      <trkpt lat="47.22468" lon="16.02846">
        <ele>457.048562</ele>
        <time>2026-07-08T10:08:34.000Z</time>
      </trkpt>
      <trkpt lat="47.22462" lon="16.02845">
        <ele>457.101207</ele>
        <time>2026-07-08T10:08:35.000Z</time>
      </trkpt>
      <trkpt lat="47.22455" lon="16.02843">
        <ele>457.152109</ele>
        <time>2026-07-08T10:08:36.000Z</time>
      </trkpt>
      <trkpt lat="47.22449" lon="16.02842">
        <ele>457.202146</ele>
        <time>2026-07-08T10:08:37.000Z</time>
      </trkpt>
      <trkpt lat="47.22443" lon="16.02841">
        <ele>457.250596</ele>
        <time>2026-07-08T10:08:38.000Z</time>
      </trkpt>
      <trkpt lat="47.22437" lon="16.0284">
        <ele>457.297389</ele>
        <time>2026-07-08T10:08:39.000Z</time>
      </trkpt>
      <trkpt lat="47.22432" lon="16.02839">
        <ele>457.34332</ele>
        <time>2026-07-08T10:08:40.000Z</time>
      </trkpt>
      <trkpt lat="47.22426" lon="16.02837">
        <ele>457.387981</ele>
        <time>2026-07-08T10:08:41.000Z</time>
      </trkpt>
      <trkpt lat="47.22421" lon="16.02836">
        <ele>457.430974</ele>
        <time>2026-07-08T10:08:42.000Z</time>
      </trkpt>
      <trkpt lat="47.22416" lon="16.02835">
        <ele>457.473177</ele>
        <time>2026-07-08T10:08:43.000Z</time>
      </trkpt>
      <trkpt lat="47.2241" lon="16.02833">
        <ele>457.515475</ele>
        <time>2026-07-08T10:08:44.000Z</time>
      </trkpt>
      <trkpt lat="47.22405" lon="16.02832">
        <ele>457.557089</ele>
        <time>2026-07-08T10:08:45.000Z</time>
      </trkpt>
      <trkpt lat="47.224" lon="16.0283">
        <ele>457.599832</ele>
        <time>2026-07-08T10:08:46.000Z</time>
      </trkpt>
      <trkpt lat="47.22395" lon="16.02828">
        <ele>457.641018</ele>
        <time>2026-07-08T10:08:47.000Z</time>
      </trkpt>
      <trkpt lat="47.2239" lon="16.02826">
        <ele>457.680164</ele>
        <time>2026-07-08T10:08:48.000Z</time>
      </trkpt>
      <trkpt lat="47.22386" lon="16.02824">
        <ele>457.719935</ele>
        <time>2026-07-08T10:08:49.000Z</time>
      </trkpt>
      <trkpt lat="47.22381" lon="16.02823">
        <ele>457.757247</ele>
        <time>2026-07-08T10:08:50.000Z</time>
      </trkpt>
      <trkpt lat="47.22377" lon="16.02821">
        <ele>457.794559</ele>
        <time>2026-07-08T10:08:51.000Z</time>
      </trkpt>
      <trkpt lat="47.22372" lon="16.02819">
        <ele>457.830482</ele>
        <time>2026-07-08T10:08:52.000Z</time>
      </trkpt>
      <trkpt lat="47.22368" lon="16.02817">
        <ele>457.867022</ele>
        <time>2026-07-08T10:08:53.000Z</time>
      </trkpt>
      <trkpt lat="47.22364" lon="16.02815">
        <ele>457.901104</ele>
        <time>2026-07-08T10:08:54.000Z</time>
      </trkpt>
      <trkpt lat="47.22359" lon="16.02814">
        <ele>457.938146</ele>
        <time>2026-07-08T10:08:55.000Z</time>
      </trkpt>
      <trkpt lat="47.22355" lon="16.02812">
        <ele>457.974836</ele>
        <time>2026-07-08T10:08:56.000Z</time>
      </trkpt>
      <trkpt lat="47.22351" lon="16.0281">
        <ele>458.010606</ele>
        <time>2026-07-08T10:08:57.000Z</time>
      </trkpt>
      <trkpt lat="47.22346" lon="16.02808">
        <ele>458.046231</ele>
        <time>2026-07-08T10:08:58.000Z</time>
      </trkpt>
      <trkpt lat="47.22342" lon="16.02807">
        <ele>458.080945</ele>
        <time>2026-07-08T10:08:59.000Z</time>
      </trkpt>
      <trkpt lat="47.22338" lon="16.02805">
        <ele>458.116101</ele>
        <time>2026-07-08T10:09:00.000Z</time>
      </trkpt>
      <trkpt lat="47.22334" lon="16.02803">
        <ele>458.149905</ele>
        <time>2026-07-08T10:09:01.000Z</time>
      </trkpt>
      <trkpt lat="47.2233" lon="16.02802">
        <ele>458.181901</ele>
        <time>2026-07-08T10:09:02.000Z</time>
      </trkpt>
      <trkpt lat="47.22326" lon="16.02801">
        <ele>458.214929</ele>
        <time>2026-07-08T10:09:03.000Z</time>
      </trkpt>
      <trkpt lat="47.22322" lon="16.02799">
        <ele>458.246707</ele>
        <time>2026-07-08T10:09:04.000Z</time>
      </trkpt>
      <trkpt lat="47.22318" lon="16.02798">
        <ele>458.277923</ele>
        <time>2026-07-08T10:09:05.000Z</time>
      </trkpt>
      <trkpt lat="47.22315" lon="16.02797">
        <ele>458.308023</ele>
        <time>2026-07-08T10:09:06.000Z</time>
      </trkpt>
      <trkpt lat="47.22311" lon="16.02796">
        <ele>458.336364</ele>
        <time>2026-07-08T10:09:07.000Z</time>
      </trkpt>
      <trkpt lat="47.22307" lon="16.02795">
        <ele>458.381946</ele>
        <time>2026-07-08T10:09:08.000Z</time>
      </trkpt>
      <trkpt lat="47.22304" lon="16.02794">
        <ele>458.45501</ele>
        <time>2026-07-08T10:09:09.000Z</time>
      </trkpt>
      <trkpt lat="47.223" lon="16.02793">
        <ele>458.528682</ele>
        <time>2026-07-08T10:09:10.000Z</time>
      </trkpt>
      <trkpt lat="47.22297" lon="16.02792">
        <ele>458.604647</ele>
        <time>2026-07-08T10:09:11.000Z</time>
      </trkpt>
      <trkpt lat="47.22293" lon="16.02792">
        <ele>458.67809</ele>
        <time>2026-07-08T10:09:12.000Z</time>
      </trkpt>
      <trkpt lat="47.22289" lon="16.02791">
        <ele>458.760175</ele>
        <time>2026-07-08T10:09:13.000Z</time>
      </trkpt>
      <trkpt lat="47.22286" lon="16.0279">
        <ele>458.836139</ele>
        <time>2026-07-08T10:09:14.000Z</time>
      </trkpt>
      <trkpt lat="47.22282" lon="16.02789">
        <ele>458.917788</ele>
        <time>2026-07-08T10:09:15.000Z</time>
      </trkpt>
      <trkpt lat="47.22278" lon="16.02788">
        <ele>458.997831</ele>
        <time>2026-07-08T10:09:16.000Z</time>
      </trkpt>
      <trkpt lat="47.22274" lon="16.02787">
        <ele>459.075592</ele>
        <time>2026-07-08T10:09:17.000Z</time>
      </trkpt>
      <trkpt lat="47.2227" lon="16.02786">
        <ele>459.159296</ele>
        <time>2026-07-08T10:09:18.000Z</time>
      </trkpt>
      <trkpt lat="47.22266" lon="16.02785">
        <ele>459.242999</ele>
        <time>2026-07-08T10:09:19.000Z</time>
      </trkpt>
      <trkpt lat="47.22262" lon="16.02784">
        <ele>459.326903</ele>
        <time>2026-07-08T10:09:20.000Z</time>
      </trkpt>
      <trkpt lat="47.22258" lon="16.02784">
        <ele>459.416775</ele>
        <time>2026-07-08T10:09:21.000Z</time>
      </trkpt>
      <trkpt lat="47.22253" lon="16.02783">
        <ele>459.51488</ele>
        <time>2026-07-08T10:09:22.000Z</time>
      </trkpt>
      <trkpt lat="47.22249" lon="16.02782">
        <ele>459.615402</ele>
        <time>2026-07-08T10:09:23.000Z</time>
      </trkpt>
      <trkpt lat="47.22244" lon="16.02781">
        <ele>459.720031</ele>
        <time>2026-07-08T10:09:24.000Z</time>
      </trkpt>
      <trkpt lat="47.22238" lon="16.0278">
        <ele>459.829171</ele>
        <time>2026-07-08T10:09:25.000Z</time>
      </trkpt>
      <trkpt lat="47.22233" lon="16.02779">
        <ele>459.939967</ele>
        <time>2026-07-08T10:09:26.000Z</time>
      </trkpt>
      <trkpt lat="47.22228" lon="16.02778">
        <ele>460.054878</ele>
        <time>2026-07-08T10:09:27.000Z</time>
      </trkpt>
      <trkpt lat="47.22222" lon="16.02777">
        <ele>460.173606</ele>
        <time>2026-07-08T10:09:28.000Z</time>
      </trkpt>
      <trkpt lat="47.22216" lon="16.02776">
        <ele>460.288517</ele>
        <time>2026-07-08T10:09:29.000Z</time>
      </trkpt>
      <trkpt lat="47.22211" lon="16.02775">
        <ele>460.399706</ele>
        <time>2026-07-08T10:09:30.000Z</time>
      </trkpt>
      <trkpt lat="47.22206" lon="16.02773">
        <ele>460.510896</ele>
        <time>2026-07-08T10:09:31.000Z</time>
      </trkpt>
      <trkpt lat="47.222" lon="16.02772">
        <ele>460.623934</ele>
        <time>2026-07-08T10:09:32.000Z</time>
      </trkpt>
      <trkpt lat="47.22195" lon="16.02771">
        <ele>460.735123</ele>
        <time>2026-07-08T10:09:33.000Z</time>
      </trkpt>
      <trkpt lat="47.2219" lon="16.0277">
        <ele>460.84449</ele>
        <time>2026-07-08T10:09:34.000Z</time>
      </trkpt>
      <trkpt lat="47.22185" lon="16.02768">
        <ele>460.95233</ele>
        <time>2026-07-08T10:09:35.000Z</time>
      </trkpt>
      <trkpt lat="47.2218" lon="16.02767">
        <ele>461.056106</ele>
        <time>2026-07-08T10:09:36.000Z</time>
      </trkpt>
      <trkpt lat="47.22175" lon="16.02765">
        <ele>461.154448</ele>
        <time>2026-07-08T10:09:37.000Z</time>
      </trkpt>
      <trkpt lat="47.22171" lon="16.02764">
        <ele>461.247503</ele>
        <time>2026-07-08T10:09:38.000Z</time>
      </trkpt>
      <trkpt lat="47.22167" lon="16.02762">
        <ele>461.332755</ele>
        <time>2026-07-08T10:09:39.000Z</time>
      </trkpt>
      <trkpt lat="47.22163" lon="16.02761">
        <ele>461.418345</ele>
        <time>2026-07-08T10:09:40.000Z</time>
      </trkpt>
      <trkpt lat="47.22159" lon="16.02759">
        <ele>461.499922</ele>
        <time>2026-07-08T10:09:41.000Z</time>
      </trkpt>
      <trkpt lat="47.22155" lon="16.02758">
        <ele>461.580225</ele>
        <time>2026-07-08T10:09:42.000Z</time>
      </trkpt>
      <trkpt lat="47.22152" lon="16.02757">
        <ele>461.658785</ele>
        <time>2026-07-08T10:09:43.000Z</time>
      </trkpt>
      <trkpt lat="47.22148" lon="16.02756">
        <ele>461.729268</ele>
        <time>2026-07-08T10:09:44.000Z</time>
      </trkpt>
      <trkpt lat="47.22145" lon="16.02755">
        <ele>461.7981</ele>
        <time>2026-07-08T10:09:45.000Z</time>
      </trkpt>
      <trkpt lat="47.22142" lon="16.02753">
        <ele>461.863796</ele>
        <time>2026-07-08T10:09:46.000Z</time>
      </trkpt>
      <trkpt lat="47.22139" lon="16.02752">
        <ele>461.925578</ele>
        <time>2026-07-08T10:09:47.000Z</time>
      </trkpt>
      <trkpt lat="47.22136" lon="16.0275">
        <ele>461.989313</ele>
        <time>2026-07-08T10:09:48.000Z</time>
      </trkpt>
      <trkpt lat="47.22134" lon="16.02749">
        <ele>462.043837</ele>
        <time>2026-07-08T10:09:49.000Z</time>
      </trkpt>
      <trkpt lat="47.22131" lon="16.02748">
        <ele>462.116053</ele>
        <time>2026-07-08T10:09:50.000Z</time>
      </trkpt>
      <trkpt lat="47.22129" lon="16.02747">
        <ele>462.234352</ele>
        <time>2026-07-08T10:09:51.000Z</time>
      </trkpt>
      <trkpt lat="47.22126" lon="16.02745">
        <ele>462.348382</ele>
        <time>2026-07-08T10:09:52.000Z</time>
      </trkpt>
      <trkpt lat="47.22124" lon="16.02744">
        <ele>462.44866</ele>
        <time>2026-07-08T10:09:53.000Z</time>
      </trkpt>
      <trkpt lat="47.22122" lon="16.02743">
        <ele>462.55421</ele>
        <time>2026-07-08T10:09:54.000Z</time>
      </trkpt>
      <trkpt lat="47.2212" lon="16.02742">
        <ele>462.64745</ele>
        <time>2026-07-08T10:09:55.000Z</time>
      </trkpt>
      <trkpt lat="47.22118" lon="16.02741">
        <ele>462.742475</ele>
        <time>2026-07-08T10:09:56.000Z</time>
      </trkpt>
      <trkpt lat="47.22116" lon="16.0274">
        <ele>462.836562</ele>
        <time>2026-07-08T10:09:57.000Z</time>
      </trkpt>
      <trkpt lat="47.22114" lon="16.02739">
        <ele>462.923115</ele>
        <time>2026-07-08T10:09:58.000Z</time>
      </trkpt>
      <trkpt lat="47.22113" lon="16.02738">
        <ele>463.005475</ele>
        <time>2026-07-08T10:09:59.000Z</time>
      </trkpt>
      <trkpt lat="47.22111" lon="16.02737">
        <ele>463.091657</ele>
        <time>2026-07-08T10:10:00.000Z</time>
      </trkpt>
      <trkpt lat="47.22109" lon="16.02736">
        <ele>463.180551</ele>
        <time>2026-07-08T10:10:01.000Z</time>
      </trkpt>
      <trkpt lat="47.22107" lon="16.02735">
        <ele>463.26823</ele>
        <time>2026-07-08T10:10:02.000Z</time>
      </trkpt>
      <trkpt lat="47.22106" lon="16.02734">
        <ele>463.35059</ele>
        <time>2026-07-08T10:10:03.000Z</time>
      </trkpt>
      <trkpt lat="47.22104" lon="16.02733">
        <ele>463.444677</ele>
        <time>2026-07-08T10:10:04.000Z</time>
      </trkpt>
      <trkpt lat="47.22102" lon="16.02732">
        <ele>463.527036</ele>
        <time>2026-07-08T10:10:05.000Z</time>
      </trkpt>
      <trkpt lat="47.221" lon="16.02731">
        <ele>463.614715</ele>
        <time>2026-07-08T10:10:06.000Z</time>
      </trkpt>
      <trkpt lat="47.22098" lon="16.0273">
        <ele>463.699532</ele>
        <time>2026-07-08T10:10:07.000Z</time>
      </trkpt>
      <trkpt lat="47.22097" lon="16.02729">
        <ele>463.770324</ele>
        <time>2026-07-08T10:10:08.000Z</time>
      </trkpt>
      <trkpt lat="47.22095" lon="16.02728">
        <ele>463.853354</ele>
        <time>2026-07-08T10:10:09.000Z</time>
      </trkpt>
      <trkpt lat="47.22093" lon="16.02728">
        <ele>463.937112</ele>
        <time>2026-07-08T10:10:10.000Z</time>
      </trkpt>
      <trkpt lat="47.22092" lon="16.02727">
        <ele>464.019472</ele>
        <time>2026-07-08T10:10:11.000Z</time>
      </trkpt>
      <trkpt lat="47.2209" lon="16.02726">
        <ele>464.099765</ele>
        <time>2026-07-08T10:10:12.000Z</time>
      </trkpt>
      <trkpt lat="47.22088" lon="16.02725">
        <ele>464.180548</ele>
        <time>2026-07-08T10:10:13.000Z</time>
      </trkpt>
      <trkpt lat="47.22087" lon="16.02723">
        <ele>464.265365</ele>
        <time>2026-07-08T10:10:14.000Z</time>
      </trkpt>
      <trkpt lat="47.22085" lon="16.02722">
        <ele>464.347725</ele>
        <time>2026-07-08T10:10:15.000Z</time>
      </trkpt>
      <trkpt lat="47.22083" lon="16.02721">
        <ele>464.423115</ele>
        <time>2026-07-08T10:10:16.000Z</time>
      </trkpt>
      <trkpt lat="47.22082" lon="16.0272">
        <ele>464.50685</ele>
        <time>2026-07-08T10:10:17.000Z</time>
      </trkpt>
      <trkpt lat="47.2208" lon="16.02719">
        <ele>464.582241</ele>
        <time>2026-07-08T10:10:18.000Z</time>
      </trkpt>
      <trkpt lat="47.22079" lon="16.02718">
        <ele>464.655113</ele>
        <time>2026-07-08T10:10:19.000Z</time>
      </trkpt>
      <trkpt lat="47.22077" lon="16.02717">
        <ele>464.737472</ele>
        <time>2026-07-08T10:10:20.000Z</time>
      </trkpt>
      <trkpt lat="47.22076" lon="16.02716">
        <ele>464.808172</ele>
        <time>2026-07-08T10:10:21.000Z</time>
      </trkpt>
      <trkpt lat="47.22074" lon="16.02714">
        <ele>464.881053</ele>
        <time>2026-07-08T10:10:22.000Z</time>
      </trkpt>
      <trkpt lat="47.22073" lon="16.02713">
        <ele>464.959252</ele>
        <time>2026-07-08T10:10:23.000Z</time>
      </trkpt>
      <trkpt lat="47.22071" lon="16.02712">
        <ele>465.037148</ele>
        <time>2026-07-08T10:10:24.000Z</time>
      </trkpt>
      <trkpt lat="47.2207" lon="16.0271">
        <ele>465.113377</ele>
        <time>2026-07-08T10:10:25.000Z</time>
      </trkpt>
      <trkpt lat="47.22069" lon="16.02709">
        <ele>465.193277</ele>
        <time>2026-07-08T10:10:26.000Z</time>
      </trkpt>
      <trkpt lat="47.22067" lon="16.02707">
        <ele>465.274854</ele>
        <time>2026-07-08T10:10:27.000Z</time>
      </trkpt>
      <trkpt lat="47.22066" lon="16.02706">
        <ele>465.361912</ele>
        <time>2026-07-08T10:10:28.000Z</time>
      </trkpt>
      <trkpt lat="47.22064" lon="16.02704">
        <ele>465.456116</ele>
        <time>2026-07-08T10:10:29.000Z</time>
      </trkpt>
      <trkpt lat="47.22062" lon="16.02702">
        <ele>465.547158</ele>
        <time>2026-07-08T10:10:30.000Z</time>
      </trkpt>
      <trkpt lat="47.22061" lon="16.027">
        <ele>465.641583</ele>
        <time>2026-07-08T10:10:31.000Z</time>
      </trkpt>
      <trkpt lat="47.22059" lon="16.02698">
        <ele>465.739482</ele>
        <time>2026-07-08T10:10:32.000Z</time>
      </trkpt>
      <trkpt lat="47.22057" lon="16.02696">
        <ele>465.83738</ele>
        <time>2026-07-08T10:10:33.000Z</time>
      </trkpt>
      <trkpt lat="47.22056" lon="16.02694">
        <ele>465.928422</ele>
        <time>2026-07-08T10:10:34.000Z</time>
      </trkpt>
      <trkpt lat="47.22054" lon="16.02692">
        <ele>466.019464</ele>
        <time>2026-07-08T10:10:35.000Z</time>
      </trkpt>
      <trkpt lat="47.22053" lon="16.0269">
        <ele>466.114716</ele>
        <time>2026-07-08T10:10:36.000Z</time>
      </trkpt>
      <trkpt lat="47.22052" lon="16.02687">
        <ele>466.215845</ele>
        <time>2026-07-08T10:10:37.000Z</time>
      </trkpt>
      <trkpt lat="47.2205" lon="16.02684">
        <ele>466.311897</ele>
        <time>2026-07-08T10:10:38.000Z</time>
      </trkpt>
      <trkpt lat="47.22049" lon="16.02682">
        <ele>466.418483</ele>
        <time>2026-07-08T10:10:39.000Z</time>
      </trkpt>
      <trkpt lat="47.22048" lon="16.02679">
        <ele>466.514688</ele>
        <time>2026-07-08T10:10:40.000Z</time>
      </trkpt>
      <trkpt lat="47.22046" lon="16.02676">
        <ele>466.625908</ele>
        <time>2026-07-08T10:10:41.000Z</time>
      </trkpt>
      <trkpt lat="47.22045" lon="16.02673">
        <ele>466.734876</ele>
        <time>2026-07-08T10:10:42.000Z</time>
      </trkpt>
      <trkpt lat="47.22044" lon="16.0267">
        <ele>466.843612</ele>
        <time>2026-07-08T10:10:43.000Z</time>
      </trkpt>
      <trkpt lat="47.22042" lon="16.02667">
        <ele>466.952579</ele>
        <time>2026-07-08T10:10:44.000Z</time>
      </trkpt>
      <trkpt lat="47.2204" lon="16.02664">
        <ele>467.071963</ele>
        <time>2026-07-08T10:10:45.000Z</time>
      </trkpt>
      <trkpt lat="47.22039" lon="16.02661">
        <ele>467.190768</ele>
        <time>2026-07-08T10:10:46.000Z</time>
      </trkpt>
      <trkpt lat="47.22037" lon="16.02658">
        <ele>467.313082</ele>
        <time>2026-07-08T10:10:47.000Z</time>
      </trkpt>
      <trkpt lat="47.22035" lon="16.02655">
        <ele>467.43722</ele>
        <time>2026-07-08T10:10:48.000Z</time>
      </trkpt>
      <trkpt lat="47.22034" lon="16.02652">
        <ele>467.561111</ele>
        <time>2026-07-08T10:10:49.000Z</time>
      </trkpt>
      <trkpt lat="47.22032" lon="16.02648">
        <ele>467.68767</ele>
        <time>2026-07-08T10:10:50.000Z</time>
      </trkpt>
      <trkpt lat="47.22031" lon="16.02645">
        <ele>467.809563</ele>
        <time>2026-07-08T10:10:51.000Z</time>
      </trkpt>
      <trkpt lat="47.22029" lon="16.02641">
        <ele>467.938569</ele>
        <time>2026-07-08T10:10:52.000Z</time>
      </trkpt>
      <trkpt lat="47.22027" lon="16.02638">
        <ele>468.06319</ele>
        <time>2026-07-08T10:10:53.000Z</time>
      </trkpt>
      <trkpt lat="47.22025" lon="16.02635">
        <ele>468.200628</ele>
        <time>2026-07-08T10:10:54.000Z</time>
      </trkpt>
      <trkpt lat="47.22023" lon="16.02631">
        <ele>468.339937</ele>
        <time>2026-07-08T10:10:55.000Z</time>
      </trkpt>
      <trkpt lat="47.22021" lon="16.02627">
        <ele>468.48926</ele>
        <time>2026-07-08T10:10:56.000Z</time>
      </trkpt>
      <trkpt lat="47.22019" lon="16.02623">
        <ele>468.651091</ele>
        <time>2026-07-08T10:10:57.000Z</time>
      </trkpt>
      <trkpt lat="47.22017" lon="16.02618">
        <ele>468.825507</ele>
        <time>2026-07-08T10:10:58.000Z</time>
      </trkpt>
      <trkpt lat="47.22015" lon="16.02613">
        <ele>469.01003</ele>
        <time>2026-07-08T10:10:59.000Z</time>
      </trkpt>
      <trkpt lat="47.22013" lon="16.02608">
        <ele>469.194641</ele>
        <time>2026-07-08T10:11:00.000Z</time>
      </trkpt>
      <trkpt lat="47.22011" lon="16.02603">
        <ele>469.390679</ele>
        <time>2026-07-08T10:11:01.000Z</time>
      </trkpt>
      <trkpt lat="47.22008" lon="16.02597">
        <ele>469.593669</ele>
        <time>2026-07-08T10:11:02.000Z</time>
      </trkpt>
      <trkpt lat="47.22006" lon="16.02591">
        <ele>469.795891</ele>
        <time>2026-07-08T10:11:03.000Z</time>
      </trkpt>
      <trkpt lat="47.22004" lon="16.02586">
        <ele>469.990655</ele>
        <time>2026-07-08T10:11:04.000Z</time>
      </trkpt>
      <trkpt lat="47.22001" lon="16.0258">
        <ele>470.179979</ele>
        <time>2026-07-08T10:11:05.000Z</time>
      </trkpt>
      <trkpt lat="47.21999" lon="16.02575">
        <ele>470.201816</ele>
        <time>2026-07-08T10:11:06.000Z</time>
      </trkpt>
      <trkpt lat="47.21996" lon="16.02569">
        <ele>470.22338</ele>
        <time>2026-07-08T10:11:07.000Z</time>
      </trkpt>
      <trkpt lat="47.21993" lon="16.02564">
        <ele>470.245393</ele>
        <time>2026-07-08T10:11:08.000Z</time>
      </trkpt>
      <trkpt lat="47.2199" lon="16.0256">
        <ele>470.266916</ele>
        <time>2026-07-08T10:11:09.000Z</time>
      </trkpt>
      <trkpt lat="47.21987" lon="16.02555">
        <ele>470.287256</ele>
        <time>2026-07-08T10:11:10.000Z</time>
      </trkpt>
      <trkpt lat="47.21984" lon="16.02551">
        <ele>470.30621</ele>
        <time>2026-07-08T10:11:11.000Z</time>
      </trkpt>
      <trkpt lat="47.21981" lon="16.02547">
        <ele>470.325291</ele>
        <time>2026-07-08T10:11:12.000Z</time>
      </trkpt>
      <trkpt lat="47.21978" lon="16.02544">
        <ele>470.343886</ele>
        <time>2026-07-08T10:11:13.000Z</time>
      </trkpt>
      <trkpt lat="47.21976" lon="16.02541">
        <ele>470.360709</ele>
        <time>2026-07-08T10:11:14.000Z</time>
      </trkpt>
      <trkpt lat="47.21972" lon="16.02538">
        <ele>470.379319</ele>
        <time>2026-07-08T10:11:15.000Z</time>
      </trkpt>
      <trkpt lat="47.21969" lon="16.02535">
        <ele>470.3964</ele>
        <time>2026-07-08T10:11:16.000Z</time>
      </trkpt>
      <trkpt lat="47.21966" lon="16.02532">
        <ele>470.413898</ele>
        <time>2026-07-08T10:11:17.000Z</time>
      </trkpt>
      <trkpt lat="47.21963" lon="16.0253">
        <ele>470.432361</ele>
        <time>2026-07-08T10:11:18.000Z</time>
      </trkpt>
      <trkpt lat="47.2196" lon="16.02527">
        <ele>470.450544</ele>
        <time>2026-07-08T10:11:19.000Z</time>
      </trkpt>
      <trkpt lat="47.21956" lon="16.02525">
        <ele>470.468574</ele>
        <time>2026-07-08T10:11:20.000Z</time>
      </trkpt>
      <trkpt lat="47.21953" lon="16.02522">
        <ele>470.487472</ele>
        <time>2026-07-08T10:11:21.000Z</time>
      </trkpt>
      <trkpt lat="47.21949" lon="16.0252">
        <ele>470.505935</ele>
        <time>2026-07-08T10:11:22.000Z</time>
      </trkpt>
      <trkpt lat="47.21946" lon="16.02517">
        <ele>470.523965</ele>
        <time>2026-07-08T10:11:23.000Z</time>
      </trkpt>
      <trkpt lat="47.21943" lon="16.02515">
        <ele>470.542306</ele>
        <time>2026-07-08T10:11:24.000Z</time>
      </trkpt>
      <trkpt lat="47.21939" lon="16.02512">
        <ele>470.560769</ele>
        <time>2026-07-08T10:11:25.000Z</time>
      </trkpt>
      <trkpt lat="47.21936" lon="16.0251">
        <ele>470.577633</ele>
        <time>2026-07-08T10:11:26.000Z</time>
      </trkpt>
      <trkpt lat="47.21933" lon="16.02507">
        <ele>470.596096</ele>
        <time>2026-07-08T10:11:27.000Z</time>
      </trkpt>
      <trkpt lat="47.2193" lon="16.02505">
        <ele>470.613267</ele>
        <time>2026-07-08T10:11:28.000Z</time>
      </trkpt>
      <trkpt lat="47.21926" lon="16.02502">
        <ele>470.632034</ele>
        <time>2026-07-08T10:11:29.000Z</time>
      </trkpt>
      <trkpt lat="47.21923" lon="16.02499">
        <ele>470.649532</ele>
        <time>2026-07-08T10:11:30.000Z</time>
      </trkpt>
      <trkpt lat="47.2192" lon="16.02497">
        <ele>470.66771</ele>
        <time>2026-07-08T10:11:31.000Z</time>
      </trkpt>
      <trkpt lat="47.21917" lon="16.02495">
        <ele>470.684881</ele>
        <time>2026-07-08T10:11:32.000Z</time>
      </trkpt>
      <trkpt lat="47.21914" lon="16.02492">
        <ele>470.701313</ele>
        <time>2026-07-08T10:11:33.000Z</time>
      </trkpt>
      <trkpt lat="47.21911" lon="16.0249">
        <ele>470.718912</ele>
        <time>2026-07-08T10:11:34.000Z</time>
      </trkpt>
      <trkpt lat="47.21908" lon="16.02487">
        <ele>470.735499</ele>
        <time>2026-07-08T10:11:35.000Z</time>
      </trkpt>
      <trkpt lat="47.21904" lon="16.02485">
        <ele>470.752799</ele>
        <time>2026-07-08T10:11:36.000Z</time>
      </trkpt>
      <trkpt lat="47.21902" lon="16.02483">
        <ele>470.768707</ele>
        <time>2026-07-08T10:11:37.000Z</time>
      </trkpt>
      <trkpt lat="47.21899" lon="16.0248">
        <ele>470.785789</ele>
        <time>2026-07-08T10:11:38.000Z</time>
      </trkpt>
      <trkpt lat="47.21896" lon="16.02477">
        <ele>470.802809</ele>
        <time>2026-07-08T10:11:39.000Z</time>
      </trkpt>
      <trkpt lat="47.21893" lon="16.02474">
        <ele>470.819647</ele>
        <time>2026-07-08T10:11:40.000Z</time>
      </trkpt>
      <trkpt lat="47.21891" lon="16.0247">
        <ele>470.836197</ele>
        <time>2026-07-08T10:11:41.000Z</time>
      </trkpt>
      <trkpt lat="47.21889" lon="16.02466">
        <ele>470.853181</ele>
        <time>2026-07-08T10:11:42.000Z</time>
      </trkpt>
      <trkpt lat="47.21887" lon="16.02462">
        <ele>470.869847</ele>
        <time>2026-07-08T10:11:43.000Z</time>
      </trkpt>
      <trkpt lat="47.21885" lon="16.02457">
        <ele>470.886983</ele>
        <time>2026-07-08T10:11:44.000Z</time>
      </trkpt>
      <trkpt lat="47.21884" lon="16.02452">
        <ele>470.904828</ele>
        <time>2026-07-08T10:11:45.000Z</time>
      </trkpt>
      <trkpt lat="47.21882" lon="16.02447">
        <ele>470.923166</ele>
        <time>2026-07-08T10:11:46.000Z</time>
      </trkpt>
      <trkpt lat="47.21881" lon="16.02441">
        <ele>470.942417</ele>
        <time>2026-07-08T10:11:47.000Z</time>
      </trkpt>
      <trkpt lat="47.21879" lon="16.02436">
        <ele>470.962463</ele>
        <time>2026-07-08T10:11:48.000Z</time>
      </trkpt>
      <trkpt lat="47.21877" lon="16.0243">
        <ele>470.983414</ele>
        <time>2026-07-08T10:11:49.000Z</time>
      </trkpt>
      <trkpt lat="47.21875" lon="16.02424">
        <ele>471.005468</ele>
        <time>2026-07-08T10:11:50.000Z</time>
      </trkpt>
      <trkpt lat="47.21873" lon="16.02417">
        <ele>471.030238</ele>
        <time>2026-07-08T10:11:51.000Z</time>
      </trkpt>
      <trkpt lat="47.2187" lon="16.02411">
        <ele>470.998422</ele>
        <time>2026-07-08T10:11:52.000Z</time>
      </trkpt>
      <trkpt lat="47.21866" lon="16.02404">
        <ele>470.644834</ele>
        <time>2026-07-08T10:11:53.000Z</time>
      </trkpt>
      <trkpt lat="47.21862" lon="16.02397">
        <ele>470.280323</ele>
        <time>2026-07-08T10:11:54.000Z</time>
      </trkpt>
      <trkpt lat="47.21856" lon="16.02391">
        <ele>469.884472</ele>
        <time>2026-07-08T10:11:55.000Z</time>
      </trkpt>
      <trkpt lat="47.21851" lon="16.02384">
        <ele>469.473098</ele>
        <time>2026-07-08T10:11:56.000Z</time>
      </trkpt>
      <trkpt lat="47.21844" lon="16.02378">
        <ele>469.03631</ele>
        <time>2026-07-08T10:11:57.000Z</time>
      </trkpt>
      <trkpt lat="47.21838" lon="16.02372">
        <ele>468.589109</ele>
        <time>2026-07-08T10:11:58.000Z</time>
      </trkpt>
      <trkpt lat="47.21831" lon="16.02365">
        <ele>468.106455</ele>
        <time>2026-07-08T10:11:59.000Z</time>
      </trkpt>
      <trkpt lat="47.21823" lon="16.02359">
        <ele>467.614743</ele>
        <time>2026-07-08T10:12:00.000Z</time>
      </trkpt>
      <trkpt lat="47.21815" lon="16.02354">
        <ele>467.125291</ele>
        <time>2026-07-08T10:12:01.000Z</time>
      </trkpt>
      <trkpt lat="47.21807" lon="16.02349">
        <ele>466.621251</ele>
        <time>2026-07-08T10:12:02.000Z</time>
      </trkpt>
      <trkpt lat="47.21799" lon="16.02344">
        <ele>466.099818</ele>
        <time>2026-07-08T10:12:03.000Z</time>
      </trkpt>
      <trkpt lat="47.21791" lon="16.02338">
        <ele>465.589785</ele>
        <time>2026-07-08T10:12:04.000Z</time>
      </trkpt>
      <trkpt lat="47.21783" lon="16.02332">
        <ele>465.085392</ele>
        <time>2026-07-08T10:12:05.000Z</time>
      </trkpt>
      <trkpt lat="47.21776" lon="16.02324">
        <ele>464.558536</ele>
        <time>2026-07-08T10:12:06.000Z</time>
      </trkpt>
      <trkpt lat="47.21769" lon="16.02314">
        <ele>464.028843</ele>
        <time>2026-07-08T10:12:07.000Z</time>
      </trkpt>
      <trkpt lat="47.21763" lon="16.02303">
        <ele>463.473109</ele>
        <time>2026-07-08T10:12:08.000Z</time>
      </trkpt>
      <trkpt lat="47.21756" lon="16.02293">
        <ele>462.926811</ele>
        <time>2026-07-08T10:12:09.000Z</time>
      </trkpt>
      <trkpt lat="47.21748" lon="16.02284">
        <ele>462.351383</ele>
        <time>2026-07-08T10:12:10.000Z</time>
      </trkpt>
      <trkpt lat="47.21739" lon="16.02277">
        <ele>461.755283</ele>
        <time>2026-07-08T10:12:11.000Z</time>
      </trkpt>
      <trkpt lat="47.21729" lon="16.02271">
        <ele>461.145284</ele>
        <time>2026-07-08T10:12:12.000Z</time>
      </trkpt>
      <trkpt lat="47.2172" lon="16.02265">
        <ele>460.368271</ele>
        <time>2026-07-08T10:12:13.000Z</time>
      </trkpt>
      <trkpt lat="47.2171" lon="16.02259">
        <ele>459.269502</ele>
        <time>2026-07-08T10:12:14.000Z</time>
      </trkpt>
      <trkpt lat="47.21701" lon="16.02252">
        <ele>458.209747</ele>
        <time>2026-07-08T10:12:15.000Z</time>
      </trkpt>
      <trkpt lat="47.21693" lon="16.02244">
        <ele>457.189847</ele>
        <time>2026-07-08T10:12:16.000Z</time>
      </trkpt>
      <trkpt lat="47.21686" lon="16.02235">
        <ele>456.162177</ele>
        <time>2026-07-08T10:12:17.000Z</time>
      </trkpt>
      <trkpt lat="47.2168" lon="16.02223">
        <ele>455.082049</ele>
        <time>2026-07-08T10:12:18.000Z</time>
      </trkpt>
      <trkpt lat="47.21673" lon="16.0221">
        <ele>453.899521</ele>
        <time>2026-07-08T10:12:19.000Z</time>
      </trkpt>
      <trkpt lat="47.21667" lon="16.02194">
        <ele>452.635578</ele>
        <time>2026-07-08T10:12:20.000Z</time>
      </trkpt>
      <trkpt lat="47.21662" lon="16.02178">
        <ele>451.287842</ele>
        <time>2026-07-08T10:12:21.000Z</time>
      </trkpt>
      <trkpt lat="47.21656" lon="16.0216">
        <ele>449.882011</ele>
        <time>2026-07-08T10:12:22.000Z</time>
      </trkpt>
      <trkpt lat="47.21649" lon="16.02142">
        <ele>448.402374</ele>
        <time>2026-07-08T10:12:23.000Z</time>
      </trkpt>
      <trkpt lat="47.21643" lon="16.02123">
        <ele>446.879344</ele>
        <time>2026-07-08T10:12:24.000Z</time>
      </trkpt>
      <trkpt lat="47.21636" lon="16.02104">
        <ele>445.293457</ele>
        <time>2026-07-08T10:12:25.000Z</time>
      </trkpt>
      <trkpt lat="47.21629" lon="16.02084">
        <ele>443.681907</ele>
        <time>2026-07-08T10:12:26.000Z</time>
      </trkpt>
      <trkpt lat="47.21622" lon="16.02063">
        <ele>442.022116</ele>
        <time>2026-07-08T10:12:27.000Z</time>
      </trkpt>
      <trkpt lat="47.21614" lon="16.02043">
        <ele>440.604141</ele>
        <time>2026-07-08T10:12:28.000Z</time>
      </trkpt>
      <trkpt lat="47.21606" lon="16.02023">
        <ele>439.269661</ele>
        <time>2026-07-08T10:12:29.000Z</time>
      </trkpt>
      <trkpt lat="47.21598" lon="16.02004">
        <ele>437.960485</ele>
        <time>2026-07-08T10:12:30.000Z</time>
      </trkpt>
      <trkpt lat="47.21589" lon="16.01985">
        <ele>436.684619</ele>
        <time>2026-07-08T10:12:31.000Z</time>
      </trkpt>
      <trkpt lat="47.2158" lon="16.01968">
        <ele>435.441178</ele>
        <time>2026-07-08T10:12:32.000Z</time>
      </trkpt>
      <trkpt lat="47.21571" lon="16.01951">
        <ele>434.223404</ele>
        <time>2026-07-08T10:12:33.000Z</time>
      </trkpt>
      <trkpt lat="47.21562" lon="16.01936">
        <ele>433.050538</ele>
        <time>2026-07-08T10:12:34.000Z</time>
      </trkpt>
      <trkpt lat="47.21552" lon="16.01922">
        <ele>431.913336</ele>
        <time>2026-07-08T10:12:35.000Z</time>
      </trkpt>
      <trkpt lat="47.21541" lon="16.01911">
        <ele>430.788994</ele>
        <time>2026-07-08T10:12:36.000Z</time>
      </trkpt>
      <trkpt lat="47.21531" lon="16.019">
        <ele>429.720863</ele>
        <time>2026-07-08T10:12:37.000Z</time>
      </trkpt>
      <trkpt lat="47.2152" lon="16.01891">
        <ele>428.656899</ele>
        <time>2026-07-08T10:12:38.000Z</time>
      </trkpt>
      <trkpt lat="47.21509" lon="16.01883">
        <ele>427.642407</ele>
        <time>2026-07-08T10:12:39.000Z</time>
      </trkpt>
      <trkpt lat="47.21489" lon="16.01869">
        <ele>426.465915</ele>
        <time>2026-07-08T10:12:40.000Z</time>
      </trkpt>
      <trkpt lat="47.21479" lon="16.01862">
        <ele>426.44253</ele>
        <time>2026-07-08T10:12:41.000Z</time>
      </trkpt>
      <trkpt lat="47.2147" lon="16.01856">
        <ele>426.420067</ele>
        <time>2026-07-08T10:12:42.000Z</time>
      </trkpt>
      <trkpt lat="47.21461" lon="16.0185">
        <ele>426.398048</ele>
        <time>2026-07-08T10:12:43.000Z</time>
      </trkpt>
      <trkpt lat="47.21452" lon="16.01844">
        <ele>426.376667</ele>
        <time>2026-07-08T10:12:44.000Z</time>
      </trkpt>
      <trkpt lat="47.21443" lon="16.01839">
        <ele>426.356119</ele>
        <time>2026-07-08T10:12:45.000Z</time>
      </trkpt>
      <trkpt lat="47.21435" lon="16.01834">
        <ele>426.336497</ele>
        <time>2026-07-08T10:12:46.000Z</time>
      </trkpt>
      <trkpt lat="47.21426" lon="16.0183">
        <ele>426.317243</ele>
        <time>2026-07-08T10:12:47.000Z</time>
      </trkpt>
      <trkpt lat="47.21419" lon="16.01825">
        <ele>426.298635</ele>
        <time>2026-07-08T10:12:48.000Z</time>
      </trkpt>
      <trkpt lat="47.21411" lon="16.01821">
        <ele>426.281383</ele>
        <time>2026-07-08T10:12:50.000Z</time>
      </trkpt>
      <trkpt lat="47.21399" lon="16.01813">
        <ele>426.251521</ele>
        <time>2026-07-08T10:12:51.000Z</time>
      </trkpt>
      <trkpt lat="47.21393" lon="16.0181">
        <ele>426.238082</ele>
        <time>2026-07-08T10:12:52.000Z</time>
      </trkpt>
      <trkpt lat="47.21388" lon="16.01807">
        <ele>426.225623</ele>
        <time>2026-07-08T10:12:53.000Z</time>
      </trkpt>
      <trkpt lat="47.21383" lon="16.01804">
        <ele>426.214061</ele>
        <time>2026-07-08T10:12:54.000Z</time>
      </trkpt>
      <trkpt lat="47.21378" lon="16.01801">
        <ele>426.202323</ele>
        <time>2026-07-08T10:12:55.000Z</time>
      </trkpt>
      <trkpt lat="47.21373" lon="16.01798">
        <ele>426.190843</ele>
        <time>2026-07-08T10:12:56.000Z</time>
      </trkpt>
      <trkpt lat="47.21368" lon="16.01796">
        <ele>426.179105</ele>
        <time>2026-07-08T10:12:57.000Z</time>
      </trkpt>
      <trkpt lat="47.21363" lon="16.01793">
        <ele>426.16783</ele>
        <time>2026-07-08T10:12:58.000Z</time>
      </trkpt>
      <trkpt lat="47.21358" lon="16.0179">
        <ele>426.156607</ele>
        <time>2026-07-08T10:12:59.000Z</time>
      </trkpt>
      <trkpt lat="47.21353" lon="16.01788">
        <ele>426.145276</ele>
        <time>2026-07-08T10:13:00.000Z</time>
      </trkpt>
      <trkpt lat="47.21349" lon="16.01786">
        <ele>426.134709</ele>
        <time>2026-07-08T10:13:01.000Z</time>
      </trkpt>
      <trkpt lat="47.21344" lon="16.01784">
        <ele>426.124394</ele>
        <time>2026-07-08T10:13:02.000Z</time>
      </trkpt>
      <trkpt lat="47.2134" lon="16.01782">
        <ele>426.114709</ele>
        <time>2026-07-08T10:13:03.000Z</time>
      </trkpt>
      <trkpt lat="47.21336" lon="16.0178">
        <ele>426.105903</ele>
        <time>2026-07-08T10:13:04.000Z</time>
      </trkpt>
      <trkpt lat="47.21333" lon="16.01778">
        <ele>426.097352</ele>
        <time>2026-07-08T10:13:05.000Z</time>
      </trkpt>
      <trkpt lat="47.21329" lon="16.01776">
        <ele>426.126632</ele>
        <time>2026-07-08T10:13:06.000Z</time>
      </trkpt>
      <trkpt lat="47.21326" lon="16.01774">
        <ele>426.357167</ele>
        <time>2026-07-08T10:13:07.000Z</time>
      </trkpt>
      <trkpt lat="47.21323" lon="16.01772">
        <ele>426.571428</ele>
        <time>2026-07-08T10:13:08.000Z</time>
      </trkpt>
      <trkpt lat="47.2132" lon="16.0177">
        <ele>426.77978</ele>
        <time>2026-07-08T10:13:09.000Z</time>
      </trkpt>
      <trkpt lat="47.21317" lon="16.01768">
        <ele>426.964895</ele>
        <time>2026-07-08T10:13:10.000Z</time>
      </trkpt>
      <trkpt lat="47.21315" lon="16.01767">
        <ele>427.145956</ele>
        <time>2026-07-08T10:13:11.000Z</time>
      </trkpt>
      <trkpt lat="47.21313" lon="16.01764">
        <ele>427.324407</ele>
        <time>2026-07-08T10:13:12.000Z</time>
      </trkpt>
      <trkpt lat="47.2131" lon="16.01763">
        <ele>427.493876</ele>
        <time>2026-07-08T10:13:13.000Z</time>
      </trkpt>
      <trkpt lat="47.21308" lon="16.01761">
        <ele>427.651178</ele>
        <time>2026-07-08T10:13:14.000Z</time>
      </trkpt>
      <trkpt lat="47.21306" lon="16.01758">
        <ele>427.816293</ele>
        <time>2026-07-08T10:13:15.000Z</time>
      </trkpt>
      <trkpt lat="47.21305" lon="16.01756">
        <ele>427.972625</ele>
        <time>2026-07-08T10:13:16.000Z</time>
      </trkpt>
      <trkpt lat="47.21303" lon="16.01753">
        <ele>428.139815</ele>
        <time>2026-07-08T10:13:17.000Z</time>
      </trkpt>
      <trkpt lat="47.21301" lon="16.01751">
        <ele>428.305608</ele>
        <time>2026-07-08T10:13:18.000Z</time>
      </trkpt>
      <trkpt lat="47.21299" lon="16.01748">
        <ele>428.470724</ele>
        <time>2026-07-08T10:13:19.000Z</time>
      </trkpt>
      <trkpt lat="47.21297" lon="16.01746">
        <ele>428.628725</ele>
        <time>2026-07-08T10:13:20.000Z</time>
      </trkpt>
      <trkpt lat="47.21296" lon="16.01744">
        <ele>428.769635</ele>
        <time>2026-07-08T10:13:21.000Z</time>
      </trkpt>
      <trkpt lat="47.21295" lon="16.01742">
        <ele>428.872402</ele>
        <time>2026-07-08T10:13:22.000Z</time>
      </trkpt>
      <trkpt lat="47.21294" lon="16.01741">
        <ele>428.917293</ele>
        <time>2026-07-08T10:13:23.000Z</time>
      </trkpt>
      <trkpt lat="47.21291" lon="16.01745">
        <ele>429.156272</ele>
        <time>2026-07-08T10:15:35.000Z</time>
      </trkpt>
      <trkpt lat="47.21291" lon="16.01747">
        <ele>429.256921</ele>
        <time>2026-07-08T10:15:36.000Z</time>
      </trkpt>
      <trkpt lat="47.21291" lon="16.01749">
        <ele>429.369116</ele>
        <time>2026-07-08T10:15:37.000Z</time>
      </trkpt>
      <trkpt lat="47.2129" lon="16.01752">
        <ele>429.485667</ele>
        <time>2026-07-08T10:15:38.000Z</time>
      </trkpt>
      <trkpt lat="47.2129" lon="16.01755">
        <ele>429.617893</ele>
        <time>2026-07-08T10:15:39.000Z</time>
      </trkpt>
      <trkpt lat="47.21289" lon="16.01757">
        <ele>429.741493</ele>
        <time>2026-07-08T10:15:40.000Z</time>
      </trkpt>
      <trkpt lat="47.21288" lon="16.0176">
        <ele>429.860996</ele>
        <time>2026-07-08T10:15:41.000Z</time>
      </trkpt>
      <trkpt lat="47.21288" lon="16.01762">
        <ele>429.978174</ele>
        <time>2026-07-08T10:15:42.000Z</time>
      </trkpt>
      <trkpt lat="47.21287" lon="16.01765">
        <ele>430.089116</ele>
        <time>2026-07-08T10:15:43.000Z</time>
      </trkpt>
      <trkpt lat="47.21287" lon="16.01767">
        <ele>430.192495</ele>
        <time>2026-07-08T10:15:44.000Z</time>
      </trkpt>
      <trkpt lat="47.21286" lon="16.01769">
        <ele>430.30767</ele>
        <time>2026-07-08T10:15:45.000Z</time>
      </trkpt>
      <trkpt lat="47.21286" lon="16.01772">
        <ele>430.410194</ele>
        <time>2026-07-08T10:15:46.000Z</time>
      </trkpt>
      <trkpt lat="47.21285" lon="16.01774">
        <ele>430.513697</ele>
        <time>2026-07-08T10:15:47.000Z</time>
      </trkpt>
      <trkpt lat="47.21285" lon="16.01776">
        <ele>430.614346</ele>
        <time>2026-07-08T10:15:48.000Z</time>
      </trkpt>
      <trkpt lat="47.21284" lon="16.01778">
        <ele>430.710971</ele>
        <time>2026-07-08T10:15:49.000Z</time>
      </trkpt>
      <trkpt lat="47.21284" lon="16.0178">
        <ele>430.805155</ele>
        <time>2026-07-08T10:15:50.000Z</time>
      </trkpt>
      <trkpt lat="47.21283" lon="16.01782">
        <ele>430.904586</ele>
        <time>2026-07-08T10:15:51.000Z</time>
      </trkpt>
      <trkpt lat="47.21282" lon="16.01784">
        <ele>430.999649</ele>
        <time>2026-07-08T10:15:52.000Z</time>
      </trkpt>
      <trkpt lat="47.21281" lon="16.01786">
        <ele>431.094902</ele>
        <time>2026-07-08T10:15:53.000Z</time>
      </trkpt>
      <trkpt lat="47.21281" lon="16.01787">
        <ele>431.186299</ele>
        <time>2026-07-08T10:15:54.000Z</time>
      </trkpt>
      <trkpt lat="47.2128" lon="16.01789">
        <ele>431.281363</ele>
        <time>2026-07-08T10:15:55.000Z</time>
      </trkpt>
      <trkpt lat="47.21279" lon="16.01791">
        <ele>431.373026</ele>
        <time>2026-07-08T10:15:56.000Z</time>
      </trkpt>
      <trkpt lat="47.21278" lon="16.01793">
        <ele>431.483308</ele>
        <time>2026-07-08T10:15:57.000Z</time>
      </trkpt>
      <trkpt lat="47.21278" lon="16.01795">
        <ele>431.574971</ele>
        <time>2026-07-08T10:15:58.000Z</time>
      </trkpt>
      <trkpt lat="47.21277" lon="16.01797">
        <ele>431.673763</ele>
        <time>2026-07-08T10:15:59.000Z</time>
      </trkpt>
      <trkpt lat="47.21276" lon="16.01799">
        <ele>431.772539</ele>
        <time>2026-07-08T10:16:00.000Z</time>
      </trkpt>
      <trkpt lat="47.21275" lon="16.018">
        <ele>431.867602</ele>
        <time>2026-07-08T10:16:01.000Z</time>
      </trkpt>
      <trkpt lat="47.21274" lon="16.01802">
        <ele>431.973827</ele>
        <time>2026-07-08T10:16:02.000Z</time>
      </trkpt>
      <trkpt lat="47.21273" lon="16.01804">
        <ele>432.079161</ele>
        <time>2026-07-08T10:16:03.000Z</time>
      </trkpt>
      <trkpt lat="47.21272" lon="16.01806">
        <ele>432.188912</ele>
        <time>2026-07-08T10:16:04.000Z</time>
      </trkpt>
      <trkpt lat="47.21271" lon="16.01808">
        <ele>432.292672</ele>
        <time>2026-07-08T10:16:05.000Z</time>
      </trkpt>
      <trkpt lat="47.2127" lon="16.01809">
        <ele>432.401023</ele>
        <time>2026-07-08T10:16:06.000Z</time>
      </trkpt>
      <trkpt lat="47.21268" lon="16.01811">
        <ele>432.518999</ele>
        <time>2026-07-08T10:16:07.000Z</time>
      </trkpt>
      <trkpt lat="47.21267" lon="16.01812">
        <ele>432.624333</ele>
        <time>2026-07-08T10:16:08.000Z</time>
      </trkpt>
      <trkpt lat="47.21266" lon="16.01814">
        <ele>432.731795</ele>
        <time>2026-07-08T10:16:09.000Z</time>
      </trkpt>
      <trkpt lat="47.21264" lon="16.01815">
        <ele>432.847346</ele>
        <time>2026-07-08T10:16:10.000Z</time>
      </trkpt>
      <trkpt lat="47.21263" lon="16.01817">
        <ele>432.954807</ele>
        <time>2026-07-08T10:16:11.000Z</time>
      </trkpt>
      <trkpt lat="47.21261" lon="16.01818">
        <ele>433.062497</ele>
        <time>2026-07-08T10:16:12.000Z</time>
      </trkpt>
      <trkpt lat="47.2126" lon="16.01819">
        <ele>433.173567</ele>
        <time>2026-07-08T10:16:13.000Z</time>
      </trkpt>
      <trkpt lat="47.21259" lon="16.0182">
        <ele>433.271121</ele>
        <time>2026-07-08T10:16:14.000Z</time>
      </trkpt>
      <trkpt lat="47.21257" lon="16.01822">
        <ele>433.38219</ele>
        <time>2026-07-08T10:16:15.000Z</time>
      </trkpt>
      <trkpt lat="47.21256" lon="16.01823">
        <ele>433.489321</ele>
        <time>2026-07-08T10:16:16.000Z</time>
      </trkpt>
      <trkpt lat="47.21254" lon="16.01824">
        <ele>433.60039</ele>
        <time>2026-07-08T10:16:17.000Z</time>
      </trkpt>
      <trkpt lat="47.21253" lon="16.01825">
        <ele>433.697944</ele>
        <time>2026-07-08T10:16:18.000Z</time>
      </trkpt>
      <trkpt lat="47.21251" lon="16.01826">
        <ele>433.813495</ele>
        <time>2026-07-08T10:16:19.000Z</time>
      </trkpt>
      <trkpt lat="47.2125" lon="16.01828">
        <ele>433.926149</ele>
        <time>2026-07-08T10:16:20.000Z</time>
      </trkpt>
      <trkpt lat="47.21249" lon="16.01829">
        <ele>434.0237</ele>
        <time>2026-07-08T10:16:21.000Z</time>
      </trkpt>
      <trkpt lat="47.21247" lon="16.01831">
        <ele>434.131391</ele>
        <time>2026-07-08T10:16:22.000Z</time>
      </trkpt>
      <trkpt lat="47.21246" lon="16.01832">
        <ele>434.238852</ele>
        <time>2026-07-08T10:16:23.000Z</time>
      </trkpt>
      <trkpt lat="47.21245" lon="16.01834">
        <ele>434.356829</ele>
        <time>2026-07-08T10:16:24.000Z</time>
      </trkpt>
      <trkpt lat="47.21243" lon="16.01835">
        <ele>434.481463</ele>
        <time>2026-07-08T10:16:25.000Z</time>
      </trkpt>
      <trkpt lat="47.21241" lon="16.01836">
        <ele>434.602559</ele>
        <time>2026-07-08T10:16:26.000Z</time>
      </trkpt>
      <trkpt lat="47.2124" lon="16.01837">
        <ele>434.723374</ele>
        <time>2026-07-08T10:16:27.000Z</time>
      </trkpt>
      <trkpt lat="47.21238" lon="16.01839">
        <ele>434.834443</ele>
        <time>2026-07-08T10:16:28.000Z</time>
      </trkpt>
      <trkpt lat="47.21236" lon="16.0184">
        <ele>434.953548</ele>
        <time>2026-07-08T10:16:29.000Z</time>
      </trkpt>
      <trkpt lat="47.21235" lon="16.01841">
        <ele>435.066638</ele>
        <time>2026-07-08T10:16:30.000Z</time>
      </trkpt>
      <trkpt lat="47.21233" lon="16.01842">
        <ele>435.173769</ele>
        <time>2026-07-08T10:16:31.000Z</time>
      </trkpt>
      <trkpt lat="47.21232" lon="16.01843">
        <ele>435.284838</ele>
        <time>2026-07-08T10:16:32.000Z</time>
      </trkpt>
      <trkpt lat="47.2123" lon="16.01844">
        <ele>435.392528</ele>
        <time>2026-07-08T10:16:33.000Z</time>
      </trkpt>
      <trkpt lat="47.21229" lon="16.01845">
        <ele>435.492358</ele>
        <time>2026-07-08T10:16:34.000Z</time>
      </trkpt>
      <trkpt lat="47.21228" lon="16.01846">
        <ele>435.599489</ele>
        <time>2026-07-08T10:16:35.000Z</time>
      </trkpt>
      <trkpt lat="47.21226" lon="16.01847">
        <ele>435.715605</ele>
        <time>2026-07-08T10:16:36.000Z</time>
      </trkpt>
      <trkpt lat="47.21224" lon="16.01848">
        <ele>435.822736</ele>
        <time>2026-07-08T10:16:37.000Z</time>
      </trkpt>
      <trkpt lat="47.21223" lon="16.01849">
        <ele>435.935826</ele>
        <time>2026-07-08T10:16:38.000Z</time>
      </trkpt>
      <trkpt lat="47.21221" lon="16.0185">
        <ele>436.054931</ele>
        <time>2026-07-08T10:16:39.000Z</time>
      </trkpt>
      <trkpt lat="47.2122" lon="16.01851">
        <ele>436.154761</ele>
        <time>2026-07-08T10:16:40.000Z</time>
      </trkpt>
      <trkpt lat="47.21218" lon="16.01852">
        <ele>436.26379</ele>
        <time>2026-07-08T10:16:41.000Z</time>
      </trkpt>
      <trkpt lat="47.21217" lon="16.01854">
        <ele>436.373901</ele>
        <time>2026-07-08T10:16:42.000Z</time>
      </trkpt>
      <trkpt lat="47.21216" lon="16.01855">
        <ele>436.476148</ele>
        <time>2026-07-08T10:16:43.000Z</time>
      </trkpt>
      <trkpt lat="47.21214" lon="16.01856">
        <ele>436.589394</ele>
        <time>2026-07-08T10:16:44.000Z</time>
      </trkpt>
      <trkpt lat="47.21213" lon="16.01857">
        <ele>436.694779</ele>
        <time>2026-07-08T10:16:45.000Z</time>
      </trkpt>
      <trkpt lat="47.21211" lon="16.01858">
        <ele>436.813884</ele>
        <time>2026-07-08T10:16:46.000Z</time>
      </trkpt>
      <trkpt lat="47.21209" lon="16.01859">
        <ele>436.923821</ele>
        <time>2026-07-08T10:16:47.000Z</time>
      </trkpt>
      <trkpt lat="47.21208" lon="16.0186">
        <ele>437.042926</ele>
        <time>2026-07-08T10:16:48.000Z</time>
      </trkpt>
      <trkpt lat="47.21206" lon="16.01861">
        <ele>437.165586</ele>
        <time>2026-07-08T10:16:49.000Z</time>
      </trkpt>
      <trkpt lat="47.21204" lon="16.01862">
        <ele>437.292384</ele>
        <time>2026-07-08T10:16:50.000Z</time>
      </trkpt>
      <trkpt lat="47.21203" lon="16.01864">
        <ele>437.410361</ele>
        <time>2026-07-08T10:16:51.000Z</time>
      </trkpt>
      <trkpt lat="47.21201" lon="16.01865">
        <ele>437.537093</ele>
        <time>2026-07-08T10:16:52.000Z</time>
      </trkpt>
      <trkpt lat="47.21199" lon="16.01867">
        <ele>437.655992</ele>
        <time>2026-07-08T10:16:53.000Z</time>
      </trkpt>
      <trkpt lat="47.21197" lon="16.01868">
        <ele>437.790503</ele>
        <time>2026-07-08T10:16:54.000Z</time>
      </trkpt>
      <trkpt lat="47.21196" lon="16.01869">
        <ele>437.825082</ele>
        <time>2026-07-08T10:16:55.000Z</time>
      </trkpt>
      <trkpt lat="47.21194" lon="16.0187">
        <ele>437.859219</ele>
        <time>2026-07-08T10:16:56.000Z</time>
      </trkpt>
      <trkpt lat="47.21192" lon="16.01872">
        <ele>437.894845</ele>
        <time>2026-07-08T10:16:57.000Z</time>
      </trkpt>
      <trkpt lat="47.2119" lon="16.01873">
        <ele>437.929598</ele>
        <time>2026-07-08T10:16:58.000Z</time>
      </trkpt>
      <trkpt lat="47.21189" lon="16.01875">
        <ele>437.96227</ele>
        <time>2026-07-08T10:16:59.000Z</time>
      </trkpt>
      <trkpt lat="47.21187" lon="16.01876">
        <ele>437.998866</ele>
        <time>2026-07-08T10:17:00.000Z</time>
      </trkpt>
      <trkpt lat="47.21185" lon="16.01878">
        <ele>438.033399</ele>
        <time>2026-07-08T10:17:01.000Z</time>
      </trkpt>
      <trkpt lat="47.21183" lon="16.01879">
        <ele>438.067433</ele>
        <time>2026-07-08T10:17:02.000Z</time>
      </trkpt>
      <trkpt lat="47.21182" lon="16.0188">
        <ele>438.100428</ele>
        <time>2026-07-08T10:17:03.000Z</time>
      </trkpt>
      <trkpt lat="47.2118" lon="16.01881">
        <ele>438.134961</ele>
        <time>2026-07-08T10:17:04.000Z</time>
      </trkpt>
      <trkpt lat="47.21178" lon="16.01883">
        <ele>438.170572</ele>
        <time>2026-07-08T10:17:05.000Z</time>
      </trkpt>
      <trkpt lat="47.21176" lon="16.01884">
        <ele>438.207771</ele>
        <time>2026-07-08T10:17:06.000Z</time>
      </trkpt>
      <trkpt lat="47.21174" lon="16.01885">
        <ele>438.238186</ele>
        <time>2026-07-08T10:17:07.000Z</time>
      </trkpt>
      <trkpt lat="47.21172" lon="16.01886">
        <ele>438.27532</ele>
        <time>2026-07-08T10:17:08.000Z</time>
      </trkpt>
      <trkpt lat="47.2117" lon="16.01888">
        <ele>438.313464</ele>
        <time>2026-07-08T10:17:09.000Z</time>
      </trkpt>
      <trkpt lat="47.21168" lon="16.01889">
        <ele>438.351121</ele>
        <time>2026-07-08T10:17:11.000Z</time>
      </trkpt>
      <trkpt lat="47.21167" lon="16.01891">
        <ele>438.386746</ele>
        <time>2026-07-08T10:17:12.000Z</time>
      </trkpt>
      <trkpt lat="47.21165" lon="16.01892">
        <ele>438.425407</ele>
        <time>2026-07-08T10:17:13.000Z</time>
      </trkpt>
      <trkpt lat="47.21163" lon="16.01894">
        <ele>438.461033</ele>
        <time>2026-07-08T10:17:14.000Z</time>
      </trkpt>
      <trkpt lat="47.21161" lon="16.01895">
        <ele>438.499329</ele>
        <time>2026-07-08T10:17:15.000Z</time>
      </trkpt>
      <trkpt lat="47.21159" lon="16.01897">
        <ele>438.535545</ele>
        <time>2026-07-08T10:17:16.000Z</time>
      </trkpt>
      <trkpt lat="47.21157" lon="16.01899">
        <ele>438.573694</ele>
        <time>2026-07-08T10:17:17.000Z</time>
      </trkpt>
      <trkpt lat="47.21155" lon="16.01901">
        <ele>438.612611</ele>
        <time>2026-07-08T10:17:18.000Z</time>
      </trkpt>
      <trkpt lat="47.21153" lon="16.01902">
        <ele>438.652389</ele>
        <time>2026-07-08T10:17:19.000Z</time>
      </trkpt>
      <trkpt lat="47.21151" lon="16.01904">
        <ele>438.692764</ele>
        <time>2026-07-08T10:17:20.000Z</time>
      </trkpt>
      <trkpt lat="47.21149" lon="16.01906">
        <ele>438.73314</ele>
        <time>2026-07-08T10:17:21.000Z</time>
      </trkpt>
      <trkpt lat="47.21148" lon="16.01908">
        <ele>438.771289</ele>
        <time>2026-07-08T10:17:22.000Z</time>
      </trkpt>
      <trkpt lat="47.21145" lon="16.0191">
        <ele>438.815825</ele>
        <time>2026-07-08T10:17:23.000Z</time>
      </trkpt>
      <trkpt lat="47.21144" lon="16.01912">
        <ele>438.855383</ele>
        <time>2026-07-08T10:17:24.000Z</time>
      </trkpt>
      <trkpt lat="47.21142" lon="16.01914">
        <ele>438.895952</ele>
        <time>2026-07-08T10:17:25.000Z</time>
      </trkpt>
      <trkpt lat="47.2114" lon="16.01917">
        <ele>438.938576</ele>
        <time>2026-07-08T10:17:26.000Z</time>
      </trkpt>
      <trkpt lat="47.21138" lon="16.01919">
        <ele>438.978344</ele>
        <time>2026-07-08T10:17:27.000Z</time>
      </trkpt>
      <trkpt lat="47.21136" lon="16.01921">
        <ele>439.022057</ele>
        <time>2026-07-08T10:17:28.000Z</time>
      </trkpt>
      <trkpt lat="47.21134" lon="16.01924">
        <ele>439.0665</ele>
        <time>2026-07-08T10:17:29.000Z</time>
      </trkpt>
      <trkpt lat="47.21132" lon="16.01926">
        <ele>439.111691</ele>
        <time>2026-07-08T10:17:30.000Z</time>
      </trkpt>
      <trkpt lat="47.21131" lon="16.01929">
        <ele>439.155126</ele>
        <time>2026-07-08T10:17:31.000Z</time>
      </trkpt>
      <trkpt lat="47.21129" lon="16.01931">
        <ele>439.197749</ele>
        <time>2026-07-08T10:17:32.000Z</time>
      </trkpt>
      <trkpt lat="47.21127" lon="16.01934">
        <ele>439.244489</ele>
        <time>2026-07-08T10:17:33.000Z</time>
      </trkpt>
      <trkpt lat="47.21125" lon="16.01937">
        <ele>439.292027</ele>
        <time>2026-07-08T10:17:34.000Z</time>
      </trkpt>
      <trkpt lat="47.21123" lon="16.0194">
        <ele>439.341208</ele>
        <time>2026-07-08T10:17:35.000Z</time>
      </trkpt>
      <trkpt lat="47.21121" lon="16.01943">
        <ele>439.390388</ele>
        <time>2026-07-08T10:17:36.000Z</time>
      </trkpt>
      <trkpt lat="47.21118" lon="16.01946">
        <ele>439.44616</ele>
        <time>2026-07-08T10:17:37.000Z</time>
      </trkpt>
      <trkpt lat="47.21116" lon="16.01949">
        <ele>439.499067</ele>
        <time>2026-07-08T10:17:38.000Z</time>
      </trkpt>
      <trkpt lat="47.21114" lon="16.01953">
        <ele>439.554006</ele>
        <time>2026-07-08T10:17:39.000Z</time>
      </trkpt>
      <trkpt lat="47.21112" lon="16.01956">
        <ele>439.609324</ele>
        <time>2026-07-08T10:17:40.000Z</time>
      </trkpt>
      <trkpt lat="47.21109" lon="16.0196">
        <ele>439.667511</ele>
        <time>2026-07-08T10:17:41.000Z</time>
      </trkpt>
      <trkpt lat="47.21107" lon="16.01963">
        <ele>439.724488</ele>
        <time>2026-07-08T10:17:42.000Z</time>
      </trkpt>
      <trkpt lat="47.21105" lon="16.01967">
        <ele>439.785547</ele>
        <time>2026-07-08T10:17:43.000Z</time>
      </trkpt>
      <trkpt lat="47.21102" lon="16.0197">
        <ele>439.84337</ele>
        <time>2026-07-08T10:17:44.000Z</time>
      </trkpt>
      <trkpt lat="47.211" lon="16.01974">
        <ele>439.902793</ele>
        <time>2026-07-08T10:17:45.000Z</time>
      </trkpt>
      <trkpt lat="47.21097" lon="16.01978">
        <ele>439.965533</ele>
        <time>2026-07-08T10:17:46.000Z</time>
      </trkpt>
      <trkpt lat="47.21095" lon="16.01982">
        <ele>440.027976</ele>
        <time>2026-07-08T10:17:47.000Z</time>
      </trkpt>
      <trkpt lat="47.21092" lon="16.01986">
        <ele>440.092751</ele>
        <time>2026-07-08T10:17:48.000Z</time>
      </trkpt>
      <trkpt lat="47.2109" lon="16.0199">
        <ele>440.157213</ele>
        <time>2026-07-08T10:17:49.000Z</time>
      </trkpt>
      <trkpt lat="47.21087" lon="16.01994">
        <ele>440.226588</ele>
        <time>2026-07-08T10:17:50.000Z</time>
      </trkpt>
      <trkpt lat="47.21084" lon="16.01999">
        <ele>440.296837</ele>
        <time>2026-07-08T10:17:51.000Z</time>
      </trkpt>
      <trkpt lat="47.21082" lon="16.02003">
        <ele>440.365763</ele>
        <time>2026-07-08T10:17:52.000Z</time>
      </trkpt>
      <trkpt lat="47.21079" lon="16.02008">
        <ele>440.440681</ele>
        <time>2026-07-08T10:17:53.000Z</time>
      </trkpt>
      <trkpt lat="47.21076" lon="16.02013">
        <ele>440.516498</ele>
        <time>2026-07-08T10:17:54.000Z</time>
      </trkpt>
      <trkpt lat="47.21073" lon="16.02018">
        <ele>440.593422</ele>
        <time>2026-07-08T10:17:55.000Z</time>
      </trkpt>
      <trkpt lat="47.2107" lon="16.02023">
        <ele>440.672627</ele>
        <time>2026-07-08T10:17:56.000Z</time>
      </trkpt>
      <trkpt lat="47.21067" lon="16.02028">
        <ele>440.751561</ele>
        <time>2026-07-08T10:17:57.000Z</time>
      </trkpt>
      <trkpt lat="47.21064" lon="16.02034">
        <ele>440.833182</ele>
        <time>2026-07-08T10:17:58.000Z</time>
      </trkpt>
      <trkpt lat="47.21061" lon="16.02039">
        <ele>440.887944</ele>
        <time>2026-07-08T10:17:59.000Z</time>
      </trkpt>
      <trkpt lat="47.21058" lon="16.02045">
        <ele>440.87897</ele>
        <time>2026-07-08T10:18:00.000Z</time>
      </trkpt>
      <trkpt lat="47.21055" lon="16.0205">
        <ele>440.869689</ele>
        <time>2026-07-08T10:18:01.000Z</time>
      </trkpt>
      <trkpt lat="47.21052" lon="16.02056">
        <ele>440.860621</ele>
        <time>2026-07-08T10:18:02.000Z</time>
      </trkpt>
      <trkpt lat="47.21048" lon="16.02062">
        <ele>440.851099</ele>
        <time>2026-07-08T10:18:03.000Z</time>
      </trkpt>
      <trkpt lat="47.21045" lon="16.02067">
        <ele>440.84194</ele>
        <time>2026-07-08T10:18:04.000Z</time>
      </trkpt>
      <trkpt lat="47.21041" lon="16.02072">
        <ele>440.832218</ele>
        <time>2026-07-08T10:18:05.000Z</time>
      </trkpt>
      <trkpt lat="47.21037" lon="16.02077">
        <ele>440.823056</ele>
        <time>2026-07-08T10:18:06.000Z</time>
      </trkpt>
      <trkpt lat="47.21033" lon="16.02083">
        <ele>440.813591</ele>
        <time>2026-07-08T10:18:07.000Z</time>
      </trkpt>
      <trkpt lat="47.21029" lon="16.02087">
        <ele>440.804255</ele>
        <time>2026-07-08T10:18:08.000Z</time>
      </trkpt>
      <trkpt lat="47.21025" lon="16.02092">
        <ele>440.79484</ele>
        <time>2026-07-08T10:18:09.000Z</time>
      </trkpt>
      <trkpt lat="47.21021" lon="16.02097">
        <ele>440.785657</ele>
        <time>2026-07-08T10:18:10.000Z</time>
      </trkpt>
      <trkpt lat="47.21017" lon="16.02101">
        <ele>440.776242</ele>
        <time>2026-07-08T10:18:11.000Z</time>
      </trkpt>
      <trkpt lat="47.21013" lon="16.02106">
        <ele>440.766889</ele>
        <time>2026-07-08T10:18:12.000Z</time>
      </trkpt>
      <trkpt lat="47.2101" lon="16.02111">
        <ele>440.757508</ele>
        <time>2026-07-08T10:18:13.000Z</time>
      </trkpt>
      <trkpt lat="47.21006" lon="16.02117">
        <ele>440.747773</ele>
        <time>2026-07-08T10:18:14.000Z</time>
      </trkpt>
      <trkpt lat="47.21002" lon="16.02122">
        <ele>440.738475</ele>
        <time>2026-07-08T10:18:15.000Z</time>
      </trkpt>
      <trkpt lat="47.20998" lon="16.02126">
        <ele>440.729202</ele>
        <time>2026-07-08T10:18:16.000Z</time>
      </trkpt>
      <trkpt lat="47.20994" lon="16.02131">
        <ele>440.719629</ele>
        <time>2026-07-08T10:18:17.000Z</time>
      </trkpt>
      <trkpt lat="47.2099" lon="16.02136">
        <ele>440.710056</ele>
        <time>2026-07-08T10:18:18.000Z</time>
      </trkpt>
      <trkpt lat="47.20986" lon="16.02141">
        <ele>440.700759</ele>
        <time>2026-07-08T10:18:19.000Z</time>
      </trkpt>
      <trkpt lat="47.20982" lon="16.02147">
        <ele>440.691024</ele>
        <time>2026-07-08T10:18:20.000Z</time>
      </trkpt>
      <trkpt lat="47.20978" lon="16.02152">
        <ele>440.681206</ele>
        <time>2026-07-08T10:18:21.000Z</time>
      </trkpt>
      <trkpt lat="47.20974" lon="16.02157">
        <ele>440.671571</ele>
        <time>2026-07-08T10:18:22.000Z</time>
      </trkpt>
      <trkpt lat="47.2097" lon="16.02162">
        <ele>440.662137</ele>
        <time>2026-07-08T10:18:23.000Z</time>
      </trkpt>
      <trkpt lat="47.20966" lon="16.02167">
        <ele>440.652564</ele>
        <time>2026-07-08T10:18:24.000Z</time>
      </trkpt>
      <trkpt lat="47.20962" lon="16.02172">
        <ele>440.642867</ele>
        <time>2026-07-08T10:18:25.000Z</time>
      </trkpt>
      <trkpt lat="47.20958" lon="16.02177">
        <ele>440.633374</ele>
        <time>2026-07-08T10:18:26.000Z</time>
      </trkpt>
      <trkpt lat="47.20954" lon="16.02181">
        <ele>440.624114</ele>
        <time>2026-07-08T10:18:27.000Z</time>
      </trkpt>
      <trkpt lat="47.2095" lon="16.02186">
        <ele>440.614621</ele>
        <time>2026-07-08T10:18:28.000Z</time>
      </trkpt>
      <trkpt lat="47.20946" lon="16.02191">
        <ele>440.604834</ele>
        <time>2026-07-08T10:18:29.000Z</time>
      </trkpt>
      <trkpt lat="47.20941" lon="16.02195">
        <ele>440.595358</ele>
        <time>2026-07-08T10:18:30.000Z</time>
      </trkpt>
      <trkpt lat="47.20937" lon="16.022">
        <ele>440.585878</ele>
        <time>2026-07-08T10:18:31.000Z</time>
      </trkpt>
      <trkpt lat="47.20933" lon="16.02204">
        <ele>440.576619</ele>
        <time>2026-07-08T10:18:32.000Z</time>
      </trkpt>
      <trkpt lat="47.20929" lon="16.02209">
        <ele>440.566994</ele>
        <time>2026-07-08T10:18:33.000Z</time>
      </trkpt>
      <trkpt lat="47.20925" lon="16.02214">
        <ele>440.635629</ele>
        <time>2026-07-08T10:18:34.000Z</time>
      </trkpt>
      <trkpt lat="47.20921" lon="16.02219">
        <ele>440.786959</ele>
        <time>2026-07-08T10:18:35.000Z</time>
      </trkpt>
      <trkpt lat="47.20918" lon="16.02223">
        <ele>440.933388</ele>
        <time>2026-07-08T10:18:36.000Z</time>
      </trkpt>
      <trkpt lat="47.20914" lon="16.02227">
        <ele>441.077294</ele>
        <time>2026-07-08T10:18:37.000Z</time>
      </trkpt>
      <trkpt lat="47.2091" lon="16.02232">
        <ele>441.215486</ele>
        <time>2026-07-08T10:18:38.000Z</time>
      </trkpt>
      <trkpt lat="47.20907" lon="16.02236">
        <ele>441.35501</ele>
        <time>2026-07-08T10:18:39.000Z</time>
      </trkpt>
      <trkpt lat="47.20903" lon="16.02241">
        <ele>441.493659</ele>
        <time>2026-07-08T10:18:40.000Z</time>
      </trkpt>
      <trkpt lat="47.209" lon="16.02245">
        <ele>441.627341</ele>
        <time>2026-07-08T10:18:41.000Z</time>
      </trkpt>
      <trkpt lat="47.20897" lon="16.0225">
        <ele>441.760214</ele>
        <time>2026-07-08T10:18:42.000Z</time>
      </trkpt>
      <trkpt lat="47.20894" lon="16.02254">
        <ele>441.890932</ele>
        <time>2026-07-08T10:18:43.000Z</time>
      </trkpt>
      <trkpt lat="47.20891" lon="16.02259">
        <ele>442.016651</ele>
        <time>2026-07-08T10:18:44.000Z</time>
      </trkpt>
      <trkpt lat="47.20888" lon="16.02263">
        <ele>442.14674</ele>
        <time>2026-07-08T10:18:45.000Z</time>
      </trkpt>
      <trkpt lat="47.20885" lon="16.02267">
        <ele>442.269709</ele>
        <time>2026-07-08T10:18:46.000Z</time>
      </trkpt>
      <trkpt lat="47.20882" lon="16.02271">
        <ele>442.390434</ele>
        <time>2026-07-08T10:18:47.000Z</time>
      </trkpt>
      <trkpt lat="47.20879" lon="16.02275">
        <ele>442.511963</ele>
        <time>2026-07-08T10:18:48.000Z</time>
      </trkpt>
      <trkpt lat="47.20876" lon="16.02279">
        <ele>442.633492</ele>
        <time>2026-07-08T10:18:49.000Z</time>
      </trkpt>
      <trkpt lat="47.20873" lon="16.02283">
        <ele>442.757263</ele>
        <time>2026-07-08T10:18:50.000Z</time>
      </trkpt>
      <trkpt lat="47.2087" lon="16.02287">
        <ele>442.870838</ele>
        <time>2026-07-08T10:18:51.000Z</time>
      </trkpt>
      <trkpt lat="47.20868" lon="16.02291">
        <ele>442.975841</ele>
        <time>2026-07-08T10:18:52.000Z</time>
      </trkpt>
      <trkpt lat="47.20865" lon="16.02295">
        <ele>443.086703</ele>
        <time>2026-07-08T10:18:53.000Z</time>
      </trkpt>
      <trkpt lat="47.20862" lon="16.02299">
        <ele>443.201716</ele>
        <time>2026-07-08T10:18:54.000Z</time>
      </trkpt>
      <trkpt lat="47.20859" lon="16.02303">
        <ele>443.323246</ele>
        <time>2026-07-08T10:18:55.000Z</time>
      </trkpt>
      <trkpt lat="47.20857" lon="16.02307">
        <ele>443.443271</ele>
        <time>2026-07-08T10:18:56.000Z</time>
      </trkpt>
      <trkpt lat="47.20854" lon="16.02311">
        <ele>443.55871</ele>
        <time>2026-07-08T10:18:57.000Z</time>
      </trkpt>
      <trkpt lat="47.20851" lon="16.02316">
        <ele>443.679647</ele>
        <time>2026-07-08T10:18:58.000Z</time>
      </trkpt>
      <trkpt lat="47.20849" lon="16.0232">
        <ele>443.792564</ele>
        <time>2026-07-08T10:18:59.000Z</time>
      </trkpt>
      <trkpt lat="47.20846" lon="16.02324">
        <ele>443.903426</ele>
        <time>2026-07-08T10:19:00.000Z</time>
      </trkpt>
      <trkpt lat="47.20844" lon="16.02328">
        <ele>444.011321</ele>
        <time>2026-07-08T10:19:01.000Z</time>
      </trkpt>
      <trkpt lat="47.20841" lon="16.02331">
        <ele>444.123477</ele>
        <time>2026-07-08T10:19:02.000Z</time>
      </trkpt>
      <trkpt lat="47.20839" lon="16.02335">
        <ele>444.232847</ele>
        <time>2026-07-08T10:19:03.000Z</time>
      </trkpt>
      <trkpt lat="47.20836" lon="16.02339">
        <ele>444.347192</ele>
        <time>2026-07-08T10:19:04.000Z</time>
      </trkpt>
      <trkpt lat="47.20833" lon="16.02343">
        <ele>444.462205</ele>
        <time>2026-07-08T10:19:05.000Z</time>
      </trkpt>
      <trkpt lat="47.20831" lon="16.02347">
        <ele>444.573834</ele>
        <time>2026-07-08T10:19:06.000Z</time>
      </trkpt>
      <trkpt lat="47.20828" lon="16.02351">
        <ele>444.682686</ele>
        <time>2026-07-08T10:19:07.000Z</time>
      </trkpt>
      <trkpt lat="47.20826" lon="16.02355">
        <ele>444.793549</ele>
        <time>2026-07-08T10:19:08.000Z</time>
      </trkpt>
      <trkpt lat="47.20823" lon="16.02359">
        <ele>444.902919</ele>
        <time>2026-07-08T10:19:09.000Z</time>
      </trkpt>
      <trkpt lat="47.20821" lon="16.02363">
        <ele>445.011372</ele>
        <time>2026-07-08T10:19:10.000Z</time>
      </trkpt>
      <trkpt lat="47.20819" lon="16.02367">
        <ele>445.116711</ele>
        <time>2026-07-08T10:19:11.000Z</time>
      </trkpt>
      <trkpt lat="47.20817" lon="16.02371">
        <ele>445.218547</ele>
        <time>2026-07-08T10:19:12.000Z</time>
      </trkpt>
      <trkpt lat="47.20814" lon="16.02375">
        <ele>445.318838</ele>
        <time>2026-07-08T10:19:13.000Z</time>
      </trkpt>
      <trkpt lat="47.20812" lon="16.02378">
        <ele>445.422426</ele>
        <time>2026-07-08T10:19:14.000Z</time>
      </trkpt>
      <trkpt lat="47.2081" lon="16.02382">
        <ele>445.52234</ele>
        <time>2026-07-08T10:19:15.000Z</time>
      </trkpt>
      <trkpt lat="47.20807" lon="16.02386">
        <ele>445.62817</ele>
        <time>2026-07-08T10:19:16.000Z</time>
      </trkpt>
      <trkpt lat="47.20805" lon="16.0239">
        <ele>445.730464</ele>
        <time>2026-07-08T10:19:17.000Z</time>
      </trkpt>
      <trkpt lat="47.20803" lon="16.02393">
        <ele>445.830756</ele>
        <time>2026-07-08T10:19:18.000Z</time>
      </trkpt>
      <trkpt lat="47.208" lon="16.02397">
        <ele>445.934344</ele>
        <time>2026-07-08T10:19:19.000Z</time>
      </trkpt>
      <trkpt lat="47.20798" lon="16.024">
        <ele>446.043391</ele>
        <time>2026-07-08T10:19:20.000Z</time>
      </trkpt>
      <trkpt lat="47.20796" lon="16.02404">
        <ele>446.152391</ele>
        <time>2026-07-08T10:19:21.000Z</time>
      </trkpt>
      <trkpt lat="47.20793" lon="16.02407">
        <ele>446.266973</ele>
        <time>2026-07-08T10:19:22.000Z</time>
      </trkpt>
      <trkpt lat="47.20791" lon="16.02411">
        <ele>446.380023</ele>
        <time>2026-07-08T10:19:23.000Z</time>
      </trkpt>
      <trkpt lat="47.20789" lon="16.02415">
        <ele>446.485057</ele>
        <time>2026-07-08T10:19:24.000Z</time>
      </trkpt>
      <trkpt lat="47.20787" lon="16.02418">
        <ele>446.588481</ele>
        <time>2026-07-08T10:19:25.000Z</time>
      </trkpt>
      <trkpt lat="47.20785" lon="16.02421">
        <ele>446.694561</ele>
        <time>2026-07-08T10:19:26.000Z</time>
      </trkpt>
      <trkpt lat="47.20782" lon="16.02425">
        <ele>446.804382</ele>
        <time>2026-07-08T10:19:27.000Z</time>
      </trkpt>
      <trkpt lat="47.20781" lon="16.02428">
        <ele>446.891026</ele>
        <time>2026-07-08T10:19:28.000Z</time>
      </trkpt>
      <trkpt lat="47.20779" lon="16.02431">
        <ele>446.991309</ele>
        <time>2026-07-08T10:19:29.000Z</time>
      </trkpt>
      <trkpt lat="47.20776" lon="16.02434">
        <ele>447.098711</ele>
        <time>2026-07-08T10:19:30.000Z</time>
      </trkpt>
      <trkpt lat="47.20774" lon="16.02437">
        <ele>447.202135</ele>
        <time>2026-07-08T10:19:31.000Z</time>
      </trkpt>
      <trkpt lat="47.20772" lon="16.0244">
        <ele>447.296514</ele>
        <time>2026-07-08T10:19:32.000Z</time>
      </trkpt>
      <trkpt lat="47.2077" lon="16.02444">
        <ele>447.396977</ele>
        <time>2026-07-08T10:19:33.000Z</time>
      </trkpt>
      <trkpt lat="47.20768" lon="16.02447">
        <ele>447.506798</ele>
        <time>2026-07-08T10:19:34.000Z</time>
      </trkpt>
      <trkpt lat="47.20766" lon="16.0245">
        <ele>447.608067</ele>
        <time>2026-07-08T10:19:35.000Z</time>
      </trkpt>
      <trkpt lat="47.20763" lon="16.02452">
        <ele>447.714731</ele>
        <time>2026-07-08T10:19:36.000Z</time>
      </trkpt>
      <trkpt lat="47.20761" lon="16.02455">
        <ele>447.80649</ele>
        <time>2026-07-08T10:19:37.000Z</time>
      </trkpt>
      <trkpt lat="47.20759" lon="16.02458">
        <ele>447.900368</ele>
        <time>2026-07-08T10:19:38.000Z</time>
      </trkpt>
      <trkpt lat="47.20757" lon="16.0246">
        <ele>447.994711</ele>
        <time>2026-07-08T10:19:39.000Z</time>
      </trkpt>
      <trkpt lat="47.20755" lon="16.02463">
        <ele>448.085458</ele>
        <time>2026-07-08T10:19:40.000Z</time>
      </trkpt>
      <trkpt lat="47.20753" lon="16.02466">
        <ele>448.177755</ele>
        <time>2026-07-08T10:19:41.000Z</time>
      </trkpt>
      <trkpt lat="47.2075" lon="16.02469">
        <ele>448.273537</ele>
        <time>2026-07-08T10:19:42.000Z</time>
      </trkpt>
      <trkpt lat="47.20748" lon="16.02471">
        <ele>448.361066</ele>
        <time>2026-07-08T10:19:43.000Z</time>
      </trkpt>
      <trkpt lat="47.20746" lon="16.02474">
        <ele>448.461349</ele>
        <time>2026-07-08T10:19:44.000Z</time>
      </trkpt>
      <trkpt lat="47.20744" lon="16.02477">
        <ele>448.560102</ele>
        <time>2026-07-08T10:19:45.000Z</time>
      </trkpt>
      <trkpt lat="47.20742" lon="16.02479">
        <ele>448.651862</ele>
        <time>2026-07-08T10:19:46.000Z</time>
      </trkpt>
      <trkpt lat="47.2074" lon="16.02482">
        <ele>448.747644</ele>
        <time>2026-07-08T10:19:47.000Z</time>
      </trkpt>
      <trkpt lat="47.20738" lon="16.02485">
        <ele>448.838391</ele>
        <time>2026-07-08T10:19:48.000Z</time>
      </trkpt>
      <trkpt lat="47.20735" lon="16.02488">
        <ele>448.938197</ele>
        <time>2026-07-08T10:19:49.000Z</time>
      </trkpt>
      <trkpt lat="47.20733" lon="16.02491">
        <ele>449.03848</ele>
        <time>2026-07-08T10:19:50.000Z</time>
      </trkpt>
      <trkpt lat="47.20731" lon="16.02494">
        <ele>449.138764</ele>
        <time>2026-07-08T10:19:51.000Z</time>
      </trkpt>
      <trkpt lat="47.20729" lon="16.02497">
        <ele>449.23662</ele>
        <time>2026-07-08T10:19:52.000Z</time>
      </trkpt>
      <trkpt lat="47.20726" lon="16.025">
        <ele>449.341908</ele>
        <time>2026-07-08T10:19:53.000Z</time>
      </trkpt>
      <trkpt lat="47.20724" lon="16.02503">
        <ele>449.442981</ele>
        <time>2026-07-08T10:19:54.000Z</time>
      </trkpt>
      <trkpt lat="47.20722" lon="16.02506">
        <ele>449.543264</ele>
        <time>2026-07-08T10:19:55.000Z</time>
      </trkpt>
      <trkpt lat="47.2072" lon="16.02509">
        <ele>449.643548</ele>
        <time>2026-07-08T10:19:56.000Z</time>
      </trkpt>
      <trkpt lat="47.20718" lon="16.02512">
        <ele>449.740668</ele>
        <time>2026-07-08T10:19:57.000Z</time>
      </trkpt>
      <trkpt lat="47.20716" lon="16.02515">
        <ele>449.846497</ele>
        <time>2026-07-08T10:19:58.000Z</time>
      </trkpt>
      <trkpt lat="47.20713" lon="16.02518">
        <ele>449.946303</ele>
        <time>2026-07-08T10:19:59.000Z</time>
      </trkpt>
      <trkpt lat="47.20711" lon="16.02521">
        <ele>450.050135</ele>
        <time>2026-07-08T10:20:00.000Z</time>
      </trkpt>
      <trkpt lat="47.20709" lon="16.02524">
        <ele>450.150598</ele>
        <time>2026-07-08T10:20:01.000Z</time>
      </trkpt>
      <trkpt lat="47.20707" lon="16.02527">
        <ele>450.251672</ele>
        <time>2026-07-08T10:20:02.000Z</time>
      </trkpt>
      <trkpt lat="47.20705" lon="16.0253">
        <ele>450.353513</ele>
        <time>2026-07-08T10:20:03.000Z</time>
      </trkpt>
      <trkpt lat="47.20702" lon="16.02534">
        <ele>450.46018</ele>
        <time>2026-07-08T10:20:04.000Z</time>
      </trkpt>
      <trkpt lat="47.207" lon="16.02537">
        <ele>450.564462</ele>
        <time>2026-07-08T10:20:05.000Z</time>
      </trkpt>
      <trkpt lat="47.20698" lon="16.0254">
        <ele>450.66836</ele>
        <time>2026-07-08T10:20:06.000Z</time>
      </trkpt>
      <trkpt lat="47.20696" lon="16.02544">
        <ele>450.771743</ele>
        <time>2026-07-08T10:20:07.000Z</time>
      </trkpt>
      <trkpt lat="47.20694" lon="16.02548">
        <ele>450.885164</ele>
        <time>2026-07-08T10:20:08.000Z</time>
      </trkpt>
      <trkpt lat="47.20692" lon="16.02552">
        <ele>450.99617</ele>
        <time>2026-07-08T10:20:09.000Z</time>
      </trkpt>
      <trkpt lat="47.2069" lon="16.02556">
        <ele>451.105371</ele>
        <time>2026-07-08T10:20:10.000Z</time>
      </trkpt>
      <trkpt lat="47.20688" lon="16.02559">
        <ele>451.218792</ele>
        <time>2026-07-08T10:20:11.000Z</time>
      </trkpt>
      <trkpt lat="47.20686" lon="16.02563">
        <ele>451.327788</ele>
        <time>2026-07-08T10:20:12.000Z</time>
      </trkpt>
      <trkpt lat="47.20684" lon="16.02568">
        <ele>451.4406</ele>
        <time>2026-07-08T10:20:13.000Z</time>
      </trkpt>
      <trkpt lat="47.20682" lon="16.02572">
        <ele>451.560963</ele>
        <time>2026-07-08T10:20:14.000Z</time>
      </trkpt>
      <trkpt lat="47.2068" lon="16.02577">
        <ele>451.683125</ele>
        <time>2026-07-08T10:20:15.000Z</time>
      </trkpt>
      <trkpt lat="47.20679" lon="16.02582">
        <ele>451.811674</ele>
        <time>2026-07-08T10:20:16.000Z</time>
      </trkpt>
      <trkpt lat="47.20677" lon="16.02587">
        <ele>451.950362</ele>
        <time>2026-07-08T10:20:17.000Z</time>
      </trkpt>
      <trkpt lat="47.20675" lon="16.02593">
        <ele>451.918284</ele>
        <time>2026-07-08T10:20:18.000Z</time>
      </trkpt>
      <trkpt lat="47.20673" lon="16.02599">
        <ele>451.838502</ele>
        <time>2026-07-08T10:20:19.000Z</time>
      </trkpt>
      <trkpt lat="47.20672" lon="16.02605">
        <ele>451.760195</ele>
        <time>2026-07-08T10:20:20.000Z</time>
      </trkpt>
      <trkpt lat="47.2067" lon="16.02612">
        <ele>451.675216</ele>
        <time>2026-07-08T10:20:21.000Z</time>
      </trkpt>
      <trkpt lat="47.20669" lon="16.02619">
        <ele>451.589118</ele>
        <time>2026-07-08T10:20:22.000Z</time>
      </trkpt>
      <trkpt lat="47.20667" lon="16.02627">
        <ele>451.49741</ele>
        <time>2026-07-08T10:20:23.000Z</time>
      </trkpt>
      <trkpt lat="47.20666" lon="16.02635">
        <ele>451.39893</ele>
        <time>2026-07-08T10:20:24.000Z</time>
      </trkpt>
      <trkpt lat="47.20665" lon="16.02643">
        <ele>451.297432</ele>
        <time>2026-07-08T10:20:25.000Z</time>
      </trkpt>
      <trkpt lat="47.20663" lon="16.02652">
        <ele>451.192146</ele>
        <time>2026-07-08T10:20:26.000Z</time>
      </trkpt>
      <trkpt lat="47.20662" lon="16.02661">
        <ele>451.086129</ele>
        <time>2026-07-08T10:20:27.000Z</time>
      </trkpt>
      <trkpt lat="47.2066" lon="16.0267">
        <ele>450.975615</ele>
        <time>2026-07-08T10:20:28.000Z</time>
      </trkpt>
      <trkpt lat="47.20658" lon="16.02679">
        <ele>450.865065</ele>
        <time>2026-07-08T10:20:29.000Z</time>
      </trkpt>
      <trkpt lat="47.20656" lon="16.02688">
        <ele>450.753441</ele>
        <time>2026-07-08T10:20:30.000Z</time>
      </trkpt>
      <trkpt lat="47.20653" lon="16.02697">
        <ele>450.64221</ele>
        <time>2026-07-08T10:20:31.000Z</time>
      </trkpt>
      <trkpt lat="47.2065" lon="16.02705">
        <ele>450.527765</ele>
        <time>2026-07-08T10:20:32.000Z</time>
      </trkpt>
      <trkpt lat="47.20647" lon="16.02714">
        <ele>450.413175</ele>
        <time>2026-07-08T10:20:33.000Z</time>
      </trkpt>
      <trkpt lat="47.20643" lon="16.02722">
        <ele>450.300615</ele>
        <time>2026-07-08T10:20:34.000Z</time>
      </trkpt>
      <trkpt lat="47.20639" lon="16.02729">
        <ele>450.187954</ele>
        <time>2026-07-08T10:20:35.000Z</time>
      </trkpt>
      <trkpt lat="47.20635" lon="16.02737">
        <ele>450.076107</ele>
        <time>2026-07-08T10:20:36.000Z</time>
      </trkpt>
      <trkpt lat="47.20631" lon="16.02744">
        <ele>449.967912</ele>
        <time>2026-07-08T10:20:37.000Z</time>
      </trkpt>
      <trkpt lat="47.20627" lon="16.02751">
        <ele>449.861512</ele>
        <time>2026-07-08T10:20:38.000Z</time>
      </trkpt>
      <trkpt lat="47.20623" lon="16.02757">
        <ele>449.758636</ele>
        <time>2026-07-08T10:20:39.000Z</time>
      </trkpt>
      <trkpt lat="47.2062" lon="16.02764">
        <ele>449.659813</ele>
        <time>2026-07-08T10:20:40.000Z</time>
      </trkpt>
      <trkpt lat="47.20616" lon="16.0277">
        <ele>449.563592</ele>
        <time>2026-07-08T10:20:41.000Z</time>
      </trkpt>
      <trkpt lat="47.20612" lon="16.02775">
        <ele>449.468698</ele>
        <time>2026-07-08T10:20:42.000Z</time>
      </trkpt>
      <trkpt lat="47.20609" lon="16.02781">
        <ele>449.378144</ele>
        <time>2026-07-08T10:20:43.000Z</time>
      </trkpt>
      <trkpt lat="47.20605" lon="16.02787">
        <ele>449.289401</ele>
        <time>2026-07-08T10:20:44.000Z</time>
      </trkpt>
      <trkpt lat="47.20602" lon="16.02793">
        <ele>449.204459</ele>
        <time>2026-07-08T10:20:45.000Z</time>
      </trkpt>
      <trkpt lat="47.20599" lon="16.02798">
        <ele>449.117757</ele>
        <time>2026-07-08T10:20:46.000Z</time>
      </trkpt>
      <trkpt lat="47.20595" lon="16.02804">
        <ele>449.02991</ele>
        <time>2026-07-08T10:20:47.000Z</time>
      </trkpt>
      <trkpt lat="47.20592" lon="16.02809">
        <ele>448.944401</ele>
        <time>2026-07-08T10:20:48.000Z</time>
      </trkpt>
      <trkpt lat="47.20589" lon="16.02815">
        <ele>448.846748</ele>
        <time>2026-07-08T10:20:49.000Z</time>
      </trkpt>
      <trkpt lat="47.20585" lon="16.02821">
        <ele>448.720805</ele>
        <time>2026-07-08T10:20:50.000Z</time>
      </trkpt>
      <trkpt lat="47.20582" lon="16.02827">
        <ele>448.597984</ele>
        <time>2026-07-08T10:20:51.000Z</time>
      </trkpt>
      <trkpt lat="47.20578" lon="16.02833">
        <ele>448.464009</ele>
        <time>2026-07-08T10:20:52.000Z</time>
      </trkpt>
      <trkpt lat="47.20575" lon="16.02839">
        <ele>448.336466</ele>
        <time>2026-07-08T10:20:53.000Z</time>
      </trkpt>
      <trkpt lat="47.20571" lon="16.02845">
        <ele>448.197729</ele>
        <time>2026-07-08T10:20:54.000Z</time>
      </trkpt>
      <trkpt lat="47.20566" lon="16.0285">
        <ele>448.056912</ele>
        <time>2026-07-08T10:20:55.000Z</time>
      </trkpt>
      <trkpt lat="47.20561" lon="16.02856">
        <ele>447.908717</ele>
        <time>2026-07-08T10:20:56.000Z</time>
      </trkpt>
      <trkpt lat="47.20556" lon="16.02861">
        <ele>447.766067</ele>
        <time>2026-07-08T10:20:57.000Z</time>
      </trkpt>
      <trkpt lat="47.20551" lon="16.02865">
        <ele>447.619854</ele>
        <time>2026-07-08T10:20:58.000Z</time>
      </trkpt>
      <trkpt lat="47.20545" lon="16.02869">
        <ele>447.474664</ele>
        <time>2026-07-08T10:20:59.000Z</time>
      </trkpt>
      <trkpt lat="47.20539" lon="16.02872">
        <ele>447.323253</ele>
        <time>2026-07-08T10:21:00.000Z</time>
      </trkpt>
      <trkpt lat="47.20533" lon="16.02875">
        <ele>447.170559</ele>
        <time>2026-07-08T10:21:01.000Z</time>
      </trkpt>
      <trkpt lat="47.20527" lon="16.02877">
        <ele>447.017767</ele>
        <time>2026-07-08T10:21:02.000Z</time>
      </trkpt>
      <trkpt lat="47.20521" lon="16.02879">
        <ele>446.860005</ele>
        <time>2026-07-08T10:21:03.000Z</time>
      </trkpt>
      <trkpt lat="47.20514" lon="16.0288">
        <ele>446.699371</ele>
        <time>2026-07-08T10:21:04.000Z</time>
      </trkpt>
      <trkpt lat="47.20507" lon="16.0288">
        <ele>446.536873</ele>
        <time>2026-07-08T10:21:05.000Z</time>
      </trkpt>
      <trkpt lat="47.205" lon="16.0288">
        <ele>446.369525</ele>
        <time>2026-07-08T10:21:06.000Z</time>
      </trkpt>
      <trkpt lat="47.20493" lon="16.02879">
        <ele>446.202051</ele>
        <time>2026-07-08T10:21:07.000Z</time>
      </trkpt>
      <trkpt lat="47.20486" lon="16.02879">
        <ele>446.029803</ele>
        <time>2026-07-08T10:21:08.000Z</time>
      </trkpt>
      <trkpt lat="47.20479" lon="16.02878">
        <ele>445.860066</ele>
        <time>2026-07-08T10:21:09.000Z</time>
      </trkpt>
      <trkpt lat="47.20472" lon="16.02879">
        <ele>445.687245</ele>
        <time>2026-07-08T10:21:10.000Z</time>
      </trkpt>
      <trkpt lat="47.20464" lon="16.0288">
        <ele>445.514264</ele>
        <time>2026-07-08T10:21:11.000Z</time>
      </trkpt>
      <trkpt lat="47.20457" lon="16.02882">
        <ele>445.338343</ele>
        <time>2026-07-08T10:21:12.000Z</time>
      </trkpt>
      <trkpt lat="47.2045" lon="16.02883">
        <ele>445.161974</ele>
        <time>2026-07-08T10:21:13.000Z</time>
      </trkpt>
      <trkpt lat="47.20443" lon="16.02886">
        <ele>444.98556</ele>
        <time>2026-07-08T10:21:14.000Z</time>
      </trkpt>
      <trkpt lat="47.20435" lon="16.02888">
        <ele>444.810158</ele>
        <time>2026-07-08T10:21:15.000Z</time>
      </trkpt>
      <trkpt lat="47.20429" lon="16.0289">
        <ele>444.643054</ele>
        <time>2026-07-08T10:21:16.000Z</time>
      </trkpt>
      <trkpt lat="47.20422" lon="16.02893">
        <ele>444.475943</ele>
        <time>2026-07-08T10:21:17.000Z</time>
      </trkpt>
      <trkpt lat="47.20415" lon="16.02895">
        <ele>444.311869</ele>
        <time>2026-07-08T10:21:18.000Z</time>
      </trkpt>
      <trkpt lat="47.20408" lon="16.02898">
        <ele>444.151803</ele>
        <time>2026-07-08T10:21:19.000Z</time>
      </trkpt>
      <trkpt lat="47.20401" lon="16.02901">
        <ele>443.986946</ele>
        <time>2026-07-08T10:21:20.000Z</time>
      </trkpt>
      <trkpt lat="47.20393" lon="16.02903">
        <ele>443.814396</ele>
        <time>2026-07-08T10:21:21.000Z</time>
      </trkpt>
      <trkpt lat="47.20386" lon="16.02906">
        <ele>443.647738</ele>
        <time>2026-07-08T10:21:22.000Z</time>
      </trkpt>
      <trkpt lat="47.20379" lon="16.02908">
        <ele>443.473936</ele>
        <time>2026-07-08T10:21:23.000Z</time>
      </trkpt>
      <trkpt lat="47.20371" lon="16.0291">
        <ele>443.296236</ele>
        <time>2026-07-08T10:21:24.000Z</time>
      </trkpt>
      <trkpt lat="47.20363" lon="16.02912">
        <ele>443.119715</ele>
        <time>2026-07-08T10:21:25.000Z</time>
      </trkpt>
      <trkpt lat="47.20356" lon="16.02913">
        <ele>442.942016</ele>
        <time>2026-07-08T10:21:26.000Z</time>
      </trkpt>
      <trkpt lat="47.20348" lon="16.02912">
        <ele>442.760177</ele>
        <time>2026-07-08T10:21:27.000Z</time>
      </trkpt>
      <trkpt lat="47.2034" lon="16.02912">
        <ele>442.577944</ele>
        <time>2026-07-08T10:21:28.000Z</time>
      </trkpt>
      <trkpt lat="47.20331" lon="16.0291">
        <ele>442.389044</ele>
        <time>2026-07-08T10:21:29.000Z</time>
      </trkpt>
      <trkpt lat="47.20323" lon="16.02907">
        <ele>442.200954</ele>
        <time>2026-07-08T10:21:30.000Z</time>
      </trkpt>
      <trkpt lat="47.20315" lon="16.02904">
        <ele>442.002301</ele>
        <time>2026-07-08T10:21:31.000Z</time>
      </trkpt>
      <trkpt lat="47.20306" lon="16.02901">
        <ele>441.798498</ele>
        <time>2026-07-08T10:21:32.000Z</time>
      </trkpt>
      <trkpt lat="47.20297" lon="16.02898">
        <ele>441.590055</ele>
        <time>2026-07-08T10:21:33.000Z</time>
      </trkpt>
      <trkpt lat="47.20288" lon="16.02896">
        <ele>441.376453</ele>
        <time>2026-07-08T10:21:34.000Z</time>
      </trkpt>
      <trkpt lat="47.20278" lon="16.02894">
        <ele>441.153402</ele>
        <time>2026-07-08T10:21:35.000Z</time>
      </trkpt>
      <trkpt lat="47.20268" lon="16.02892">
        <ele>440.929599</ele>
        <time>2026-07-08T10:21:36.000Z</time>
      </trkpt>
      <trkpt lat="47.20259" lon="16.02889">
        <ele>440.707475</ele>
        <time>2026-07-08T10:21:37.000Z</time>
      </trkpt>
      <trkpt lat="47.20249" lon="16.02886">
        <ele>440.488148</ele>
        <time>2026-07-08T10:21:38.000Z</time>
      </trkpt>
      <trkpt lat="47.2024" lon="16.02884">
        <ele>440.391907</ele>
        <time>2026-07-08T10:21:39.000Z</time>
      </trkpt>
      <trkpt lat="47.2023" lon="16.02881">
        <ele>440.296778</ele>
        <time>2026-07-08T10:21:40.000Z</time>
      </trkpt>
      <trkpt lat="47.20221" lon="16.02877">
        <ele>440.204222</ele>
        <time>2026-07-08T10:21:41.000Z</time>
      </trkpt>
      <trkpt lat="47.20212" lon="16.02874">
        <ele>440.115311</ele>
        <time>2026-07-08T10:21:42.000Z</time>
      </trkpt>
      <trkpt lat="47.20204" lon="16.02871">
        <ele>440.027006</ele>
        <time>2026-07-08T10:21:43.000Z</time>
      </trkpt>
      <trkpt lat="47.20195" lon="16.02867">
        <ele>439.940939</ele>
        <time>2026-07-08T10:21:44.000Z</time>
      </trkpt>
      <trkpt lat="47.20187" lon="16.02864">
        <ele>439.85753</ele>
        <time>2026-07-08T10:21:45.000Z</time>
      </trkpt>
      <trkpt lat="47.20179" lon="16.02861">
        <ele>439.775242</ele>
        <time>2026-07-08T10:21:46.000Z</time>
      </trkpt>
      <trkpt lat="47.20171" lon="16.02857">
        <ele>439.695938</ele>
        <time>2026-07-08T10:21:47.000Z</time>
      </trkpt>
      <trkpt lat="47.20164" lon="16.02853">
        <ele>439.618904</ele>
        <time>2026-07-08T10:21:48.000Z</time>
      </trkpt>
      <trkpt lat="47.20156" lon="16.0285">
        <ele>439.544516</ele>
        <time>2026-07-08T10:21:49.000Z</time>
      </trkpt>
      <trkpt lat="47.20149" lon="16.02847">
        <ele>439.473135</ele>
        <time>2026-07-08T10:21:50.000Z</time>
      </trkpt>
      <trkpt lat="47.20142" lon="16.02844">
        <ele>439.402878</ele>
        <time>2026-07-08T10:21:51.000Z</time>
      </trkpt>
      <trkpt lat="47.20136" lon="16.02842">
        <ele>439.338994</ele>
        <time>2026-07-08T10:21:52.000Z</time>
      </trkpt>
      <trkpt lat="47.2013" lon="16.02839">
        <ele>439.275875</ele>
        <time>2026-07-08T10:21:53.000Z</time>
      </trkpt>
      <trkpt lat="47.20124" lon="16.02837">
        <ele>439.21858</ele>
        <time>2026-07-08T10:21:54.000Z</time>
      </trkpt>
      <trkpt lat="47.20119" lon="16.02834">
        <ele>439.163352</ele>
        <time>2026-07-08T10:21:55.000Z</time>
      </trkpt>
      <trkpt lat="47.20114" lon="16.02832">
        <ele>439.109614</ele>
        <time>2026-07-08T10:21:56.000Z</time>
      </trkpt>
      <trkpt lat="47.20108" lon="16.0283">
        <ele>439.05664</ele>
        <time>2026-07-08T10:21:57.000Z</time>
      </trkpt>
      <trkpt lat="47.20103" lon="16.02828">
        <ele>439.005911</ele>
        <time>2026-07-08T10:21:58.000Z</time>
      </trkpt>
      <trkpt lat="47.20099" lon="16.02826">
        <ele>438.957068</ele>
        <time>2026-07-08T10:21:59.000Z</time>
      </trkpt>
      <trkpt lat="47.20094" lon="16.02824">
        <ele>438.908571</ele>
        <time>2026-07-08T10:22:00.000Z</time>
      </trkpt>
      <trkpt lat="47.20089" lon="16.02822">
        <ele>438.860851</ele>
        <time>2026-07-08T10:22:01.000Z</time>
      </trkpt>
      <trkpt lat="47.20084" lon="16.02821">
        <ele>438.813302</ele>
        <time>2026-07-08T10:22:02.000Z</time>
      </trkpt>
      <trkpt lat="47.2008" lon="16.02819">
        <ele>438.767815</ele>
        <time>2026-07-08T10:22:03.000Z</time>
      </trkpt>
      <trkpt lat="47.20076" lon="16.02817">
        <ele>438.724716</ele>
        <time>2026-07-08T10:22:04.000Z</time>
      </trkpt>
      <trkpt lat="47.20071" lon="16.02815">
        <ele>438.725022</ele>
        <time>2026-07-08T10:22:05.000Z</time>
      </trkpt>
      <trkpt lat="47.20067" lon="16.02813">
        <ele>438.725316</ele>
        <time>2026-07-08T10:22:06.000Z</time>
      </trkpt>
      <trkpt lat="47.20064" lon="16.02812">
        <ele>438.725579</ele>
        <time>2026-07-08T10:22:07.000Z</time>
      </trkpt>
      <trkpt lat="47.2006" lon="16.0281">
        <ele>438.725846</ele>
        <time>2026-07-08T10:22:08.000Z</time>
      </trkpt>
      <trkpt lat="47.20057" lon="16.02809">
        <ele>438.726098</ele>
        <time>2026-07-08T10:22:09.000Z</time>
      </trkpt>
      <trkpt lat="47.20053" lon="16.02808">
        <ele>438.726337</ele>
        <time>2026-07-08T10:22:10.000Z</time>
      </trkpt>
      <trkpt lat="47.2005" lon="16.02806">
        <ele>438.726586</ele>
        <time>2026-07-08T10:22:11.000Z</time>
      </trkpt>
      <trkpt lat="47.20046" lon="16.02805">
        <ele>438.726837</ele>
        <time>2026-07-08T10:22:12.000Z</time>
      </trkpt>
      <trkpt lat="47.20043" lon="16.02804">
        <ele>438.727095</ele>
        <time>2026-07-08T10:22:13.000Z</time>
      </trkpt>
      <trkpt lat="47.20039" lon="16.02803">
        <ele>438.727373</ele>
        <time>2026-07-08T10:22:14.000Z</time>
      </trkpt>
      <trkpt lat="47.20035" lon="16.02802">
        <ele>438.727645</ele>
        <time>2026-07-08T10:22:15.000Z</time>
      </trkpt>
      <trkpt lat="47.20031" lon="16.02801">
        <ele>438.727929</ele>
        <time>2026-07-08T10:22:16.000Z</time>
      </trkpt>
      <trkpt lat="47.20027" lon="16.028">
        <ele>438.728211</ele>
        <time>2026-07-08T10:22:17.000Z</time>
      </trkpt>
      <trkpt lat="47.20023" lon="16.02799">
        <ele>438.728494</ele>
        <time>2026-07-08T10:22:18.000Z</time>
      </trkpt>
      <trkpt lat="47.20019" lon="16.02798">
        <ele>438.728776</ele>
        <time>2026-07-08T10:22:19.000Z</time>
      </trkpt>
      <trkpt lat="47.20015" lon="16.02797">
        <ele>438.729074</ele>
        <time>2026-07-08T10:22:20.000Z</time>
      </trkpt>
      <trkpt lat="47.20011" lon="16.02796">
        <ele>438.729363</ele>
        <time>2026-07-08T10:22:21.000Z</time>
      </trkpt>
      <trkpt lat="47.20007" lon="16.02796">
        <ele>438.729643</ele>
        <time>2026-07-08T10:22:22.000Z</time>
      </trkpt>
      <trkpt lat="47.20002" lon="16.02796">
        <ele>438.729951</ele>
        <time>2026-07-08T10:22:23.000Z</time>
      </trkpt>
      <trkpt lat="47.19998" lon="16.02796">
        <ele>438.730265</ele>
        <time>2026-07-08T10:22:24.000Z</time>
      </trkpt>
      <trkpt lat="47.19993" lon="16.02796">
        <ele>438.73058</ele>
        <time>2026-07-08T10:22:25.000Z</time>
      </trkpt>
      <trkpt lat="47.19989" lon="16.02796">
        <ele>438.730902</ele>
        <time>2026-07-08T10:22:26.000Z</time>
      </trkpt>
      <trkpt lat="47.19984" lon="16.02796">
        <ele>438.731231</ele>
        <time>2026-07-08T10:22:27.000Z</time>
      </trkpt>
      <trkpt lat="47.19979" lon="16.02796">
        <ele>438.73156</ele>
        <time>2026-07-08T10:22:28.000Z</time>
      </trkpt>
      <trkpt lat="47.19974" lon="16.02797">
        <ele>438.731909</ele>
        <time>2026-07-08T10:22:29.000Z</time>
      </trkpt>
      <trkpt lat="47.1997" lon="16.02797">
        <ele>438.732245</ele>
        <time>2026-07-08T10:22:30.000Z</time>
      </trkpt>
      <trkpt lat="47.19965" lon="16.02797">
        <ele>438.732595</ele>
        <time>2026-07-08T10:22:31.000Z</time>
      </trkpt>
      <trkpt lat="47.1996" lon="16.02797">
        <ele>438.732945</ele>
        <time>2026-07-08T10:22:32.000Z</time>
      </trkpt>
      <trkpt lat="47.19955" lon="16.02797">
        <ele>438.733295</ele>
        <time>2026-07-08T10:22:33.000Z</time>
      </trkpt>
      <trkpt lat="47.1995" lon="16.02797">
        <ele>438.733644</ele>
        <time>2026-07-08T10:22:34.000Z</time>
      </trkpt>
      <trkpt lat="47.19945" lon="16.02797">
        <ele>438.733994</ele>
        <time>2026-07-08T10:22:35.000Z</time>
      </trkpt>
      <trkpt lat="47.1994" lon="16.02797">
        <ele>438.734344</ele>
        <time>2026-07-08T10:22:36.000Z</time>
      </trkpt>
      <trkpt lat="47.19935" lon="16.02797">
        <ele>438.734693</ele>
        <time>2026-07-08T10:22:37.000Z</time>
      </trkpt>
      <trkpt lat="47.1993" lon="16.02797">
        <ele>438.735029</ele>
        <time>2026-07-08T10:22:38.000Z</time>
      </trkpt>
      <trkpt lat="47.19925" lon="16.02797">
        <ele>438.735379</ele>
        <time>2026-07-08T10:22:39.000Z</time>
      </trkpt>
      <trkpt lat="47.1992" lon="16.02797">
        <ele>438.735729</ele>
        <time>2026-07-08T10:22:40.000Z</time>
      </trkpt>
      <trkpt lat="47.19915" lon="16.02797">
        <ele>438.736079</ele>
        <time>2026-07-08T10:22:41.000Z</time>
      </trkpt>
      <trkpt lat="47.1991" lon="16.02796">
        <ele>438.736428</ele>
        <time>2026-07-08T10:22:42.000Z</time>
      </trkpt>
      <trkpt lat="47.19905" lon="16.02796">
        <ele>438.736778</ele>
        <time>2026-07-08T10:22:43.000Z</time>
      </trkpt>
      <trkpt lat="47.199" lon="16.02796">
        <ele>438.737121</ele>
        <time>2026-07-08T10:22:44.000Z</time>
      </trkpt>
      <trkpt lat="47.19895" lon="16.02796">
        <ele>438.758285</ele>
        <time>2026-07-08T10:22:45.000Z</time>
      </trkpt>
      <trkpt lat="47.19891" lon="16.02795">
        <ele>438.797079</ele>
        <time>2026-07-08T10:22:46.000Z</time>
      </trkpt>
      <trkpt lat="47.19888" lon="16.02794">
        <ele>438.830629</ele>
        <time>2026-07-08T10:22:47.000Z</time>
      </trkpt>
      <trkpt lat="47.19885" lon="16.02792">
        <ele>438.859157</ele>
        <time>2026-07-08T10:22:48.000Z</time>
      </trkpt>
      <trkpt lat="47.19883" lon="16.02788">
        <ele>438.890242</ele>
        <time>2026-07-08T10:22:49.000Z</time>
      </trkpt>
      <trkpt lat="47.19882" lon="16.02784">
        <ele>438.922997</ele>
        <time>2026-07-08T10:22:50.000Z</time>
      </trkpt>
      <trkpt lat="47.1988" lon="16.02772">
        <ele>439.004714</ele>
        <time>2026-07-08T10:22:52.000Z</time>
      </trkpt>
      <trkpt lat="47.19879" lon="16.02765">
        <ele>439.050032</ele>
        <time>2026-07-08T10:22:53.000Z</time>
      </trkpt>
      <trkpt lat="47.19878" lon="16.02758">
        <ele>439.097496</ele>
        <time>2026-07-08T10:22:54.000Z</time>
      </trkpt>
      <trkpt lat="47.19877" lon="16.02751">
        <ele>439.142596</ele>
        <time>2026-07-08T10:22:55.000Z</time>
      </trkpt>
      <trkpt lat="47.19876" lon="16.02746">
        <ele>439.180219</ele>
        <time>2026-07-08T10:22:56.000Z</time>
      </trkpt>
      <trkpt lat="47.19875" lon="16.02741">
        <ele>439.21043</ele>
        <time>2026-07-08T10:22:57.000Z</time>
      </trkpt>
      <trkpt lat="47.19874" lon="16.02738">
        <ele>439.231619</ele>
        <time>2026-07-08T10:22:58.000Z</time>
      </trkpt>
      <trkpt lat="47.19873" lon="16.02737">
        <ele>439.244679</ele>
        <time>2026-07-08T10:22:59.000Z</time>
      </trkpt>
      <trkpt lat="47.19873" lon="16.02736">
        <ele>439.249359</ele>
        <time>2026-07-08T10:23:00.000Z</time>
      </trkpt>
      <trkpt lat="47.19873" lon="16.02736">
        <ele>439.250326</ele>
        <time>2026-07-08T10:23:01.000Z</time>
      </trkpt>
      <trkpt lat="47.19871" lon="16.02736">
        <ele>439.271705</ele>
        <time>2026-07-08T10:23:14.000Z</time>
      </trkpt>
      <trkpt lat="47.1987" lon="16.02737">
        <ele>439.277713</ele>
        <time>2026-07-08T10:23:15.000Z</time>
      </trkpt>
      <trkpt lat="47.1987" lon="16.02737">
        <ele>439.282791</ele>
        <time>2026-07-08T10:23:16.000Z</time>
      </trkpt>
      <trkpt lat="47.1987" lon="16.02738">
        <ele>439.287177</ele>
        <time>2026-07-08T10:23:17.000Z</time>
      </trkpt>
      <trkpt lat="47.19869" lon="16.02738">
        <ele>439.289112</ele>
        <time>2026-07-08T10:23:18.000Z</time>
      </trkpt>
      <trkpt lat="47.19869" lon="16.02738">
        <ele>439.291742</ele>
        <time>2026-07-08T10:23:19.000Z</time>
      </trkpt>
      <trkpt lat="47.1987" lon="16.02736">
        <ele>439.308292</ele>
        <time>2026-07-08T10:29:22.000Z</time>
      </trkpt>
      <trkpt lat="47.1987" lon="16.02736">
        <ele>439.314141</ele>
        <time>2026-07-08T10:29:23.000Z</time>
      </trkpt>
      <trkpt lat="47.19871" lon="16.02737">
        <ele>439.31999</ele>
        <time>2026-07-08T10:29:24.000Z</time>
      </trkpt>
      <trkpt lat="47.19871" lon="16.02737">
        <ele>439.322034</ele>
        <time>2026-07-08T10:29:25.000Z</time>
      </trkpt>
      <trkpt lat="47.19871" lon="16.02737">
        <ele>439.323349</ele>
        <time>2026-07-08T10:29:26.000Z</time>
      </trkpt>
      <trkpt lat="47.19872" lon="16.02742">
        <ele>439.3585</ele>
        <time>2026-07-08T10:29:44.000Z</time>
      </trkpt>
      <trkpt lat="47.19873" lon="16.02744">
        <ele>439.372207</ele>
        <time>2026-07-08T10:29:45.000Z</time>
      </trkpt>
      <trkpt lat="47.19873" lon="16.02746">
        <ele>439.389341</ele>
        <time>2026-07-08T10:29:46.000Z</time>
      </trkpt>
      <trkpt lat="47.19874" lon="16.02749">
        <ele>439.40774</ele>
        <time>2026-07-08T10:29:47.000Z</time>
      </trkpt>
      <trkpt lat="47.19875" lon="16.02752">
        <ele>439.427106</ele>
        <time>2026-07-08T10:29:48.000Z</time>
      </trkpt>
      <trkpt lat="47.19875" lon="16.02755">
        <ele>439.446722</ele>
        <time>2026-07-08T10:29:49.000Z</time>
      </trkpt>
      <trkpt lat="47.19876" lon="16.02758">
        <ele>439.467282</ele>
        <time>2026-07-08T10:29:50.000Z</time>
      </trkpt>
      <trkpt lat="47.19877" lon="16.02761">
        <ele>439.489385</ele>
        <time>2026-07-08T10:29:51.000Z</time>
      </trkpt>
      <trkpt lat="47.19877" lon="16.02764">
        <ele>439.510573</ele>
        <time>2026-07-08T10:29:52.000Z</time>
      </trkpt>
      <trkpt lat="47.19878" lon="16.02767">
        <ele>439.532543</ele>
        <time>2026-07-08T10:29:53.000Z</time>
      </trkpt>
      <trkpt lat="47.19879" lon="16.0277">
        <ele>439.556299</ele>
        <time>2026-07-08T10:29:54.000Z</time>
      </trkpt>
      <trkpt lat="47.1988" lon="16.02773">
        <ele>439.578401</ele>
        <time>2026-07-08T10:29:55.000Z</time>
      </trkpt>
      <trkpt lat="47.19881" lon="16.02777">
        <ele>439.601915</ele>
        <time>2026-07-08T10:29:56.000Z</time>
      </trkpt>
      <trkpt lat="47.19881" lon="16.0278">
        <ele>439.62543</ele>
        <time>2026-07-08T10:29:57.000Z</time>
      </trkpt>
      <trkpt lat="47.19881" lon="16.02784">
        <ele>439.649177</ele>
        <time>2026-07-08T10:29:58.000Z</time>
      </trkpt>
      <trkpt lat="47.19881" lon="16.02787">
        <ele>439.670569</ele>
        <time>2026-07-08T10:29:59.000Z</time>
      </trkpt>
      <trkpt lat="47.1988" lon="16.0279">
        <ele>439.690786</ele>
        <time>2026-07-08T10:30:00.000Z</time>
      </trkpt>
      <trkpt lat="47.19878" lon="16.02792">
        <ele>439.713012</ele>
        <time>2026-07-08T10:30:01.000Z</time>
      </trkpt>
      <trkpt lat="47.19876" lon="16.02794">
        <ele>439.73536</ele>
        <time>2026-07-08T10:30:02.000Z</time>
      </trkpt>
      <trkpt lat="47.19874" lon="16.02795">
        <ele>439.7583</ele>
        <time>2026-07-08T10:30:03.000Z</time>
      </trkpt>
      <trkpt lat="47.19872" lon="16.02796">
        <ele>439.781912</ele>
        <time>2026-07-08T10:30:04.000Z</time>
      </trkpt>
      <trkpt lat="47.19869" lon="16.02797">
        <ele>439.805119</ele>
        <time>2026-07-08T10:30:05.000Z</time>
      </trkpt>
      <trkpt lat="47.19867" lon="16.02798">
        <ele>439.828793</ele>
        <time>2026-07-08T10:30:06.000Z</time>
      </trkpt>
      <trkpt lat="47.19865" lon="16.02798">
        <ele>439.849209</ele>
        <time>2026-07-08T10:30:07.000Z</time>
      </trkpt>
      <trkpt lat="47.19863" lon="16.02798">
        <ele>439.870537</ele>
        <time>2026-07-08T10:30:08.000Z</time>
      </trkpt>
      <trkpt lat="47.1986" lon="16.02798">
        <ele>439.891916</ele>
        <time>2026-07-08T10:30:09.000Z</time>
      </trkpt>
      <trkpt lat="47.19858" lon="16.02798">
        <ele>439.912237</ele>
        <time>2026-07-08T10:30:10.000Z</time>
      </trkpt>
      <trkpt lat="47.19856" lon="16.02798">
        <ele>439.936427</ele>
        <time>2026-07-08T10:30:11.000Z</time>
      </trkpt>
      <trkpt lat="47.19853" lon="16.02798">
        <ele>439.962553</ele>
        <time>2026-07-08T10:30:12.000Z</time>
      </trkpt>
      <trkpt lat="47.1985" lon="16.02797">
        <ele>439.989679</ele>
        <time>2026-07-08T10:30:13.000Z</time>
      </trkpt>
      <trkpt lat="47.19848" lon="16.02797">
        <ele>440.015805</ele>
        <time>2026-07-08T10:30:14.000Z</time>
      </trkpt>
      <trkpt lat="47.19845" lon="16.02798">
        <ele>440.04293</ele>
        <time>2026-07-08T10:30:15.000Z</time>
      </trkpt>
      <trkpt lat="47.19842" lon="16.02797">
        <ele>440.071022</ele>
        <time>2026-07-08T10:30:16.000Z</time>
      </trkpt>
      <trkpt lat="47.19839" lon="16.02797">
        <ele>440.098187</ele>
        <time>2026-07-08T10:30:17.000Z</time>
      </trkpt>
      <trkpt lat="47.19836" lon="16.02797">
        <ele>440.125353</ele>
        <time>2026-07-08T10:30:18.000Z</time>
      </trkpt>
      <trkpt lat="47.19833" lon="16.02797">
        <ele>440.153414</ele>
        <time>2026-07-08T10:30:19.000Z</time>
      </trkpt>
      <trkpt lat="47.19831" lon="16.02797">
        <ele>440.178581</ele>
        <time>2026-07-08T10:30:20.000Z</time>
      </trkpt>
      <trkpt lat="47.19828" lon="16.02797">
        <ele>440.206673</ele>
        <time>2026-07-08T10:30:21.000Z</time>
      </trkpt>
      <trkpt lat="47.19825" lon="16.02797">
        <ele>440.231866</ele>
        <time>2026-07-08T10:30:22.000Z</time>
      </trkpt>
      <trkpt lat="47.19822" lon="16.02798">
        <ele>440.260119</ele>
        <time>2026-07-08T10:30:23.000Z</time>
      </trkpt>
      <trkpt lat="47.1982" lon="16.02798">
        <ele>440.285286</ele>
        <time>2026-07-08T10:30:24.000Z</time>
      </trkpt>
      <trkpt lat="47.19817" lon="16.02798">
        <ele>440.311412</ele>
        <time>2026-07-08T10:30:25.000Z</time>
      </trkpt>
      <trkpt lat="47.19814" lon="16.02798">
        <ele>440.337571</ele>
        <time>2026-07-08T10:30:26.000Z</time>
      </trkpt>
      <trkpt lat="47.19812" lon="16.02798">
        <ele>440.362806</ele>
        <time>2026-07-08T10:30:27.000Z</time>
      </trkpt>
      <trkpt lat="47.19809" lon="16.02799">
        <ele>440.389064</ele>
        <time>2026-07-08T10:30:28.000Z</time>
      </trkpt>
      <trkpt lat="47.19806" lon="16.02799">
        <ele>440.416166</ele>
        <time>2026-07-08T10:30:29.000Z</time>
      </trkpt>
      <trkpt lat="47.19803" lon="16.02799">
        <ele>440.44435</ele>
        <time>2026-07-08T10:30:30.000Z</time>
      </trkpt>
      <trkpt lat="47.19801" lon="16.028">
        <ele>440.471515</ele>
        <time>2026-07-08T10:30:31.000Z</time>
      </trkpt>
      <trkpt lat="47.19798" lon="16.028">
        <ele>440.494695</ele>
        <time>2026-07-08T10:30:32.000Z</time>
      </trkpt>
      <trkpt lat="47.19795" lon="16.028">
        <ele>440.517726</ele>
        <time>2026-07-08T10:30:33.000Z</time>
      </trkpt>
      <trkpt lat="47.19792" lon="16.02801">
        <ele>440.540083</ele>
        <time>2026-07-08T10:30:34.000Z</time>
      </trkpt>
      <trkpt lat="47.1979" lon="16.02801">
        <ele>440.561626</ele>
        <time>2026-07-08T10:30:35.000Z</time>
      </trkpt>
      <trkpt lat="47.19787" lon="16.02801">
        <ele>440.585477</ele>
        <time>2026-07-08T10:30:36.000Z</time>
      </trkpt>
      <trkpt lat="47.19784" lon="16.02801">
        <ele>440.606838</ele>
        <time>2026-07-08T10:30:37.000Z</time>
      </trkpt>
      <trkpt lat="47.19782" lon="16.02802">
        <ele>440.629083</ele>
        <time>2026-07-08T10:30:38.000Z</time>
      </trkpt>
      <trkpt lat="47.19779" lon="16.02802">
        <ele>440.651294</ele>
        <time>2026-07-08T10:30:39.000Z</time>
      </trkpt>
      <trkpt lat="47.19776" lon="16.02802">
        <ele>440.67272</ele>
        <time>2026-07-08T10:30:40.000Z</time>
      </trkpt>
      <trkpt lat="47.19774" lon="16.02802">
        <ele>440.69493</ele>
        <time>2026-07-08T10:30:41.000Z</time>
      </trkpt>
      <trkpt lat="47.19771" lon="16.02803">
        <ele>440.717364</ele>
        <time>2026-07-08T10:30:42.000Z</time>
      </trkpt>
      <trkpt lat="47.19768" lon="16.02803">
        <ele>440.738092</ele>
        <time>2026-07-08T10:30:43.000Z</time>
      </trkpt>
      <trkpt lat="47.19766" lon="16.02804">
        <ele>440.759569</ele>
        <time>2026-07-08T10:30:44.000Z</time>
      </trkpt>
      <trkpt lat="47.19763" lon="16.02804">
        <ele>440.780297</ele>
        <time>2026-07-08T10:30:45.000Z</time>
      </trkpt>
      <trkpt lat="47.19761" lon="16.02805">
        <ele>440.802654</ele>
        <time>2026-07-08T10:30:46.000Z</time>
      </trkpt>
      <trkpt lat="47.19758" lon="16.02805">
        <ele>440.823261</ele>
        <time>2026-07-08T10:30:47.000Z</time>
      </trkpt>
      <trkpt lat="47.19756" lon="16.02806">
        <ele>440.844169</ele>
        <time>2026-07-08T10:30:48.000Z</time>
      </trkpt>
      <trkpt lat="47.19753" lon="16.02807">
        <ele>440.867602</ele>
        <time>2026-07-08T10:30:49.000Z</time>
      </trkpt>
      <trkpt lat="47.1975" lon="16.02807">
        <ele>440.89023</ele>
        <time>2026-07-08T10:30:50.000Z</time>
      </trkpt>
      <trkpt lat="47.19747" lon="16.02808">
        <ele>440.912753</ele>
        <time>2026-07-08T10:30:51.000Z</time>
      </trkpt>
      <trkpt lat="47.19745" lon="16.02809">
        <ele>440.933481</ele>
        <time>2026-07-08T10:30:52.000Z</time>
      </trkpt>
      <trkpt lat="47.19742" lon="16.02809">
        <ele>440.955196</ele>
        <time>2026-07-08T10:30:53.000Z</time>
      </trkpt>
      <trkpt lat="47.1974" lon="16.0281">
        <ele>440.976007</ele>
        <time>2026-07-08T10:30:54.000Z</time>
      </trkpt>
      <trkpt lat="47.19737" lon="16.0281">
        <ele>440.995921</ele>
        <time>2026-07-08T10:30:55.000Z</time>
      </trkpt>
      <trkpt lat="47.19735" lon="16.02811">
        <ele>441.015022</ele>
        <time>2026-07-08T10:30:56.000Z</time>
      </trkpt>
      <trkpt lat="47.19733" lon="16.02812">
        <ele>441.03593</ele>
        <time>2026-07-08T10:30:57.000Z</time>
      </trkpt>
      <trkpt lat="47.1973" lon="16.02812">
        <ele>441.056949</ele>
        <time>2026-07-08T10:30:58.000Z</time>
      </trkpt>
      <trkpt lat="47.19728" lon="16.02813">
        <ele>441.077856</ele>
        <time>2026-07-08T10:30:59.000Z</time>
      </trkpt>
      <trkpt lat="47.19725" lon="16.02814">
        <ele>441.098875</ele>
        <time>2026-07-08T10:31:00.000Z</time>
      </trkpt>
      <trkpt lat="47.19723" lon="16.02815">
        <ele>441.119783</ele>
        <time>2026-07-08T10:31:01.000Z</time>
      </trkpt>
      <trkpt lat="47.1972" lon="16.02815">
        <ele>441.14241</ele>
        <time>2026-07-08T10:31:02.000Z</time>
      </trkpt>
      <trkpt lat="47.19717" lon="16.02816">
        <ele>441.164354</ele>
        <time>2026-07-08T10:31:03.000Z</time>
      </trkpt>
      <trkpt lat="47.19715" lon="16.02817">
        <ele>441.186981</ele>
        <time>2026-07-08T10:31:04.000Z</time>
      </trkpt>
      <trkpt lat="47.19712" lon="16.02818">
        <ele>441.209855</ele>
        <time>2026-07-08T10:31:05.000Z</time>
      </trkpt>
      <trkpt lat="47.19709" lon="16.02819">
        <ele>441.231933</ele>
        <time>2026-07-08T10:31:06.000Z</time>
      </trkpt>
      <trkpt lat="47.19707" lon="16.0282">
        <ele>441.254457</ele>
        <time>2026-07-08T10:31:07.000Z</time>
      </trkpt>
      <trkpt lat="47.19704" lon="16.0282">
        <ele>441.275267</ele>
        <time>2026-07-08T10:31:08.000Z</time>
      </trkpt>
      <trkpt lat="47.19702" lon="16.02821">
        <ele>441.295995</ele>
        <time>2026-07-08T10:31:09.000Z</time>
      </trkpt>
      <trkpt lat="47.19699" lon="16.02821">
        <ele>441.31829</ele>
        <time>2026-07-08T10:31:10.000Z</time>
      </trkpt>
      <trkpt lat="47.19696" lon="16.02822">
        <ele>441.339716</ele>
        <time>2026-07-08T10:31:11.000Z</time>
      </trkpt>
      <trkpt lat="47.19693" lon="16.02822">
        <ele>441.36442</ele>
        <time>2026-07-08T10:31:12.000Z</time>
      </trkpt>
      <trkpt lat="47.1969" lon="16.02822">
        <ele>441.389224</ele>
        <time>2026-07-08T10:31:13.000Z</time>
      </trkpt>
      <trkpt lat="47.19687" lon="16.02823">
        <ele>441.414495</ele>
        <time>2026-07-08T10:31:14.000Z</time>
      </trkpt>
      <trkpt lat="47.19684" lon="16.02825">
        <ele>441.441625</ele>
        <time>2026-07-08T10:31:15.000Z</time>
      </trkpt>
      <trkpt lat="47.19681" lon="16.02826">
        <ele>441.469691</ele>
        <time>2026-07-08T10:31:16.000Z</time>
      </trkpt>
      <trkpt lat="47.19677" lon="16.02827">
        <ele>441.498983</ele>
        <time>2026-07-08T10:31:17.000Z</time>
      </trkpt>
      <trkpt lat="47.19674" lon="16.02828">
        <ele>441.529889</ele>
        <time>2026-07-08T10:31:18.000Z</time>
      </trkpt>
      <trkpt lat="47.1967" lon="16.02829">
        <ele>441.561276</ele>
        <time>2026-07-08T10:31:19.000Z</time>
      </trkpt>
      <trkpt lat="47.19666" lon="16.02831">
        <ele>441.59493</ele>
        <time>2026-07-08T10:31:20.000Z</time>
      </trkpt>
      <trkpt lat="47.19662" lon="16.02832">
        <ele>441.629926</ele>
        <time>2026-07-08T10:31:21.000Z</time>
      </trkpt>
      <trkpt lat="47.19658" lon="16.02834">
        <ele>441.665865</ele>
        <time>2026-07-08T10:31:22.000Z</time>
      </trkpt>
      <trkpt lat="47.19653" lon="16.02836">
        <ele>441.704484</ele>
        <time>2026-07-08T10:31:23.000Z</time>
      </trkpt>
      <trkpt lat="47.19649" lon="16.02838">
        <ele>441.743621</ele>
        <time>2026-07-08T10:31:24.000Z</time>
      </trkpt>
      <trkpt lat="47.19644" lon="16.02841">
        <ele>441.782578</ele>
        <time>2026-07-08T10:31:25.000Z</time>
      </trkpt>
      <trkpt lat="47.19639" lon="16.02842">
        <ele>441.823273</ele>
        <time>2026-07-08T10:31:26.000Z</time>
      </trkpt>
      <trkpt lat="47.19634" lon="16.02844">
        <ele>441.864391</ele>
        <time>2026-07-08T10:31:27.000Z</time>
      </trkpt>
      <trkpt lat="47.19629" lon="16.02845">
        <ele>441.906314</ele>
        <time>2026-07-08T10:31:28.000Z</time>
      </trkpt>
      <trkpt lat="47.19624" lon="16.02847">
        <ele>441.948475</ele>
        <time>2026-07-08T10:31:29.000Z</time>
      </trkpt>
      <trkpt lat="47.19619" lon="16.02849">
        <ele>441.915513</ele>
        <time>2026-07-08T10:31:30.000Z</time>
      </trkpt>
      <trkpt lat="47.19614" lon="16.0285">
        <ele>441.867466</ele>
        <time>2026-07-08T10:31:31.000Z</time>
      </trkpt>
      <trkpt lat="47.19609" lon="16.02851">
        <ele>441.819017</ele>
        <time>2026-07-08T10:31:32.000Z</time>
      </trkpt>
      <trkpt lat="47.19603" lon="16.02852">
        <ele>441.769668</ele>
        <time>2026-07-08T10:31:33.000Z</time>
      </trkpt>
      <trkpt lat="47.19598" lon="16.02853">
        <ele>441.721419</ele>
        <time>2026-07-08T10:31:34.000Z</time>
      </trkpt>
      <trkpt lat="47.19593" lon="16.02854">
        <ele>441.672969</ele>
        <time>2026-07-08T10:31:35.000Z</time>
      </trkpt>
      <trkpt lat="47.19587" lon="16.02855">
        <ele>441.62272</ele>
        <time>2026-07-08T10:31:36.000Z</time>
      </trkpt>
      <trkpt lat="47.19582" lon="16.02856">
        <ele>441.57351</ele>
        <time>2026-07-08T10:31:37.000Z</time>
      </trkpt>
      <trkpt lat="47.19576" lon="16.02857">
        <ele>441.523454</ele>
        <time>2026-07-08T10:31:38.000Z</time>
      </trkpt>
      <trkpt lat="47.19571" lon="16.02858">
        <ele>441.472305</ele>
        <time>2026-07-08T10:31:39.000Z</time>
      </trkpt>
      <trkpt lat="47.19565" lon="16.02859">
        <ele>441.420256</ele>
        <time>2026-07-08T10:31:40.000Z</time>
      </trkpt>
      <trkpt lat="47.1956" lon="16.0286">
        <ele>441.369748</ele>
        <time>2026-07-08T10:31:41.000Z</time>
      </trkpt>
      <trkpt lat="47.19554" lon="16.02862">
        <ele>441.317014</ele>
        <time>2026-07-08T10:31:42.000Z</time>
      </trkpt>
      <trkpt lat="47.19548" lon="16.02863">
        <ele>441.26504</ele>
        <time>2026-07-08T10:31:43.000Z</time>
      </trkpt>
      <trkpt lat="47.19543" lon="16.02866">
        <ele>441.213025</ele>
        <time>2026-07-08T10:31:44.000Z</time>
      </trkpt>
      <trkpt lat="47.19537" lon="16.02868">
        <ele>441.158916</ele>
        <time>2026-07-08T10:31:45.000Z</time>
      </trkpt>
      <trkpt lat="47.19532" lon="16.02871">
        <ele>441.105731</ele>
        <time>2026-07-08T10:31:46.000Z</time>
      </trkpt>
      <trkpt lat="47.19526" lon="16.02875">
        <ele>441.051399</ele>
        <time>2026-07-08T10:31:47.000Z</time>
      </trkpt>
      <trkpt lat="47.19521" lon="16.02878">
        <ele>440.997774</ele>
        <time>2026-07-08T10:31:48.000Z</time>
      </trkpt>
      <trkpt lat="47.19515" lon="16.02881">
        <ele>440.946427</ele>
        <time>2026-07-08T10:31:49.000Z</time>
      </trkpt>
      <trkpt lat="47.1951" lon="16.02885">
        <ele>440.895403</ele>
        <time>2026-07-08T10:31:50.000Z</time>
      </trkpt>
      <trkpt lat="47.19505" lon="16.02888">
        <ele>440.841071</ele>
        <time>2026-07-08T10:31:51.000Z</time>
      </trkpt>
      <trkpt lat="47.19499" lon="16.02892">
        <ele>440.786739</ele>
        <time>2026-07-08T10:31:52.000Z</time>
      </trkpt>
      <trkpt lat="47.19494" lon="16.02895">
        <ele>440.733554</ele>
        <time>2026-07-08T10:31:53.000Z</time>
      </trkpt>
      <trkpt lat="47.19488" lon="16.02898">
        <ele>440.680983</ele>
        <time>2026-07-08T10:31:54.000Z</time>
      </trkpt>
      <trkpt lat="47.19483" lon="16.029">
        <ele>440.633102</ele>
        <time>2026-07-08T10:31:55.000Z</time>
      </trkpt>
      <trkpt lat="47.19478" lon="16.02903">
        <ele>440.583104</ele>
        <time>2026-07-08T10:31:56.000Z</time>
      </trkpt>
      <trkpt lat="47.19473" lon="16.02905">
        <ele>440.536123</ele>
        <time>2026-07-08T10:31:57.000Z</time>
      </trkpt>
      <trkpt lat="47.19468" lon="16.02907">
        <ele>440.48723</ele>
        <time>2026-07-08T10:31:58.000Z</time>
      </trkpt>
      <trkpt lat="47.19462" lon="16.02909">
        <ele>440.435215</ele>
        <time>2026-07-08T10:31:59.000Z</time>
      </trkpt>
      <trkpt lat="47.19457" lon="16.02912">
        <ele>440.38302</ele>
        <time>2026-07-08T10:32:00.000Z</time>
      </trkpt>
      <trkpt lat="47.19452" lon="16.02914">
        <ele>440.333253</ele>
        <time>2026-07-08T10:32:01.000Z</time>
      </trkpt>
      <trkpt lat="47.19446" lon="16.02916">
        <ele>440.222393</ele>
        <time>2026-07-08T10:32:02.000Z</time>
      </trkpt>
      <trkpt lat="47.19441" lon="16.02919">
        <ele>440.100093</ele>
        <time>2026-07-08T10:32:03.000Z</time>
      </trkpt>
      <trkpt lat="47.19436" lon="16.02923">
        <ele>439.974517</ele>
        <time>2026-07-08T10:32:04.000Z</time>
      </trkpt>
      <trkpt lat="47.19431" lon="16.02925">
        <ele>439.853345</ele>
        <time>2026-07-08T10:32:05.000Z</time>
      </trkpt>
      <trkpt lat="47.19426" lon="16.02928">
        <ele>439.731617</ele>
        <time>2026-07-08T10:32:06.000Z</time>
      </trkpt>
      <trkpt lat="47.19421" lon="16.02931">
        <ele>439.604541</ele>
        <time>2026-07-08T10:32:07.000Z</time>
      </trkpt>
      <trkpt lat="47.19416" lon="16.02936">
        <ele>439.470188</ele>
        <time>2026-07-08T10:32:08.000Z</time>
      </trkpt>
      <trkpt lat="47.19411" lon="16.0294">
        <ele>439.337816</ele>
        <time>2026-07-08T10:32:09.000Z</time>
      </trkpt>
      <trkpt lat="47.19406" lon="16.02944">
        <ele>439.208173</ele>
        <time>2026-07-08T10:32:10.000Z</time>
      </trkpt>
      <trkpt lat="47.19401" lon="16.02949">
        <ele>439.075695</ele>
        <time>2026-07-08T10:32:11.000Z</time>
      </trkpt>
      <trkpt lat="47.19396" lon="16.02954">
        <ele>438.933102</ele>
        <time>2026-07-08T10:32:12.000Z</time>
      </trkpt>
      <trkpt lat="47.1939" lon="16.02959">
        <ele>438.79241</ele>
        <time>2026-07-08T10:32:13.000Z</time>
      </trkpt>
      <trkpt lat="47.19385" lon="16.02964">
        <ele>438.649817</ele>
        <time>2026-07-08T10:32:14.000Z</time>
      </trkpt>
      <trkpt lat="47.19379" lon="16.02969">
        <ele>438.497101</ele>
        <time>2026-07-08T10:32:15.000Z</time>
      </trkpt>
      <trkpt lat="47.19374" lon="16.02974">
        <ele>438.350212</ele>
        <time>2026-07-08T10:32:16.000Z</time>
      </trkpt>
      <trkpt lat="47.19369" lon="16.0298">
        <ele>438.197846</ele>
        <time>2026-07-08T10:32:17.000Z</time>
      </trkpt>
      <trkpt lat="47.19363" lon="16.02986">
        <ele>438.047232</ele>
        <time>2026-07-08T10:32:18.000Z</time>
      </trkpt>
      <trkpt lat="47.19357" lon="16.02992">
        <ele>437.877449</ele>
        <time>2026-07-08T10:32:19.000Z</time>
      </trkpt>
      <trkpt lat="47.19351" lon="16.02998">
        <ele>437.706638</ele>
        <time>2026-07-08T10:32:20.000Z</time>
      </trkpt>
      <trkpt lat="47.19344" lon="16.03003">
        <ele>437.530889</ele>
        <time>2026-07-08T10:32:21.000Z</time>
      </trkpt>
      <trkpt lat="47.19337" lon="16.03009">
        <ele>437.35404</ele>
        <time>2026-07-08T10:32:22.000Z</time>
      </trkpt>
      <trkpt lat="47.19331" lon="16.03015">
        <ele>437.181865</ele>
        <time>2026-07-08T10:32:23.000Z</time>
      </trkpt>
      <trkpt lat="47.19323" lon="16.03022">
        <ele>436.980804</ele>
        <time>2026-07-08T10:32:24.000Z</time>
      </trkpt>
      <trkpt lat="47.19315" lon="16.03029">
        <ele>436.779645</ele>
        <time>2026-07-08T10:32:25.000Z</time>
      </trkpt>
      <trkpt lat="47.19308" lon="16.03035">
        <ele>436.584779</ele>
        <time>2026-07-08T10:32:26.000Z</time>
      </trkpt>
      <trkpt lat="47.19301" lon="16.03042">
        <ele>436.393458</ele>
        <time>2026-07-08T10:32:27.000Z</time>
      </trkpt>
      <trkpt lat="47.19293" lon="16.03049">
        <ele>436.156539</ele>
        <time>2026-07-08T10:32:28.000Z</time>
      </trkpt>
      <trkpt lat="47.19285" lon="16.03056">
        <ele>435.813663</ele>
        <time>2026-07-08T10:32:29.000Z</time>
      </trkpt>
      <trkpt lat="47.19276" lon="16.03064">
        <ele>435.465336</ele>
        <time>2026-07-08T10:32:30.000Z</time>
      </trkpt>
      <trkpt lat="47.19268" lon="16.03072">
        <ele>435.121663</ele>
        <time>2026-07-08T10:32:31.000Z</time>
      </trkpt>
      <trkpt lat="47.1926" lon="16.03079">
        <ele>434.78598</ele>
        <time>2026-07-08T10:32:32.000Z</time>
      </trkpt>
      <trkpt lat="47.19252" lon="16.03086">
        <ele>434.479218</ele>
        <time>2026-07-08T10:32:33.000Z</time>
      </trkpt>
      <trkpt lat="47.19245" lon="16.03092">
        <ele>434.183547</ele>
        <time>2026-07-08T10:32:34.000Z</time>
      </trkpt>
      <trkpt lat="47.19237" lon="16.03096">
        <ele>433.882052</ele>
        <time>2026-07-08T10:32:35.000Z</time>
      </trkpt>
      <trkpt lat="47.19229" lon="16.031">
        <ele>433.587196</ele>
        <time>2026-07-08T10:32:36.000Z</time>
      </trkpt>
      <trkpt lat="47.19221" lon="16.03104">
        <ele>433.29234</ele>
        <time>2026-07-08T10:32:37.000Z</time>
      </trkpt>
      <trkpt lat="47.19213" lon="16.03109">
        <ele>432.989341</ele>
        <time>2026-07-08T10:32:38.000Z</time>
      </trkpt>
      <trkpt lat="47.19204" lon="16.03113">
        <ele>432.687868</ele>
        <time>2026-07-08T10:32:39.000Z</time>
      </trkpt>
      <trkpt lat="47.19196" lon="16.03116">
        <ele>432.375185</ele>
        <time>2026-07-08T10:32:40.000Z</time>
      </trkpt>
      <trkpt lat="47.19187" lon="16.0312">
        <ele>432.04297</ele>
        <time>2026-07-08T10:32:41.000Z</time>
      </trkpt>
      <trkpt lat="47.19178" lon="16.03124">
        <ele>431.716865</ele>
        <time>2026-07-08T10:32:42.000Z</time>
      </trkpt>
      <trkpt lat="47.19169" lon="16.03128">
        <ele>431.395449</ele>
        <time>2026-07-08T10:32:43.000Z</time>
      </trkpt>
      <trkpt lat="47.1916" lon="16.03131">
        <ele>431.069344</ele>
        <time>2026-07-08T10:32:44.000Z</time>
      </trkpt>
      <trkpt lat="47.19151" lon="16.03135">
        <ele>430.752643</ele>
        <time>2026-07-08T10:32:45.000Z</time>
      </trkpt>
      <trkpt lat="47.19142" lon="16.03139">
        <ele>430.432366</ele>
        <time>2026-07-08T10:32:46.000Z</time>
      </trkpt>
      <trkpt lat="47.19134" lon="16.03143">
        <ele>430.119683</ele>
        <time>2026-07-08T10:32:47.000Z</time>
      </trkpt>
      <trkpt lat="47.19125" lon="16.03147">
        <ele>429.801099</ele>
        <time>2026-07-08T10:32:48.000Z</time>
      </trkpt>
      <trkpt lat="47.19116" lon="16.03151">
        <ele>429.473399</ele>
        <time>2026-07-08T10:32:49.000Z</time>
      </trkpt>
      <trkpt lat="47.19107" lon="16.03154">
        <ele>429.147594</ele>
        <time>2026-07-08T10:32:50.000Z</time>
      </trkpt>
      <trkpt lat="47.19098" lon="16.03158">
        <ele>428.827277</ele>
        <time>2026-07-08T10:32:51.000Z</time>
      </trkpt>
      <trkpt lat="47.19089" lon="16.03161">
        <ele>428.502655</ele>
        <time>2026-07-08T10:32:52.000Z</time>
      </trkpt>
      <trkpt lat="47.1908" lon="16.03165">
        <ele>428.174291</ele>
        <time>2026-07-08T10:32:53.000Z</time>
      </trkpt>
      <trkpt lat="47.19071" lon="16.03169">
        <ele>427.849953</ele>
        <time>2026-07-08T10:32:54.000Z</time>
      </trkpt>
      <trkpt lat="47.19063" lon="16.03173">
        <ele>427.53091</ele>
        <time>2026-07-08T10:32:55.000Z</time>
      </trkpt>
      <trkpt lat="47.19054" lon="16.03175">
        <ele>427.208956</ele>
        <time>2026-07-08T10:32:56.000Z</time>
      </trkpt>
      <trkpt lat="47.19045" lon="16.03178">
        <ele>426.887486</ele>
        <time>2026-07-08T10:32:57.000Z</time>
      </trkpt>
      <trkpt lat="47.19036" lon="16.0318">
        <ele>426.575082</ele>
        <time>2026-07-08T10:32:58.000Z</time>
      </trkpt>
      <trkpt lat="47.19027" lon="16.03182">
        <ele>426.267595</ele>
        <time>2026-07-08T10:32:59.000Z</time>
      </trkpt>
      <trkpt lat="47.19018" lon="16.03183">
        <ele>425.944342</ele>
        <time>2026-07-08T10:33:00.000Z</time>
      </trkpt>
      <trkpt lat="47.19008" lon="16.03184">
        <ele>425.611545</ele>
        <time>2026-07-08T10:33:01.000Z</time>
      </trkpt>
      <trkpt lat="47.18999" lon="16.03184">
        <ele>425.285915</ele>
        <time>2026-07-08T10:33:02.000Z</time>
      </trkpt>
      <trkpt lat="47.18989" lon="16.03184">
        <ele>424.946425</ele>
        <time>2026-07-08T10:33:03.000Z</time>
      </trkpt>
      <trkpt lat="47.1898" lon="16.03183">
        <ele>424.609753</ele>
        <time>2026-07-08T10:33:04.000Z</time>
      </trkpt>
      <trkpt lat="47.1897" lon="16.03181">
        <ele>424.271988</ele>
        <time>2026-07-08T10:33:05.000Z</time>
      </trkpt>
      <trkpt lat="47.18961" lon="16.03178">
        <ele>423.937236</ele>
        <time>2026-07-08T10:33:06.000Z</time>
      </trkpt>
      <trkpt lat="47.18951" lon="16.03176">
        <ele>423.658391</ele>
        <time>2026-07-08T10:33:07.000Z</time>
      </trkpt>
      <trkpt lat="47.18943" lon="16.03173">
        <ele>423.577435</ele>
        <time>2026-07-08T10:33:08.000Z</time>
      </trkpt>
      <trkpt lat="47.18934" lon="16.0317">
        <ele>423.497488</ele>
        <time>2026-07-08T10:33:09.000Z</time>
      </trkpt>
      <trkpt lat="47.18925" lon="16.03167">
        <ele>423.419018</ele>
        <time>2026-07-08T10:33:10.000Z</time>
      </trkpt>
      <trkpt lat="47.18917" lon="16.03165">
        <ele>423.344721</ele>
        <time>2026-07-08T10:33:11.000Z</time>
      </trkpt>
      <trkpt lat="47.18909" lon="16.03162">
        <ele>423.269896</ele>
        <time>2026-07-08T10:33:12.000Z</time>
      </trkpt>
      <trkpt lat="47.18901" lon="16.0316">
        <ele>423.196721</ele>
        <time>2026-07-08T10:33:13.000Z</time>
      </trkpt>
      <trkpt lat="47.18893" lon="16.03158">
        <ele>423.125057</ele>
        <time>2026-07-08T10:33:14.000Z</time>
      </trkpt>
      <trkpt lat="47.18886" lon="16.03155">
        <ele>423.053998</ele>
        <time>2026-07-08T10:33:15.000Z</time>
      </trkpt>
      <trkpt lat="47.18878" lon="16.03152">
        <ele>422.981467</ele>
        <time>2026-07-08T10:33:16.000Z</time>
      </trkpt>
      <trkpt lat="47.1887" lon="16.03149">
        <ele>422.912228</ele>
        <time>2026-07-08T10:33:17.000Z</time>
      </trkpt>
      <trkpt lat="47.18863" lon="16.03146">
        <ele>422.845209</ele>
        <time>2026-07-08T10:33:18.000Z</time>
      </trkpt>
      <trkpt lat="47.18856" lon="16.03144">
        <ele>422.777925</ele>
        <time>2026-07-08T10:33:19.000Z</time>
      </trkpt>
      <trkpt lat="47.18849" lon="16.03142">
        <ele>422.711911</ele>
        <time>2026-07-08T10:33:20.000Z</time>
      </trkpt>
      <trkpt lat="47.18842" lon="16.03139">
        <ele>422.647523</ele>
        <time>2026-07-08T10:33:21.000Z</time>
      </trkpt>
      <trkpt lat="47.18835" lon="16.03136">
        <ele>422.583967</ele>
        <time>2026-07-08T10:33:22.000Z</time>
      </trkpt>
      <trkpt lat="47.18828" lon="16.03134">
        <ele>422.521764</ele>
        <time>2026-07-08T10:33:23.000Z</time>
      </trkpt>
      <trkpt lat="47.18822" lon="16.03131">
        <ele>422.460789</ele>
        <time>2026-07-08T10:33:24.000Z</time>
      </trkpt>
      <trkpt lat="47.18815" lon="16.03129">
        <ele>422.396657</ele>
        <time>2026-07-08T10:33:25.000Z</time>
      </trkpt>
      <trkpt lat="47.18808" lon="16.03127">
        <ele>422.339403</ele>
        <time>2026-07-08T10:33:26.000Z</time>
      </trkpt>
      <trkpt lat="47.18803" lon="16.03124">
        <ele>422.285148</ele>
        <time>2026-07-08T10:33:27.000Z</time>
      </trkpt>
      <trkpt lat="47.18797" lon="16.03122">
        <ele>422.229167</ele>
        <time>2026-07-08T10:33:28.000Z</time>
      </trkpt>
      <trkpt lat="47.18791" lon="16.03119">
        <ele>422.175398</ele>
        <time>2026-07-08T10:33:29.000Z</time>
      </trkpt>
      <trkpt lat="47.18785" lon="16.03117">
        <ele>422.120606</ele>
        <time>2026-07-08T10:33:30.000Z</time>
      </trkpt>
      <trkpt lat="47.18779" lon="16.03115">
        <ele>422.064554</ele>
        <time>2026-07-08T10:33:31.000Z</time>
      </trkpt>
      <trkpt lat="47.18773" lon="16.03112">
        <ele>422.155126</ele>
        <time>2026-07-08T10:33:32.000Z</time>
      </trkpt>
      <trkpt lat="47.18767" lon="16.0311">
        <ele>422.248347</ele>
        <time>2026-07-08T10:33:33.000Z</time>
      </trkpt>
      <trkpt lat="47.18761" lon="16.03106">
        <ele>422.345071</ele>
        <time>2026-07-08T10:33:34.000Z</time>
      </trkpt>
      <trkpt lat="47.18756" lon="16.03103">
        <ele>422.434957</ele>
        <time>2026-07-08T10:33:35.000Z</time>
      </trkpt>
      <trkpt lat="47.18751" lon="16.031">
        <ele>422.520757</ele>
        <time>2026-07-08T10:33:36.000Z</time>
      </trkpt>
      <trkpt lat="47.18745" lon="16.03096">
        <ele>422.61118</ele>
        <time>2026-07-08T10:33:37.000Z</time>
      </trkpt>
      <trkpt lat="47.1874" lon="16.03093">
        <ele>422.696028</ele>
        <time>2026-07-08T10:33:38.000Z</time>
      </trkpt>
      <trkpt lat="47.18735" lon="16.0309">
        <ele>422.778774</ele>
        <time>2026-07-08T10:33:39.000Z</time>
      </trkpt>
      <trkpt lat="47.1873" lon="16.03087">
        <ele>422.864062</ele>
        <time>2026-07-08T10:33:40.000Z</time>
      </trkpt>
      <trkpt lat="47.18725" lon="16.03085">
        <ele>422.951683</ele>
        <time>2026-07-08T10:33:41.000Z</time>
      </trkpt>
      <trkpt lat="47.1872" lon="16.03083">
        <ele>423.032606</ele>
        <time>2026-07-08T10:33:42.000Z</time>
      </trkpt>
      <trkpt lat="47.18715" lon="16.0308">
        <ele>423.110633</ele>
        <time>2026-07-08T10:33:43.000Z</time>
      </trkpt>
      <trkpt lat="47.18711" lon="16.03077">
        <ele>423.180869</ele>
        <time>2026-07-08T10:33:44.000Z</time>
      </trkpt>
      <trkpt lat="47.18706" lon="16.03075">
        <ele>423.259994</ele>
        <time>2026-07-08T10:33:45.000Z</time>
      </trkpt>
      <trkpt lat="47.18701" lon="16.03072">
        <ele>423.331548</ele>
        <time>2026-07-08T10:33:46.000Z</time>
      </trkpt>
      <trkpt lat="47.18697" lon="16.0307">
        <ele>423.402399</ele>
        <time>2026-07-08T10:33:47.000Z</time>
      </trkpt>
      <trkpt lat="47.18693" lon="16.03067">
        <ele>423.472873</ele>
        <time>2026-07-08T10:33:48.000Z</time>
      </trkpt>
      <trkpt lat="47.18688" lon="16.03066">
        <ele>423.543816</ele>
        <time>2026-07-08T10:33:49.000Z</time>
      </trkpt>
      <trkpt lat="47.18684" lon="16.03065">
        <ele>423.605825</ele>
        <time>2026-07-08T10:33:50.000Z</time>
      </trkpt>
      <trkpt lat="47.1868" lon="16.03064">
        <ele>423.673764</ele>
        <time>2026-07-08T10:33:51.000Z</time>
      </trkpt>
      <trkpt lat="47.18675" lon="16.03063">
        <ele>423.744631</ele>
        <time>2026-07-08T10:33:52.000Z</time>
      </trkpt>
      <trkpt lat="47.18671" lon="16.03063">
        <ele>423.817134</ele>
        <time>2026-07-08T10:33:53.000Z</time>
      </trkpt>
      <trkpt lat="47.18666" lon="16.03062">
        <ele>423.889638</ele>
        <time>2026-07-08T10:33:54.000Z</time>
      </trkpt>
      <trkpt lat="47.18661" lon="16.03061">
        <ele>423.968481</ele>
        <time>2026-07-08T10:33:55.000Z</time>
      </trkpt>
      <trkpt lat="47.18656" lon="16.0306">
        <ele>424.044152</ele>
        <time>2026-07-08T10:33:56.000Z</time>
      </trkpt>
      <trkpt lat="47.18651" lon="16.03059">
        <ele>424.125796</ele>
        <time>2026-07-08T10:33:57.000Z</time>
      </trkpt>
      <trkpt lat="47.18645" lon="16.03059">
        <ele>424.207181</ele>
        <time>2026-07-08T10:33:58.000Z</time>
      </trkpt>
      <trkpt lat="47.1864" lon="16.03058">
        <ele>424.286927</ele>
        <time>2026-07-08T10:33:59.000Z</time>
      </trkpt>
      <trkpt lat="47.18634" lon="16.03058">
        <ele>424.374429</ele>
        <time>2026-07-08T10:34:00.000Z</time>
      </trkpt>
      <trkpt lat="47.18629" lon="16.03057">
        <ele>424.455814</ele>
        <time>2026-07-08T10:34:01.000Z</time>
      </trkpt>
      <trkpt lat="47.18624" lon="16.03056">
        <ele>424.537571</ele>
        <time>2026-07-08T10:34:02.000Z</time>
      </trkpt>
      <trkpt lat="47.18618" lon="16.03056">
        <ele>424.620739</ele>
        <time>2026-07-08T10:34:03.000Z</time>
      </trkpt>
      <trkpt lat="47.18613" lon="16.03055">
        <ele>424.702123</ele>
        <time>2026-07-08T10:34:04.000Z</time>
      </trkpt>
      <trkpt lat="47.18608" lon="16.03054">
        <ele>424.782141</ele>
        <time>2026-07-08T10:34:05.000Z</time>
      </trkpt>
      <trkpt lat="47.18603" lon="16.03054">
        <ele>424.831916</ele>
        <time>2026-07-08T10:34:06.000Z</time>
      </trkpt>
      <trkpt lat="47.18598" lon="16.03053">
        <ele>424.854096</ele>
        <time>2026-07-08T10:34:07.000Z</time>
      </trkpt>
      <trkpt lat="47.18593" lon="16.03052">
        <ele>424.876374</ele>
        <time>2026-07-08T10:34:08.000Z</time>
      </trkpt>
      <trkpt lat="47.18588" lon="16.03052">
        <ele>424.89953</ele>
        <time>2026-07-08T10:34:09.000Z</time>
      </trkpt>
      <trkpt lat="47.18583" lon="16.03051">
        <ele>424.922196</ele>
        <time>2026-07-08T10:34:10.000Z</time>
      </trkpt>
      <trkpt lat="47.18579" lon="16.0305">
        <ele>424.944563</ele>
        <time>2026-07-08T10:34:11.000Z</time>
      </trkpt>
      <trkpt lat="47.18574" lon="16.03049">
        <ele>424.967887</ele>
        <time>2026-07-08T10:34:12.000Z</time>
      </trkpt>
      <trkpt lat="47.18569" lon="16.03047">
        <ele>424.98985</ele>
        <time>2026-07-08T10:34:13.000Z</time>
      </trkpt>
      <trkpt lat="47.18564" lon="16.03046">
        <ele>425.010852</ele>
        <time>2026-07-08T10:34:14.000Z</time>
      </trkpt>
      <trkpt lat="47.1856" lon="16.03045">
        <ele>425.031199</ele>
        <time>2026-07-08T10:34:15.000Z</time>
      </trkpt>
      <trkpt lat="47.18556" lon="16.03043">
        <ele>425.052753</ele>
        <time>2026-07-08T10:34:16.000Z</time>
      </trkpt>
      <trkpt lat="47.18551" lon="16.03041">
        <ele>425.0731</ele>
        <time>2026-07-08T10:34:17.000Z</time>
      </trkpt>
      <trkpt lat="47.18547" lon="16.0304">
        <ele>425.094214</ele>
        <time>2026-07-08T10:34:18.000Z</time>
      </trkpt>
      <trkpt lat="47.18542" lon="16.03039">
        <ele>425.114817</ele>
        <time>2026-07-08T10:34:19.000Z</time>
      </trkpt>
      <trkpt lat="47.18538" lon="16.03038">
        <ele>425.135028</ele>
        <time>2026-07-08T10:34:20.000Z</time>
      </trkpt>
      <trkpt lat="47.18534" lon="16.03036">
        <ele>425.155179</ele>
        <time>2026-07-08T10:34:21.000Z</time>
      </trkpt>
      <trkpt lat="47.18529" lon="16.03035">
        <ele>425.175974</ele>
        <time>2026-07-08T10:34:22.000Z</time>
      </trkpt>
      <trkpt lat="47.18525" lon="16.03034">
        <ele>425.195284</ele>
        <time>2026-07-08T10:34:23.000Z</time>
      </trkpt>
      <trkpt lat="47.18521" lon="16.03032">
        <ele>425.214289</ele>
        <time>2026-07-08T10:34:24.000Z</time>
      </trkpt>
      <trkpt lat="47.18517" lon="16.03031">
        <ele>425.233149</ele>
        <time>2026-07-08T10:34:25.000Z</time>
      </trkpt>
      <trkpt lat="47.18514" lon="16.03029">
        <ele>425.250739</ele>
        <time>2026-07-08T10:34:26.000Z</time>
      </trkpt>
      <trkpt lat="47.1851" lon="16.03028">
        <ele>425.266467</ele>
        <time>2026-07-08T10:34:27.000Z</time>
      </trkpt>
      <trkpt lat="47.18507" lon="16.03027">
        <ele>425.28193</ele>
        <time>2026-07-08T10:34:28.000Z</time>
      </trkpt>
      <trkpt lat="47.18504" lon="16.03025">
        <ele>425.295848</ele>
        <time>2026-07-08T10:34:29.000Z</time>
      </trkpt>
      <trkpt lat="47.18502" lon="16.03023">
        <ele>425.308949</ele>
        <time>2026-07-08T10:34:30.000Z</time>
      </trkpt>
      <trkpt lat="47.18499" lon="16.03021">
        <ele>425.322457</ele>
        <time>2026-07-08T10:34:31.000Z</time>
      </trkpt>
      <trkpt lat="47.18496" lon="16.03019">
        <ele>425.336948</ele>
        <time>2026-07-08T10:34:32.000Z</time>
      </trkpt>
      <trkpt lat="47.18494" lon="16.03017">
        <ele>425.350314</ele>
        <time>2026-07-08T10:34:33.000Z</time>
      </trkpt>
      <trkpt lat="47.1849" lon="16.03015">
        <ele>425.367384</ele>
        <time>2026-07-08T10:34:34.000Z</time>
      </trkpt>
      <trkpt lat="47.18487" lon="16.03013">
        <ele>425.384455</ele>
        <time>2026-07-08T10:34:35.000Z</time>
      </trkpt>
      <trkpt lat="47.18483" lon="16.03011">
        <ele>425.4032</ele>
        <time>2026-07-08T10:34:36.000Z</time>
      </trkpt>
      <trkpt lat="47.18479" lon="16.03008">
        <ele>425.423209</ele>
        <time>2026-07-08T10:34:37.000Z</time>
      </trkpt>
      <trkpt lat="47.18475" lon="16.03005">
        <ele>425.443368</ele>
        <time>2026-07-08T10:34:38.000Z</time>
      </trkpt>
      <trkpt lat="47.18471" lon="16.03002">
        <ele>425.465144</ele>
        <time>2026-07-08T10:34:39.000Z</time>
      </trkpt>
      <trkpt lat="47.18467" lon="16.02998">
        <ele>425.487523</ele>
        <time>2026-07-08T10:34:40.000Z</time>
      </trkpt>
      <trkpt lat="47.18463" lon="16.02994">
        <ele>425.510945</ele>
        <time>2026-07-08T10:34:41.000Z</time>
      </trkpt>
      <trkpt lat="47.18458" lon="16.0299">
        <ele>425.534991</ele>
        <time>2026-07-08T10:34:42.000Z</time>
      </trkpt>
      <trkpt lat="47.18453" lon="16.02987">
        <ele>425.559796</ele>
        <time>2026-07-08T10:34:43.000Z</time>
      </trkpt>
      <trkpt lat="47.18448" lon="16.02983">
        <ele>425.585153</ele>
        <time>2026-07-08T10:34:44.000Z</time>
      </trkpt>
      <trkpt lat="47.18443" lon="16.02979">
        <ele>425.611356</ele>
        <time>2026-07-08T10:34:45.000Z</time>
      </trkpt>
      <trkpt lat="47.18438" lon="16.02975">
        <ele>425.638781</ele>
        <time>2026-07-08T10:34:46.000Z</time>
      </trkpt>
      <trkpt lat="47.18432" lon="16.02971">
        <ele>425.573162</ele>
        <time>2026-07-08T10:34:47.000Z</time>
      </trkpt>
      <trkpt lat="47.18427" lon="16.02967">
        <ele>425.457885</ele>
        <time>2026-07-08T10:34:48.000Z</time>
      </trkpt>
      <trkpt lat="47.1842" lon="16.02963">
        <ele>425.33404</ele>
        <time>2026-07-08T10:34:49.000Z</time>
      </trkpt>
      <trkpt lat="47.18414" lon="16.02958">
        <ele>425.202701</ele>
        <time>2026-07-08T10:34:50.000Z</time>
      </trkpt>
      <trkpt lat="47.18406" lon="16.02953">
        <ele>425.062237</ele>
        <time>2026-07-08T10:34:51.000Z</time>
      </trkpt>
      <trkpt lat="47.18399" lon="16.02949">
        <ele>424.921095</ele>
        <time>2026-07-08T10:34:52.000Z</time>
      </trkpt>
      <trkpt lat="47.18391" lon="16.02945">
        <ele>424.770027</ele>
        <time>2026-07-08T10:34:53.000Z</time>
      </trkpt>
      <trkpt lat="47.18383" lon="16.02941">
        <ele>424.61777</ele>
        <time>2026-07-08T10:34:54.000Z</time>
      </trkpt>
      <trkpt lat="47.18375" lon="16.02938">
        <ele>424.464762</ele>
        <time>2026-07-08T10:34:55.000Z</time>
      </trkpt>
      <trkpt lat="47.18366" lon="16.02935">
        <ele>424.313478</ele>
        <time>2026-07-08T10:34:56.000Z</time>
      </trkpt>
      <trkpt lat="47.18358" lon="16.02932">
        <ele>424.1651</ele>
        <time>2026-07-08T10:34:57.000Z</time>
      </trkpt>
      <trkpt lat="47.1835" lon="16.0293">
        <ele>424.015766</ele>
        <time>2026-07-08T10:34:58.000Z</time>
      </trkpt>
      <trkpt lat="47.18342" lon="16.02927">
        <ele>423.865153</ele>
        <time>2026-07-08T10:34:59.000Z</time>
      </trkpt>
      <trkpt lat="47.18334" lon="16.02925">
        <ele>423.715818</ele>
        <time>2026-07-08T10:35:00.000Z</time>
      </trkpt>
      <trkpt lat="47.18326" lon="16.02922">
        <ele>423.573461</ele>
        <time>2026-07-08T10:35:01.000Z</time>
      </trkpt>
      <trkpt lat="47.18318" lon="16.0292">
        <ele>423.432846</ele>
        <time>2026-07-08T10:35:02.000Z</time>
      </trkpt>
      <trkpt lat="47.18311" lon="16.02916">
        <ele>423.297625</ele>
        <time>2026-07-08T10:35:03.000Z</time>
      </trkpt>
      <trkpt lat="47.18304" lon="16.02913">
        <ele>423.172517</ele>
        <time>2026-07-08T10:35:04.000Z</time>
      </trkpt>
      <trkpt lat="47.18299" lon="16.02909">
        <ele>423.066132</ele>
        <time>2026-07-08T10:35:05.000Z</time>
      </trkpt>
      <trkpt lat="47.18294" lon="16.02906">
        <ele>422.971642</ele>
        <time>2026-07-08T10:35:06.000Z</time>
      </trkpt>
      <trkpt lat="47.1829" lon="16.02902">
        <ele>422.891864</ele>
        <time>2026-07-08T10:35:07.000Z</time>
      </trkpt>
      <trkpt lat="47.18287" lon="16.02899">
        <ele>422.82071</ele>
        <time>2026-07-08T10:35:08.000Z</time>
      </trkpt>
      <trkpt lat="47.18284" lon="16.02896">
        <ele>422.752165</ele>
        <time>2026-07-08T10:35:09.000Z</time>
      </trkpt>
      <trkpt lat="47.1828" lon="16.02893">
        <ele>422.679559</ele>
        <time>2026-07-08T10:35:10.000Z</time>
      </trkpt>
      <trkpt lat="47.18276" lon="16.02892">
        <ele>422.602487</ele>
        <time>2026-07-08T10:35:11.000Z</time>
      </trkpt>
      <trkpt lat="47.18271" lon="16.02891">
        <ele>422.52114</ele>
        <time>2026-07-08T10:35:12.000Z</time>
      </trkpt>
      <trkpt lat="47.18267" lon="16.0289">
        <ele>422.441279</ele>
        <time>2026-07-08T10:35:13.000Z</time>
      </trkpt>
      <trkpt lat="47.18263" lon="16.0289">
        <ele>422.488775</ele>
        <time>2026-07-08T10:35:14.000Z</time>
      </trkpt>
      <trkpt lat="47.18258" lon="16.0289">
        <ele>422.53843</ele>
        <time>2026-07-08T10:35:15.000Z</time>
      </trkpt>
      <trkpt lat="47.18254" lon="16.02891">
        <ele>422.586461</ele>
        <time>2026-07-08T10:35:16.000Z</time>
      </trkpt>
      <trkpt lat="47.18249" lon="16.02893">
        <ele>422.637055</ele>
        <time>2026-07-08T10:35:17.000Z</time>
      </trkpt>
      <trkpt lat="47.18245" lon="16.02895">
        <ele>422.684262</ele>
        <time>2026-07-08T10:35:18.000Z</time>
      </trkpt>
      <trkpt lat="47.18241" lon="16.02896">
        <ele>422.730412</ele>
        <time>2026-07-08T10:35:19.000Z</time>
      </trkpt>
      <trkpt lat="47.18237" lon="16.02899">
        <ele>422.780124</ele>
        <time>2026-07-08T10:35:20.000Z</time>
      </trkpt>
      <trkpt lat="47.18233" lon="16.02902">
        <ele>422.828997</ele>
        <time>2026-07-08T10:35:21.000Z</time>
      </trkpt>
      <trkpt lat="47.18229" lon="16.02904">
        <ele>422.875887</ele>
        <time>2026-07-08T10:35:22.000Z</time>
      </trkpt>
      <trkpt lat="47.18225" lon="16.02908">
        <ele>422.926121</ele>
        <time>2026-07-08T10:35:23.000Z</time>
      </trkpt>
      <trkpt lat="47.18221" lon="16.02911">
        <ele>422.976523</ele>
        <time>2026-07-08T10:35:24.000Z</time>
      </trkpt>
      <trkpt lat="47.18217" lon="16.02914">
        <ele>423.02712</ele>
        <time>2026-07-08T10:35:25.000Z</time>
      </trkpt>
      <trkpt lat="47.18213" lon="16.02918">
        <ele>423.077355</ele>
        <time>2026-07-08T10:35:26.000Z</time>
      </trkpt>
      <trkpt lat="47.18209" lon="16.02921">
        <ele>423.12759</ele>
        <time>2026-07-08T10:35:27.000Z</time>
      </trkpt>
      <trkpt lat="47.18205" lon="16.02924">
        <ele>423.178449</ele>
        <time>2026-07-08T10:35:28.000Z</time>
      </trkpt>
      <trkpt lat="47.18201" lon="16.02927">
        <ele>423.230633</ele>
        <time>2026-07-08T10:35:29.000Z</time>
      </trkpt>
      <trkpt lat="47.18197" lon="16.0293">
        <ele>423.283139</ele>
        <time>2026-07-08T10:35:30.000Z</time>
      </trkpt>
      <trkpt lat="47.18192" lon="16.02933">
        <ele>423.336758</ele>
        <time>2026-07-08T10:35:31.000Z</time>
      </trkpt>
      <trkpt lat="47.18188" lon="16.02935">
        <ele>423.389829</ele>
        <time>2026-07-08T10:35:32.000Z</time>
      </trkpt>
      <trkpt lat="47.18183" lon="16.02937">
        <ele>423.441694</ele>
        <time>2026-07-08T10:35:33.000Z</time>
      </trkpt>
      <trkpt lat="47.18179" lon="16.02939">
        <ele>423.495888</ele>
        <time>2026-07-08T10:35:34.000Z</time>
      </trkpt>
      <trkpt lat="47.18174" lon="16.02942">
        <ele>423.548207</ele>
        <time>2026-07-08T10:35:35.000Z</time>
      </trkpt>
      <trkpt lat="47.18169" lon="16.02944">
        <ele>423.602856</ele>
        <time>2026-07-08T10:35:36.000Z</time>
      </trkpt>
      <trkpt lat="47.18165" lon="16.02947">
        <ele>423.657498</ele>
        <time>2026-07-08T10:35:37.000Z</time>
      </trkpt>
      <trkpt lat="47.1816" lon="16.02949">
        <ele>423.712639</ele>
        <time>2026-07-08T10:35:38.000Z</time>
      </trkpt>
      <trkpt lat="47.18155" lon="16.02951">
        <ele>423.767288</ele>
        <time>2026-07-08T10:35:39.000Z</time>
      </trkpt>
      <trkpt lat="47.18151" lon="16.02954">
        <ele>423.823985</ele>
        <time>2026-07-08T10:35:40.000Z</time>
      </trkpt>
      <trkpt lat="47.18146" lon="16.02957">
        <ele>423.881525</ele>
        <time>2026-07-08T10:35:41.000Z</time>
      </trkpt>
      <trkpt lat="47.18141" lon="16.0296">
        <ele>423.941101</ele>
        <time>2026-07-08T10:35:42.000Z</time>
      </trkpt>
      <trkpt lat="47.18136" lon="16.02963">
        <ele>423.999098</ele>
        <time>2026-07-08T10:35:43.000Z</time>
      </trkpt>
      <trkpt lat="47.18131" lon="16.02965">
        <ele>424.057363</ele>
        <time>2026-07-08T10:35:44.000Z</time>
      </trkpt>
      <trkpt lat="47.18126" lon="16.02968">
        <ele>424.116673</ele>
        <time>2026-07-08T10:35:45.000Z</time>
      </trkpt>
      <trkpt lat="47.18121" lon="16.0297">
        <ele>424.1747</ele>
        <time>2026-07-08T10:35:46.000Z</time>
      </trkpt>
      <trkpt lat="47.18116" lon="16.02973">
        <ele>424.235058</ele>
        <time>2026-07-08T10:35:47.000Z</time>
      </trkpt>
      <trkpt lat="47.1811" lon="16.02975">
        <ele>424.294967</ele>
        <time>2026-07-08T10:35:48.000Z</time>
      </trkpt>
      <trkpt lat="47.18105" lon="16.02977">
        <ele>424.352766</ele>
        <time>2026-07-08T10:35:49.000Z</time>
      </trkpt>
      <trkpt lat="47.181" lon="16.0298">
        <ele>424.411843</ele>
        <time>2026-07-08T10:35:50.000Z</time>
      </trkpt>
      <trkpt lat="47.18095" lon="16.02982">
        <ele>424.383915</ele>
        <time>2026-07-08T10:35:51.000Z</time>
      </trkpt>
      <trkpt lat="47.1809" lon="16.02984">
        <ele>424.329811</ele>
        <time>2026-07-08T10:35:52.000Z</time>
      </trkpt>
      <trkpt lat="47.18085" lon="16.02985">
        <ele>424.275873</ele>
        <time>2026-07-08T10:35:53.000Z</time>
      </trkpt>
      <trkpt lat="47.1808" lon="16.02987">
        <ele>424.218361</ele>
        <time>2026-07-08T10:35:54.000Z</time>
      </trkpt>
      <trkpt lat="47.18074" lon="16.02988">
        <ele>424.15929</ele>
        <time>2026-07-08T10:35:55.000Z</time>
      </trkpt>
      <trkpt lat="47.18069" lon="16.0299">
        <ele>424.10074</ele>
        <time>2026-07-08T10:35:56.000Z</time>
      </trkpt>
      <trkpt lat="47.18063" lon="16.02991">
        <ele>424.040913</ele>
        <time>2026-07-08T10:35:57.000Z</time>
      </trkpt>
      <trkpt lat="47.18058" lon="16.02992">
        <ele>423.980287</ele>
        <time>2026-07-08T10:35:58.000Z</time>
      </trkpt>
      <trkpt lat="47.18052" lon="16.02994">
        <ele>423.918725</ele>
        <time>2026-07-08T10:35:59.000Z</time>
      </trkpt>
      <trkpt lat="47.18046" lon="16.02995">
        <ele>423.858204</ele>
        <time>2026-07-08T10:36:00.000Z</time>
      </trkpt>
      <trkpt lat="47.1804" lon="16.02996">
        <ele>423.796738</ele>
        <time>2026-07-08T10:36:01.000Z</time>
      </trkpt>
      <trkpt lat="47.18034" lon="16.02997">
        <ele>423.733271</ele>
        <time>2026-07-08T10:36:02.000Z</time>
      </trkpt>
      <trkpt lat="47.18028" lon="16.02998">
        <ele>423.669627</ele>
        <time>2026-07-08T10:36:03.000Z</time>
      </trkpt>
      <trkpt lat="47.18022" lon="16.02999">
        <ele>423.604211</ele>
        <time>2026-07-08T10:36:04.000Z</time>
      </trkpt>
      <trkpt lat="47.18016" lon="16.03">
        <ele>423.538853</ele>
        <time>2026-07-08T10:36:05.000Z</time>
      </trkpt>
      <trkpt lat="47.1801" lon="16.03">
        <ele>423.47239</ele>
        <time>2026-07-08T10:36:06.000Z</time>
      </trkpt>
      <trkpt lat="47.18003" lon="16.03001">
        <ele>423.403977</ele>
        <time>2026-07-08T10:36:07.000Z</time>
      </trkpt>
      <trkpt lat="47.17996" lon="16.03001">
        <ele>423.333498</ele>
        <time>2026-07-08T10:36:08.000Z</time>
      </trkpt>
      <trkpt lat="47.1799" lon="16.03002">
        <ele>423.261993</ele>
        <time>2026-07-08T10:36:09.000Z</time>
      </trkpt>
      <trkpt lat="47.17983" lon="16.03002">
        <ele>423.191394</ele>
        <time>2026-07-08T10:36:10.000Z</time>
      </trkpt>
      <trkpt lat="47.17976" lon="16.03003">
        <ele>423.119694</ele>
        <time>2026-07-08T10:36:11.000Z</time>
      </trkpt>
      <trkpt lat="47.17969" lon="16.03004">
        <ele>423.049095</ele>
        <time>2026-07-08T10:36:12.000Z</time>
      </trkpt>
      <trkpt lat="47.17963" lon="16.03005">
        <ele>422.977394</ele>
        <time>2026-07-08T10:36:13.000Z</time>
      </trkpt>
      <trkpt lat="47.17956" lon="16.03006">
        <ele>422.905566</ele>
        <time>2026-07-08T10:36:14.000Z</time>
      </trkpt>
      <trkpt lat="47.17949" lon="16.03007">
        <ele>422.83245</ele>
        <time>2026-07-08T10:36:15.000Z</time>
      </trkpt>
      <trkpt lat="47.17942" lon="16.03008">
        <ele>422.762552</ele>
        <time>2026-07-08T10:36:16.000Z</time>
      </trkpt>
      <trkpt lat="47.17935" lon="16.03009">
        <ele>422.689436</ele>
        <time>2026-07-08T10:36:17.000Z</time>
      </trkpt>
      <trkpt lat="47.17929" lon="16.03011">
        <ele>422.617267</ele>
        <time>2026-07-08T10:36:18.000Z</time>
      </trkpt>
      <trkpt lat="47.17922" lon="16.03012">
        <ele>422.544887</ele>
        <time>2026-07-08T10:36:19.000Z</time>
      </trkpt>
      <trkpt lat="47.17915" lon="16.03014">
        <ele>422.45887</ele>
        <time>2026-07-08T10:36:20.000Z</time>
      </trkpt>
      <trkpt lat="47.17908" lon="16.03016">
        <ele>422.372169</ele>
        <time>2026-07-08T10:36:21.000Z</time>
      </trkpt>
      <trkpt lat="47.17901" lon="16.03018">
        <ele>422.288797</ele>
        <time>2026-07-08T10:36:22.000Z</time>
      </trkpt>
      <trkpt lat="47.17894" lon="16.0302">
        <ele>422.201945</ele>
        <time>2026-07-08T10:36:23.000Z</time>
      </trkpt>
      <trkpt lat="47.17888" lon="16.03022">
        <ele>422.116149</ele>
        <time>2026-07-08T10:36:24.000Z</time>
      </trkpt>
      <trkpt lat="47.17881" lon="16.03024">
        <ele>422.030183</ele>
        <time>2026-07-08T10:36:25.000Z</time>
      </trkpt>
      <trkpt lat="47.17874" lon="16.03026">
        <ele>421.942263</ele>
        <time>2026-07-08T10:36:26.000Z</time>
      </trkpt>
      <trkpt lat="47.17867" lon="16.03029">
        <ele>421.85512</ele>
        <time>2026-07-08T10:36:27.000Z</time>
      </trkpt>
      <trkpt lat="47.1786" lon="16.03032">
        <ele>421.765587</ele>
        <time>2026-07-08T10:36:28.000Z</time>
      </trkpt>
      <trkpt lat="47.17853" lon="16.03035">
        <ele>421.675836</ele>
        <time>2026-07-08T10:36:29.000Z</time>
      </trkpt>
      <trkpt lat="47.17846" lon="16.03037">
        <ele>421.586303</ele>
        <time>2026-07-08T10:36:30.000Z</time>
      </trkpt>
      <trkpt lat="47.17839" lon="16.0304">
        <ele>421.493485</ele>
        <time>2026-07-08T10:36:31.000Z</time>
      </trkpt>
      <trkpt lat="47.17832" lon="16.03043">
        <ele>421.40351</ele>
        <time>2026-07-08T10:36:32.000Z</time>
      </trkpt>
      <trkpt lat="47.17825" lon="16.03046">
        <ele>421.31376</ele>
        <time>2026-07-08T10:36:33.000Z</time>
      </trkpt>
      <trkpt lat="47.17818" lon="16.03049">
        <ele>421.222365</ele>
        <time>2026-07-08T10:36:34.000Z</time>
      </trkpt>
      <trkpt lat="47.17811" lon="16.03052">
        <ele>421.132158</ele>
        <time>2026-07-08T10:36:35.000Z</time>
      </trkpt>
      <trkpt lat="47.17804" lon="16.03055">
        <ele>421.039573</ele>
        <time>2026-07-08T10:36:36.000Z</time>
      </trkpt>
      <trkpt lat="47.17796" lon="16.03058">
        <ele>420.946988</ele>
        <time>2026-07-08T10:36:37.000Z</time>
      </trkpt>
      <trkpt lat="47.17789" lon="16.03061">
        <ele>420.855593</ele>
        <time>2026-07-08T10:36:38.000Z</time>
      </trkpt>
      <trkpt lat="47.17782" lon="16.03064">
        <ele>420.762536</ele>
        <time>2026-07-08T10:36:39.000Z</time>
      </trkpt>
      <trkpt lat="47.17775" lon="16.03067">
        <ele>420.668531</ele>
        <time>2026-07-08T10:36:40.000Z</time>
      </trkpt>
      <trkpt lat="47.17768" lon="16.03071">
        <ele>420.575473</ele>
        <time>2026-07-08T10:36:41.000Z</time>
      </trkpt>
      <trkpt lat="47.1776" lon="16.03074">
        <ele>420.481231</ele>
        <time>2026-07-08T10:36:42.000Z</time>
      </trkpt>
      <trkpt lat="47.17753" lon="16.03077">
        <ele>420.386263</ele>
        <time>2026-07-08T10:36:43.000Z</time>
      </trkpt>
      <trkpt lat="47.17746" lon="16.0308">
        <ele>420.285507</ele>
        <time>2026-07-08T10:36:44.000Z</time>
      </trkpt>
      <trkpt lat="47.17738" lon="16.03083">
        <ele>420.146547</ele>
        <time>2026-07-08T10:36:45.000Z</time>
      </trkpt>
      <trkpt lat="47.17731" lon="16.03085">
        <ele>420.008205</ele>
        <time>2026-07-08T10:36:46.000Z</time>
      </trkpt>
      <trkpt lat="47.17723" lon="16.03088">
        <ele>419.869558</ele>
        <time>2026-07-08T10:36:47.000Z</time>
      </trkpt>
      <trkpt lat="47.17715" lon="16.03091">
        <ele>419.727144</ele>
        <time>2026-07-08T10:36:48.000Z</time>
      </trkpt>
      <trkpt lat="47.17708" lon="16.03094">
        <ele>419.587068</ele>
        <time>2026-07-08T10:36:49.000Z</time>
      </trkpt>
      <trkpt lat="47.177" lon="16.03097">
        <ele>419.442063</ele>
        <time>2026-07-08T10:36:50.000Z</time>
      </trkpt>
      <trkpt lat="47.17692" lon="16.03099">
        <ele>419.302827</ele>
        <time>2026-07-08T10:36:51.000Z</time>
      </trkpt>
      <trkpt lat="47.17685" lon="16.03101">
        <ele>419.16655</ele>
        <time>2026-07-08T10:36:52.000Z</time>
      </trkpt>
      <trkpt lat="47.17677" lon="16.03103">
        <ele>419.032032</ele>
        <time>2026-07-08T10:36:53.000Z</time>
      </trkpt>
      <trkpt lat="47.1767" lon="16.03105">
        <ele>418.902551</ele>
        <time>2026-07-08T10:36:54.000Z</time>
      </trkpt>
      <trkpt lat="47.17663" lon="16.03108">
        <ele>418.773168</ele>
        <time>2026-07-08T10:36:55.000Z</time>
      </trkpt>
      <trkpt lat="47.17656" lon="16.03111">
        <ele>418.645514</ele>
        <time>2026-07-08T10:36:56.000Z</time>
      </trkpt>
      <trkpt lat="47.17649" lon="16.03113">
        <ele>418.516434</ele>
        <time>2026-07-08T10:36:57.000Z</time>
      </trkpt>
      <trkpt lat="47.17643" lon="16.03117">
        <ele>418.391407</ele>
        <time>2026-07-08T10:36:58.000Z</time>
      </trkpt>
      <trkpt lat="47.17636" lon="16.0312">
        <ele>418.260514</ele>
        <time>2026-07-08T10:36:59.000Z</time>
      </trkpt>
      <trkpt lat="47.17629" lon="16.03124">
        <ele>418.134235</ele>
        <time>2026-07-08T10:37:00.000Z</time>
      </trkpt>
      <trkpt lat="47.17623" lon="16.03128">
        <ele>418.005852</ele>
        <time>2026-07-08T10:37:01.000Z</time>
      </trkpt>
      <trkpt lat="47.17616" lon="16.03132">
        <ele>417.879881</ele>
        <time>2026-07-08T10:37:02.000Z</time>
      </trkpt>
      <trkpt lat="47.1761" lon="16.03136">
        <ele>417.751443</ele>
        <time>2026-07-08T10:37:03.000Z</time>
      </trkpt>
      <trkpt lat="47.17603" lon="16.03141">
        <ele>417.62623</ele>
        <time>2026-07-08T10:37:04.000Z</time>
      </trkpt>
      <trkpt lat="47.17597" lon="16.03146">
        <ele>417.500397</ele>
        <time>2026-07-08T10:37:05.000Z</time>
      </trkpt>
      <trkpt lat="47.17591" lon="16.0315">
        <ele>417.383162</ele>
        <time>2026-07-08T10:37:06.000Z</time>
      </trkpt>
      <trkpt lat="47.17586" lon="16.03155">
        <ele>417.27651</ele>
        <time>2026-07-08T10:37:07.000Z</time>
      </trkpt>
      <trkpt lat="47.17582" lon="16.03158">
        <ele>417.191379</ele>
        <time>2026-07-08T10:37:08.000Z</time>
      </trkpt>
      <trkpt lat="47.17579" lon="16.03162">
        <ele>417.1222</ele>
        <time>2026-07-08T10:37:09.000Z</time>
      </trkpt>
      <trkpt lat="47.17576" lon="16.03164">
        <ele>417.072607</ele>
        <time>2026-07-08T10:37:10.000Z</time>
      </trkpt>
      <trkpt lat="47.17573" lon="16.03167">
        <ele>417.039093</ele>
        <time>2026-07-08T10:37:11.000Z</time>
      </trkpt>
      <trkpt lat="47.17571" lon="16.03169">
        <ele>417.012149</ele>
        <time>2026-07-08T10:37:12.000Z</time>
      </trkpt>
      <trkpt lat="47.1757" lon="16.03171">
        <ele>416.991719</ele>
        <time>2026-07-08T10:37:13.000Z</time>
      </trkpt>
      <trkpt lat="47.17569" lon="16.03172">
        <ele>416.97811</ele>
        <time>2026-07-08T10:37:14.000Z</time>
      </trkpt>
      <trkpt lat="47.17568" lon="16.03173">
        <ele>416.967673</ele>
        <time>2026-07-08T10:37:15.000Z</time>
      </trkpt>
      <trkpt lat="47.17567" lon="16.03174">
        <ele>416.955025</ele>
        <time>2026-07-08T10:37:16.000Z</time>
      </trkpt>
      <trkpt lat="47.17566" lon="16.03175">
        <ele>416.935455</ele>
        <time>2026-07-08T10:37:17.000Z</time>
      </trkpt>
      <trkpt lat="47.17564" lon="16.03177">
        <ele>416.910158</ele>
        <time>2026-07-08T10:37:18.000Z</time>
      </trkpt>
      <trkpt lat="47.17561" lon="16.03179">
        <ele>416.882049</ele>
        <time>2026-07-08T10:37:19.000Z</time>
      </trkpt>
      <trkpt lat="47.17559" lon="16.03181">
        <ele>416.84984</ele>
        <time>2026-07-08T10:37:20.000Z</time>
      </trkpt>
      <trkpt lat="47.17556" lon="16.03184">
        <ele>416.815419</ele>
        <time>2026-07-08T10:37:21.000Z</time>
      </trkpt>
      <trkpt lat="47.17553" lon="16.03186">
        <ele>416.780079</ele>
        <time>2026-07-08T10:37:22.000Z</time>
      </trkpt>
      <trkpt lat="47.1755" lon="16.03189">
        <ele>416.741746</ele>
        <time>2026-07-08T10:37:23.000Z</time>
      </trkpt>
      <trkpt lat="47.17547" lon="16.03192">
        <ele>416.703412</ele>
        <time>2026-07-08T10:37:24.000Z</time>
      </trkpt>
      <trkpt lat="47.17544" lon="16.03195">
        <ele>416.66361</ele>
        <time>2026-07-08T10:37:25.000Z</time>
      </trkpt>
      <trkpt lat="47.17541" lon="16.03197">
        <ele>416.624517</ele>
        <time>2026-07-08T10:37:26.000Z</time>
      </trkpt>
      <trkpt lat="47.17538" lon="16.03199">
        <ele>416.587995</ele>
        <time>2026-07-08T10:37:27.000Z</time>
      </trkpt>
      <trkpt lat="47.17535" lon="16.03201">
        <ele>416.549884</ele>
        <time>2026-07-08T10:37:28.000Z</time>
      </trkpt>
      <trkpt lat="47.17531" lon="16.03204">
        <ele>416.507904</ele>
        <time>2026-07-08T10:37:29.000Z</time>
      </trkpt>
      <trkpt lat="47.17528" lon="16.03206">
        <ele>416.4656</ele>
        <time>2026-07-08T10:37:30.000Z</time>
      </trkpt>
      <trkpt lat="47.17524" lon="16.0321">
        <ele>416.418357</ele>
        <time>2026-07-08T10:37:31.000Z</time>
      </trkpt>
      <trkpt lat="47.1752" lon="16.03213">
        <ele>416.370175</ele>
        <time>2026-07-08T10:37:32.000Z</time>
      </trkpt>
      <trkpt lat="47.17516" lon="16.03216">
        <ele>416.320694</ele>
        <time>2026-07-08T10:37:33.000Z</time>
      </trkpt>
      <trkpt lat="47.17512" lon="16.0322">
        <ele>416.272321</ele>
        <time>2026-07-08T10:37:34.000Z</time>
      </trkpt>
      <trkpt lat="47.17508" lon="16.03223">
        <ele>416.223948</ele>
        <time>2026-07-08T10:37:35.000Z</time>
      </trkpt>
      <trkpt lat="47.17504" lon="16.03227">
        <ele>416.172967</ele>
        <time>2026-07-08T10:37:36.000Z</time>
      </trkpt>
      <trkpt lat="47.175" lon="16.03231">
        <ele>416.117917</ele>
        <time>2026-07-08T10:37:37.000Z</time>
      </trkpt>
      <trkpt lat="47.17496" lon="16.03234">
        <ele>416.064894</ele>
        <time>2026-07-08T10:37:38.000Z</time>
      </trkpt>
      <trkpt lat="47.17491" lon="16.03238">
        <ele>416.00891</ele>
        <time>2026-07-08T10:37:39.000Z</time>
      </trkpt>
      <trkpt lat="47.17487" lon="16.03242">
        <ele>415.952558</ele>
        <time>2026-07-08T10:37:40.000Z</time>
      </trkpt>
      <trkpt lat="47.17482" lon="16.03246">
        <ele>415.894693</ele>
        <time>2026-07-08T10:37:41.000Z</time>
      </trkpt>
      <trkpt lat="47.17477" lon="16.03249">
        <ele>415.838127</ele>
        <time>2026-07-08T10:37:42.000Z</time>
      </trkpt>
      <trkpt lat="47.17472" lon="16.03252">
        <ele>415.780577</ele>
        <time>2026-07-08T10:37:43.000Z</time>
      </trkpt>
      <trkpt lat="47.17467" lon="16.03255">
        <ele>415.723598</ele>
        <time>2026-07-08T10:37:44.000Z</time>
      </trkpt>
      <trkpt lat="47.17462" lon="16.03258">
        <ele>415.665117</ele>
        <time>2026-07-08T10:37:45.000Z</time>
      </trkpt>
      <trkpt lat="47.17457" lon="16.0326">
        <ele>415.608593</ele>
        <time>2026-07-08T10:37:46.000Z</time>
      </trkpt>
      <trkpt lat="47.17452" lon="16.03262">
        <ele>415.550602</ele>
        <time>2026-07-08T10:37:47.000Z</time>
      </trkpt>
      <trkpt lat="47.17447" lon="16.03263">
        <ele>415.495544</ele>
        <time>2026-07-08T10:37:48.000Z</time>
      </trkpt>
      <trkpt lat="47.17442" lon="16.03265">
        <ele>415.438752</ele>
        <time>2026-07-08T10:37:49.000Z</time>
      </trkpt>
      <trkpt lat="47.17437" lon="16.03265">
        <ele>415.381267</ele>
        <time>2026-07-08T10:37:50.000Z</time>
      </trkpt>
      <trkpt lat="47.17431" lon="16.03266">
        <ele>415.324927</ele>
        <time>2026-07-08T10:37:51.000Z</time>
      </trkpt>
      <trkpt lat="47.17426" lon="16.03267">
        <ele>415.267443</ele>
        <time>2026-07-08T10:37:52.000Z</time>
      </trkpt>
      <trkpt lat="47.17421" lon="16.03268">
        <ele>415.213093</ele>
        <time>2026-07-08T10:37:53.000Z</time>
      </trkpt>
      <trkpt lat="47.17416" lon="16.03269">
        <ele>415.161854</ele>
        <time>2026-07-08T10:37:54.000Z</time>
      </trkpt>
      <trkpt lat="47.17412" lon="16.0327">
        <ele>415.011238</ele>
        <time>2026-07-08T10:37:55.000Z</time>
      </trkpt>
      <trkpt lat="47.17407" lon="16.03271">
        <ele>414.838355</ele>
        <time>2026-07-08T10:37:56.000Z</time>
      </trkpt>
      <trkpt lat="47.17403" lon="16.03272">
        <ele>414.661301</ele>
        <time>2026-07-08T10:37:57.000Z</time>
      </trkpt>
      <trkpt lat="47.17398" lon="16.03273">
        <ele>414.487977</ele>
        <time>2026-07-08T10:37:58.000Z</time>
      </trkpt>
      <trkpt lat="47.17394" lon="16.03274">
        <ele>414.308</ele>
        <time>2026-07-08T10:37:59.000Z</time>
      </trkpt>
      <trkpt lat="47.17389" lon="16.03275">
        <ele>414.128688</ele>
        <time>2026-07-08T10:38:00.000Z</time>
      </trkpt>
      <trkpt lat="47.17384" lon="16.03276">
        <ele>413.94561</ele>
        <time>2026-07-08T10:38:01.000Z</time>
      </trkpt>
      <trkpt lat="47.17379" lon="16.03277">
        <ele>413.752714</ele>
        <time>2026-07-08T10:38:02.000Z</time>
      </trkpt>
      <trkpt lat="47.17374" lon="16.03278">
        <ele>413.553614</ele>
        <time>2026-07-08T10:38:03.000Z</time>
      </trkpt>
      <trkpt lat="47.17369" lon="16.03279">
        <ele>413.351417</ele>
        <time>2026-07-08T10:38:04.000Z</time>
      </trkpt>
      <trkpt lat="47.17363" lon="16.0328">
        <ele>413.141388</ele>
        <time>2026-07-08T10:38:05.000Z</time>
      </trkpt>
      <trkpt lat="47.17357" lon="16.03281">
        <ele>412.924813</ele>
        <time>2026-07-08T10:38:06.000Z</time>
      </trkpt>
      <trkpt lat="47.17351" lon="16.03282">
        <ele>412.696707</ele>
        <time>2026-07-08T10:38:07.000Z</time>
      </trkpt>
      <trkpt lat="47.17345" lon="16.03282">
        <ele>412.464608</ele>
        <time>2026-07-08T10:38:08.000Z</time>
      </trkpt>
      <trkpt lat="47.17339" lon="16.03283">
        <ele>412.22095</ele>
        <time>2026-07-08T10:38:09.000Z</time>
      </trkpt>
      <trkpt lat="47.17333" lon="16.03284">
        <ele>411.9813</ele>
        <time>2026-07-08T10:38:10.000Z</time>
      </trkpt>
      <trkpt lat="47.17326" lon="16.03285">
        <ele>411.741858</ele>
        <time>2026-07-08T10:38:11.000Z</time>
      </trkpt>
      <trkpt lat="47.1732" lon="16.03285">
        <ele>411.487819</ele>
        <time>2026-07-08T10:38:12.000Z</time>
      </trkpt>
      <trkpt lat="47.17312" lon="16.03285">
        <ele>411.214839</ele>
        <time>2026-07-08T10:38:13.000Z</time>
      </trkpt>
      <trkpt lat="47.17305" lon="16.03286">
        <ele>410.930307</ele>
        <time>2026-07-08T10:38:14.000Z</time>
      </trkpt>
      <trkpt lat="47.17297" lon="16.03287">
        <ele>410.633085</ele>
        <time>2026-07-08T10:38:15.000Z</time>
      </trkpt>
      <trkpt lat="47.17289" lon="16.0329">
        <ele>410.311999</ele>
        <time>2026-07-08T10:38:16.000Z</time>
      </trkpt>
      <trkpt lat="47.1728" lon="16.03293">
        <ele>409.968053</ele>
        <time>2026-07-08T10:38:17.000Z</time>
      </trkpt>
      <trkpt lat="47.17271" lon="16.03298">
        <ele>409.600616</ele>
        <time>2026-07-08T10:38:18.000Z</time>
      </trkpt>
      <trkpt lat="47.17261" lon="16.03303">
        <ele>409.214657</ele>
        <time>2026-07-08T10:38:19.000Z</time>
      </trkpt>
      <trkpt lat="47.17251" lon="16.03308">
        <ele>408.816796</ele>
        <time>2026-07-08T10:38:20.000Z</time>
      </trkpt>
      <trkpt lat="47.17241" lon="16.03313">
        <ele>408.409331</ele>
        <time>2026-07-08T10:38:21.000Z</time>
      </trkpt>
      <trkpt lat="47.17231" lon="16.03318">
        <ele>407.956991</ele>
        <time>2026-07-08T10:38:22.000Z</time>
      </trkpt>
      <trkpt lat="47.17221" lon="16.03323">
        <ele>407.509027</ele>
        <time>2026-07-08T10:38:23.000Z</time>
      </trkpt>
      <trkpt lat="47.17212" lon="16.03327">
        <ele>407.074047</ele>
        <time>2026-07-08T10:38:24.000Z</time>
      </trkpt>
      <trkpt lat="47.17203" lon="16.03331">
        <ele>406.666764</ele>
        <time>2026-07-08T10:38:25.000Z</time>
      </trkpt>
      <trkpt lat="47.17194" lon="16.03334">
        <ele>406.265836</ele>
        <time>2026-07-08T10:38:26.000Z</time>
      </trkpt>
      <trkpt lat="47.17185" lon="16.03336">
        <ele>405.862902</ele>
        <time>2026-07-08T10:38:27.000Z</time>
      </trkpt>
      <trkpt lat="47.17176" lon="16.03339">
        <ele>405.4546</ele>
        <time>2026-07-08T10:38:28.000Z</time>
      </trkpt>
      <trkpt lat="47.17167" lon="16.03343">
        <ele>405.045683</ele>
        <time>2026-07-08T10:38:29.000Z</time>
      </trkpt>
      <trkpt lat="47.17158" lon="16.03348">
        <ele>404.637507</ele>
        <time>2026-07-08T10:38:30.000Z</time>
      </trkpt>
      <trkpt lat="47.17149" lon="16.03354">
        <ele>404.219979</ele>
        <time>2026-07-08T10:38:31.000Z</time>
      </trkpt>
      <trkpt lat="47.17141" lon="16.03362">
        <ele>403.792305</ele>
        <time>2026-07-08T10:38:32.000Z</time>
      </trkpt>
      <trkpt lat="47.17133" lon="16.0337">
        <ele>403.360159</ele>
        <time>2026-07-08T10:38:33.000Z</time>
      </trkpt>
      <trkpt lat="47.17125" lon="16.03379">
        <ele>402.926509</ele>
        <time>2026-07-08T10:38:34.000Z</time>
      </trkpt>
      <trkpt lat="47.17117" lon="16.03387">
        <ele>402.48759</ele>
        <time>2026-07-08T10:38:35.000Z</time>
      </trkpt>
      <trkpt lat="47.17108" lon="16.03396">
        <ele>402.043402</ele>
        <time>2026-07-08T10:38:36.000Z</time>
      </trkpt>
      <trkpt lat="47.171" lon="16.03405">
        <ele>401.592087</ele>
        <time>2026-07-08T10:38:37.000Z</time>
      </trkpt>
      <trkpt lat="47.17091" lon="16.03413">
        <ele>401.147727</ele>
        <time>2026-07-08T10:38:38.000Z</time>
      </trkpt>
      <trkpt lat="47.17083" lon="16.03422">
        <ele>400.70695</ele>
        <time>2026-07-08T10:38:39.000Z</time>
      </trkpt>
      <trkpt lat="47.17075" lon="16.0343">
        <ele>400.584983</ele>
        <time>2026-07-08T10:38:40.000Z</time>
      </trkpt>
      <trkpt lat="47.17068" lon="16.0344">
        <ele>400.752665</ele>
        <time>2026-07-08T10:38:41.000Z</time>
      </trkpt>
      <trkpt lat="47.17061" lon="16.03449">
        <ele>400.914904</ele>
        <time>2026-07-08T10:38:42.000Z</time>
      </trkpt>
      <trkpt lat="47.17055" lon="16.0346">
        <ele>401.071489</ele>
        <time>2026-07-08T10:38:43.000Z</time>
      </trkpt>
      <trkpt lat="47.17051" lon="16.03471">
        <ele>401.221133</ele>
        <time>2026-07-08T10:38:44.000Z</time>
      </trkpt>
      <trkpt lat="47.17047" lon="16.03482">
        <ele>401.364697</ele>
        <time>2026-07-08T10:38:45.000Z</time>
      </trkpt>
      <trkpt lat="47.17043" lon="16.03492">
        <ele>401.50185</ele>
        <time>2026-07-08T10:38:46.000Z</time>
      </trkpt>
      <trkpt lat="47.1704" lon="16.03503">
        <ele>401.631986</ele>
        <time>2026-07-08T10:38:47.000Z</time>
      </trkpt>
      <trkpt lat="47.17037" lon="16.03512">
        <ele>401.756381</ele>
        <time>2026-07-08T10:38:48.000Z</time>
      </trkpt>
      <trkpt lat="47.17035" lon="16.03521">
        <ele>401.869871</ele>
        <time>2026-07-08T10:38:49.000Z</time>
      </trkpt>
      <trkpt lat="47.17033" lon="16.03529">
        <ele>401.971065</ele>
        <time>2026-07-08T10:38:50.000Z</time>
      </trkpt>
      <trkpt lat="47.17031" lon="16.03537">
        <ele>402.065344</ele>
        <time>2026-07-08T10:38:51.000Z</time>
      </trkpt>
      <trkpt lat="47.17029" lon="16.03544">
        <ele>402.151831</ele>
        <time>2026-07-08T10:38:52.000Z</time>
      </trkpt>
      <trkpt lat="47.17027" lon="16.0355">
        <ele>402.231602</ele>
        <time>2026-07-08T10:38:53.000Z</time>
      </trkpt>
      <trkpt lat="47.17025" lon="16.03556">
        <ele>402.307863</ele>
        <time>2026-07-08T10:38:54.000Z</time>
      </trkpt>
      <trkpt lat="47.17024" lon="16.03562">
        <ele>402.3803</ele>
        <time>2026-07-08T10:38:55.000Z</time>
      </trkpt>
      <trkpt lat="47.17022" lon="16.03567">
        <ele>402.446239</ele>
        <time>2026-07-08T10:38:56.000Z</time>
      </trkpt>
      <trkpt lat="47.17021" lon="16.03572">
        <ele>402.507906</ele>
        <time>2026-07-08T10:38:57.000Z</time>
      </trkpt>
      <trkpt lat="47.17019" lon="16.03576">
        <ele>402.563286</ele>
        <time>2026-07-08T10:38:58.000Z</time>
      </trkpt>
      <trkpt lat="47.17018" lon="16.0358">
        <ele>402.617156</ele>
        <time>2026-07-08T10:38:59.000Z</time>
      </trkpt>
      <trkpt lat="47.17017" lon="16.03584">
        <ele>402.668192</ele>
        <time>2026-07-08T10:39:00.000Z</time>
      </trkpt>
      <trkpt lat="47.17016" lon="16.03588">
        <ele>402.715757</ele>
        <time>2026-07-08T10:39:01.000Z</time>
      </trkpt>
      <trkpt lat="47.17015" lon="16.03592">
        <ele>402.762897</ele>
        <time>2026-07-08T10:39:02.000Z</time>
      </trkpt>
      <trkpt lat="47.17014" lon="16.03595">
        <ele>402.808655</ele>
        <time>2026-07-08T10:39:03.000Z</time>
      </trkpt>
      <trkpt lat="47.17012" lon="16.03598">
        <ele>402.84633</ele>
        <time>2026-07-08T10:39:04.000Z</time>
      </trkpt>
      <trkpt lat="47.17011" lon="16.036">
        <ele>402.878325</ele>
        <time>2026-07-08T10:39:05.000Z</time>
      </trkpt>
      <trkpt lat="47.17011" lon="16.03602">
        <ele>402.8935</ele>
        <time>2026-07-08T10:39:06.000Z</time>
      </trkpt>
      <trkpt lat="47.17011" lon="16.03602">
        <ele>402.897002</ele>
        <time>2026-07-08T10:39:07.000Z</time>
      </trkpt>
      <trkpt lat="47.17012" lon="16.03604">
        <ele>402.92326</ele>
        <time>2026-07-08T10:41:01.000Z</time>
      </trkpt>
      <trkpt lat="47.17012" lon="16.03604">
        <ele>402.928411</ele>
        <time>2026-07-08T10:41:02.000Z</time>
      </trkpt>
      <trkpt lat="47.17013" lon="16.03604">
        <ele>402.932564</ele>
        <time>2026-07-08T10:41:03.000Z</time>
      </trkpt>
      <trkpt lat="47.17012" lon="16.03608">
        <ele>402.977745</ele>
        <time>2026-07-08T10:41:49.000Z</time>
      </trkpt>
      <trkpt lat="47.17012" lon="16.0361">
        <ele>403.007379</ele>
        <time>2026-07-08T10:41:50.000Z</time>
      </trkpt>
      <trkpt lat="47.17011" lon="16.03613">
        <ele>403.039636</ele>
        <time>2026-07-08T10:41:51.000Z</time>
      </trkpt>
      <trkpt lat="47.17011" lon="16.03616">
        <ele>403.072794</ele>
        <time>2026-07-08T10:41:52.000Z</time>
      </trkpt>
      <trkpt lat="47.17009" lon="16.03618">
        <ele>403.110603</ele>
        <time>2026-07-08T10:41:53.000Z</time>
      </trkpt>
      <trkpt lat="47.17008" lon="16.03621">
        <ele>403.148278</ele>
        <time>2026-07-08T10:41:54.000Z</time>
      </trkpt>
      <trkpt lat="47.17007" lon="16.03624">
        <ele>403.1869</ele>
        <time>2026-07-08T10:41:55.000Z</time>
      </trkpt>
      <trkpt lat="47.17006" lon="16.03626">
        <ele>403.222002</ele>
        <time>2026-07-08T10:41:56.000Z</time>
      </trkpt>
      <trkpt lat="47.17005" lon="16.03629">
        <ele>403.25295</ele>
        <time>2026-07-08T10:41:57.000Z</time>
      </trkpt>
      <trkpt lat="47.17005" lon="16.03631">
        <ele>403.283369</ele>
        <time>2026-07-08T10:41:58.000Z</time>
      </trkpt>
      <trkpt lat="47.17004" lon="16.03634">
        <ele>403.311082</ele>
        <time>2026-07-08T10:41:59.000Z</time>
      </trkpt>
      <trkpt lat="47.17004" lon="16.03636">
        <ele>403.345352</ele>
        <time>2026-07-08T10:42:00.000Z</time>
      </trkpt>
      <trkpt lat="47.17003" lon="16.03639">
        <ele>403.384354</ele>
        <time>2026-07-08T10:42:01.000Z</time>
      </trkpt>
      <trkpt lat="47.17002" lon="16.03643">
        <ele>403.425466</ele>
        <time>2026-07-08T10:42:02.000Z</time>
      </trkpt>
      <trkpt lat="47.17" lon="16.03646">
        <ele>403.474895</ele>
        <time>2026-07-08T10:42:03.000Z</time>
      </trkpt>
      <trkpt lat="47.16999" lon="16.0365">
        <ele>403.523107</ele>
        <time>2026-07-08T10:42:04.000Z</time>
      </trkpt>
      <trkpt lat="47.16998" lon="16.03655">
        <ele>403.578371</ele>
        <time>2026-07-08T10:42:05.000Z</time>
      </trkpt>
      <trkpt lat="47.16997" lon="16.03659">
        <ele>403.540856</ele>
        <time>2026-07-08T10:42:06.000Z</time>
      </trkpt>
      <trkpt lat="47.16996" lon="16.03665">
        <ele>403.485437</ele>
        <time>2026-07-08T10:42:07.000Z</time>
      </trkpt>
      <trkpt lat="47.16995" lon="16.0367">
        <ele>403.4262</ele>
        <time>2026-07-08T10:42:08.000Z</time>
      </trkpt>
      <trkpt lat="47.16994" lon="16.03676">
        <ele>403.365428</ele>
        <time>2026-07-08T10:42:09.000Z</time>
      </trkpt>
      <trkpt lat="47.16991" lon="16.03681">
        <ele>403.301745</ele>
        <time>2026-07-08T10:42:10.000Z</time>
      </trkpt>
      <trkpt lat="47.16989" lon="16.03686">
        <ele>403.239719</ele>
        <time>2026-07-08T10:42:11.000Z</time>
      </trkpt>
      <trkpt lat="47.16987" lon="16.03691">
        <ele>403.176068</ele>
        <time>2026-07-08T10:42:12.000Z</time>
      </trkpt>
      <trkpt lat="47.16984" lon="16.03696">
        <ele>403.105645</ele>
        <time>2026-07-08T10:42:13.000Z</time>
      </trkpt>
      <trkpt lat="47.1698" lon="16.03701">
        <ele>403.035637</ele>
        <time>2026-07-08T10:42:14.000Z</time>
      </trkpt>
      <trkpt lat="47.16977" lon="16.03706">
        <ele>402.960535</ele>
        <time>2026-07-08T10:42:15.000Z</time>
      </trkpt>
      <trkpt lat="47.16973" lon="16.03711">
        <ele>402.884743</ele>
        <time>2026-07-08T10:42:16.000Z</time>
      </trkpt>
      <trkpt lat="47.16969" lon="16.03716">
        <ele>402.810055</ele>
        <time>2026-07-08T10:42:17.000Z</time>
      </trkpt>
      <trkpt lat="47.16965" lon="16.03721">
        <ele>402.730871</ele>
        <time>2026-07-08T10:42:18.000Z</time>
      </trkpt>
      <trkpt lat="47.16961" lon="16.03726">
        <ele>402.651687</ele>
        <time>2026-07-08T10:42:19.000Z</time>
      </trkpt>
      <trkpt lat="47.16957" lon="16.03731">
        <ele>402.568211</ele>
        <time>2026-07-08T10:42:20.000Z</time>
      </trkpt>
      <trkpt lat="47.16953" lon="16.03737">
        <ele>402.482252</ele>
        <time>2026-07-08T10:42:21.000Z</time>
      </trkpt>
      <trkpt lat="47.16948" lon="16.03742">
        <ele>402.393808</ele>
        <time>2026-07-08T10:42:22.000Z</time>
      </trkpt>
      <trkpt lat="47.16944" lon="16.03748">
        <ele>402.307849</ele>
        <time>2026-07-08T10:42:23.000Z</time>
      </trkpt>
      <trkpt lat="47.1694" lon="16.03753">
        <ele>402.221215</ele>
        <time>2026-07-08T10:42:24.000Z</time>
      </trkpt>
      <trkpt lat="47.16935" lon="16.03759">
        <ele>402.130707</ele>
        <time>2026-07-08T10:42:25.000Z</time>
      </trkpt>
      <trkpt lat="47.16931" lon="16.03766">
        <ele>402.038429</ele>
        <time>2026-07-08T10:42:26.000Z</time>
      </trkpt>
      <trkpt lat="47.16927" lon="16.03772">
        <ele>401.945718</ele>
        <time>2026-07-08T10:42:27.000Z</time>
      </trkpt>
      <trkpt lat="47.16923" lon="16.0378">
        <ele>401.8494</ele>
        <time>2026-07-08T10:42:28.000Z</time>
      </trkpt>
      <trkpt lat="47.16918" lon="16.03787">
        <ele>401.750115</ele>
        <time>2026-07-08T10:42:29.000Z</time>
      </trkpt>
      <trkpt lat="47.16914" lon="16.03794">
        <ele>401.649058</ele>
        <time>2026-07-08T10:42:30.000Z</time>
      </trkpt>
      <trkpt lat="47.16909" lon="16.03802">
        <ele>401.546472</ele>
        <time>2026-07-08T10:42:31.000Z</time>
      </trkpt>
      <trkpt lat="47.16905" lon="16.0381">
        <ele>401.43902</ele>
        <time>2026-07-08T10:42:32.000Z</time>
      </trkpt>
      <trkpt lat="47.169" lon="16.03818">
        <ele>401.328241</ele>
        <time>2026-07-08T10:42:33.000Z</time>
      </trkpt>
      <trkpt lat="47.16895" lon="16.03827">
        <ele>401.211736</ele>
        <time>2026-07-08T10:42:34.000Z</time>
      </trkpt>
      <trkpt lat="47.1689" lon="16.03836">
        <ele>401.094121</ele>
        <time>2026-07-08T10:42:35.000Z</time>
      </trkpt>
      <trkpt lat="47.16885" lon="16.03845">
        <ele>400.971017</ele>
        <time>2026-07-08T10:42:36.000Z</time>
      </trkpt>
      <trkpt lat="47.16879" lon="16.03854">
        <ele>400.806722</ele>
        <time>2026-07-08T10:42:37.000Z</time>
      </trkpt>
      <trkpt lat="47.16873" lon="16.03863">
        <ele>400.478419</ele>
        <time>2026-07-08T10:42:38.000Z</time>
      </trkpt>
      <trkpt lat="47.16867" lon="16.03873">
        <ele>400.145002</ele>
        <time>2026-07-08T10:42:39.000Z</time>
      </trkpt>
      <trkpt lat="47.1686" lon="16.03882">
        <ele>399.793115</ele>
        <time>2026-07-08T10:42:40.000Z</time>
      </trkpt>
      <trkpt lat="47.16853" lon="16.03892">
        <ele>399.43147</ele>
        <time>2026-07-08T10:42:41.000Z</time>
      </trkpt>
      <trkpt lat="47.16846" lon="16.03902">
        <ele>399.059968</ele>
        <time>2026-07-08T10:42:42.000Z</time>
      </trkpt>
      <trkpt lat="47.16838" lon="16.03913">
        <ele>398.672361</ele>
        <time>2026-07-08T10:42:43.000Z</time>
      </trkpt>
      <trkpt lat="47.16831" lon="16.03923">
        <ele>398.278589</ele>
        <time>2026-07-08T10:42:44.000Z</time>
      </trkpt>
      <trkpt lat="47.16822" lon="16.03934">
        <ele>397.873703</ele>
        <time>2026-07-08T10:42:45.000Z</time>
      </trkpt>
      <trkpt lat="47.16814" lon="16.03944">
        <ele>397.469284</ele>
        <time>2026-07-08T10:42:46.000Z</time>
      </trkpt>
      <trkpt lat="47.16806" lon="16.03954">
        <ele>397.055906</ele>
        <time>2026-07-08T10:42:47.000Z</time>
      </trkpt>
      <trkpt lat="47.16797" lon="16.03965">
        <ele>396.641528</ele>
        <time>2026-07-08T10:42:48.000Z</time>
      </trkpt>
      <trkpt lat="47.16789" lon="16.03976">
        <ele>396.231613</ele>
        <time>2026-07-08T10:42:49.000Z</time>
      </trkpt>
      <trkpt lat="47.16781" lon="16.03987">
        <ele>395.832314</ele>
        <time>2026-07-08T10:42:50.000Z</time>
      </trkpt>
      <trkpt lat="47.16773" lon="16.03997">
        <ele>395.427426</ele>
        <time>2026-07-08T10:42:51.000Z</time>
      </trkpt>
      <trkpt lat="47.16765" lon="16.04007">
        <ele>395.036441</ele>
        <time>2026-07-08T10:42:52.000Z</time>
      </trkpt>
      <trkpt lat="47.16757" lon="16.04016">
        <ele>394.669877</ele>
        <time>2026-07-08T10:42:53.000Z</time>
      </trkpt>
      <trkpt lat="47.16749" lon="16.04025">
        <ele>394.308323</ele>
        <time>2026-07-08T10:42:54.000Z</time>
      </trkpt>
      <trkpt lat="47.16741" lon="16.04032">
        <ele>393.971217</ele>
        <time>2026-07-08T10:42:55.000Z</time>
      </trkpt>
      <trkpt lat="47.16732" lon="16.04039">
        <ele>393.643635</ele>
        <time>2026-07-08T10:42:56.000Z</time>
      </trkpt>
      <trkpt lat="47.16723" lon="16.04044">
        <ele>393.31861</ele>
        <time>2026-07-08T10:42:57.000Z</time>
      </trkpt>
      <trkpt lat="47.16714" lon="16.04048">
        <ele>392.990669</ele>
        <time>2026-07-08T10:42:58.000Z</time>
      </trkpt>
      <trkpt lat="47.16704" lon="16.04052">
        <ele>392.658818</ele>
        <time>2026-07-08T10:42:59.000Z</time>
      </trkpt>
      <trkpt lat="47.16694" lon="16.04056">
        <ele>392.330738</ele>
        <time>2026-07-08T10:43:00.000Z</time>
      </trkpt>
      <trkpt lat="47.16684" lon="16.04058">
        <ele>391.997458</ele>
        <time>2026-07-08T10:43:01.000Z</time>
      </trkpt>
      <trkpt lat="47.16674" lon="16.04061">
        <ele>391.658093</ele>
        <time>2026-07-08T10:43:02.000Z</time>
      </trkpt>
      <trkpt lat="47.16664" lon="16.04063">
        <ele>391.310415</ele>
        <time>2026-07-08T10:43:03.000Z</time>
      </trkpt>
      <trkpt lat="47.16653" lon="16.04066">
        <ele>390.959129</ele>
        <time>2026-07-08T10:43:04.000Z</time>
      </trkpt>
      <trkpt lat="47.16643" lon="16.04068">
        <ele>390.604911</ele>
        <time>2026-07-08T10:43:05.000Z</time>
      </trkpt>
      <trkpt lat="47.16632" lon="16.04071">
        <ele>390.246745</ele>
        <time>2026-07-08T10:43:06.000Z</time>
      </trkpt>
      <trkpt lat="47.16621" lon="16.04073">
        <ele>389.887459</ele>
        <time>2026-07-08T10:43:07.000Z</time>
      </trkpt>
      <trkpt lat="47.16611" lon="16.04076">
        <ele>389.524521</ele>
        <time>2026-07-08T10:43:08.000Z</time>
      </trkpt>
      <trkpt lat="47.166" lon="16.04079">
        <ele>389.156557</ele>
        <time>2026-07-08T10:43:09.000Z</time>
      </trkpt>
      <trkpt lat="47.16589" lon="16.04081">
        <ele>388.79014</ele>
        <time>2026-07-08T10:43:10.000Z</time>
      </trkpt>
      <trkpt lat="47.16578" lon="16.04083">
        <ele>388.423723</ele>
        <time>2026-07-08T10:43:11.000Z</time>
      </trkpt>
      <trkpt lat="47.16566" lon="16.04085">
        <ele>387.936693</ele>
        <time>2026-07-08T10:43:12.000Z</time>
      </trkpt>
      <trkpt lat="47.16555" lon="16.04088">
        <ele>387.308171</ele>
        <time>2026-07-08T10:43:13.000Z</time>
      </trkpt>
      <trkpt lat="47.16543" lon="16.04091">
        <ele>386.660723</ele>
        <time>2026-07-08T10:43:14.000Z</time>
      </trkpt>
      <trkpt lat="47.16531" lon="16.04095">
        <ele>386.004321</ele>
        <time>2026-07-08T10:43:15.000Z</time>
      </trkpt>
      <trkpt lat="47.16519" lon="16.041">
        <ele>385.328798</ele>
        <time>2026-07-08T10:43:16.000Z</time>
      </trkpt>
      <trkpt lat="47.16508" lon="16.04107">
        <ele>384.654999</ele>
        <time>2026-07-08T10:43:17.000Z</time>
      </trkpt>
      <trkpt lat="47.16496" lon="16.04115">
        <ele>383.974851</ele>
        <time>2026-07-08T10:43:18.000Z</time>
      </trkpt>
      <trkpt lat="47.16485" lon="16.04122">
        <ele>383.280323</ele>
        <time>2026-07-08T10:43:19.000Z</time>
      </trkpt>
      <trkpt lat="47.16473" lon="16.0413">
        <ele>382.602277</ele>
        <time>2026-07-08T10:43:20.000Z</time>
      </trkpt>
      <trkpt lat="47.16462" lon="16.04138">
        <ele>381.914472</ele>
        <time>2026-07-08T10:43:21.000Z</time>
      </trkpt>
      <trkpt lat="47.16451" lon="16.04146">
        <ele>381.241294</ele>
        <time>2026-07-08T10:43:22.000Z</time>
      </trkpt>
      <trkpt lat="47.16439" lon="16.04154">
        <ele>380.563247</ele>
        <time>2026-07-08T10:43:23.000Z</time>
      </trkpt>
      <trkpt lat="47.16428" lon="16.04162">
        <ele>379.9014</ele>
        <time>2026-07-08T10:43:24.000Z</time>
      </trkpt>
      <trkpt lat="47.16417" lon="16.0417">
        <ele>379.24587</ele>
        <time>2026-07-08T10:43:25.000Z</time>
      </trkpt>
      <trkpt lat="47.16406" lon="16.04177">
        <ele>378.60074</ele>
        <time>2026-07-08T10:43:26.000Z</time>
      </trkpt>
      <trkpt lat="47.16395" lon="16.04183">
        <ele>378.293167</ele>
        <time>2026-07-08T10:43:27.000Z</time>
      </trkpt>
      <trkpt lat="47.16385" lon="16.04189">
        <ele>378.058004</ele>
        <time>2026-07-08T10:43:28.000Z</time>
      </trkpt>
      <trkpt lat="47.16375" lon="16.04193">
        <ele>377.836162</ele>
        <time>2026-07-08T10:43:29.000Z</time>
      </trkpt>
      <trkpt lat="47.16365" lon="16.04197">
        <ele>377.617886</ele>
        <time>2026-07-08T10:43:30.000Z</time>
      </trkpt>
      <trkpt lat="47.16355" lon="16.042">
        <ele>377.408456</ele>
        <time>2026-07-08T10:43:31.000Z</time>
      </trkpt>
      <trkpt lat="47.16345" lon="16.04203">
        <ele>377.199616</ele>
        <time>2026-07-08T10:43:32.000Z</time>
      </trkpt>
      <trkpt lat="47.16336" lon="16.04206">
        <ele>376.999332</ele>
        <time>2026-07-08T10:43:33.000Z</time>
      </trkpt>
      <trkpt lat="47.16327" lon="16.04209">
        <ele>376.808075</ele>
        <time>2026-07-08T10:43:34.000Z</time>
      </trkpt>
      <trkpt lat="47.16319" lon="16.04212">
        <ele>376.623307</ele>
        <time>2026-07-08T10:43:35.000Z</time>
      </trkpt>
      <trkpt lat="47.1631" lon="16.04215">
        <ele>376.441897</ele>
        <time>2026-07-08T10:43:36.000Z</time>
      </trkpt>
      <trkpt lat="47.16302" lon="16.04217">
        <ele>376.269342</ele>
        <time>2026-07-08T10:43:37.000Z</time>
      </trkpt>
      <trkpt lat="47.16295" lon="16.0422">
        <ele>376.100912</ele>
        <time>2026-07-08T10:43:38.000Z</time>
      </trkpt>
      <trkpt lat="47.16287" lon="16.04222">
        <ele>375.937656</ele>
        <time>2026-07-08T10:43:39.000Z</time>
      </trkpt>
      <trkpt lat="47.1628" lon="16.04225">
        <ele>375.77367</ele>
        <time>2026-07-08T10:43:40.000Z</time>
      </trkpt>
      <trkpt lat="47.16272" lon="16.04229">
        <ele>375.604048</ele>
        <time>2026-07-08T10:43:41.000Z</time>
      </trkpt>
      <trkpt lat="47.16264" lon="16.04232">
        <ele>375.436023</ele>
        <time>2026-07-08T10:43:42.000Z</time>
      </trkpt>
      <trkpt lat="47.16257" lon="16.04237">
        <ele>375.26121</ele>
        <time>2026-07-08T10:43:43.000Z</time>
      </trkpt>
      <trkpt lat="47.16249" lon="16.04242">
        <ele>375.078706</ele>
        <time>2026-07-08T10:43:44.000Z</time>
      </trkpt>
      <trkpt lat="47.16241" lon="16.04248">
        <ele>374.894856</ele>
        <time>2026-07-08T10:43:45.000Z</time>
      </trkpt>
      <trkpt lat="47.16234" lon="16.04255">
        <ele>374.707787</ele>
        <time>2026-07-08T10:43:46.000Z</time>
      </trkpt>
      <trkpt lat="47.16226" lon="16.04263">
        <ele>374.585183</ele>
        <time>2026-07-08T10:43:47.000Z</time>
      </trkpt>
      <trkpt lat="47.16219" lon="16.0427">
        <ele>374.460985</ele>
        <time>2026-07-08T10:43:48.000Z</time>
      </trkpt>
      <trkpt lat="47.16212" lon="16.04279">
        <ele>374.331565</ele>
        <time>2026-07-08T10:43:49.000Z</time>
      </trkpt>
      <trkpt lat="47.16205" lon="16.04288">
        <ele>374.201069</ele>
        <time>2026-07-08T10:43:50.000Z</time>
      </trkpt>
      <trkpt lat="47.16197" lon="16.04297">
        <ele>374.069219</ele>
        <time>2026-07-08T10:43:51.000Z</time>
      </trkpt>
      <trkpt lat="47.1619" lon="16.04306">
        <ele>373.937797</ele>
        <time>2026-07-08T10:43:52.000Z</time>
      </trkpt>
      <trkpt lat="47.16183" lon="16.04315">
        <ele>373.80656</ele>
        <time>2026-07-08T10:43:53.000Z</time>
      </trkpt>
      <trkpt lat="47.16176" lon="16.04323">
        <ele>373.683829</ele>
        <time>2026-07-08T10:43:54.000Z</time>
      </trkpt>
      <trkpt lat="47.1617" lon="16.04332">
        <ele>373.560938</ele>
        <time>2026-07-08T10:43:55.000Z</time>
      </trkpt>
      <trkpt lat="47.16163" lon="16.04341">
        <ele>373.440611</ele>
        <time>2026-07-08T10:43:56.000Z</time>
      </trkpt>
      <trkpt lat="47.16158" lon="16.0435">
        <ele>373.328175</ele>
        <time>2026-07-08T10:43:57.000Z</time>
      </trkpt>
      <trkpt lat="47.16154" lon="16.04359">
        <ele>373.225839</ele>
        <time>2026-07-08T10:43:58.000Z</time>
      </trkpt>
      <trkpt lat="47.1615" lon="16.04368">
        <ele>373.1249</ele>
        <time>2026-07-08T10:43:59.000Z</time>
      </trkpt>
      <trkpt lat="47.16147" lon="16.04377">
        <ele>373.029405</ele>
        <time>2026-07-08T10:44:00.000Z</time>
      </trkpt>
      <trkpt lat="47.16146" lon="16.04386">
        <ele>372.938813</ele>
        <time>2026-07-08T10:44:01.000Z</time>
      </trkpt>
      <trkpt lat="47.16145" lon="16.04395">
        <ele>372.85571</ele>
        <time>2026-07-08T10:44:02.000Z</time>
      </trkpt>
      <trkpt lat="47.16145" lon="16.04404">
        <ele>372.775333</ele>
        <time>2026-07-08T10:44:03.000Z</time>
      </trkpt>
      <trkpt lat="47.16145" lon="16.04412">
        <ele>372.697897</ele>
        <time>2026-07-08T10:44:04.000Z</time>
      </trkpt>
      <trkpt lat="47.16145" lon="16.0442">
        <ele>372.621727</ele>
        <time>2026-07-08T10:44:05.000Z</time>
      </trkpt>
      <trkpt lat="47.16147" lon="16.04427">
        <ele>372.54772</ele>
        <time>2026-07-08T10:44:06.000Z</time>
      </trkpt>
      <trkpt lat="47.16148" lon="16.04435">
        <ele>372.475745</ele>
        <time>2026-07-08T10:44:07.000Z</time>
      </trkpt>
      <trkpt lat="47.1615" lon="16.04442">
        <ele>372.401761</ele>
        <time>2026-07-08T10:44:08.000Z</time>
      </trkpt>
      <trkpt lat="47.16153" lon="16.04449">
        <ele>372.323621</ele>
        <time>2026-07-08T10:44:09.000Z</time>
      </trkpt>
      <trkpt lat="47.16157" lon="16.04455">
        <ele>372.246177</ele>
        <time>2026-07-08T10:44:10.000Z</time>
      </trkpt>
      <trkpt lat="47.1616" lon="16.04462">
        <ele>372.178281</ele>
        <time>2026-07-08T10:44:11.000Z</time>
      </trkpt>
      <trkpt lat="47.16164" lon="16.04468">
        <ele>372.115764</ele>
        <time>2026-07-08T10:44:12.000Z</time>
      </trkpt>
      <trkpt lat="47.16168" lon="16.04475">
        <ele>372.05254</ele>
        <time>2026-07-08T10:44:13.000Z</time>
      </trkpt>
      <trkpt lat="47.16172" lon="16.04481">
        <ele>371.990024</ele>
        <time>2026-07-08T10:44:14.000Z</time>
      </trkpt>
      <trkpt lat="47.16176" lon="16.04488">
        <ele>371.92549</ele>
        <time>2026-07-08T10:44:15.000Z</time>
      </trkpt>
      <trkpt lat="47.1618" lon="16.04495">
        <ele>371.860286</ele>
        <time>2026-07-08T10:44:16.000Z</time>
      </trkpt>
      <trkpt lat="47.16185" lon="16.04502">
        <ele>371.792485</ele>
        <time>2026-07-08T10:44:17.000Z</time>
      </trkpt>
      <trkpt lat="47.16189" lon="16.04509">
        <ele>371.722838</ele>
        <time>2026-07-08T10:44:18.000Z</time>
      </trkpt>
      <trkpt lat="47.16194" lon="16.04516">
        <ele>371.655173</ele>
        <time>2026-07-08T10:44:19.000Z</time>
      </trkpt>
      <trkpt lat="47.16198" lon="16.04523">
        <ele>371.586478</ele>
        <time>2026-07-08T10:44:20.000Z</time>
      </trkpt>
      <trkpt lat="47.16202" lon="16.0453">
        <ele>371.52236</ele>
        <time>2026-07-08T10:44:21.000Z</time>
      </trkpt>
      <trkpt lat="47.16206" lon="16.04537">
        <ele>371.457015</ele>
        <time>2026-07-08T10:44:22.000Z</time>
      </trkpt>
      <trkpt lat="47.16211" lon="16.04544">
        <ele>371.38935</ele>
        <time>2026-07-08T10:44:23.000Z</time>
      </trkpt>
      <trkpt lat="47.16215" lon="16.0455">
        <ele>371.322194</ele>
        <time>2026-07-08T10:44:24.000Z</time>
      </trkpt>
      <trkpt lat="47.1622" lon="16.04557">
        <ele>371.256282</ele>
        <time>2026-07-08T10:44:25.000Z</time>
      </trkpt>
      <trkpt lat="47.16224" lon="16.04564">
        <ele>371.192005</ele>
        <time>2026-07-08T10:44:26.000Z</time>
      </trkpt>
      <trkpt lat="47.16228" lon="16.0457">
        <ele>371.128424</ele>
        <time>2026-07-08T10:44:27.000Z</time>
      </trkpt>
      <trkpt lat="47.16232" lon="16.04577">
        <ele>371.064022</ele>
        <time>2026-07-08T10:44:28.000Z</time>
      </trkpt>
      <trkpt lat="47.16236" lon="16.04583">
        <ele>371.000798</ele>
        <time>2026-07-08T10:44:29.000Z</time>
      </trkpt>
      <trkpt lat="47.1624" lon="16.0459">
        <ele>370.93668</ele>
        <time>2026-07-08T10:44:30.000Z</time>
      </trkpt>
      <trkpt lat="47.16244" lon="16.04597">
        <ele>370.876431</ele>
        <time>2026-07-08T10:44:31.000Z</time>
      </trkpt>
      <trkpt lat="47.16247" lon="16.04604">
        <ele>370.813334</ele>
        <time>2026-07-08T10:44:32.000Z</time>
      </trkpt>
      <trkpt lat="47.1625" lon="16.04612">
        <ele>370.750051</ele>
        <time>2026-07-08T10:44:33.000Z</time>
      </trkpt>
      <trkpt lat="47.16253" lon="16.0462">
        <ele>370.683981</ele>
        <time>2026-07-08T10:44:34.000Z</time>
      </trkpt>
      <trkpt lat="47.16255" lon="16.04628">
        <ele>370.619126</ele>
        <time>2026-07-08T10:44:35.000Z</time>
      </trkpt>
      <trkpt lat="47.16258" lon="16.04638">
        <ele>370.547889</ele>
        <time>2026-07-08T10:44:36.000Z</time>
      </trkpt>
      <trkpt lat="47.1626" lon="16.04647">
        <ele>370.477673</ele>
        <time>2026-07-08T10:44:37.000Z</time>
      </trkpt>
      <trkpt lat="47.16261" lon="16.04657">
        <ele>370.407714</ele>
        <time>2026-07-08T10:44:38.000Z</time>
      </trkpt>
      <trkpt lat="47.16262" lon="16.04667">
        <ele>370.33211</ele>
        <time>2026-07-08T10:44:39.000Z</time>
      </trkpt>
      <trkpt lat="47.16262" lon="16.04678">
        <ele>370.074626</ele>
        <time>2026-07-08T10:44:40.000Z</time>
      </trkpt>
      <trkpt lat="47.16263" lon="16.04689">
        <ele>369.77327</ele>
        <time>2026-07-08T10:44:41.000Z</time>
      </trkpt>
      <trkpt lat="47.16263" lon="16.04701">
        <ele>369.467257</ele>
        <time>2026-07-08T10:44:42.000Z</time>
      </trkpt>
      <trkpt lat="47.16263" lon="16.04712">
        <ele>369.164391</ele>
        <time>2026-07-08T10:44:43.000Z</time>
      </trkpt>
      <trkpt lat="47.16263" lon="16.04724">
        <ele>368.850997</ele>
        <time>2026-07-08T10:44:44.000Z</time>
      </trkpt>
      <trkpt lat="47.16263" lon="16.04736">
        <ele>368.532409</ele>
        <time>2026-07-08T10:44:45.000Z</time>
      </trkpt>
      <trkpt lat="47.16264" lon="16.04749">
        <ele>368.192695</ele>
        <time>2026-07-08T10:44:46.000Z</time>
      </trkpt>
      <trkpt lat="47.16263" lon="16.04763">
        <ele>367.842453</ele>
        <time>2026-07-08T10:44:47.000Z</time>
      </trkpt>
      <trkpt lat="47.16263" lon="16.04777">
        <ele>367.473358</ele>
        <time>2026-07-08T10:44:48.000Z</time>
      </trkpt>
      <trkpt lat="47.16262" lon="16.04791">
        <ele>367.098225</ele>
        <time>2026-07-08T10:44:49.000Z</time>
      </trkpt>
      <trkpt lat="47.16261" lon="16.04805">
        <ele>366.733586</ele>
        <time>2026-07-08T10:44:50.000Z</time>
      </trkpt>
      <trkpt lat="47.1626" lon="16.04819">
        <ele>366.35139</ele>
        <time>2026-07-08T10:44:51.000Z</time>
      </trkpt>
      <trkpt lat="47.16258" lon="16.04833">
        <ele>365.973053</ele>
        <time>2026-07-08T10:44:52.000Z</time>
      </trkpt>
      <trkpt lat="47.16256" lon="16.04847">
        <ele>365.587051</ele>
        <time>2026-07-08T10:44:53.000Z</time>
      </trkpt>
      <trkpt lat="47.16253" lon="16.04861">
        <ele>365.219379</ele>
        <time>2026-07-08T10:44:54.000Z</time>
      </trkpt>
      <trkpt lat="47.1625" lon="16.04873">
        <ele>364.86773</ele>
        <time>2026-07-08T10:44:55.000Z</time>
      </trkpt>
      <trkpt lat="47.16246" lon="16.04885">
        <ele>364.528789</ele>
        <time>2026-07-08T10:44:56.000Z</time>
      </trkpt>
      <trkpt lat="47.16242" lon="16.04896">
        <ele>364.194526</ele>
        <time>2026-07-08T10:44:57.000Z</time>
      </trkpt>
      <trkpt lat="47.16238" lon="16.04907">
        <ele>363.858522</ele>
        <time>2026-07-08T10:44:58.000Z</time>
      </trkpt>
      <trkpt lat="47.16234" lon="16.04918">
        <ele>363.5301</ele>
        <time>2026-07-08T10:44:59.000Z</time>
      </trkpt>
      <trkpt lat="47.1623" lon="16.04929">
        <ele>363.233605</ele>
        <time>2026-07-08T10:45:00.000Z</time>
      </trkpt>
      <trkpt lat="47.16226" lon="16.04941">
        <ele>362.961381</ele>
        <time>2026-07-08T10:45:01.000Z</time>
      </trkpt>
      <trkpt lat="47.16225" lon="16.04952">
        <ele>362.699758</ele>
        <time>2026-07-08T10:45:02.000Z</time>
      </trkpt>
      <trkpt lat="47.16222" lon="16.04964">
        <ele>362.437142</ele>
        <time>2026-07-08T10:45:03.000Z</time>
      </trkpt>
      <trkpt lat="47.16221" lon="16.04975">
        <ele>362.188066</ele>
        <time>2026-07-08T10:45:04.000Z</time>
      </trkpt>
      <trkpt lat="47.1622" lon="16.04987">
        <ele>361.944435</ele>
        <time>2026-07-08T10:45:05.000Z</time>
      </trkpt>
      <trkpt lat="47.16219" lon="16.04998">
        <ele>361.698652</ele>
        <time>2026-07-08T10:45:06.000Z</time>
      </trkpt>
      <trkpt lat="47.16219" lon="16.05009">
        <ele>361.456271</ele>
        <time>2026-07-08T10:45:07.000Z</time>
      </trkpt>
      <trkpt lat="47.16219" lon="16.05021">
        <ele>361.207402</ele>
        <time>2026-07-08T10:45:08.000Z</time>
      </trkpt>
      <trkpt lat="47.16218" lon="16.05033">
        <ele>360.942991</ele>
        <time>2026-07-08T10:45:09.000Z</time>
      </trkpt>
      <trkpt lat="47.16218" lon="16.05045">
        <ele>360.676421</ele>
        <time>2026-07-08T10:45:10.000Z</time>
      </trkpt>
      <trkpt lat="47.16218" lon="16.05057">
        <ele>360.41025</ele>
        <time>2026-07-08T10:45:11.000Z</time>
      </trkpt>
      <trkpt lat="47.16218" lon="16.0507">
        <ele>360.141917</ele>
        <time>2026-07-08T10:45:12.000Z</time>
      </trkpt>
      <trkpt lat="47.16217" lon="16.05083">
        <ele>359.860229</ele>
        <time>2026-07-08T10:45:13.000Z</time>
      </trkpt>
      <trkpt lat="47.16217" lon="16.05096">
        <ele>359.578343</ele>
        <time>2026-07-08T10:45:14.000Z</time>
      </trkpt>
      <trkpt lat="47.16216" lon="16.05109">
        <ele>359.293498</ele>
        <time>2026-07-08T10:45:15.000Z</time>
      </trkpt>
      <trkpt lat="47.16215" lon="16.05122">
        <ele>359.000819</ele>
        <time>2026-07-08T10:45:16.000Z</time>
      </trkpt>
      <trkpt lat="47.16214" lon="16.05136">
        <ele>358.699542</ele>
        <time>2026-07-08T10:45:17.000Z</time>
      </trkpt>
      <trkpt lat="47.16212" lon="16.0515">
        <ele>358.390056</ele>
        <time>2026-07-08T10:45:18.000Z</time>
      </trkpt>
      <trkpt lat="47.16209" lon="16.05164">
        <ele>358.079396</ele>
        <time>2026-07-08T10:45:19.000Z</time>
      </trkpt>
      <trkpt lat="47.16206" lon="16.05178">
        <ele>357.769913</ele>
        <time>2026-07-08T10:45:20.000Z</time>
      </trkpt>
      <trkpt lat="47.16202" lon="16.05191">
        <ele>357.444721</ele>
        <time>2026-07-08T10:45:21.000Z</time>
      </trkpt>
      <trkpt lat="47.16198" lon="16.05204">
        <ele>357.10289</ele>
        <time>2026-07-08T10:45:22.000Z</time>
      </trkpt>
      <trkpt lat="47.16194" lon="16.05217">
        <ele>356.768301</ele>
        <time>2026-07-08T10:45:23.000Z</time>
      </trkpt>
      <trkpt lat="47.16191" lon="16.0523">
        <ele>356.436749</ele>
        <time>2026-07-08T10:45:24.000Z</time>
      </trkpt>
      <trkpt lat="47.16188" lon="16.05243">
        <ele>356.114378</ele>
        <time>2026-07-08T10:45:25.000Z</time>
      </trkpt>
      <trkpt lat="47.16185" lon="16.05256">
        <ele>355.796442</ele>
        <time>2026-07-08T10:45:26.000Z</time>
      </trkpt>
      <trkpt lat="47.16183" lon="16.05268">
        <ele>355.481543</ele>
        <time>2026-07-08T10:45:27.000Z</time>
      </trkpt>
      <trkpt lat="47.16181" lon="16.05281">
        <ele>355.166385</ele>
        <time>2026-07-08T10:45:28.000Z</time>
      </trkpt>
      <trkpt lat="47.16179" lon="16.05294">
        <ele>354.85803</ele>
        <time>2026-07-08T10:45:29.000Z</time>
      </trkpt>
      <trkpt lat="47.16178" lon="16.05307">
        <ele>354.564215</ele>
        <time>2026-07-08T10:45:30.000Z</time>
      </trkpt>
      <trkpt lat="47.16177" lon="16.05319">
        <ele>354.272051</ele>
        <time>2026-07-08T10:45:32.000Z</time>
      </trkpt>
      <trkpt lat="47.16176" lon="16.05331">
        <ele>353.981886</ele>
        <time>2026-07-08T10:45:33.000Z</time>
      </trkpt>
      <trkpt lat="47.16176" lon="16.05343">
        <ele>353.697951</ele>
        <time>2026-07-08T10:45:34.000Z</time>
      </trkpt>
      <trkpt lat="47.16176" lon="16.05355">
        <ele>353.414123</ele>
        <time>2026-07-08T10:45:35.000Z</time>
      </trkpt>
      <trkpt lat="47.16177" lon="16.05367">
        <ele>353.122539</ele>
        <time>2026-07-08T10:45:36.000Z</time>
      </trkpt>
      <trkpt lat="47.16178" lon="16.0538">
        <ele>352.831978</ele>
        <time>2026-07-08T10:45:37.000Z</time>
      </trkpt>
      <trkpt lat="47.16179" lon="16.05392">
        <ele>352.537095</ele>
        <time>2026-07-08T10:45:38.000Z</time>
      </trkpt>
      <trkpt lat="47.1618" lon="16.05404">
        <ele>352.250785</ele>
        <time>2026-07-08T10:45:39.000Z</time>
      </trkpt>
      <trkpt lat="47.16182" lon="16.05416">
        <ele>351.96399</ele>
        <time>2026-07-08T10:45:40.000Z</time>
      </trkpt>
      <trkpt lat="47.16183" lon="16.05428">
        <ele>351.67343</ele>
        <time>2026-07-08T10:45:41.000Z</time>
      </trkpt>
      <trkpt lat="47.16184" lon="16.0544">
        <ele>351.391313</ele>
        <time>2026-07-08T10:45:42.000Z</time>
      </trkpt>
      <trkpt lat="47.16184" lon="16.05452">
        <ele>351.334052</ele>
        <time>2026-07-08T10:45:43.000Z</time>
      </trkpt>
      <trkpt lat="47.16184" lon="16.05463">
        <ele>351.284837</ele>
        <time>2026-07-08T10:45:44.000Z</time>
      </trkpt>
      <trkpt lat="47.16184" lon="16.05474">
        <ele>351.23857</ele>
        <time>2026-07-08T10:45:45.000Z</time>
      </trkpt>
      <trkpt lat="47.16183" lon="16.05486">
        <ele>351.188751</ele>
        <time>2026-07-08T10:45:46.000Z</time>
      </trkpt>
      <trkpt lat="47.16182" lon="16.05497">
        <ele>351.141238</ele>
        <time>2026-07-08T10:45:47.000Z</time>
      </trkpt>
      <trkpt lat="47.1618" lon="16.05508">
        <ele>351.094468</ele>
        <time>2026-07-08T10:45:48.000Z</time>
      </trkpt>
      <trkpt lat="47.16179" lon="16.05519">
        <ele>351.048225</ele>
        <time>2026-07-08T10:45:49.000Z</time>
      </trkpt>
      <trkpt lat="47.16177" lon="16.0553">
        <ele>351.001383</ele>
        <time>2026-07-08T10:45:50.000Z</time>
      </trkpt>
      <trkpt lat="47.16175" lon="16.0554">
        <ele>350.956328</ele>
        <time>2026-07-08T10:45:51.000Z</time>
      </trkpt>
      <trkpt lat="47.16173" lon="16.0555">
        <ele>350.911846</ele>
        <time>2026-07-08T10:45:52.000Z</time>
      </trkpt>
      <trkpt lat="47.1617" lon="16.0556">
        <ele>350.867821</ele>
        <time>2026-07-08T10:45:53.000Z</time>
      </trkpt>
      <trkpt lat="47.16168" lon="16.05569">
        <ele>350.82427</ele>
        <time>2026-07-08T10:45:54.000Z</time>
      </trkpt>
      <trkpt lat="47.16164" lon="16.05579">
        <ele>350.780805</ele>
        <time>2026-07-08T10:45:55.000Z</time>
      </trkpt>
      <trkpt lat="47.16161" lon="16.05588">
        <ele>350.736886</ele>
        <time>2026-07-08T10:45:56.000Z</time>
      </trkpt>
      <trkpt lat="47.16157" lon="16.05596">
        <ele>350.694436</ele>
        <time>2026-07-08T10:45:57.000Z</time>
      </trkpt>
      <trkpt lat="47.16153" lon="16.05604">
        <ele>350.652691</ele>
        <time>2026-07-08T10:45:58.000Z</time>
      </trkpt>
      <trkpt lat="47.1615" lon="16.05612">
        <ele>350.612691</ele>
        <time>2026-07-08T10:45:59.000Z</time>
      </trkpt>
      <trkpt lat="47.16146" lon="16.0562">
        <ele>350.572267</ele>
        <time>2026-07-08T10:46:00.000Z</time>
      </trkpt>
      <trkpt lat="47.16142" lon="16.05627">
        <ele>350.532886</ele>
        <time>2026-07-08T10:46:01.000Z</time>
      </trkpt>
      <trkpt lat="47.16138" lon="16.05634">
        <ele>350.496638</ele>
        <time>2026-07-08T10:46:02.000Z</time>
      </trkpt>
      <trkpt lat="47.16135" lon="16.05641">
        <ele>350.4611</ele>
        <time>2026-07-08T10:46:03.000Z</time>
      </trkpt>
      <trkpt lat="47.16131" lon="16.05647">
        <ele>350.427924</ele>
        <time>2026-07-08T10:46:04.000Z</time>
      </trkpt>
      <trkpt lat="47.16128" lon="16.05653">
        <ele>350.396599</ele>
        <time>2026-07-08T10:46:05.000Z</time>
      </trkpt>
      <trkpt lat="47.16126" lon="16.05659">
        <ele>350.36599</ele>
        <time>2026-07-08T10:46:06.000Z</time>
      </trkpt>
      <trkpt lat="47.16123" lon="16.05665">
        <ele>350.335672</ele>
        <time>2026-07-08T10:46:07.000Z</time>
      </trkpt>
      <trkpt lat="47.1612" lon="16.0567">
        <ele>350.306014</ele>
        <time>2026-07-08T10:46:08.000Z</time>
      </trkpt>
      <trkpt lat="47.16117" lon="16.05675">
        <ele>350.278769</ele>
        <time>2026-07-08T10:46:09.000Z</time>
      </trkpt>
      <trkpt lat="47.16114" lon="16.0568">
        <ele>350.359778</ele>
        <time>2026-07-08T10:46:10.000Z</time>
      </trkpt>
      <trkpt lat="47.16111" lon="16.05684">
        <ele>350.499197</ele>
        <time>2026-07-08T10:46:11.000Z</time>
      </trkpt>
      <trkpt lat="47.16108" lon="16.05688">
        <ele>350.644652</ele>
        <time>2026-07-08T10:46:12.000Z</time>
      </trkpt>
      <trkpt lat="47.16106" lon="16.05692">
        <ele>350.777723</ele>
        <time>2026-07-08T10:46:13.000Z</time>
      </trkpt>
      <trkpt lat="47.16103" lon="16.05697">
        <ele>350.906667</ele>
        <time>2026-07-08T10:46:14.000Z</time>
      </trkpt>
      <trkpt lat="47.16101" lon="16.057">
        <ele>351.023295</ele>
        <time>2026-07-08T10:46:15.000Z</time>
      </trkpt>
      <trkpt lat="47.16099" lon="16.05705">
        <ele>351.148467</ele>
        <time>2026-07-08T10:46:16.000Z</time>
      </trkpt>
      <trkpt lat="47.16097" lon="16.05708">
        <ele>351.263385</ele>
        <time>2026-07-08T10:46:17.000Z</time>
      </trkpt>
      <trkpt lat="47.16094" lon="16.05711">
        <ele>351.380027</ele>
        <time>2026-07-08T10:46:18.000Z</time>
      </trkpt>
      <trkpt lat="47.16091" lon="16.05715">
        <ele>351.504997</ele>
        <time>2026-07-08T10:46:19.000Z</time>
      </trkpt>
      <trkpt lat="47.16089" lon="16.05718">
        <ele>351.619916</ele>
        <time>2026-07-08T10:46:20.000Z</time>
      </trkpt>
      <trkpt lat="47.16087" lon="16.05722">
        <ele>351.738149</ele>
        <time>2026-07-08T10:46:21.000Z</time>
      </trkpt>
      <trkpt lat="47.16084" lon="16.05725">
        <ele>351.857997</ele>
        <time>2026-07-08T10:46:22.000Z</time>
      </trkpt>
      <trkpt lat="47.16082" lon="16.05729">
        <ele>351.979485</ele>
        <time>2026-07-08T10:46:23.000Z</time>
      </trkpt>
      <trkpt lat="47.16079" lon="16.05732">
        <ele>352.094403</ele>
        <time>2026-07-08T10:46:24.000Z</time>
      </trkpt>
      <trkpt lat="47.16077" lon="16.05736">
        <ele>352.211761</ele>
        <time>2026-07-08T10:46:25.000Z</time>
      </trkpt>
      <trkpt lat="47.16074" lon="16.05739">
        <ele>352.326841</ele>
        <time>2026-07-08T10:46:26.000Z</time>
      </trkpt>
      <trkpt lat="47.16072" lon="16.05742">
        <ele>352.446091</ele>
        <time>2026-07-08T10:46:27.000Z</time>
      </trkpt>
      <trkpt lat="47.16069" lon="16.05745">
        <ele>352.558127</ele>
        <time>2026-07-08T10:46:28.000Z</time>
      </trkpt>
      <trkpt lat="47.16067" lon="16.05749">
        <ele>352.67636</ele>
        <time>2026-07-08T10:46:29.000Z</time>
      </trkpt>
      <trkpt lat="47.16064" lon="16.05752">
        <ele>352.798259</ele>
        <time>2026-07-08T10:46:30.000Z</time>
      </trkpt>
      <trkpt lat="47.16061" lon="16.05756">
        <ele>352.925855</ele>
        <time>2026-07-08T10:46:31.000Z</time>
      </trkpt>
      <trkpt lat="47.16059" lon="16.05759">
        <ele>353.050826</ele>
        <time>2026-07-08T10:46:32.000Z</time>
      </trkpt>
      <trkpt lat="47.16056" lon="16.05763">
        <ele>353.183789</ele>
        <time>2026-07-08T10:46:33.000Z</time>
      </trkpt>
      <trkpt lat="47.16053" lon="16.05766">
        <ele>353.309756</ele>
        <time>2026-07-08T10:46:34.000Z</time>
      </trkpt>
      <trkpt lat="47.16049" lon="16.05769">
        <ele>353.441524</ele>
        <time>2026-07-08T10:46:35.000Z</time>
      </trkpt>
      <trkpt lat="47.16046" lon="16.05772">
        <ele>353.570377</ele>
        <time>2026-07-08T10:46:36.000Z</time>
      </trkpt>
      <trkpt lat="47.16043" lon="16.05775">
        <ele>353.696344</ele>
        <time>2026-07-08T10:46:37.000Z</time>
      </trkpt>
      <trkpt lat="47.1604" lon="16.05778">
        <ele>353.826426</ele>
        <time>2026-07-08T10:46:38.000Z</time>
      </trkpt>
      <trkpt lat="47.16037" lon="16.05781">
        <ele>353.951081</ele>
        <time>2026-07-08T10:46:39.000Z</time>
      </trkpt>
      <trkpt lat="47.16034" lon="16.05784">
        <ele>354.084133</ele>
        <time>2026-07-08T10:46:40.000Z</time>
      </trkpt>
      <trkpt lat="47.16031" lon="16.05787">
        <ele>354.214647</ele>
        <time>2026-07-08T10:46:41.000Z</time>
      </trkpt>
      <trkpt lat="47.16028" lon="16.0579">
        <ele>354.33634</ele>
        <time>2026-07-08T10:46:42.000Z</time>
      </trkpt>
      <trkpt lat="47.16025" lon="16.05793">
        <ele>354.46785</ele>
        <time>2026-07-08T10:46:43.000Z</time>
      </trkpt>
      <trkpt lat="47.16022" lon="16.05797">
        <ele>354.606414</ele>
        <time>2026-07-08T10:46:44.000Z</time>
      </trkpt>
      <trkpt lat="47.16019" lon="16.058">
        <ele>354.738182</ele>
        <time>2026-07-08T10:46:45.000Z</time>
      </trkpt>
      <trkpt lat="47.16016" lon="16.05803">
        <ele>354.866863</ele>
        <time>2026-07-08T10:46:46.000Z</time>
      </trkpt>
      <trkpt lat="47.16013" lon="16.05806">
        <ele>354.994173</ele>
        <time>2026-07-08T10:46:47.000Z</time>
      </trkpt>
      <trkpt lat="47.1601" lon="16.05809">
        <ele>355.12177</ele>
        <time>2026-07-08T10:46:48.000Z</time>
      </trkpt>
      <trkpt lat="47.16007" lon="16.05813">
        <ele>355.254734</ele>
        <time>2026-07-08T10:46:49.000Z</time>
      </trkpt>
      <trkpt lat="47.16004" lon="16.05816">
        <ele>355.384995</ele>
        <time>2026-07-08T10:46:50.000Z</time>
      </trkpt>
      <trkpt lat="47.16001" lon="16.0582">
        <ele>355.511076</ele>
        <time>2026-07-08T10:46:51.000Z</time>
      </trkpt>
      <trkpt lat="47.15998" lon="16.05823">
        <ele>355.635666</ele>
        <time>2026-07-08T10:46:52.000Z</time>
      </trkpt>
      <trkpt lat="47.15996" lon="16.05827">
        <ele>355.753025</ele>
        <time>2026-07-08T10:46:53.000Z</time>
      </trkpt>
      <trkpt lat="47.15993" lon="16.0583">
        <ele>355.876177</ele>
        <time>2026-07-08T10:46:54.000Z</time>
      </trkpt>
      <trkpt lat="47.15991" lon="16.05834">
        <ele>355.992806</ele>
        <time>2026-07-08T10:46:55.000Z</time>
      </trkpt>
      <trkpt lat="47.15989" lon="16.05838">
        <ele>356.115959</ele>
        <time>2026-07-08T10:46:56.000Z</time>
      </trkpt>
      <trkpt lat="47.15986" lon="16.05841">
        <ele>356.24093</ele>
        <time>2026-07-08T10:46:57.000Z</time>
      </trkpt>
      <trkpt lat="47.15983" lon="16.05845">
        <ele>356.364082</ele>
        <time>2026-07-08T10:46:58.000Z</time>
      </trkpt>
      <trkpt lat="47.15981" lon="16.05848">
        <ele>356.485572</ele>
        <time>2026-07-08T10:46:59.000Z</time>
      </trkpt>
      <trkpt lat="47.15979" lon="16.05852">
        <ele>356.620931</ele>
        <time>2026-07-08T10:47:00.000Z</time>
      </trkpt>
      <trkpt lat="47.15976" lon="16.05856">
        <ele>356.758406</ele>
        <time>2026-07-08T10:47:01.000Z</time>
      </trkpt>
      <trkpt lat="47.15974" lon="16.0586">
        <ele>356.901674</ele>
        <time>2026-07-08T10:47:02.000Z</time>
      </trkpt>
      <trkpt lat="47.15972" lon="16.05864">
        <ele>357.03915</ele>
        <time>2026-07-08T10:47:03.000Z</time>
      </trkpt>
      <trkpt lat="47.1597" lon="16.05868">
        <ele>357.174016</ele>
        <time>2026-07-08T10:47:04.000Z</time>
      </trkpt>
      <trkpt lat="47.15967" lon="16.05872">
        <ele>357.313041</ele>
        <time>2026-07-08T10:47:05.000Z</time>
      </trkpt>
      <trkpt lat="47.15965" lon="16.05876">
        <ele>357.447211</ele>
        <time>2026-07-08T10:47:06.000Z</time>
      </trkpt>
      <trkpt lat="47.15963" lon="16.0588">
        <ele>357.588769</ele>
        <time>2026-07-08T10:47:07.000Z</time>
      </trkpt>
      <trkpt lat="47.15961" lon="16.05884">
        <ele>357.722938</ele>
        <time>2026-07-08T10:47:08.000Z</time>
      </trkpt>
      <trkpt lat="47.15959" lon="16.05888">
        <ele>357.852557</ele>
        <time>2026-07-08T10:47:09.000Z</time>
      </trkpt>
      <trkpt lat="47.15958" lon="16.05892">
        <ele>357.980756</ele>
        <time>2026-07-08T10:47:10.000Z</time>
      </trkpt>
      <trkpt lat="47.15956" lon="16.05896">
        <ele>358.117076</ele>
        <time>2026-07-08T10:47:11.000Z</time>
      </trkpt>
      <trkpt lat="47.15954" lon="16.05901">
        <ele>358.257858</ele>
        <time>2026-07-08T10:47:12.000Z</time>
      </trkpt>
      <trkpt lat="47.15952" lon="16.05905">
        <ele>358.392027</ele>
        <time>2026-07-08T10:47:13.000Z</time>
      </trkpt>
      <trkpt lat="47.1595" lon="16.05909">
        <ele>358.528589</ele>
        <time>2026-07-08T10:47:14.000Z</time>
      </trkpt>
      <trkpt lat="47.15948" lon="16.05913">
        <ele>358.662758</ele>
        <time>2026-07-08T10:47:15.000Z</time>
      </trkpt>
      <trkpt lat="47.15946" lon="16.05917">
        <ele>358.79717</ele>
        <time>2026-07-08T10:47:16.000Z</time>
      </trkpt>
      <trkpt lat="47.15945" lon="16.05921">
        <ele>358.92061</ele>
        <time>2026-07-08T10:47:17.000Z</time>
      </trkpt>
      <trkpt lat="47.15943" lon="16.05925">
        <ele>359.04881</ele>
        <time>2026-07-08T10:47:18.000Z</time>
      </trkpt>
      <trkpt lat="47.15941" lon="16.05929">
        <ele>359.180893</ele>
        <time>2026-07-08T10:47:19.000Z</time>
      </trkpt>
      <trkpt lat="47.1594" lon="16.05933">
        <ele>359.30314</ele>
        <time>2026-07-08T10:47:20.000Z</time>
      </trkpt>
      <trkpt lat="47.15938" lon="16.05938">
        <ele>359.442251</ele>
        <time>2026-07-08T10:47:21.000Z</time>
      </trkpt>
      <trkpt lat="47.15937" lon="16.05942">
        <ele>359.575259</ele>
        <time>2026-07-08T10:47:22.000Z</time>
      </trkpt>
      <trkpt lat="47.15935" lon="16.05946">
        <ele>359.698699</ele>
        <time>2026-07-08T10:47:23.000Z</time>
      </trkpt>
      <trkpt lat="47.15934" lon="16.0595">
        <ele>359.82214</ele>
        <time>2026-07-08T10:47:24.000Z</time>
      </trkpt>
      <trkpt lat="47.15933" lon="16.05954">
        <ele>359.941944</ele>
        <time>2026-07-08T10:47:25.000Z</time>
      </trkpt>
      <trkpt lat="47.15931" lon="16.05959">
        <ele>360.072542</ele>
        <time>2026-07-08T10:47:26.000Z</time>
      </trkpt>
      <trkpt lat="47.1593" lon="16.05963">
        <ele>360.197244</ele>
        <time>2026-07-08T10:47:27.000Z</time>
      </trkpt>
      <trkpt lat="47.15929" lon="16.05967">
        <ele>360.322849</ele>
        <time>2026-07-08T10:47:28.000Z</time>
      </trkpt>
      <trkpt lat="47.15927" lon="16.05971">
        <ele>360.451048</ele>
        <time>2026-07-08T10:47:29.000Z</time>
      </trkpt>
      <trkpt lat="47.15926" lon="16.05976">
        <ele>360.578215</ele>
        <time>2026-07-08T10:47:30.000Z</time>
      </trkpt>
      <trkpt lat="47.15924" lon="16.0598">
        <ele>360.699786</ele>
        <time>2026-07-08T10:47:31.000Z</time>
      </trkpt>
      <trkpt lat="47.15923" lon="16.05984">
        <ele>360.82004</ele>
        <time>2026-07-08T10:47:32.000Z</time>
      </trkpt>
      <trkpt lat="47.15922" lon="16.05988">
        <ele>360.935206</ele>
        <time>2026-07-08T10:47:33.000Z</time>
      </trkpt>
      <trkpt lat="47.15922" lon="16.05992">
        <ele>361.047877</ele>
        <time>2026-07-08T10:47:34.000Z</time>
      </trkpt>
      <trkpt lat="47.15921" lon="16.05996">
        <ele>361.162111</ele>
        <time>2026-07-08T10:47:35.000Z</time>
      </trkpt>
      <trkpt lat="47.1592" lon="16.06">
        <ele>361.269357</ele>
        <time>2026-07-08T10:47:36.000Z</time>
      </trkpt>
      <trkpt lat="47.1592" lon="16.06003">
        <ele>361.36952</ele>
        <time>2026-07-08T10:47:37.000Z</time>
      </trkpt>
      <trkpt lat="47.15919" lon="16.06007">
        <ele>361.47146</ele>
        <time>2026-07-08T10:47:38.000Z</time>
      </trkpt>
      <trkpt lat="47.15918" lon="16.0601">
        <ele>361.566629</ele>
        <time>2026-07-08T10:47:39.000Z</time>
      </trkpt>
      <trkpt lat="47.15917" lon="16.06014">
        <ele>361.66426</ele>
        <time>2026-07-08T10:47:40.000Z</time>
      </trkpt>
      <trkpt lat="47.15916" lon="16.06017">
        <ele>361.761891</ele>
        <time>2026-07-08T10:47:41.000Z</time>
      </trkpt>
      <trkpt lat="47.15916" lon="16.0602">
        <ele>361.860478</ele>
        <time>2026-07-08T10:47:42.000Z</time>
      </trkpt>
      <trkpt lat="47.15915" lon="16.06024">
        <ele>361.960259</ele>
        <time>2026-07-08T10:47:43.000Z</time>
      </trkpt>
      <trkpt lat="47.15914" lon="16.06027">
        <ele>362.058854</ele>
        <time>2026-07-08T10:47:44.000Z</time>
      </trkpt>
      <trkpt lat="47.15913" lon="16.0603">
        <ele>362.148456</ele>
        <time>2026-07-08T10:47:45.000Z</time>
      </trkpt>
      <trkpt lat="47.15912" lon="16.06034">
        <ele>362.243625</ele>
        <time>2026-07-08T10:47:46.000Z</time>
      </trkpt>
      <trkpt lat="47.15911" lon="16.06037">
        <ele>362.335758</ele>
        <time>2026-07-08T10:47:47.000Z</time>
      </trkpt>
      <trkpt lat="47.15911" lon="16.0604">
        <ele>362.434346</ele>
        <time>2026-07-08T10:47:48.000Z</time>
      </trkpt>
      <trkpt lat="47.1591" lon="16.06044">
        <ele>362.525709</ele>
        <time>2026-07-08T10:47:49.000Z</time>
      </trkpt>
      <trkpt lat="47.1591" lon="16.06047">
        <ele>362.62765</ele>
        <time>2026-07-08T10:47:50.000Z</time>
      </trkpt>
      <trkpt lat="47.15909" lon="16.06051">
        <ele>362.726941</ele>
        <time>2026-07-08T10:47:51.000Z</time>
      </trkpt>
      <trkpt lat="47.15908" lon="16.06055">
        <ele>362.830725</ele>
        <time>2026-07-08T10:47:52.000Z</time>
      </trkpt>
      <trkpt lat="47.15907" lon="16.06058">
        <ele>362.940835</ele>
        <time>2026-07-08T10:47:53.000Z</time>
      </trkpt>
      <trkpt lat="47.15906" lon="16.06062">
        <ele>363.053379</ele>
        <time>2026-07-08T10:47:54.000Z</time>
      </trkpt>
      <trkpt lat="47.15905" lon="16.06066">
        <ele>363.176489</ele>
        <time>2026-07-08T10:47:55.000Z</time>
      </trkpt>
      <trkpt lat="47.15904" lon="16.0607">
        <ele>363.291441</ele>
        <time>2026-07-08T10:47:56.000Z</time>
      </trkpt>
      <trkpt lat="47.15902" lon="16.06074">
        <ele>363.411246</ele>
        <time>2026-07-08T10:47:57.000Z</time>
      </trkpt>
      <trkpt lat="47.15901" lon="16.06078">
        <ele>363.534687</ele>
        <time>2026-07-08T10:47:58.000Z</time>
      </trkpt>
      <trkpt lat="47.15899" lon="16.06082">
        <ele>363.662233</ele>
        <time>2026-07-08T10:47:59.000Z</time>
      </trkpt>
      <trkpt lat="47.15897" lon="16.06086">
        <ele>363.657158</ele>
        <time>2026-07-08T10:48:00.000Z</time>
      </trkpt>
      <trkpt lat="47.15895" lon="16.0609">
        <ele>363.652353</ele>
        <time>2026-07-08T10:48:01.000Z</time>
      </trkpt>
      <trkpt lat="47.15893" lon="16.06094">
        <ele>363.647199</ele>
        <time>2026-07-08T10:48:02.000Z</time>
      </trkpt>
      <trkpt lat="47.15892" lon="16.06098">
        <ele>363.642206</ele>
        <time>2026-07-08T10:48:03.000Z</time>
      </trkpt>
      <trkpt lat="47.1589" lon="16.06102">
        <ele>363.636878</ele>
        <time>2026-07-08T10:48:04.000Z</time>
      </trkpt>
      <trkpt lat="47.15888" lon="16.06107">
        <ele>363.631232</ele>
        <time>2026-07-08T10:48:05.000Z</time>
      </trkpt>
      <trkpt lat="47.15886" lon="16.06112">
        <ele>363.625274</ele>
        <time>2026-07-08T10:48:06.000Z</time>
      </trkpt>
      <trkpt lat="47.15884" lon="16.06117">
        <ele>363.619328</ele>
        <time>2026-07-08T10:48:07.000Z</time>
      </trkpt>
      <trkpt lat="47.15882" lon="16.06121">
        <ele>363.613126</ele>
        <time>2026-07-08T10:48:08.000Z</time>
      </trkpt>
      <trkpt lat="47.1588" lon="16.06126">
        <ele>363.606823</ele>
        <time>2026-07-08T10:48:09.000Z</time>
      </trkpt>
      <trkpt lat="47.15877" lon="16.0613">
        <ele>363.600848</ele>
        <time>2026-07-08T10:48:10.000Z</time>
      </trkpt>
      <trkpt lat="47.15875" lon="16.06135">
        <ele>363.594821</ele>
        <time>2026-07-08T10:48:11.000Z</time>
      </trkpt>
      <trkpt lat="47.15873" lon="16.0614">
        <ele>363.588445</ele>
        <time>2026-07-08T10:48:12.000Z</time>
      </trkpt>
      <trkpt lat="47.15871" lon="16.06145">
        <ele>363.582135</ele>
        <time>2026-07-08T10:48:13.000Z</time>
      </trkpt>
      <trkpt lat="47.15868" lon="16.06151">
        <ele>363.575576</ele>
        <time>2026-07-08T10:48:14.000Z</time>
      </trkpt>
      <trkpt lat="47.15866" lon="16.06156">
        <ele>363.568763</ele>
        <time>2026-07-08T10:48:15.000Z</time>
      </trkpt>
      <trkpt lat="47.15864" lon="16.06162">
        <ele>363.561763</ele>
        <time>2026-07-08T10:48:16.000Z</time>
      </trkpt>
      <trkpt lat="47.15861" lon="16.06167">
        <ele>363.554671</ele>
        <time>2026-07-08T10:48:17.000Z</time>
      </trkpt>
      <trkpt lat="47.15859" lon="16.06173">
        <ele>363.547319</ele>
        <time>2026-07-08T10:48:18.000Z</time>
      </trkpt>
      <trkpt lat="47.15856" lon="16.06179">
        <ele>363.539886</ele>
        <time>2026-07-08T10:48:19.000Z</time>
      </trkpt>
      <trkpt lat="47.15854" lon="16.06186">
        <ele>363.53257</ele>
        <time>2026-07-08T10:48:20.000Z</time>
      </trkpt>
      <trkpt lat="47.15852" lon="16.06192">
        <ele>363.524745</ele>
        <time>2026-07-08T10:48:21.000Z</time>
      </trkpt>
      <trkpt lat="47.1585" lon="16.06199">
        <ele>363.516784</ele>
        <time>2026-07-08T10:48:22.000Z</time>
      </trkpt>
      <trkpt lat="47.15849" lon="16.06207">
        <ele>363.508784</ele>
        <time>2026-07-08T10:48:23.000Z</time>
      </trkpt>
      <trkpt lat="47.15847" lon="16.06214">
        <ele>363.50083</ele>
        <time>2026-07-08T10:48:24.000Z</time>
      </trkpt>
      <trkpt lat="47.15846" lon="16.06221">
        <ele>363.49248</ele>
        <time>2026-07-08T10:48:25.000Z</time>
      </trkpt>
      <trkpt lat="47.15844" lon="16.06229">
        <ele>363.484223</ele>
        <time>2026-07-08T10:48:26.000Z</time>
      </trkpt>
      <trkpt lat="47.15842" lon="16.06236">
        <ele>363.475772</ele>
        <time>2026-07-08T10:48:27.000Z</time>
      </trkpt>
      <trkpt lat="47.15841" lon="16.06244">
        <ele>363.467312</ele>
        <time>2026-07-08T10:48:28.000Z</time>
      </trkpt>
      <trkpt lat="47.1584" lon="16.06253">
        <ele>363.458173</ele>
        <time>2026-07-08T10:48:29.000Z</time>
      </trkpt>
      <trkpt lat="47.15839" lon="16.06262">
        <ele>363.448486</ele>
        <time>2026-07-08T10:48:30.000Z</time>
      </trkpt>
      <trkpt lat="47.15838" lon="16.0627">
        <ele>363.439233</ele>
        <time>2026-07-08T10:48:31.000Z</time>
      </trkpt>
      <trkpt lat="47.15837" lon="16.06279">
        <ele>363.429681</ele>
        <time>2026-07-08T10:48:32.000Z</time>
      </trkpt>
      <trkpt lat="47.15837" lon="16.06288">
        <ele>363.420354</ele>
        <time>2026-07-08T10:48:33.000Z</time>
      </trkpt>
      <trkpt lat="47.15836" lon="16.06297">
        <ele>363.410606</ele>
        <time>2026-07-08T10:48:34.000Z</time>
      </trkpt>
      <trkpt lat="47.15836" lon="16.06306">
        <ele>363.400963</ele>
        <time>2026-07-08T10:48:35.000Z</time>
      </trkpt>
      <trkpt lat="47.15835" lon="16.06316">
        <ele>363.391015</ele>
        <time>2026-07-08T10:48:36.000Z</time>
      </trkpt>
      <trkpt lat="47.15835" lon="16.06325">
        <ele>363.360128</ele>
        <time>2026-07-08T10:48:37.000Z</time>
      </trkpt>
      <trkpt lat="47.15835" lon="16.06335">
        <ele>363.23159</ele>
        <time>2026-07-08T10:48:38.000Z</time>
      </trkpt>
      <trkpt lat="47.15835" lon="16.06344">
        <ele>363.10439</ele>
        <time>2026-07-08T10:48:39.000Z</time>
      </trkpt>
      <trkpt lat="47.15836" lon="16.06354">
        <ele>362.973086</ele>
        <time>2026-07-08T10:48:40.000Z</time>
      </trkpt>
      <trkpt lat="47.15836" lon="16.06363">
        <ele>362.852449</ele>
        <time>2026-07-08T10:48:41.000Z</time>
      </trkpt>
      <trkpt lat="47.15836" lon="16.06373">
        <ele>362.727519</ele>
        <time>2026-07-08T10:48:42.000Z</time>
      </trkpt>
      <trkpt lat="47.15836" lon="16.06382">
        <ele>362.604233</ele>
        <time>2026-07-08T10:48:43.000Z</time>
      </trkpt>
      <trkpt lat="47.15836" lon="16.06391">
        <ele>362.480871</ele>
        <time>2026-07-08T10:48:44.000Z</time>
      </trkpt>
      <trkpt lat="47.15835" lon="16.06401">
        <ele>362.357716</ele>
        <time>2026-07-08T10:48:45.000Z</time>
      </trkpt>
      <trkpt lat="47.15834" lon="16.0641">
        <ele>362.229318</ele>
        <time>2026-07-08T10:48:46.000Z</time>
      </trkpt>
      <trkpt lat="47.15832" lon="16.06419">
        <ele>362.107798</ele>
        <time>2026-07-08T10:48:47.000Z</time>
      </trkpt>
      <trkpt lat="47.15831" lon="16.06428">
        <ele>361.981997</ele>
        <time>2026-07-08T10:48:48.000Z</time>
      </trkpt>
      <trkpt lat="47.1583" lon="16.06437">
        <ele>361.859218</ele>
        <time>2026-07-08T10:48:49.000Z</time>
      </trkpt>
      <trkpt lat="47.15828" lon="16.06447">
        <ele>361.730339</ele>
        <time>2026-07-08T10:48:50.000Z</time>
      </trkpt>
      <trkpt lat="47.15826" lon="16.06456">
        <ele>361.60301</ele>
        <time>2026-07-08T10:48:51.000Z</time>
      </trkpt>
      <trkpt lat="47.15823" lon="16.06465">
        <ele>361.47861</ele>
        <time>2026-07-08T10:48:52.000Z</time>
      </trkpt>
      <trkpt lat="47.15821" lon="16.06473">
        <ele>361.357396</ele>
        <time>2026-07-08T10:48:53.000Z</time>
      </trkpt>
      <trkpt lat="47.15818" lon="16.06482">
        <ele>361.233088</ele>
        <time>2026-07-08T10:48:54.000Z</time>
      </trkpt>
      <trkpt lat="47.15816" lon="16.06491">
        <ele>361.104272</ele>
        <time>2026-07-08T10:48:55.000Z</time>
      </trkpt>
      <trkpt lat="47.15814" lon="16.065">
        <ele>360.976879</ele>
        <time>2026-07-08T10:48:56.000Z</time>
      </trkpt>
      <trkpt lat="47.15811" lon="16.06509">
        <ele>360.848062</ele>
        <time>2026-07-08T10:48:57.000Z</time>
      </trkpt>
      <trkpt lat="47.15809" lon="16.06517">
        <ele>360.724382</ele>
        <time>2026-07-08T10:48:58.000Z</time>
      </trkpt>
      <trkpt lat="47.15807" lon="16.06526">
        <ele>360.601441</ele>
        <time>2026-07-08T10:48:59.000Z</time>
      </trkpt>
      <trkpt lat="47.15805" lon="16.06535">
        <ele>360.482264</ele>
        <time>2026-07-08T10:49:00.000Z</time>
      </trkpt>
      <trkpt lat="47.15803" lon="16.06543">
        <ele>360.36119</ele>
        <time>2026-07-08T10:49:01.000Z</time>
      </trkpt>
      <trkpt lat="47.15801" lon="16.06552">
        <ele>360.235733</ele>
        <time>2026-07-08T10:49:02.000Z</time>
      </trkpt>
      <trkpt lat="47.15799" lon="16.06561">
        <ele>360.111193</ele>
        <time>2026-07-08T10:49:03.000Z</time>
      </trkpt>
      <trkpt lat="47.15797" lon="16.0657">
        <ele>359.985736</ele>
        <time>2026-07-08T10:49:04.000Z</time>
      </trkpt>
      <trkpt lat="47.15795" lon="16.0658">
        <ele>359.856472</ele>
        <time>2026-07-08T10:49:05.000Z</time>
      </trkpt>
      <trkpt lat="47.15794" lon="16.06589">
        <ele>359.715112</ele>
        <time>2026-07-08T10:49:06.000Z</time>
      </trkpt>
      <trkpt lat="47.15793" lon="16.06598">
        <ele>359.582932</ele>
        <time>2026-07-08T10:49:07.000Z</time>
      </trkpt>
      <trkpt lat="47.15792" lon="16.06608">
        <ele>359.442474</ele>
        <time>2026-07-08T10:49:08.000Z</time>
      </trkpt>
      <trkpt lat="47.1579" lon="16.06617">
        <ele>359.302016</ele>
        <time>2026-07-08T10:49:09.000Z</time>
      </trkpt>
      <trkpt lat="47.15789" lon="16.06627">
        <ele>359.158681</ele>
        <time>2026-07-08T10:49:10.000Z</time>
      </trkpt>
      <trkpt lat="47.15789" lon="16.06637">
        <ele>359.012737</ele>
        <time>2026-07-08T10:49:11.000Z</time>
      </trkpt>
      <trkpt lat="47.15787" lon="16.06648">
        <ele>358.850123</ele>
        <time>2026-07-08T10:49:12.000Z</time>
      </trkpt>
      <trkpt lat="47.15786" lon="16.06658">
        <ele>358.70362</ele>
        <time>2026-07-08T10:49:13.000Z</time>
      </trkpt>
      <trkpt lat="47.15785" lon="16.06668">
        <ele>358.555025</ele>
        <time>2026-07-08T10:49:14.000Z</time>
      </trkpt>
      <trkpt lat="47.15785" lon="16.06678">
        <ele>358.414429</ele>
        <time>2026-07-08T10:49:15.000Z</time>
      </trkpt>
      <trkpt lat="47.15785" lon="16.06688">
        <ele>358.269093</ele>
        <time>2026-07-08T10:49:16.000Z</time>
      </trkpt>
      <trkpt lat="47.15784" lon="16.06697">
        <ele>358.129539</ele>
        <time>2026-07-08T10:49:17.000Z</time>
      </trkpt>
      <trkpt lat="47.15784" lon="16.06707">
        <ele>357.988797</ele>
        <time>2026-07-08T10:49:18.000Z</time>
      </trkpt>
      <trkpt lat="47.15783" lon="16.06717">
        <ele>357.847411</ele>
        <time>2026-07-08T10:49:19.000Z</time>
      </trkpt>
      <trkpt lat="47.15783" lon="16.06726">
        <ele>357.708248</ele>
        <time>2026-07-08T10:49:20.000Z</time>
      </trkpt>
      <trkpt lat="47.15783" lon="16.06736">
        <ele>357.567393</ele>
        <time>2026-07-08T10:49:21.000Z</time>
      </trkpt>
      <trkpt lat="47.15782" lon="16.06746">
        <ele>357.428644</ele>
        <time>2026-07-08T10:49:22.000Z</time>
      </trkpt>
      <trkpt lat="47.15781" lon="16.06755">
        <ele>357.293602</ele>
        <time>2026-07-08T10:49:23.000Z</time>
      </trkpt>
      <trkpt lat="47.1578" lon="16.06764">
        <ele>357.157729</ele>
        <time>2026-07-08T10:49:24.000Z</time>
      </trkpt>
      <trkpt lat="47.1578" lon="16.06774">
        <ele>357.016729</ele>
        <time>2026-07-08T10:49:25.000Z</time>
      </trkpt>
      <trkpt lat="47.15779" lon="16.06783">
        <ele>356.877175</ele>
        <time>2026-07-08T10:49:26.000Z</time>
      </trkpt>
      <trkpt lat="47.15779" lon="16.06793">
        <ele>356.743553</ele>
        <time>2026-07-08T10:49:27.000Z</time>
      </trkpt>
      <trkpt lat="47.15778" lon="16.06802">
        <ele>356.602554</ele>
        <time>2026-07-08T10:49:28.000Z</time>
      </trkpt>
      <trkpt lat="47.15778" lon="16.06812">
        <ele>356.46326</ele>
        <time>2026-07-08T10:49:29.000Z</time>
      </trkpt>
      <trkpt lat="47.15778" lon="16.06822">
        <ele>356.319622</ele>
        <time>2026-07-08T10:49:30.000Z</time>
      </trkpt>
      <trkpt lat="47.15777" lon="16.06832">
        <ele>356.169949</ele>
        <time>2026-07-08T10:49:31.000Z</time>
      </trkpt>
      <trkpt lat="47.15777" lon="16.06842">
        <ele>356.023166</ele>
        <time>2026-07-08T10:49:32.000Z</time>
      </trkpt>
      <trkpt lat="47.15776" lon="16.06852">
        <ele>355.840284</ele>
        <time>2026-07-08T10:49:33.000Z</time>
      </trkpt>
      <trkpt lat="47.15776" lon="16.06862">
        <ele>355.657008</ele>
        <time>2026-07-08T10:49:34.000Z</time>
      </trkpt>
      <trkpt lat="47.15775" lon="16.06872">
        <ele>355.465607</ele>
        <time>2026-07-08T10:49:35.000Z</time>
      </trkpt>
      <trkpt lat="47.15774" lon="16.06882">
        <ele>355.282331</ele>
        <time>2026-07-08T10:49:36.000Z</time>
      </trkpt>
      <trkpt lat="47.15774" lon="16.06893">
        <ele>355.093809</ele>
        <time>2026-07-08T10:49:37.000Z</time>
      </trkpt>
      <trkpt lat="47.15774" lon="16.06903">
        <ele>354.905689</ele>
        <time>2026-07-08T10:49:38.000Z</time>
      </trkpt>
      <trkpt lat="47.15773" lon="16.06913">
        <ele>354.715743</ele>
        <time>2026-07-08T10:49:39.000Z</time>
      </trkpt>
      <trkpt lat="47.15773" lon="16.06923">
        <ele>354.531351</ele>
        <time>2026-07-08T10:49:40.000Z</time>
      </trkpt>
      <trkpt lat="47.15773" lon="16.06934">
        <ele>354.33051</ele>
        <time>2026-07-08T10:49:41.000Z</time>
      </trkpt>
      <trkpt lat="47.15773" lon="16.06945">
        <ele>354.14064</ele>
        <time>2026-07-08T10:49:42.000Z</time>
      </trkpt>
      <trkpt lat="47.15773" lon="16.06955">
        <ele>353.955935</ele>
        <time>2026-07-08T10:49:43.000Z</time>
      </trkpt>
      <trkpt lat="47.15772" lon="16.06965">
        <ele>353.765592</ele>
        <time>2026-07-08T10:49:44.000Z</time>
      </trkpt>
      <trkpt lat="47.15772" lon="16.06975">
        <ele>353.580497</ele>
        <time>2026-07-08T10:49:45.000Z</time>
      </trkpt>
      <trkpt lat="47.15771" lon="16.06985">
        <ele>353.397437</ele>
        <time>2026-07-08T10:49:46.000Z</time>
      </trkpt>
      <trkpt lat="47.15771" lon="16.06995">
        <ele>353.214792</ele>
        <time>2026-07-08T10:49:47.000Z</time>
      </trkpt>
      <trkpt lat="47.15771" lon="16.07005">
        <ele>353.037194</ele>
        <time>2026-07-08T10:49:48.000Z</time>
      </trkpt>
      <trkpt lat="47.1577" lon="16.07015">
        <ele>352.859109</ele>
        <time>2026-07-08T10:49:49.000Z</time>
      </trkpt>
      <trkpt lat="47.15769" lon="16.07025">
        <ele>352.675283</ele>
        <time>2026-07-08T10:49:50.000Z</time>
      </trkpt>
      <trkpt lat="47.15769" lon="16.07035">
        <ele>352.495865</ele>
        <time>2026-07-08T10:49:51.000Z</time>
      </trkpt>
      <trkpt lat="47.15768" lon="16.07045">
        <ele>352.306598</ele>
        <time>2026-07-08T10:49:52.000Z</time>
      </trkpt>
      <trkpt lat="47.15767" lon="16.07055">
        <ele>352.113984</ele>
        <time>2026-07-08T10:49:53.000Z</time>
      </trkpt>
      <trkpt lat="47.15767" lon="16.07066">
        <ele>351.918176</ele>
        <time>2026-07-08T10:49:54.000Z</time>
      </trkpt>
      <trkpt lat="47.15766" lon="16.07077">
        <ele>351.720548</ele>
        <time>2026-07-08T10:49:55.000Z</time>
      </trkpt>
      <trkpt lat="47.15766" lon="16.07088">
        <ele>351.521477</ele>
        <time>2026-07-08T10:49:56.000Z</time>
      </trkpt>
      <trkpt lat="47.15766" lon="16.07099">
        <ele>351.32414</ele>
        <time>2026-07-08T10:49:57.000Z</time>
      </trkpt>
      <trkpt lat="47.15765" lon="16.07109">
        <ele>351.123139</ele>
        <time>2026-07-08T10:49:58.000Z</time>
      </trkpt>
      <trkpt lat="47.15765" lon="16.07121">
        <ele>350.910102</ele>
        <time>2026-07-08T10:49:59.000Z</time>
      </trkpt>
      <trkpt lat="47.15765" lon="16.07132">
        <ele>350.691434</ele>
        <time>2026-07-08T10:50:00.000Z</time>
      </trkpt>
      <trkpt lat="47.15765" lon="16.07143">
        <ele>350.478012</ele>
        <time>2026-07-08T10:50:01.000Z</time>
      </trkpt>
      <trkpt lat="47.15764" lon="16.07154">
        <ele>350.266784</ele>
        <time>2026-07-08T10:50:02.000Z</time>
      </trkpt>
      <trkpt lat="47.15764" lon="16.07166">
        <ele>350.053362</ele>
        <time>2026-07-08T10:50:03.000Z</time>
      </trkpt>
      <trkpt lat="47.15763" lon="16.07177">
        <ele>349.843902</ele>
        <time>2026-07-08T10:50:04.000Z</time>
      </trkpt>
      <trkpt lat="47.15763" lon="16.07188">
        <ele>349.634275</ele>
        <time>2026-07-08T10:50:05.000Z</time>
      </trkpt>
      <trkpt lat="47.15763" lon="16.07199">
        <ele>349.419392</ele>
        <time>2026-07-08T10:50:06.000Z</time>
      </trkpt>
      <trkpt lat="47.15762" lon="16.0721">
        <ele>349.209764</ele>
        <time>2026-07-08T10:50:07.000Z</time>
      </trkpt>
      <trkpt lat="47.15761" lon="16.07221">
        <ele>348.993232</ele>
        <time>2026-07-08T10:50:08.000Z</time>
      </trkpt>
      <trkpt lat="47.15759" lon="16.07232">
        <ele>348.779907</ele>
        <time>2026-07-08T10:50:09.000Z</time>
      </trkpt>
      <trkpt lat="47.15757" lon="16.07243">
        <ele>348.557883</ele>
        <time>2026-07-08T10:50:10.000Z</time>
      </trkpt>
      <trkpt lat="47.15755" lon="16.07255">
        <ele>348.337698</ele>
        <time>2026-07-08T10:50:11.000Z</time>
      </trkpt>
      <trkpt lat="47.15753" lon="16.07265">
        <ele>348.124318</ele>
        <time>2026-07-08T10:50:12.000Z</time>
      </trkpt>
      <trkpt lat="47.15751" lon="16.07275">
        <ele>347.924293</ele>
        <time>2026-07-08T10:50:13.000Z</time>
      </trkpt>
      <trkpt lat="47.15749" lon="16.07284">
        <ele>347.746802</ele>
        <time>2026-07-08T10:50:14.000Z</time>
      </trkpt>
      <trkpt lat="47.15747" lon="16.07292">
        <ele>347.579365</ele>
        <time>2026-07-08T10:50:15.000Z</time>
      </trkpt>
      <trkpt lat="47.15745" lon="16.07301">
        <ele>347.411037</ele>
        <time>2026-07-08T10:50:16.000Z</time>
      </trkpt>
      <trkpt lat="47.15744" lon="16.07309">
        <ele>347.254636</ele>
        <time>2026-07-08T10:50:17.000Z</time>
      </trkpt>
      <trkpt lat="47.15742" lon="16.07317">
        <ele>347.100504</ele>
        <time>2026-07-08T10:50:18.000Z</time>
      </trkpt>
      <trkpt lat="47.15741" lon="16.07324">
        <ele>346.946373</ele>
        <time>2026-07-08T10:50:19.000Z</time>
      </trkpt>
      <trkpt lat="47.15739" lon="16.07332">
        <ele>346.787</ele>
        <time>2026-07-08T10:50:20.000Z</time>
      </trkpt>
      <trkpt lat="47.15737" lon="16.07341">
        <ele>346.620388</ele>
        <time>2026-07-08T10:50:21.000Z</time>
      </trkpt>
      <trkpt lat="47.15734" lon="16.07349">
        <ele>346.450638</ele>
        <time>2026-07-08T10:50:22.000Z</time>
      </trkpt>
      <trkpt lat="47.15732" lon="16.07357">
        <ele>346.276874</ele>
        <time>2026-07-08T10:50:23.000Z</time>
      </trkpt>
      <trkpt lat="47.15729" lon="16.07366">
        <ele>346.083772</ele>
        <time>2026-07-08T10:50:24.000Z</time>
      </trkpt>
      <trkpt lat="47.15727" lon="16.07375">
        <ele>345.878186</ele>
        <time>2026-07-08T10:50:25.000Z</time>
      </trkpt>
      <trkpt lat="47.15725" lon="16.07383">
        <ele>345.676814</ele>
        <time>2026-07-08T10:50:26.000Z</time>
      </trkpt>
      <trkpt lat="47.15723" lon="16.07393">
        <ele>345.458751</ele>
        <time>2026-07-08T10:50:27.000Z</time>
      </trkpt>
      <trkpt lat="47.15721" lon="16.07402">
        <ele>345.242842</ele>
        <time>2026-07-08T10:50:28.000Z</time>
      </trkpt>
      <trkpt lat="47.15719" lon="16.07411">
        <ele>345.039391</ele>
        <time>2026-07-08T10:50:29.000Z</time>
      </trkpt>
      <trkpt lat="47.15717" lon="16.0742">
        <ele>344.838018</ele>
        <time>2026-07-08T10:50:30.000Z</time>
      </trkpt>
      <trkpt lat="47.15715" lon="16.07429">
        <ele>344.619157</ele>
        <time>2026-07-08T10:50:31.000Z</time>
      </trkpt>
      <trkpt lat="47.15714" lon="16.07439">
        <ele>344.400815</ele>
        <time>2026-07-08T10:50:32.000Z</time>
      </trkpt>
      <trkpt lat="47.15713" lon="16.07449">
        <ele>344.173497</ele>
        <time>2026-07-08T10:50:33.000Z</time>
      </trkpt>
      <trkpt lat="47.15712" lon="16.0746">
        <ele>343.937088</ele>
        <time>2026-07-08T10:50:34.000Z</time>
      </trkpt>
      <trkpt lat="47.15712" lon="16.07471">
        <ele>343.695696</ele>
        <time>2026-07-08T10:50:35.000Z</time>
      </trkpt>
      <trkpt lat="47.15712" lon="16.07482">
        <ele>343.447919</ele>
        <time>2026-07-08T10:50:36.000Z</time>
      </trkpt>
      <trkpt lat="47.15712" lon="16.07494">
        <ele>343.186986</ele>
        <time>2026-07-08T10:50:37.000Z</time>
      </trkpt>
      <trkpt lat="47.15712" lon="16.07505">
        <ele>342.943595</ele>
        <time>2026-07-08T10:50:38.000Z</time>
      </trkpt>
      <trkpt lat="47.15712" lon="16.07517">
        <ele>342.693625</ele>
        <time>2026-07-08T10:50:39.000Z</time>
      </trkpt>
      <trkpt lat="47.15712" lon="16.07529">
        <ele>342.428229</ele>
        <time>2026-07-08T10:50:40.000Z</time>
      </trkpt>
      <trkpt lat="47.15712" lon="16.07542">
        <ele>342.143157</ele>
        <time>2026-07-08T10:50:41.000Z</time>
      </trkpt>
      <trkpt lat="47.15711" lon="16.07555">
        <ele>341.853432</ele>
        <time>2026-07-08T10:50:42.000Z</time>
      </trkpt>
      <trkpt lat="47.1571" lon="16.07569">
        <ele>341.53822</ele>
        <time>2026-07-08T10:50:43.000Z</time>
      </trkpt>
      <trkpt lat="47.15709" lon="16.07584">
        <ele>341.220827</ele>
        <time>2026-07-08T10:50:44.000Z</time>
      </trkpt>
      <trkpt lat="47.15708" lon="16.07598">
        <ele>340.909626</ele>
        <time>2026-07-08T10:50:45.000Z</time>
      </trkpt>
      <trkpt lat="47.15707" lon="16.07613">
        <ele>340.582668</ele>
        <time>2026-07-08T10:50:46.000Z</time>
      </trkpt>
      <trkpt lat="47.15705" lon="16.07629">
        <ele>340.263784</ele>
        <time>2026-07-08T10:50:47.000Z</time>
      </trkpt>
      <trkpt lat="47.15703" lon="16.07644">
        <ele>340.017649</ele>
        <time>2026-07-08T10:50:48.000Z</time>
      </trkpt>
      <trkpt lat="47.15701" lon="16.07659">
        <ele>339.76216</ele>
        <time>2026-07-08T10:50:49.000Z</time>
      </trkpt>
      <trkpt lat="47.15699" lon="16.07674">
        <ele>339.513109</ele>
        <time>2026-07-08T10:50:50.000Z</time>
      </trkpt>
      <trkpt lat="47.15697" lon="16.07689">
        <ele>339.252952</ele>
        <time>2026-07-08T10:50:51.000Z</time>
      </trkpt>
      <trkpt lat="47.15694" lon="16.07704">
        <ele>338.997227</ele>
        <time>2026-07-08T10:50:52.000Z</time>
      </trkpt>
      <trkpt lat="47.1569" lon="16.07718">
        <ele>338.758771</ele>
        <time>2026-07-08T10:50:53.000Z</time>
      </trkpt>
      <trkpt lat="47.15687" lon="16.07731">
        <ele>338.526663</ele>
        <time>2026-07-08T10:50:54.000Z</time>
      </trkpt>
      <trkpt lat="47.15684" lon="16.07744">
        <ele>338.294049</ele>
        <time>2026-07-08T10:50:55.000Z</time>
      </trkpt>
      <trkpt lat="47.1568" lon="16.07757">
        <ele>338.066518</ele>
        <time>2026-07-08T10:50:56.000Z</time>
      </trkpt>
      <trkpt lat="47.15675" lon="16.07769">
        <ele>337.844663</ele>
        <time>2026-07-08T10:50:57.000Z</time>
      </trkpt>
      <trkpt lat="47.15671" lon="16.0778">
        <ele>337.634152</ele>
        <time>2026-07-08T10:50:58.000Z</time>
      </trkpt>
      <trkpt lat="47.15666" lon="16.07791">
        <ele>337.425264</ele>
        <time>2026-07-08T10:50:59.000Z</time>
      </trkpt>
      <trkpt lat="47.15661" lon="16.078">
        <ele>337.231181</ele>
        <time>2026-07-08T10:51:00.000Z</time>
      </trkpt>
      <trkpt lat="47.15656" lon="16.07809">
        <ele>337.039545</ele>
        <time>2026-07-08T10:51:01.000Z</time>
      </trkpt>
      <trkpt lat="47.15652" lon="16.07818">
        <ele>336.8619</ele>
        <time>2026-07-08T10:51:02.000Z</time>
      </trkpt>
      <trkpt lat="47.15648" lon="16.07826">
        <ele>336.701304</ele>
        <time>2026-07-08T10:51:03.000Z</time>
      </trkpt>
      <trkpt lat="47.15644" lon="16.07833">
        <ele>336.552616</ele>
        <time>2026-07-08T10:51:04.000Z</time>
      </trkpt>
      <trkpt lat="47.1564" lon="16.0784">
        <ele>336.405173</ele>
        <time>2026-07-08T10:51:05.000Z</time>
      </trkpt>
      <trkpt lat="47.15636" lon="16.07846">
        <ele>336.261414</ele>
        <time>2026-07-08T10:51:06.000Z</time>
      </trkpt>
      <trkpt lat="47.15632" lon="16.07852">
        <ele>336.124539</ele>
        <time>2026-07-08T10:51:07.000Z</time>
      </trkpt>
      <trkpt lat="47.15629" lon="16.07859">
        <ele>336.054554</ele>
        <time>2026-07-08T10:51:08.000Z</time>
      </trkpt>
      <trkpt lat="47.15625" lon="16.07865">
        <ele>336.066917</ele>
        <time>2026-07-08T10:51:09.000Z</time>
      </trkpt>
      <trkpt lat="47.15621" lon="16.07871">
        <ele>336.078918</ele>
        <time>2026-07-08T10:51:10.000Z</time>
      </trkpt>
      <trkpt lat="47.15618" lon="16.07876">
        <ele>336.089993</ele>
        <time>2026-07-08T10:51:11.000Z</time>
      </trkpt>
      <trkpt lat="47.15615" lon="16.07882">
        <ele>336.102346</ele>
        <time>2026-07-08T10:51:12.000Z</time>
      </trkpt>
      <trkpt lat="47.15611" lon="16.07888">
        <ele>336.114699</ele>
        <time>2026-07-08T10:51:13.000Z</time>
      </trkpt>
      <trkpt lat="47.15607" lon="16.07893">
        <ele>336.12646</ele>
        <time>2026-07-08T10:51:14.000Z</time>
      </trkpt>
      <trkpt lat="47.15603" lon="16.07899">
        <ele>336.139259</ele>
        <time>2026-07-08T10:51:15.000Z</time>
      </trkpt>
      <trkpt lat="47.15599" lon="16.07904">
        <ele>336.152706</ele>
        <time>2026-07-08T10:51:16.000Z</time>
      </trkpt>
      <trkpt lat="47.15594" lon="16.07909">
        <ele>336.165667</ele>
        <time>2026-07-08T10:51:17.000Z</time>
      </trkpt>
      <trkpt lat="47.15589" lon="16.07914">
        <ele>336.179562</ele>
        <time>2026-07-08T10:51:18.000Z</time>
      </trkpt>
      <trkpt lat="47.15584" lon="16.07919">
        <ele>336.192837</ele>
        <time>2026-07-08T10:51:19.000Z</time>
      </trkpt>
      <trkpt lat="47.1558" lon="16.07923">
        <ele>336.206176</ele>
        <time>2026-07-08T10:51:20.000Z</time>
      </trkpt>
      <trkpt lat="47.15575" lon="16.07928">
        <ele>336.219174</ele>
        <time>2026-07-08T10:51:21.000Z</time>
      </trkpt>
      <trkpt lat="47.1557" lon="16.07932">
        <ele>336.232129</ele>
        <time>2026-07-08T10:51:22.000Z</time>
      </trkpt>
      <trkpt lat="47.15565" lon="16.07936">
        <ele>336.244572</ele>
        <time>2026-07-08T10:51:23.000Z</time>
      </trkpt>
      <trkpt lat="47.15561" lon="16.0794">
        <ele>336.256897</ele>
        <time>2026-07-08T10:51:24.000Z</time>
      </trkpt>
      <trkpt lat="47.15556" lon="16.07944">
        <ele>336.269903</ele>
        <time>2026-07-08T10:51:25.000Z</time>
      </trkpt>
      <trkpt lat="47.15551" lon="16.07948">
        <ele>336.282382</ele>
        <time>2026-07-08T10:51:26.000Z</time>
      </trkpt>
      <trkpt lat="47.15546" lon="16.07952">
        <ele>336.295537</ele>
        <time>2026-07-08T10:51:27.000Z</time>
      </trkpt>
      <trkpt lat="47.15541" lon="16.07956">
        <ele>336.308139</ele>
        <time>2026-07-08T10:51:28.000Z</time>
      </trkpt>
      <trkpt lat="47.15536" lon="16.0796">
        <ele>336.320697</ele>
        <time>2026-07-08T10:51:29.000Z</time>
      </trkpt>
      <trkpt lat="47.15532" lon="16.07964">
        <ele>336.332746</ele>
        <time>2026-07-08T10:51:30.000Z</time>
      </trkpt>
      <trkpt lat="47.15527" lon="16.07967">
        <ele>336.344648</ele>
        <time>2026-07-08T10:51:31.000Z</time>
      </trkpt>
      <trkpt lat="47.15523" lon="16.0797">
        <ele>336.356346</ele>
        <time>2026-07-08T10:51:32.000Z</time>
      </trkpt>
      <trkpt lat="47.15518" lon="16.07973">
        <ele>336.367765</ele>
        <time>2026-07-08T10:51:33.000Z</time>
      </trkpt>
      <trkpt lat="47.15514" lon="16.07977">
        <ele>336.379458</ele>
        <time>2026-07-08T10:51:34.000Z</time>
      </trkpt>
      <trkpt lat="47.15509" lon="16.07982">
        <ele>336.391774</ele>
        <time>2026-07-08T10:51:35.000Z</time>
      </trkpt>
      <trkpt lat="47.15505" lon="16.07986">
        <ele>336.403636</ele>
        <time>2026-07-08T10:51:36.000Z</time>
      </trkpt>
      <trkpt lat="47.15501" lon="16.0799">
        <ele>336.415135</ele>
        <time>2026-07-08T10:51:37.000Z</time>
      </trkpt>
      <trkpt lat="47.15496" lon="16.07994">
        <ele>336.427467</ele>
        <time>2026-07-08T10:51:38.000Z</time>
      </trkpt>
      <trkpt lat="47.15492" lon="16.07999">
        <ele>336.439715</ele>
        <time>2026-07-08T10:51:39.000Z</time>
      </trkpt>
      <trkpt lat="47.15487" lon="16.08003">
        <ele>336.451996</ele>
        <time>2026-07-08T10:51:40.000Z</time>
      </trkpt>
      <trkpt lat="47.15483" lon="16.08007">
        <ele>336.446422</ele>
        <time>2026-07-08T10:51:41.000Z</time>
      </trkpt>
      <trkpt lat="47.15478" lon="16.08011">
        <ele>336.391962</ele>
        <time>2026-07-08T10:51:42.000Z</time>
      </trkpt>
      <trkpt lat="47.15473" lon="16.08016">
        <ele>336.336176</ele>
        <time>2026-07-08T10:51:43.000Z</time>
      </trkpt>
      <trkpt lat="47.15468" lon="16.0802">
        <ele>336.277098</ele>
        <time>2026-07-08T10:51:44.000Z</time>
      </trkpt>
      <trkpt lat="47.15464" lon="16.08025">
        <ele>336.21973</ele>
        <time>2026-07-08T10:51:45.000Z</time>
      </trkpt>
      <trkpt lat="47.15459" lon="16.08029">
        <ele>336.160652</ele>
        <time>2026-07-08T10:51:46.000Z</time>
      </trkpt>
      <trkpt lat="47.15454" lon="16.08034">
        <ele>336.103371</ele>
        <time>2026-07-08T10:51:47.000Z</time>
      </trkpt>
      <trkpt lat="47.15449" lon="16.08038">
        <ele>336.048439</ele>
        <time>2026-07-08T10:51:48.000Z</time>
      </trkpt>
      <trkpt lat="47.15445" lon="16.08042">
        <ele>335.995197</ele>
        <time>2026-07-08T10:51:49.000Z</time>
      </trkpt>
      <trkpt lat="47.1544" lon="16.08048">
        <ele>335.93752</ele>
        <time>2026-07-08T10:51:50.000Z</time>
      </trkpt>
      <trkpt lat="47.15436" lon="16.08053">
        <ele>335.87855</ele>
        <time>2026-07-08T10:51:51.000Z</time>
      </trkpt>
      <trkpt lat="47.15431" lon="16.08059">
        <ele>335.817483</ele>
        <time>2026-07-08T10:51:52.000Z</time>
      </trkpt>
      <trkpt lat="47.15427" lon="16.08065">
        <ele>335.757009</ele>
        <time>2026-07-08T10:51:53.000Z</time>
      </trkpt>
      <trkpt lat="47.15423" lon="16.08071">
        <ele>335.696318</ele>
        <time>2026-07-08T10:51:54.000Z</time>
      </trkpt>
      <trkpt lat="47.15419" lon="16.08077">
        <ele>335.640127</ele>
        <time>2026-07-08T10:51:55.000Z</time>
      </trkpt>
      <trkpt lat="47.15415" lon="16.08084">
        <ele>335.579686</ele>
        <time>2026-07-08T10:51:56.000Z</time>
      </trkpt>
      <trkpt lat="47.15411" lon="16.0809">
        <ele>335.522234</ele>
        <time>2026-07-08T10:51:57.000Z</time>
      </trkpt>
      <trkpt lat="47.15408" lon="16.08097">
        <ele>335.465185</ele>
        <time>2026-07-08T10:51:58.000Z</time>
      </trkpt>
      <trkpt lat="47.15404" lon="16.08103">
        <ele>335.405501</ele>
        <time>2026-07-08T10:51:59.000Z</time>
      </trkpt>
      <trkpt lat="47.154" lon="16.0811">
        <ele>335.345899</ele>
        <time>2026-07-08T10:52:00.000Z</time>
      </trkpt>
      <trkpt lat="47.15396" lon="16.08117">
        <ele>335.28428</ele>
        <time>2026-07-08T10:52:01.000Z</time>
      </trkpt>
      <trkpt lat="47.15392" lon="16.08123">
        <ele>335.225268</ele>
        <time>2026-07-08T10:52:02.000Z</time>
      </trkpt>
      <trkpt lat="47.15388" lon="16.08129">
        <ele>335.164577</ele>
        <time>2026-07-08T10:52:03.000Z</time>
      </trkpt>
      <trkpt lat="47.15384" lon="16.08136">
        <ele>335.103127</ele>
        <time>2026-07-08T10:52:04.000Z</time>
      </trkpt>
      <trkpt lat="47.1538" lon="16.08142">
        <ele>335.044058</ele>
        <time>2026-07-08T10:52:05.000Z</time>
      </trkpt>
      <trkpt lat="47.15376" lon="16.08149">
        <ele>334.984266</ele>
        <time>2026-07-08T10:52:06.000Z</time>
      </trkpt>
      <trkpt lat="47.15372" lon="16.08155">
        <ele>334.923678</ele>
        <time>2026-07-08T10:52:07.000Z</time>
      </trkpt>
      <trkpt lat="47.15368" lon="16.08162">
        <ele>334.863702</ele>
        <time>2026-07-08T10:52:08.000Z</time>
      </trkpt>
      <trkpt lat="47.15363" lon="16.08168">
        <ele>334.802253</ele>
        <time>2026-07-08T10:52:09.000Z</time>
      </trkpt>
      <trkpt lat="47.15359" lon="16.08175">
        <ele>334.74115</ele>
        <time>2026-07-08T10:52:10.000Z</time>
      </trkpt>
      <trkpt lat="47.15355" lon="16.08182">
        <ele>334.678489</ele>
        <time>2026-07-08T10:52:11.000Z</time>
      </trkpt>
      <trkpt lat="47.15351" lon="16.08189">
        <ele>334.62035</ele>
        <time>2026-07-08T10:52:12.000Z</time>
      </trkpt>
      <trkpt lat="47.15347" lon="16.08196">
        <ele>334.566035</ele>
        <time>2026-07-08T10:52:13.000Z</time>
      </trkpt>
      <trkpt lat="47.15343" lon="16.08203">
        <ele>334.513606</ele>
        <time>2026-07-08T10:52:14.000Z</time>
      </trkpt>
      <trkpt lat="47.1534" lon="16.0821">
        <ele>334.463059</ele>
        <time>2026-07-08T10:52:15.000Z</time>
      </trkpt>
      <trkpt lat="47.15336" lon="16.08216">
        <ele>334.412956</ele>
        <time>2026-07-08T10:52:16.000Z</time>
      </trkpt>
      <trkpt lat="47.15332" lon="16.08223">
        <ele>334.362951</ele>
        <time>2026-07-08T10:52:17.000Z</time>
      </trkpt>
      <trkpt lat="47.15329" lon="16.0823">
        <ele>334.313602</ele>
        <time>2026-07-08T10:52:18.000Z</time>
      </trkpt>
      <trkpt lat="47.15325" lon="16.08237">
        <ele>334.262816</ele>
        <time>2026-07-08T10:52:19.000Z</time>
      </trkpt>
      <trkpt lat="47.15322" lon="16.08244">
        <ele>334.211969</ele>
        <time>2026-07-08T10:52:20.000Z</time>
      </trkpt>
      <trkpt lat="47.15318" lon="16.08252">
        <ele>334.160706</ele>
        <time>2026-07-08T10:52:21.000Z</time>
      </trkpt>
      <trkpt lat="47.15315" lon="16.08259">
        <ele>334.109919</ele>
        <time>2026-07-08T10:52:22.000Z</time>
      </trkpt>
      <trkpt lat="47.15312" lon="16.08267">
        <ele>334.057187</ele>
        <time>2026-07-08T10:52:23.000Z</time>
      </trkpt>
      <trkpt lat="47.15309" lon="16.08274">
        <ele>334.005772</ele>
        <time>2026-07-08T10:52:24.000Z</time>
      </trkpt>
      <trkpt lat="47.15306" lon="16.08282">
        <ele>333.952736</ele>
        <time>2026-07-08T10:52:25.000Z</time>
      </trkpt>
      <trkpt lat="47.15303" lon="16.08291">
        <ele>333.900317</ele>
        <time>2026-07-08T10:52:26.000Z</time>
      </trkpt>
      <trkpt lat="47.153" lon="16.08299">
        <ele>333.846253</ele>
        <time>2026-07-08T10:52:27.000Z</time>
      </trkpt>
      <trkpt lat="47.15298" lon="16.08307">
        <ele>333.793091</ele>
        <time>2026-07-08T10:52:28.000Z</time>
      </trkpt>
      <trkpt lat="47.15295" lon="16.08316">
        <ele>333.73837</ele>
        <time>2026-07-08T10:52:29.000Z</time>
      </trkpt>
      <trkpt lat="47.15293" lon="16.08324">
        <ele>333.685776</ele>
        <time>2026-07-08T10:52:30.000Z</time>
      </trkpt>
      <trkpt lat="47.1529" lon="16.08332">
        <ele>333.633182</ele>
        <time>2026-07-08T10:52:31.000Z</time>
      </trkpt>
      <trkpt lat="47.15287" lon="16.08341">
        <ele>333.580397</ele>
        <time>2026-07-08T10:52:32.000Z</time>
      </trkpt>
      <trkpt lat="47.15285" lon="16.08349">
        <ele>333.530075</ele>
        <time>2026-07-08T10:52:33.000Z</time>
      </trkpt>
      <trkpt lat="47.15283" lon="16.08357">
        <ele>333.479752</ele>
        <time>2026-07-08T10:52:34.000Z</time>
      </trkpt>
      <trkpt lat="47.1528" lon="16.08365">
        <ele>333.428008</ele>
        <time>2026-07-08T10:52:35.000Z</time>
      </trkpt>
      <trkpt lat="47.15278" lon="16.08372">
        <ele>333.378572</ele>
        <time>2026-07-08T10:52:36.000Z</time>
      </trkpt>
      <trkpt lat="47.15275" lon="16.08381">
        <ele>333.32696</ele>
        <time>2026-07-08T10:52:37.000Z</time>
      </trkpt>
      <trkpt lat="47.15273" lon="16.08388">
        <ele>333.278356</ele>
        <time>2026-07-08T10:52:38.000Z</time>
      </trkpt>
      <trkpt lat="47.15271" lon="16.08396">
        <ele>333.22892</ele>
        <time>2026-07-08T10:52:39.000Z</time>
      </trkpt>
      <trkpt lat="47.15269" lon="16.08404">
        <ele>333.18053</ele>
        <time>2026-07-08T10:52:40.000Z</time>
      </trkpt>
      <trkpt lat="47.15266" lon="16.08411">
        <ele>333.131616</ele>
        <time>2026-07-08T10:52:41.000Z</time>
      </trkpt>
      <trkpt lat="47.15264" lon="16.08419">
        <ele>333.059937</ele>
        <time>2026-07-08T10:52:42.000Z</time>
      </trkpt>
      <trkpt lat="47.15261" lon="16.08427">
        <ele>332.982664</ele>
        <time>2026-07-08T10:52:43.000Z</time>
      </trkpt>
      <trkpt lat="47.15259" lon="16.08435">
        <ele>332.899737</ele>
        <time>2026-07-08T10:52:44.000Z</time>
      </trkpt>
      <trkpt lat="47.15257" lon="16.08443">
        <ele>332.819054</ele>
        <time>2026-07-08T10:52:45.000Z</time>
      </trkpt>
      <trkpt lat="47.15254" lon="16.08451">
        <ele>332.736304</ele>
        <time>2026-07-08T10:52:46.000Z</time>
      </trkpt>
      <trkpt lat="47.15252" lon="16.08459">
        <ele>332.656476</ele>
        <time>2026-07-08T10:52:47.000Z</time>
      </trkpt>
      <trkpt lat="47.1525" lon="16.08467">
        <ele>332.578052</ele>
        <time>2026-07-08T10:52:48.000Z</time>
      </trkpt>
      <trkpt lat="47.15247" lon="16.08474">
        <ele>332.499223</ele>
        <time>2026-07-08T10:52:49.000Z</time>
      </trkpt>
      <trkpt lat="47.15245" lon="16.08482">
        <ele>332.425328</ele>
        <time>2026-07-08T10:52:50.000Z</time>
      </trkpt>
      <trkpt lat="47.15243" lon="16.08489">
        <ele>332.354798</ele>
        <time>2026-07-08T10:52:51.000Z</time>
      </trkpt>
      <trkpt lat="47.15241" lon="16.08496">
        <ele>332.28312</ele>
        <time>2026-07-08T10:52:52.000Z</time>
      </trkpt>
      <trkpt lat="47.15239" lon="16.08503">
        <ele>332.209239</ele>
        <time>2026-07-08T10:52:53.000Z</time>
      </trkpt>
      <trkpt lat="47.15237" lon="16.08511">
        <ele>332.137979</ele>
        <time>2026-07-08T10:52:54.000Z</time>
      </trkpt>
      <trkpt lat="47.15236" lon="16.08518">
        <ele>332.069803</ele>
        <time>2026-07-08T10:52:55.000Z</time>
      </trkpt>
      <trkpt lat="47.15234" lon="16.08525">
        <ele>331.997194</ele>
        <time>2026-07-08T10:52:56.000Z</time>
      </trkpt>
      <trkpt lat="47.15232" lon="16.08532">
        <ele>331.924188</ele>
        <time>2026-07-08T10:52:57.000Z</time>
      </trkpt>
      <trkpt lat="47.1523" lon="16.0854">
        <ele>331.850307</ele>
        <time>2026-07-08T10:52:58.000Z</time>
      </trkpt>
      <trkpt lat="47.15229" lon="16.08547">
        <ele>331.781636</ele>
        <time>2026-07-08T10:52:59.000Z</time>
      </trkpt>
      <trkpt lat="47.15227" lon="16.08554">
        <ele>331.711685</ele>
        <time>2026-07-08T10:53:00.000Z</time>
      </trkpt>
      <trkpt lat="47.15226" lon="16.08561">
        <ele>331.642228</ele>
        <time>2026-07-08T10:53:01.000Z</time>
      </trkpt>
      <trkpt lat="47.15225" lon="16.08569">
        <ele>331.569981</ele>
        <time>2026-07-08T10:53:02.000Z</time>
      </trkpt>
      <trkpt lat="47.15224" lon="16.08576">
        <ele>331.499459</ele>
        <time>2026-07-08T10:53:03.000Z</time>
      </trkpt>
      <trkpt lat="47.15223" lon="16.08584">
        <ele>331.427887</ele>
        <time>2026-07-08T10:53:04.000Z</time>
      </trkpt>
      <trkpt lat="47.15222" lon="16.08592">
        <ele>331.354798</ele>
        <time>2026-07-08T10:53:05.000Z</time>
      </trkpt>
      <trkpt lat="47.15221" lon="16.086">
        <ele>331.278697</ele>
        <time>2026-07-08T10:53:06.000Z</time>
      </trkpt>
      <trkpt lat="47.15219" lon="16.08608">
        <ele>331.197765</ele>
        <time>2026-07-08T10:53:07.000Z</time>
      </trkpt>
      <trkpt lat="47.15218" lon="16.08617">
        <ele>331.112002</ele>
        <time>2026-07-08T10:53:08.000Z</time>
      </trkpt>
      <trkpt lat="47.15217" lon="16.08626">
        <ele>331.025229</ele>
        <time>2026-07-08T10:53:09.000Z</time>
      </trkpt>
      <trkpt lat="47.15215" lon="16.08636">
        <ele>330.935024</ele>
        <time>2026-07-08T10:53:10.000Z</time>
      </trkpt>
      <trkpt lat="47.15213" lon="16.08646">
        <ele>330.839898</ele>
        <time>2026-07-08T10:53:11.000Z</time>
      </trkpt>
      <trkpt lat="47.15212" lon="16.08656">
        <ele>330.742008</ele>
        <time>2026-07-08T10:53:12.000Z</time>
      </trkpt>
      <trkpt lat="47.15209" lon="16.08667">
        <ele>330.552405</ele>
        <time>2026-07-08T10:53:13.000Z</time>
      </trkpt>
      <trkpt lat="47.15207" lon="16.08679">
        <ele>330.082628</ele>
        <time>2026-07-08T10:53:14.000Z</time>
      </trkpt>
      <trkpt lat="47.15204" lon="16.08692">
        <ele>329.573734</ele>
        <time>2026-07-08T10:53:15.000Z</time>
      </trkpt>
      <trkpt lat="47.152" lon="16.08704">
        <ele>329.081551</ele>
        <time>2026-07-08T10:53:16.000Z</time>
      </trkpt>
      <trkpt lat="47.15196" lon="16.08715">
        <ele>328.58492</ele>
        <time>2026-07-08T10:53:17.000Z</time>
      </trkpt>
      <trkpt lat="47.15191" lon="16.08727">
        <ele>328.088289</ele>
        <time>2026-07-08T10:53:18.000Z</time>
      </trkpt>
      <trkpt lat="47.15186" lon="16.08738">
        <ele>327.571389</ele>
        <time>2026-07-08T10:53:19.000Z</time>
      </trkpt>
      <trkpt lat="47.1518" lon="16.08749">
        <ele>327.040641</ele>
        <time>2026-07-08T10:53:20.000Z</time>
      </trkpt>
      <trkpt lat="47.15173" lon="16.08761">
        <ele>326.487309</ele>
        <time>2026-07-08T10:53:21.000Z</time>
      </trkpt>
      <trkpt lat="47.15166" lon="16.08772">
        <ele>325.909604</ele>
        <time>2026-07-08T10:53:22.000Z</time>
      </trkpt>
      <trkpt lat="47.15158" lon="16.08784">
        <ele>325.277918</ele>
        <time>2026-07-08T10:53:23.000Z</time>
      </trkpt>
      <trkpt lat="47.1515" lon="16.08797">
        <ele>324.634332</ele>
        <time>2026-07-08T10:53:24.000Z</time>
      </trkpt>
      <trkpt lat="47.15142" lon="16.08809">
        <ele>323.985761</ele>
        <time>2026-07-08T10:53:25.000Z</time>
      </trkpt>
      <trkpt lat="47.15133" lon="16.08821">
        <ele>323.318597</ele>
        <time>2026-07-08T10:53:26.000Z</time>
      </trkpt>
      <trkpt lat="47.15125" lon="16.08832">
        <ele>322.6909</ele>
        <time>2026-07-08T10:53:27.000Z</time>
      </trkpt>
      <trkpt lat="47.15116" lon="16.08844">
        <ele>322.045379</ele>
        <time>2026-07-08T10:53:28.000Z</time>
      </trkpt>
      <trkpt lat="47.15107" lon="16.08855">
        <ele>321.423769</ele>
        <time>2026-07-08T10:53:29.000Z</time>
      </trkpt>
      <trkpt lat="47.15099" lon="16.08866">
        <ele>320.795563</ele>
        <time>2026-07-08T10:53:30.000Z</time>
      </trkpt>
      <trkpt lat="47.15091" lon="16.08877">
        <ele>320.808878</ele>
        <time>2026-07-08T10:53:31.000Z</time>
      </trkpt>
      <trkpt lat="47.15083" lon="16.08889">
        <ele>320.862454</ele>
        <time>2026-07-08T10:53:32.000Z</time>
      </trkpt>
      <trkpt lat="47.15075" lon="16.08899">
        <ele>320.910632</ele>
        <time>2026-07-08T10:53:33.000Z</time>
      </trkpt>
      <trkpt lat="47.15068" lon="16.08909">
        <ele>320.956895</ele>
        <time>2026-07-08T10:53:34.000Z</time>
      </trkpt>
      <trkpt lat="47.15061" lon="16.08918">
        <ele>321.001072</ele>
        <time>2026-07-08T10:53:35.000Z</time>
      </trkpt>
      <trkpt lat="47.15054" lon="16.08927">
        <ele>321.043996</ele>
        <time>2026-07-08T10:53:36.000Z</time>
      </trkpt>
      <trkpt lat="47.15047" lon="16.08935">
        <ele>321.085343</ele>
        <time>2026-07-08T10:53:37.000Z</time>
      </trkpt>
      <trkpt lat="47.15041" lon="16.08942">
        <ele>321.123146</ele>
        <time>2026-07-08T10:53:38.000Z</time>
      </trkpt>
      <trkpt lat="47.15036" lon="16.08949">
        <ele>321.157539</ele>
        <time>2026-07-08T10:53:39.000Z</time>
      </trkpt>
      <trkpt lat="47.15031" lon="16.08956">
        <ele>321.189809</ele>
        <time>2026-07-08T10:53:40.000Z</time>
      </trkpt>
      <trkpt lat="47.15026" lon="16.08962">
        <ele>321.220017</ele>
        <time>2026-07-08T10:53:41.000Z</time>
      </trkpt>
      <trkpt lat="47.15021" lon="16.08968">
        <ele>321.248822</ele>
        <time>2026-07-08T10:53:42.000Z</time>
      </trkpt>
      <trkpt lat="47.15016" lon="16.08973">
        <ele>321.276827</ele>
        <time>2026-07-08T10:53:43.000Z</time>
      </trkpt>
      <trkpt lat="47.15012" lon="16.08978">
        <ele>321.30216</ele>
        <time>2026-07-08T10:53:44.000Z</time>
      </trkpt>
      <trkpt lat="47.15008" lon="16.08982">
        <ele>321.326731</ele>
        <time>2026-07-08T10:53:45.000Z</time>
      </trkpt>
      <trkpt lat="47.15004" lon="16.08987">
        <ele>321.351115</ele>
        <time>2026-07-08T10:53:46.000Z</time>
      </trkpt>
      <trkpt lat="47.15" lon="16.08991">
        <ele>321.373415</ele>
        <time>2026-07-08T10:53:47.000Z</time>
      </trkpt>
      <trkpt lat="47.14996" lon="16.08994">
        <ele>321.395589</ele>
        <time>2026-07-08T10:53:48.000Z</time>
      </trkpt>
      <trkpt lat="47.14992" lon="16.08998">
        <ele>321.417119</ele>
        <time>2026-07-08T10:53:49.000Z</time>
      </trkpt>
      <trkpt lat="47.14988" lon="16.09001">
        <ele>321.437824</ele>
        <time>2026-07-08T10:53:50.000Z</time>
      </trkpt>
      <trkpt lat="47.14984" lon="16.09004">
        <ele>321.458371</ele>
        <time>2026-07-08T10:53:51.000Z</time>
      </trkpt>
      <trkpt lat="47.14981" lon="16.09007">
        <ele>321.478349</ele>
        <time>2026-07-08T10:53:52.000Z</time>
      </trkpt>
      <trkpt lat="47.14977" lon="16.0901">
        <ele>321.498978</ele>
        <time>2026-07-08T10:53:53.000Z</time>
      </trkpt>
      <trkpt lat="47.14974" lon="16.09014">
        <ele>321.518216</ele>
        <time>2026-07-08T10:53:54.000Z</time>
      </trkpt>
      <trkpt lat="47.1497" lon="16.09017">
        <ele>321.538412</ele>
        <time>2026-07-08T10:53:55.000Z</time>
      </trkpt>
      <trkpt lat="47.14967" lon="16.09021">
        <ele>321.558033</ele>
        <time>2026-07-08T10:53:56.000Z</time>
      </trkpt>
      <trkpt lat="47.14964" lon="16.09024">
        <ele>321.576513</ele>
        <time>2026-07-08T10:53:57.000Z</time>
      </trkpt>
      <trkpt lat="47.14961" lon="16.09028">
        <ele>321.594422</ele>
        <time>2026-07-08T10:53:58.000Z</time>
      </trkpt>
      <trkpt lat="47.14958" lon="16.09031">
        <ele>321.618177</ele>
        <time>2026-07-08T10:53:59.000Z</time>
      </trkpt>
      <trkpt lat="47.14955" lon="16.09034">
        <ele>321.756474</ele>
        <time>2026-07-08T10:54:00.000Z</time>
      </trkpt>
      <trkpt lat="47.14953" lon="16.09037">
        <ele>321.890117</ele>
        <time>2026-07-08T10:54:01.000Z</time>
      </trkpt>
      <trkpt lat="47.1495" lon="16.0904">
        <ele>322.031834</ele>
        <time>2026-07-08T10:54:02.000Z</time>
      </trkpt>
      <trkpt lat="47.14947" lon="16.09043">
        <ele>322.172194</ele>
        <time>2026-07-08T10:54:03.000Z</time>
      </trkpt>
      <trkpt lat="47.14944" lon="16.09046">
        <ele>322.317096</ele>
        <time>2026-07-08T10:54:04.000Z</time>
      </trkpt>
      <trkpt lat="47.14942" lon="16.0905">
        <ele>322.455655</ele>
        <time>2026-07-08T10:54:05.000Z</time>
      </trkpt>
      <trkpt lat="47.14939" lon="16.09053">
        <ele>322.591106</ele>
        <time>2026-07-08T10:54:06.000Z</time>
      </trkpt>
      <trkpt lat="47.14937" lon="16.09056">
        <ele>322.728399</ele>
        <time>2026-07-08T10:54:07.000Z</time>
      </trkpt>
      <trkpt lat="47.14934" lon="16.09059">
        <ele>322.866696</ele>
        <time>2026-07-08T10:54:08.000Z</time>
      </trkpt>
      <trkpt lat="47.14931" lon="16.09062">
        <ele>323.008275</ele>
        <time>2026-07-08T10:54:09.000Z</time>
      </trkpt>
      <trkpt lat="47.14928" lon="16.09065">
        <ele>323.145651</ele>
        <time>2026-07-08T10:54:10.000Z</time>
      </trkpt>
      <trkpt lat="47.14926" lon="16.09067">
        <ele>323.282486</ele>
        <time>2026-07-08T10:54:11.000Z</time>
      </trkpt>
      <trkpt lat="47.14923" lon="16.0907">
        <ele>323.417817</ele>
        <time>2026-07-08T10:54:12.000Z</time>
      </trkpt>
      <trkpt lat="47.1492" lon="16.09072">
        <ele>323.548209</ele>
        <time>2026-07-08T10:54:13.000Z</time>
      </trkpt>
      <trkpt lat="47.14917" lon="16.09075">
        <ele>323.685044</ele>
        <time>2026-07-08T10:54:14.000Z</time>
      </trkpt>
      <trkpt lat="47.14915" lon="16.09078">
        <ele>323.81848</ele>
        <time>2026-07-08T10:54:15.000Z</time>
      </trkpt>
      <trkpt lat="47.14912" lon="16.0908">
        <ele>323.943616</ele>
        <time>2026-07-08T10:54:16.000Z</time>
      </trkpt>
      <trkpt lat="47.14909" lon="16.09083">
        <ele>324.080256</ele>
        <time>2026-07-08T10:54:17.000Z</time>
      </trkpt>
      <trkpt lat="47.14907" lon="16.09086">
        <ele>324.212125</ele>
        <time>2026-07-08T10:54:18.000Z</time>
      </trkpt>
      <trkpt lat="47.14904" lon="16.09089">
        <ele>324.343825</ele>
        <time>2026-07-08T10:54:19.000Z</time>
      </trkpt>
      <trkpt lat="47.14902" lon="16.09092">
        <ele>324.475694</ele>
        <time>2026-07-08T10:54:20.000Z</time>
      </trkpt>
      <trkpt lat="47.14899" lon="16.09095">
        <ele>324.612987</ele>
        <time>2026-07-08T10:54:21.000Z</time>
      </trkpt>
      <trkpt lat="47.14897" lon="16.09099">
        <ele>324.748439</ele>
        <time>2026-07-08T10:54:22.000Z</time>
      </trkpt>
      <trkpt lat="47.14894" lon="16.09102">
        <ele>324.880835</ele>
        <time>2026-07-08T10:54:23.000Z</time>
      </trkpt>
      <trkpt lat="47.14892" lon="16.09105">
        <ele>325.018128</ele>
        <time>2026-07-08T10:54:24.000Z</time>
      </trkpt>
      <trkpt lat="47.1489" lon="16.09108">
        <ele>325.149452</ele>
        <time>2026-07-08T10:54:25.000Z</time>
      </trkpt>
      <trkpt lat="47.14887" lon="16.09112">
        <ele>325.286044</ele>
        <time>2026-07-08T10:54:26.000Z</time>
      </trkpt>
      <trkpt lat="47.14885" lon="16.09116">
        <ele>325.419588</ele>
        <time>2026-07-08T10:54:27.000Z</time>
      </trkpt>
      <trkpt lat="47.14883" lon="16.0912">
        <ele>325.55534</ele>
        <time>2026-07-08T10:54:28.000Z</time>
      </trkpt>
      <trkpt lat="47.14882" lon="16.09124">
        <ele>325.688643</ele>
        <time>2026-07-08T10:54:29.000Z</time>
      </trkpt>
      <trkpt lat="47.1488" lon="16.09128">
        <ele>325.819736</ele>
        <time>2026-07-08T10:54:30.000Z</time>
      </trkpt>
      <trkpt lat="47.14878" lon="16.09132">
        <ele>325.94844</ele>
        <time>2026-07-08T10:54:31.000Z</time>
      </trkpt>
      <trkpt lat="47.14876" lon="16.09136">
        <ele>326.079532</ele>
        <time>2026-07-08T10:54:32.000Z</time>
      </trkpt>
      <trkpt lat="47.14875" lon="16.0914">
        <ele>326.211378</ele>
        <time>2026-07-08T10:54:33.000Z</time>
      </trkpt>
      <trkpt lat="47.14873" lon="16.09144">
        <ele>326.340351</ele>
        <time>2026-07-08T10:54:34.000Z</time>
      </trkpt>
      <trkpt lat="47.14871" lon="16.09148">
        <ele>326.475952</ele>
        <time>2026-07-08T10:54:35.000Z</time>
      </trkpt>
      <trkpt lat="47.14869" lon="16.09152">
        <ele>326.616183</ele>
        <time>2026-07-08T10:54:36.000Z</time>
      </trkpt>
      <trkpt lat="47.14868" lon="16.09156">
        <ele>326.742768</ele>
        <time>2026-07-08T10:54:37.000Z</time>
      </trkpt>
      <trkpt lat="47.14866" lon="16.0916">
        <ele>326.873861</ele>
        <time>2026-07-08T10:54:38.000Z</time>
      </trkpt>
      <trkpt lat="47.14864" lon="16.09164">
        <ele>327.007164</ele>
        <time>2026-07-08T10:54:39.000Z</time>
      </trkpt>
      <trkpt lat="47.14862" lon="16.09167">
        <ele>327.133812</ele>
        <time>2026-07-08T10:54:40.000Z</time>
      </trkpt>
      <trkpt lat="47.14861" lon="16.09171">
        <ele>327.267115</ele>
        <time>2026-07-08T10:54:41.000Z</time>
      </trkpt>
      <trkpt lat="47.14859" lon="16.09175">
        <ele>327.389071</ele>
        <time>2026-07-08T10:54:42.000Z</time>
      </trkpt>
      <trkpt lat="47.14857" lon="16.09179">
        <ele>327.524823</ele>
        <time>2026-07-08T10:54:43.000Z</time>
      </trkpt>
      <trkpt lat="47.14855" lon="16.09183">
        <ele>327.662805</ele>
        <time>2026-07-08T10:54:44.000Z</time>
      </trkpt>
      <trkpt lat="47.14853" lon="16.09187">
        <ele>327.798407</ele>
        <time>2026-07-08T10:54:45.000Z</time>
      </trkpt>
      <trkpt lat="47.14851" lon="16.09191">
        <ele>327.934037</ele>
        <time>2026-07-08T10:54:46.000Z</time>
      </trkpt>
      <trkpt lat="47.14849" lon="16.09195">
        <ele>328.062781</ele>
        <time>2026-07-08T10:54:47.000Z</time>
      </trkpt>
      <trkpt lat="47.14847" lon="16.09198">
        <ele>328.191974</ele>
        <time>2026-07-08T10:54:48.000Z</time>
      </trkpt>
      <trkpt lat="47.14845" lon="16.09202">
        <ele>328.321694</ele>
        <time>2026-07-08T10:54:49.000Z</time>
      </trkpt>
      <trkpt lat="47.14843" lon="16.09206">
        <ele>328.464669</ele>
        <time>2026-07-08T10:54:50.000Z</time>
      </trkpt>
      <trkpt lat="47.14841" lon="16.0921">
        <ele>328.605494</ele>
        <time>2026-07-08T10:54:51.000Z</time>
      </trkpt>
      <trkpt lat="47.14838" lon="16.09213">
        <ele>328.746561</ele>
        <time>2026-07-08T10:54:52.000Z</time>
      </trkpt>
      <trkpt lat="47.14836" lon="16.09217">
        <ele>328.887629</ele>
        <time>2026-07-08T10:54:53.000Z</time>
      </trkpt>
      <trkpt lat="47.14833" lon="16.0922">
        <ele>328.954749</ele>
        <time>2026-07-08T10:54:54.000Z</time>
      </trkpt>
      <trkpt lat="47.1483" lon="16.09224">
        <ele>328.944605</ele>
        <time>2026-07-08T10:54:55.000Z</time>
      </trkpt>
      <trkpt lat="47.14827" lon="16.09226">
        <ele>328.93456</ele>
        <time>2026-07-08T10:54:56.000Z</time>
      </trkpt>
      <trkpt lat="47.14824" lon="16.09229">
        <ele>328.924645</ele>
        <time>2026-07-08T10:54:57.000Z</time>
      </trkpt>
      <trkpt lat="47.14822" lon="16.09232">
        <ele>328.915073</ele>
        <time>2026-07-08T10:54:58.000Z</time>
      </trkpt>
      <trkpt lat="47.14819" lon="16.09235">
        <ele>328.905842</ele>
        <time>2026-07-08T10:54:59.000Z</time>
      </trkpt>
      <trkpt lat="47.14816" lon="16.09237">
        <ele>328.896954</ele>
        <time>2026-07-08T10:55:00.000Z</time>
      </trkpt>
      <trkpt lat="47.14814" lon="16.0924">
        <ele>328.887387</ele>
        <time>2026-07-08T10:55:01.000Z</time>
      </trkpt>
      <trkpt lat="47.14811" lon="16.09244">
        <ele>328.877362</ele>
        <time>2026-07-08T10:55:02.000Z</time>
      </trkpt>
      <trkpt lat="47.14808" lon="16.09247">
        <ele>328.867338</ele>
        <time>2026-07-08T10:55:03.000Z</time>
      </trkpt>
      <trkpt lat="47.14805" lon="16.0925">
        <ele>328.857544</ele>
        <time>2026-07-08T10:55:04.000Z</time>
      </trkpt>
      <trkpt lat="47.14802" lon="16.09253">
        <ele>328.847288</ele>
        <time>2026-07-08T10:55:05.000Z</time>
      </trkpt>
      <trkpt lat="47.14799" lon="16.09256">
        <ele>328.836811</ele>
        <time>2026-07-08T10:55:06.000Z</time>
      </trkpt>
      <trkpt lat="47.14796" lon="16.09259">
        <ele>328.826766</ele>
        <time>2026-07-08T10:55:07.000Z</time>
      </trkpt>
      <trkpt lat="47.14793" lon="16.09262">
        <ele>328.816037</ele>
        <time>2026-07-08T10:55:08.000Z</time>
      </trkpt>
      <trkpt lat="47.1479" lon="16.09265">
        <ele>328.805546</ele>
        <time>2026-07-08T10:55:09.000Z</time>
      </trkpt>
      <trkpt lat="47.14787" lon="16.09268">
        <ele>328.794606</ele>
        <time>2026-07-08T10:55:10.000Z</time>
      </trkpt>
      <trkpt lat="47.14784" lon="16.09271">
        <ele>328.784015</ele>
        <time>2026-07-08T10:55:11.000Z</time>
      </trkpt>
      <trkpt lat="47.14781" lon="16.09275">
        <ele>328.772821</ele>
        <time>2026-07-08T10:55:12.000Z</time>
      </trkpt>
      <trkpt lat="47.14778" lon="16.09279">
        <ele>328.762179</ele>
        <time>2026-07-08T10:55:13.000Z</time>
      </trkpt>
      <trkpt lat="47.14775" lon="16.09282">
        <ele>328.751745</ele>
        <time>2026-07-08T10:55:14.000Z</time>
      </trkpt>
      <trkpt lat="47.14772" lon="16.09286">
        <ele>328.741442</ele>
        <time>2026-07-08T10:55:15.000Z</time>
      </trkpt>
      <trkpt lat="47.1477" lon="16.0929">
        <ele>328.730942</ele>
        <time>2026-07-08T10:55:16.000Z</time>
      </trkpt>
      <trkpt lat="47.14767" lon="16.09293">
        <ele>328.720638</ele>
        <time>2026-07-08T10:55:17.000Z</time>
      </trkpt>
      <trkpt lat="47.14765" lon="16.09297">
        <ele>328.710714</ele>
        <time>2026-07-08T10:55:18.000Z</time>
      </trkpt>
      <trkpt lat="47.14762" lon="16.09301">
        <ele>328.701022</ele>
        <time>2026-07-08T10:55:19.000Z</time>
      </trkpt>
      <trkpt lat="47.1476" lon="16.09305">
        <ele>328.691458</ele>
        <time>2026-07-08T10:55:20.000Z</time>
      </trkpt>
      <trkpt lat="47.14758" lon="16.09308">
        <ele>328.682669</ele>
        <time>2026-07-08T10:55:21.000Z</time>
      </trkpt>
      <trkpt lat="47.14756" lon="16.09312">
        <ele>328.674356</ele>
        <time>2026-07-08T10:55:22.000Z</time>
      </trkpt>
      <trkpt lat="47.14755" lon="16.09315">
        <ele>328.667026</ele>
        <time>2026-07-08T10:55:23.000Z</time>
      </trkpt>
      <trkpt lat="47.14753" lon="16.09318">
        <ele>328.65895</ele>
        <time>2026-07-08T10:55:24.000Z</time>
      </trkpt>
      <trkpt lat="47.14751" lon="16.09321">
        <ele>328.650873</ele>
        <time>2026-07-08T10:55:25.000Z</time>
      </trkpt>
      <trkpt lat="47.14749" lon="16.09324">
        <ele>328.643714</ele>
        <time>2026-07-08T10:55:26.000Z</time>
      </trkpt>
      <trkpt lat="47.14748" lon="16.09326">
        <ele>328.638141</ele>
        <time>2026-07-08T10:55:27.000Z</time>
      </trkpt>
      <trkpt lat="47.14747" lon="16.09328">
        <ele>328.63368</ele>
        <time>2026-07-08T10:55:28.000Z</time>
      </trkpt>
      <trkpt lat="47.14747" lon="16.0933">
        <ele>328.629763</ele>
        <time>2026-07-08T10:55:29.000Z</time>
      </trkpt>
      <trkpt lat="47.14747" lon="16.09331">
        <ele>328.627574</ele>
        <time>2026-07-08T10:55:30.000Z</time>
      </trkpt>
      <trkpt lat="47.14747" lon="16.09331">
        <ele>328.62689</ele>
        <time>2026-07-08T10:55:31.000Z</time>
      </trkpt>
      <trkpt lat="47.14748" lon="16.09341">
        <ele>328.607693</ele>
        <time>2026-07-08T10:56:10.000Z</time>
      </trkpt>
      <trkpt lat="47.14748" lon="16.09344">
        <ele>328.601102</ele>
        <time>2026-07-08T10:56:11.000Z</time>
      </trkpt>
      <trkpt lat="47.14749" lon="16.09348">
        <ele>328.593774</ele>
        <time>2026-07-08T10:56:12.000Z</time>
      </trkpt>
      <trkpt lat="47.14748" lon="16.09353">
        <ele>328.585104</ele>
        <time>2026-07-08T10:56:13.000Z</time>
      </trkpt>
      <trkpt lat="47.14748" lon="16.09358">
        <ele>328.575453</ele>
        <time>2026-07-08T10:56:14.000Z</time>
      </trkpt>
      <trkpt lat="47.14748" lon="16.09363">
        <ele>328.565356</ele>
        <time>2026-07-08T10:56:15.000Z</time>
      </trkpt>
      <trkpt lat="47.14747" lon="16.09368">
        <ele>328.554598</ele>
        <time>2026-07-08T10:56:16.000Z</time>
      </trkpt>
      <trkpt lat="47.14746" lon="16.09374">
        <ele>328.54322</ele>
        <time>2026-07-08T10:56:17.000Z</time>
      </trkpt>
      <trkpt lat="47.14745" lon="16.0938">
        <ele>328.531516</ele>
        <time>2026-07-08T10:56:18.000Z</time>
      </trkpt>
      <trkpt lat="47.14745" lon="16.09386">
        <ele>328.519194</ele>
        <time>2026-07-08T10:56:19.000Z</time>
      </trkpt>
      <trkpt lat="47.14744" lon="16.09393">
        <ele>328.506541</ele>
        <time>2026-07-08T10:56:20.000Z</time>
      </trkpt>
      <trkpt lat="47.14743" lon="16.094">
        <ele>328.493463</ele>
        <time>2026-07-08T10:56:21.000Z</time>
      </trkpt>
      <trkpt lat="47.14742" lon="16.09406">
        <ele>328.480087</ele>
        <time>2026-07-08T10:56:22.000Z</time>
      </trkpt>
      <trkpt lat="47.14741" lon="16.09414">
        <ele>328.465958</ele>
        <time>2026-07-08T10:56:23.000Z</time>
      </trkpt>
      <trkpt lat="47.1474" lon="16.09421">
        <ele>328.450922</ele>
        <time>2026-07-08T10:56:24.000Z</time>
      </trkpt>
      <trkpt lat="47.14738" lon="16.09428">
        <ele>328.072586</ele>
        <time>2026-07-08T10:56:25.000Z</time>
      </trkpt>
      <trkpt lat="47.14736" lon="16.09435">
        <ele>327.686903</ele>
        <time>2026-07-08T10:56:26.000Z</time>
      </trkpt>
      <trkpt lat="47.14734" lon="16.09442">
        <ele>327.294398</ele>
        <time>2026-07-08T10:56:27.000Z</time>
      </trkpt>
      <trkpt lat="47.14732" lon="16.09449">
        <ele>326.898527</ele>
        <time>2026-07-08T10:56:28.000Z</time>
      </trkpt>
      <trkpt lat="47.1473" lon="16.09456">
        <ele>326.496757</ele>
        <time>2026-07-08T10:56:29.000Z</time>
      </trkpt>
      <trkpt lat="47.14728" lon="16.09464">
        <ele>326.106367</ele>
        <time>2026-07-08T10:56:30.000Z</time>
      </trkpt>
      <trkpt lat="47.14727" lon="16.09471">
        <ele>325.723076</ele>
        <time>2026-07-08T10:56:31.000Z</time>
      </trkpt>
      <trkpt lat="47.14725" lon="16.09478">
        <ele>325.351687</ele>
        <time>2026-07-08T10:56:32.000Z</time>
      </trkpt>
      <trkpt lat="47.14724" lon="16.09485">
        <ele>324.99215</ele>
        <time>2026-07-08T10:56:33.000Z</time>
      </trkpt>
      <trkpt lat="47.14723" lon="16.09491">
        <ele>324.637511</ele>
        <time>2026-07-08T10:56:34.000Z</time>
      </trkpt>
      <trkpt lat="47.14721" lon="16.09497">
        <ele>324.301962</ele>
        <time>2026-07-08T10:56:35.000Z</time>
      </trkpt>
      <trkpt lat="47.14719" lon="16.09503">
        <ele>323.948134</ele>
        <time>2026-07-08T10:56:36.000Z</time>
      </trkpt>
      <trkpt lat="47.14715" lon="16.09509">
        <ele>323.554366</ele>
        <time>2026-07-08T10:56:37.000Z</time>
      </trkpt>
      <trkpt lat="47.1471" lon="16.09513">
        <ele>323.158166</ele>
        <time>2026-07-08T10:56:38.000Z</time>
      </trkpt>
      <trkpt lat="47.14705" lon="16.09517">
        <ele>322.7272</ele>
        <time>2026-07-08T10:56:39.000Z</time>
      </trkpt>
      <trkpt lat="47.14701" lon="16.09522">
        <ele>322.286949</ele>
        <time>2026-07-08T10:56:40.000Z</time>
      </trkpt>
      <trkpt lat="47.14696" lon="16.09528">
        <ele>321.827726</ele>
        <time>2026-07-08T10:56:41.000Z</time>
      </trkpt>
      <trkpt lat="47.14692" lon="16.09534">
        <ele>321.381539</ele>
        <time>2026-07-08T10:56:42.000Z</time>
      </trkpt>
      <trkpt lat="47.14688" lon="16.09542">
        <ele>320.918559</ele>
        <time>2026-07-08T10:56:43.000Z</time>
      </trkpt>
      <trkpt lat="47.14685" lon="16.09549">
        <ele>320.493376</ele>
        <time>2026-07-08T10:56:44.000Z</time>
      </trkpt>
      <trkpt lat="47.14682" lon="16.09556">
        <ele>320.089136</ele>
        <time>2026-07-08T10:56:45.000Z</time>
      </trkpt>
      <trkpt lat="47.1468" lon="16.09562">
        <ele>319.710313</ele>
        <time>2026-07-08T10:56:46.000Z</time>
      </trkpt>
      <trkpt lat="47.14677" lon="16.09568">
        <ele>319.337358</ele>
        <time>2026-07-08T10:56:47.000Z</time>
      </trkpt>
      <trkpt lat="47.14675" lon="16.09575">
        <ele>318.947403</ele>
        <time>2026-07-08T10:56:48.000Z</time>
      </trkpt>
      <trkpt lat="47.14672" lon="16.09582">
        <ele>318.544959</ele>
        <time>2026-07-08T10:56:49.000Z</time>
      </trkpt>
      <trkpt lat="47.1467" lon="16.09589">
        <ele>318.125515</ele>
        <time>2026-07-08T10:56:50.000Z</time>
      </trkpt>
      <trkpt lat="47.14668" lon="16.09597">
        <ele>317.686281</ele>
        <time>2026-07-08T10:56:51.000Z</time>
      </trkpt>
      <trkpt lat="47.14666" lon="16.09606">
        <ele>317.208776</ele>
        <time>2026-07-08T10:56:52.000Z</time>
      </trkpt>
      <trkpt lat="47.14664" lon="16.09616">
        <ele>316.708759</ele>
        <time>2026-07-08T10:56:53.000Z</time>
      </trkpt>
      <trkpt lat="47.14662" lon="16.09625">
        <ele>316.208743</ele>
        <time>2026-07-08T10:56:54.000Z</time>
      </trkpt>
      <trkpt lat="47.1466" lon="16.09635">
        <ele>315.707407</ele>
        <time>2026-07-08T10:56:55.000Z</time>
      </trkpt>
      <trkpt lat="47.14659" lon="16.09643">
        <ele>315.249399</ele>
        <time>2026-07-08T10:56:56.000Z</time>
      </trkpt>
      <trkpt lat="47.14657" lon="16.09652">
        <ele>314.883164</ele>
        <time>2026-07-08T10:56:57.000Z</time>
      </trkpt>
      <trkpt lat="47.14656" lon="16.09659">
        <ele>314.635078</ele>
        <time>2026-07-08T10:56:58.000Z</time>
      </trkpt>
      <trkpt lat="47.14654" lon="16.09666">
        <ele>314.400125</ele>
        <time>2026-07-08T10:56:59.000Z</time>
      </trkpt>
      <trkpt lat="47.14652" lon="16.09671">
        <ele>314.203072</ele>
        <time>2026-07-08T10:57:00.000Z</time>
      </trkpt>
      <trkpt lat="47.14649" lon="16.09673">
        <ele>314.039817</ele>
        <time>2026-07-08T10:57:01.000Z</time>
      </trkpt>
      <trkpt lat="47.14645" lon="16.09674">
        <ele>313.845284</ele>
        <time>2026-07-08T10:57:02.000Z</time>
      </trkpt>
      <trkpt lat="47.14641" lon="16.09673">
        <ele>313.642724</ele>
        <time>2026-07-08T10:57:03.000Z</time>
      </trkpt>
      <trkpt lat="47.14636" lon="16.0967">
        <ele>313.43054</ele>
        <time>2026-07-08T10:57:04.000Z</time>
      </trkpt>
      <trkpt lat="47.14633" lon="16.09667">
        <ele>313.218253</ele>
        <time>2026-07-08T10:57:05.000Z</time>
      </trkpt>
      <trkpt lat="47.14628" lon="16.09663">
        <ele>312.991266</ele>
        <time>2026-07-08T10:57:06.000Z</time>
      </trkpt>
      <trkpt lat="47.14624" lon="16.0966">
        <ele>312.766816</ele>
        <time>2026-07-08T10:57:07.000Z</time>
      </trkpt>
      <trkpt lat="47.1462" lon="16.09656">
        <ele>312.528426</ele>
        <time>2026-07-08T10:57:08.000Z</time>
      </trkpt>
      <trkpt lat="47.14615" lon="16.09652">
        <ele>312.281127</ele>
        <time>2026-07-08T10:57:09.000Z</time>
      </trkpt>
      <trkpt lat="47.14611" lon="16.09649">
        <ele>312.043055</ele>
        <time>2026-07-08T10:57:10.000Z</time>
      </trkpt>
      <trkpt lat="47.14606" lon="16.09646">
        <ele>311.802131</ele>
        <time>2026-07-08T10:57:11.000Z</time>
      </trkpt>
      <trkpt lat="47.14601" lon="16.09643">
        <ele>311.546973</ele>
        <time>2026-07-08T10:57:12.000Z</time>
      </trkpt>
      <trkpt lat="47.14597" lon="16.09639">
        <ele>311.293316</ele>
        <time>2026-07-08T10:57:13.000Z</time>
      </trkpt>
      <trkpt lat="47.14592" lon="16.09636">
        <ele>311.042454</ele>
        <time>2026-07-08T10:57:14.000Z</time>
      </trkpt>
      <trkpt lat="47.14582" lon="16.0963">
        <ele>310.531122</ele>
        <time>2026-07-08T10:57:15.000Z</time>
      </trkpt>
      <trkpt lat="47.14577" lon="16.09627">
        <ele>310.273094</ele>
        <time>2026-07-08T10:57:17.000Z</time>
      </trkpt>
      <trkpt lat="47.14571" lon="16.09625">
        <ele>310.014084</ele>
        <time>2026-07-08T10:57:18.000Z</time>
      </trkpt>
      <trkpt lat="47.14562" lon="16.09621">
        <ele>309.529903</ele>
        <time>2026-07-08T10:57:19.000Z</time>
      </trkpt>
      <trkpt lat="47.14557" lon="16.09619">
        <ele>309.300757</ele>
        <time>2026-07-08T10:57:20.000Z</time>
      </trkpt>
      <trkpt lat="47.14552" lon="16.09618">
        <ele>309.080118</ele>
        <time>2026-07-08T10:57:21.000Z</time>
      </trkpt>
      <trkpt lat="47.14548" lon="16.09617">
        <ele>308.863599</ele>
        <time>2026-07-08T10:57:22.000Z</time>
      </trkpt>
      <trkpt lat="47.14544" lon="16.09615">
        <ele>308.6604</ele>
        <time>2026-07-08T10:57:23.000Z</time>
      </trkpt>
      <trkpt lat="47.1454" lon="16.09614">
        <ele>308.468824</ele>
        <time>2026-07-08T10:57:24.000Z</time>
      </trkpt>
      <trkpt lat="47.14536" lon="16.09613">
        <ele>308.276734</ele>
        <time>2026-07-08T10:57:25.000Z</time>
      </trkpt>
      <trkpt lat="47.14532" lon="16.09612">
        <ele>308.09802</ele>
        <time>2026-07-08T10:57:26.000Z</time>
      </trkpt>
      <trkpt lat="47.14528" lon="16.09611">
        <ele>307.92457</ele>
        <time>2026-07-08T10:57:27.000Z</time>
      </trkpt>
      <trkpt lat="47.14525" lon="16.0961">
        <ele>307.768222</ele>
        <time>2026-07-08T10:57:28.000Z</time>
      </trkpt>
      <trkpt lat="47.14522" lon="16.09609">
        <ele>307.61455</ele>
        <time>2026-07-08T10:57:29.000Z</time>
      </trkpt>
      <trkpt lat="47.14519" lon="16.09608">
        <ele>307.478135</ele>
        <time>2026-07-08T10:57:30.000Z</time>
      </trkpt>
      <trkpt lat="47.14517" lon="16.09607">
        <ele>307.355476</ele>
        <time>2026-07-08T10:57:31.000Z</time>
      </trkpt>
      <trkpt lat="47.14515" lon="16.09606">
        <ele>307.255465</ele>
        <time>2026-07-08T10:57:32.000Z</time>
      </trkpt>
      <trkpt lat="47.14513" lon="16.09606">
        <ele>307.194345</ele>
        <time>2026-07-08T10:57:33.000Z</time>
      </trkpt>
      <trkpt lat="47.14513" lon="16.09605">
        <ele>307.177168</ele>
        <time>2026-07-08T10:57:34.000Z</time>
      </trkpt>
      <trkpt lat="47.14513" lon="16.09605">
        <ele>307.165717</ele>
        <time>2026-07-08T10:57:35.000Z</time>
      </trkpt>
      <trkpt lat="47.14514" lon="16.09608">
        <ele>307.05814</ele>
        <time>2026-07-08T10:58:06.000Z</time>
      </trkpt>
      <trkpt lat="47.14515" lon="16.09609">
        <ele>306.985323</ele>
        <time>2026-07-08T10:58:07.000Z</time>
      </trkpt>
      <trkpt lat="47.14517" lon="16.09609">
        <ele>306.894854</ele>
        <time>2026-07-08T10:58:08.000Z</time>
      </trkpt>
      <trkpt lat="47.14519" lon="16.0961">
        <ele>306.806706</ele>
        <time>2026-07-08T10:58:09.000Z</time>
      </trkpt>
      <trkpt lat="47.14521" lon="16.09611">
        <ele>306.708753</ele>
        <time>2026-07-08T10:58:10.000Z</time>
      </trkpt>
      <trkpt lat="47.14522" lon="16.09613">
        <ele>306.61909</ele>
        <time>2026-07-08T10:58:11.000Z</time>
      </trkpt>
      <trkpt lat="47.14524" lon="16.09616">
        <ele>306.504321</ele>
        <time>2026-07-08T10:58:12.000Z</time>
      </trkpt>
      <trkpt lat="47.14525" lon="16.0962">
        <ele>306.49004</ele>
        <time>2026-07-08T10:58:13.000Z</time>
      </trkpt>
      <trkpt lat="47.14525" lon="16.09625">
        <ele>306.510422</ele>
        <time>2026-07-08T10:58:14.000Z</time>
      </trkpt>
      <trkpt lat="47.14525" lon="16.0963">
        <ele>306.532926</ele>
        <time>2026-07-08T10:58:15.000Z</time>
      </trkpt>
      <trkpt lat="47.14525" lon="16.09636">
        <ele>306.55715</ele>
        <time>2026-07-08T10:58:16.000Z</time>
      </trkpt>
      <trkpt lat="47.14524" lon="16.09641">
        <ele>306.581964</ele>
        <time>2026-07-08T10:58:17.000Z</time>
      </trkpt>
      <trkpt lat="47.14524" lon="16.09647">
        <ele>306.607199</ele>
        <time>2026-07-08T10:58:18.000Z</time>
      </trkpt>
      <trkpt lat="47.14524" lon="16.09653">
        <ele>306.630967</ele>
        <time>2026-07-08T10:58:19.000Z</time>
      </trkpt>
      <trkpt lat="47.14524" lon="16.09659">
        <ele>306.655159</ele>
        <time>2026-07-08T10:58:20.000Z</time>
      </trkpt>
      <trkpt lat="47.14524" lon="16.09664">
        <ele>306.679776</ele>
        <time>2026-07-08T10:58:21.000Z</time>
      </trkpt>
      <trkpt lat="47.14524" lon="16.09671">
        <ele>306.70754</ele>
        <time>2026-07-08T10:58:22.000Z</time>
      </trkpt>
      <trkpt lat="47.14525" lon="16.09677">
        <ele>306.733677</ele>
        <time>2026-07-08T10:58:23.000Z</time>
      </trkpt>
      <trkpt lat="47.14527" lon="16.09682">
        <ele>306.75726</ele>
        <time>2026-07-08T10:58:24.000Z</time>
      </trkpt>
      <trkpt lat="47.14528" lon="16.09685">
        <ele>306.775158</ele>
        <time>2026-07-08T10:58:25.000Z</time>
      </trkpt>
      <trkpt lat="47.14529" lon="16.09688">
        <ele>306.786389</ele>
        <time>2026-07-08T10:58:26.000Z</time>
      </trkpt>
      <trkpt lat="47.1453" lon="16.09689">
        <ele>306.792362</ele>
        <time>2026-07-08T10:58:27.000Z</time>
      </trkpt>
      <trkpt lat="47.1453" lon="16.09689">
        <ele>306.79368</ele>
        <time>2026-07-08T10:58:28.000Z</time>
      </trkpt>
      <trkpt lat="47.14534" lon="16.09693">
        <ele>306.82285</ele>
        <time>2026-07-08T10:59:01.000Z</time>
      </trkpt>
      <trkpt lat="47.14534" lon="16.09692">
        <ele>306.828403</ele>
        <time>2026-07-08T10:59:02.000Z</time>
      </trkpt>
      <trkpt lat="47.14533" lon="16.0969">
        <ele>306.835114</ele>
        <time>2026-07-08T10:59:03.000Z</time>
      </trkpt>
      <trkpt lat="47.14532" lon="16.09689">
        <ele>306.842908</ele>
        <time>2026-07-08T10:59:04.000Z</time>
      </trkpt>
      <trkpt lat="47.14531" lon="16.09688">
        <ele>306.851524</ele>
        <time>2026-07-08T10:59:05.000Z</time>
      </trkpt>
      <trkpt lat="47.1453" lon="16.09687">
        <ele>306.861335</ele>
        <time>2026-07-08T10:59:06.000Z</time>
      </trkpt>
      <trkpt lat="47.14529" lon="16.09685">
        <ele>306.873077</ele>
        <time>2026-07-08T10:59:07.000Z</time>
      </trkpt>
      <trkpt lat="47.14527" lon="16.09682">
        <ele>306.886177</ele>
        <time>2026-07-08T10:59:08.000Z</time>
      </trkpt>
      <trkpt lat="47.14526" lon="16.0968">
        <ele>306.89846</ele>
        <time>2026-07-08T10:59:09.000Z</time>
      </trkpt>
      <trkpt lat="47.14526" lon="16.09678">
        <ele>306.908386</ele>
        <time>2026-07-08T10:59:10.000Z</time>
      </trkpt>
      <trkpt lat="47.14525" lon="16.09675">
        <ele>306.920836</ele>
        <time>2026-07-08T10:59:11.000Z</time>
      </trkpt>
      <trkpt lat="47.14525" lon="16.09672">
        <ele>306.934898</ele>
        <time>2026-07-08T10:59:12.000Z</time>
      </trkpt>
      <trkpt lat="47.14525" lon="16.09668">
        <ele>306.951026</ele>
        <time>2026-07-08T10:59:13.000Z</time>
      </trkpt>
      <trkpt lat="47.14525" lon="16.09664">
        <ele>306.968896</ele>
        <time>2026-07-08T10:59:14.000Z</time>
      </trkpt>
      <trkpt lat="47.14525" lon="16.0966">
        <ele>306.985884</ele>
        <time>2026-07-08T10:59:15.000Z</time>
      </trkpt>
      <trkpt lat="47.14525" lon="16.09656">
        <ele>307.001638</ele>
        <time>2026-07-08T10:59:16.000Z</time>
      </trkpt>
      <trkpt lat="47.14525" lon="16.09652">
        <ele>307.016917</ele>
        <time>2026-07-08T10:59:17.000Z</time>
      </trkpt>
      <trkpt lat="47.14524" lon="16.09648">
        <ele>307.033997</ele>
        <time>2026-07-08T10:59:18.000Z</time>
      </trkpt>
      <trkpt lat="47.14524" lon="16.09644">
        <ele>307.053137</ele>
        <time>2026-07-08T10:59:19.000Z</time>
      </trkpt>
      <trkpt lat="47.14524" lon="16.09639">
        <ele>307.073085</ele>
        <time>2026-07-08T10:59:20.000Z</time>
      </trkpt>
      <trkpt lat="47.14525" lon="16.09634">
        <ele>307.093695</ele>
        <time>2026-07-08T10:59:21.000Z</time>
      </trkpt>
      <trkpt lat="47.14525" lon="16.09629">
        <ele>307.114577</ele>
        <time>2026-07-08T10:59:22.000Z</time>
      </trkpt>
      <trkpt lat="47.14525" lon="16.09625">
        <ele>307.13411</ele>
        <time>2026-07-08T10:59:23.000Z</time>
      </trkpt>
      <trkpt lat="47.14524" lon="16.09621">
        <ele>307.152464</ele>
        <time>2026-07-08T10:59:24.000Z</time>
      </trkpt>
      <trkpt lat="47.14523" lon="16.09617">
        <ele>307.169362</ele>
        <time>2026-07-08T10:59:25.000Z</time>
      </trkpt>
      <trkpt lat="47.14522" lon="16.09614">
        <ele>307.184695</ele>
        <time>2026-07-08T10:59:26.000Z</time>
      </trkpt>
      <trkpt lat="47.14521" lon="16.09611">
        <ele>307.19822</ele>
        <time>2026-07-08T10:59:27.000Z</time>
      </trkpt>
      <trkpt lat="47.14518" lon="16.09609">
        <ele>307.214895</ele>
        <time>2026-07-08T10:59:28.000Z</time>
      </trkpt>
      <trkpt lat="47.14516" lon="16.09607">
        <ele>307.233761</ele>
        <time>2026-07-08T10:59:29.000Z</time>
      </trkpt>
      <trkpt lat="47.14513" lon="16.09605">
        <ele>307.254316</ele>
        <time>2026-07-08T10:59:30.000Z</time>
      </trkpt>
      <trkpt lat="47.14509" lon="16.09604">
        <ele>307.275276</ele>
        <time>2026-07-08T10:59:31.000Z</time>
      </trkpt>
      <trkpt lat="47.14506" lon="16.09602">
        <ele>307.295339</ele>
        <time>2026-07-08T10:59:32.000Z</time>
      </trkpt>
      <trkpt lat="47.14503" lon="16.09601">
        <ele>307.315455</ele>
        <time>2026-07-08T10:59:33.000Z</time>
      </trkpt>
      <trkpt lat="47.145" lon="16.096">
        <ele>307.337275</ele>
        <time>2026-07-08T10:59:34.000Z</time>
      </trkpt>
      <trkpt lat="47.14496" lon="16.09599">
        <ele>307.359153</ele>
        <time>2026-07-08T10:59:35.000Z</time>
      </trkpt>
      <trkpt lat="47.14493" lon="16.09599">
        <ele>307.37975</ele>
        <time>2026-07-08T10:59:36.000Z</time>
      </trkpt>
      <trkpt lat="47.1449" lon="16.096">
        <ele>307.400695</ele>
        <time>2026-07-08T10:59:37.000Z</time>
      </trkpt>
      <trkpt lat="47.14487" lon="16.09601">
        <ele>307.421202</ele>
        <time>2026-07-08T10:59:38.000Z</time>
      </trkpt>
      <trkpt lat="47.14483" lon="16.09603">
        <ele>307.442435</ele>
        <time>2026-07-08T10:59:39.000Z</time>
      </trkpt>
      <trkpt lat="47.1448" lon="16.09605">
        <ele>307.463233</ele>
        <time>2026-07-08T10:59:40.000Z</time>
      </trkpt>
      <trkpt lat="47.14477" lon="16.09607">
        <ele>307.484466</ele>
        <time>2026-07-08T10:59:41.000Z</time>
      </trkpt>
      <trkpt lat="47.14474" lon="16.09609">
        <ele>307.505579</ele>
        <time>2026-07-08T10:59:42.000Z</time>
      </trkpt>
      <trkpt lat="47.14471" lon="16.09611">
        <ele>307.526811</ele>
        <time>2026-07-08T10:59:43.000Z</time>
      </trkpt>
      <trkpt lat="47.14468" lon="16.09612">
        <ele>307.547177</ele>
        <time>2026-07-08T10:59:44.000Z</time>
      </trkpt>
      <trkpt lat="47.14465" lon="16.09613">
        <ele>307.567894</ele>
        <time>2026-07-08T10:59:45.000Z</time>
      </trkpt>
      <trkpt lat="47.14461" lon="16.09615">
        <ele>307.589327</ele>
        <time>2026-07-08T10:59:46.000Z</time>
      </trkpt>
      <trkpt lat="47.14458" lon="16.09616">
        <ele>307.573152</ele>
        <time>2026-07-08T10:59:47.000Z</time>
      </trkpt>
      <trkpt lat="47.14455" lon="16.09618">
        <ele>307.528344</ele>
        <time>2026-07-08T10:59:48.000Z</time>
      </trkpt>
      <trkpt lat="47.14452" lon="16.09619">
        <ele>307.486618</ele>
        <time>2026-07-08T10:59:49.000Z</time>
      </trkpt>
      <trkpt lat="47.14449" lon="16.09621">
        <ele>307.445156</ele>
        <time>2026-07-08T10:59:50.000Z</time>
      </trkpt>
      <trkpt lat="47.14446" lon="16.09622">
        <ele>307.406218</ele>
        <time>2026-07-08T10:59:51.000Z</time>
      </trkpt>
      <trkpt lat="47.14444" lon="16.09624">
        <ele>307.365706</ele>
        <time>2026-07-08T10:59:52.000Z</time>
      </trkpt>
      <trkpt lat="47.14441" lon="16.09626">
        <ele>307.324783</ele>
        <time>2026-07-08T10:59:53.000Z</time>
      </trkpt>
      <trkpt lat="47.14438" lon="16.09629">
        <ele>307.27993</ele>
        <time>2026-07-08T10:59:54.000Z</time>
      </trkpt>
      <trkpt lat="47.14435" lon="16.09631">
        <ele>307.233057</ele>
        <time>2026-07-08T10:59:55.000Z</time>
      </trkpt>
      <trkpt lat="47.14432" lon="16.09634">
        <ele>307.185018</ele>
        <time>2026-07-08T10:59:56.000Z</time>
      </trkpt>
      <trkpt lat="47.14428" lon="16.09636">
        <ele>307.13262</ele>
        <time>2026-07-08T10:59:57.000Z</time>
      </trkpt>
      <trkpt lat="47.14425" lon="16.09639">
        <ele>307.086905</ele>
        <time>2026-07-08T10:59:58.000Z</time>
      </trkpt>
      <trkpt lat="47.14422" lon="16.09641">
        <ele>307.039685</ele>
        <time>2026-07-08T10:59:59.000Z</time>
      </trkpt>
      <trkpt lat="47.14419" lon="16.09643">
        <ele>306.994832</ele>
        <time>2026-07-08T11:00:00.000Z</time>
      </trkpt>
      <trkpt lat="47.14416" lon="16.09646">
        <ele>306.951866</ele>
        <time>2026-07-08T11:00:01.000Z</time>
      </trkpt>
      <trkpt lat="47.14413" lon="16.09648">
        <ele>306.910196</ele>
        <time>2026-07-08T11:00:02.000Z</time>
      </trkpt>
      <trkpt lat="47.1441" lon="16.0965">
        <ele>306.866892</ele>
        <time>2026-07-08T11:00:03.000Z</time>
      </trkpt>
      <trkpt lat="47.14407" lon="16.09652">
        <ele>306.825162</ele>
        <time>2026-07-08T11:00:04.000Z</time>
      </trkpt>
      <trkpt lat="47.14405" lon="16.09654">
        <ele>306.788786</ele>
        <time>2026-07-08T11:00:05.000Z</time>
      </trkpt>
      <trkpt lat="47.14403" lon="16.09656">
        <ele>306.74969</ele>
        <time>2026-07-08T11:00:06.000Z</time>
      </trkpt>
      <trkpt lat="47.144" lon="16.09658">
        <ele>306.711959</ele>
        <time>2026-07-08T11:00:07.000Z</time>
      </trkpt>
      <trkpt lat="47.14398" lon="16.0966">
        <ele>306.675056</ele>
        <time>2026-07-08T11:00:08.000Z</time>
      </trkpt>
      <trkpt lat="47.14395" lon="16.09662">
        <ele>306.637325</ele>
        <time>2026-07-08T11:00:09.000Z</time>
      </trkpt>
      <trkpt lat="47.14393" lon="16.09664">
        <ele>306.599595</ele>
        <time>2026-07-08T11:00:10.000Z</time>
      </trkpt>
      <trkpt lat="47.1439" lon="16.09666">
        <ele>306.56417</ele>
        <time>2026-07-08T11:00:11.000Z</time>
      </trkpt>
      <trkpt lat="47.14388" lon="16.09668">
        <ele>306.530345</ele>
        <time>2026-07-08T11:00:12.000Z</time>
      </trkpt>
      <trkpt lat="47.14386" lon="16.0967">
        <ele>306.501482</ele>
        <time>2026-07-08T11:00:13.000Z</time>
      </trkpt>
      <trkpt lat="47.14385" lon="16.09671">
        <ele>306.476325</ele>
        <time>2026-07-08T11:00:14.000Z</time>
      </trkpt>
      <trkpt lat="47.14383" lon="16.09673">
        <ele>306.448543</ele>
        <time>2026-07-08T11:00:15.000Z</time>
      </trkpt>
      <trkpt lat="47.14381" lon="16.09674">
        <ele>306.421115</ele>
        <time>2026-07-08T11:00:16.000Z</time>
      </trkpt>
      <trkpt lat="47.14379" lon="16.09676">
        <ele>306.389049</ele>
        <time>2026-07-08T11:00:17.000Z</time>
      </trkpt>
      <trkpt lat="47.14377" lon="16.09678">
        <ele>306.354759</ele>
        <time>2026-07-08T11:00:18.000Z</time>
      </trkpt>
      <trkpt lat="47.14375" lon="16.0968">
        <ele>306.321646</ele>
        <time>2026-07-08T11:00:19.000Z</time>
      </trkpt>
      <trkpt lat="47.14373" lon="16.09683">
        <ele>306.28525</ele>
        <time>2026-07-08T11:00:20.000Z</time>
      </trkpt>
      <trkpt lat="47.14371" lon="16.09686">
        <ele>306.248708</ele>
        <time>2026-07-08T11:00:21.000Z</time>
      </trkpt>
      <trkpt lat="47.1437" lon="16.0969">
        <ele>306.209289</ele>
        <time>2026-07-08T11:00:22.000Z</time>
      </trkpt>
      <trkpt lat="47.14369" lon="16.09695">
        <ele>306.161658</ele>
        <time>2026-07-08T11:00:23.000Z</time>
      </trkpt>
      <trkpt lat="47.14367" lon="16.097">
        <ele>306.108822</ele>
        <time>2026-07-08T11:00:24.000Z</time>
      </trkpt>
      <trkpt lat="47.14365" lon="16.09706">
        <ele>306.051949</ele>
        <time>2026-07-08T11:00:25.000Z</time>
      </trkpt>
      <trkpt lat="47.14362" lon="16.09712">
        <ele>305.989271</ele>
        <time>2026-07-08T11:00:26.000Z</time>
      </trkpt>
      <trkpt lat="47.14359" lon="16.09718">
        <ele>305.922125</ele>
        <time>2026-07-08T11:00:27.000Z</time>
      </trkpt>
      <trkpt lat="47.14356" lon="16.09723">
        <ele>305.856175</ele>
        <time>2026-07-08T11:00:28.000Z</time>
      </trkpt>
      <trkpt lat="47.14353" lon="16.09728">
        <ele>305.79148</ele>
        <time>2026-07-08T11:00:29.000Z</time>
      </trkpt>
      <trkpt lat="47.14349" lon="16.09733">
        <ele>305.72864</ele>
        <time>2026-07-08T11:00:30.000Z</time>
      </trkpt>
      <trkpt lat="47.14346" lon="16.09738">
        <ele>305.6658</ele>
        <time>2026-07-08T11:00:31.000Z</time>
      </trkpt>
      <trkpt lat="47.14342" lon="16.09742">
        <ele>305.603565</ele>
        <time>2026-07-08T11:00:32.000Z</time>
      </trkpt>
      <trkpt lat="47.14338" lon="16.09747">
        <ele>305.537549</ele>
        <time>2026-07-08T11:00:33.000Z</time>
      </trkpt>
      <trkpt lat="47.14335" lon="16.09752">
        <ele>305.469944</ele>
        <time>2026-07-08T11:00:34.000Z</time>
      </trkpt>
      <trkpt lat="47.1433" lon="16.09757">
        <ele>305.400514</ele>
        <time>2026-07-08T11:00:35.000Z</time>
      </trkpt>
      <trkpt lat="47.14326" lon="16.09761">
        <ele>305.330543</ele>
        <time>2026-07-08T11:00:36.000Z</time>
      </trkpt>
      <trkpt lat="47.14322" lon="16.09767">
        <ele>305.256733</ele>
        <time>2026-07-08T11:00:37.000Z</time>
      </trkpt>
      <trkpt lat="47.14318" lon="16.09772">
        <ele>305.184297</ele>
        <time>2026-07-08T11:00:38.000Z</time>
      </trkpt>
      <trkpt lat="47.14314" lon="16.09778">
        <ele>305.115031</ele>
        <time>2026-07-08T11:00:39.000Z</time>
      </trkpt>
      <trkpt lat="47.14311" lon="16.09785">
        <ele>305.048363</ele>
        <time>2026-07-08T11:00:40.000Z</time>
      </trkpt>
      <trkpt lat="47.14309" lon="16.09792">
        <ele>304.979</ele>
        <time>2026-07-08T11:00:41.000Z</time>
      </trkpt>
      <trkpt lat="47.14307" lon="16.098">
        <ele>304.909415</ele>
        <time>2026-07-08T11:00:42.000Z</time>
      </trkpt>
      <trkpt lat="47.14306" lon="16.09808">
        <ele>304.841974</ele>
        <time>2026-07-08T11:00:43.000Z</time>
      </trkpt>
      <trkpt lat="47.14304" lon="16.09816">
        <ele>304.776977</ele>
        <time>2026-07-08T11:00:44.000Z</time>
      </trkpt>
      <trkpt lat="47.14303" lon="16.09822">
        <ele>304.718793</ele>
        <time>2026-07-08T11:00:45.000Z</time>
      </trkpt>
      <trkpt lat="47.14302" lon="16.09829">
        <ele>304.662232</ele>
        <time>2026-07-08T11:00:46.000Z</time>
      </trkpt>
      <trkpt lat="47.14301" lon="16.09834">
        <ele>304.614089</ele>
        <time>2026-07-08T11:00:47.000Z</time>
      </trkpt>
      <trkpt lat="47.143" lon="16.09839">
        <ele>304.572863</ele>
        <time>2026-07-08T11:00:48.000Z</time>
      </trkpt>
      <trkpt lat="47.14299" lon="16.09844">
        <ele>304.533803</ele>
        <time>2026-07-08T11:00:49.000Z</time>
      </trkpt>
      <trkpt lat="47.14298" lon="16.09848">
        <ele>304.495546</ele>
        <time>2026-07-08T11:00:50.000Z</time>
      </trkpt>
      <trkpt lat="47.14297" lon="16.09852">
        <ele>304.458317</ele>
        <time>2026-07-08T11:00:51.000Z</time>
      </trkpt>
      <trkpt lat="47.14295" lon="16.09855">
        <ele>304.425525</ele>
        <time>2026-07-08T11:00:52.000Z</time>
      </trkpt>
      <trkpt lat="47.14294" lon="16.09856">
        <ele>304.412561</ele>
        <time>2026-07-08T11:00:53.000Z</time>
      </trkpt>
      <trkpt lat="47.14294" lon="16.09856">
        <ele>304.404592</ele>
        <time>2026-07-08T11:00:54.000Z</time>
      </trkpt>
      <trkpt lat="47.14291" lon="16.09854">
        <ele>304.360614</ele>
        <time>2026-07-08T11:01:40.000Z</time>
      </trkpt>
      <trkpt lat="47.14289" lon="16.09853">
        <ele>304.344346</ele>
        <time>2026-07-08T11:01:41.000Z</time>
      </trkpt>
      <trkpt lat="47.14289" lon="16.09852">
        <ele>304.330235</ele>
        <time>2026-07-08T11:01:42.000Z</time>
      </trkpt>
      <trkpt lat="47.14288" lon="16.09851">
        <ele>304.316311</ele>
        <time>2026-07-08T11:01:43.000Z</time>
      </trkpt>
      <trkpt lat="47.14287" lon="16.0985">
        <ele>304.300343</ele>
        <time>2026-07-08T11:01:44.000Z</time>
      </trkpt>
      <trkpt lat="47.14285" lon="16.09849">
        <ele>304.280008</ele>
        <time>2026-07-08T11:01:45.000Z</time>
      </trkpt>
      <trkpt lat="47.14284" lon="16.09848">
        <ele>304.262977</ele>
        <time>2026-07-08T11:01:46.000Z</time>
      </trkpt>
      <trkpt lat="47.14283" lon="16.09847">
        <ele>304.246344</ele>
        <time>2026-07-08T11:01:47.000Z</time>
      </trkpt>
      <trkpt lat="47.14281" lon="16.09846">
        <ele>304.227151</ele>
        <time>2026-07-08T11:01:48.000Z</time>
      </trkpt>
      <trkpt lat="47.1428" lon="16.09845">
        <ele>304.205685</ele>
        <time>2026-07-08T11:01:49.000Z</time>
      </trkpt>
      <trkpt lat="47.14278" lon="16.09844">
        <ele>304.183377</ele>
        <time>2026-07-08T11:01:50.000Z</time>
      </trkpt>
      <trkpt lat="47.14277" lon="16.09844">
        <ele>304.163676</ele>
        <time>2026-07-08T11:01:51.000Z</time>
      </trkpt>
      <trkpt lat="47.14275" lon="16.09844">
        <ele>304.147625</ele>
        <time>2026-07-08T11:01:52.000Z</time>
      </trkpt>
      <trkpt lat="47.14274" lon="16.09845">
        <ele>304.126127</ele>
        <time>2026-07-08T11:01:53.000Z</time>
      </trkpt>
      <trkpt lat="47.14272" lon="16.09846">
        <ele>304.098777</ele>
        <time>2026-07-08T11:01:54.000Z</time>
      </trkpt>
      <trkpt lat="47.14269" lon="16.09847">
        <ele>304.067626</ele>
        <time>2026-07-08T11:01:55.000Z</time>
      </trkpt>
      <trkpt lat="47.14267" lon="16.09846">
        <ele>304.033248</ele>
        <time>2026-07-08T11:01:56.000Z</time>
      </trkpt>
      <trkpt lat="47.14264" lon="16.09844">
        <ele>303.995846</ele>
        <time>2026-07-08T11:01:57.000Z</time>
      </trkpt>
      <trkpt lat="47.14261" lon="16.09842">
        <ele>303.95615</ele>
        <time>2026-07-08T11:01:58.000Z</time>
      </trkpt>
      <trkpt lat="47.14258" lon="16.0984">
        <ele>303.9166</ele>
        <time>2026-07-08T11:01:59.000Z</time>
      </trkpt>
      <trkpt lat="47.14255" lon="16.09839">
        <ele>303.876594</ele>
        <time>2026-07-08T11:02:00.000Z</time>
      </trkpt>
      <trkpt lat="47.14252" lon="16.09837">
        <ele>303.835443</ele>
        <time>2026-07-08T11:02:01.000Z</time>
      </trkpt>
      <trkpt lat="47.14249" lon="16.09835">
        <ele>303.795747</ele>
        <time>2026-07-08T11:02:02.000Z</time>
      </trkpt>
      <trkpt lat="47.14246" lon="16.09834">
        <ele>303.754756</ele>
        <time>2026-07-08T11:02:03.000Z</time>
      </trkpt>
      <trkpt lat="47.14242" lon="16.09832">
        <ele>303.713287</ele>
        <time>2026-07-08T11:02:04.000Z</time>
      </trkpt>
      <trkpt lat="47.1424" lon="16.09831">
        <ele>303.676493</ele>
        <time>2026-07-08T11:02:05.000Z</time>
      </trkpt>
      <trkpt lat="47.14237" lon="16.09829">
        <ele>303.637369</ele>
        <time>2026-07-08T11:02:06.000Z</time>
      </trkpt>
      <trkpt lat="47.14233" lon="16.09828">
        <ele>303.596148</ele>
        <time>2026-07-08T11:02:07.000Z</time>
      </trkpt>
      <trkpt lat="47.1423" lon="16.09826">
        <ele>303.557024</ele>
        <time>2026-07-08T11:02:08.000Z</time>
      </trkpt>
      <trkpt lat="47.14228" lon="16.09825">
        <ele>303.52023</ele>
        <time>2026-07-08T11:02:09.000Z</time>
      </trkpt>
      <trkpt lat="47.14225" lon="16.09824">
        <ele>303.48801</ele>
        <time>2026-07-08T11:02:10.000Z</time>
      </trkpt>
      <trkpt lat="47.14223" lon="16.09823">
        <ele>303.463608</ele>
        <time>2026-07-08T11:02:11.000Z</time>
      </trkpt>
      <trkpt lat="47.14222" lon="16.09822">
        <ele>303.441001</ele>
        <time>2026-07-08T11:02:12.000Z</time>
      </trkpt>
      <trkpt lat="47.1422" lon="16.0982">
        <ele>303.422049</ele>
        <time>2026-07-08T11:02:13.000Z</time>
      </trkpt>
      <trkpt lat="47.14219" lon="16.0982">
        <ele>303.402348</ele>
        <time>2026-07-08T11:02:14.000Z</time>
      </trkpt>
      <trkpt lat="47.14217" lon="16.0982">
        <ele>303.378754</ele>
        <time>2026-07-08T11:02:15.000Z</time>
      </trkpt>
      <trkpt lat="47.14216" lon="16.09822">
        <ele>303.359049</ele>
        <time>2026-07-08T11:02:16.000Z</time>
      </trkpt>
      <trkpt lat="47.14215" lon="16.09824">
        <ele>303.338771</ele>
        <time>2026-07-08T11:02:17.000Z</time>
      </trkpt>
      <trkpt lat="47.14215" lon="16.09826">
        <ele>303.319647</ele>
        <time>2026-07-08T11:02:18.000Z</time>
      </trkpt>
      <trkpt lat="47.14214" lon="16.09828">
        <ele>303.305619</ele>
        <time>2026-07-08T11:02:19.000Z</time>
      </trkpt>
      <trkpt lat="47.14214" lon="16.09828">
        <ele>303.304384</ele>
        <time>2026-07-08T11:02:20.000Z</time>
      </trkpt>
      <trkpt lat="47.14214" lon="16.09827">
        <ele>303.301865</ele>
        <time>2026-07-08T11:02:21.000Z</time>
      </trkpt>
      <trkpt lat="47.14215" lon="16.09822">
        <ele>303.25372</ele>
        <time>2026-07-08T11:03:06.000Z</time>
      </trkpt>
      <trkpt lat="47.14217" lon="16.09822">
        <ele>303.235932</ele>
        <time>2026-07-08T11:03:07.000Z</time>
      </trkpt>
      <trkpt lat="47.14218" lon="16.09823">
        <ele>303.221717</ele>
        <time>2026-07-08T11:03:08.000Z</time>
      </trkpt>
      <trkpt lat="47.14219" lon="16.09823">
        <ele>303.202523</ele>
        <time>2026-07-08T11:03:09.000Z</time>
      </trkpt>
      <trkpt lat="47.14221" lon="16.09824">
        <ele>303.179916</ele>
        <time>2026-07-08T11:03:10.000Z</time>
      </trkpt>
      <trkpt lat="47.14223" lon="16.09826">
        <ele>303.154774</ele>
        <time>2026-07-08T11:03:11.000Z</time>
      </trkpt>
      <trkpt lat="47.14225" lon="16.09827">
        <ele>303.127775</ele>
        <time>2026-07-08T11:03:12.000Z</time>
      </trkpt>
      <trkpt lat="47.14227" lon="16.09828">
        <ele>303.0985</ele>
        <time>2026-07-08T11:03:13.000Z</time>
      </trkpt>
      <trkpt lat="47.14229" lon="16.0983">
        <ele>303.067765</ele>
        <time>2026-07-08T11:03:14.000Z</time>
      </trkpt>
      <trkpt lat="47.14232" lon="16.09831">
        <ele>303.032686</ele>
        <time>2026-07-08T11:03:15.000Z</time>
      </trkpt>
      <trkpt lat="47.14235" lon="16.09832">
        <ele>302.997608</ele>
        <time>2026-07-08T11:03:16.000Z</time>
      </trkpt>
      <trkpt lat="47.14238" lon="16.09834">
        <ele>302.998142</ele>
        <time>2026-07-08T11:03:17.000Z</time>
      </trkpt>
      <trkpt lat="47.14241" lon="16.09835">
        <ele>303.005337</ele>
        <time>2026-07-08T11:03:18.000Z</time>
      </trkpt>
      <trkpt lat="47.14244" lon="16.09837">
        <ele>303.012481</ele>
        <time>2026-07-08T11:03:19.000Z</time>
      </trkpt>
      <trkpt lat="47.14247" lon="16.09838">
        <ele>303.01949</ele>
        <time>2026-07-08T11:03:20.000Z</time>
      </trkpt>
      <trkpt lat="47.1425" lon="16.0984">
        <ele>303.027061</ele>
        <time>2026-07-08T11:03:21.000Z</time>
      </trkpt>
      <trkpt lat="47.14253" lon="16.09841">
        <ele>303.034112</ele>
        <time>2026-07-08T11:03:22.000Z</time>
      </trkpt>
      <trkpt lat="47.14256" lon="16.09842">
        <ele>303.041423</ele>
        <time>2026-07-08T11:03:23.000Z</time>
      </trkpt>
      <trkpt lat="47.14259" lon="16.09844">
        <ele>303.048474</ele>
        <time>2026-07-08T11:03:24.000Z</time>
      </trkpt>
      <trkpt lat="47.14262" lon="16.09845">
        <ele>303.056145</ele>
        <time>2026-07-08T11:03:25.000Z</time>
      </trkpt>
      <trkpt lat="47.14265" lon="16.09847">
        <ele>303.063984</ele>
        <time>2026-07-08T11:03:26.000Z</time>
      </trkpt>
      <trkpt lat="47.14268" lon="16.0985">
        <ele>303.071812</ele>
        <time>2026-07-08T11:03:27.000Z</time>
      </trkpt>
      <trkpt lat="47.14272" lon="16.09852">
        <ele>303.079776</ele>
        <time>2026-07-08T11:03:28.000Z</time>
      </trkpt>
      <trkpt lat="47.14275" lon="16.09854">
        <ele>303.087882</ele>
        <time>2026-07-08T11:03:29.000Z</time>
      </trkpt>
      <trkpt lat="47.14278" lon="16.09856">
        <ele>303.096257</ele>
        <time>2026-07-08T11:03:30.000Z</time>
      </trkpt>
      <trkpt lat="47.14281" lon="16.09858">
        <ele>303.103889</ele>
        <time>2026-07-08T11:03:31.000Z</time>
      </trkpt>
      <trkpt lat="47.14285" lon="16.0986">
        <ele>303.112035</ele>
        <time>2026-07-08T11:03:32.000Z</time>
      </trkpt>
      <trkpt lat="47.14288" lon="16.09862">
        <ele>303.119667</ele>
        <time>2026-07-08T11:03:33.000Z</time>
      </trkpt>
      <trkpt lat="47.14291" lon="16.09864">
        <ele>303.128133</ele>
        <time>2026-07-08T11:03:34.000Z</time>
      </trkpt>
      <trkpt lat="47.14295" lon="16.09866">
        <ele>303.136635</ele>
        <time>2026-07-08T11:03:35.000Z</time>
      </trkpt>
      <trkpt lat="47.14298" lon="16.09868">
        <ele>303.144742</ele>
        <time>2026-07-08T11:03:36.000Z</time>
      </trkpt>
      <trkpt lat="47.14301" lon="16.09871">
        <ele>303.153042</ele>
        <time>2026-07-08T11:03:37.000Z</time>
      </trkpt>
      <trkpt lat="47.14305" lon="16.09873">
        <ele>303.160766</ele>
        <time>2026-07-08T11:03:38.000Z</time>
      </trkpt>
      <trkpt lat="47.14308" lon="16.09874">
        <ele>303.168701</ele>
        <time>2026-07-08T11:03:39.000Z</time>
      </trkpt>
      <trkpt lat="47.14311" lon="16.09876">
        <ele>303.176127</ele>
        <time>2026-07-08T11:03:40.000Z</time>
      </trkpt>
      <trkpt lat="47.14314" lon="16.09879">
        <ele>303.183685</ele>
        <time>2026-07-08T11:03:41.000Z</time>
      </trkpt>
      <trkpt lat="47.14317" lon="16.0988">
        <ele>303.190781</ele>
        <time>2026-07-08T11:03:42.000Z</time>
      </trkpt>
      <trkpt lat="47.14319" lon="16.09883">
        <ele>303.197544</ele>
        <time>2026-07-08T11:03:43.000Z</time>
      </trkpt>
      <trkpt lat="47.14322" lon="16.09885">
        <ele>303.203763</ele>
        <time>2026-07-08T11:03:44.000Z</time>
      </trkpt>
      <trkpt lat="47.14324" lon="16.09886">
        <ele>303.209319</ele>
        <time>2026-07-08T11:03:45.000Z</time>
      </trkpt>
      <trkpt lat="47.14327" lon="16.09885">
        <ele>303.215029</ele>
        <time>2026-07-08T11:03:46.000Z</time>
      </trkpt>
      <trkpt lat="47.14329" lon="16.09882">
        <ele>303.221794</ele>
        <time>2026-07-08T11:03:47.000Z</time>
      </trkpt>
      <trkpt lat="47.1433" lon="16.09878">
        <ele>303.229175</ele>
        <time>2026-07-08T11:03:48.000Z</time>
      </trkpt>
      <trkpt lat="47.14332" lon="16.09874">
        <ele>303.236859</ele>
        <time>2026-07-08T11:03:49.000Z</time>
      </trkpt>
      <trkpt lat="47.14333" lon="16.09869">
        <ele>303.244727</ele>
        <time>2026-07-08T11:03:50.000Z</time>
      </trkpt>
      <trkpt lat="47.14335" lon="16.09864">
        <ele>303.252827</ele>
        <time>2026-07-08T11:03:51.000Z</time>
      </trkpt>
      <trkpt lat="47.14337" lon="16.09859">
        <ele>303.261098</ele>
        <time>2026-07-08T11:03:52.000Z</time>
      </trkpt>
      <trkpt lat="47.14339" lon="16.09855">
        <ele>303.268985</ele>
        <time>2026-07-08T11:03:53.000Z</time>
      </trkpt>
      <trkpt lat="47.14341" lon="16.09853">
        <ele>303.276251</ele>
        <time>2026-07-08T11:03:54.000Z</time>
      </trkpt>
      <trkpt lat="47.14345" lon="16.09851">
        <ele>303.284254</ele>
        <time>2026-07-08T11:03:55.000Z</time>
      </trkpt>
      <trkpt lat="47.14348" lon="16.09851">
        <ele>303.291284</ele>
        <time>2026-07-08T11:03:56.000Z</time>
      </trkpt>
      <trkpt lat="47.14351" lon="16.09851">
        <ele>303.298949</ele>
        <time>2026-07-08T11:03:57.000Z</time>
      </trkpt>
      <trkpt lat="47.14355" lon="16.09851">
        <ele>303.306853</ele>
        <time>2026-07-08T11:03:58.000Z</time>
      </trkpt>
      <trkpt lat="47.14358" lon="16.09851">
        <ele>303.314745</ele>
        <time>2026-07-08T11:03:59.000Z</time>
      </trkpt>
      <trkpt lat="47.14362" lon="16.09851">
        <ele>303.322635</ele>
        <time>2026-07-08T11:04:00.000Z</time>
      </trkpt>
      <trkpt lat="47.14365" lon="16.09851">
        <ele>303.330527</ele>
        <time>2026-07-08T11:04:01.000Z</time>
      </trkpt>
      <trkpt lat="47.14369" lon="16.09851">
        <ele>303.337973</ele>
        <time>2026-07-08T11:04:02.000Z</time>
      </trkpt>
      <trkpt lat="47.14372" lon="16.09851">
        <ele>303.345427</ele>
        <time>2026-07-08T11:04:03.000Z</time>
      </trkpt>
      <trkpt lat="47.14375" lon="16.09852">
        <ele>303.353116</ele>
        <time>2026-07-08T11:04:04.000Z</time>
      </trkpt>
      <trkpt lat="47.14379" lon="16.09852">
        <ele>303.360557</ele>
        <time>2026-07-08T11:04:05.000Z</time>
      </trkpt>
      <trkpt lat="47.14382" lon="16.0985">
        <ele>303.367862</ele>
        <time>2026-07-08T11:04:06.000Z</time>
      </trkpt>
      <trkpt lat="47.14384" lon="16.09847">
        <ele>303.375778</ele>
        <time>2026-07-08T11:04:07.000Z</time>
      </trkpt>
      <trkpt lat="47.14386" lon="16.09842">
        <ele>303.383783</ele>
        <time>2026-07-08T11:04:08.000Z</time>
      </trkpt>
      <trkpt lat="47.14387" lon="16.09837">
        <ele>303.391627</ele>
        <time>2026-07-08T11:04:09.000Z</time>
      </trkpt>
      <trkpt lat="47.14388" lon="16.09833">
        <ele>303.39698</ele>
        <time>2026-07-08T11:04:10.000Z</time>
      </trkpt>
      <trkpt lat="47.14388" lon="16.09828">
        <ele>303.391208</ele>
        <time>2026-07-08T11:04:11.000Z</time>
      </trkpt>
      <trkpt lat="47.14388" lon="16.09823">
        <ele>303.38566</ele>
        <time>2026-07-08T11:04:12.000Z</time>
      </trkpt>
      <trkpt lat="47.14389" lon="16.09819">
        <ele>303.380567</ele>
        <time>2026-07-08T11:04:13.000Z</time>
      </trkpt>
      <trkpt lat="47.14389" lon="16.09816">
        <ele>303.376508</ele>
        <time>2026-07-08T11:04:14.000Z</time>
      </trkpt>
      <trkpt lat="47.1439" lon="16.09813">
        <ele>303.372823</ele>
        <time>2026-07-08T11:04:15.000Z</time>
      </trkpt>
      <trkpt lat="47.14389" lon="16.0981">
        <ele>303.369283</ele>
        <time>2026-07-08T11:04:16.000Z</time>
      </trkpt>
      <trkpt lat="47.14388" lon="16.09809">
        <ele>303.366313</ele>
        <time>2026-07-08T11:04:17.000Z</time>
      </trkpt>
      <trkpt lat="47.14386" lon="16.09809">
        <ele>303.363616</ele>
        <time>2026-07-08T11:04:18.000Z</time>
      </trkpt>
      <trkpt lat="47.14385" lon="16.0981">
        <ele>303.360937</ele>
        <time>2026-07-08T11:04:19.000Z</time>
      </trkpt>
      <trkpt lat="47.14385" lon="16.09813">
        <ele>303.357616</ele>
        <time>2026-07-08T11:04:20.000Z</time>
      </trkpt>
      <trkpt lat="47.14386" lon="16.09816">
        <ele>303.353203</ele>
        <time>2026-07-08T11:04:21.000Z</time>
      </trkpt>
      <trkpt lat="47.14386" lon="16.0982">
        <ele>303.348139</ele>
        <time>2026-07-08T11:04:22.000Z</time>
      </trkpt>
      <trkpt lat="47.14386" lon="16.09825">
        <ele>303.342625</ele>
        <time>2026-07-08T11:04:23.000Z</time>
      </trkpt>
      <trkpt lat="47.14386" lon="16.09829">
        <ele>303.337245</ele>
        <time>2026-07-08T11:04:24.000Z</time>
      </trkpt>
      <trkpt lat="47.14386" lon="16.09834">
        <ele>303.331976</ele>
        <time>2026-07-08T11:04:25.000Z</time>
      </trkpt>
      <trkpt lat="47.14387" lon="16.09838">
        <ele>303.326642</ele>
        <time>2026-07-08T11:04:26.000Z</time>
      </trkpt>
      <trkpt lat="47.14388" lon="16.09842">
        <ele>303.321367</ele>
        <time>2026-07-08T11:04:27.000Z</time>
      </trkpt>
      <trkpt lat="47.14389" lon="16.09845">
        <ele>303.316309</ele>
        <time>2026-07-08T11:04:28.000Z</time>
      </trkpt>
      <trkpt lat="47.14392" lon="16.09848">
        <ele>303.310733</ele>
        <time>2026-07-08T11:04:29.000Z</time>
      </trkpt>
      <trkpt lat="47.14395" lon="16.0985">
        <ele>303.304975</ele>
        <time>2026-07-08T11:04:30.000Z</time>
      </trkpt>
      <trkpt lat="47.14398" lon="16.09851">
        <ele>303.29918</ele>
        <time>2026-07-08T11:04:31.000Z</time>
      </trkpt>
      <trkpt lat="47.14401" lon="16.09852">
        <ele>303.293048</ele>
        <time>2026-07-08T11:04:32.000Z</time>
      </trkpt>
      <trkpt lat="47.14405" lon="16.09852">
        <ele>303.286746</ele>
        <time>2026-07-08T11:04:33.000Z</time>
      </trkpt>
      <trkpt lat="47.14408" lon="16.09852">
        <ele>303.28045</ele>
        <time>2026-07-08T11:04:34.000Z</time>
      </trkpt>
      <trkpt lat="47.14412" lon="16.09852">
        <ele>303.274157</ele>
        <time>2026-07-08T11:04:35.000Z</time>
      </trkpt>
      <trkpt lat="47.14415" lon="16.09853">
        <ele>303.268193</ele>
        <time>2026-07-08T11:04:36.000Z</time>
      </trkpt>
      <trkpt lat="47.14418" lon="16.09853">
        <ele>303.262241</ele>
        <time>2026-07-08T11:04:37.000Z</time>
      </trkpt>
      <trkpt lat="47.14422" lon="16.09853">
        <ele>303.256468</ele>
        <time>2026-07-08T11:04:38.000Z</time>
      </trkpt>
      <trkpt lat="47.14425" lon="16.09853">
        <ele>303.251074</ele>
        <time>2026-07-08T11:04:39.000Z</time>
      </trkpt>
      <trkpt lat="47.14427" lon="16.09853">
        <ele>303.246004</ele>
        <time>2026-07-08T11:04:40.000Z</time>
      </trkpt>
      <trkpt lat="47.1443" lon="16.09854">
        <ele>303.241112</ele>
        <time>2026-07-08T11:04:41.000Z</time>
      </trkpt>
      <trkpt lat="47.14433" lon="16.09854">
        <ele>303.236257</ele>
        <time>2026-07-08T11:04:42.000Z</time>
      </trkpt>
      <trkpt lat="47.14435" lon="16.09854">
        <ele>303.232115</ele>
        <time>2026-07-08T11:04:43.000Z</time>
      </trkpt>
      <trkpt lat="47.14438" lon="16.09854">
        <ele>303.227614</ele>
        <time>2026-07-08T11:04:44.000Z</time>
      </trkpt>
      <trkpt lat="47.1444" lon="16.09854">
        <ele>303.22366</ele>
        <time>2026-07-08T11:04:45.000Z</time>
      </trkpt>
      <trkpt lat="47.14442" lon="16.09854">
        <ele>303.219877</ele>
        <time>2026-07-08T11:04:46.000Z</time>
      </trkpt>
      <trkpt lat="47.14444" lon="16.09855">
        <ele>303.215341</ele>
        <time>2026-07-08T11:04:47.000Z</time>
      </trkpt>
      <trkpt lat="47.14448" lon="16.09855">
        <ele>303.209584</ele>
        <time>2026-07-08T11:04:48.000Z</time>
      </trkpt>
      <trkpt lat="47.14451" lon="16.09855">
        <ele>303.20382</ele>
        <time>2026-07-08T11:04:49.000Z</time>
      </trkpt>
      <trkpt lat="47.14454" lon="16.09855">
        <ele>303.197338</ele>
        <time>2026-07-08T11:04:50.000Z</time>
      </trkpt>
      <trkpt lat="47.14458" lon="16.09856">
        <ele>303.190682</ele>
        <time>2026-07-08T11:04:51.000Z</time>
      </trkpt>
      <trkpt lat="47.14462" lon="16.09856">
        <ele>303.184361</ele>
        <time>2026-07-08T11:04:52.000Z</time>
      </trkpt>
      <trkpt lat="47.14465" lon="16.09857">
        <ele>303.177994</ele>
        <time>2026-07-08T11:04:53.000Z</time>
      </trkpt>
      <trkpt lat="47.14469" lon="16.09857">
        <ele>303.171683</ele>
        <time>2026-07-08T11:04:54.000Z</time>
      </trkpt>
      <trkpt lat="47.14472" lon="16.09857">
        <ele>303.16575</ele>
        <time>2026-07-08T11:04:55.000Z</time>
      </trkpt>
      <trkpt lat="47.14475" lon="16.09858">
        <ele>303.159454</ele>
        <time>2026-07-08T11:04:56.000Z</time>
      </trkpt>
      <trkpt lat="47.14479" lon="16.09858">
        <ele>303.153696</ele>
        <time>2026-07-08T11:04:57.000Z</time>
      </trkpt>
      <trkpt lat="47.14482" lon="16.09858">
        <ele>303.148303</ele>
        <time>2026-07-08T11:04:58.000Z</time>
      </trkpt>
      <trkpt lat="47.14484" lon="16.09858">
        <ele>303.143443</ele>
        <time>2026-07-08T11:04:59.000Z</time>
      </trkpt>
      <trkpt lat="47.14487" lon="16.09857">
        <ele>303.139302</ele>
        <time>2026-07-08T11:05:00.000Z</time>
      </trkpt>
      <trkpt lat="47.14488" lon="16.09858">
        <ele>303.136236</ele>
        <time>2026-07-08T11:05:01.000Z</time>
      </trkpt>
      <trkpt lat="47.14489" lon="16.09858">
        <ele>303.134337</ele>
        <time>2026-07-08T11:05:02.000Z</time>
      </trkpt>
      <trkpt lat="47.1449" lon="16.09859">
        <ele>303.13325</ele>
        <time>2026-07-08T11:05:03.000Z</time>
      </trkpt>
      <trkpt lat="47.1449" lon="16.0986">
        <ele>303.13153</ele>
        <time>2026-07-08T11:05:04.000Z</time>
      </trkpt>
      <trkpt lat="47.14491" lon="16.09861">
        <ele>303.129851</ele>
        <time>2026-07-08T11:05:05.000Z</time>
      </trkpt>
      <trkpt lat="47.14491" lon="16.09863">
        <ele>303.127704</ele>
        <time>2026-07-08T11:05:06.000Z</time>
      </trkpt>
      <trkpt lat="47.14491" lon="16.09865">
        <ele>303.124752</ele>
        <time>2026-07-08T11:05:07.000Z</time>
      </trkpt>
      <trkpt lat="47.14492" lon="16.09867">
        <ele>303.121849</ele>
        <time>2026-07-08T11:05:08.000Z</time>
      </trkpt>
      <trkpt lat="47.14492" lon="16.0987">
        <ele>303.118543</ele>
        <time>2026-07-08T11:05:09.000Z</time>
      </trkpt>
      <trkpt lat="47.14492" lon="16.09873">
        <ele>303.115487</ele>
        <time>2026-07-08T11:05:10.000Z</time>
      </trkpt>
      <trkpt lat="47.14491" lon="16.09876">
        <ele>303.111353</ele>
        <time>2026-07-08T11:05:11.000Z</time>
      </trkpt>
      <trkpt lat="47.14491" lon="16.09878">
        <ele>303.108284</ele>
        <time>2026-07-08T11:05:12.000Z</time>
      </trkpt>
      <trkpt lat="47.14491" lon="16.0988">
        <ele>303.106606</ele>
        <time>2026-07-08T11:05:13.000Z</time>
      </trkpt>
      <trkpt lat="47.1449" lon="16.0988">
        <ele>303.105277</ele>
        <time>2026-07-08T11:05:14.000Z</time>
      </trkpt>
      <trkpt lat="47.14489" lon="16.09887">
        <ele>303.096652</ele>
        <time>2026-07-08T11:05:42.000Z</time>
      </trkpt>
      <trkpt lat="47.14489" lon="16.09888">
        <ele>303.096138</ele>
        <time>2026-07-08T11:05:43.000Z</time>
      </trkpt>
      <trkpt lat="47.14489" lon="16.09888">
        <ele>303.09573</ele>
        <time>2026-07-08T11:05:44.000Z</time>
      </trkpt>
      <trkpt lat="47.14489" lon="16.09888">
        <ele>303.09573</ele>
        <time>2026-07-08T11:12:42.000Z</time>
      </trkpt>
      <trkpt lat="47.14489" lon="16.09888">
        <ele>303.09573</ele>
        <time>2026-07-08T11:12:49.000Z</time>
      </trkpt>
      <trkpt lat="47.14489" lon="16.09888">
        <ele>303.09573</ele>
        <time>2026-07-08T11:12:52.000Z</time>
      </trkpt>
      <trkpt lat="47.14489" lon="16.09888">
        <ele>303.09573</ele>
        <time>2026-07-08T11:12:57.000Z</time>
      </trkpt>
      <trkpt lat="47.14489" lon="16.09888">
        <ele>303.09573</ele>
        <time>2026-07-08T11:13:02.000Z</time>
      </trkpt>
      <trkpt lat="47.14489" lon="16.09888">
        <ele>303.09573</ele>
        <time>2026-07-08T11:20:21.000Z</time>
      </trkpt>
      <trkpt lat="47.14489" lon="16.09888">
        <ele>303.09573</ele>
        <time>2026-07-08T11:20:22.000Z</time>
      </trkpt>
      <trkpt lat="47.14489" lon="16.09888">
        <ele>303.09573</ele>
        <time>2026-07-08T11:20:25.000Z</time>
      </trkpt>
      <trkpt lat="47.14489" lon="16.09888">
        <ele>303.09573</ele>
        <time>2026-07-08T11:20:29.000Z</time>
      </trkpt>
      <trkpt lat="47.14489" lon="16.09888">
        <ele>303.09573</ele>
        <time>2026-07-08T12:04:32.000Z</time>
      </trkpt>
      <trkpt lat="47.14489" lon="16.09888">
        <ele>303.09573</ele>
        <time>2026-07-08T12:04:34.000Z</time>
      </trkpt>
      <trkpt lat="47.14489" lon="16.09888">
        <ele>303.09573</ele>
        <time>2026-07-08T12:04:36.000Z</time>
      </trkpt>
      <trkpt lat="47.14489" lon="16.09888">
        <ele>303.09573</ele>
        <time>2026-07-08T12:04:37.000Z</time>
      </trkpt>
      <trkpt lat="47.14493" lon="16.09877">
        <ele>303.080155</ele>
        <time>2026-07-08T12:04:38.000Z</time>
      </trkpt>
      <trkpt lat="47.14496" lon="16.09887">
        <ele>303.057287</ele>
        <time>2026-07-08T12:04:39.000Z</time>
      </trkpt>
      <trkpt lat="47.14495" lon="16.09886">
        <ele>303.052932</ele>
        <time>2026-07-08T12:04:41.000Z</time>
      </trkpt>
      <trkpt lat="47.14495" lon="16.09886">
        <ele>303.049828</ele>
        <time>2026-07-08T12:04:42.000Z</time>
      </trkpt>
      <trkpt lat="47.14486" lon="16.09887">
        <ele>303.017163</ele>
        <time>2026-07-08T12:06:51.000Z</time>
      </trkpt>
      <trkpt lat="47.14485" lon="16.09887">
        <ele>303.013259</ele>
        <time>2026-07-08T12:06:52.000Z</time>
      </trkpt>
      <trkpt lat="47.14484" lon="16.09887">
        <ele>303.008639</ele>
        <time>2026-07-08T12:06:53.000Z</time>
      </trkpt>
      <trkpt lat="47.14483" lon="16.09886">
        <ele>303.004735</ele>
        <time>2026-07-08T12:06:54.000Z</time>
      </trkpt>
      <trkpt lat="47.14482" lon="16.09886">
        <ele>303.001409</ele>
        <time>2026-07-08T12:06:55.000Z</time>
      </trkpt>
      <trkpt lat="47.14481" lon="16.09885">
        <ele>302.997848</ele>
        <time>2026-07-08T12:06:56.000Z</time>
      </trkpt>
      <trkpt lat="47.14481" lon="16.09884">
        <ele>302.995469</ele>
        <time>2026-07-08T12:06:57.000Z</time>
      </trkpt>
      <trkpt lat="47.14481" lon="16.09884">
        <ele>302.9946</ele>
        <time>2026-07-08T12:06:58.000Z</time>
      </trkpt>
      <trkpt lat="47.14481" lon="16.09884">
        <ele>302.9946</ele>
        <time>2026-07-08T12:06:59.000Z</time>
      </trkpt>
      <trkpt lat="47.14479" lon="16.09882">
        <ele>302.985937</ele>
        <time>2026-07-08T12:07:34.000Z</time>
      </trkpt>
      <trkpt lat="47.14479" lon="16.09883">
        <ele>302.983473</ele>
        <time>2026-07-08T12:07:35.000Z</time>
      </trkpt>
      <trkpt lat="47.14479" lon="16.09883">
        <ele>302.982117</ele>
        <time>2026-07-08T12:07:36.000Z</time>
      </trkpt>
      <trkpt lat="47.14479" lon="16.09884">
        <ele>302.981337</ele>
        <time>2026-07-08T12:07:37.000Z</time>
      </trkpt>
      <trkpt lat="47.14481" lon="16.09883">
        <ele>302.975591</ele>
        <time>2026-07-08T12:07:47.000Z</time>
      </trkpt>
      <trkpt lat="47.14481" lon="16.09882">
        <ele>302.972747</ele>
        <time>2026-07-08T12:07:48.000Z</time>
      </trkpt>
      <trkpt lat="47.14481" lon="16.0988">
        <ele>302.968401</ele>
        <time>2026-07-08T12:07:50.000Z</time>
      </trkpt>
      <trkpt lat="47.14481" lon="16.0988">
        <ele>302.96736</ele>
        <time>2026-07-08T12:07:51.000Z</time>
      </trkpt>
      <trkpt lat="47.1448" lon="16.09876">
        <ele>302.957483</ele>
        <time>2026-07-08T12:08:01.000Z</time>
      </trkpt>
      <trkpt lat="47.14479" lon="16.09873">
        <ele>302.947413</ele>
        <time>2026-07-08T12:08:02.000Z</time>
      </trkpt>
      <trkpt lat="47.14479" lon="16.0987">
        <ele>302.941689</ele>
        <time>2026-07-08T12:08:03.000Z</time>
      </trkpt>
      <trkpt lat="47.14479" lon="16.09868">
        <ele>302.935596</ele>
        <time>2026-07-08T12:08:04.000Z</time>
      </trkpt>
      <trkpt lat="47.14478" lon="16.09866">
        <ele>302.929419</ele>
        <time>2026-07-08T12:08:05.000Z</time>
      </trkpt>
      <trkpt lat="47.14478" lon="16.09864">
        <ele>302.924344</ele>
        <time>2026-07-08T12:08:06.000Z</time>
      </trkpt>
      <trkpt lat="47.14478" lon="16.09863">
        <ele>302.920902</ele>
        <time>2026-07-08T12:08:07.000Z</time>
      </trkpt>
      <trkpt lat="47.14477" lon="16.09862">
        <ele>302.916276</ele>
        <time>2026-07-08T12:08:08.000Z</time>
      </trkpt>
      <trkpt lat="47.14475" lon="16.0986">
        <ele>302.91025</ele>
        <time>2026-07-08T12:08:09.000Z</time>
      </trkpt>
      <trkpt lat="47.14474" lon="16.09858">
        <ele>302.903146</ele>
        <time>2026-07-08T12:08:10.000Z</time>
      </trkpt>
      <trkpt lat="47.14472" lon="16.09857">
        <ele>302.894883</ele>
        <time>2026-07-08T12:08:11.000Z</time>
      </trkpt>
      <trkpt lat="47.1447" lon="16.09856">
        <ele>302.886323</ele>
        <time>2026-07-08T12:08:12.000Z</time>
      </trkpt>
      <trkpt lat="47.14468" lon="16.09856">
        <ele>302.877808</ele>
        <time>2026-07-08T12:08:13.000Z</time>
      </trkpt>
      <trkpt lat="47.14466" lon="16.09855">
        <ele>302.868948</ele>
        <time>2026-07-08T12:08:14.000Z</time>
      </trkpt>
      <trkpt lat="47.14463" lon="16.09855">
        <ele>302.859161</ele>
        <time>2026-07-08T12:08:15.000Z</time>
      </trkpt>
      <trkpt lat="47.14461" lon="16.09854">
        <ele>302.849509</ele>
        <time>2026-07-08T12:08:16.000Z</time>
      </trkpt>
      <trkpt lat="47.14458" lon="16.09854">
        <ele>302.839151</ele>
        <time>2026-07-08T12:08:17.000Z</time>
      </trkpt>
      <trkpt lat="47.14455" lon="16.09853">
        <ele>302.828362</ele>
        <time>2026-07-08T12:08:18.000Z</time>
      </trkpt>
      <trkpt lat="47.14452" lon="16.09853">
        <ele>302.8176</ele>
        <time>2026-07-08T12:08:19.000Z</time>
      </trkpt>
      <trkpt lat="47.14449" lon="16.09852">
        <ele>302.80605</ele>
        <time>2026-07-08T12:08:20.000Z</time>
      </trkpt>
      <trkpt lat="47.14446" lon="16.09852">
        <ele>302.794469</ele>
        <time>2026-07-08T12:08:21.000Z</time>
      </trkpt>
      <trkpt lat="47.14443" lon="16.09851">
        <ele>302.782183</ele>
        <time>2026-07-08T12:08:22.000Z</time>
      </trkpt>
      <trkpt lat="47.1444" lon="16.09852">
        <ele>302.769549</ele>
        <time>2026-07-08T12:08:23.000Z</time>
      </trkpt>
      <trkpt lat="47.14436" lon="16.09852">
        <ele>302.756543</ele>
        <time>2026-07-08T12:08:24.000Z</time>
      </trkpt>
      <trkpt lat="47.14433" lon="16.09851">
        <ele>302.743908</ele>
        <time>2026-07-08T12:08:25.000Z</time>
      </trkpt>
      <trkpt lat="47.1443" lon="16.09851">
        <ele>302.73052</ele>
        <time>2026-07-08T12:08:26.000Z</time>
      </trkpt>
      <trkpt lat="47.14426" lon="16.09852">
        <ele>302.71709</ele>
        <time>2026-07-08T12:08:27.000Z</time>
      </trkpt>
      <trkpt lat="47.14423" lon="16.09852">
        <ele>302.703639</ele>
        <time>2026-07-08T12:08:28.000Z</time>
      </trkpt>
      <trkpt lat="47.14419" lon="16.09853">
        <ele>302.690948</ele>
        <time>2026-07-08T12:08:29.000Z</time>
      </trkpt>
      <trkpt lat="47.14416" lon="16.09853">
        <ele>302.678707</ele>
        <time>2026-07-08T12:08:30.000Z</time>
      </trkpt>
      <trkpt lat="47.14413" lon="16.09853">
        <ele>302.667219</ele>
        <time>2026-07-08T12:08:31.000Z</time>
      </trkpt>
      <trkpt lat="47.1441" lon="16.09853">
        <ele>302.655743</ele>
        <time>2026-07-08T12:08:32.000Z</time>
      </trkpt>
      <trkpt lat="47.14407" lon="16.09852">
        <ele>302.644255</ele>
        <time>2026-07-08T12:08:33.000Z</time>
      </trkpt>
      <trkpt lat="47.14404" lon="16.09852">
        <ele>302.632673</ele>
        <time>2026-07-08T12:08:34.000Z</time>
      </trkpt>
      <trkpt lat="47.14401" lon="16.09851">
        <ele>302.62021</ele>
        <time>2026-07-08T12:08:35.000Z</time>
      </trkpt>
      <trkpt lat="47.14398" lon="16.0985">
        <ele>302.608661</ele>
        <time>2026-07-08T12:08:36.000Z</time>
      </trkpt>
      <trkpt lat="47.14395" lon="16.0985">
        <ele>302.596731</ele>
        <time>2026-07-08T12:08:37.000Z</time>
      </trkpt>
      <trkpt lat="47.14391" lon="16.0985">
        <ele>302.583701</ele>
        <time>2026-07-08T12:08:38.000Z</time>
      </trkpt>
      <trkpt lat="47.14388" lon="16.09849">
        <ele>302.571067</ele>
        <time>2026-07-08T12:08:39.000Z</time>
      </trkpt>
      <trkpt lat="47.14385" lon="16.09849">
        <ele>302.55844</ele>
        <time>2026-07-08T12:08:40.000Z</time>
      </trkpt>
      <trkpt lat="47.14381" lon="16.09849">
        <ele>302.545424</ele>
        <time>2026-07-08T12:08:41.000Z</time>
      </trkpt>
      <trkpt lat="47.14378" lon="16.09849">
        <ele>302.5328</ele>
        <time>2026-07-08T12:08:42.000Z</time>
      </trkpt>
      <trkpt lat="47.14375" lon="16.09849">
        <ele>302.520534</ele>
        <time>2026-07-08T12:08:43.000Z</time>
      </trkpt>
      <trkpt lat="47.14372" lon="16.09848">
        <ele>302.507843</ele>
        <time>2026-07-08T12:08:44.000Z</time>
      </trkpt>
      <trkpt lat="47.14368" lon="16.09848">
        <ele>302.495558</ele>
        <time>2026-07-08T12:08:45.000Z</time>
      </trkpt>
      <trkpt lat="47.14365" lon="16.09848">
        <ele>302.483697</ele>
        <time>2026-07-08T12:08:46.000Z</time>
      </trkpt>
      <trkpt lat="47.14362" lon="16.09848">
        <ele>302.471444</ele>
        <time>2026-07-08T12:08:47.000Z</time>
      </trkpt>
      <trkpt lat="47.14359" lon="16.09848">
        <ele>302.458821</ele>
        <time>2026-07-08T12:08:48.000Z</time>
      </trkpt>
      <trkpt lat="47.14355" lon="16.09848">
        <ele>302.445814</ele>
        <time>2026-07-08T12:08:49.000Z</time>
      </trkpt>
      <trkpt lat="47.14352" lon="16.09848">
        <ele>302.433191</ele>
        <time>2026-07-08T12:08:50.000Z</time>
      </trkpt>
      <trkpt lat="47.14349" lon="16.09848">
        <ele>302.420567</ele>
        <time>2026-07-08T12:08:51.000Z</time>
      </trkpt>
      <trkpt lat="47.14346" lon="16.09848">
        <ele>302.408191</ele>
        <time>2026-07-08T12:08:52.000Z</time>
      </trkpt>
      <trkpt lat="47.14343" lon="16.0985">
        <ele>302.39607</ele>
        <time>2026-07-08T12:08:53.000Z</time>
      </trkpt>
      <trkpt lat="47.1434" lon="16.09852">
        <ele>302.384472</ele>
        <time>2026-07-08T12:08:54.000Z</time>
      </trkpt>
      <trkpt lat="47.14337" lon="16.09856">
        <ele>302.375567</ele>
        <time>2026-07-08T12:08:55.000Z</time>
      </trkpt>
      <trkpt lat="47.14336" lon="16.09859">
        <ele>302.367561</ele>
        <time>2026-07-08T12:08:56.000Z</time>
      </trkpt>
      <trkpt lat="47.14335" lon="16.09863">
        <ele>302.359926</ele>
        <time>2026-07-08T12:08:57.000Z</time>
      </trkpt>
      <trkpt lat="47.14334" lon="16.09867">
        <ele>302.352792</ele>
        <time>2026-07-08T12:08:58.000Z</time>
      </trkpt>
      <trkpt lat="47.14333" lon="16.09871">
        <ele>302.345911</ele>
        <time>2026-07-08T12:08:59.000Z</time>
      </trkpt>
      <trkpt lat="47.14332" lon="16.09874">
        <ele>302.338943</ele>
        <time>2026-07-08T12:09:00.000Z</time>
      </trkpt>
      <trkpt lat="47.1433" lon="16.09877">
        <ele>302.331775</ele>
        <time>2026-07-08T12:09:01.000Z</time>
      </trkpt>
      <trkpt lat="47.14328" lon="16.09879">
        <ele>302.324362</ele>
        <time>2026-07-08T12:09:02.000Z</time>
      </trkpt>
      <trkpt lat="47.14325" lon="16.0988">
        <ele>302.316408</ele>
        <time>2026-07-08T12:09:03.000Z</time>
      </trkpt>
      <trkpt lat="47.14322" lon="16.09879">
        <ele>302.308343</ele>
        <time>2026-07-08T12:09:04.000Z</time>
      </trkpt>
      <trkpt lat="47.14318" lon="16.09877">
        <ele>302.299495</ele>
        <time>2026-07-08T12:09:05.000Z</time>
      </trkpt>
      <trkpt lat="47.14315" lon="16.09876">
        <ele>302.290715</ele>
        <time>2026-07-08T12:09:06.000Z</time>
      </trkpt>
      <trkpt lat="47.14312" lon="16.09874">
        <ele>302.282038</ele>
        <time>2026-07-08T12:09:07.000Z</time>
      </trkpt>
      <trkpt lat="47.14309" lon="16.09871">
        <ele>302.272732</ele>
        <time>2026-07-08T12:09:08.000Z</time>
      </trkpt>
      <trkpt lat="47.14306" lon="16.09869">
        <ele>302.2635</ele>
        <time>2026-07-08T12:09:09.000Z</time>
      </trkpt>
      <trkpt lat="47.14303" lon="16.09867">
        <ele>302.254582</ele>
        <time>2026-07-08T12:09:10.000Z</time>
      </trkpt>
      <trkpt lat="47.14299" lon="16.09865">
        <ele>302.244936</ele>
        <time>2026-07-08T12:09:11.000Z</time>
      </trkpt>
      <trkpt lat="47.14296" lon="16.09863">
        <ele>302.236018</ele>
        <time>2026-07-08T12:09:12.000Z</time>
      </trkpt>
      <trkpt lat="47.14293" lon="16.09861">
        <ele>302.226232</ele>
        <time>2026-07-08T12:09:13.000Z</time>
      </trkpt>
      <trkpt lat="47.1429" lon="16.09859">
        <ele>302.217085</ele>
        <time>2026-07-08T12:09:14.000Z</time>
      </trkpt>
      <trkpt lat="47.14286" lon="16.09856">
        <ele>302.207149</ele>
        <time>2026-07-08T12:09:15.000Z</time>
      </trkpt>
      <trkpt lat="47.14283" lon="16.09854">
        <ele>302.197677</ele>
        <time>2026-07-08T12:09:16.000Z</time>
      </trkpt>
      <trkpt lat="47.1428" lon="16.09852">
        <ele>302.18765</ele>
        <time>2026-07-08T12:09:17.000Z</time>
      </trkpt>
      <trkpt lat="47.14276" lon="16.0985">
        <ele>302.177622</ele>
        <time>2026-07-08T12:09:18.000Z</time>
      </trkpt>
      <trkpt lat="47.14273" lon="16.09848">
        <ele>302.167664</ele>
        <time>2026-07-08T12:09:19.000Z</time>
      </trkpt>
      <trkpt lat="47.14269" lon="16.09846">
        <ele>302.157772</ele>
        <time>2026-07-08T12:09:20.000Z</time>
      </trkpt>
      <trkpt lat="47.14266" lon="16.09844">
        <ele>302.148227</ele>
        <time>2026-07-08T12:09:21.000Z</time>
      </trkpt>
      <trkpt lat="47.14262" lon="16.09842">
        <ele>302.138335</ele>
        <time>2026-07-08T12:09:22.000Z</time>
      </trkpt>
      <trkpt lat="47.14259" lon="16.0984">
        <ele>302.128816</ele>
        <time>2026-07-08T12:09:23.000Z</time>
      </trkpt>
      <trkpt lat="47.14255" lon="16.09838">
        <ele>302.118987</ele>
        <time>2026-07-08T12:09:24.000Z</time>
      </trkpt>
      <trkpt lat="47.14252" lon="16.09836">
        <ele>302.109715</ele>
        <time>2026-07-08T12:09:25.000Z</time>
      </trkpt>
      <trkpt lat="47.14249" lon="16.09835">
        <ele>302.100111</ele>
        <time>2026-07-08T12:09:26.000Z</time>
      </trkpt>
      <trkpt lat="47.14245" lon="16.09833">
        <ele>302.0909</ele>
        <time>2026-07-08T12:09:27.000Z</time>
      </trkpt>
      <trkpt lat="47.14242" lon="16.09831">
        <ele>302.081132</ele>
        <time>2026-07-08T12:09:28.000Z</time>
      </trkpt>
      <trkpt lat="47.14238" lon="16.09829">
        <ele>302.071422</ele>
        <time>2026-07-08T12:09:29.000Z</time>
      </trkpt>
      <trkpt lat="47.14235" lon="16.09828">
        <ele>302.061767</ele>
        <time>2026-07-08T12:09:30.000Z</time>
      </trkpt>
      <trkpt lat="47.14231" lon="16.09826">
        <ele>302.051555</ele>
        <time>2026-07-08T12:09:31.000Z</time>
      </trkpt>
      <trkpt lat="47.14228" lon="16.09824">
        <ele>302.041845</ele>
        <time>2026-07-08T12:09:32.000Z</time>
      </trkpt>
      <trkpt lat="47.14224" lon="16.09823">
        <ele>302.032189</ele>
        <time>2026-07-08T12:09:33.000Z</time>
      </trkpt>
      <trkpt lat="47.1422" lon="16.09821">
        <ele>302.022079</ele>
        <time>2026-07-08T12:09:34.000Z</time>
      </trkpt>
      <trkpt lat="47.14217" lon="16.0982">
        <ele>302.012369</ele>
        <time>2026-07-08T12:09:35.000Z</time>
      </trkpt>
      <trkpt lat="47.14213" lon="16.09818">
        <ele>302.002601</ele>
        <time>2026-07-08T12:09:36.000Z</time>
      </trkpt>
      <trkpt lat="47.1421" lon="16.09816">
        <ele>301.992525</ele>
        <time>2026-07-08T12:09:37.000Z</time>
      </trkpt>
      <trkpt lat="47.14206" lon="16.09814">
        <ele>301.982365</ele>
        <time>2026-07-08T12:09:38.000Z</time>
      </trkpt>
      <trkpt lat="47.14202" lon="16.09813">
        <ele>301.972254</ele>
        <time>2026-07-08T12:09:39.000Z</time>
      </trkpt>
      <trkpt lat="47.14199" lon="16.09811">
        <ele>301.962178</ele>
        <time>2026-07-08T12:09:40.000Z</time>
      </trkpt>
      <trkpt lat="47.14195" lon="16.09809">
        <ele>301.951731</ele>
        <time>2026-07-08T12:09:41.000Z</time>
      </trkpt>
      <trkpt lat="47.14191" lon="16.09806">
        <ele>301.941004</ele>
        <time>2026-07-08T12:09:42.000Z</time>
      </trkpt>
      <trkpt lat="47.14188" lon="16.09804">
        <ele>301.930357</ele>
        <time>2026-07-08T12:09:43.000Z</time>
      </trkpt>
      <trkpt lat="47.14184" lon="16.09801">
        <ele>301.918762</ele>
        <time>2026-07-08T12:09:44.000Z</time>
      </trkpt>
      <trkpt lat="47.1418" lon="16.09797">
        <ele>301.935978</ele>
        <time>2026-07-08T12:09:45.000Z</time>
      </trkpt>
      <trkpt lat="47.14177" lon="16.09794">
        <ele>301.987384</ele>
        <time>2026-07-08T12:09:46.000Z</time>
      </trkpt>
      <trkpt lat="47.14173" lon="16.0979">
        <ele>302.038313</ele>
        <time>2026-07-08T12:09:47.000Z</time>
      </trkpt>
      <trkpt lat="47.1417" lon="16.09786">
        <ele>302.087802</ele>
        <time>2026-07-08T12:09:48.000Z</time>
      </trkpt>
      <trkpt lat="47.14167" lon="16.09782">
        <ele>302.136096</ele>
        <time>2026-07-08T12:09:49.000Z</time>
      </trkpt>
      <trkpt lat="47.14164" lon="16.09778">
        <ele>302.183317</ele>
        <time>2026-07-08T12:09:50.000Z</time>
      </trkpt>
      <trkpt lat="47.14161" lon="16.09774">
        <ele>302.231382</ele>
        <time>2026-07-08T12:09:51.000Z</time>
      </trkpt>
      <trkpt lat="47.14159" lon="16.0977">
        <ele>302.276258</ele>
        <time>2026-07-08T12:09:52.000Z</time>
      </trkpt>
      <trkpt lat="47.14156" lon="16.09766">
        <ele>302.323676</ele>
        <time>2026-07-08T12:09:53.000Z</time>
      </trkpt>
      <trkpt lat="47.14153" lon="16.09762">
        <ele>302.369116</ele>
        <time>2026-07-08T12:09:54.000Z</time>
      </trkpt>
      <trkpt lat="47.1415" lon="16.09758">
        <ele>302.415672</ele>
        <time>2026-07-08T12:09:55.000Z</time>
      </trkpt>
      <trkpt lat="47.14147" lon="16.09754">
        <ele>302.46309</ele>
        <time>2026-07-08T12:09:56.000Z</time>
      </trkpt>
      <trkpt lat="47.14144" lon="16.0975">
        <ele>302.512489</ele>
        <time>2026-07-08T12:09:57.000Z</time>
      </trkpt>
      <trkpt lat="47.14141" lon="16.09746">
        <ele>302.562213</ele>
        <time>2026-07-08T12:09:58.000Z</time>
      </trkpt>
      <trkpt lat="47.14138" lon="16.09742">
        <ele>302.6123</ele>
        <time>2026-07-08T12:09:59.000Z</time>
      </trkpt>
      <trkpt lat="47.14135" lon="16.09738">
        <ele>302.664669</ele>
        <time>2026-07-08T12:10:00.000Z</time>
      </trkpt>
      <trkpt lat="47.14131" lon="16.09734">
        <ele>302.717134</ele>
        <time>2026-07-08T12:10:01.000Z</time>
      </trkpt>
      <trkpt lat="47.14127" lon="16.09731">
        <ele>302.770681</ele>
        <time>2026-07-08T12:10:02.000Z</time>
      </trkpt>
      <trkpt lat="47.14123" lon="16.09729">
        <ele>302.82351</ele>
        <time>2026-07-08T12:10:03.000Z</time>
      </trkpt>
      <trkpt lat="47.14119" lon="16.09726">
        <ele>302.874943</ele>
        <time>2026-07-08T12:10:04.000Z</time>
      </trkpt>
      <trkpt lat="47.14115" lon="16.09722">
        <ele>302.926133</ele>
        <time>2026-07-08T12:10:05.000Z</time>
      </trkpt>
      <trkpt lat="47.14112" lon="16.09718">
        <ele>302.975318</ele>
        <time>2026-07-08T12:10:06.000Z</time>
      </trkpt>
      <trkpt lat="47.1411" lon="16.09713">
        <ele>303.024954</ele>
        <time>2026-07-08T12:10:07.000Z</time>
      </trkpt>
      <trkpt lat="47.14109" lon="16.09708">
        <ele>303.072232</ele>
        <time>2026-07-08T12:10:08.000Z</time>
      </trkpt>
      <trkpt lat="47.14109" lon="16.09702">
        <ele>303.122521</ele>
        <time>2026-07-08T12:10:09.000Z</time>
      </trkpt>
      <trkpt lat="47.14109" lon="16.09695">
        <ele>303.173162</ele>
        <time>2026-07-08T12:10:10.000Z</time>
      </trkpt>
      <trkpt lat="47.1411" lon="16.09689">
        <ele>303.223154</ele>
        <time>2026-07-08T12:10:11.000Z</time>
      </trkpt>
      <trkpt lat="47.1411" lon="16.09683">
        <ele>303.273794</ele>
        <time>2026-07-08T12:10:12.000Z</time>
      </trkpt>
      <trkpt lat="47.14111" lon="16.09677">
        <ele>303.321215</ele>
        <time>2026-07-08T12:10:13.000Z</time>
      </trkpt>
      <trkpt lat="47.14112" lon="16.09671">
        <ele>303.369793</ele>
        <time>2026-07-08T12:10:14.000Z</time>
      </trkpt>
      <trkpt lat="47.14112" lon="16.09666">
        <ele>303.415178</ele>
        <time>2026-07-08T12:10:15.000Z</time>
      </trkpt>
      <trkpt lat="47.14113" lon="16.0966">
        <ele>303.460989</ele>
        <time>2026-07-08T12:10:16.000Z</time>
      </trkpt>
      <trkpt lat="47.14113" lon="16.09655">
        <ele>303.507605</ele>
        <time>2026-07-08T12:10:17.000Z</time>
      </trkpt>
      <trkpt lat="47.14114" lon="16.09649">
        <ele>303.552613</ele>
        <time>2026-07-08T12:10:18.000Z</time>
      </trkpt>
      <trkpt lat="47.14114" lon="16.09644">
        <ele>303.597794</ele>
        <time>2026-07-08T12:10:19.000Z</time>
      </trkpt>
      <trkpt lat="47.14115" lon="16.09638">
        <ele>303.640789</ele>
        <time>2026-07-08T12:10:20.000Z</time>
      </trkpt>
      <trkpt lat="47.14115" lon="16.09633">
        <ele>303.68231</ele>
        <time>2026-07-08T12:10:21.000Z</time>
      </trkpt>
      <trkpt lat="47.14116" lon="16.09628">
        <ele>303.724907</ele>
        <time>2026-07-08T12:10:22.000Z</time>
      </trkpt>
      <trkpt lat="47.14116" lon="16.09623">
        <ele>303.767504</ele>
        <time>2026-07-08T12:10:23.000Z</time>
      </trkpt>
      <trkpt lat="47.14117" lon="16.09618">
        <ele>303.809144</ele>
        <time>2026-07-08T12:10:24.000Z</time>
      </trkpt>
      <trkpt lat="47.14117" lon="16.09612">
        <ele>303.85309</ele>
        <time>2026-07-08T12:10:25.000Z</time>
      </trkpt>
      <trkpt lat="47.14117" lon="16.09607">
        <ele>303.896144</ele>
        <time>2026-07-08T12:10:26.000Z</time>
      </trkpt>
      <trkpt lat="47.14117" lon="16.09602">
        <ele>303.938322</ele>
        <time>2026-07-08T12:10:27.000Z</time>
      </trkpt>
      <trkpt lat="47.14117" lon="16.09597">
        <ele>303.978877</ele>
        <time>2026-07-08T12:10:28.000Z</time>
      </trkpt>
      <trkpt lat="47.14118" lon="16.09592">
        <ele>304.01959</ele>
        <time>2026-07-08T12:10:29.000Z</time>
      </trkpt>
      <trkpt lat="47.14118" lon="16.09587">
        <ele>304.064855</ele>
        <time>2026-07-08T12:10:30.000Z</time>
      </trkpt>
      <trkpt lat="47.14119" lon="16.09582">
        <ele>304.170199</ele>
        <time>2026-07-08T12:10:31.000Z</time>
      </trkpt>
      <trkpt lat="47.14119" lon="16.09577">
        <ele>304.274402</ele>
        <time>2026-07-08T12:10:32.000Z</time>
      </trkpt>
      <trkpt lat="47.1412" lon="16.09572">
        <ele>304.380727</ele>
        <time>2026-07-08T12:10:33.000Z</time>
      </trkpt>
      <trkpt lat="47.1412" lon="16.09568">
        <ele>304.481878</ele>
        <time>2026-07-08T12:10:34.000Z</time>
      </trkpt>
      <trkpt lat="47.14121" lon="16.09563">
        <ele>304.588716</ele>
        <time>2026-07-08T12:10:35.000Z</time>
      </trkpt>
      <trkpt lat="47.14122" lon="16.09558">
        <ele>304.698259</ele>
        <time>2026-07-08T12:10:36.000Z</time>
      </trkpt>
      <trkpt lat="47.14122" lon="16.09553">
        <ele>304.803602</ele>
        <time>2026-07-08T12:10:37.000Z</time>
      </trkpt>
      <trkpt lat="47.14123" lon="16.09548">
        <ele>304.90622</ele>
        <time>2026-07-08T12:10:38.000Z</time>
      </trkpt>
      <trkpt lat="47.14124" lon="16.09544">
        <ele>305.008933</ele>
        <time>2026-07-08T12:10:39.000Z</time>
      </trkpt>
      <trkpt lat="47.14125" lon="16.09539">
        <ele>305.117068</ele>
        <time>2026-07-08T12:10:40.000Z</time>
      </trkpt>
      <trkpt lat="47.14125" lon="16.09534">
        <ele>305.22729</ele>
        <time>2026-07-08T12:10:41.000Z</time>
      </trkpt>
      <trkpt lat="47.14126" lon="16.09529">
        <ele>305.334134</ele>
        <time>2026-07-08T12:10:42.000Z</time>
      </trkpt>
      <trkpt lat="47.14127" lon="16.09524">
        <ele>305.440183</ele>
        <time>2026-07-08T12:10:43.000Z</time>
      </trkpt>
      <trkpt lat="47.14128" lon="16.09519">
        <ele>305.552019</ele>
        <time>2026-07-08T12:10:44.000Z</time>
      </trkpt>
      <trkpt lat="47.14129" lon="16.09514">
        <ele>305.661798</ele>
        <time>2026-07-08T12:10:45.000Z</time>
      </trkpt>
      <trkpt lat="47.1413" lon="16.0951">
        <ele>305.767848</ele>
        <time>2026-07-08T12:10:46.000Z</time>
      </trkpt>
      <trkpt lat="47.14131" lon="16.09505">
        <ele>305.881625</ele>
        <time>2026-07-08T12:10:47.000Z</time>
      </trkpt>
      <trkpt lat="47.14132" lon="16.095">
        <ele>305.991364</ele>
        <time>2026-07-08T12:10:48.000Z</time>
      </trkpt>
      <trkpt lat="47.14133" lon="16.09495">
        <ele>306.107323</ele>
        <time>2026-07-08T12:10:49.000Z</time>
      </trkpt>
      <trkpt lat="47.14134" lon="16.0949">
        <ele>306.22009</ele>
        <time>2026-07-08T12:10:50.000Z</time>
      </trkpt>
      <trkpt lat="47.14135" lon="16.09485">
        <ele>306.331926</ele>
        <time>2026-07-08T12:10:51.000Z</time>
      </trkpt>
      <trkpt lat="47.14136" lon="16.09479">
        <ele>306.449952</ele>
        <time>2026-07-08T12:10:52.000Z</time>
      </trkpt>
      <trkpt lat="47.14137" lon="16.09474">
        <ele>306.570047</ele>
        <time>2026-07-08T12:10:53.000Z</time>
      </trkpt>
      <trkpt lat="47.14138" lon="16.09469">
        <ele>306.688073</ele>
        <time>2026-07-08T12:10:54.000Z</time>
      </trkpt>
      <trkpt lat="47.14139" lon="16.09463">
        <ele>306.804032</ele>
        <time>2026-07-08T12:10:55.000Z</time>
      </trkpt>
      <trkpt lat="47.14141" lon="16.09458">
        <ele>306.917809</ele>
        <time>2026-07-08T12:10:56.000Z</time>
      </trkpt>
      <trkpt lat="47.14142" lon="16.09453">
        <ele>307.031705</ele>
        <time>2026-07-08T12:10:57.000Z</time>
      </trkpt>
      <trkpt lat="47.14142" lon="16.09448">
        <ele>307.146109</ele>
        <time>2026-07-08T12:10:58.000Z</time>
      </trkpt>
      <trkpt lat="47.14143" lon="16.09443">
        <ele>307.251452</ele>
        <time>2026-07-08T12:10:59.000Z</time>
      </trkpt>
      <trkpt lat="47.14144" lon="16.09439">
        <ele>307.354697</ele>
        <time>2026-07-08T12:11:00.000Z</time>
      </trkpt>
      <trkpt lat="47.14144" lon="16.09434">
        <ele>307.4531</ele>
        <time>2026-07-08T12:11:01.000Z</time>
      </trkpt>
      <trkpt lat="47.14145" lon="16.0943">
        <ele>307.553752</ele>
        <time>2026-07-08T12:11:02.000Z</time>
      </trkpt>
      <trkpt lat="47.14146" lon="16.09425">
        <ele>307.651596</ele>
        <time>2026-07-08T12:11:03.000Z</time>
      </trkpt>
      <trkpt lat="47.14146" lon="16.0942">
        <ele>307.753678</ele>
        <time>2026-07-08T12:11:04.000Z</time>
      </trkpt>
      <trkpt lat="47.14147" lon="16.09416">
        <ele>307.850705</ele>
        <time>2026-07-08T12:11:05.000Z</time>
      </trkpt>
      <trkpt lat="47.14147" lon="16.09412">
        <ele>307.943462</ele>
        <time>2026-07-08T12:11:06.000Z</time>
      </trkpt>
      <trkpt lat="47.14148" lon="16.09407">
        <ele>308.03834</ele>
        <time>2026-07-08T12:11:07.000Z</time>
      </trkpt>
      <trkpt lat="47.14148" lon="16.09403">
        <ele>308.131133</ele>
        <time>2026-07-08T12:11:08.000Z</time>
      </trkpt>
      <trkpt lat="47.14149" lon="16.09399">
        <ele>308.218405</ele>
        <time>2026-07-08T12:11:09.000Z</time>
      </trkpt>
      <trkpt lat="47.1415" lon="16.09395">
        <ele>308.303765</ele>
        <time>2026-07-08T12:11:10.000Z</time>
      </trkpt>
      <trkpt lat="47.14151" lon="16.09391">
        <ele>308.395213</ele>
        <time>2026-07-08T12:11:11.000Z</time>
      </trkpt>
      <trkpt lat="47.14152" lon="16.09387">
        <ele>308.486662</ele>
        <time>2026-07-08T12:11:12.000Z</time>
      </trkpt>
      <trkpt lat="47.14152" lon="16.09383">
        <ele>308.576131</ele>
        <time>2026-07-08T12:11:13.000Z</time>
      </trkpt>
      <trkpt lat="47.14153" lon="16.09379">
        <ele>308.665569</ele>
        <time>2026-07-08T12:11:14.000Z</time>
      </trkpt>
      <trkpt lat="47.14154" lon="16.09376">
        <ele>308.753002</ele>
        <time>2026-07-08T12:11:15.000Z</time>
      </trkpt>
      <trkpt lat="47.14156" lon="16.09372">
        <ele>308.840963</ele>
        <time>2026-07-08T12:11:16.000Z</time>
      </trkpt>
      <trkpt lat="47.14157" lon="16.09368">
        <ele>308.929733</ele>
        <time>2026-07-08T12:11:17.000Z</time>
      </trkpt>
      <trkpt lat="47.14159" lon="16.09365">
        <ele>309.022022</ele>
        <time>2026-07-08T12:11:18.000Z</time>
      </trkpt>
      <trkpt lat="47.14161" lon="16.09361">
        <ele>309.116179</ele>
        <time>2026-07-08T12:11:19.000Z</time>
      </trkpt>
      <trkpt lat="47.14162" lon="16.09358">
        <ele>309.206949</ele>
        <time>2026-07-08T12:11:20.000Z</time>
      </trkpt>
      <trkpt lat="47.14164" lon="16.09355">
        <ele>309.29578</ele>
        <time>2026-07-08T12:11:21.000Z</time>
      </trkpt>
      <trkpt lat="47.14166" lon="16.09351">
        <ele>309.388234</ele>
        <time>2026-07-08T12:11:22.000Z</time>
      </trkpt>
      <trkpt lat="47.14168" lon="16.09348">
        <ele>309.476196</ele>
        <time>2026-07-08T12:11:23.000Z</time>
      </trkpt>
      <trkpt lat="47.1417" lon="16.09345">
        <ele>309.567882</ele>
        <time>2026-07-08T12:11:24.000Z</time>
      </trkpt>
      <trkpt lat="47.14172" lon="16.09343">
        <ele>309.649009</ele>
        <time>2026-07-08T12:11:25.000Z</time>
      </trkpt>
      <trkpt lat="47.14174" lon="16.0934">
        <ele>309.738188</ele>
        <time>2026-07-08T12:11:26.000Z</time>
      </trkpt>
      <trkpt lat="47.14176" lon="16.09337">
        <ele>309.947204</ele>
        <time>2026-07-08T12:11:27.000Z</time>
      </trkpt>
      <trkpt lat="47.14178" lon="16.09334">
        <ele>310.152442</ele>
        <time>2026-07-08T12:11:28.000Z</time>
      </trkpt>
      <trkpt lat="47.1418" lon="16.09331">
        <ele>310.35768</ele>
        <time>2026-07-08T12:11:29.000Z</time>
      </trkpt>
      <trkpt lat="47.14181" lon="16.09328">
        <ele>310.563716</ele>
        <time>2026-07-08T12:11:30.000Z</time>
      </trkpt>
      <trkpt lat="47.14183" lon="16.09324">
        <ele>310.782505</ele>
        <time>2026-07-08T12:11:31.000Z</time>
      </trkpt>
      <trkpt lat="47.14185" lon="16.09321">
        <ele>310.976548</ele>
        <time>2026-07-08T12:11:32.000Z</time>
      </trkpt>
      <trkpt lat="47.14186" lon="16.09318">
        <ele>311.158463</ele>
        <time>2026-07-08T12:11:33.000Z</time>
      </trkpt>
      <trkpt lat="47.14188" lon="16.09315">
        <ele>311.340379</ele>
        <time>2026-07-08T12:11:34.000Z</time>
      </trkpt>
      <trkpt lat="47.14189" lon="16.09312">
        <ele>311.522183</ele>
        <time>2026-07-08T12:11:35.000Z</time>
      </trkpt>
      <trkpt lat="47.14191" lon="16.09308">
        <ele>311.712748</ele>
        <time>2026-07-08T12:11:36.000Z</time>
      </trkpt>
      <trkpt lat="47.14192" lon="16.09305">
        <ele>311.895574</ele>
        <time>2026-07-08T12:11:37.000Z</time>
      </trkpt>
      <trkpt lat="47.14193" lon="16.09302">
        <ele>312.081895</ele>
        <time>2026-07-08T12:11:38.000Z</time>
      </trkpt>
      <trkpt lat="47.14194" lon="16.09298">
        <ele>312.262877</ele>
        <time>2026-07-08T12:11:39.000Z</time>
      </trkpt>
      <trkpt lat="47.14195" lon="16.09295">
        <ele>312.437611</ele>
        <time>2026-07-08T12:11:40.000Z</time>
      </trkpt>
      <trkpt lat="47.14195" lon="16.09292">
        <ele>312.602794</ele>
        <time>2026-07-08T12:11:41.000Z</time>
      </trkpt>
      <trkpt lat="47.14196" lon="16.09288">
        <ele>312.767978</ele>
        <time>2026-07-08T12:11:42.000Z</time>
      </trkpt>
      <trkpt lat="47.14196" lon="16.09285">
        <ele>312.937933</ele>
        <time>2026-07-08T12:11:43.000Z</time>
      </trkpt>
      <trkpt lat="47.14197" lon="16.09281">
        <ele>313.116175</ele>
        <time>2026-07-08T12:11:44.000Z</time>
      </trkpt>
      <trkpt lat="47.14197" lon="16.09278">
        <ele>313.27884</ele>
        <time>2026-07-08T12:11:45.000Z</time>
      </trkpt>
      <trkpt lat="47.14197" lon="16.09275">
        <ele>313.450446</ele>
        <time>2026-07-08T12:11:46.000Z</time>
      </trkpt>
      <trkpt lat="47.14198" lon="16.09271">
        <ele>313.622801</ele>
        <time>2026-07-08T12:11:47.000Z</time>
      </trkpt>
      <trkpt lat="47.14198" lon="16.09268">
        <ele>313.785466</ele>
        <time>2026-07-08T12:11:48.000Z</time>
      </trkpt>
      <trkpt lat="47.14198" lon="16.09265">
        <ele>313.945884</ele>
        <time>2026-07-08T12:11:49.000Z</time>
      </trkpt>
      <trkpt lat="47.14199" lon="16.09262">
        <ele>314.085671</ele>
        <time>2026-07-08T12:11:50.000Z</time>
      </trkpt>
      <trkpt lat="47.14199" lon="16.09259">
        <ele>314.243495</ele>
        <time>2026-07-08T12:11:51.000Z</time>
      </trkpt>
      <trkpt lat="47.14199" lon="16.09255">
        <ele>314.400499</ele>
        <time>2026-07-08T12:11:52.000Z</time>
      </trkpt>
      <trkpt lat="47.14199" lon="16.09253">
        <ele>314.527529</ele>
        <time>2026-07-08T12:11:53.000Z</time>
      </trkpt>
      <trkpt lat="47.14199" lon="16.0925">
        <ele>314.659446</ele>
        <time>2026-07-08T12:11:54.000Z</time>
      </trkpt>
      <trkpt lat="47.142" lon="16.09247">
        <ele>314.793111</ele>
        <time>2026-07-08T12:11:55.000Z</time>
      </trkpt>
      <trkpt lat="47.142" lon="16.09245">
        <ele>314.906399</ele>
        <time>2026-07-08T12:11:56.000Z</time>
      </trkpt>
      <trkpt lat="47.142" lon="16.09242">
        <ele>315.04339</ele>
        <time>2026-07-08T12:11:57.000Z</time>
      </trkpt>
      <trkpt lat="47.142" lon="16.09239">
        <ele>315.185804</ele>
        <time>2026-07-08T12:11:58.000Z</time>
      </trkpt>
      <trkpt lat="47.142" lon="16.09237">
        <ele>315.313645</ele>
        <time>2026-07-08T12:11:59.000Z</time>
      </trkpt>
      <trkpt lat="47.142" lon="16.09234">
        <ele>315.436001</ele>
        <time>2026-07-08T12:12:00.000Z</time>
      </trkpt>
      <trkpt lat="47.14201" lon="16.09232">
        <ele>315.568697</ele>
        <time>2026-07-08T12:12:01.000Z</time>
      </trkpt>
      <trkpt lat="47.14201" lon="16.09229">
        <ele>315.701394</ele>
        <time>2026-07-08T12:12:02.000Z</time>
      </trkpt>
      <trkpt lat="47.14201" lon="16.09226">
        <ele>315.828424</ele>
        <time>2026-07-08T12:12:03.000Z</time>
      </trkpt>
      <trkpt lat="47.14201" lon="16.09224">
        <ele>315.945684</ele>
        <time>2026-07-08T12:12:04.000Z</time>
      </trkpt>
      <trkpt lat="47.14201" lon="16.09221">
        <ele>316.072714</ele>
        <time>2026-07-08T12:12:05.000Z</time>
      </trkpt>
      <trkpt lat="47.14201" lon="16.09219">
        <ele>316.195701</ele>
        <time>2026-07-08T12:12:06.000Z</time>
      </trkpt>
      <trkpt lat="47.142" lon="16.09216">
        <ele>316.328398</ele>
        <time>2026-07-08T12:12:07.000Z</time>
      </trkpt>
      <trkpt lat="47.14201" lon="16.09213">
        <ele>316.463407</ele>
        <time>2026-07-08T12:12:08.000Z</time>
      </trkpt>
      <trkpt lat="47.14201" lon="16.09211">
        <ele>316.577828</ele>
        <time>2026-07-08T12:12:09.000Z</time>
      </trkpt>
      <trkpt lat="47.14201" lon="16.09209">
        <ele>316.691116</ele>
        <time>2026-07-08T12:12:10.000Z</time>
      </trkpt>
      <trkpt lat="47.14201" lon="16.09206">
        <ele>316.813472</ele>
        <time>2026-07-08T12:12:11.000Z</time>
      </trkpt>
      <trkpt lat="47.14202" lon="16.09204">
        <ele>316.93895</ele>
        <time>2026-07-08T12:12:12.000Z</time>
      </trkpt>
      <trkpt lat="47.14202" lon="16.09201">
        <ele>317.061306</ele>
        <time>2026-07-08T12:12:13.000Z</time>
      </trkpt>
      <trkpt lat="47.14202" lon="16.09199">
        <ele>317.178565</ele>
        <time>2026-07-08T12:12:14.000Z</time>
      </trkpt>
      <trkpt lat="47.14202" lon="16.09197">
        <ele>317.291168</ele>
        <time>2026-07-08T12:12:15.000Z</time>
      </trkpt>
      <trkpt lat="47.14202" lon="16.09195">
        <ele>317.388884</ele>
        <time>2026-07-08T12:12:16.000Z</time>
      </trkpt>
      <trkpt lat="47.14202" lon="16.09192">
        <ele>317.511871</ele>
        <time>2026-07-08T12:12:17.000Z</time>
      </trkpt>
      <trkpt lat="47.14201" lon="16.09189">
        <ele>317.644567</ele>
        <time>2026-07-08T12:12:18.000Z</time>
      </trkpt>
      <trkpt lat="47.14201" lon="16.09187">
        <ele>317.771598</ele>
        <time>2026-07-08T12:12:19.000Z</time>
      </trkpt>
      <trkpt lat="47.14202" lon="16.09185">
        <ele>317.880041</ele>
        <time>2026-07-08T12:12:20.000Z</time>
      </trkpt>
      <trkpt lat="47.14201" lon="16.09182">
        <ele>317.993329</ele>
        <time>2026-07-08T12:12:21.000Z</time>
      </trkpt>
      <trkpt lat="47.14201" lon="16.0918">
        <ele>318.106658</ele>
        <time>2026-07-08T12:12:22.000Z</time>
      </trkpt>
      <trkpt lat="47.142" lon="16.09178">
        <ele>318.211712</ele>
        <time>2026-07-08T12:12:23.000Z</time>
      </trkpt>
      <trkpt lat="47.14199" lon="16.09176">
        <ele>318.342295</ele>
        <time>2026-07-08T12:12:24.000Z</time>
      </trkpt>
      <trkpt lat="47.14198" lon="16.09174">
        <ele>318.471937</ele>
        <time>2026-07-08T12:12:25.000Z</time>
      </trkpt>
      <trkpt lat="47.14198" lon="16.09172">
        <ele>318.585298</ele>
        <time>2026-07-08T12:12:26.000Z</time>
      </trkpt>
      <trkpt lat="47.14197" lon="16.09169">
        <ele>318.703271</ele>
        <time>2026-07-08T12:12:27.000Z</time>
      </trkpt>
      <trkpt lat="47.14197" lon="16.09167">
        <ele>318.8166</ele>
        <time>2026-07-08T12:12:28.000Z</time>
      </trkpt>
      <trkpt lat="47.14196" lon="16.09165">
        <ele>318.926494</ele>
        <time>2026-07-08T12:12:29.000Z</time>
      </trkpt>
      <trkpt lat="47.14195" lon="16.09163">
        <ele>319.039854</ele>
        <time>2026-07-08T12:12:30.000Z</time>
      </trkpt>
      <trkpt lat="47.14194" lon="16.09161">
        <ele>319.153405</ele>
        <time>2026-07-08T12:12:31.000Z</time>
      </trkpt>
      <trkpt lat="47.14193" lon="16.0916">
        <ele>319.263216</ele>
        <time>2026-07-08T12:12:32.000Z</time>
      </trkpt>
      <trkpt lat="47.14192" lon="16.09158">
        <ele>319.365835</ele>
        <time>2026-07-08T12:12:33.000Z</time>
      </trkpt>
      <trkpt lat="47.14191" lon="16.09157">
        <ele>319.478976</ele>
        <time>2026-07-08T12:12:34.000Z</time>
      </trkpt>
      <trkpt lat="47.1419" lon="16.09155">
        <ele>319.586745</ele>
        <time>2026-07-08T12:12:35.000Z</time>
      </trkpt>
      <trkpt lat="47.14189" lon="16.09154">
        <ele>319.682629</ele>
        <time>2026-07-08T12:12:36.000Z</time>
      </trkpt>
      <trkpt lat="47.14188" lon="16.09152">
        <ele>319.780355</ele>
        <time>2026-07-08T12:12:37.000Z</time>
      </trkpt>
      <trkpt lat="47.14187" lon="16.09151">
        <ele>319.882974</ele>
        <time>2026-07-08T12:12:38.000Z</time>
      </trkpt>
      <trkpt lat="47.14186" lon="16.09149">
        <ele>319.982162</ele>
        <time>2026-07-08T12:12:39.000Z</time>
      </trkpt>
      <trkpt lat="47.14185" lon="16.09148">
        <ele>320.075061</ele>
        <time>2026-07-08T12:12:40.000Z</time>
      </trkpt>
      <trkpt lat="47.14184" lon="16.09147">
        <ele>320.16569</ele>
        <time>2026-07-08T12:12:41.000Z</time>
      </trkpt>
      <trkpt lat="47.14183" lon="16.09146">
        <ele>320.261575</ele>
        <time>2026-07-08T12:12:42.000Z</time>
      </trkpt>
      <trkpt lat="47.14182" lon="16.09144">
        <ele>320.360763</ele>
        <time>2026-07-08T12:12:43.000Z</time>
      </trkpt>
      <trkpt lat="47.14181" lon="16.09143">
        <ele>320.453893</ele>
        <time>2026-07-08T12:12:44.000Z</time>
      </trkpt>
      <trkpt lat="47.1418" lon="16.09141">
        <ele>320.547023</ele>
        <time>2026-07-08T12:12:45.000Z</time>
      </trkpt>
      <trkpt lat="47.1418" lon="16.0914">
        <ele>320.635901</ele>
        <time>2026-07-08T12:12:46.000Z</time>
      </trkpt>
      <trkpt lat="47.14179" lon="16.09138">
        <ele>320.729031</ele>
        <time>2026-07-08T12:12:47.000Z</time>
      </trkpt>
      <trkpt lat="47.14178" lon="16.09137">
        <ele>320.836101</ele>
        <time>2026-07-08T12:12:48.000Z</time>
      </trkpt>
      <trkpt lat="47.14177" lon="16.09136">
        <ele>320.929231</ele>
        <time>2026-07-08T12:12:49.000Z</time>
      </trkpt>
      <trkpt lat="47.14176" lon="16.09134">
        <ele>321.01024</ele>
        <time>2026-07-08T12:12:50.000Z</time>
      </trkpt>
      <trkpt lat="47.14175" lon="16.09133">
        <ele>321.10296</ele>
        <time>2026-07-08T12:12:51.000Z</time>
      </trkpt>
      <trkpt lat="47.14174" lon="16.09131">
        <ele>321.20396</ele>
        <time>2026-07-08T12:12:52.000Z</time>
      </trkpt>
      <trkpt lat="47.14174" lon="16.09129">
        <ele>321.308068</ele>
        <time>2026-07-08T12:12:53.000Z</time>
      </trkpt>
      <trkpt lat="47.14173" lon="16.09128">
        <ele>321.403064</ele>
        <time>2026-07-08T12:12:54.000Z</time>
      </trkpt>
      <trkpt lat="47.14173" lon="16.09126">
        <ele>321.490952</ele>
        <time>2026-07-08T12:12:55.000Z</time>
      </trkpt>
      <trkpt lat="47.14172" lon="16.09124">
        <ele>321.580218</ele>
        <time>2026-07-08T12:12:56.000Z</time>
      </trkpt>
      <trkpt lat="47.14172" lon="16.09123">
        <ele>321.669096</ele>
        <time>2026-07-08T12:12:57.000Z</time>
      </trkpt>
      <trkpt lat="47.14171" lon="16.09121">
        <ele>321.778273</ele>
        <time>2026-07-08T12:12:58.000Z</time>
      </trkpt>
      <trkpt lat="47.1417" lon="16.09119">
        <ele>321.879578</ele>
        <time>2026-07-08T12:12:59.000Z</time>
      </trkpt>
      <trkpt lat="47.14169" lon="16.09117">
        <ele>321.97667</ele>
        <time>2026-07-08T12:13:00.000Z</time>
      </trkpt>
      <trkpt lat="47.14169" lon="16.09116">
        <ele>322.065937</ele>
        <time>2026-07-08T12:13:01.000Z</time>
      </trkpt>
      <trkpt lat="47.14168" lon="16.09114">
        <ele>322.163663</ele>
        <time>2026-07-08T12:13:02.000Z</time>
      </trkpt>
      <trkpt lat="47.14167" lon="16.09113">
        <ele>322.266282</ele>
        <time>2026-07-08T12:13:03.000Z</time>
      </trkpt>
      <trkpt lat="47.14166" lon="16.09111">
        <ele>322.368629</ele>
        <time>2026-07-08T12:13:04.000Z</time>
      </trkpt>
      <trkpt lat="47.14165" lon="16.0911">
        <ele>322.464514</ele>
        <time>2026-07-08T12:13:05.000Z</time>
      </trkpt>
      <trkpt lat="47.14164" lon="16.09108">
        <ele>322.569767</ele>
        <time>2026-07-08T12:13:06.000Z</time>
      </trkpt>
      <trkpt lat="47.14164" lon="16.09106">
        <ele>322.66143</ele>
        <time>2026-07-08T12:13:07.000Z</time>
      </trkpt>
      <trkpt lat="47.14163" lon="16.09104">
        <ele>322.707759</ele>
        <time>2026-07-08T12:13:08.000Z</time>
      </trkpt>
      <trkpt lat="47.14162" lon="16.09102">
        <ele>322.747209</ele>
        <time>2026-07-08T12:13:09.000Z</time>
      </trkpt>
      <trkpt lat="47.14162" lon="16.091">
        <ele>322.795379</ele>
        <time>2026-07-08T12:13:10.000Z</time>
      </trkpt>
      <trkpt lat="47.14161" lon="16.09098">
        <ele>322.851066</ele>
        <time>2026-07-08T12:13:11.000Z</time>
      </trkpt>
      <trkpt lat="47.1416" lon="16.09095">
        <ele>322.903734</ele>
        <time>2026-07-08T12:13:12.000Z</time>
      </trkpt>
      <trkpt lat="47.14159" lon="16.09093">
        <ele>322.958388</ele>
        <time>2026-07-08T12:13:13.000Z</time>
      </trkpt>
      <trkpt lat="47.14159" lon="16.09091">
        <ele>323.015297</ele>
        <time>2026-07-08T12:13:14.000Z</time>
      </trkpt>
      <trkpt lat="47.14158" lon="16.09088">
        <ele>323.068506</ele>
        <time>2026-07-08T12:13:15.000Z</time>
      </trkpt>
      <trkpt lat="47.14157" lon="16.09086">
        <ele>323.124193</ele>
        <time>2026-07-08T12:13:16.000Z</time>
      </trkpt>
      <trkpt lat="47.14156" lon="16.09083">
        <ele>323.181102</ele>
        <time>2026-07-08T12:13:17.000Z</time>
      </trkpt>
      <trkpt lat="47.14155" lon="16.09081">
        <ele>323.239364</ele>
        <time>2026-07-08T12:13:18.000Z</time>
      </trkpt>
      <trkpt lat="47.14155" lon="16.09078">
        <ele>323.296272</ele>
        <time>2026-07-08T12:13:19.000Z</time>
      </trkpt>
      <trkpt lat="47.14154" lon="16.09076">
        <ele>323.347973</ele>
        <time>2026-07-08T12:13:20.000Z</time>
      </trkpt>
      <trkpt lat="47.14154" lon="16.09074">
        <ele>323.393802</ele>
        <time>2026-07-08T12:13:21.000Z</time>
      </trkpt>
      <trkpt lat="47.14153" lon="16.09071">
        <ele>323.44759</ele>
        <time>2026-07-08T12:13:22.000Z</time>
      </trkpt>
      <trkpt lat="47.14152" lon="16.09069">
        <ele>323.497326</ele>
        <time>2026-07-08T12:13:23.000Z</time>
      </trkpt>
      <trkpt lat="47.14152" lon="16.09067">
        <ele>323.547061</ele>
        <time>2026-07-08T12:13:24.000Z</time>
      </trkpt>
      <trkpt lat="47.14151" lon="16.09064">
        <ele>323.598763</ele>
        <time>2026-07-08T12:13:25.000Z</time>
      </trkpt>
      <trkpt lat="47.14151" lon="16.09062">
        <ele>323.653369</ele>
        <time>2026-07-08T12:13:26.000Z</time>
      </trkpt>
      <trkpt lat="47.1415" lon="16.0906">
        <ele>323.70527</ele>
        <time>2026-07-08T12:13:27.000Z</time>
      </trkpt>
      <trkpt lat="47.14149" lon="16.09057">
        <ele>323.760956</ele>
        <time>2026-07-08T12:13:28.000Z</time>
      </trkpt>
      <trkpt lat="47.14149" lon="16.09055">
        <ele>323.817865</ele>
        <time>2026-07-08T12:13:29.000Z</time>
      </trkpt>
      <trkpt lat="47.14148" lon="16.09052">
        <ele>323.877382</ele>
        <time>2026-07-08T12:13:30.000Z</time>
      </trkpt>
      <trkpt lat="47.14147" lon="16.09049">
        <ele>323.93429</ele>
        <time>2026-07-08T12:13:31.000Z</time>
      </trkpt>
      <trkpt lat="47.14146" lon="16.09047">
        <ele>323.9875</ele>
        <time>2026-07-08T12:13:32.000Z</time>
      </trkpt>
      <trkpt lat="47.14145" lon="16.09045">
        <ele>324.045762</ele>
        <time>2026-07-08T12:13:33.000Z</time>
      </trkpt>
      <trkpt lat="47.14145" lon="16.09042">
        <ele>324.100368</ele>
        <time>2026-07-08T12:13:34.000Z</time>
      </trkpt>
      <trkpt lat="47.14144" lon="16.09039">
        <ele>324.158006</ele>
        <time>2026-07-08T12:13:35.000Z</time>
      </trkpt>
      <trkpt lat="47.14144" lon="16.09037">
        <ele>324.217635</ele>
        <time>2026-07-08T12:13:36.000Z</time>
      </trkpt>
      <trkpt lat="47.14143" lon="16.09034">
        <ele>324.275273</ele>
        <time>2026-07-08T12:13:37.000Z</time>
      </trkpt>
      <trkpt lat="47.14143" lon="16.09031">
        <ele>324.33287</ele>
        <time>2026-07-08T12:13:38.000Z</time>
      </trkpt>
      <trkpt lat="47.14142" lon="16.09029">
        <ele>324.386544</ele>
        <time>2026-07-08T12:13:39.000Z</time>
      </trkpt>
      <trkpt lat="47.14142" lon="16.09026">
        <ele>324.442487</ele>
        <time>2026-07-08T12:13:40.000Z</time>
      </trkpt>
      <trkpt lat="47.14141" lon="16.09024">
        <ele>324.496162</ele>
        <time>2026-07-08T12:13:41.000Z</time>
      </trkpt>
      <trkpt lat="47.14141" lon="16.09021">
        <ele>324.554668</ele>
        <time>2026-07-08T12:13:42.000Z</time>
      </trkpt>
      <trkpt lat="47.1414" lon="16.09018">
        <ele>324.616114</ele>
        <time>2026-07-08T12:13:43.000Z</time>
      </trkpt>
      <trkpt lat="47.14139" lon="16.09015">
        <ele>324.681255</ele>
        <time>2026-07-08T12:13:44.000Z</time>
      </trkpt>
      <trkpt lat="47.14138" lon="16.09013">
        <ele>324.741917</ele>
        <time>2026-07-08T12:13:45.000Z</time>
      </trkpt>
      <trkpt lat="47.14137" lon="16.0901">
        <ele>324.798143</ele>
        <time>2026-07-08T12:13:46.000Z</time>
      </trkpt>
      <trkpt lat="47.14137" lon="16.09008">
        <ele>324.85383</ele>
        <time>2026-07-08T12:13:47.000Z</time>
      </trkpt>
      <trkpt lat="47.14136" lon="16.09005">
        <ele>324.907504</ele>
        <time>2026-07-08T12:13:48.000Z</time>
      </trkpt>
      <trkpt lat="47.14136" lon="16.09003">
        <ele>324.961179</ele>
        <time>2026-07-08T12:13:49.000Z</time>
      </trkpt>
      <trkpt lat="47.14135" lon="16.09">
        <ele>325.014967</ele>
        <time>2026-07-08T12:13:50.000Z</time>
      </trkpt>
      <trkpt lat="47.14134" lon="16.08998">
        <ele>325.068177</ele>
        <time>2026-07-08T12:13:51.000Z</time>
      </trkpt>
      <trkpt lat="47.14133" lon="16.08996">
        <ele>325.119561</ele>
        <time>2026-07-08T12:13:52.000Z</time>
      </trkpt>
      <trkpt lat="47.14132" lon="16.08994">
        <ele>325.175788</ele>
        <time>2026-07-08T12:13:53.000Z</time>
      </trkpt>
      <trkpt lat="47.14132" lon="16.08991">
        <ele>325.235305</ele>
        <time>2026-07-08T12:13:54.000Z</time>
      </trkpt>
      <trkpt lat="47.14131" lon="16.08988">
        <ele>325.290992</ele>
        <time>2026-07-08T12:13:55.000Z</time>
      </trkpt>
      <trkpt lat="47.1413" lon="16.08986">
        <ele>325.341731</ele>
        <time>2026-07-08T12:13:56.000Z</time>
      </trkpt>
      <trkpt lat="47.1413" lon="16.08983">
        <ele>325.401248</ele>
        <time>2026-07-08T12:13:57.000Z</time>
      </trkpt>
      <trkpt lat="47.14129" lon="16.08981">
        <ele>325.456902</ele>
        <time>2026-07-08T12:13:58.000Z</time>
      </trkpt>
      <trkpt lat="47.14129" lon="16.08978">
        <ele>325.518525</ele>
        <time>2026-07-08T12:13:59.000Z</time>
      </trkpt>
      <trkpt lat="47.14128" lon="16.08975">
        <ele>325.574179</ele>
        <time>2026-07-08T12:14:00.000Z</time>
      </trkpt>
      <trkpt lat="47.14127" lon="16.08972">
        <ele>325.637562</ele>
        <time>2026-07-08T12:14:01.000Z</time>
      </trkpt>
      <trkpt lat="47.14127" lon="16.0897">
        <ele>325.692168</ele>
        <time>2026-07-08T12:14:02.000Z</time>
      </trkpt>
      <trkpt lat="47.14126" lon="16.08967">
        <ele>325.752259</ele>
        <time>2026-07-08T12:14:03.000Z</time>
      </trkpt>
      <trkpt lat="47.14125" lon="16.08964">
        <ele>325.816668</ele>
        <time>2026-07-08T12:14:05.000Z</time>
      </trkpt>
      <trkpt lat="47.14125" lon="16.08961">
        <ele>325.885906</ele>
        <time>2026-07-08T12:14:06.000Z</time>
      </trkpt>
      <trkpt lat="47.14124" lon="16.08958">
        <ele>325.954721</ele>
        <time>2026-07-08T12:14:07.000Z</time>
      </trkpt>
      <trkpt lat="47.14123" lon="16.08955">
        <ele>326.026882</ele>
        <time>2026-07-08T12:14:08.000Z</time>
      </trkpt>
      <trkpt lat="47.14122" lon="16.08952">
        <ele>326.098208</ele>
        <time>2026-07-08T12:14:09.000Z</time>
      </trkpt>
      <trkpt lat="47.14121" lon="16.08948">
        <ele>326.168567</ele>
        <time>2026-07-08T12:14:10.000Z</time>
      </trkpt>
      <trkpt lat="47.14121" lon="16.08945">
        <ele>326.237805</ele>
        <time>2026-07-08T12:14:11.000Z</time>
      </trkpt>
      <trkpt lat="47.1412" lon="16.08942">
        <ele>326.297322</ele>
        <time>2026-07-08T12:14:12.000Z</time>
      </trkpt>
      <trkpt lat="47.14119" lon="16.0894">
        <ele>326.351929</ele>
        <time>2026-07-08T12:14:13.000Z</time>
      </trkpt>
      <trkpt lat="47.14118" lon="16.08937">
        <ele>326.412019</ele>
        <time>2026-07-08T12:14:14.000Z</time>
      </trkpt>
      <trkpt lat="47.14118" lon="16.08935">
        <ele>326.472681</ele>
        <time>2026-07-08T12:14:15.000Z</time>
      </trkpt>
      <trkpt lat="47.14117" lon="16.08932">
        <ele>326.532309</ele>
        <time>2026-07-08T12:14:16.000Z</time>
      </trkpt>
      <trkpt lat="47.14116" lon="16.08929">
        <ele>326.596769</ele>
        <time>2026-07-08T12:14:17.000Z</time>
      </trkpt>
      <trkpt lat="47.14115" lon="16.08926">
        <ele>326.660558</ele>
        <time>2026-07-08T12:14:18.000Z</time>
      </trkpt>
      <trkpt lat="47.14115" lon="16.08923">
        <ele>326.726931</ele>
        <time>2026-07-08T12:14:19.000Z</time>
      </trkpt>
      <trkpt lat="47.14114" lon="16.0892">
        <ele>326.796169</ele>
        <time>2026-07-08T12:14:20.000Z</time>
      </trkpt>
      <trkpt lat="47.14113" lon="16.08916">
        <ele>326.870516</ele>
        <time>2026-07-08T12:14:21.000Z</time>
      </trkpt>
      <trkpt lat="47.14112" lon="16.08913">
        <ele>326.950614</ele>
        <time>2026-07-08T12:14:22.000Z</time>
      </trkpt>
      <trkpt lat="47.14111" lon="16.08909">
        <ele>327.032622</ele>
        <time>2026-07-08T12:14:23.000Z</time>
      </trkpt>
      <trkpt lat="47.1411" lon="16.08905">
        <ele>327.12428</ele>
        <time>2026-07-08T12:14:24.000Z</time>
      </trkpt>
      <trkpt lat="47.14109" lon="16.08901">
        <ele>327.213997</ele>
        <time>2026-07-08T12:14:25.000Z</time>
      </trkpt>
      <trkpt lat="47.14108" lon="16.08896">
        <ele>327.311509</ele>
        <time>2026-07-08T12:14:26.000Z</time>
      </trkpt>
      <trkpt lat="47.14107" lon="16.08892">
        <ele>327.408124</ele>
        <time>2026-07-08T12:14:27.000Z</time>
      </trkpt>
      <trkpt lat="47.14106" lon="16.08887">
        <ele>327.506935</ele>
        <time>2026-07-08T12:14:28.000Z</time>
      </trkpt>
      <trkpt lat="47.14105" lon="16.08883">
        <ele>327.609538</ele>
        <time>2026-07-08T12:14:29.000Z</time>
      </trkpt>
      <trkpt lat="47.14103" lon="16.08878">
        <ele>327.719011</ele>
        <time>2026-07-08T12:14:30.000Z</time>
      </trkpt>
      <trkpt lat="47.14102" lon="16.08873">
        <ele>327.829268</ele>
        <time>2026-07-08T12:14:31.000Z</time>
      </trkpt>
      <trkpt lat="47.14101" lon="16.08868">
        <ele>327.943718</ele>
        <time>2026-07-08T12:14:32.000Z</time>
      </trkpt>
      <trkpt lat="47.14099" lon="16.08863">
        <ele>328.060061</ele>
        <time>2026-07-08T12:14:33.000Z</time>
      </trkpt>
      <trkpt lat="47.14097" lon="16.08858">
        <ele>328.035743</ele>
        <time>2026-07-08T12:14:34.000Z</time>
      </trkpt>
      <trkpt lat="47.14095" lon="16.08852">
        <ele>327.94507</ele>
        <time>2026-07-08T12:14:35.000Z</time>
      </trkpt>
      <trkpt lat="47.14094" lon="16.08846">
        <ele>327.852935</ele>
        <time>2026-07-08T12:14:36.000Z</time>
      </trkpt>
      <trkpt lat="47.14093" lon="16.0884">
        <ele>327.752973</ele>
        <time>2026-07-08T12:14:37.000Z</time>
      </trkpt>
      <trkpt lat="47.14092" lon="16.08834">
        <ele>327.653697</ele>
        <time>2026-07-08T12:14:38.000Z</time>
      </trkpt>
      <trkpt lat="47.1409" lon="16.08828">
        <ele>327.555881</ele>
        <time>2026-07-08T12:14:39.000Z</time>
      </trkpt>
      <trkpt lat="47.14089" lon="16.08822">
        <ele>327.463787</ele>
        <time>2026-07-08T12:14:40.000Z</time>
      </trkpt>
      <trkpt lat="47.14087" lon="16.08817">
        <ele>327.368551</ele>
        <time>2026-07-08T12:14:41.000Z</time>
      </trkpt>
      <trkpt lat="47.14085" lon="16.08811">
        <ele>327.27041</ele>
        <time>2026-07-08T12:14:42.000Z</time>
      </trkpt>
      <trkpt lat="47.14083" lon="16.08805">
        <ele>327.17256</ele>
        <time>2026-07-08T12:14:43.000Z</time>
      </trkpt>
      <trkpt lat="47.1408" lon="16.08799">
        <ele>327.066051</ele>
        <time>2026-07-08T12:14:44.000Z</time>
      </trkpt>
      <trkpt lat="47.14078" lon="16.08793">
        <ele>326.955763</ele>
        <time>2026-07-08T12:14:45.000Z</time>
      </trkpt>
      <trkpt lat="47.14075" lon="16.08787">
        <ele>326.84431</ele>
        <time>2026-07-08T12:14:46.000Z</time>
      </trkpt>
      <trkpt lat="47.14072" lon="16.0878">
        <ele>326.724114</ele>
        <time>2026-07-08T12:14:47.000Z</time>
      </trkpt>
      <trkpt lat="47.14069" lon="16.08775">
        <ele>326.612618</ele>
        <time>2026-07-08T12:14:48.000Z</time>
      </trkpt>
      <trkpt lat="47.14066" lon="16.08769">
        <ele>326.49595</ele>
        <time>2026-07-08T12:14:49.000Z</time>
      </trkpt>
      <trkpt lat="47.14063" lon="16.08763">
        <ele>326.381674</ele>
        <time>2026-07-08T12:14:50.000Z</time>
      </trkpt>
      <trkpt lat="47.1406" lon="16.08757">
        <ele>326.267138</ele>
        <time>2026-07-08T12:14:51.000Z</time>
      </trkpt>
      <trkpt lat="47.14056" lon="16.08751">
        <ele>326.149636</ele>
        <time>2026-07-08T12:14:52.000Z</time>
      </trkpt>
      <trkpt lat="47.14053" lon="16.08746">
        <ele>326.033264</ele>
        <time>2026-07-08T12:14:53.000Z</time>
      </trkpt>
      <trkpt lat="47.14049" lon="16.0874">
        <ele>325.916381</ele>
        <time>2026-07-08T12:14:54.000Z</time>
      </trkpt>
      <trkpt lat="47.14046" lon="16.08734">
        <ele>325.801132</ele>
        <time>2026-07-08T12:14:55.000Z</time>
      </trkpt>
      <trkpt lat="47.14042" lon="16.08729">
        <ele>325.685882</ele>
        <time>2026-07-08T12:14:56.000Z</time>
      </trkpt>
      <trkpt lat="47.14039" lon="16.08723">
        <ele>325.567514</ele>
        <time>2026-07-08T12:14:57.000Z</time>
      </trkpt>
      <trkpt lat="47.14035" lon="16.08718">
        <ele>325.452791</ele>
        <time>2026-07-08T12:14:58.000Z</time>
      </trkpt>
      <trkpt lat="47.14031" lon="16.08714">
        <ele>325.336636</ele>
        <time>2026-07-08T12:14:59.000Z</time>
      </trkpt>
      <trkpt lat="47.14026" lon="16.08709">
        <ele>325.211531</ele>
        <time>2026-07-08T12:15:00.000Z</time>
      </trkpt>
      <trkpt lat="47.14022" lon="16.08704">
        <ele>325.091694</ele>
        <time>2026-07-08T12:15:01.000Z</time>
      </trkpt>
      <trkpt lat="47.14018" lon="16.08698">
        <ele>324.962933</ele>
        <time>2026-07-08T12:15:02.000Z</time>
      </trkpt>
      <trkpt lat="47.14013" lon="16.08694">
        <ele>324.841474</ele>
        <time>2026-07-08T12:15:03.000Z</time>
      </trkpt>
      <trkpt lat="47.14009" lon="16.08689">
        <ele>324.719043</ele>
        <time>2026-07-08T12:15:04.000Z</time>
      </trkpt>
      <trkpt lat="47.14005" lon="16.08685">
        <ele>324.600304</ele>
        <time>2026-07-08T12:15:05.000Z</time>
      </trkpt>
      <trkpt lat="47.14" lon="16.08681">
        <ele>324.484315</ele>
        <time>2026-07-08T12:15:06.000Z</time>
      </trkpt>
      <trkpt lat="47.13996" lon="16.08677">
        <ele>324.369843</ele>
        <time>2026-07-08T12:15:07.000Z</time>
      </trkpt>
      <trkpt lat="47.13991" lon="16.08673">
        <ele>324.253465</ele>
        <time>2026-07-08T12:15:08.000Z</time>
      </trkpt>
      <trkpt lat="47.13987" lon="16.08669">
        <ele>324.135507</ele>
        <time>2026-07-08T12:15:09.000Z</time>
      </trkpt>
      <trkpt lat="47.13982" lon="16.08666">
        <ele>324.071239</ele>
        <time>2026-07-08T12:15:10.000Z</time>
      </trkpt>
      <trkpt lat="47.13978" lon="16.08663">
        <ele>324.147205</ele>
        <time>2026-07-08T12:15:11.000Z</time>
      </trkpt>
      <trkpt lat="47.13973" lon="16.08661">
        <ele>324.219764</ele>
        <time>2026-07-08T12:15:12.000Z</time>
      </trkpt>
      <trkpt lat="47.13968" lon="16.08659">
        <ele>324.289848</ele>
        <time>2026-07-08T12:15:13.000Z</time>
      </trkpt>
      <trkpt lat="47.13964" lon="16.08657">
        <ele>324.360414</ele>
        <time>2026-07-08T12:15:14.000Z</time>
      </trkpt>
      <trkpt lat="47.13959" lon="16.08655">
        <ele>324.427877</ele>
        <time>2026-07-08T12:15:15.000Z</time>
      </trkpt>
      <trkpt lat="47.13955" lon="16.08654">
        <ele>324.493708</ele>
        <time>2026-07-08T12:15:16.000Z</time>
      </trkpt>
      <trkpt lat="47.13951" lon="16.08653">
        <ele>324.558719</ele>
        <time>2026-07-08T12:15:17.000Z</time>
      </trkpt>
      <trkpt lat="47.13946" lon="16.08651">
        <ele>324.622802</ele>
        <time>2026-07-08T12:15:18.000Z</time>
      </trkpt>
      <trkpt lat="47.13942" lon="16.08649">
        <ele>324.684339</ele>
        <time>2026-07-08T12:15:19.000Z</time>
      </trkpt>
      <trkpt lat="47.13939" lon="16.08646">
        <ele>324.746426</ele>
        <time>2026-07-08T12:15:20.000Z</time>
      </trkpt>
      <trkpt lat="47.13935" lon="16.08643">
        <ele>324.809876</ele>
        <time>2026-07-08T12:15:21.000Z</time>
      </trkpt>
      <trkpt lat="47.13931" lon="16.0864">
        <ele>324.874626</ele>
        <time>2026-07-08T12:15:22.000Z</time>
      </trkpt>
      <trkpt lat="47.13927" lon="16.08637">
        <ele>324.939551</ele>
        <time>2026-07-08T12:15:23.000Z</time>
      </trkpt>
      <trkpt lat="47.13923" lon="16.08634">
        <ele>325.0027</ele>
        <time>2026-07-08T12:15:24.000Z</time>
      </trkpt>
      <trkpt lat="47.1392" lon="16.08631">
        <ele>325.06663</ele>
        <time>2026-07-08T12:15:25.000Z</time>
      </trkpt>
      <trkpt lat="47.13916" lon="16.08628">
        <ele>325.131051</ele>
        <time>2026-07-08T12:15:26.000Z</time>
      </trkpt>
      <trkpt lat="47.13912" lon="16.08625">
        <ele>325.19065</ele>
        <time>2026-07-08T12:15:27.000Z</time>
      </trkpt>
      <trkpt lat="47.13909" lon="16.08621">
        <ele>325.248151</ele>
        <time>2026-07-08T12:15:28.000Z</time>
      </trkpt>
      <trkpt lat="47.13906" lon="16.08618">
        <ele>325.306305</ele>
        <time>2026-07-08T12:15:29.000Z</time>
      </trkpt>
      <trkpt lat="47.13903" lon="16.08615">
        <ele>325.362136</ele>
        <time>2026-07-08T12:15:30.000Z</time>
      </trkpt>
      <trkpt lat="47.13899" lon="16.08612">
        <ele>325.417967</ele>
        <time>2026-07-08T12:15:31.000Z</time>
      </trkpt>
      <trkpt lat="47.13896" lon="16.08609">
        <ele>325.472563</ele>
        <time>2026-07-08T12:15:32.000Z</time>
      </trkpt>
      <trkpt lat="47.13893" lon="16.08607">
        <ele>325.524961</ele>
        <time>2026-07-08T12:15:33.000Z</time>
      </trkpt>
      <trkpt lat="47.1389" lon="16.08604">
        <ele>325.578269</ele>
        <time>2026-07-08T12:15:34.000Z</time>
      </trkpt>
      <trkpt lat="47.13887" lon="16.08601">
        <ele>325.628654</ele>
        <time>2026-07-08T12:15:35.000Z</time>
      </trkpt>
      <trkpt lat="47.13884" lon="16.08599">
        <ele>325.681962</ele>
        <time>2026-07-08T12:15:36.000Z</time>
      </trkpt>
      <trkpt lat="47.13881" lon="16.08596">
        <ele>325.732691</ele>
        <time>2026-07-08T12:15:37.000Z</time>
      </trkpt>
      <trkpt lat="47.13878" lon="16.08594">
        <ele>325.785193</ele>
        <time>2026-07-08T12:15:38.000Z</time>
      </trkpt>
      <trkpt lat="47.13875" lon="16.08591">
        <ele>325.840492</ele>
        <time>2026-07-08T12:15:39.000Z</time>
      </trkpt>
      <trkpt lat="47.13872" lon="16.08588">
        <ele>325.893866</ele>
        <time>2026-07-08T12:15:40.000Z</time>
      </trkpt>
      <trkpt lat="47.13868" lon="16.08586">
        <ele>325.94759</ele>
        <time>2026-07-08T12:15:41.000Z</time>
      </trkpt>
      <trkpt lat="47.13865" lon="16.08584">
        <ele>325.996048</ele>
        <time>2026-07-08T12:15:42.000Z</time>
      </trkpt>
      <trkpt lat="47.13862" lon="16.08581">
        <ele>326.044053</ele>
        <time>2026-07-08T12:15:43.000Z</time>
      </trkpt>
      <trkpt lat="47.1386" lon="16.08579">
        <ele>326.090311</ele>
        <time>2026-07-08T12:15:44.000Z</time>
      </trkpt>
      <trkpt lat="47.13857" lon="16.08576">
        <ele>326.140807</ele>
        <time>2026-07-08T12:15:45.000Z</time>
      </trkpt>
      <trkpt lat="47.13854" lon="16.08573">
        <ele>326.193081</ele>
        <time>2026-07-08T12:15:46.000Z</time>
      </trkpt>
      <trkpt lat="47.13851" lon="16.08571">
        <ele>326.240761</ele>
        <time>2026-07-08T12:15:47.000Z</time>
      </trkpt>
      <trkpt lat="47.13848" lon="16.08568">
        <ele>326.29199</ele>
        <time>2026-07-08T12:15:48.000Z</time>
      </trkpt>
      <trkpt lat="47.13845" lon="16.08566">
        <ele>326.343735</ele>
        <time>2026-07-08T12:15:49.000Z</time>
      </trkpt>
      <trkpt lat="47.13842" lon="16.08563">
        <ele>326.39548</ele>
        <time>2026-07-08T12:15:50.000Z</time>
      </trkpt>
      <trkpt lat="47.13839" lon="16.0856">
        <ele>326.44242</ele>
        <time>2026-07-08T12:15:51.000Z</time>
      </trkpt>
      <trkpt lat="47.13837" lon="16.08558">
        <ele>326.489603</ele>
        <time>2026-07-08T12:15:52.000Z</time>
      </trkpt>
      <trkpt lat="47.13834" lon="16.08556">
        <ele>326.532465</ele>
        <time>2026-07-08T12:15:53.000Z</time>
      </trkpt>
      <trkpt lat="47.13832" lon="16.08554">
        <ele>326.575849</ele>
        <time>2026-07-08T12:15:54.000Z</time>
      </trkpt>
      <trkpt lat="47.13829" lon="16.08551">
        <ele>326.618711</ele>
        <time>2026-07-08T12:15:55.000Z</time>
      </trkpt>
      <trkpt lat="47.13827" lon="16.08549">
        <ele>326.659631</ele>
        <time>2026-07-08T12:15:56.000Z</time>
      </trkpt>
      <trkpt lat="47.13824" lon="16.08546">
        <ele>326.706561</ele>
        <time>2026-07-08T12:15:57.000Z</time>
      </trkpt>
      <trkpt lat="47.13821" lon="16.08544">
        <ele>326.743398</ele>
        <time>2026-07-08T12:15:58.000Z</time>
      </trkpt>
      <trkpt lat="47.13818" lon="16.08541">
        <ele>326.781116</ele>
        <time>2026-07-08T12:15:59.000Z</time>
      </trkpt>
      <trkpt lat="47.13815" lon="16.08538">
        <ele>326.821236</ele>
        <time>2026-07-08T12:16:00.000Z</time>
      </trkpt>
      <trkpt lat="47.13811" lon="16.08535">
        <ele>326.85984</ele>
        <time>2026-07-08T12:16:01.000Z</time>
      </trkpt>
      <trkpt lat="47.13808" lon="16.08532">
        <ele>326.900062</ele>
        <time>2026-07-08T12:16:02.000Z</time>
      </trkpt>
      <trkpt lat="47.13805" lon="16.08529">
        <ele>326.939212</ele>
        <time>2026-07-08T12:16:03.000Z</time>
      </trkpt>
      <trkpt lat="47.13801" lon="16.08526">
        <ele>326.98032</ele>
        <time>2026-07-08T12:16:04.000Z</time>
      </trkpt>
      <trkpt lat="47.13798" lon="16.08523">
        <ele>327.021301</ele>
        <time>2026-07-08T12:16:05.000Z</time>
      </trkpt>
      <trkpt lat="47.13795" lon="16.0852">
        <ele>327.061523</ele>
        <time>2026-07-08T12:16:06.000Z</time>
      </trkpt>
      <trkpt lat="47.13791" lon="16.08517">
        <ele>327.101923</ele>
        <time>2026-07-08T12:16:07.000Z</time>
      </trkpt>
      <trkpt lat="47.13788" lon="16.08514">
        <ele>327.142145</ele>
        <time>2026-07-08T12:16:08.000Z</time>
      </trkpt>
      <trkpt lat="47.13785" lon="16.08511">
        <ele>327.181644</ele>
        <time>2026-07-08T12:16:09.000Z</time>
      </trkpt>
      <trkpt lat="47.13781" lon="16.08509">
        <ele>327.221982</ele>
        <time>2026-07-08T12:16:10.000Z</time>
      </trkpt>
      <trkpt lat="47.13778" lon="16.08506">
        <ele>327.260952</ele>
        <time>2026-07-08T12:16:11.000Z</time>
      </trkpt>
      <trkpt lat="47.13775" lon="16.08503">
        <ele>327.29779</ele>
        <time>2026-07-08T12:16:12.000Z</time>
      </trkpt>
      <trkpt lat="47.13772" lon="16.08501">
        <ele>327.335356</ele>
        <time>2026-07-08T12:16:13.000Z</time>
      </trkpt>
      <trkpt lat="47.13768" lon="16.08498">
        <ele>327.377356</ele>
        <time>2026-07-08T12:16:14.000Z</time>
      </trkpt>
      <trkpt lat="47.13765" lon="16.08495">
        <ele>327.418663</ele>
        <time>2026-07-08T12:16:15.000Z</time>
      </trkpt>
      <trkpt lat="47.13761" lon="16.08492">
        <ele>327.460312</ele>
        <time>2026-07-08T12:16:16.000Z</time>
      </trkpt>
      <trkpt lat="47.13758" lon="16.08489">
        <ele>327.500909</ele>
        <time>2026-07-08T12:16:17.000Z</time>
      </trkpt>
      <trkpt lat="47.13755" lon="16.08486">
        <ele>327.540254</ele>
        <time>2026-07-08T12:16:18.000Z</time>
      </trkpt>
      <trkpt lat="47.13751" lon="16.08483">
        <ele>327.581228</ele>
        <time>2026-07-08T12:16:19.000Z</time>
      </trkpt>
      <trkpt lat="47.13748" lon="16.08481">
        <ele>327.619713</ele>
        <time>2026-07-08T12:16:20.000Z</time>
      </trkpt>
      <trkpt lat="47.13745" lon="16.08478">
        <ele>327.657326</ele>
        <time>2026-07-08T12:16:21.000Z</time>
      </trkpt>
      <trkpt lat="47.13742" lon="16.08474">
        <ele>327.696168</ele>
        <time>2026-07-08T12:16:22.000Z</time>
      </trkpt>
      <trkpt lat="47.13739" lon="16.08471">
        <ele>327.735871</ele>
        <time>2026-07-08T12:16:23.000Z</time>
      </trkpt>
      <trkpt lat="47.13736" lon="16.08467">
        <ele>327.779764</ele>
        <time>2026-07-08T12:16:24.000Z</time>
      </trkpt>
      <trkpt lat="47.13732" lon="16.08463">
        <ele>327.82404</ele>
        <time>2026-07-08T12:16:25.000Z</time>
      </trkpt>
      <trkpt lat="47.13729" lon="16.08459">
        <ele>327.865092</ele>
        <time>2026-07-08T12:16:26.000Z</time>
      </trkpt>
      <trkpt lat="47.13727" lon="16.08455">
        <ele>327.905077</ele>
        <time>2026-07-08T12:16:27.000Z</time>
      </trkpt>
      <trkpt lat="47.13724" lon="16.08451">
        <ele>327.945551</ele>
        <time>2026-07-08T12:16:28.000Z</time>
      </trkpt>
      <trkpt lat="47.13721" lon="16.08448">
        <ele>327.985823</ele>
        <time>2026-07-08T12:16:29.000Z</time>
      </trkpt>
      <trkpt lat="47.13718" lon="16.08444">
        <ele>328.025328</ele>
        <time>2026-07-08T12:16:30.000Z</time>
      </trkpt>
      <trkpt lat="47.13715" lon="16.0844">
        <ele>328.067313</ele>
        <time>2026-07-08T12:16:31.000Z</time>
      </trkpt>
      <trkpt lat="47.13712" lon="16.08436">
        <ele>328.108064</ele>
        <time>2026-07-08T12:16:32.000Z</time>
      </trkpt>
      <trkpt lat="47.1371" lon="16.08431">
        <ele>328.149533</ele>
        <time>2026-07-08T12:16:33.000Z</time>
      </trkpt>
      <trkpt lat="47.13707" lon="16.08427">
        <ele>328.191509</ele>
        <time>2026-07-08T12:16:34.000Z</time>
      </trkpt>
      <trkpt lat="47.13704" lon="16.08423">
        <ele>328.232561</ele>
        <time>2026-07-08T12:16:35.000Z</time>
      </trkpt>
      <trkpt lat="47.13701" lon="16.08419">
        <ele>328.273306</ele>
        <time>2026-07-08T12:16:36.000Z</time>
      </trkpt>
      <trkpt lat="47.13698" lon="16.08415">
        <ele>328.316065</ele>
        <time>2026-07-08T12:16:37.000Z</time>
      </trkpt>
      <trkpt lat="47.13695" lon="16.08411">
        <ele>328.357289</ele>
        <time>2026-07-08T12:16:38.000Z</time>
      </trkpt>
      <trkpt lat="47.13692" lon="16.08407">
        <ele>328.399265</ele>
        <time>2026-07-08T12:16:39.000Z</time>
      </trkpt>
      <trkpt lat="47.13689" lon="16.08403">
        <ele>328.439002</ele>
        <time>2026-07-08T12:16:40.000Z</time>
      </trkpt>
      <trkpt lat="47.13687" lon="16.08399">
        <ele>328.479476</ele>
        <time>2026-07-08T12:16:41.000Z</time>
      </trkpt>
      <trkpt lat="47.13684" lon="16.08395">
        <ele>328.517782</ele>
        <time>2026-07-08T12:16:42.000Z</time>
      </trkpt>
      <trkpt lat="47.13681" lon="16.08391">
        <ele>328.556531</ele>
        <time>2026-07-08T12:16:43.000Z</time>
      </trkpt>
      <trkpt lat="47.13679" lon="16.08387">
        <ele>328.589817</ele>
        <time>2026-07-08T12:16:44.000Z</time>
      </trkpt>
      <trkpt lat="47.13676" lon="16.08384">
        <ele>328.623711</ele>
        <time>2026-07-08T12:16:45.000Z</time>
      </trkpt>
      <trkpt lat="47.13673" lon="16.0838">
        <ele>328.656958</ele>
        <time>2026-07-08T12:16:46.000Z</time>
      </trkpt>
      <trkpt lat="47.1367" lon="16.08376">
        <ele>328.693805</ele>
        <time>2026-07-08T12:16:47.000Z</time>
      </trkpt>
      <trkpt lat="47.13667" lon="16.08372">
        <ele>328.729829</ele>
        <time>2026-07-08T12:16:48.000Z</time>
      </trkpt>
      <trkpt lat="47.13664" lon="16.08367">
        <ele>328.766677</ele>
        <time>2026-07-08T12:16:49.000Z</time>
      </trkpt>
      <trkpt lat="47.13662" lon="16.08363">
        <ele>328.801486</ele>
        <time>2026-07-08T12:16:50.000Z</time>
      </trkpt>
      <trkpt lat="47.13659" lon="16.08359">
        <ele>328.837695</ele>
        <time>2026-07-08T12:16:51.000Z</time>
      </trkpt>
      <trkpt lat="47.13656" lon="16.08355">
        <ele>328.872422</ele>
        <time>2026-07-08T12:16:52.000Z</time>
      </trkpt>
      <trkpt lat="47.13653" lon="16.08351">
        <ele>328.907149</ele>
        <time>2026-07-08T12:16:53.000Z</time>
      </trkpt>
      <trkpt lat="47.13651" lon="16.08347">
        <ele>328.939134</ele>
        <time>2026-07-08T12:16:54.000Z</time>
      </trkpt>
      <trkpt lat="47.13648" lon="16.08343">
        <ele>328.974504</ele>
        <time>2026-07-08T12:16:55.000Z</time>
      </trkpt>
      <trkpt lat="47.13645" lon="16.08339">
        <ele>329.010528</ele>
        <time>2026-07-08T12:16:56.000Z</time>
      </trkpt>
      <trkpt lat="47.13642" lon="16.08335">
        <ele>329.04575</ele>
        <time>2026-07-08T12:16:57.000Z</time>
      </trkpt>
      <trkpt lat="47.13639" lon="16.08331">
        <ele>329.081371</ele>
        <time>2026-07-08T12:16:58.000Z</time>
      </trkpt>
      <trkpt lat="47.13636" lon="16.08328">
        <ele>329.118655</ele>
        <time>2026-07-08T12:16:59.000Z</time>
      </trkpt>
      <trkpt lat="47.13633" lon="16.08324">
        <ele>329.153485</ele>
        <time>2026-07-08T12:17:00.000Z</time>
      </trkpt>
      <trkpt lat="47.13629" lon="16.0832">
        <ele>329.190846</ele>
        <time>2026-07-08T12:17:01.000Z</time>
      </trkpt>
      <trkpt lat="47.13626" lon="16.08316">
        <ele>329.22884</ele>
        <time>2026-07-08T12:17:02.000Z</time>
      </trkpt>
      <trkpt lat="47.13622" lon="16.08312">
        <ele>329.267903</ele>
        <time>2026-07-08T12:17:03.000Z</time>
      </trkpt>
      <trkpt lat="47.13619" lon="16.08309">
        <ele>329.305897</ele>
        <time>2026-07-08T12:17:04.000Z</time>
      </trkpt>
      <trkpt lat="47.13615" lon="16.08305">
        <ele>329.344286</ele>
        <time>2026-07-08T12:17:05.000Z</time>
      </trkpt>
      <trkpt lat="47.13612" lon="16.08302">
        <ele>329.380947</ele>
        <time>2026-07-08T12:17:06.000Z</time>
      </trkpt>
      <trkpt lat="47.13608" lon="16.08299">
        <ele>329.420672</ele>
        <time>2026-07-08T12:17:07.000Z</time>
      </trkpt>
      <trkpt lat="47.13604" lon="16.08296">
        <ele>329.456348</ele>
        <time>2026-07-08T12:17:08.000Z</time>
      </trkpt>
      <trkpt lat="47.13601" lon="16.08294">
        <ele>329.492567</ele>
        <time>2026-07-08T12:17:09.000Z</time>
      </trkpt>
      <trkpt lat="47.13597" lon="16.08292">
        <ele>329.526424</ele>
        <time>2026-07-08T12:17:10.000Z</time>
      </trkpt>
      <trkpt lat="47.13594" lon="16.08289">
        <ele>329.560281</ele>
        <time>2026-07-08T12:17:11.000Z</time>
      </trkpt>
      <trkpt lat="47.1359" lon="16.08287">
        <ele>329.593681</ele>
        <time>2026-07-08T12:17:12.000Z</time>
      </trkpt>
      <trkpt lat="47.13587" lon="16.08285">
        <ele>329.627304</ele>
        <time>2026-07-08T12:17:13.000Z</time>
      </trkpt>
      <trkpt lat="47.13583" lon="16.08283">
        <ele>329.661161</ele>
        <time>2026-07-08T12:17:14.000Z</time>
      </trkpt>
      <trkpt lat="47.13579" lon="16.0828">
        <ele>329.697902</ele>
        <time>2026-07-08T12:17:15.000Z</time>
      </trkpt>
      <trkpt lat="47.13575" lon="16.08278">
        <ele>329.736562</ele>
        <time>2026-07-08T12:17:16.000Z</time>
      </trkpt>
      <trkpt lat="47.13572" lon="16.08276">
        <ele>329.771011</ele>
        <time>2026-07-08T12:17:17.000Z</time>
      </trkpt>
      <trkpt lat="47.13568" lon="16.08273">
        <ele>329.80723</ele>
        <time>2026-07-08T12:17:18.000Z</time>
      </trkpt>
      <trkpt lat="47.13564" lon="16.08271">
        <ele>329.843971</ele>
        <time>2026-07-08T12:17:19.000Z</time>
      </trkpt>
      <trkpt lat="47.13561" lon="16.08268">
        <ele>329.881</ele>
        <time>2026-07-08T12:17:20.000Z</time>
      </trkpt>
      <trkpt lat="47.13557" lon="16.08266">
        <ele>329.917219</ele>
        <time>2026-07-08T12:17:21.000Z</time>
      </trkpt>
      <trkpt lat="47.13553" lon="16.08263">
        <ele>329.954759</ele>
        <time>2026-07-08T12:17:22.000Z</time>
      </trkpt>
      <trkpt lat="47.13549" lon="16.0826">
        <ele>329.991773</ele>
        <time>2026-07-08T12:17:23.000Z</time>
      </trkpt>
      <trkpt lat="47.13546" lon="16.08258">
        <ele>330.027186</ele>
        <time>2026-07-08T12:17:24.000Z</time>
      </trkpt>
      <trkpt lat="47.13542" lon="16.08255">
        <ele>330.064561</ele>
        <time>2026-07-08T12:17:25.000Z</time>
      </trkpt>
      <trkpt lat="47.13538" lon="16.08253">
        <ele>330.101591</ele>
        <time>2026-07-08T12:17:26.000Z</time>
      </trkpt>
      <trkpt lat="47.13534" lon="16.0825">
        <ele>330.139131</ele>
        <time>2026-07-08T12:17:27.000Z</time>
      </trkpt>
      <trkpt lat="47.1353" lon="16.08247">
        <ele>330.075293</ele>
        <time>2026-07-08T12:17:28.000Z</time>
      </trkpt>
      <trkpt lat="47.13527" lon="16.08245">
        <ele>329.861377</ele>
        <time>2026-07-08T12:17:29.000Z</time>
      </trkpt>
      <trkpt lat="47.13523" lon="16.08243">
        <ele>329.650221</ele>
        <time>2026-07-08T12:17:30.000Z</time>
      </trkpt>
      <trkpt lat="47.13519" lon="16.0824">
        <ele>329.431606</ele>
        <time>2026-07-08T12:17:31.000Z</time>
      </trkpt>
      <trkpt lat="47.13515" lon="16.08238">
        <ele>329.216662</ele>
        <time>2026-07-08T12:17:32.000Z</time>
      </trkpt>
      <trkpt lat="47.13511" lon="16.08236">
        <ele>328.997217</ele>
        <time>2026-07-08T12:17:33.000Z</time>
      </trkpt>
      <trkpt lat="47.13507" lon="16.08234">
        <ele>328.777773</ele>
        <time>2026-07-08T12:17:34.000Z</time>
      </trkpt>
      <trkpt lat="47.13503" lon="16.08232">
        <ele>328.55708</ele>
        <time>2026-07-08T12:17:35.000Z</time>
      </trkpt>
      <trkpt lat="47.13499" lon="16.08229">
        <ele>328.330918</ele>
        <time>2026-07-08T12:17:36.000Z</time>
      </trkpt>
      <trkpt lat="47.13495" lon="16.08226">
        <ele>328.101483</ele>
        <time>2026-07-08T12:17:37.000Z</time>
      </trkpt>
      <trkpt lat="47.1349" lon="16.08223">
        <ele>327.853716</ele>
        <time>2026-07-08T12:17:38.000Z</time>
      </trkpt>
      <trkpt lat="47.13486" lon="16.08221">
        <ele>327.614811</ele>
        <time>2026-07-08T12:17:39.000Z</time>
      </trkpt>
      <trkpt lat="47.13481" lon="16.08218">
        <ele>327.35153</ele>
        <time>2026-07-08T12:17:40.000Z</time>
      </trkpt>
      <trkpt lat="47.13477" lon="16.08215">
        <ele>327.080716</ele>
        <time>2026-07-08T12:17:41.000Z</time>
      </trkpt>
      <trkpt lat="47.13472" lon="16.08211">
        <ele>326.809999</ele>
        <time>2026-07-08T12:17:42.000Z</time>
      </trkpt>
      <trkpt lat="47.13467" lon="16.08207">
        <ele>326.543342</ele>
        <time>2026-07-08T12:17:43.000Z</time>
      </trkpt>
      <trkpt lat="47.13463" lon="16.08203">
        <ele>326.259428</ele>
        <time>2026-07-08T12:17:44.000Z</time>
      </trkpt>
      <trkpt lat="47.13458" lon="16.08198">
        <ele>325.971223</ele>
        <time>2026-07-08T12:17:45.000Z</time>
      </trkpt>
      <trkpt lat="47.13453" lon="16.08194">
        <ele>325.666275</ele>
        <time>2026-07-08T12:17:46.000Z</time>
      </trkpt>
      <trkpt lat="47.13448" lon="16.08189">
        <ele>325.35262</ele>
        <time>2026-07-08T12:17:47.000Z</time>
      </trkpt>
      <trkpt lat="47.13443" lon="16.08184">
        <ele>325.023253</ele>
        <time>2026-07-08T12:17:48.000Z</time>
      </trkpt>
      <trkpt lat="47.13437" lon="16.08178">
        <ele>324.685824</ele>
        <time>2026-07-08T12:17:49.000Z</time>
      </trkpt>
      <trkpt lat="47.13432" lon="16.08172">
        <ele>324.338014</ele>
        <time>2026-07-08T12:17:50.000Z</time>
      </trkpt>
      <trkpt lat="47.13427" lon="16.08166">
        <ele>323.994288</ele>
        <time>2026-07-08T12:17:51.000Z</time>
      </trkpt>
      <trkpt lat="47.13422" lon="16.0816">
        <ele>323.668262</ele>
        <time>2026-07-08T12:17:52.000Z</time>
      </trkpt>
      <trkpt lat="47.13417" lon="16.08154">
        <ele>323.332151</ele>
        <time>2026-07-08T12:17:53.000Z</time>
      </trkpt>
      <trkpt lat="47.13412" lon="16.08147">
        <ele>322.999951</ele>
        <time>2026-07-08T12:17:54.000Z</time>
      </trkpt>
      <trkpt lat="47.13407" lon="16.08141">
        <ele>322.653119</ele>
        <time>2026-07-08T12:17:55.000Z</time>
      </trkpt>
      <trkpt lat="47.13402" lon="16.08135">
        <ele>322.306876</ele>
        <time>2026-07-08T12:17:56.000Z</time>
      </trkpt>
      <trkpt lat="47.13396" lon="16.08128">
        <ele>321.956653</ele>
        <time>2026-07-08T12:17:57.000Z</time>
      </trkpt>
      <trkpt lat="47.13391" lon="16.08122">
        <ele>321.589621</ele>
        <time>2026-07-08T12:17:58.000Z</time>
      </trkpt>
      <trkpt lat="47.13385" lon="16.08114">
        <ele>321.189425</ele>
        <time>2026-07-08T12:17:59.000Z</time>
      </trkpt>
      <trkpt lat="47.13378" lon="16.08106">
        <ele>320.942181</ele>
        <time>2026-07-08T12:18:00.000Z</time>
      </trkpt>
      <trkpt lat="47.13372" lon="16.08098">
        <ele>321.002511</ele>
        <time>2026-07-08T12:18:01.000Z</time>
      </trkpt>
      <trkpt lat="47.13365" lon="16.0809">
        <ele>321.063928</ele>
        <time>2026-07-08T12:18:02.000Z</time>
      </trkpt>
      <trkpt lat="47.13357" lon="16.08082">
        <ele>321.126999</ele>
        <time>2026-07-08T12:18:03.000Z</time>
      </trkpt>
      <trkpt lat="47.1335" lon="16.08074">
        <ele>321.189515</ele>
        <time>2026-07-08T12:18:04.000Z</time>
      </trkpt>
      <trkpt lat="47.13343" lon="16.08066">
        <ele>321.252707</ele>
        <time>2026-07-08T12:18:05.000Z</time>
      </trkpt>
      <trkpt lat="47.13336" lon="16.08057">
        <ele>321.315151</ele>
        <time>2026-07-08T12:18:06.000Z</time>
      </trkpt>
      <trkpt lat="47.1333" lon="16.08048">
        <ele>321.377074</ele>
        <time>2026-07-08T12:18:07.000Z</time>
      </trkpt>
      <trkpt lat="47.13323" lon="16.0804">
        <ele>321.436627</ele>
        <time>2026-07-08T12:18:08.000Z</time>
      </trkpt>
      <trkpt lat="47.13318" lon="16.08031">
        <ele>321.493544</ele>
        <time>2026-07-08T12:18:09.000Z</time>
      </trkpt>
      <trkpt lat="47.13313" lon="16.08023">
        <ele>321.546495</ele>
        <time>2026-07-08T12:18:10.000Z</time>
      </trkpt>
      <trkpt lat="47.13308" lon="16.08014">
        <ele>321.59811</ele>
        <time>2026-07-08T12:18:11.000Z</time>
      </trkpt>
      <trkpt lat="47.13304" lon="16.08006">
        <ele>321.645308</ele>
        <time>2026-07-08T12:18:12.000Z</time>
      </trkpt>
      <trkpt lat="47.133" lon="16.07999">
        <ele>321.688677</ele>
        <time>2026-07-08T12:18:13.000Z</time>
      </trkpt>
      <trkpt lat="47.13297" lon="16.07993">
        <ele>321.724138</ele>
        <time>2026-07-08T12:18:14.000Z</time>
      </trkpt>
      <trkpt lat="47.13295" lon="16.07987">
        <ele>321.754203</ele>
        <time>2026-07-08T12:18:15.000Z</time>
      </trkpt>
      <trkpt lat="47.13294" lon="16.07983">
        <ele>321.776377</ele>
        <time>2026-07-08T12:18:16.000Z</time>
      </trkpt>
      <trkpt lat="47.13292" lon="16.07979">
        <ele>321.794755</ele>
        <time>2026-07-08T12:18:17.000Z</time>
      </trkpt>
      <trkpt lat="47.13291" lon="16.07976">
        <ele>321.810922</ele>
        <time>2026-07-08T12:18:18.000Z</time>
      </trkpt>
      <trkpt lat="47.1329" lon="16.07973">
        <ele>321.826665</ele>
        <time>2026-07-08T12:18:19.000Z</time>
      </trkpt>
      <trkpt lat="47.13289" lon="16.07971">
        <ele>321.840833</ele>
        <time>2026-07-08T12:18:20.000Z</time>
      </trkpt>
      <trkpt lat="47.13288" lon="16.07968">
        <ele>321.853301</ele>
        <time>2026-07-08T12:18:21.000Z</time>
      </trkpt>
      <trkpt lat="47.13288" lon="16.07966">
        <ele>321.864642</ele>
        <time>2026-07-08T12:18:22.000Z</time>
      </trkpt>
      <trkpt lat="47.13287" lon="16.07964">
        <ele>321.875172</ele>
        <time>2026-07-08T12:18:23.000Z</time>
      </trkpt>
      <trkpt lat="47.13286" lon="16.07962">
        <ele>321.885213</ele>
        <time>2026-07-08T12:18:24.000Z</time>
      </trkpt>
      <trkpt lat="47.13286" lon="16.0796">
        <ele>321.895697</ele>
        <time>2026-07-08T12:18:25.000Z</time>
      </trkpt>
      <trkpt lat="47.13285" lon="16.07958">
        <ele>321.907142</ele>
        <time>2026-07-08T12:18:26.000Z</time>
      </trkpt>
      <trkpt lat="47.13284" lon="16.07956">
        <ele>321.916912</ele>
        <time>2026-07-08T12:18:27.000Z</time>
      </trkpt>
      <trkpt lat="47.13284" lon="16.07954">
        <ele>321.926952</ele>
        <time>2026-07-08T12:18:28.000Z</time>
      </trkpt>
      <trkpt lat="47.13284" lon="16.07952">
        <ele>321.936603</ele>
        <time>2026-07-08T12:18:29.000Z</time>
      </trkpt>
      <trkpt lat="47.13283" lon="16.0795">
        <ele>321.946254</ele>
        <time>2026-07-08T12:18:30.000Z</time>
      </trkpt>
      <trkpt lat="47.13283" lon="16.07948">
        <ele>321.955626</ele>
        <time>2026-07-08T12:18:31.000Z</time>
      </trkpt>
      <trkpt lat="47.13283" lon="16.07947">
        <ele>321.964359</ele>
        <time>2026-07-08T12:18:32.000Z</time>
      </trkpt>
      <trkpt lat="47.13282" lon="16.07945">
        <ele>321.973086</ele>
        <time>2026-07-08T12:18:33.000Z</time>
      </trkpt>
      <trkpt lat="47.13282" lon="16.07943">
        <ele>321.980752</ele>
        <time>2026-07-08T12:18:34.000Z</time>
      </trkpt>
      <trkpt lat="47.13282" lon="16.07941">
        <ele>321.990403</ele>
        <time>2026-07-08T12:18:35.000Z</time>
      </trkpt>
      <trkpt lat="47.13281" lon="16.07939">
        <ele>321.999463</ele>
        <time>2026-07-08T12:18:36.000Z</time>
      </trkpt>
      <trkpt lat="47.13281" lon="16.07938">
        <ele>322.007284</ele>
        <time>2026-07-08T12:18:37.000Z</time>
      </trkpt>
      <trkpt lat="47.13281" lon="16.07936">
        <ele>322.017324</ele>
        <time>2026-07-08T12:18:38.000Z</time>
      </trkpt>
      <trkpt lat="47.1328" lon="16.07934">
        <ele>322.026924</ele>
        <time>2026-07-08T12:18:39.000Z</time>
      </trkpt>
      <trkpt lat="47.1328" lon="16.07932">
        <ele>322.03459</ele>
        <time>2026-07-08T12:18:40.000Z</time>
      </trkpt>
      <trkpt lat="47.1328" lon="16.0793">
        <ele>322.04365</ele>
        <time>2026-07-08T12:18:41.000Z</time>
      </trkpt>
      <trkpt lat="47.1328" lon="16.07929">
        <ele>322.052244</ele>
        <time>2026-07-08T12:18:42.000Z</time>
      </trkpt>
      <trkpt lat="47.1328" lon="16.07927">
        <ele>322.061694</ele>
        <time>2026-07-08T12:18:43.000Z</time>
      </trkpt>
      <trkpt lat="47.13279" lon="16.07924">
        <ele>322.072425</ele>
        <time>2026-07-08T12:18:44.000Z</time>
      </trkpt>
      <trkpt lat="47.13279" lon="16.07922">
        <ele>322.082076</ele>
        <time>2026-07-08T12:18:45.000Z</time>
      </trkpt>
      <trkpt lat="47.13279" lon="16.07921">
        <ele>322.089896</ele>
        <time>2026-07-08T12:18:46.000Z</time>
      </trkpt>
      <trkpt lat="47.13278" lon="16.07919">
        <ele>322.099268</ele>
        <time>2026-07-08T12:18:47.000Z</time>
      </trkpt>
      <trkpt lat="47.13278" lon="16.07917">
        <ele>322.107089</ele>
        <time>2026-07-08T12:18:48.000Z</time>
      </trkpt>
      <trkpt lat="47.13278" lon="16.07916">
        <ele>322.11496</ele>
        <time>2026-07-08T12:18:49.000Z</time>
      </trkpt>
      <trkpt lat="47.13277" lon="16.07914">
        <ele>322.121877</ele>
        <time>2026-07-08T12:18:50.000Z</time>
      </trkpt>
      <trkpt lat="47.13277" lon="16.07912">
        <ele>322.132803</ele>
        <time>2026-07-08T12:18:51.000Z</time>
      </trkpt>
      <trkpt lat="47.13277" lon="16.0791">
        <ele>322.143263</ele>
        <time>2026-07-08T12:18:52.000Z</time>
      </trkpt>
      <trkpt lat="47.13277" lon="16.07908">
        <ele>322.151745</ele>
        <time>2026-07-08T12:18:53.000Z</time>
      </trkpt>
      <trkpt lat="47.13277" lon="16.07906">
        <ele>322.162135</ele>
        <time>2026-07-08T12:18:54.000Z</time>
      </trkpt>
      <trkpt lat="47.13276" lon="16.07904">
        <ele>322.223154</ele>
        <time>2026-07-08T12:18:55.000Z</time>
      </trkpt>
      <trkpt lat="47.13276" lon="16.07903">
        <ele>322.309007</ele>
        <time>2026-07-08T12:18:56.000Z</time>
      </trkpt>
      <trkpt lat="47.13275" lon="16.07901">
        <ele>322.431501</ele>
        <time>2026-07-08T12:18:57.000Z</time>
      </trkpt>
      <trkpt lat="47.13275" lon="16.07899">
        <ele>322.548617</ele>
        <time>2026-07-08T12:18:58.000Z</time>
      </trkpt>
      <trkpt lat="47.13275" lon="16.07897">
        <ele>322.666356</ele>
        <time>2026-07-08T12:18:59.000Z</time>
      </trkpt>
      <trkpt lat="47.13274" lon="16.07895">
        <ele>322.761767</ele>
        <time>2026-07-08T12:19:00.000Z</time>
      </trkpt>
      <trkpt lat="47.13274" lon="16.07894">
        <ele>322.860949</ele>
        <time>2026-07-08T12:19:01.000Z</time>
      </trkpt>
      <trkpt lat="47.13274" lon="16.07892">
        <ele>322.975926</ele>
        <time>2026-07-08T12:19:02.000Z</time>
      </trkpt>
      <trkpt lat="47.13274" lon="16.0789">
        <ele>323.082465</ele>
        <time>2026-07-08T12:19:03.000Z</time>
      </trkpt>
      <trkpt lat="47.13273" lon="16.07888">
        <ele>323.199581</ele>
        <time>2026-07-08T12:19:04.000Z</time>
      </trkpt>
      <trkpt lat="47.13273" lon="16.07886">
        <ele>323.300803</ele>
        <time>2026-07-08T12:19:05.000Z</time>
      </trkpt>
      <trkpt lat="47.13272" lon="16.07885">
        <ele>323.415041</ele>
        <time>2026-07-08T12:19:06.000Z</time>
      </trkpt>
      <trkpt lat="47.13271" lon="16.07883">
        <ele>323.548421</ele>
        <time>2026-07-08T12:19:07.000Z</time>
      </trkpt>
      <trkpt lat="47.13271" lon="16.07881">
        <ele>323.667614</ele>
        <time>2026-07-08T12:19:08.000Z</time>
      </trkpt>
      <trkpt lat="47.1327" lon="16.07879">
        <ele>323.791832</ele>
        <time>2026-07-08T12:19:09.000Z</time>
      </trkpt>
      <trkpt lat="47.13269" lon="16.07877">
        <ele>323.919738</ele>
        <time>2026-07-08T12:19:10.000Z</time>
      </trkpt>
      <trkpt lat="47.13269" lon="16.07875">
        <ele>324.037477</ele>
        <time>2026-07-08T12:19:11.000Z</time>
      </trkpt>
      <trkpt lat="47.13269" lon="16.07872">
        <ele>324.176481</ele>
        <time>2026-07-08T12:19:12.000Z</time>
      </trkpt>
      <trkpt lat="47.13269" lon="16.0787">
        <ele>324.29422</ele>
        <time>2026-07-08T12:19:13.000Z</time>
      </trkpt>
      <trkpt lat="47.13268" lon="16.07868">
        <ele>324.411959</ele>
        <time>2026-07-08T12:19:14.000Z</time>
      </trkpt>
      <trkpt lat="47.13268" lon="16.07866">
        <ele>324.541261</ele>
        <time>2026-07-08T12:19:15.000Z</time>
      </trkpt>
      <trkpt lat="47.13267" lon="16.07865">
        <ele>324.637289</ele>
        <time>2026-07-08T12:19:16.000Z</time>
      </trkpt>
      <trkpt lat="47.13266" lon="16.07863">
        <ele>324.756482</ele>
        <time>2026-07-08T12:19:17.000Z</time>
      </trkpt>
      <trkpt lat="47.13266" lon="16.07861">
        <ele>324.862956</ele>
        <time>2026-07-08T12:19:18.000Z</time>
      </trkpt>
      <trkpt lat="47.13265" lon="16.07859">
        <ele>324.988616</ele>
        <time>2026-07-08T12:19:19.000Z</time>
      </trkpt>
      <trkpt lat="47.13265" lon="16.07858">
        <ele>325.10039</ele>
        <time>2026-07-08T12:19:20.000Z</time>
      </trkpt>
      <trkpt lat="47.13264" lon="16.07856">
        <ele>325.219583</ele>
        <time>2026-07-08T12:19:21.000Z</time>
      </trkpt>
      <trkpt lat="47.13264" lon="16.07854">
        <ele>325.336699</ele>
        <time>2026-07-08T12:19:22.000Z</time>
      </trkpt>
      <trkpt lat="47.13263" lon="16.07852">
        <ele>325.443239</ele>
        <time>2026-07-08T12:19:23.000Z</time>
      </trkpt>
      <trkpt lat="47.13263" lon="16.0785">
        <ele>325.549712</ele>
        <time>2026-07-08T12:19:24.000Z</time>
      </trkpt>
      <trkpt lat="47.13262" lon="16.07849">
        <ele>325.659073</ele>
        <time>2026-07-08T12:19:25.000Z</time>
      </trkpt>
      <trkpt lat="47.13261" lon="16.07847">
        <ele>325.773311</ele>
        <time>2026-07-08T12:19:26.000Z</time>
      </trkpt>
      <trkpt lat="47.13261" lon="16.07845">
        <ele>325.883412</ele>
        <time>2026-07-08T12:19:27.000Z</time>
      </trkpt>
      <trkpt lat="47.1326" lon="16.07844">
        <ele>325.987984</ele>
        <time>2026-07-08T12:19:28.000Z</time>
      </trkpt>
      <trkpt lat="47.13259" lon="16.07842">
        <ele>326.097344</ele>
        <time>2026-07-08T12:19:29.000Z</time>
      </trkpt>
      <trkpt lat="47.13259" lon="16.07841">
        <ele>326.216179</ele>
        <time>2026-07-08T12:19:30.000Z</time>
      </trkpt>
      <trkpt lat="47.13258" lon="16.07839">
        <ele>326.330417</ele>
        <time>2026-07-08T12:19:31.000Z</time>
      </trkpt>
      <trkpt lat="47.13257" lon="16.07837">
        <ele>326.464018</ele>
        <time>2026-07-08T12:19:32.000Z</time>
      </trkpt>
      <trkpt lat="47.13256" lon="16.07835">
        <ele>326.587623</ele>
        <time>2026-07-08T12:19:33.000Z</time>
      </trkpt>
      <trkpt lat="47.13255" lon="16.07834">
        <ele>326.706457</ele>
        <time>2026-07-08T12:19:34.000Z</time>
      </trkpt>
      <trkpt lat="47.13254" lon="16.07832">
        <ele>326.827193</ele>
        <time>2026-07-08T12:19:35.000Z</time>
      </trkpt>
      <trkpt lat="47.13253" lon="16.0783">
        <ele>326.95103</ele>
        <time>2026-07-08T12:19:36.000Z</time>
      </trkpt>
      <trkpt lat="47.13252" lon="16.07829">
        <ele>327.063842</ele>
        <time>2026-07-08T12:19:37.000Z</time>
      </trkpt>
      <trkpt lat="47.13252" lon="16.07828">
        <ele>327.164617</ele>
        <time>2026-07-08T12:19:38.000Z</time>
      </trkpt>
      <trkpt lat="47.13251" lon="16.07826">
        <ele>327.288834</ele>
        <time>2026-07-08T12:19:39.000Z</time>
      </trkpt>
      <trkpt lat="47.1325" lon="16.07824">
        <ele>327.398408</ele>
        <time>2026-07-08T12:19:40.000Z</time>
      </trkpt>
      <trkpt lat="47.13249" lon="16.07823">
        <ele>327.507982</ele>
        <time>2026-07-08T12:19:41.000Z</time>
      </trkpt>
      <trkpt lat="47.13248" lon="16.07821">
        <ele>327.628718</ele>
        <time>2026-07-08T12:19:42.000Z</time>
      </trkpt>
      <trkpt lat="47.13247" lon="16.0782">
        <ele>327.754688</ele>
        <time>2026-07-08T12:19:43.000Z</time>
      </trkpt>
      <trkpt lat="47.13246" lon="16.07819">
        <ele>327.878677</ele>
        <time>2026-07-08T12:19:44.000Z</time>
      </trkpt>
      <trkpt lat="47.13245" lon="16.07818">
        <ele>327.985306</ele>
        <time>2026-07-08T12:19:45.000Z</time>
      </trkpt>
      <trkpt lat="47.13244" lon="16.07816">
        <ele>328.09488</ele>
        <time>2026-07-08T12:19:46.000Z</time>
      </trkpt>
      <trkpt lat="47.13243" lon="16.07815">
        <ele>328.215616</ele>
        <time>2026-07-08T12:19:47.000Z</time>
      </trkpt>
      <trkpt lat="47.13242" lon="16.07813">
        <ele>328.348996</ele>
        <time>2026-07-08T12:19:48.000Z</time>
      </trkpt>
      <trkpt lat="47.13242" lon="16.07811">
        <ele>328.473213</ele>
        <time>2026-07-08T12:19:49.000Z</time>
      </trkpt>
      <trkpt lat="47.13241" lon="16.07809">
        <ele>328.59812</ele>
        <time>2026-07-08T12:19:50.000Z</time>
      </trkpt>
      <trkpt lat="47.1324" lon="16.07808">
        <ele>328.718857</ele>
        <time>2026-07-08T12:19:51.000Z</time>
      </trkpt>
      <trkpt lat="47.13239" lon="16.07806">
        <ele>328.837691</ele>
        <time>2026-07-08T12:19:52.000Z</time>
      </trkpt>
      <trkpt lat="47.13238" lon="16.07804">
        <ele>328.966114</ele>
        <time>2026-07-08T12:19:53.000Z</time>
      </trkpt>
      <trkpt lat="47.13237" lon="16.07802">
        <ele>329.109524</ele>
        <time>2026-07-08T12:19:54.000Z</time>
      </trkpt>
      <trkpt lat="47.13236" lon="16.078">
        <ele>329.238826</ele>
        <time>2026-07-08T12:19:55.000Z</time>
      </trkpt>
      <trkpt lat="47.13235" lon="16.07798">
        <ele>329.372426</ele>
        <time>2026-07-08T12:19:56.000Z</time>
      </trkpt>
      <trkpt lat="47.13234" lon="16.07797">
        <ele>329.501626</ele>
        <time>2026-07-08T12:19:57.000Z</time>
      </trkpt>
      <trkpt lat="47.13233" lon="16.07795">
        <ele>329.630825</ele>
        <time>2026-07-08T12:19:58.000Z</time>
      </trkpt>
      <trkpt lat="47.13232" lon="16.07793">
        <ele>329.755732</ele>
        <time>2026-07-08T12:19:59.000Z</time>
      </trkpt>
      <trkpt lat="47.13231" lon="16.07792">
        <ele>329.878689</ele>
        <time>2026-07-08T12:20:00.000Z</time>
      </trkpt>
      <trkpt lat="47.1323" lon="16.0779">
        <ele>330.015597</ele>
        <time>2026-07-08T12:20:01.000Z</time>
      </trkpt>
      <trkpt lat="47.13229" lon="16.07788">
        <ele>330.168904</ele>
        <time>2026-07-08T12:20:02.000Z</time>
      </trkpt>
      <trkpt lat="47.13228" lon="16.07786">
        <ele>330.312314</ele>
        <time>2026-07-08T12:20:03.000Z</time>
      </trkpt>
      <trkpt lat="47.13227" lon="16.07784">
        <ele>330.445694</ele>
        <time>2026-07-08T12:20:04.000Z</time>
      </trkpt>
      <trkpt lat="47.13226" lon="16.07782">
        <ele>330.593276</ele>
        <time>2026-07-08T12:20:05.000Z</time>
      </trkpt>
      <trkpt lat="47.13226" lon="16.0778">
        <ele>330.731642</ele>
        <time>2026-07-08T12:20:06.000Z</time>
      </trkpt>
      <trkpt lat="47.13225" lon="16.07778">
        <ele>330.875053</ele>
        <time>2026-07-08T12:20:07.000Z</time>
      </trkpt>
      <trkpt lat="47.13224" lon="16.07775">
        <ele>331.02759</ele>
        <time>2026-07-08T12:20:08.000Z</time>
      </trkpt>
      <trkpt lat="47.13223" lon="16.07773">
        <ele>331.163851</ele>
        <time>2026-07-08T12:20:09.000Z</time>
      </trkpt>
      <trkpt lat="47.13223" lon="16.07771">
        <ele>331.308704</ele>
        <time>2026-07-08T12:20:10.000Z</time>
      </trkpt>
      <trkpt lat="47.13222" lon="16.07768">
        <ele>331.46235</ele>
        <time>2026-07-08T12:20:11.000Z</time>
      </trkpt>
      <trkpt lat="47.13221" lon="16.07766">
        <ele>331.601162</ele>
        <time>2026-07-08T12:20:12.000Z</time>
      </trkpt>
      <trkpt lat="47.13221" lon="16.07764">
        <ele>331.746016</ele>
        <time>2026-07-08T12:20:13.000Z</time>
      </trkpt>
      <trkpt lat="47.1322" lon="16.07761">
        <ele>331.907811</ele>
        <time>2026-07-08T12:20:14.000Z</time>
      </trkpt>
      <trkpt lat="47.13219" lon="16.07759">
        <ele>332.055175</ele>
        <time>2026-07-08T12:20:15.000Z</time>
      </trkpt>
      <trkpt lat="47.13218" lon="16.07757">
        <ele>332.198585</ele>
        <time>2026-07-08T12:20:16.000Z</time>
      </trkpt>
      <trkpt lat="47.13217" lon="16.07755">
        <ele>332.350695</ele>
        <time>2026-07-08T12:20:17.000Z</time>
      </trkpt>
      <trkpt lat="47.13216" lon="16.07753">
        <ele>332.495549</ele>
        <time>2026-07-08T12:20:18.000Z</time>
      </trkpt>
      <trkpt lat="47.13215" lon="16.0775">
        <ele>332.654377</ele>
        <time>2026-07-08T12:20:19.000Z</time>
      </trkpt>
      <trkpt lat="47.13215" lon="16.07748">
        <ele>332.809797</ele>
        <time>2026-07-08T12:20:20.000Z</time>
      </trkpt>
      <trkpt lat="47.13214" lon="16.07745">
        <ele>332.953208</ele>
        <time>2026-07-08T12:20:21.000Z</time>
      </trkpt>
      <trkpt lat="47.13213" lon="16.07743">
        <ele>333.0959</ele>
        <time>2026-07-08T12:20:22.000Z</time>
      </trkpt>
      <trkpt lat="47.13212" lon="16.07741">
        <ele>333.248438</ele>
        <time>2026-07-08T12:20:23.000Z</time>
      </trkpt>
      <trkpt lat="47.13211" lon="16.07739">
        <ele>333.381785</ele>
        <time>2026-07-08T12:20:24.000Z</time>
      </trkpt>
      <trkpt lat="47.13211" lon="16.07737">
        <ele>333.512727</ele>
        <time>2026-07-08T12:20:25.000Z</time>
      </trkpt>
      <trkpt lat="47.1321" lon="16.07735">
        <ele>333.650584</ele>
        <time>2026-07-08T12:20:26.000Z</time>
      </trkpt>
      <trkpt lat="47.13209" lon="16.07733">
        <ele>333.793276</ele>
        <time>2026-07-08T12:20:27.000Z</time>
      </trkpt>
      <trkpt lat="47.13208" lon="16.07731">
        <ele>333.935968</ele>
        <time>2026-07-08T12:20:28.000Z</time>
      </trkpt>
      <trkpt lat="47.13207" lon="16.07729">
        <ele>334.072229</ele>
        <time>2026-07-08T12:20:29.000Z</time>
      </trkpt>
      <trkpt lat="47.13206" lon="16.07726">
        <ele>334.219811</ele>
        <time>2026-07-08T12:20:30.000Z</time>
      </trkpt>
      <trkpt lat="47.13206" lon="16.07724">
        <ele>334.350754</ele>
        <time>2026-07-08T12:20:31.000Z</time>
      </trkpt>
      <trkpt lat="47.13205" lon="16.07722">
        <ele>334.498336</ele>
        <time>2026-07-08T12:20:32.000Z</time>
      </trkpt>
      <trkpt lat="47.13204" lon="16.0772">
        <ele>334.631684</ele>
        <time>2026-07-08T12:20:33.000Z</time>
      </trkpt>
      <trkpt lat="47.13204" lon="16.07718">
        <ele>334.780189</ele>
        <time>2026-07-08T12:20:34.000Z</time>
      </trkpt>
      <trkpt lat="47.13203" lon="16.07715">
        <ele>334.928694</ele>
        <time>2026-07-08T12:20:35.000Z</time>
      </trkpt>
      <trkpt lat="47.13202" lon="16.07713">
        <ele>335.080804</ele>
        <time>2026-07-08T12:20:36.000Z</time>
      </trkpt>
      <trkpt lat="47.13201" lon="16.07711">
        <ele>335.228387</ele>
        <time>2026-07-08T12:20:37.000Z</time>
      </trkpt>
      <trkpt lat="47.132" lon="16.07709">
        <ele>335.366754</ele>
        <time>2026-07-08T12:20:38.000Z</time>
      </trkpt>
      <trkpt lat="47.13199" lon="16.07707">
        <ele>335.510164</ele>
        <time>2026-07-08T12:20:39.000Z</time>
      </trkpt>
      <trkpt lat="47.13198" lon="16.07704">
        <ele>335.657747</ele>
        <time>2026-07-08T12:20:40.000Z</time>
      </trkpt>
      <trkpt lat="47.13198" lon="16.07702">
        <ele>335.796114</ele>
        <time>2026-07-08T12:20:41.000Z</time>
      </trkpt>
      <trkpt lat="47.13197" lon="16.077">
        <ele>335.929494</ele>
        <time>2026-07-08T12:20:42.000Z</time>
      </trkpt>
      <trkpt lat="47.13196" lon="16.07698">
        <ele>336.087042</ele>
        <time>2026-07-08T12:20:43.000Z</time>
      </trkpt>
      <trkpt lat="47.13195" lon="16.07696">
        <ele>336.225409</ele>
        <time>2026-07-08T12:20:44.000Z</time>
      </trkpt>
      <trkpt lat="47.13194" lon="16.07694">
        <ele>336.377519</ele>
        <time>2026-07-08T12:20:45.000Z</time>
      </trkpt>
      <trkpt lat="47.13193" lon="16.07692">
        <ele>336.510899</ele>
        <time>2026-07-08T12:20:46.000Z</time>
      </trkpt>
      <trkpt lat="47.13192" lon="16.07689">
        <ele>336.658482</ele>
        <time>2026-07-08T12:20:47.000Z</time>
      </trkpt>
      <trkpt lat="47.13192" lon="16.07687">
        <ele>336.789425</ele>
        <time>2026-07-08T12:20:48.000Z</time>
      </trkpt>
      <trkpt lat="47.13191" lon="16.07685">
        <ele>336.922773</ele>
        <time>2026-07-08T12:20:49.000Z</time>
      </trkpt>
      <trkpt lat="47.13191" lon="16.07683">
        <ele>337.053689</ele>
        <time>2026-07-08T12:20:50.000Z</time>
      </trkpt>
      <trkpt lat="47.1319" lon="16.07681">
        <ele>337.187069</ele>
        <time>2026-07-08T12:20:51.000Z</time>
      </trkpt>
      <trkpt lat="47.13189" lon="16.07679">
        <ele>337.331924</ele>
        <time>2026-07-08T12:20:52.000Z</time>
      </trkpt>
      <trkpt lat="47.13189" lon="16.07676">
        <ele>337.405654</ele>
        <time>2026-07-08T12:20:53.000Z</time>
      </trkpt>
      <trkpt lat="47.13188" lon="16.07674">
        <ele>337.455303</ele>
        <time>2026-07-08T12:20:54.000Z</time>
      </trkpt>
      <trkpt lat="47.13187" lon="16.07672">
        <ele>337.505201</ele>
        <time>2026-07-08T12:20:55.000Z</time>
      </trkpt>
      <trkpt lat="47.13186" lon="16.0767">
        <ele>337.558276</ele>
        <time>2026-07-08T12:20:56.000Z</time>
      </trkpt>
      <trkpt lat="47.13185" lon="16.07668">
        <ele>337.607925</ele>
        <time>2026-07-08T12:20:57.000Z</time>
      </trkpt>
      <trkpt lat="47.13184" lon="16.07666">
        <ele>337.660851</ele>
        <time>2026-07-08T12:20:58.000Z</time>
      </trkpt>
      <trkpt lat="47.13183" lon="16.07663">
        <ele>337.713776</ele>
        <time>2026-07-08T12:20:59.000Z</time>
      </trkpt>
      <trkpt lat="47.13182" lon="16.07661">
        <ele>337.765051</ele>
        <time>2026-07-08T12:21:00.000Z</time>
      </trkpt>
      <trkpt lat="47.13181" lon="16.07659">
        <ele>337.809747</ele>
        <time>2026-07-08T12:21:01.000Z</time>
      </trkpt>
      <trkpt lat="47.1318" lon="16.07658">
        <ele>337.852755</ele>
        <time>2026-07-08T12:21:02.000Z</time>
      </trkpt>
      <trkpt lat="47.1318" lon="16.07656">
        <ele>337.895377</ele>
        <time>2026-07-08T12:21:03.000Z</time>
      </trkpt>
      <trkpt lat="47.13179" lon="16.07653">
        <ele>337.943959</ele>
        <time>2026-07-08T12:21:04.000Z</time>
      </trkpt>
      <trkpt lat="47.13178" lon="16.07651">
        <ele>337.990368</ele>
        <time>2026-07-08T12:21:05.000Z</time>
      </trkpt>
      <trkpt lat="47.13177" lon="16.07649">
        <ele>338.043443</ele>
        <time>2026-07-08T12:21:06.000Z</time>
      </trkpt>
      <trkpt lat="47.13177" lon="16.07647">
        <ele>338.095115</ele>
        <time>2026-07-08T12:21:07.000Z</time>
      </trkpt>
      <trkpt lat="47.13175" lon="16.07645">
        <ele>338.15152</ele>
        <time>2026-07-08T12:21:08.000Z</time>
      </trkpt>
      <trkpt lat="47.13175" lon="16.07642">
        <ele>338.203191</ele>
        <time>2026-07-08T12:21:09.000Z</time>
      </trkpt>
      <trkpt lat="47.13174" lon="16.0764">
        <ele>338.2534</ele>
        <time>2026-07-08T12:21:10.000Z</time>
      </trkpt>
      <trkpt lat="47.13174" lon="16.07637">
        <ele>338.305524</ele>
        <time>2026-07-08T12:21:11.000Z</time>
      </trkpt>
      <trkpt lat="47.13173" lon="16.07635">
        <ele>338.357648</ele>
        <time>2026-07-08T12:21:12.000Z</time>
      </trkpt>
      <trkpt lat="47.13172" lon="16.07632">
        <ele>338.411725</ele>
        <time>2026-07-08T12:21:13.000Z</time>
      </trkpt>
      <trkpt lat="47.13172" lon="16.0763">
        <ele>338.463397</ele>
        <time>2026-07-08T12:21:14.000Z</time>
      </trkpt>
      <trkpt lat="47.13171" lon="16.07628">
        <ele>338.515069</ele>
        <time>2026-07-08T12:21:15.000Z</time>
      </trkpt>
      <trkpt lat="47.1317" lon="16.07625">
        <ele>338.57308</ele>
        <time>2026-07-08T12:21:16.000Z</time>
      </trkpt>
      <trkpt lat="47.13169" lon="16.07623">
        <ele>338.634574</ele>
        <time>2026-07-08T12:21:17.000Z</time>
      </trkpt>
      <trkpt lat="47.13168" lon="16.0762">
        <ele>338.699086</ele>
        <time>2026-07-08T12:21:18.000Z</time>
      </trkpt>
      <trkpt lat="47.13166" lon="16.07617">
        <ele>338.760288</ele>
        <time>2026-07-08T12:21:19.000Z</time>
      </trkpt>
      <trkpt lat="47.13166" lon="16.07615">
        <ele>338.815552</ele>
        <time>2026-07-08T12:21:20.000Z</time>
      </trkpt>
      <trkpt lat="47.13165" lon="16.07613">
        <ele>338.863696</ele>
        <time>2026-07-08T12:21:21.000Z</time>
      </trkpt>
      <trkpt lat="47.13164" lon="16.07611">
        <ele>338.916622</ele>
        <time>2026-07-08T12:21:22.000Z</time>
      </trkpt>
      <trkpt lat="47.13163" lon="16.07608">
        <ele>338.9707</ele>
        <time>2026-07-08T12:21:23.000Z</time>
      </trkpt>
      <trkpt lat="47.13162" lon="16.07605">
        <ele>339.029608</ele>
        <time>2026-07-08T12:21:24.000Z</time>
      </trkpt>
      <trkpt lat="47.13161" lon="16.07603">
        <ele>339.086186</ele>
        <time>2026-07-08T12:21:25.000Z</time>
      </trkpt>
      <trkpt lat="47.13161" lon="16.076">
        <ele>339.14145</ele>
        <time>2026-07-08T12:21:26.000Z</time>
      </trkpt>
      <trkpt lat="47.1316" lon="16.07598">
        <ele>339.192725</ele>
        <time>2026-07-08T12:21:27.000Z</time>
      </trkpt>
      <trkpt lat="47.13159" lon="16.07596">
        <ele>339.237715</ele>
        <time>2026-07-08T12:21:28.000Z</time>
      </trkpt>
      <trkpt lat="47.13158" lon="16.07594">
        <ele>339.279616</ele>
        <time>2026-07-08T12:21:29.000Z</time>
      </trkpt>
      <trkpt lat="47.13157" lon="16.07592">
        <ele>339.329263</ele>
        <time>2026-07-08T12:21:30.000Z</time>
      </trkpt>
      <trkpt lat="47.13157" lon="16.0759">
        <ele>339.385237</ele>
        <time>2026-07-08T12:21:31.000Z</time>
      </trkpt>
      <trkpt lat="47.13156" lon="16.07587">
        <ele>339.440501</ele>
        <time>2026-07-08T12:21:32.000Z</time>
      </trkpt>
      <trkpt lat="47.13155" lon="16.07585">
        <ele>339.493427</ele>
        <time>2026-07-08T12:21:33.000Z</time>
      </trkpt>
      <trkpt lat="47.13154" lon="16.07582">
        <ele>339.550507</ele>
        <time>2026-07-08T12:21:34.000Z</time>
      </trkpt>
      <trkpt lat="47.13153" lon="16.0758">
        <ele>339.61065</ele>
        <time>2026-07-08T12:21:35.000Z</time>
      </trkpt>
      <trkpt lat="47.13153" lon="16.07577">
        <ele>339.662322</ele>
        <time>2026-07-08T12:21:36.000Z</time>
      </trkpt>
      <trkpt lat="47.13152" lon="16.07575">
        <ele>339.712221</ele>
        <time>2026-07-08T12:21:37.000Z</time>
      </trkpt>
      <trkpt lat="47.13151" lon="16.07573">
        <ele>339.770201</ele>
        <time>2026-07-08T12:21:38.000Z</time>
      </trkpt>
      <trkpt lat="47.1315" lon="16.0757">
        <ele>339.823661</ele>
        <time>2026-07-08T12:21:39.000Z</time>
      </trkpt>
      <trkpt lat="47.13149" lon="16.07568">
        <ele>339.878262</ele>
        <time>2026-07-08T12:21:40.000Z</time>
      </trkpt>
      <trkpt lat="47.13148" lon="16.07565">
        <ele>339.938405</ele>
        <time>2026-07-08T12:21:41.000Z</time>
      </trkpt>
      <trkpt lat="47.13147" lon="16.07563">
        <ele>339.993669</ele>
        <time>2026-07-08T12:21:42.000Z</time>
      </trkpt>
      <trkpt lat="47.13146" lon="16.0756">
        <ele>340.047747</ele>
        <time>2026-07-08T12:21:43.000Z</time>
      </trkpt>
      <trkpt lat="47.13146" lon="16.07558">
        <ele>340.100776</ele>
        <time>2026-07-08T12:21:44.000Z</time>
      </trkpt>
      <trkpt lat="47.13145" lon="16.07555">
        <ele>340.157354</ele>
        <time>2026-07-08T12:21:45.000Z</time>
      </trkpt>
      <trkpt lat="47.13144" lon="16.07553">
        <ele>340.215365</ele>
        <time>2026-07-08T12:21:46.000Z</time>
      </trkpt>
      <trkpt lat="47.13143" lon="16.07551">
        <ele>340.267037</ele>
        <time>2026-07-08T12:21:47.000Z</time>
      </trkpt>
      <trkpt lat="47.13142" lon="16.07548">
        <ele>340.33155</ele>
        <time>2026-07-08T12:21:48.000Z</time>
      </trkpt>
      <trkpt lat="47.13141" lon="16.07545">
        <ele>340.386814</ele>
        <time>2026-07-08T12:21:49.000Z</time>
      </trkpt>
      <trkpt lat="47.1314" lon="16.07543">
        <ele>340.449661</ele>
        <time>2026-07-08T12:21:50.000Z</time>
      </trkpt>
      <trkpt lat="47.13139" lon="16.0754">
        <ele>340.50857</ele>
        <time>2026-07-08T12:21:51.000Z</time>
      </trkpt>
      <trkpt lat="47.13138" lon="16.07537">
        <ele>340.567479</ele>
        <time>2026-07-08T12:21:52.000Z</time>
      </trkpt>
      <trkpt lat="47.13137" lon="16.07535">
        <ele>340.630327</ele>
        <time>2026-07-08T12:21:53.000Z</time>
      </trkpt>
      <trkpt lat="47.13136" lon="16.07532">
        <ele>340.69182</ele>
        <time>2026-07-08T12:21:54.000Z</time>
      </trkpt>
      <trkpt lat="47.13135" lon="16.07529">
        <ele>340.752568</ele>
        <time>2026-07-08T12:21:55.000Z</time>
      </trkpt>
      <trkpt lat="47.13134" lon="16.07527">
        <ele>340.812712</ele>
        <time>2026-07-08T12:21:56.000Z</time>
      </trkpt>
      <trkpt lat="47.13133" lon="16.07524">
        <ele>340.880883</ele>
        <time>2026-07-08T12:21:57.000Z</time>
      </trkpt>
      <trkpt lat="47.13132" lon="16.0752">
        <ele>340.955732</ele>
        <time>2026-07-08T12:21:58.000Z</time>
      </trkpt>
      <trkpt lat="47.13131" lon="16.07517">
        <ele>341.030205</ele>
        <time>2026-07-08T12:21:59.000Z</time>
      </trkpt>
      <trkpt lat="47.13129" lon="16.07514">
        <ele>341.101355</ele>
        <time>2026-07-08T12:22:00.000Z</time>
      </trkpt>
      <trkpt lat="47.13128" lon="16.07511">
        <ele>341.180853</ele>
        <time>2026-07-08T12:22:01.000Z</time>
      </trkpt>
      <trkpt lat="47.13126" lon="16.07507">
        <ele>341.263599</ele>
        <time>2026-07-08T12:22:02.000Z</time>
      </trkpt>
      <trkpt lat="47.13125" lon="16.07504">
        <ele>341.344658</ele>
        <time>2026-07-08T12:22:03.000Z</time>
      </trkpt>
      <trkpt lat="47.13124" lon="16.07501">
        <ele>341.423058</ele>
        <time>2026-07-08T12:22:04.000Z</time>
      </trkpt>
      <trkpt lat="47.13122" lon="16.07497">
        <ele>341.502447</ele>
        <time>2026-07-08T12:22:05.000Z</time>
      </trkpt>
      <trkpt lat="47.13121" lon="16.07494">
        <ele>341.583507</ele>
        <time>2026-07-08T12:22:06.000Z</time>
      </trkpt>
      <trkpt lat="47.13119" lon="16.0749">
        <ele>341.667952</ele>
        <time>2026-07-08T12:22:07.000Z</time>
      </trkpt>
      <trkpt lat="47.13117" lon="16.07487">
        <ele>341.755717</ele>
        <time>2026-07-08T12:22:08.000Z</time>
      </trkpt>
      <trkpt lat="47.13115" lon="16.07483">
        <ele>341.85167</ele>
        <time>2026-07-08T12:22:09.000Z</time>
      </trkpt>
      <trkpt lat="47.13113" lon="16.07479">
        <ele>341.947775</ele>
        <time>2026-07-08T12:22:10.000Z</time>
      </trkpt>
      <trkpt lat="47.13111" lon="16.07476">
        <ele>342.042277</ele>
        <time>2026-07-08T12:22:11.000Z</time>
      </trkpt>
      <trkpt lat="47.13109" lon="16.07472">
        <ele>342.142533</ele>
        <time>2026-07-08T12:22:12.000Z</time>
      </trkpt>
      <trkpt lat="47.13106" lon="16.07468">
        <ele>342.25107</ele>
        <time>2026-07-08T12:22:13.000Z</time>
      </trkpt>
      <trkpt lat="47.13103" lon="16.07465">
        <ele>342.358253</ele>
        <time>2026-07-08T12:22:14.000Z</time>
      </trkpt>
      <trkpt lat="47.13101" lon="16.07461">
        <ele>342.471672</ele>
        <time>2026-07-08T12:22:15.000Z</time>
      </trkpt>
      <trkpt lat="47.13098" lon="16.07457">
        <ele>342.583725</ele>
        <time>2026-07-08T12:22:16.000Z</time>
      </trkpt>
      <trkpt lat="47.13095" lon="16.07454">
        <ele>342.655988</ele>
        <time>2026-07-08T12:22:17.000Z</time>
      </trkpt>
      <trkpt lat="47.13092" lon="16.0745">
        <ele>342.660908</ele>
        <time>2026-07-08T12:22:18.000Z</time>
      </trkpt>
      <trkpt lat="47.13089" lon="16.07446">
        <ele>342.666231</ele>
        <time>2026-07-08T12:22:19.000Z</time>
      </trkpt>
      <trkpt lat="47.13086" lon="16.07443">
        <ele>342.671332</ele>
        <time>2026-07-08T12:22:20.000Z</time>
      </trkpt>
      <trkpt lat="47.13084" lon="16.07439">
        <ele>342.676513</ele>
        <time>2026-07-08T12:22:21.000Z</time>
      </trkpt>
      <trkpt lat="47.13081" lon="16.07435">
        <ele>342.681896</ele>
        <time>2026-07-08T12:22:22.000Z</time>
      </trkpt>
      <trkpt lat="47.13078" lon="16.07432">
        <ele>342.687015</ele>
        <time>2026-07-08T12:22:23.000Z</time>
      </trkpt>
      <trkpt lat="47.13075" lon="16.07428">
        <ele>342.692338</ele>
        <time>2026-07-08T12:22:24.000Z</time>
      </trkpt>
      <trkpt lat="47.13072" lon="16.07424">
        <ele>342.697931</ele>
        <time>2026-07-08T12:22:25.000Z</time>
      </trkpt>
      <trkpt lat="47.13069" lon="16.0742">
        <ele>342.703314</ele>
        <time>2026-07-08T12:22:26.000Z</time>
      </trkpt>
      <trkpt lat="47.13065" lon="16.07416">
        <ele>342.708965</ele>
        <time>2026-07-08T12:22:27.000Z</time>
      </trkpt>
      <trkpt lat="47.13062" lon="16.07412">
        <ele>342.714572</ele>
        <time>2026-07-08T12:22:28.000Z</time>
      </trkpt>
      <trkpt lat="47.13059" lon="16.07409">
        <ele>342.720165</ele>
        <time>2026-07-08T12:22:29.000Z</time>
      </trkpt>
      <trkpt lat="47.13056" lon="16.07405">
        <ele>342.725587</ele>
        <time>2026-07-08T12:22:30.000Z</time>
      </trkpt>
      <trkpt lat="47.13053" lon="16.07401">
        <ele>342.73097</ele>
        <time>2026-07-08T12:22:31.000Z</time>
      </trkpt>
      <trkpt lat="47.1305" lon="16.07398">
        <ele>342.736399</ele>
        <time>2026-07-08T12:22:32.000Z</time>
      </trkpt>
      <trkpt lat="47.13047" lon="16.07394">
        <ele>342.741619</ele>
        <time>2026-07-08T12:22:33.000Z</time>
      </trkpt>
      <trkpt lat="47.13044" lon="16.0739">
        <ele>342.747003</ele>
        <time>2026-07-08T12:22:34.000Z</time>
      </trkpt>
      <trkpt lat="47.13041" lon="16.07386">
        <ele>342.752254</ele>
        <time>2026-07-08T12:22:35.000Z</time>
      </trkpt>
      <trkpt lat="47.13039" lon="16.07382">
        <ele>342.757187</ele>
        <time>2026-07-08T12:22:36.000Z</time>
      </trkpt>
      <trkpt lat="47.13037" lon="16.07378">
        <ele>342.76203</ele>
        <time>2026-07-08T12:22:37.000Z</time>
      </trkpt>
      <trkpt lat="47.13034" lon="16.07374">
        <ele>342.766945</ele>
        <time>2026-07-08T12:22:38.000Z</time>
      </trkpt>
      <trkpt lat="47.13032" lon="16.07369">
        <ele>342.772161</ele>
        <time>2026-07-08T12:22:39.000Z</time>
      </trkpt>
      <trkpt lat="47.13029" lon="16.07365">
        <ele>342.777392</ele>
        <time>2026-07-08T12:22:40.000Z</time>
      </trkpt>
      <trkpt lat="47.13027" lon="16.07361">
        <ele>342.782439</ele>
        <time>2026-07-08T12:22:41.000Z</time>
      </trkpt>
      <trkpt lat="47.13025" lon="16.07356">
        <ele>342.78741</ele>
        <time>2026-07-08T12:22:42.000Z</time>
      </trkpt>
      <trkpt lat="47.13024" lon="16.07352">
        <ele>342.79217</ele>
        <time>2026-07-08T12:22:43.000Z</time>
      </trkpt>
      <trkpt lat="47.13022" lon="16.07347">
        <ele>342.79693</ele>
        <time>2026-07-08T12:22:44.000Z</time>
      </trkpt>
      <trkpt lat="47.13021" lon="16.07343">
        <ele>342.801093</ele>
        <time>2026-07-08T12:22:45.000Z</time>
      </trkpt>
      <trkpt lat="47.13019" lon="16.07339">
        <ele>342.805501</ele>
        <time>2026-07-08T12:22:46.000Z</time>
      </trkpt>
      <trkpt lat="47.13018" lon="16.07334">
        <ele>342.809853</ele>
        <time>2026-07-08T12:22:47.000Z</time>
      </trkpt>
      <trkpt lat="47.13017" lon="16.0733">
        <ele>342.81429</ele>
        <time>2026-07-08T12:22:48.000Z</time>
      </trkpt>
      <trkpt lat="47.13016" lon="16.07325">
        <ele>342.818668</ele>
        <time>2026-07-08T12:22:49.000Z</time>
      </trkpt>
      <trkpt lat="47.13015" lon="16.07321">
        <ele>342.823397</ele>
        <time>2026-07-08T12:22:50.000Z</time>
      </trkpt>
      <trkpt lat="47.13013" lon="16.07316">
        <ele>342.827867</ele>
        <time>2026-07-08T12:22:51.000Z</time>
      </trkpt>
      <trkpt lat="47.13012" lon="16.07312">
        <ele>342.83207</ele>
        <time>2026-07-08T12:22:52.000Z</time>
      </trkpt>
      <trkpt lat="47.13012" lon="16.07307">
        <ele>342.836551</ele>
        <time>2026-07-08T12:22:53.000Z</time>
      </trkpt>
      <trkpt lat="47.13011" lon="16.07302">
        <ele>342.841031</ele>
        <time>2026-07-08T12:22:54.000Z</time>
      </trkpt>
      <trkpt lat="47.1301" lon="16.07298">
        <ele>342.845498</ele>
        <time>2026-07-08T12:22:55.000Z</time>
      </trkpt>
      <trkpt lat="47.13009" lon="16.07293">
        <ele>342.850229</ele>
        <time>2026-07-08T12:22:56.000Z</time>
      </trkpt>
      <trkpt lat="47.13008" lon="16.07288">
        <ele>342.854872</ele>
        <time>2026-07-08T12:22:57.000Z</time>
      </trkpt>
      <trkpt lat="47.13007" lon="16.07283">
        <ele>342.859514</ele>
        <time>2026-07-08T12:22:58.000Z</time>
      </trkpt>
      <trkpt lat="47.13006" lon="16.07278">
        <ele>342.864331</ele>
        <time>2026-07-08T12:22:59.000Z</time>
      </trkpt>
      <trkpt lat="47.13004" lon="16.07274">
        <ele>342.86906</ele>
        <time>2026-07-08T12:23:00.000Z</time>
      </trkpt>
      <trkpt lat="47.13003" lon="16.07269">
        <ele>342.873703</ele>
        <time>2026-07-08T12:23:01.000Z</time>
      </trkpt>
      <trkpt lat="47.13002" lon="16.07264">
        <ele>342.8783</ele>
        <time>2026-07-08T12:23:02.000Z</time>
      </trkpt>
      <trkpt lat="47.13001" lon="16.0726">
        <ele>342.88277</ele>
        <time>2026-07-08T12:23:03.000Z</time>
      </trkpt>
      <trkpt lat="47.13" lon="16.07255">
        <ele>342.887412</ele>
        <time>2026-07-08T12:23:04.000Z</time>
      </trkpt>
      <trkpt lat="47.12999" lon="16.0725">
        <ele>342.891883</ele>
        <time>2026-07-08T12:23:05.000Z</time>
      </trkpt>
      <trkpt lat="47.12998" lon="16.07246">
        <ele>342.896261</ele>
        <time>2026-07-08T12:23:06.000Z</time>
      </trkpt>
      <trkpt lat="47.12997" lon="16.07241">
        <ele>342.93482</ele>
        <time>2026-07-08T12:23:07.000Z</time>
      </trkpt>
      <trkpt lat="47.12995" lon="16.07237">
        <ele>343.020043</ele>
        <time>2026-07-08T12:23:08.000Z</time>
      </trkpt>
      <trkpt lat="47.12994" lon="16.07233">
        <ele>343.099862</ele>
        <time>2026-07-08T12:23:09.000Z</time>
      </trkpt>
      <trkpt lat="47.12993" lon="16.07229">
        <ele>343.167661</ele>
        <time>2026-07-08T12:23:10.000Z</time>
      </trkpt>
      <trkpt lat="47.12991" lon="16.07225">
        <ele>343.2435</ele>
        <time>2026-07-08T12:23:11.000Z</time>
      </trkpt>
      <trkpt lat="47.1299" lon="16.07221">
        <ele>343.32251</ele>
        <time>2026-07-08T12:23:12.000Z</time>
      </trkpt>
      <trkpt lat="47.12988" lon="16.07218">
        <ele>343.398507</ele>
        <time>2026-07-08T12:23:13.000Z</time>
      </trkpt>
      <trkpt lat="47.12987" lon="16.07214">
        <ele>343.472899</ele>
        <time>2026-07-08T12:23:14.000Z</time>
      </trkpt>
      <trkpt lat="47.12985" lon="16.07211">
        <ele>343.541879</ele>
        <time>2026-07-08T12:23:15.000Z</time>
      </trkpt>
      <trkpt lat="47.12984" lon="16.07208">
        <ele>343.609418</ele>
        <time>2026-07-08T12:23:16.000Z</time>
      </trkpt>
      <trkpt lat="47.12982" lon="16.07205">
        <ele>343.679647</ele>
        <time>2026-07-08T12:23:17.000Z</time>
      </trkpt>
      <trkpt lat="47.12979" lon="16.07202">
        <ele>343.754784</ele>
        <time>2026-07-08T12:23:18.000Z</time>
      </trkpt>
      <trkpt lat="47.12977" lon="16.07199">
        <ele>343.825013</ele>
        <time>2026-07-08T12:23:19.000Z</time>
      </trkpt>
      <trkpt lat="47.12975" lon="16.07196">
        <ele>343.905538</ele>
        <time>2026-07-08T12:23:20.000Z</time>
      </trkpt>
      <trkpt lat="47.12973" lon="16.07193">
        <ele>343.987261</ele>
        <time>2026-07-08T12:23:21.000Z</time>
      </trkpt>
      <trkpt lat="47.12971" lon="16.0719">
        <ele>344.061255</ele>
        <time>2026-07-08T12:23:22.000Z</time>
      </trkpt>
      <trkpt lat="47.12968" lon="16.07187">
        <ele>344.136393</ele>
        <time>2026-07-08T12:23:23.000Z</time>
      </trkpt>
      <trkpt lat="47.12966" lon="16.07184">
        <ele>344.209051</ele>
        <time>2026-07-08T12:23:24.000Z</time>
      </trkpt>
      <trkpt lat="47.12964" lon="16.07181">
        <ele>344.282954</ele>
        <time>2026-07-08T12:23:25.000Z</time>
      </trkpt>
      <trkpt lat="47.12962" lon="16.07177">
        <ele>344.362392</ele>
        <time>2026-07-08T12:23:26.000Z</time>
      </trkpt>
      <trkpt lat="47.1296" lon="16.07174">
        <ele>344.436295</ele>
        <time>2026-07-08T12:23:27.000Z</time>
      </trkpt>
      <trkpt lat="47.12958" lon="16.07171">
        <ele>344.516402</ele>
        <time>2026-07-08T12:23:28.000Z</time>
      </trkpt>
      <trkpt lat="47.12956" lon="16.07168">
        <ele>344.589666</ele>
        <time>2026-07-08T12:23:29.000Z</time>
      </trkpt>
      <trkpt lat="47.12954" lon="16.07166">
        <ele>344.661444</ele>
        <time>2026-07-08T12:23:30.000Z</time>
      </trkpt>
      <trkpt lat="47.12952" lon="16.07163">
        <ele>344.730491</ele>
        <time>2026-07-08T12:23:31.000Z</time>
      </trkpt>
      <trkpt lat="47.12949" lon="16.0716">
        <ele>344.803364</ele>
        <time>2026-07-08T12:23:32.000Z</time>
      </trkpt>
      <trkpt lat="47.12947" lon="16.07158">
        <ele>344.872076</ele>
        <time>2026-07-08T12:23:33.000Z</time>
      </trkpt>
      <trkpt lat="47.12945" lon="16.07155">
        <ele>344.94607</ele>
        <time>2026-07-08T12:23:34.000Z</time>
      </trkpt>
      <trkpt lat="47.12943" lon="16.07153">
        <ele>345.016776</ele>
        <time>2026-07-08T12:23:35.000Z</time>
      </trkpt>
      <trkpt lat="47.12941" lon="16.07151">
        <ele>345.078282</ele>
        <time>2026-07-08T12:23:36.000Z</time>
      </trkpt>
      <trkpt lat="47.12939" lon="16.07148">
        <ele>345.141799</ele>
        <time>2026-07-08T12:23:37.000Z</time>
      </trkpt>
      <trkpt lat="47.12937" lon="16.07146">
        <ele>345.20638</ele>
        <time>2026-07-08T12:23:38.000Z</time>
      </trkpt>
      <trkpt lat="47.12935" lon="16.07144">
        <ele>345.272028</ele>
        <time>2026-07-08T12:23:39.000Z</time>
      </trkpt>
      <trkpt lat="47.12933" lon="16.07142">
        <ele>345.340673</ele>
        <time>2026-07-08T12:23:40.000Z</time>
      </trkpt>
      <trkpt lat="47.1293" lon="16.07139">
        <ele>345.408329</ele>
        <time>2026-07-08T12:23:41.000Z</time>
      </trkpt>
      <trkpt lat="47.12928" lon="16.07137">
        <ele>345.479061</ele>
        <time>2026-07-08T12:23:42.000Z</time>
      </trkpt>
      <trkpt lat="47.12926" lon="16.07135">
        <ele>345.553149</ele>
        <time>2026-07-08T12:23:43.000Z</time>
      </trkpt>
      <trkpt lat="47.12923" lon="16.07133">
        <ele>345.623881</ele>
        <time>2026-07-08T12:23:44.000Z</time>
      </trkpt>
      <trkpt lat="47.12921" lon="16.0713">
        <ele>345.691538</ele>
        <time>2026-07-08T12:23:45.000Z</time>
      </trkpt>
      <trkpt lat="47.12918" lon="16.07128">
        <ele>345.769208</ele>
        <time>2026-07-08T12:23:46.000Z</time>
      </trkpt>
      <trkpt lat="47.12915" lon="16.07126">
        <ele>345.856894</ele>
        <time>2026-07-08T12:23:47.000Z</time>
      </trkpt>
      <trkpt lat="47.12912" lon="16.07123">
        <ele>345.943739</ele>
        <time>2026-07-08T12:23:48.000Z</time>
      </trkpt>
      <trkpt lat="47.12909" lon="16.07121">
        <ele>346.027498</ele>
        <time>2026-07-08T12:23:49.000Z</time>
      </trkpt>
      <trkpt lat="47.12907" lon="16.0712">
        <ele>346.100573</ele>
        <time>2026-07-08T12:23:50.000Z</time>
      </trkpt>
      <trkpt lat="47.12904" lon="16.07118">
        <ele>346.173964</ele>
        <time>2026-07-08T12:23:51.000Z</time>
      </trkpt>
      <trkpt lat="47.12902" lon="16.07116">
        <ele>346.244747</ele>
        <time>2026-07-08T12:23:52.000Z</time>
      </trkpt>
      <trkpt lat="47.12899" lon="16.07114">
        <ele>346.323161</ele>
        <time>2026-07-08T12:23:53.000Z</time>
      </trkpt>
      <trkpt lat="47.12896" lon="16.07113">
        <ele>346.40133</ele>
        <time>2026-07-08T12:23:54.000Z</time>
      </trkpt>
      <trkpt lat="47.12893" lon="16.07111">
        <ele>346.485089</ele>
        <time>2026-07-08T12:23:55.000Z</time>
      </trkpt>
      <trkpt lat="47.1289" lon="16.07109">
        <ele>346.57117</ele>
        <time>2026-07-08T12:23:56.000Z</time>
      </trkpt>
      <trkpt lat="47.12887" lon="16.07107">
        <ele>346.659585</ele>
        <time>2026-07-08T12:23:57.000Z</time>
      </trkpt>
      <trkpt lat="47.12883" lon="16.07105">
        <ele>346.751018</ele>
        <time>2026-07-08T12:23:58.000Z</time>
      </trkpt>
      <trkpt lat="47.1288" lon="16.07103">
        <ele>346.844134</ele>
        <time>2026-07-08T12:23:59.000Z</time>
      </trkpt>
      <trkpt lat="47.12876" lon="16.07101">
        <ele>346.939615</ele>
        <time>2026-07-08T12:24:00.000Z</time>
      </trkpt>
      <trkpt lat="47.12872" lon="16.07099">
        <ele>347.047044</ele>
        <time>2026-07-08T12:24:01.000Z</time>
      </trkpt>
      <trkpt lat="47.12869" lon="16.07097">
        <ele>347.147088</ele>
        <time>2026-07-08T12:24:02.000Z</time>
      </trkpt>
      <trkpt lat="47.12865" lon="16.07096">
        <ele>347.248085</ele>
        <time>2026-07-08T12:24:03.000Z</time>
      </trkpt>
      <trkpt lat="47.12861" lon="16.07094">
        <ele>347.353957</ele>
        <time>2026-07-08T12:24:04.000Z</time>
      </trkpt>
      <trkpt lat="47.12857" lon="16.07092">
        <ele>347.45892</ele>
        <time>2026-07-08T12:24:05.000Z</time>
      </trkpt>
      <trkpt lat="47.12853" lon="16.07091">
        <ele>347.438127</ele>
        <time>2026-07-08T12:24:06.000Z</time>
      </trkpt>
      <trkpt lat="47.12849" lon="16.0709">
        <ele>347.403326</ele>
        <time>2026-07-08T12:24:07.000Z</time>
      </trkpt>
      <trkpt lat="47.12845" lon="16.07088">
        <ele>347.366503</ele>
        <time>2026-07-08T12:24:08.000Z</time>
      </trkpt>
      <trkpt lat="47.12841" lon="16.07087">
        <ele>347.329962</ele>
        <time>2026-07-08T12:24:09.000Z</time>
      </trkpt>
      <trkpt lat="47.12837" lon="16.07086">
        <ele>347.293547</ele>
        <time>2026-07-08T12:24:10.000Z</time>
      </trkpt>
      <trkpt lat="47.12833" lon="16.07084">
        <ele>347.256724</ele>
        <time>2026-07-08T12:24:11.000Z</time>
      </trkpt>
      <trkpt lat="47.12829" lon="16.07082">
        <ele>347.2177</ele>
        <time>2026-07-08T12:24:12.000Z</time>
      </trkpt>
      <trkpt lat="47.12824" lon="16.0708">
        <ele>347.17832</ele>
        <time>2026-07-08T12:24:13.000Z</time>
      </trkpt>
      <trkpt lat="47.1282" lon="16.07078">
        <ele>347.137707</ele>
        <time>2026-07-08T12:24:14.000Z</time>
      </trkpt>
      <trkpt lat="47.12816" lon="16.07076">
        <ele>347.09689</ele>
        <time>2026-07-08T12:24:15.000Z</time>
      </trkpt>
      <trkpt lat="47.12811" lon="16.07074">
        <ele>347.055434</ele>
        <time>2026-07-08T12:24:16.000Z</time>
      </trkpt>
      <trkpt lat="47.12807" lon="16.07072">
        <ele>347.01812</ele>
        <time>2026-07-08T12:24:17.000Z</time>
      </trkpt>
      <trkpt lat="47.12803" lon="16.0707">
        <ele>346.980623</ele>
        <time>2026-07-08T12:24:18.000Z</time>
      </trkpt>
      <trkpt lat="47.12799" lon="16.07068">
        <ele>346.942311</ele>
        <time>2026-07-08T12:24:19.000Z</time>
      </trkpt>
      <trkpt lat="47.12795" lon="16.07065">
        <ele>346.904215</ele>
        <time>2026-07-08T12:24:20.000Z</time>
      </trkpt>
      <trkpt lat="47.12791" lon="16.07063">
        <ele>346.866327</ele>
        <time>2026-07-08T12:24:21.000Z</time>
      </trkpt>
      <trkpt lat="47.12787" lon="16.07061">
        <ele>346.827789</ele>
        <time>2026-07-08T12:24:22.000Z</time>
      </trkpt>
      <trkpt lat="47.12784" lon="16.07058">
        <ele>346.790401</ele>
        <time>2026-07-08T12:24:23.000Z</time>
      </trkpt>
      <trkpt lat="47.1278" lon="16.07056">
        <ele>346.754077</ele>
        <time>2026-07-08T12:24:24.000Z</time>
      </trkpt>
      <trkpt lat="47.12776" lon="16.07053">
        <ele>346.717185</ele>
        <time>2026-07-08T12:24:25.000Z</time>
      </trkpt>
      <trkpt lat="47.12772" lon="16.07051">
        <ele>346.680861</ele>
        <time>2026-07-08T12:24:26.000Z</time>
      </trkpt>
      <trkpt lat="47.12769" lon="16.07049">
        <ele>346.646313</ele>
        <time>2026-07-08T12:24:27.000Z</time>
      </trkpt>
      <trkpt lat="47.12765" lon="16.07046">
        <ele>346.612669</ele>
        <time>2026-07-08T12:24:28.000Z</time>
      </trkpt>
      <trkpt lat="47.12762" lon="16.07044">
        <ele>346.577655</ele>
        <time>2026-07-08T12:24:29.000Z</time>
      </trkpt>
      <trkpt lat="47.12758" lon="16.07042">
        <ele>346.539702</ele>
        <time>2026-07-08T12:24:30.000Z</time>
      </trkpt>
      <trkpt lat="47.12754" lon="16.07039">
        <ele>346.503652</ele>
        <time>2026-07-08T12:24:31.000Z</time>
      </trkpt>
      <trkpt lat="47.1275" lon="16.07036">
        <ele>346.461998</ele>
        <time>2026-07-08T12:24:32.000Z</time>
      </trkpt>
      <trkpt lat="47.12742" lon="16.07029">
        <ele>346.381717</ele>
        <time>2026-07-08T12:24:34.000Z</time>
      </trkpt>
      <trkpt lat="47.12735" lon="16.07022">
        <ele>346.30335</ele>
        <time>2026-07-08T12:24:36.000Z</time>
      </trkpt>
      <trkpt lat="47.12728" lon="16.07014">
        <ele>346.228227</ele>
        <time>2026-07-08T12:24:38.000Z</time>
      </trkpt>
      <trkpt lat="47.12722" lon="16.07007">
        <ele>346.154751</ele>
        <time>2026-07-08T12:24:39.000Z</time>
      </trkpt>
      <trkpt lat="47.1272" lon="16.07002">
        <ele>346.118545</ele>
        <time>2026-07-08T12:24:41.000Z</time>
      </trkpt>
      <trkpt lat="47.12717" lon="16.06997">
        <ele>346.081412</ele>
        <time>2026-07-08T12:24:42.000Z</time>
      </trkpt>
      <trkpt lat="47.12712" lon="16.06987">
        <ele>346.009546</ele>
        <time>2026-07-08T12:24:44.000Z</time>
      </trkpt>
      <trkpt lat="47.12708" lon="16.06978">
        <ele>345.938776</ele>
        <time>2026-07-08T12:24:46.000Z</time>
      </trkpt>
      <trkpt lat="47.12704" lon="16.06966">
        <ele>345.823436</ele>
        <time>2026-07-08T12:24:47.000Z</time>
      </trkpt>
      <trkpt lat="47.12702" lon="16.0696">
        <ele>345.521749</ele>
        <time>2026-07-08T12:24:48.000Z</time>
      </trkpt>
      <trkpt lat="47.127" lon="16.06954">
        <ele>345.219073</ele>
        <time>2026-07-08T12:24:50.000Z</time>
      </trkpt>
      <trkpt lat="47.12695" lon="16.0694">
        <ele>344.565453</ele>
        <time>2026-07-08T12:24:51.000Z</time>
      </trkpt>
      <trkpt lat="47.12693" lon="16.06933">
        <ele>344.245833</ele>
        <time>2026-07-08T12:24:53.000Z</time>
      </trkpt>
      <trkpt lat="47.12688" lon="16.06919">
        <ele>343.563654</ele>
        <time>2026-07-08T12:24:54.000Z</time>
      </trkpt>
      <trkpt lat="47.12685" lon="16.06912">
        <ele>343.199392</ele>
        <time>2026-07-08T12:24:55.000Z</time>
      </trkpt>
      <trkpt lat="47.12682" lon="16.06905">
        <ele>342.83513</ele>
        <time>2026-07-08T12:24:56.000Z</time>
      </trkpt>
      <trkpt lat="47.12679" lon="16.06897">
        <ele>342.459769</ele>
        <time>2026-07-08T12:24:57.000Z</time>
      </trkpt>
      <trkpt lat="47.12676" lon="16.06889">
        <ele>342.06256</ele>
        <time>2026-07-08T12:24:58.000Z</time>
      </trkpt>
      <trkpt lat="47.12673" lon="16.06881">
        <ele>341.662175</ele>
        <time>2026-07-08T12:24:59.000Z</time>
      </trkpt>
      <trkpt lat="47.1267" lon="16.06873">
        <ele>341.26179</ele>
        <time>2026-07-08T12:25:00.000Z</time>
      </trkpt>
      <trkpt lat="47.12667" lon="16.06865">
        <ele>340.844821</ele>
        <time>2026-07-08T12:25:01.000Z</time>
      </trkpt>
      <trkpt lat="47.12664" lon="16.06855">
        <ele>340.388458</ele>
        <time>2026-07-08T12:25:02.000Z</time>
      </trkpt>
      <trkpt lat="47.12661" lon="16.06846">
        <ele>339.929875</ele>
        <time>2026-07-08T12:25:03.000Z</time>
      </trkpt>
      <trkpt lat="47.12658" lon="16.06836">
        <ele>339.493628</ele>
        <time>2026-07-08T12:25:04.000Z</time>
      </trkpt>
      <trkpt lat="47.12656" lon="16.06827">
        <ele>339.046106</ele>
        <time>2026-07-08T12:25:05.000Z</time>
      </trkpt>
      <trkpt lat="47.12653" lon="16.06817">
        <ele>338.600869</ele>
        <time>2026-07-08T12:25:06.000Z</time>
      </trkpt>
      <trkpt lat="47.12652" lon="16.06807">
        <ele>338.16808</ele>
        <time>2026-07-08T12:25:07.000Z</time>
      </trkpt>
      <trkpt lat="47.12651" lon="16.06797">
        <ele>337.740534</ele>
        <time>2026-07-08T12:25:08.000Z</time>
      </trkpt>
      <trkpt lat="47.12651" lon="16.06787">
        <ele>337.300276</ele>
        <time>2026-07-08T12:25:09.000Z</time>
      </trkpt>
      <trkpt lat="47.12651" lon="16.06777">
        <ele>336.864332</ele>
        <time>2026-07-08T12:25:10.000Z</time>
      </trkpt>
      <trkpt lat="47.12651" lon="16.06767">
        <ele>336.432141</ele>
        <time>2026-07-08T12:25:11.000Z</time>
      </trkpt>
      <trkpt lat="47.12652" lon="16.06756">
        <ele>335.960797</ele>
        <time>2026-07-08T12:25:12.000Z</time>
      </trkpt>
      <trkpt lat="47.12653" lon="16.06744">
        <ele>335.440583</ele>
        <time>2026-07-08T12:25:13.000Z</time>
      </trkpt>
      <trkpt lat="47.12653" lon="16.06732">
        <ele>334.928955</ele>
        <time>2026-07-08T12:25:14.000Z</time>
      </trkpt>
      <trkpt lat="47.12654" lon="16.0672">
        <ele>334.440352</ele>
        <time>2026-07-08T12:25:15.000Z</time>
      </trkpt>
      <trkpt lat="47.12655" lon="16.06708">
        <ele>334.143035</ele>
        <time>2026-07-08T12:25:16.000Z</time>
      </trkpt>
      <trkpt lat="47.12656" lon="16.06695">
        <ele>333.836049</ele>
        <time>2026-07-08T12:25:17.000Z</time>
      </trkpt>
      <trkpt lat="47.12656" lon="16.06681">
        <ele>333.508251</ele>
        <time>2026-07-08T12:25:18.000Z</time>
      </trkpt>
      <trkpt lat="47.12657" lon="16.06667">
        <ele>333.188485</ele>
        <time>2026-07-08T12:25:19.000Z</time>
      </trkpt>
      <trkpt lat="47.12659" lon="16.06654">
        <ele>332.867322</ele>
        <time>2026-07-08T12:25:20.000Z</time>
      </trkpt>
      <trkpt lat="47.1266" lon="16.06641">
        <ele>332.555972</ele>
        <time>2026-07-08T12:25:21.000Z</time>
      </trkpt>
      <trkpt lat="47.12662" lon="16.06628">
        <ele>332.245869</ele>
        <time>2026-07-08T12:25:22.000Z</time>
      </trkpt>
      <trkpt lat="47.12663" lon="16.06615">
        <ele>331.942721</ele>
        <time>2026-07-08T12:25:23.000Z</time>
      </trkpt>
      <trkpt lat="47.12665" lon="16.06603">
        <ele>331.644205</ele>
        <time>2026-07-08T12:25:24.000Z</time>
      </trkpt>
      <trkpt lat="47.12666" lon="16.0659">
        <ele>331.350614</ele>
        <time>2026-07-08T12:25:25.000Z</time>
      </trkpt>
      <trkpt lat="47.12668" lon="16.06578">
        <ele>331.057766</ele>
        <time>2026-07-08T12:25:26.000Z</time>
      </trkpt>
      <trkpt lat="47.12672" lon="16.06567">
        <ele>330.778571</ele>
        <time>2026-07-08T12:25:27.000Z</time>
      </trkpt>
      <trkpt lat="47.12675" lon="16.06558">
        <ele>330.519397</ele>
        <time>2026-07-08T12:25:28.000Z</time>
      </trkpt>
      <trkpt lat="47.12679" lon="16.06549">
        <ele>330.268449</ele>
        <time>2026-07-08T12:25:29.000Z</time>
      </trkpt>
      <trkpt lat="47.12682" lon="16.06539">
        <ele>330.027628</ele>
        <time>2026-07-08T12:25:30.000Z</time>
      </trkpt>
      <trkpt lat="47.12683" lon="16.0653">
        <ele>329.810839</ele>
        <time>2026-07-08T12:25:31.000Z</time>
      </trkpt>
      <trkpt lat="47.12683" lon="16.06522">
        <ele>329.610935</ele>
        <time>2026-07-08T12:25:32.000Z</time>
      </trkpt>
      <trkpt lat="47.12682" lon="16.06514">
        <ele>329.427746</ele>
        <time>2026-07-08T12:25:33.000Z</time>
      </trkpt>
      <trkpt lat="47.12681" lon="16.06506">
        <ele>329.241164</ele>
        <time>2026-07-08T12:25:34.000Z</time>
      </trkpt>
      <trkpt lat="47.12679" lon="16.06499">
        <ele>329.060439</ele>
        <time>2026-07-08T12:25:35.000Z</time>
      </trkpt>
      <trkpt lat="47.12677" lon="16.06493">
        <ele>328.889728</ele>
        <time>2026-07-08T12:25:36.000Z</time>
      </trkpt>
      <trkpt lat="47.12675" lon="16.06486">
        <ele>328.726229</ele>
        <time>2026-07-08T12:25:37.000Z</time>
      </trkpt>
      <trkpt lat="47.12673" lon="16.0648">
        <ele>328.567696</ele>
        <time>2026-07-08T12:25:38.000Z</time>
      </trkpt>
      <trkpt lat="47.12671" lon="16.06474">
        <ele>328.419906</ele>
        <time>2026-07-08T12:25:39.000Z</time>
      </trkpt>
      <trkpt lat="47.12669" lon="16.06469">
        <ele>328.274838</ele>
        <time>2026-07-08T12:25:40.000Z</time>
      </trkpt>
      <trkpt lat="47.12668" lon="16.06464">
        <ele>328.206716</ele>
        <time>2026-07-08T12:25:41.000Z</time>
      </trkpt>
      <trkpt lat="47.12666" lon="16.06459">
        <ele>328.157626</ele>
        <time>2026-07-08T12:25:42.000Z</time>
      </trkpt>
      <trkpt lat="47.12664" lon="16.06454">
        <ele>328.108537</ele>
        <time>2026-07-08T12:25:43.000Z</time>
      </trkpt>
      <trkpt lat="47.12663" lon="16.06449">
        <ele>328.061349</ele>
        <time>2026-07-08T12:25:44.000Z</time>
      </trkpt>
      <trkpt lat="47.12661" lon="16.06444">
        <ele>328.01496</ele>
        <time>2026-07-08T12:25:45.000Z</time>
      </trkpt>
      <trkpt lat="47.1266" lon="16.06439">
        <ele>327.968018</ele>
        <time>2026-07-08T12:25:46.000Z</time>
      </trkpt>
      <trkpt lat="47.12658" lon="16.06434">
        <ele>327.920027</ele>
        <time>2026-07-08T12:25:47.000Z</time>
      </trkpt>
      <trkpt lat="47.12657" lon="16.06429">
        <ele>327.870424</ele>
        <time>2026-07-08T12:25:48.000Z</time>
      </trkpt>
      <trkpt lat="47.12655" lon="16.06424">
        <ele>327.819758</ele>
        <time>2026-07-08T12:25:49.000Z</time>
      </trkpt>
      <trkpt lat="47.12653" lon="16.06419">
        <ele>327.770078</ele>
        <time>2026-07-08T12:25:50.000Z</time>
      </trkpt>
      <trkpt lat="47.12652" lon="16.06414">
        <ele>327.719666</ele>
        <time>2026-07-08T12:25:51.000Z</time>
      </trkpt>
      <trkpt lat="47.1265" lon="16.06408">
        <ele>327.668206</ele>
        <time>2026-07-08T12:25:52.000Z</time>
      </trkpt>
      <trkpt lat="47.12649" lon="16.06403">
        <ele>327.618603</ele>
        <time>2026-07-08T12:25:53.000Z</time>
      </trkpt>
      <trkpt lat="47.12647" lon="16.06398">
        <ele>327.569</ele>
        <time>2026-07-08T12:25:54.000Z</time>
      </trkpt>
      <trkpt lat="47.12645" lon="16.06393">
        <ele>327.519124</ele>
        <time>2026-07-08T12:25:55.000Z</time>
      </trkpt>
      <trkpt lat="47.12644" lon="16.06388">
        <ele>327.473532</ele>
        <time>2026-07-08T12:25:56.000Z</time>
      </trkpt>
      <trkpt lat="47.12642" lon="16.06383">
        <ele>327.427376</ele>
        <time>2026-07-08T12:25:57.000Z</time>
      </trkpt>
      <trkpt lat="47.12641" lon="16.06379">
        <ele>327.383368</ele>
        <time>2026-07-08T12:25:58.000Z</time>
      </trkpt>
      <trkpt lat="47.12639" lon="16.06374">
        <ele>327.339111</ele>
        <time>2026-07-08T12:25:59.000Z</time>
      </trkpt>
      <trkpt lat="47.12638" lon="16.0637">
        <ele>327.294554</ele>
        <time>2026-07-08T12:26:00.000Z</time>
      </trkpt>
      <trkpt lat="47.12637" lon="16.06365">
        <ele>327.249182</ele>
        <time>2026-07-08T12:26:01.000Z</time>
      </trkpt>
      <trkpt lat="47.12635" lon="16.0636">
        <ele>327.201697</ele>
        <time>2026-07-08T12:26:02.000Z</time>
      </trkpt>
      <trkpt lat="47.12634" lon="16.06355">
        <ele>327.153043</ele>
        <time>2026-07-08T12:26:03.000Z</time>
      </trkpt>
      <trkpt lat="47.12633" lon="16.06349">
        <ele>327.10344</ele>
        <time>2026-07-08T12:26:04.000Z</time>
      </trkpt>
      <trkpt lat="47.12631" lon="16.06344">
        <ele>327.053564</ele>
        <time>2026-07-08T12:26:05.000Z</time>
      </trkpt>
      <trkpt lat="47.12629" lon="16.06339">
        <ele>326.998175</ele>
        <time>2026-07-08T12:26:06.000Z</time>
      </trkpt>
      <trkpt lat="47.12627" lon="16.06333">
        <ele>326.939087</ele>
        <time>2026-07-08T12:26:07.000Z</time>
      </trkpt>
      <trkpt lat="47.12624" lon="16.06327">
        <ele>326.875911</ele>
        <time>2026-07-08T12:26:08.000Z</time>
      </trkpt>
      <trkpt lat="47.12621" lon="16.06321">
        <ele>326.813314</ele>
        <time>2026-07-08T12:26:09.000Z</time>
      </trkpt>
      <trkpt lat="47.12618" lon="16.06315">
        <ele>326.743601</ele>
        <time>2026-07-08T12:26:10.000Z</time>
      </trkpt>
      <trkpt lat="47.12615" lon="16.06308">
        <ele>326.670264</ele>
        <time>2026-07-08T12:26:11.000Z</time>
      </trkpt>
      <trkpt lat="47.12611" lon="16.063">
        <ele>326.585879</ele>
        <time>2026-07-08T12:26:12.000Z</time>
      </trkpt>
      <trkpt lat="47.12606" lon="16.06292">
        <ele>326.493358</ele>
        <time>2026-07-08T12:26:13.000Z</time>
      </trkpt>
      <trkpt lat="47.12601" lon="16.06284">
        <ele>326.394912</ele>
        <time>2026-07-08T12:26:14.000Z</time>
      </trkpt>
      <trkpt lat="47.12596" lon="16.06276">
        <ele>326.298631</ele>
        <time>2026-07-08T12:26:15.000Z</time>
      </trkpt>
      <trkpt lat="47.12591" lon="16.06268">
        <ele>326.206224</ele>
        <time>2026-07-08T12:26:16.000Z</time>
      </trkpt>
      <trkpt lat="47.12588" lon="16.06259">
        <ele>326.119973</ele>
        <time>2026-07-08T12:26:17.000Z</time>
      </trkpt>
      <trkpt lat="47.12586" lon="16.06249">
        <ele>326.03184</ele>
        <time>2026-07-08T12:26:18.000Z</time>
      </trkpt>
      <trkpt lat="47.12585" lon="16.06239">
        <ele>325.939048</ele>
        <time>2026-07-08T12:26:19.000Z</time>
      </trkpt>
      <trkpt lat="47.12586" lon="16.06227">
        <ele>325.333937</ele>
        <time>2026-07-08T12:26:20.000Z</time>
      </trkpt>
      <trkpt lat="47.12586" lon="16.06214">
        <ele>324.623687</ele>
        <time>2026-07-08T12:26:21.000Z</time>
      </trkpt>
      <trkpt lat="47.12586" lon="16.06202">
        <ele>323.93808</ele>
        <time>2026-07-08T12:26:22.000Z</time>
      </trkpt>
      <trkpt lat="47.12585" lon="16.06191">
        <ele>323.274578</ele>
        <time>2026-07-08T12:26:23.000Z</time>
      </trkpt>
      <trkpt lat="47.12583" lon="16.0618">
        <ele>322.598241</ele>
        <time>2026-07-08T12:26:24.000Z</time>
      </trkpt>
      <trkpt lat="47.12579" lon="16.06169">
        <ele>321.914775</ele>
        <time>2026-07-08T12:26:25.000Z</time>
      </trkpt>
      <trkpt lat="47.12574" lon="16.06158">
        <ele>321.158973</ele>
        <time>2026-07-08T12:26:26.000Z</time>
      </trkpt>
      <trkpt lat="47.12568" lon="16.06147">
        <ele>320.354205</ele>
        <time>2026-07-08T12:26:27.000Z</time>
      </trkpt>
      <trkpt lat="47.12562" lon="16.06135">
        <ele>319.53075</ele>
        <time>2026-07-08T12:26:28.000Z</time>
      </trkpt>
      <trkpt lat="47.12555" lon="16.06124">
        <ele>318.639287</ele>
        <time>2026-07-08T12:26:29.000Z</time>
      </trkpt>
      <trkpt lat="47.12548" lon="16.06112">
        <ele>317.701025</ele>
        <time>2026-07-08T12:26:30.000Z</time>
      </trkpt>
      <trkpt lat="47.1254" lon="16.061">
        <ele>316.761062</ele>
        <time>2026-07-08T12:26:31.000Z</time>
      </trkpt>
      <trkpt lat="47.12532" lon="16.06089">
        <ele>315.856717</ele>
        <time>2026-07-08T12:26:32.000Z</time>
      </trkpt>
      <trkpt lat="47.12526" lon="16.06077">
        <ele>314.994812</ele>
        <time>2026-07-08T12:26:33.000Z</time>
      </trkpt>
      <trkpt lat="47.12519" lon="16.06066">
        <ele>314.129799</ele>
        <time>2026-07-08T12:26:34.000Z</time>
      </trkpt>
      <trkpt lat="47.12512" lon="16.06054">
        <ele>313.248193</ele>
        <time>2026-07-08T12:26:35.000Z</time>
      </trkpt>
      <trkpt lat="47.12506" lon="16.06043">
        <ele>312.426696</ele>
        <time>2026-07-08T12:26:36.000Z</time>
      </trkpt>
      <trkpt lat="47.12499" lon="16.06033">
        <ele>311.652222</ele>
        <time>2026-07-08T12:26:37.000Z</time>
      </trkpt>
      <trkpt lat="47.12494" lon="16.06025">
        <ele>311.018844</ele>
        <time>2026-07-08T12:26:38.000Z</time>
      </trkpt>
      <trkpt lat="47.1249" lon="16.06019">
        <ele>310.669591</ele>
        <time>2026-07-08T12:26:39.000Z</time>
      </trkpt>
      <trkpt lat="47.12488" lon="16.06012">
        <ele>310.451241</ele>
        <time>2026-07-08T12:26:40.000Z</time>
      </trkpt>
      <trkpt lat="47.12487" lon="16.06005">
        <ele>310.235599</ele>
        <time>2026-07-08T12:26:41.000Z</time>
      </trkpt>
      <trkpt lat="47.12487" lon="16.05997">
        <ele>310.006468</ele>
        <time>2026-07-08T12:26:42.000Z</time>
      </trkpt>
      <trkpt lat="47.12489" lon="16.0599">
        <ele>309.800558</ele>
        <time>2026-07-08T12:26:43.000Z</time>
      </trkpt>
      <trkpt lat="47.12492" lon="16.05984">
        <ele>309.579788</ele>
        <time>2026-07-08T12:26:44.000Z</time>
      </trkpt>
      <trkpt lat="47.12496" lon="16.05979">
        <ele>309.357444</ele>
        <time>2026-07-08T12:26:45.000Z</time>
      </trkpt>
      <trkpt lat="47.12499" lon="16.05973">
        <ele>309.126351</ele>
        <time>2026-07-08T12:26:46.000Z</time>
      </trkpt>
      <trkpt lat="47.12503" lon="16.05967">
        <ele>308.896112</ele>
        <time>2026-07-08T12:26:47.000Z</time>
      </trkpt>
      <trkpt lat="47.12507" lon="16.05961">
        <ele>308.661615</ele>
        <time>2026-07-08T12:26:48.000Z</time>
      </trkpt>
      <trkpt lat="47.1251" lon="16.05955">
        <ele>308.434267</ele>
        <time>2026-07-08T12:26:49.000Z</time>
      </trkpt>
      <trkpt lat="47.12514" lon="16.0595">
        <ele>308.219073</ele>
        <time>2026-07-08T12:26:50.000Z</time>
      </trkpt>
      <trkpt lat="47.12517" lon="16.05944">
        <ele>308.006718</ele>
        <time>2026-07-08T12:26:51.000Z</time>
      </trkpt>
      <trkpt lat="47.1252" lon="16.05939">
        <ele>307.794363</ele>
        <time>2026-07-08T12:26:52.000Z</time>
      </trkpt>
      <trkpt lat="47.12524" lon="16.05933">
        <ele>307.586991</ele>
        <time>2026-07-08T12:26:53.000Z</time>
      </trkpt>
      <trkpt lat="47.12527" lon="16.05928">
        <ele>307.368913</ele>
        <time>2026-07-08T12:26:54.000Z</time>
      </trkpt>
      <trkpt lat="47.1253" lon="16.05922">
        <ele>307.154378</ele>
        <time>2026-07-08T12:26:55.000Z</time>
      </trkpt>
      <trkpt lat="47.12534" lon="16.05916">
        <ele>306.928258</ele>
        <time>2026-07-08T12:26:56.000Z</time>
      </trkpt>
      <trkpt lat="47.12537" lon="16.0591">
        <ele>306.705449</ele>
        <time>2026-07-08T12:26:57.000Z</time>
      </trkpt>
      <trkpt lat="47.1254" lon="16.05904">
        <ele>306.47485</ele>
        <time>2026-07-08T12:26:58.000Z</time>
      </trkpt>
      <trkpt lat="47.12544" lon="16.05898">
        <ele>306.23932</ele>
        <time>2026-07-08T12:26:59.000Z</time>
      </trkpt>
      <trkpt lat="47.12547" lon="16.05891">
        <ele>306.014171</ele>
        <time>2026-07-08T12:27:00.000Z</time>
      </trkpt>
      <trkpt lat="47.1255" lon="16.05885">
        <ele>305.777118</ele>
        <time>2026-07-08T12:27:01.000Z</time>
      </trkpt>
      <trkpt lat="47.12553" lon="16.05878">
        <ele>305.542428</ele>
        <time>2026-07-08T12:27:02.000Z</time>
      </trkpt>
      <trkpt lat="47.12556" lon="16.0587">
        <ele>305.296712</ele>
        <time>2026-07-08T12:27:03.000Z</time>
      </trkpt>
      <trkpt lat="47.12557" lon="16.05862">
        <ele>305.055243</ele>
        <time>2026-07-08T12:27:04.000Z</time>
      </trkpt>
      <trkpt lat="47.12557" lon="16.05854">
        <ele>304.817783</ele>
        <time>2026-07-08T12:27:05.000Z</time>
      </trkpt>
      <trkpt lat="47.12556" lon="16.05846">
        <ele>304.581433</ele>
        <time>2026-07-08T12:27:06.000Z</time>
      </trkpt>
      <trkpt lat="47.12554" lon="16.05838">
        <ele>304.342757</ele>
        <time>2026-07-08T12:27:07.000Z</time>
      </trkpt>
      <trkpt lat="47.12551" lon="16.05831">
        <ele>304.095792</ele>
        <time>2026-07-08T12:27:08.000Z</time>
      </trkpt>
      <trkpt lat="47.12548" lon="16.05824">
        <ele>303.846731</ele>
        <time>2026-07-08T12:27:09.000Z</time>
      </trkpt>
      <trkpt lat="47.12544" lon="16.05817">
        <ele>303.599504</ele>
        <time>2026-07-08T12:27:10.000Z</time>
      </trkpt>
      <trkpt lat="47.1254" lon="16.05811">
        <ele>303.354172</ele>
        <time>2026-07-08T12:27:11.000Z</time>
      </trkpt>
      <trkpt lat="47.12536" lon="16.05805">
        <ele>303.151091</ele>
        <time>2026-07-08T12:27:12.000Z</time>
      </trkpt>
      <trkpt lat="47.12532" lon="16.05799">
        <ele>303.088554</ele>
        <time>2026-07-08T12:27:13.000Z</time>
      </trkpt>
      <trkpt lat="47.12528" lon="16.05793">
        <ele>303.024466</ele>
        <time>2026-07-08T12:27:14.000Z</time>
      </trkpt>
      <trkpt lat="47.12524" lon="16.05788">
        <ele>302.959948</ele>
        <time>2026-07-08T12:27:15.000Z</time>
      </trkpt>
      <trkpt lat="47.12519" lon="16.05782">
        <ele>302.894212</ele>
        <time>2026-07-08T12:27:16.000Z</time>
      </trkpt>
      <trkpt lat="47.12514" lon="16.05777">
        <ele>302.828965</ele>
        <time>2026-07-08T12:27:17.000Z</time>
      </trkpt>
      <trkpt lat="47.12509" lon="16.05772">
        <ele>302.763718</ele>
        <time>2026-07-08T12:27:18.000Z</time>
      </trkpt>
      <trkpt lat="47.12504" lon="16.05767">
        <ele>302.698447</ele>
        <time>2026-07-08T12:27:19.000Z</time>
      </trkpt>
      <trkpt lat="47.12499" lon="16.05762">
        <ele>302.634295</ele>
        <time>2026-07-08T12:27:20.000Z</time>
      </trkpt>
      <trkpt lat="47.12494" lon="16.05758">
        <ele>302.571647</ele>
        <time>2026-07-08T12:27:21.000Z</time>
      </trkpt>
      <trkpt lat="47.12489" lon="16.05754">
        <ele>302.507495</ele>
        <time>2026-07-08T12:27:22.000Z</time>
      </trkpt>
      <trkpt lat="47.12484" lon="16.05749">
        <ele>302.443343</ele>
        <time>2026-07-08T12:27:23.000Z</time>
      </trkpt>
      <trkpt lat="47.12479" lon="16.05745">
        <ele>302.380091</ele>
        <time>2026-07-08T12:27:24.000Z</time>
      </trkpt>
      <trkpt lat="47.12474" lon="16.05741">
        <ele>302.313924</ele>
        <time>2026-07-08T12:27:25.000Z</time>
      </trkpt>
      <trkpt lat="47.12469" lon="16.05737">
        <ele>302.24732</ele>
        <time>2026-07-08T12:27:26.000Z</time>
      </trkpt>
      <trkpt lat="47.12463" lon="16.05732">
        <ele>302.179327</ele>
        <time>2026-07-08T12:27:27.000Z</time>
      </trkpt>
      <trkpt lat="47.12458" lon="16.05727">
        <ele>302.108565</ele>
        <time>2026-07-08T12:27:28.000Z</time>
      </trkpt>
      <trkpt lat="47.12453" lon="16.05722">
        <ele>302.041485</ele>
        <time>2026-07-08T12:27:29.000Z</time>
      </trkpt>
      <trkpt lat="47.12448" lon="16.05717">
        <ele>301.976139</ele>
        <time>2026-07-08T12:27:30.000Z</time>
      </trkpt>
      <trkpt lat="47.12443" lon="16.05712">
        <ele>301.910792</ele>
        <time>2026-07-08T12:27:31.000Z</time>
      </trkpt>
      <trkpt lat="47.12438" lon="16.05707">
        <ele>301.847741</ele>
        <time>2026-07-08T12:27:32.000Z</time>
      </trkpt>
      <trkpt lat="47.12434" lon="16.05702">
        <ele>301.786015</ele>
        <time>2026-07-08T12:27:33.000Z</time>
      </trkpt>
      <trkpt lat="47.12429" lon="16.05697">
        <ele>301.724288</ele>
        <time>2026-07-08T12:27:34.000Z</time>
      </trkpt>
      <trkpt lat="47.12425" lon="16.05692">
        <ele>301.664294</ele>
        <time>2026-07-08T12:27:35.000Z</time>
      </trkpt>
      <trkpt lat="47.1242" lon="16.05688">
        <ele>301.604336</ele>
        <time>2026-07-08T12:27:36.000Z</time>
      </trkpt>
      <trkpt lat="47.12416" lon="16.05683">
        <ele>301.546981</ele>
        <time>2026-07-08T12:27:37.000Z</time>
      </trkpt>
      <trkpt lat="47.12412" lon="16.05678">
        <ele>301.488749</ele>
        <time>2026-07-08T12:27:38.000Z</time>
      </trkpt>
      <trkpt lat="47.12408" lon="16.05674">
        <ele>301.431841</ele>
        <time>2026-07-08T12:27:39.000Z</time>
      </trkpt>
      <trkpt lat="47.12403" lon="16.0567">
        <ele>301.375348</ele>
        <time>2026-07-08T12:27:40.000Z</time>
      </trkpt>
      <trkpt lat="47.12399" lon="16.05666">
        <ele>301.321382</ele>
        <time>2026-07-08T12:27:41.000Z</time>
      </trkpt>
      <trkpt lat="47.12395" lon="16.05663">
        <ele>301.265673</ele>
        <time>2026-07-08T12:27:42.000Z</time>
      </trkpt>
      <trkpt lat="47.1239" lon="16.05659">
        <ele>301.210646</ele>
        <time>2026-07-08T12:27:43.000Z</time>
      </trkpt>
      <trkpt lat="47.12386" lon="16.05656">
        <ele>301.180443</ele>
        <time>2026-07-08T12:27:44.000Z</time>
      </trkpt>
      <trkpt lat="47.12382" lon="16.05652">
        <ele>301.159257</ele>
        <time>2026-07-08T12:27:45.000Z</time>
      </trkpt>
      <trkpt lat="47.12377" lon="16.05649">
        <ele>301.138072</ele>
        <time>2026-07-08T12:27:46.000Z</time>
      </trkpt>
      <trkpt lat="47.12373" lon="16.05645">
        <ele>301.117267</ele>
        <time>2026-07-08T12:27:47.000Z</time>
      </trkpt>
      <trkpt lat="47.12369" lon="16.05642">
        <ele>301.096081</ele>
        <time>2026-07-08T12:27:48.000Z</time>
      </trkpt>
      <trkpt lat="47.12365" lon="16.05638">
        <ele>301.075019</ele>
        <time>2026-07-08T12:27:49.000Z</time>
      </trkpt>
      <trkpt lat="47.12361" lon="16.05634">
        <ele>301.054334</ele>
        <time>2026-07-08T12:27:50.000Z</time>
      </trkpt>
      <trkpt lat="47.12358" lon="16.05629">
        <ele>301.032916</ele>
        <time>2026-07-08T12:27:51.000Z</time>
      </trkpt>
      <trkpt lat="47.12354" lon="16.05623">
        <ele>301.01065</ele>
        <time>2026-07-08T12:27:52.000Z</time>
      </trkpt>
      <trkpt lat="47.12351" lon="16.05618">
        <ele>300.989045</ele>
        <time>2026-07-08T12:27:53.000Z</time>
      </trkpt>
      <trkpt lat="47.12348" lon="16.05613">
        <ele>300.969011</ele>
        <time>2026-07-08T12:27:54.000Z</time>
      </trkpt>
      <trkpt lat="47.12346" lon="16.05607">
        <ele>300.948763</ele>
        <time>2026-07-08T12:27:55.000Z</time>
      </trkpt>
      <trkpt lat="47.12343" lon="16.05601">
        <ele>300.928977</ele>
        <time>2026-07-08T12:27:56.000Z</time>
      </trkpt>
      <trkpt lat="47.12341" lon="16.05596">
        <ele>300.909671</ele>
        <time>2026-07-08T12:27:57.000Z</time>
      </trkpt>
      <trkpt lat="47.12339" lon="16.0559">
        <ele>300.889991</ele>
        <time>2026-07-08T12:27:58.000Z</time>
      </trkpt>
      <trkpt lat="47.12337" lon="16.05584">
        <ele>300.871109</ele>
        <time>2026-07-08T12:27:59.000Z</time>
      </trkpt>
      <trkpt lat="47.12335" lon="16.05579">
        <ele>300.851961</ele>
        <time>2026-07-08T12:28:00.000Z</time>
      </trkpt>
      <trkpt lat="47.12333" lon="16.05573">
        <ele>300.832396</ele>
        <time>2026-07-08T12:28:01.000Z</time>
      </trkpt>
      <trkpt lat="47.12331" lon="16.05567">
        <ele>300.813566</ele>
        <time>2026-07-08T12:28:02.000Z</time>
      </trkpt>
      <trkpt lat="47.12329" lon="16.05562">
        <ele>300.794684</ele>
        <time>2026-07-08T12:28:03.000Z</time>
      </trkpt>
      <trkpt lat="47.12327" lon="16.05556">
        <ele>300.775733</ele>
        <time>2026-07-08T12:28:04.000Z</time>
      </trkpt>
      <trkpt lat="47.12325" lon="16.05551">
        <ele>300.757422</ele>
        <time>2026-07-08T12:28:05.000Z</time>
      </trkpt>
      <trkpt lat="47.12323" lon="16.05545">
        <ele>300.739066</ele>
        <time>2026-07-08T12:28:06.000Z</time>
      </trkpt>
      <trkpt lat="47.12321" lon="16.0554">
        <ele>300.72065</ele>
        <time>2026-07-08T12:28:07.000Z</time>
      </trkpt>
      <trkpt lat="47.12319" lon="16.05535">
        <ele>300.702964</ele>
        <time>2026-07-08T12:28:08.000Z</time>
      </trkpt>
      <trkpt lat="47.12317" lon="16.0553">
        <ele>300.685648</ele>
        <time>2026-07-08T12:28:09.000Z</time>
      </trkpt>
      <trkpt lat="47.12315" lon="16.05525">
        <ele>300.669285</ele>
        <time>2026-07-08T12:28:10.000Z</time>
      </trkpt>
      <trkpt lat="47.12314" lon="16.0552">
        <ele>300.65206</ele>
        <time>2026-07-08T12:28:11.000Z</time>
      </trkpt>
      <trkpt lat="47.12312" lon="16.05514">
        <ele>300.634566</ele>
        <time>2026-07-08T12:28:12.000Z</time>
      </trkpt>
      <trkpt lat="47.1231" lon="16.05509">
        <ele>300.616345</ele>
        <time>2026-07-08T12:28:13.000Z</time>
      </trkpt>
      <trkpt lat="47.12308" lon="16.05503">
        <ele>300.597297</ele>
        <time>2026-07-08T12:28:14.000Z</time>
      </trkpt>
      <trkpt lat="47.12306" lon="16.05497">
        <ele>300.577417</ele>
        <time>2026-07-08T12:28:15.000Z</time>
      </trkpt>
      <trkpt lat="47.12303" lon="16.05491">
        <ele>300.556379</ele>
        <time>2026-07-08T12:28:16.000Z</time>
      </trkpt>
      <trkpt lat="47.12301" lon="16.05485">
        <ele>300.535893</ele>
        <time>2026-07-08T12:28:17.000Z</time>
      </trkpt>
      <trkpt lat="47.12299" lon="16.05479">
        <ele>300.515748</ele>
        <time>2026-07-08T12:28:18.000Z</time>
      </trkpt>
      <trkpt lat="47.12297" lon="16.05474">
        <ele>300.496241</ele>
        <time>2026-07-08T12:28:19.000Z</time>
      </trkpt>
      <trkpt lat="47.12295" lon="16.05468">
        <ele>300.476888</ele>
        <time>2026-07-08T12:28:20.000Z</time>
      </trkpt>
      <trkpt lat="47.12293" lon="16.05462">
        <ele>300.45784</ele>
        <time>2026-07-08T12:28:21.000Z</time>
      </trkpt>
      <trkpt lat="47.12291" lon="16.05457">
        <ele>300.440265</ele>
        <time>2026-07-08T12:28:22.000Z</time>
      </trkpt>
      <trkpt lat="47.12289" lon="16.05452">
        <ele>300.422501</ele>
        <time>2026-07-08T12:28:23.000Z</time>
      </trkpt>
      <trkpt lat="47.12287" lon="16.05447">
        <ele>300.406143</ele>
        <time>2026-07-08T12:28:24.000Z</time>
      </trkpt>
      <trkpt lat="47.12285" lon="16.05442">
        <ele>300.398015</ele>
        <time>2026-07-08T12:28:25.000Z</time>
      </trkpt>
      <trkpt lat="47.12283" lon="16.05437">
        <ele>300.390028</ele>
        <time>2026-07-08T12:28:26.000Z</time>
      </trkpt>
      <trkpt lat="47.12282" lon="16.05432">
        <ele>300.382374</ele>
        <time>2026-07-08T12:28:27.000Z</time>
      </trkpt>
      <trkpt lat="47.1228" lon="16.05427">
        <ele>300.374597</ele>
        <time>2026-07-08T12:28:28.000Z</time>
      </trkpt>
      <trkpt lat="47.12278" lon="16.05423">
        <ele>300.367043</ele>
        <time>2026-07-08T12:28:29.000Z</time>
      </trkpt>
      <trkpt lat="47.12277" lon="16.05418">
        <ele>300.360105</ele>
        <time>2026-07-08T12:28:30.000Z</time>
      </trkpt>
      <trkpt lat="47.12276" lon="16.05414">
        <ele>300.354323</ele>
        <time>2026-07-08T12:28:31.000Z</time>
      </trkpt>
      <trkpt lat="47.12275" lon="16.0541">
        <ele>300.348345</ele>
        <time>2026-07-08T12:28:32.000Z</time>
      </trkpt>
      <trkpt lat="47.12275" lon="16.05406">
        <ele>300.342069</ele>
        <time>2026-07-08T12:28:33.000Z</time>
      </trkpt>
      <trkpt lat="47.12274" lon="16.05401">
        <ele>300.33567</ele>
        <time>2026-07-08T12:28:34.000Z</time>
      </trkpt>
      <trkpt lat="47.12275" lon="16.05397">
        <ele>300.329088</ele>
        <time>2026-07-08T12:28:35.000Z</time>
      </trkpt>
      <trkpt lat="47.12275" lon="16.05392">
        <ele>300.322023</ele>
        <time>2026-07-08T12:28:36.000Z</time>
      </trkpt>
      <trkpt lat="47.12276" lon="16.05387">
        <ele>300.31443</ele>
        <time>2026-07-08T12:28:37.000Z</time>
      </trkpt>
      <trkpt lat="47.12275" lon="16.05381">
        <ele>300.306245</ele>
        <time>2026-07-08T12:28:38.000Z</time>
      </trkpt>
      <trkpt lat="47.12274" lon="16.05375">
        <ele>300.297672</ele>
        <time>2026-07-08T12:28:39.000Z</time>
      </trkpt>
      <trkpt lat="47.12271" lon="16.0537">
        <ele>300.288613</ele>
        <time>2026-07-08T12:28:40.000Z</time>
      </trkpt>
      <trkpt lat="47.12267" lon="16.05366">
        <ele>300.279279</ele>
        <time>2026-07-08T12:28:41.000Z</time>
      </trkpt>
      <trkpt lat="47.12263" lon="16.05362">
        <ele>300.269267</ele>
        <time>2026-07-08T12:28:42.000Z</time>
      </trkpt>
      <trkpt lat="47.12259" lon="16.05358">
        <ele>300.259096</ele>
        <time>2026-07-08T12:28:43.000Z</time>
      </trkpt>
      <trkpt lat="47.12256" lon="16.05353">
        <ele>300.248553</ele>
        <time>2026-07-08T12:28:44.000Z</time>
      </trkpt>
      <trkpt lat="47.12252" lon="16.05348">
        <ele>300.237866</ele>
        <time>2026-07-08T12:28:45.000Z</time>
      </trkpt>
      <trkpt lat="47.12249" lon="16.05342">
        <ele>300.227047</ele>
        <time>2026-07-08T12:28:46.000Z</time>
      </trkpt>
      <trkpt lat="47.12246" lon="16.05336">
        <ele>300.216366</ele>
        <time>2026-07-08T12:28:47.000Z</time>
      </trkpt>
      <trkpt lat="47.12243" lon="16.05329">
        <ele>300.205788</ele>
        <time>2026-07-08T12:28:48.000Z</time>
      </trkpt>
      <trkpt lat="47.12241" lon="16.05323">
        <ele>300.195461</ele>
        <time>2026-07-08T12:28:49.000Z</time>
      </trkpt>
      <trkpt lat="47.12238" lon="16.05317">
        <ele>300.184989</ele>
        <time>2026-07-08T12:28:50.000Z</time>
      </trkpt>
      <trkpt lat="47.12236" lon="16.05311">
        <ele>300.175092</ele>
        <time>2026-07-08T12:28:51.000Z</time>
      </trkpt>
      <trkpt lat="47.12233" lon="16.05305">
        <ele>300.165337</ele>
        <time>2026-07-08T12:28:52.000Z</time>
      </trkpt>
      <trkpt lat="47.12231" lon="16.05299">
        <ele>300.156013</ele>
        <time>2026-07-08T12:28:53.000Z</time>
      </trkpt>
      <trkpt lat="47.12229" lon="16.05293">
        <ele>300.146786</ele>
        <time>2026-07-08T12:28:54.000Z</time>
      </trkpt>
      <trkpt lat="47.12228" lon="16.05287">
        <ele>300.137918</ele>
        <time>2026-07-08T12:28:55.000Z</time>
      </trkpt>
      <trkpt lat="47.12227" lon="16.05282">
        <ele>300.12952</ele>
        <time>2026-07-08T12:28:56.000Z</time>
      </trkpt>
      <trkpt lat="47.12226" lon="16.05276">
        <ele>300.120645</ele>
        <time>2026-07-08T12:28:57.000Z</time>
      </trkpt>
      <trkpt lat="47.12224" lon="16.0527">
        <ele>300.111339</ele>
        <time>2026-07-08T12:28:58.000Z</time>
      </trkpt>
      <trkpt lat="47.12222" lon="16.05263">
        <ele>300.10069</ele>
        <time>2026-07-08T12:28:59.000Z</time>
      </trkpt>
      <trkpt lat="47.12219" lon="16.05256">
        <ele>300.089517</ele>
        <time>2026-07-08T12:29:00.000Z</time>
      </trkpt>
      <trkpt lat="47.12216" lon="16.05249">
        <ele>300.078344</ele>
        <time>2026-07-08T12:29:01.000Z</time>
      </trkpt>
      <trkpt lat="47.12214" lon="16.05242">
        <ele>300.067125</ele>
        <time>2026-07-08T12:29:02.000Z</time>
      </trkpt>
      <trkpt lat="47.12211" lon="16.05235">
        <ele>300.055807</ele>
        <time>2026-07-08T12:29:03.000Z</time>
      </trkpt>
      <trkpt lat="47.12209" lon="16.05228">
        <ele>300.044336</ele>
        <time>2026-07-08T12:29:04.000Z</time>
      </trkpt>
      <trkpt lat="47.12206" lon="16.05221">
        <ele>300.032865</ele>
        <time>2026-07-08T12:29:05.000Z</time>
      </trkpt>
      <trkpt lat="47.12204" lon="16.05214">
        <ele>299.998459</ele>
        <time>2026-07-08T12:29:06.000Z</time>
      </trkpt>
      <trkpt lat="47.12201" lon="16.05206">
        <ele>299.961933</ele>
        <time>2026-07-08T12:29:07.000Z</time>
      </trkpt>
      <trkpt lat="47.12199" lon="16.05199">
        <ele>299.925007</ele>
        <time>2026-07-08T12:29:08.000Z</time>
      </trkpt>
      <trkpt lat="47.12196" lon="16.05191">
        <ele>299.88756</ele>
        <time>2026-07-08T12:29:09.000Z</time>
      </trkpt>
      <trkpt lat="47.12194" lon="16.05184">
        <ele>299.850233</ele>
        <time>2026-07-08T12:29:10.000Z</time>
      </trkpt>
      <trkpt lat="47.12191" lon="16.05176">
        <ele>299.813307</ele>
        <time>2026-07-08T12:29:11.000Z</time>
      </trkpt>
      <trkpt lat="47.12189" lon="16.05169">
        <ele>299.777577</ele>
        <time>2026-07-08T12:29:12.000Z</time>
      </trkpt>
      <trkpt lat="47.12187" lon="16.05162">
        <ele>299.742566</ele>
        <time>2026-07-08T12:29:13.000Z</time>
      </trkpt>
      <trkpt lat="47.12184" lon="16.05155">
        <ele>299.708725</ele>
        <time>2026-07-08T12:29:14.000Z</time>
      </trkpt>
      <trkpt lat="47.12182" lon="16.05149">
        <ele>299.676842</ele>
        <time>2026-07-08T12:29:15.000Z</time>
      </trkpt>
      <trkpt lat="47.1218" lon="16.05143">
        <ele>299.647478</ele>
        <time>2026-07-08T12:29:16.000Z</time>
      </trkpt>
      <trkpt lat="47.12178" lon="16.05139">
        <ele>299.623788</ele>
        <time>2026-07-08T12:29:17.000Z</time>
      </trkpt>
      <trkpt lat="47.12176" lon="16.05136">
        <ele>299.605245</ele>
        <time>2026-07-08T12:29:18.000Z</time>
      </trkpt>
      <trkpt lat="47.12173" lon="16.05134">
        <ele>299.585539</ele>
        <time>2026-07-08T12:29:19.000Z</time>
      </trkpt>
      <trkpt lat="47.1217" lon="16.05132">
        <ele>299.564102</ele>
        <time>2026-07-08T12:29:20.000Z</time>
      </trkpt>
      <trkpt lat="47.12167" lon="16.05129">
        <ele>299.538541</ele>
        <time>2026-07-08T12:29:21.000Z</time>
      </trkpt>
      <trkpt lat="47.12163" lon="16.05128">
        <ele>299.511312</ele>
        <time>2026-07-08T12:29:22.000Z</time>
      </trkpt>
      <trkpt lat="47.12158" lon="16.05128">
        <ele>299.481754</ele>
        <time>2026-07-08T12:29:23.000Z</time>
      </trkpt>
      <trkpt lat="47.12154" lon="16.05129">
        <ele>299.450986</ele>
        <time>2026-07-08T12:29:24.000Z</time>
      </trkpt>
      <trkpt lat="47.12149" lon="16.05131">
        <ele>299.417173</ele>
        <time>2026-07-08T12:29:25.000Z</time>
      </trkpt>
      <trkpt lat="47.12144" lon="16.05133">
        <ele>299.382482</ele>
        <time>2026-07-08T12:29:26.000Z</time>
      </trkpt>
      <trkpt lat="47.12139" lon="16.05136">
        <ele>299.347175</ele>
        <time>2026-07-08T12:29:27.000Z</time>
      </trkpt>
      <trkpt lat="47.12133" lon="16.05139">
        <ele>299.309256</ele>
        <time>2026-07-08T12:29:28.000Z</time>
      </trkpt>
      <trkpt lat="47.12128" lon="16.05142">
        <ele>299.27195</ele>
        <time>2026-07-08T12:29:29.000Z</time>
      </trkpt>
      <trkpt lat="47.12123" lon="16.05145">
        <ele>299.233258</ele>
        <time>2026-07-08T12:29:30.000Z</time>
      </trkpt>
      <trkpt lat="47.12117" lon="16.05149">
        <ele>299.195093</ele>
        <time>2026-07-08T12:29:31.000Z</time>
      </trkpt>
      <trkpt lat="47.12112" lon="16.05153">
        <ele>299.155361</ele>
        <time>2026-07-08T12:29:32.000Z</time>
      </trkpt>
      <trkpt lat="47.12107" lon="16.05157">
        <ele>299.11681</ele>
        <time>2026-07-08T12:29:33.000Z</time>
      </trkpt>
      <trkpt lat="47.12101" lon="16.05161">
        <ele>299.077835</ele>
        <time>2026-07-08T12:29:34.000Z</time>
      </trkpt>
      <trkpt lat="47.12096" lon="16.05165">
        <ele>299.040443</ele>
        <time>2026-07-08T12:29:35.000Z</time>
      </trkpt>
      <trkpt lat="47.12091" lon="16.05169">
        <ele>299.003469</ele>
        <time>2026-07-08T12:29:36.000Z</time>
      </trkpt>
      <trkpt lat="47.12087" lon="16.05172">
        <ele>298.967867</ele>
        <time>2026-07-08T12:29:37.000Z</time>
      </trkpt>
      <trkpt lat="47.12082" lon="16.05176">
        <ele>298.931865</ele>
        <time>2026-07-08T12:29:38.000Z</time>
      </trkpt>
      <trkpt lat="47.12077" lon="16.05178">
        <ele>298.896876</ele>
        <time>2026-07-08T12:29:39.000Z</time>
      </trkpt>
      <trkpt lat="47.12071" lon="16.0518">
        <ele>298.861146</ele>
        <time>2026-07-08T12:29:40.000Z</time>
      </trkpt>
      <trkpt lat="47.12066" lon="16.05181">
        <ele>298.834086</ele>
        <time>2026-07-08T12:29:41.000Z</time>
      </trkpt>
      <trkpt lat="47.1206" lon="16.05182">
        <ele>298.810621</ele>
        <time>2026-07-08T12:29:42.000Z</time>
      </trkpt>
      <trkpt lat="47.12055" lon="16.05182">
        <ele>298.786747</ele>
        <time>2026-07-08T12:29:43.000Z</time>
      </trkpt>
      <trkpt lat="47.12049" lon="16.05182">
        <ele>298.763326</ele>
        <time>2026-07-08T12:29:44.000Z</time>
      </trkpt>
      <trkpt lat="47.12044" lon="16.05183">
        <ele>298.739039</ele>
        <time>2026-07-08T12:29:45.000Z</time>
      </trkpt>
      <trkpt lat="47.12038" lon="16.05183">
        <ele>298.714683</ele>
        <time>2026-07-08T12:29:46.000Z</time>
      </trkpt>
      <trkpt lat="47.12032" lon="16.05184">
        <ele>298.690724</ele>
        <time>2026-07-08T12:29:47.000Z</time>
      </trkpt>
      <trkpt lat="47.12026" lon="16.05185">
        <ele>298.665434</ele>
        <time>2026-07-08T12:29:48.000Z</time>
      </trkpt>
      <trkpt lat="47.12021" lon="16.05186">
        <ele>298.641293</ele>
        <time>2026-07-08T12:29:49.000Z</time>
      </trkpt>
      <trkpt lat="47.12015" lon="16.05188">
        <ele>298.617473</ele>
        <time>2026-07-08T12:29:50.000Z</time>
      </trkpt>
      <trkpt lat="47.1201" lon="16.0519">
        <ele>298.593829</ele>
        <time>2026-07-08T12:29:51.000Z</time>
      </trkpt>
      <trkpt lat="47.12005" lon="16.05191">
        <ele>298.570789</ele>
        <time>2026-07-08T12:29:52.000Z</time>
      </trkpt>
      <trkpt lat="47.11999" lon="16.05193">
        <ele>298.546856</ele>
        <time>2026-07-08T12:29:53.000Z</time>
      </trkpt>
      <trkpt lat="47.11994" lon="16.05195">
        <ele>298.524291</ele>
        <time>2026-07-08T12:29:54.000Z</time>
      </trkpt>
      <trkpt lat="47.11989" lon="16.05196">
        <ele>298.50225</ele>
        <time>2026-07-08T12:29:55.000Z</time>
      </trkpt>
      <trkpt lat="47.11983" lon="16.05197">
        <ele>298.479108</ele>
        <time>2026-07-08T12:29:56.000Z</time>
      </trkpt>
      <trkpt lat="47.11978" lon="16.05197">
        <ele>298.456473</ele>
        <time>2026-07-08T12:29:57.000Z</time>
      </trkpt>
      <trkpt lat="47.11973" lon="16.05198">
        <ele>298.433858</ele>
        <time>2026-07-08T12:29:58.000Z</time>
      </trkpt>
      <trkpt lat="47.11967" lon="16.05199">
        <ele>298.410293</ele>
        <time>2026-07-08T12:29:59.000Z</time>
      </trkpt>
      <trkpt lat="47.11962" lon="16.05199">
        <ele>298.387233</ele>
        <time>2026-07-08T12:30:00.000Z</time>
      </trkpt>
      <trkpt lat="47.11956" lon="16.052">
        <ele>298.363768</ele>
        <time>2026-07-08T12:30:01.000Z</time>
      </trkpt>
      <trkpt lat="47.11951" lon="16.052">
        <ele>298.340304</ele>
        <time>2026-07-08T12:30:02.000Z</time>
      </trkpt>
      <trkpt lat="47.11946" lon="16.05201">
        <ele>298.317644</ele>
        <time>2026-07-08T12:30:03.000Z</time>
      </trkpt>
      <trkpt lat="47.1194" lon="16.05201">
        <ele>298.295068</ele>
        <time>2026-07-08T12:30:04.000Z</time>
      </trkpt>
      <trkpt lat="47.11935" lon="16.05201">
        <ele>298.271985</ele>
        <time>2026-07-08T12:30:05.000Z</time>
      </trkpt>
      <trkpt lat="47.1193" lon="16.052">
        <ele>298.249297</ele>
        <time>2026-07-08T12:30:06.000Z</time>
      </trkpt>
      <trkpt lat="47.11924" lon="16.05199">
        <ele>298.227002</ele>
        <time>2026-07-08T12:30:07.000Z</time>
      </trkpt>
      <trkpt lat="47.11919" lon="16.05197">
        <ele>298.205271</ele>
        <time>2026-07-08T12:30:08.000Z</time>
      </trkpt>
      <trkpt lat="47.11915" lon="16.05195">
        <ele>298.183946</ele>
        <time>2026-07-08T12:30:09.000Z</time>
      </trkpt>
      <trkpt lat="47.1191" lon="16.05192">
        <ele>298.162399</ele>
        <time>2026-07-08T12:30:10.000Z</time>
      </trkpt>
      <trkpt lat="47.11906" lon="16.05188">
        <ele>298.140252</ele>
        <time>2026-07-08T12:30:11.000Z</time>
      </trkpt>
      <trkpt lat="47.11901" lon="16.05183">
        <ele>298.116918</ele>
        <time>2026-07-08T12:30:12.000Z</time>
      </trkpt>
      <trkpt lat="47.11897" lon="16.05178">
        <ele>298.092828</ele>
        <time>2026-07-08T12:30:13.000Z</time>
      </trkpt>
      <trkpt lat="47.11891" lon="16.05175">
        <ele>298.060203</ele>
        <time>2026-07-08T12:30:14.000Z</time>
      </trkpt>
      <trkpt lat="47.11886" lon="16.05174">
        <ele>298.023108</ele>
        <time>2026-07-08T12:30:15.000Z</time>
      </trkpt>
      <trkpt lat="47.1188" lon="16.05174">
        <ele>297.986348</ele>
        <time>2026-07-08T12:30:16.000Z</time>
      </trkpt>
      <trkpt lat="47.11875" lon="16.05176">
        <ele>297.948788</ele>
        <time>2026-07-08T12:30:17.000Z</time>
      </trkpt>
      <trkpt lat="47.1187" lon="16.05178">
        <ele>297.912218</ele>
        <time>2026-07-08T12:30:18.000Z</time>
      </trkpt>
      <trkpt lat="47.11864" lon="16.0518">
        <ele>297.876617</ele>
        <time>2026-07-08T12:30:19.000Z</time>
      </trkpt>
      <trkpt lat="47.11859" lon="16.05181">
        <ele>297.840546</ele>
        <time>2026-07-08T12:30:20.000Z</time>
      </trkpt>
      <trkpt lat="47.11854" lon="16.05182">
        <ele>297.805605</ele>
        <time>2026-07-08T12:30:21.000Z</time>
      </trkpt>
      <trkpt lat="47.11849" lon="16.05183">
        <ele>297.771373</ele>
        <time>2026-07-08T12:30:22.000Z</time>
      </trkpt>
      <trkpt lat="47.11844" lon="16.05183">
        <ele>297.736514</ele>
        <time>2026-07-08T12:30:23.000Z</time>
      </trkpt>
      <trkpt lat="47.11839" lon="16.05184">
        <ele>297.704176</ele>
        <time>2026-07-08T12:30:24.000Z</time>
      </trkpt>
      <trkpt lat="47.11834" lon="16.05186">
        <ele>297.670726</ele>
        <time>2026-07-08T12:30:25.000Z</time>
      </trkpt>
      <trkpt lat="47.11829" lon="16.05188">
        <ele>297.637788</ele>
        <time>2026-07-08T12:30:26.000Z</time>
      </trkpt>
      <trkpt lat="47.11824" lon="16.05192">
        <ele>297.600328</ele>
        <time>2026-07-08T12:30:27.000Z</time>
      </trkpt>
      <trkpt lat="47.1182" lon="16.05197">
        <ele>297.56236</ele>
        <time>2026-07-08T12:30:28.000Z</time>
      </trkpt>
      <trkpt lat="47.11815" lon="16.05202">
        <ele>297.522446</ele>
        <time>2026-07-08T12:30:29.000Z</time>
      </trkpt>
      <trkpt lat="47.1181" lon="16.05207">
        <ele>297.482533</ele>
        <time>2026-07-08T12:30:30.000Z</time>
      </trkpt>
      <trkpt lat="47.11804" lon="16.05211">
        <ele>297.441046</ele>
        <time>2026-07-08T12:30:31.000Z</time>
      </trkpt>
      <trkpt lat="47.11799" lon="16.05215">
        <ele>297.400234</ele>
        <time>2026-07-08T12:30:32.000Z</time>
      </trkpt>
      <trkpt lat="47.11793" lon="16.05219">
        <ele>297.358668</ele>
        <time>2026-07-08T12:30:33.000Z</time>
      </trkpt>
      <trkpt lat="47.11787" lon="16.05222">
        <ele>297.317576</ele>
        <time>2026-07-08T12:30:34.000Z</time>
      </trkpt>
      <trkpt lat="47.11781" lon="16.05224">
        <ele>297.27654</ele>
        <time>2026-07-08T12:30:35.000Z</time>
      </trkpt>
      <trkpt lat="47.11775" lon="16.05226">
        <ele>297.235423</ele>
        <time>2026-07-08T12:30:36.000Z</time>
      </trkpt>
      <trkpt lat="47.11769" lon="16.05228">
        <ele>297.194095</ele>
        <time>2026-07-08T12:30:37.000Z</time>
      </trkpt>
      <trkpt lat="47.11763" lon="16.05231">
        <ele>297.152417</ele>
        <time>2026-07-08T12:30:38.000Z</time>
      </trkpt>
      <trkpt lat="47.11758" lon="16.05233">
        <ele>297.113303</ele>
        <time>2026-07-08T12:30:39.000Z</time>
      </trkpt>
      <trkpt lat="47.11752" lon="16.05236">
        <ele>297.074403</ele>
        <time>2026-07-08T12:30:40.000Z</time>
      </trkpt>
      <trkpt lat="47.11747" lon="16.05239">
        <ele>297.037069</ele>
        <time>2026-07-08T12:30:41.000Z</time>
      </trkpt>
      <trkpt lat="47.11742" lon="16.05242">
        <ele>297.000622</ele>
        <time>2026-07-08T12:30:42.000Z</time>
      </trkpt>
      <trkpt lat="47.11737" lon="16.05246">
        <ele>296.964812</ele>
        <time>2026-07-08T12:30:43.000Z</time>
      </trkpt>
      <trkpt lat="47.11733" lon="16.05249">
        <ele>296.929391</ele>
        <time>2026-07-08T12:30:44.000Z</time>
      </trkpt>
      <trkpt lat="47.11728" lon="16.05253">
        <ele>296.894773</ele>
        <time>2026-07-08T12:30:45.000Z</time>
      </trkpt>
      <trkpt lat="47.11724" lon="16.05256">
        <ele>296.903195</ele>
        <time>2026-07-08T12:30:46.000Z</time>
      </trkpt>
      <trkpt lat="47.11721" lon="16.05258">
        <ele>296.931066</ele>
        <time>2026-07-08T12:30:47.000Z</time>
      </trkpt>
      <trkpt lat="47.11718" lon="16.05259">
        <ele>296.953732</ele>
        <time>2026-07-08T12:30:48.000Z</time>
      </trkpt>
      <trkpt lat="47.11715" lon="16.05257">
        <ele>296.974202</ele>
        <time>2026-07-08T12:30:49.000Z</time>
      </trkpt>
      <trkpt lat="47.11714" lon="16.05254">
        <ele>296.993768</ele>
        <time>2026-07-08T12:30:50.000Z</time>
      </trkpt>
      <trkpt lat="47.11713" lon="16.0525">
        <ele>297.012207</ele>
        <time>2026-07-08T12:30:51.000Z</time>
      </trkpt>
      <trkpt lat="47.11713" lon="16.05247">
        <ele>297.031334</ele>
        <time>2026-07-08T12:30:52.000Z</time>
      </trkpt>
      <trkpt lat="47.11712" lon="16.05243">
        <ele>297.050952</ele>
        <time>2026-07-08T12:30:53.000Z</time>
      </trkpt>
      <trkpt lat="47.11711" lon="16.05239">
        <ele>297.070383</ele>
        <time>2026-07-08T12:30:54.000Z</time>
      </trkpt>
      <trkpt lat="47.11711" lon="16.05236">
        <ele>297.090155</ele>
        <time>2026-07-08T12:30:55.000Z</time>
      </trkpt>
      <trkpt lat="47.1171" lon="16.05232">
        <ele>297.111254</ele>
        <time>2026-07-08T12:30:56.000Z</time>
      </trkpt>
      <trkpt lat="47.11709" lon="16.05227">
        <ele>297.1365</ele>
        <time>2026-07-08T12:30:57.000Z</time>
      </trkpt>
      <trkpt lat="47.11708" lon="16.05222">
        <ele>297.164415</ele>
        <time>2026-07-08T12:30:58.000Z</time>
      </trkpt>
      <trkpt lat="47.11705" lon="16.05217">
        <ele>297.19694</ele>
        <time>2026-07-08T12:30:59.000Z</time>
      </trkpt>
      <trkpt lat="47.11703" lon="16.05212">
        <ele>297.229548</ele>
        <time>2026-07-08T12:31:00.000Z</time>
      </trkpt>
      <trkpt lat="47.117" lon="16.05207">
        <ele>297.261846</ele>
        <time>2026-07-08T12:31:01.000Z</time>
      </trkpt>
      <trkpt lat="47.11697" lon="16.05202">
        <ele>297.291128</ele>
        <time>2026-07-08T12:31:02.000Z</time>
      </trkpt>
      <trkpt lat="47.11695" lon="16.05198">
        <ele>297.318611</ele>
        <time>2026-07-08T12:31:03.000Z</time>
      </trkpt>
      <trkpt lat="47.11693" lon="16.05194">
        <ele>297.345219</ele>
        <time>2026-07-08T12:31:04.000Z</time>
      </trkpt>
      <trkpt lat="47.11691" lon="16.0519">
        <ele>297.370575</ele>
        <time>2026-07-08T12:31:05.000Z</time>
      </trkpt>
      <trkpt lat="47.11689" lon="16.05186">
        <ele>297.394665</ele>
        <time>2026-07-08T12:31:06.000Z</time>
      </trkpt>
      <trkpt lat="47.11688" lon="16.05182">
        <ele>297.417076</ele>
        <time>2026-07-08T12:31:08.000Z</time>
      </trkpt>
      <trkpt lat="47.11686" lon="16.05179">
        <ele>297.436094</ele>
        <time>2026-07-08T12:31:09.000Z</time>
      </trkpt>
      <trkpt lat="47.11685" lon="16.05177">
        <ele>297.453121</ele>
        <time>2026-07-08T12:31:10.000Z</time>
      </trkpt>
      <trkpt lat="47.11683" lon="16.05174">
        <ele>297.468791</ele>
        <time>2026-07-08T12:31:11.000Z</time>
      </trkpt>
      <trkpt lat="47.11682" lon="16.05173">
        <ele>297.481376</ele>
        <time>2026-07-08T12:31:12.000Z</time>
      </trkpt>
      <trkpt lat="47.1168" lon="16.05172">
        <ele>297.497079</ele>
        <time>2026-07-08T12:31:13.000Z</time>
      </trkpt>
      <trkpt lat="47.11677" lon="16.05173">
        <ele>297.515874</ele>
        <time>2026-07-08T12:31:14.000Z</time>
      </trkpt>
      <trkpt lat="47.11674" lon="16.05174">
        <ele>297.540666</ele>
        <time>2026-07-08T12:31:15.000Z</time>
      </trkpt>
      <trkpt lat="47.11671" lon="16.05176">
        <ele>297.566068</ele>
        <time>2026-07-08T12:31:16.000Z</time>
      </trkpt>
      <trkpt lat="47.11668" lon="16.05179">
        <ele>297.592748</ele>
        <time>2026-07-08T12:31:17.000Z</time>
      </trkpt>
      <trkpt lat="47.11665" lon="16.05182">
        <ele>297.619989</ele>
        <time>2026-07-08T12:31:18.000Z</time>
      </trkpt>
      <trkpt lat="47.11662" lon="16.05185">
        <ele>297.648213</ele>
        <time>2026-07-08T12:31:19.000Z</time>
      </trkpt>
      <trkpt lat="47.11658" lon="16.05187">
        <ele>297.677427</ele>
        <time>2026-07-08T12:31:20.000Z</time>
      </trkpt>
      <trkpt lat="47.11655" lon="16.0519">
        <ele>297.706033</ele>
        <time>2026-07-08T12:31:21.000Z</time>
      </trkpt>
      <trkpt lat="47.11652" lon="16.05193">
        <ele>297.733992</ele>
        <time>2026-07-08T12:31:22.000Z</time>
      </trkpt>
      <trkpt lat="47.11649" lon="16.05196">
        <ele>297.761044</ele>
        <time>2026-07-08T12:31:23.000Z</time>
      </trkpt>
      <trkpt lat="47.11646" lon="16.05198">
        <ele>297.788745</ele>
        <time>2026-07-08T12:31:24.000Z</time>
      </trkpt>
      <trkpt lat="47.11642" lon="16.05201">
        <ele>297.816195</ele>
        <time>2026-07-08T12:31:25.000Z</time>
      </trkpt>
      <trkpt lat="47.11639" lon="16.05203">
        <ele>297.84541</ele>
        <time>2026-07-08T12:31:26.000Z</time>
      </trkpt>
      <trkpt lat="47.11635" lon="16.05206">
        <ele>297.875573</ele>
        <time>2026-07-08T12:31:27.000Z</time>
      </trkpt>
      <trkpt lat="47.11632" lon="16.05209">
        <ele>297.907956</ele>
        <time>2026-07-08T12:31:28.000Z</time>
      </trkpt>
      <trkpt lat="47.11628" lon="16.05213">
        <ele>297.942393</ele>
        <time>2026-07-08T12:31:29.000Z</time>
      </trkpt>
      <trkpt lat="47.11624" lon="16.05216">
        <ele>297.977342</ele>
        <time>2026-07-08T12:31:30.000Z</time>
      </trkpt>
      <trkpt lat="47.1162" lon="16.0522">
        <ele>298.011009</ele>
        <time>2026-07-08T12:31:31.000Z</time>
      </trkpt>
      <trkpt lat="47.11616" lon="16.05223">
        <ele>298.04777</ele>
        <time>2026-07-08T12:31:32.000Z</time>
      </trkpt>
      <trkpt lat="47.11611" lon="16.05227">
        <ele>298.084672</ele>
        <time>2026-07-08T12:31:33.000Z</time>
      </trkpt>
      <trkpt lat="47.11607" lon="16.0523">
        <ele>298.124227</ele>
        <time>2026-07-08T12:31:34.000Z</time>
      </trkpt>
      <trkpt lat="47.11602" lon="16.05234">
        <ele>298.163331</ele>
        <time>2026-07-08T12:31:35.000Z</time>
      </trkpt>
      <trkpt lat="47.11597" lon="16.05237">
        <ele>298.200426</ele>
        <time>2026-07-08T12:31:36.000Z</time>
      </trkpt>
      <trkpt lat="47.11593" lon="16.0524">
        <ele>298.230378</ele>
        <time>2026-07-08T12:31:37.000Z</time>
      </trkpt>
      <trkpt lat="47.11588" lon="16.05242">
        <ele>298.214318</ele>
        <time>2026-07-08T12:31:38.000Z</time>
      </trkpt>
      <trkpt lat="47.11584" lon="16.05245">
        <ele>298.198342</ele>
        <time>2026-07-08T12:31:39.000Z</time>
      </trkpt>
      <trkpt lat="47.11579" lon="16.05247">
        <ele>298.182446</ele>
        <time>2026-07-08T12:31:40.000Z</time>
      </trkpt>
      <trkpt lat="47.11575" lon="16.0525">
        <ele>298.166629</ele>
        <time>2026-07-08T12:31:41.000Z</time>
      </trkpt>
      <trkpt lat="47.1157" lon="16.05252">
        <ele>298.151029</ele>
        <time>2026-07-08T12:31:42.000Z</time>
      </trkpt>
      <trkpt lat="47.11566" lon="16.05254">
        <ele>298.135521</ele>
        <time>2026-07-08T12:31:43.000Z</time>
      </trkpt>
      <trkpt lat="47.11562" lon="16.05257">
        <ele>298.121021</ele>
        <time>2026-07-08T12:31:44.000Z</time>
      </trkpt>
      <trkpt lat="47.11558" lon="16.05259">
        <ele>298.106909</ele>
        <time>2026-07-08T12:31:45.000Z</time>
      </trkpt>
      <trkpt lat="47.11554" lon="16.05261">
        <ele>298.093087</ele>
        <time>2026-07-08T12:31:46.000Z</time>
      </trkpt>
      <trkpt lat="47.1155" lon="16.05262">
        <ele>298.078693</ele>
        <time>2026-07-08T12:31:47.000Z</time>
      </trkpt>
      <trkpt lat="47.11545" lon="16.05264">
        <ele>298.064105</ele>
        <time>2026-07-08T12:31:48.000Z</time>
      </trkpt>
      <trkpt lat="47.11542" lon="16.05266">
        <ele>298.050691</ele>
        <time>2026-07-08T12:31:49.000Z</time>
      </trkpt>
      <trkpt lat="47.11538" lon="16.05269">
        <ele>298.036329</ele>
        <time>2026-07-08T12:31:50.000Z</time>
      </trkpt>
      <trkpt lat="47.11533" lon="16.05271">
        <ele>298.021439</ele>
        <time>2026-07-08T12:31:51.000Z</time>
      </trkpt>
      <trkpt lat="47.11529" lon="16.05274">
        <ele>298.006939</ele>
        <time>2026-07-08T12:31:52.000Z</time>
      </trkpt>
      <trkpt lat="47.11525" lon="16.05276">
        <ele>297.991197</ele>
        <time>2026-07-08T12:31:53.000Z</time>
      </trkpt>
      <trkpt lat="47.1152" lon="16.05278">
        <ele>297.975301</ele>
        <time>2026-07-08T12:31:54.000Z</time>
      </trkpt>
      <trkpt lat="47.11516" lon="16.05281">
        <ele>297.958786</ele>
        <time>2026-07-08T12:31:55.000Z</time>
      </trkpt>
      <trkpt lat="47.11511" lon="16.05283">
        <ele>297.94227</ele>
        <time>2026-07-08T12:31:56.000Z</time>
      </trkpt>
      <trkpt lat="47.11506" lon="16.05286">
        <ele>297.925288</ele>
        <time>2026-07-08T12:31:57.000Z</time>
      </trkpt>
      <trkpt lat="47.11501" lon="16.05289">
        <ele>297.908225</ele>
        <time>2026-07-08T12:31:58.000Z</time>
      </trkpt>
      <trkpt lat="47.11497" lon="16.05291">
        <ele>297.891784</ele>
        <time>2026-07-08T12:31:59.000Z</time>
      </trkpt>
      <trkpt lat="47.11492" lon="16.05294">
        <ele>297.874958</ele>
        <time>2026-07-08T12:32:00.000Z</time>
      </trkpt>
      <trkpt lat="47.11487" lon="16.05296">
        <ele>297.858727</ele>
        <time>2026-07-08T12:32:01.000Z</time>
      </trkpt>
      <trkpt lat="47.11482" lon="16.05298">
        <ele>297.842242</ele>
        <time>2026-07-08T12:32:02.000Z</time>
      </trkpt>
      <trkpt lat="47.11478" lon="16.05299">
        <ele>297.82635</ele>
        <time>2026-07-08T12:32:03.000Z</time>
      </trkpt>
      <trkpt lat="47.11473" lon="16.05301">
        <ele>297.810036</ele>
        <time>2026-07-08T12:32:04.000Z</time>
      </trkpt>
      <trkpt lat="47.11468" lon="16.05303">
        <ele>297.793348</ele>
        <time>2026-07-08T12:32:05.000Z</time>
      </trkpt>
      <trkpt lat="47.11463" lon="16.05305">
        <ele>297.77722</ele>
        <time>2026-07-08T12:32:06.000Z</time>
      </trkpt>
      <trkpt lat="47.11459" lon="16.05308">
        <ele>297.760289</ele>
        <time>2026-07-08T12:32:07.000Z</time>
      </trkpt>
      <trkpt lat="47.11454" lon="16.05312">
        <ele>297.743937</ele>
        <time>2026-07-08T12:32:08.000Z</time>
      </trkpt>
      <trkpt lat="47.1145" lon="16.05316">
        <ele>297.726762</ele>
        <time>2026-07-08T12:32:09.000Z</time>
      </trkpt>
      <trkpt lat="47.11446" lon="16.05321">
        <ele>297.710153</ele>
        <time>2026-07-08T12:32:10.000Z</time>
      </trkpt>
      <trkpt lat="47.11443" lon="16.05327">
        <ele>297.692554</ele>
        <time>2026-07-08T12:32:11.000Z</time>
      </trkpt>
      <trkpt lat="47.1144" lon="16.05334">
        <ele>297.675635</ele>
        <time>2026-07-08T12:32:12.000Z</time>
      </trkpt>
      <trkpt lat="47.11437" lon="16.0534">
        <ele>297.658512</ele>
        <time>2026-07-08T12:32:13.000Z</time>
      </trkpt>
      <trkpt lat="47.11435" lon="16.05346">
        <ele>297.641592</ele>
        <time>2026-07-08T12:32:14.000Z</time>
      </trkpt>
      <trkpt lat="47.11432" lon="16.05353">
        <ele>297.629401</ele>
        <time>2026-07-08T12:32:15.000Z</time>
      </trkpt>
      <trkpt lat="47.11429" lon="16.05359">
        <ele>297.618882</ele>
        <time>2026-07-08T12:32:16.000Z</time>
      </trkpt>
      <trkpt lat="47.11427" lon="16.05365">
        <ele>297.60845</ele>
        <time>2026-07-08T12:32:17.000Z</time>
      </trkpt>
      <trkpt lat="47.11425" lon="16.05371">
        <ele>297.598121</ele>
        <time>2026-07-08T12:32:18.000Z</time>
      </trkpt>
      <trkpt lat="47.11423" lon="16.05378">
        <ele>297.587758</ele>
        <time>2026-07-08T12:32:19.000Z</time>
      </trkpt>
      <trkpt lat="47.11421" lon="16.05384">
        <ele>297.57722</ele>
        <time>2026-07-08T12:32:20.000Z</time>
      </trkpt>
      <trkpt lat="47.11419" lon="16.05391">
        <ele>297.566276</ele>
        <time>2026-07-08T12:32:21.000Z</time>
      </trkpt>
      <trkpt lat="47.11417" lon="16.05398">
        <ele>297.55528</ele>
        <time>2026-07-08T12:32:22.000Z</time>
      </trkpt>
      <trkpt lat="47.11416" lon="16.05405">
        <ele>297.544561</ele>
        <time>2026-07-08T12:32:23.000Z</time>
      </trkpt>
      <trkpt lat="47.11414" lon="16.05412">
        <ele>297.533128</ele>
        <time>2026-07-08T12:32:24.000Z</time>
      </trkpt>
      <trkpt lat="47.11413" lon="16.0542">
        <ele>297.521878</ele>
        <time>2026-07-08T12:32:25.000Z</time>
      </trkpt>
      <trkpt lat="47.11413" lon="16.05427">
        <ele>297.510745</ele>
        <time>2026-07-08T12:32:26.000Z</time>
      </trkpt>
      <trkpt lat="47.11413" lon="16.05435">
        <ele>297.499663</ele>
        <time>2026-07-08T12:32:27.000Z</time>
      </trkpt>
      <trkpt lat="47.11413" lon="16.05442">
        <ele>297.489313</ele>
        <time>2026-07-08T12:32:28.000Z</time>
      </trkpt>
      <trkpt lat="47.11412" lon="16.05448">
        <ele>297.47965</ele>
        <time>2026-07-08T12:32:29.000Z</time>
      </trkpt>
      <trkpt lat="47.11412" lon="16.05454">
        <ele>297.470762</ele>
        <time>2026-07-08T12:32:30.000Z</time>
      </trkpt>
      <trkpt lat="47.11412" lon="16.05459">
        <ele>297.463216</ele>
        <time>2026-07-08T12:32:31.000Z</time>
      </trkpt>
      <trkpt lat="47.11412" lon="16.05464">
        <ele>297.456488</ele>
        <time>2026-07-08T12:32:32.000Z</time>
      </trkpt>
      <trkpt lat="47.11414" lon="16.05466">
        <ele>297.451667</ele>
        <time>2026-07-08T12:32:33.000Z</time>
      </trkpt>
      <trkpt lat="47.11416" lon="16.05465">
        <ele>297.447903</ele>
        <time>2026-07-08T12:32:34.000Z</time>
      </trkpt>
      <trkpt lat="47.11417" lon="16.05463">
        <ele>297.444348</ele>
        <time>2026-07-08T12:32:35.000Z</time>
      </trkpt>
      <trkpt lat="47.11417" lon="16.05461">
        <ele>297.440655</ele>
        <time>2026-07-08T12:32:36.000Z</time>
      </trkpt>
      <trkpt lat="47.11416" lon="16.05458">
        <ele>297.436521</ele>
        <time>2026-07-08T12:32:37.000Z</time>
      </trkpt>
      <trkpt lat="47.11416" lon="16.05455">
        <ele>297.432388</ele>
        <time>2026-07-08T12:32:38.000Z</time>
      </trkpt>
      <trkpt lat="47.11415" lon="16.05453">
        <ele>297.428257</ele>
        <time>2026-07-08T12:32:39.000Z</time>
      </trkpt>
      <trkpt lat="47.11414" lon="16.0545">
        <ele>297.423838</ele>
        <time>2026-07-08T12:32:40.000Z</time>
      </trkpt>
      <trkpt lat="47.11414" lon="16.05447">
        <ele>297.418919</ele>
        <time>2026-07-08T12:32:41.000Z</time>
      </trkpt>
      <trkpt lat="47.11414" lon="16.05443">
        <ele>297.413289</ele>
        <time>2026-07-08T12:32:42.000Z</time>
      </trkpt>
      <trkpt lat="47.11414" lon="16.05439">
        <ele>297.407081</ele>
        <time>2026-07-08T12:32:43.000Z</time>
      </trkpt>
      <trkpt lat="47.11413" lon="16.05434">
        <ele>297.400152</ele>
        <time>2026-07-08T12:32:44.000Z</time>
      </trkpt>
      <trkpt lat="47.11411" lon="16.0543">
        <ele>297.393312</ele>
        <time>2026-07-08T12:32:45.000Z</time>
      </trkpt>
      <trkpt lat="47.11408" lon="16.05428">
        <ele>297.386276</ele>
        <time>2026-07-08T12:32:46.000Z</time>
      </trkpt>
      <trkpt lat="47.11405" lon="16.05428">
        <ele>297.378665</ele>
        <time>2026-07-08T12:32:47.000Z</time>
      </trkpt>
      <trkpt lat="47.11401" lon="16.05429">
        <ele>297.37044</ele>
        <time>2026-07-08T12:32:48.000Z</time>
      </trkpt>
      <trkpt lat="47.11397" lon="16.05431">
        <ele>297.361882</ele>
        <time>2026-07-08T12:32:49.000Z</time>
      </trkpt>
      <trkpt lat="47.11394" lon="16.05433">
        <ele>297.35373</ele>
        <time>2026-07-08T12:32:50.000Z</time>
      </trkpt>
      <trkpt lat="47.11391" lon="16.05435">
        <ele>297.346089</ele>
        <time>2026-07-08T12:32:51.000Z</time>
      </trkpt>
      <trkpt lat="47.11387" lon="16.05437">
        <ele>297.337327</ele>
        <time>2026-07-08T12:32:52.000Z</time>
      </trkpt>
      <trkpt lat="47.11383" lon="16.05439">
        <ele>297.328056</ele>
        <time>2026-07-08T12:32:53.000Z</time>
      </trkpt>
      <trkpt lat="47.11379" lon="16.05441">
        <ele>297.318836</ele>
        <time>2026-07-08T12:32:54.000Z</time>
      </trkpt>
      <trkpt lat="47.11374" lon="16.05443">
        <ele>297.308672</ele>
        <time>2026-07-08T12:32:55.000Z</time>
      </trkpt>
      <trkpt lat="47.1137" lon="16.05445">
        <ele>297.298757</ele>
        <time>2026-07-08T12:32:56.000Z</time>
      </trkpt>
      <trkpt lat="47.11366" lon="16.05446">
        <ele>297.289052</ele>
        <time>2026-07-08T12:32:57.000Z</time>
      </trkpt>
      <trkpt lat="47.11361" lon="16.05449">
        <ele>297.27927</ele>
        <time>2026-07-08T12:32:58.000Z</time>
      </trkpt>
      <trkpt lat="47.11357" lon="16.05452">
        <ele>297.268937</ele>
        <time>2026-07-08T12:32:59.000Z</time>
      </trkpt>
      <trkpt lat="47.11353" lon="16.05456">
        <ele>297.258959</ele>
        <time>2026-07-08T12:33:00.000Z</time>
      </trkpt>
      <trkpt lat="47.11349" lon="16.0546">
        <ele>297.248195</ele>
        <time>2026-07-08T12:33:01.000Z</time>
      </trkpt>
      <trkpt lat="47.11346" lon="16.05465">
        <ele>297.214544</ele>
        <time>2026-07-08T12:33:02.000Z</time>
      </trkpt>
      <trkpt lat="47.11342" lon="16.0547">
        <ele>297.179278</ele>
        <time>2026-07-08T12:33:03.000Z</time>
      </trkpt>
      <trkpt lat="47.11338" lon="16.05474">
        <ele>297.14455</ele>
        <time>2026-07-08T12:33:04.000Z</time>
      </trkpt>
      <trkpt lat="47.11335" lon="16.05479">
        <ele>297.111076</ele>
        <time>2026-07-08T12:33:05.000Z</time>
      </trkpt>
      <trkpt lat="47.11332" lon="16.05485">
        <ele>297.079134</ele>
        <time>2026-07-08T12:33:06.000Z</time>
      </trkpt>
      <trkpt lat="47.11331" lon="16.05492">
        <ele>297.045247</ele>
        <time>2026-07-08T12:33:07.000Z</time>
      </trkpt>
      <trkpt lat="47.11331" lon="16.05499">
        <ele>297.011434</ele>
        <time>2026-07-08T12:33:08.000Z</time>
      </trkpt>
      <trkpt lat="47.11332" lon="16.05506">
        <ele>296.97766</ele>
        <time>2026-07-08T12:33:09.000Z</time>
      </trkpt>
      <trkpt lat="47.11333" lon="16.05513">
        <ele>296.943311</ele>
        <time>2026-07-08T12:33:10.000Z</time>
      </trkpt>
      <trkpt lat="47.11335" lon="16.0552">
        <ele>296.906485</ele>
        <time>2026-07-08T12:33:11.000Z</time>
      </trkpt>
      <trkpt lat="47.11335" lon="16.05528">
        <ele>296.868836</ele>
        <time>2026-07-08T12:33:12.000Z</time>
      </trkpt>
      <trkpt lat="47.11334" lon="16.05536">
        <ele>296.830609</ele>
        <time>2026-07-08T12:33:13.000Z</time>
      </trkpt>
      <trkpt lat="47.11333" lon="16.05544">
        <ele>296.791125</ele>
        <time>2026-07-08T12:33:14.000Z</time>
      </trkpt>
      <trkpt lat="47.1133" lon="16.05552">
        <ele>296.75192</ele>
        <time>2026-07-08T12:33:15.000Z</time>
      </trkpt>
      <trkpt lat="47.11327" lon="16.05558">
        <ele>296.71173</ele>
        <time>2026-07-08T12:33:16.000Z</time>
      </trkpt>
      <trkpt lat="47.11323" lon="16.05564">
        <ele>296.671764</ele>
        <time>2026-07-08T12:33:17.000Z</time>
      </trkpt>
      <trkpt lat="47.11318" lon="16.05569">
        <ele>296.631745</ele>
        <time>2026-07-08T12:33:18.000Z</time>
      </trkpt>
      <trkpt lat="47.11313" lon="16.05573">
        <ele>296.593163</ele>
        <time>2026-07-08T12:33:19.000Z</time>
      </trkpt>
      <trkpt lat="47.11308" lon="16.05577">
        <ele>296.553804</ele>
        <time>2026-07-08T12:33:20.000Z</time>
      </trkpt>
      <trkpt lat="47.11303" lon="16.05581">
        <ele>296.514</ele>
        <time>2026-07-08T12:33:21.000Z</time>
      </trkpt>
      <trkpt lat="47.11298" lon="16.05585">
        <ele>296.473849</ele>
        <time>2026-07-08T12:33:22.000Z</time>
      </trkpt>
      <trkpt lat="47.11294" lon="16.0559">
        <ele>296.434945</ele>
        <time>2026-07-08T12:33:23.000Z</time>
      </trkpt>
      <trkpt lat="47.11289" lon="16.05594">
        <ele>296.394544</ele>
        <time>2026-07-08T12:33:24.000Z</time>
      </trkpt>
      <trkpt lat="47.11284" lon="16.05598">
        <ele>296.354965</ele>
        <time>2026-07-08T12:33:25.000Z</time>
      </trkpt>
      <trkpt lat="47.11279" lon="16.05602">
        <ele>296.316002</ele>
        <time>2026-07-08T12:33:26.000Z</time>
      </trkpt>
      <trkpt lat="47.11274" lon="16.05604">
        <ele>296.27859</ele>
        <time>2026-07-08T12:33:27.000Z</time>
      </trkpt>
      <trkpt lat="47.11269" lon="16.05607">
        <ele>296.242001</ele>
        <time>2026-07-08T12:33:28.000Z</time>
      </trkpt>
      <trkpt lat="47.11264" lon="16.0561">
        <ele>296.205073</ele>
        <time>2026-07-08T12:33:29.000Z</time>
      </trkpt>
      <trkpt lat="47.11259" lon="16.05612">
        <ele>296.168146</ele>
        <time>2026-07-08T12:33:30.000Z</time>
      </trkpt>
      <trkpt lat="47.11254" lon="16.05615">
        <ele>296.131218</ele>
        <time>2026-07-08T12:33:31.000Z</time>
      </trkpt>
      <trkpt lat="47.11249" lon="16.05617">
        <ele>296.095109</ele>
        <time>2026-07-08T12:33:32.000Z</time>
      </trkpt>
      <trkpt lat="47.11245" lon="16.05621">
        <ele>296.05951</ele>
        <time>2026-07-08T12:33:33.000Z</time>
      </trkpt>
      <trkpt lat="47.11241" lon="16.05626">
        <ele>296.023098</ele>
        <time>2026-07-08T12:33:34.000Z</time>
      </trkpt>
      <trkpt lat="47.11237" lon="16.05632">
        <ele>295.981807</ele>
        <time>2026-07-08T12:33:35.000Z</time>
      </trkpt>
      <trkpt lat="47.11236" lon="16.0564">
        <ele>295.92323</ele>
        <time>2026-07-08T12:33:36.000Z</time>
      </trkpt>
      <trkpt lat="47.11235" lon="16.05649">
        <ele>295.861891</ele>
        <time>2026-07-08T12:33:37.000Z</time>
      </trkpt>
      <trkpt lat="47.11234" lon="16.05658">
        <ele>295.79929</ele>
        <time>2026-07-08T12:33:38.000Z</time>
      </trkpt>
      <trkpt lat="47.11235" lon="16.05668">
        <ele>295.731732</ele>
        <time>2026-07-08T12:33:39.000Z</time>
      </trkpt>
      <trkpt lat="47.11235" lon="16.05678">
        <ele>295.663328</ele>
        <time>2026-07-08T12:33:40.000Z</time>
      </trkpt>
      <trkpt lat="47.11237" lon="16.05687">
        <ele>295.597111</ele>
        <time>2026-07-08T12:33:41.000Z</time>
      </trkpt>
      <trkpt lat="47.11237" lon="16.05696">
        <ele>295.53087</ele>
        <time>2026-07-08T12:33:42.000Z</time>
      </trkpt>
      <trkpt lat="47.11236" lon="16.05705">
        <ele>295.467474</ele>
        <time>2026-07-08T12:33:43.000Z</time>
      </trkpt>
      <trkpt lat="47.11233" lon="16.05713">
        <ele>295.404752</ele>
        <time>2026-07-08T12:33:44.000Z</time>
      </trkpt>
      <trkpt lat="47.11229" lon="16.05719">
        <ele>295.344961</ele>
        <time>2026-07-08T12:33:45.000Z</time>
      </trkpt>
      <trkpt lat="47.11223" lon="16.05723">
        <ele>295.283449</ele>
        <time>2026-07-08T12:33:46.000Z</time>
      </trkpt>
      <trkpt lat="47.11217" lon="16.05726">
        <ele>295.219443</ele>
        <time>2026-07-08T12:33:47.000Z</time>
      </trkpt>
      <trkpt lat="47.11212" lon="16.05729">
        <ele>295.156632</ele>
        <time>2026-07-08T12:33:48.000Z</time>
      </trkpt>
      <trkpt lat="47.11206" lon="16.05732">
        <ele>295.090942</ele>
        <time>2026-07-08T12:33:49.000Z</time>
      </trkpt>
      <trkpt lat="47.112" lon="16.05736">
        <ele>295.026625</ele>
        <time>2026-07-08T12:33:50.000Z</time>
      </trkpt>
      <trkpt lat="47.11194" lon="16.0574">
        <ele>294.962971</ele>
        <time>2026-07-08T12:33:51.000Z</time>
      </trkpt>
      <trkpt lat="47.11188" lon="16.05743">
        <ele>294.899032</ele>
        <time>2026-07-08T12:33:52.000Z</time>
      </trkpt>
      <trkpt lat="47.11183" lon="16.05748">
        <ele>294.835715</ele>
        <time>2026-07-08T12:33:53.000Z</time>
      </trkpt>
      <trkpt lat="47.11178" lon="16.05752">
        <ele>294.774204</ele>
        <time>2026-07-08T12:33:54.000Z</time>
      </trkpt>
      <trkpt lat="47.11172" lon="16.05756">
        <ele>294.713251</ele>
        <time>2026-07-08T12:33:55.000Z</time>
      </trkpt>
      <trkpt lat="47.11167" lon="16.05761">
        <ele>294.652483</ele>
        <time>2026-07-08T12:33:56.000Z</time>
      </trkpt>
      <trkpt lat="47.11163" lon="16.05766">
        <ele>294.59321</ele>
        <time>2026-07-08T12:33:57.000Z</time>
      </trkpt>
      <trkpt lat="47.11158" lon="16.05771">
        <ele>294.53473</ele>
        <time>2026-07-08T12:33:58.000Z</time>
      </trkpt>
      <trkpt lat="47.11154" lon="16.05776">
        <ele>294.477397</ele>
        <time>2026-07-08T12:33:59.000Z</time>
      </trkpt>
      <trkpt lat="47.11149" lon="16.05782">
        <ele>294.417477</ele>
        <time>2026-07-08T12:34:00.000Z</time>
      </trkpt>
      <trkpt lat="47.11145" lon="16.05788">
        <ele>294.359339</ele>
        <time>2026-07-08T12:34:01.000Z</time>
      </trkpt>
      <trkpt lat="47.11141" lon="16.05793">
        <ele>294.302419</ele>
        <time>2026-07-08T12:34:02.000Z</time>
      </trkpt>
      <trkpt lat="47.11137" lon="16.05799">
        <ele>294.245014</ele>
        <time>2026-07-08T12:34:03.000Z</time>
      </trkpt>
      <trkpt lat="47.11134" lon="16.05805">
        <ele>294.187686</ele>
        <time>2026-07-08T12:34:04.000Z</time>
      </trkpt>
      <trkpt lat="47.1113" lon="16.05812">
        <ele>294.150429</ele>
        <time>2026-07-08T12:34:05.000Z</time>
      </trkpt>
      <trkpt lat="47.11127" lon="16.05819">
        <ele>294.143503</ele>
        <time>2026-07-08T12:34:06.000Z</time>
      </trkpt>
      <trkpt lat="47.11124" lon="16.05827">
        <ele>294.13662</ele>
        <time>2026-07-08T12:34:07.000Z</time>
      </trkpt>
      <trkpt lat="47.11121" lon="16.05834">
        <ele>294.129762</ele>
        <time>2026-07-08T12:34:08.000Z</time>
      </trkpt>
      <trkpt lat="47.11119" lon="16.05842">
        <ele>294.12278</ele>
        <time>2026-07-08T12:34:09.000Z</time>
      </trkpt>
      <trkpt lat="47.11116" lon="16.0585">
        <ele>294.115869</ele>
        <time>2026-07-08T12:34:10.000Z</time>
      </trkpt>
      <trkpt lat="47.11113" lon="16.05857">
        <ele>294.109201</ele>
        <time>2026-07-08T12:34:11.000Z</time>
      </trkpt>
      <trkpt lat="47.11109" lon="16.05862">
        <ele>294.102948</ele>
        <time>2026-07-08T12:34:12.000Z</time>
      </trkpt>
      <trkpt lat="47.11104" lon="16.05866">
        <ele>294.096875</ele>
        <time>2026-07-08T12:34:13.000Z</time>
      </trkpt>
      <trkpt lat="47.11099" lon="16.05865">
        <ele>294.090979</ele>
        <time>2026-07-08T12:34:14.000Z</time>
      </trkpt>
      <trkpt lat="47.11095" lon="16.05861">
        <ele>294.084729</ele>
        <time>2026-07-08T12:34:15.000Z</time>
      </trkpt>
      <trkpt lat="47.11091" lon="16.05855">
        <ele>294.078306</ele>
        <time>2026-07-08T12:34:16.000Z</time>
      </trkpt>
      <trkpt lat="47.11087" lon="16.05849">
        <ele>294.071648</ele>
        <time>2026-07-08T12:34:17.000Z</time>
      </trkpt>
      <trkpt lat="47.11083" lon="16.05842">
        <ele>294.064912</ele>
        <time>2026-07-08T12:34:18.000Z</time>
      </trkpt>
      <trkpt lat="47.11079" lon="16.05837">
        <ele>294.058598</ele>
        <time>2026-07-08T12:34:19.000Z</time>
      </trkpt>
      <trkpt lat="47.11075" lon="16.05833">
        <ele>294.052513</ele>
        <time>2026-07-08T12:34:20.000Z</time>
      </trkpt>
      <trkpt lat="47.1107" lon="16.05831">
        <ele>294.046235</ele>
        <time>2026-07-08T12:34:21.000Z</time>
      </trkpt>
      <trkpt lat="47.11065" lon="16.05831">
        <ele>294.040134</ele>
        <time>2026-07-08T12:34:22.000Z</time>
      </trkpt>
      <trkpt lat="47.11059" lon="16.05831">
        <ele>294.034005</ele>
        <time>2026-07-08T12:34:23.000Z</time>
      </trkpt>
      <trkpt lat="47.11054" lon="16.05833">
        <ele>294.02793</ele>
        <time>2026-07-08T12:34:24.000Z</time>
      </trkpt>
      <trkpt lat="47.11049" lon="16.05836">
        <ele>294.021763</ele>
        <time>2026-07-08T12:34:25.000Z</time>
      </trkpt>
      <trkpt lat="47.11045" lon="16.05838">
        <ele>294.016067</ele>
        <time>2026-07-08T12:34:26.000Z</time>
      </trkpt>
      <trkpt lat="47.1104" lon="16.0584">
        <ele>294.010592</ele>
        <time>2026-07-08T12:34:27.000Z</time>
      </trkpt>
      <trkpt lat="47.11036" lon="16.05844">
        <ele>294.004829</ele>
        <time>2026-07-08T12:34:28.000Z</time>
      </trkpt>
      <trkpt lat="47.11032" lon="16.05848">
        <ele>293.999157</ele>
        <time>2026-07-08T12:34:29.000Z</time>
      </trkpt>
      <trkpt lat="47.11029" lon="16.05854">
        <ele>293.99293</ele>
        <time>2026-07-08T12:34:30.000Z</time>
      </trkpt>
      <trkpt lat="47.11026" lon="16.0586">
        <ele>293.986792</ele>
        <time>2026-07-08T12:34:31.000Z</time>
      </trkpt>
      <trkpt lat="47.11023" lon="16.05867">
        <ele>293.980538</ele>
        <time>2026-07-08T12:34:32.000Z</time>
      </trkpt>
      <trkpt lat="47.11022" lon="16.05875">
        <ele>293.974208</ele>
        <time>2026-07-08T12:34:33.000Z</time>
      </trkpt>
      <trkpt lat="47.11022" lon="16.05883">
        <ele>293.967825</ele>
        <time>2026-07-08T12:34:34.000Z</time>
      </trkpt>
      <trkpt lat="47.11024" lon="16.05891">
        <ele>293.961435</ele>
        <time>2026-07-08T12:34:35.000Z</time>
      </trkpt>
      <trkpt lat="47.11027" lon="16.05898">
        <ele>293.95464</ele>
        <time>2026-07-08T12:34:36.000Z</time>
      </trkpt>
      <trkpt lat="47.11032" lon="16.05903">
        <ele>293.947647</ele>
        <time>2026-07-08T12:34:37.000Z</time>
      </trkpt>
      <trkpt lat="47.11037" lon="16.05907">
        <ele>293.938601</ele>
        <time>2026-07-08T12:34:38.000Z</time>
      </trkpt>
      <trkpt lat="47.11042" lon="16.0591">
        <ele>293.917883</ele>
        <time>2026-07-08T12:34:39.000Z</time>
      </trkpt>
      <trkpt lat="47.11048" lon="16.05913">
        <ele>293.89799</ele>
        <time>2026-07-08T12:34:40.000Z</time>
      </trkpt>
      <trkpt lat="47.11053" lon="16.05916">
        <ele>293.877183</ele>
        <time>2026-07-08T12:34:41.000Z</time>
      </trkpt>
      <trkpt lat="47.11059" lon="16.05919">
        <ele>293.856464</ele>
        <time>2026-07-08T12:34:42.000Z</time>
      </trkpt>
      <trkpt lat="47.11064" lon="16.05922">
        <ele>293.835917</ele>
        <time>2026-07-08T12:34:43.000Z</time>
      </trkpt>
      <trkpt lat="47.1107" lon="16.05926">
        <ele>293.814459</ele>
        <time>2026-07-08T12:34:44.000Z</time>
      </trkpt>
      <trkpt lat="47.11075" lon="16.05929">
        <ele>293.79439</ele>
        <time>2026-07-08T12:34:45.000Z</time>
      </trkpt>
      <trkpt lat="47.11081" lon="16.05932">
        <ele>293.773843</ele>
        <time>2026-07-08T12:34:46.000Z</time>
      </trkpt>
      <trkpt lat="47.11085" lon="16.05936">
        <ele>293.754153</ele>
        <time>2026-07-08T12:34:47.000Z</time>
      </trkpt>
      <trkpt lat="47.11089" lon="16.05942">
        <ele>293.734887</ele>
        <time>2026-07-08T12:34:48.000Z</time>
      </trkpt>
      <trkpt lat="47.11092" lon="16.05949">
        <ele>293.715832</ele>
        <time>2026-07-08T12:34:49.000Z</time>
      </trkpt>
      <trkpt lat="47.11093" lon="16.05957">
        <ele>293.696458</ele>
        <time>2026-07-08T12:34:50.000Z</time>
      </trkpt>
      <trkpt lat="47.11094" lon="16.05965">
        <ele>293.677232</ele>
        <time>2026-07-08T12:34:51.000Z</time>
      </trkpt>
      <trkpt lat="47.11094" lon="16.05973">
        <ele>293.657419</ele>
        <time>2026-07-08T12:34:52.000Z</time>
      </trkpt>
      <trkpt lat="47.11095" lon="16.05982">
        <ele>293.637083</ele>
        <time>2026-07-08T12:34:53.000Z</time>
      </trkpt>
      <trkpt lat="47.11095" lon="16.0599">
        <ele>293.616674</ele>
        <time>2026-07-08T12:34:54.000Z</time>
      </trkpt>
      <trkpt lat="47.11096" lon="16.05998">
        <ele>293.596812</ele>
        <time>2026-07-08T12:34:55.000Z</time>
      </trkpt>
      <trkpt lat="47.11096" lon="16.06007">
        <ele>293.576679</ele>
        <time>2026-07-08T12:34:56.000Z</time>
      </trkpt>
      <trkpt lat="47.11097" lon="16.06015">
        <ele>293.556645</ele>
        <time>2026-07-08T12:34:57.000Z</time>
      </trkpt>
      <trkpt lat="47.11098" lon="16.06023">
        <ele>293.536749</ele>
        <time>2026-07-08T12:34:58.000Z</time>
      </trkpt>
      <trkpt lat="47.11099" lon="16.06032">
        <ele>293.516577</ele>
        <time>2026-07-08T12:34:59.000Z</time>
      </trkpt>
      <trkpt lat="47.11099" lon="16.0604">
        <ele>293.497067</ele>
        <time>2026-07-08T12:35:00.000Z</time>
      </trkpt>
      <trkpt lat="47.111" lon="16.06048">
        <ele>293.477268</ele>
        <time>2026-07-08T12:35:01.000Z</time>
      </trkpt>
      <trkpt lat="47.11101" lon="16.06056">
        <ele>293.457644</ele>
        <time>2026-07-08T12:35:02.000Z</time>
      </trkpt>
      <trkpt lat="47.11101" lon="16.06065">
        <ele>293.437307</ele>
        <time>2026-07-08T12:35:03.000Z</time>
      </trkpt>
      <trkpt lat="47.11102" lon="16.06073">
        <ele>293.418033</ele>
        <time>2026-07-08T12:35:04.000Z</time>
      </trkpt>
      <trkpt lat="47.11103" lon="16.06081">
        <ele>293.398273</ele>
        <time>2026-07-08T12:35:05.000Z</time>
      </trkpt>
      <trkpt lat="47.11104" lon="16.06089">
        <ele>293.378999</ele>
        <time>2026-07-08T12:35:06.000Z</time>
      </trkpt>
      <trkpt lat="47.11105" lon="16.06097">
        <ele>293.358827</ele>
        <time>2026-07-08T12:35:07.000Z</time>
      </trkpt>
      <trkpt lat="47.11106" lon="16.06106">
        <ele>293.338373</ele>
        <time>2026-07-08T12:35:08.000Z</time>
      </trkpt>
      <trkpt lat="47.11106" lon="16.06114">
        <ele>293.318986</ele>
        <time>2026-07-08T12:35:09.000Z</time>
      </trkpt>
      <trkpt lat="47.11107" lon="16.06122">
        <ele>293.335676</ele>
        <time>2026-07-08T12:35:10.000Z</time>
      </trkpt>
      <trkpt lat="47.11107" lon="16.0613">
        <ele>293.369901</ele>
        <time>2026-07-08T12:35:11.000Z</time>
      </trkpt>
      <trkpt lat="47.11106" lon="16.06138">
        <ele>293.403508</ele>
        <time>2026-07-08T12:35:12.000Z</time>
      </trkpt>
      <trkpt lat="47.11104" lon="16.06144">
        <ele>293.435347</ele>
        <time>2026-07-08T12:35:13.000Z</time>
      </trkpt>
      <trkpt lat="47.11099" lon="16.06149">
        <ele>293.468514</ele>
        <time>2026-07-08T12:35:14.000Z</time>
      </trkpt>
      <trkpt lat="47.11094" lon="16.06148">
        <ele>293.50494</ele>
        <time>2026-07-08T12:35:15.000Z</time>
      </trkpt>
      <trkpt lat="47.11088" lon="16.06147">
        <ele>293.54314</ele>
        <time>2026-07-08T12:35:16.000Z</time>
      </trkpt>
      <trkpt lat="47.11082" lon="16.06145">
        <ele>293.581954</ele>
        <time>2026-07-08T12:35:17.000Z</time>
      </trkpt>
      <trkpt lat="47.11076" lon="16.06142">
        <ele>293.620272</ele>
        <time>2026-07-08T12:35:18.000Z</time>
      </trkpt>
      <trkpt lat="47.1107" lon="16.06138">
        <ele>293.65879</ele>
        <time>2026-07-08T12:35:19.000Z</time>
      </trkpt>
      <trkpt lat="47.11065" lon="16.06133">
        <ele>293.697796</ele>
        <time>2026-07-08T12:35:20.000Z</time>
      </trkpt>
      <trkpt lat="47.1106" lon="16.06127">
        <ele>293.736001</ele>
        <time>2026-07-08T12:35:21.000Z</time>
      </trkpt>
      <trkpt lat="47.11056" lon="16.06121">
        <ele>293.77414</ele>
        <time>2026-07-08T12:35:22.000Z</time>
      </trkpt>
      <trkpt lat="47.11051" lon="16.06116">
        <ele>293.810958</ele>
        <time>2026-07-08T12:35:23.000Z</time>
      </trkpt>
      <trkpt lat="47.11047" lon="16.06111">
        <ele>293.846695</ele>
        <time>2026-07-08T12:35:24.000Z</time>
      </trkpt>
      <trkpt lat="47.11041" lon="16.06109">
        <ele>293.88078</ele>
        <time>2026-07-08T12:35:25.000Z</time>
      </trkpt>
      <trkpt lat="47.11036" lon="16.06109">
        <ele>293.912188</ele>
        <time>2026-07-08T12:35:26.000Z</time>
      </trkpt>
      <trkpt lat="47.11032" lon="16.06111">
        <ele>293.942093</ele>
        <time>2026-07-08T12:35:27.000Z</time>
      </trkpt>
      <trkpt lat="47.11028" lon="16.06115">
        <ele>293.972346</ele>
        <time>2026-07-08T12:35:28.000Z</time>
      </trkpt>
      <trkpt lat="47.11023" lon="16.06118">
        <ele>294.002652</ele>
        <time>2026-07-08T12:35:29.000Z</time>
      </trkpt>
      <trkpt lat="47.11019" lon="16.06121">
        <ele>294.031238</ele>
        <time>2026-07-08T12:35:30.000Z</time>
      </trkpt>
      <trkpt lat="47.11015" lon="16.06124">
        <ele>294.059622</ele>
        <time>2026-07-08T12:35:31.000Z</time>
      </trkpt>
      <trkpt lat="47.11012" lon="16.06128">
        <ele>294.087547</ele>
        <time>2026-07-08T12:35:32.000Z</time>
      </trkpt>
      <trkpt lat="47.11008" lon="16.06131">
        <ele>294.114714</ele>
        <time>2026-07-08T12:35:33.000Z</time>
      </trkpt>
      <trkpt lat="47.11004" lon="16.06134">
        <ele>294.141122</ele>
        <time>2026-07-08T12:35:34.000Z</time>
      </trkpt>
      <trkpt lat="47.11001" lon="16.06137">
        <ele>294.167646</ele>
        <time>2026-07-08T12:35:35.000Z</time>
      </trkpt>
      <trkpt lat="47.10997" lon="16.0614">
        <ele>294.193079</ele>
        <time>2026-07-08T12:35:36.000Z</time>
      </trkpt>
      <trkpt lat="47.10993" lon="16.06143">
        <ele>294.21864</ele>
        <time>2026-07-08T12:35:37.000Z</time>
      </trkpt>
      <trkpt lat="47.1099" lon="16.06144">
        <ele>294.242126</ele>
        <time>2026-07-08T12:35:38.000Z</time>
      </trkpt>
      <trkpt lat="47.10986" lon="16.06144">
        <ele>294.266619</ele>
        <time>2026-07-08T12:35:39.000Z</time>
      </trkpt>
      <trkpt lat="47.10982" lon="16.06143">
        <ele>294.289177</ele>
        <time>2026-07-08T12:35:40.000Z</time>
      </trkpt>
      <trkpt lat="47.10979" lon="16.0614">
        <ele>294.313095</ele>
        <time>2026-07-08T12:35:41.000Z</time>
      </trkpt>
      <trkpt lat="47.10977" lon="16.06136">
        <ele>294.33693</ele>
        <time>2026-07-08T12:35:42.000Z</time>
      </trkpt>
      <trkpt lat="47.10974" lon="16.06131">
        <ele>294.362006</ele>
        <time>2026-07-08T12:35:43.000Z</time>
      </trkpt>
      <trkpt lat="47.10972" lon="16.06126">
        <ele>294.388525</ele>
        <time>2026-07-08T12:35:44.000Z</time>
      </trkpt>
      <trkpt lat="47.1097" lon="16.0612">
        <ele>294.415777</ele>
        <time>2026-07-08T12:35:45.000Z</time>
      </trkpt>
      <trkpt lat="47.10968" lon="16.06114">
        <ele>294.441687</ele>
        <time>2026-07-08T12:35:46.000Z</time>
      </trkpt>
      <trkpt lat="47.10966" lon="16.06108">
        <ele>294.446144</ele>
        <time>2026-07-08T12:35:47.000Z</time>
      </trkpt>
      <trkpt lat="47.10963" lon="16.06102">
        <ele>294.45059</ele>
        <time>2026-07-08T12:35:48.000Z</time>
      </trkpt>
      <trkpt lat="47.10961" lon="16.06096">
        <ele>294.455242</ele>
        <time>2026-07-08T12:35:49.000Z</time>
      </trkpt>
      <trkpt lat="47.10958" lon="16.0609">
        <ele>294.459735</ele>
        <time>2026-07-08T12:35:50.000Z</time>
      </trkpt>
      <trkpt lat="47.10956" lon="16.06084">
        <ele>294.464277</ele>
        <time>2026-07-08T12:35:51.000Z</time>
      </trkpt>
      <trkpt lat="47.10953" lon="16.06078">
        <ele>294.468929</ele>
        <time>2026-07-08T12:35:52.000Z</time>
      </trkpt>
      <trkpt lat="47.10951" lon="16.06072">
        <ele>294.473576</ele>
        <time>2026-07-08T12:35:53.000Z</time>
      </trkpt>
      <trkpt lat="47.10948" lon="16.06065">
        <ele>294.478339</ele>
        <time>2026-07-08T12:35:54.000Z</time>
      </trkpt>
      <trkpt lat="47.10946" lon="16.06059">
        <ele>294.483146</ele>
        <time>2026-07-08T12:35:55.000Z</time>
      </trkpt>
      <trkpt lat="47.10943" lon="16.06053">
        <ele>294.488062</ele>
        <time>2026-07-08T12:35:56.000Z</time>
      </trkpt>
      <trkpt lat="47.1094" lon="16.06046">
        <ele>294.492919</ele>
        <time>2026-07-08T12:35:57.000Z</time>
      </trkpt>
      <trkpt lat="47.10937" lon="16.0604">
        <ele>294.497616</ele>
        <time>2026-07-08T12:35:58.000Z</time>
      </trkpt>
      <trkpt lat="47.10934" lon="16.06035">
        <ele>294.502271</ele>
        <time>2026-07-08T12:35:59.000Z</time>
      </trkpt>
      <trkpt lat="47.1093" lon="16.06032">
        <ele>294.506843</ele>
        <time>2026-07-08T12:36:00.000Z</time>
      </trkpt>
      <trkpt lat="47.10925" lon="16.06031">
        <ele>294.511331</ele>
        <time>2026-07-08T12:36:01.000Z</time>
      </trkpt>
      <trkpt lat="47.1092" lon="16.06032">
        <ele>294.515669</ele>
        <time>2026-07-08T12:36:02.000Z</time>
      </trkpt>
      <trkpt lat="47.10916" lon="16.06035">
        <ele>294.520278</ele>
        <time>2026-07-08T12:36:03.000Z</time>
      </trkpt>
      <trkpt lat="47.10911" lon="16.06038">
        <ele>294.525021</ele>
        <time>2026-07-08T12:36:04.000Z</time>
      </trkpt>
      <trkpt lat="47.10907" lon="16.06042">
        <ele>294.529944</ele>
        <time>2026-07-08T12:36:05.000Z</time>
      </trkpt>
      <trkpt lat="47.10903" lon="16.06046">
        <ele>294.534691</ele>
        <time>2026-07-08T12:36:06.000Z</time>
      </trkpt>
      <trkpt lat="47.10898" lon="16.0605">
        <ele>294.53951</ele>
        <time>2026-07-08T12:36:07.000Z</time>
      </trkpt>
      <trkpt lat="47.10894" lon="16.06054">
        <ele>294.544373</ele>
        <time>2026-07-08T12:36:08.000Z</time>
      </trkpt>
      <trkpt lat="47.10889" lon="16.06058">
        <ele>294.549514</ele>
        <time>2026-07-08T12:36:09.000Z</time>
      </trkpt>
      <trkpt lat="47.10884" lon="16.06061">
        <ele>294.554825</ele>
        <time>2026-07-08T12:36:10.000Z</time>
      </trkpt>
      <trkpt lat="47.10879" lon="16.06065">
        <ele>294.560142</ele>
        <time>2026-07-08T12:36:11.000Z</time>
      </trkpt>
      <trkpt lat="47.10875" lon="16.06069">
        <ele>294.565314</ele>
        <time>2026-07-08T12:36:12.000Z</time>
      </trkpt>
      <trkpt lat="47.1087" lon="16.06073">
        <ele>294.570485</ele>
        <time>2026-07-08T12:36:13.000Z</time>
      </trkpt>
      <trkpt lat="47.10865" lon="16.06077">
        <ele>294.575855</ele>
        <time>2026-07-08T12:36:14.000Z</time>
      </trkpt>
      <trkpt lat="47.1086" lon="16.06081">
        <ele>294.581204</ele>
        <time>2026-07-08T12:36:15.000Z</time>
      </trkpt>
      <trkpt lat="47.10855" lon="16.06085">
        <ele>294.586688</ele>
        <time>2026-07-08T12:36:16.000Z</time>
      </trkpt>
      <trkpt lat="47.1085" lon="16.06089">
        <ele>294.592168</ele>
        <time>2026-07-08T12:36:17.000Z</time>
      </trkpt>
      <trkpt lat="47.10844" lon="16.06092">
        <ele>294.597593</ele>
        <time>2026-07-08T12:36:18.000Z</time>
      </trkpt>
      <trkpt lat="47.10839" lon="16.06096">
        <ele>294.603017</ele>
        <time>2026-07-08T12:36:19.000Z</time>
      </trkpt>
      <trkpt lat="47.10834" lon="16.061">
        <ele>294.60848</ele>
        <time>2026-07-08T12:36:20.000Z</time>
      </trkpt>
      <trkpt lat="47.10829" lon="16.06104">
        <ele>294.600654</ele>
        <time>2026-07-08T12:36:21.000Z</time>
      </trkpt>
      <trkpt lat="47.10824" lon="16.06108">
        <ele>294.571278</ele>
        <time>2026-07-08T12:36:22.000Z</time>
      </trkpt>
      <trkpt lat="47.10819" lon="16.06112">
        <ele>294.541737</ele>
        <time>2026-07-08T12:36:23.000Z</time>
      </trkpt>
      <trkpt lat="47.10814" lon="16.06116">
        <ele>294.512485</ele>
        <time>2026-07-08T12:36:24.000Z</time>
      </trkpt>
      <trkpt lat="47.1081" lon="16.0612">
        <ele>294.483688</ele>
        <time>2026-07-08T12:36:25.000Z</time>
      </trkpt>
      <trkpt lat="47.10805" lon="16.06124">
        <ele>294.455344</ele>
        <time>2026-07-08T12:36:26.000Z</time>
      </trkpt>
      <trkpt lat="47.108" lon="16.06127">
        <ele>294.426288</ele>
        <time>2026-07-08T12:36:27.000Z</time>
      </trkpt>
      <trkpt lat="47.10795" lon="16.06131">
        <ele>294.396747</ele>
        <time>2026-07-08T12:36:28.000Z</time>
      </trkpt>
      <trkpt lat="47.1079" lon="16.06135">
        <ele>294.366579</ele>
        <time>2026-07-08T12:36:29.000Z</time>
      </trkpt>
      <trkpt lat="47.10785" lon="16.06139">
        <ele>294.335949</ele>
        <time>2026-07-08T12:36:30.000Z</time>
      </trkpt>
      <trkpt lat="47.10779" lon="16.06144">
        <ele>294.304811</ele>
        <time>2026-07-08T12:36:31.000Z</time>
      </trkpt>
      <trkpt lat="47.10774" lon="16.06148">
        <ele>294.272786</ele>
        <time>2026-07-08T12:36:32.000Z</time>
      </trkpt>
      <trkpt lat="47.10768" lon="16.06152">
        <ele>294.239976</ele>
        <time>2026-07-08T12:36:33.000Z</time>
      </trkpt>
      <trkpt lat="47.10763" lon="16.06156">
        <ele>294.206539</ele>
        <time>2026-07-08T12:36:34.000Z</time>
      </trkpt>
      <trkpt lat="47.10757" lon="16.0616">
        <ele>294.172796</ele>
        <time>2026-07-08T12:36:35.000Z</time>
      </trkpt>
      <trkpt lat="47.10751" lon="16.06165">
        <ele>294.139359</ele>
        <time>2026-07-08T12:36:36.000Z</time>
      </trkpt>
      <trkpt lat="47.10745" lon="16.06169">
        <ele>294.10525</ele>
        <time>2026-07-08T12:36:37.000Z</time>
      </trkpt>
      <trkpt lat="47.1074" lon="16.06174">
        <ele>294.07177</ele>
        <time>2026-07-08T12:36:38.000Z</time>
      </trkpt>
      <trkpt lat="47.10734" lon="16.06178">
        <ele>294.037243</ele>
        <time>2026-07-08T12:36:39.000Z</time>
      </trkpt>
      <trkpt lat="47.10728" lon="16.06183">
        <ele>294.003341</ele>
        <time>2026-07-08T12:36:40.000Z</time>
      </trkpt>
      <trkpt lat="47.10722" lon="16.06187">
        <ele>293.968504</ele>
        <time>2026-07-08T12:36:41.000Z</time>
      </trkpt>
      <trkpt lat="47.10716" lon="16.06192">
        <ele>293.934042</ele>
        <time>2026-07-08T12:36:42.000Z</time>
      </trkpt>
      <trkpt lat="47.1071" lon="16.06196">
        <ele>293.898725</ele>
        <time>2026-07-08T12:36:43.000Z</time>
      </trkpt>
      <trkpt lat="47.10704" lon="16.06201">
        <ele>293.863571</ele>
        <time>2026-07-08T12:36:44.000Z</time>
      </trkpt>
      <trkpt lat="47.10698" lon="16.06206">
        <ele>293.827749</ele>
        <time>2026-07-08T12:36:45.000Z</time>
      </trkpt>
      <trkpt lat="47.10692" lon="16.0621">
        <ele>293.792595</ele>
        <time>2026-07-08T12:36:46.000Z</time>
      </trkpt>
      <trkpt lat="47.10686" lon="16.06215">
        <ele>293.756345</ele>
        <time>2026-07-08T12:36:47.000Z</time>
      </trkpt>
      <trkpt lat="47.1068" lon="16.06219">
        <ele>293.720694</ele>
        <time>2026-07-08T12:36:48.000Z</time>
      </trkpt>
      <trkpt lat="47.10674" lon="16.06224">
        <ele>293.684872</ele>
        <time>2026-07-08T12:36:49.000Z</time>
      </trkpt>
      <trkpt lat="47.10668" lon="16.06229">
        <ele>293.659893</ele>
        <time>2026-07-08T12:36:50.000Z</time>
      </trkpt>
      <trkpt lat="47.10662" lon="16.06233">
        <ele>293.638574</ele>
        <time>2026-07-08T12:36:51.000Z</time>
      </trkpt>
      <trkpt lat="47.10656" lon="16.06238">
        <ele>293.617806</ele>
        <time>2026-07-08T12:36:52.000Z</time>
      </trkpt>
      <trkpt lat="47.1065" lon="16.06242">
        <ele>293.597038</ele>
        <time>2026-07-08T12:36:53.000Z</time>
      </trkpt>
      <trkpt lat="47.10644" lon="16.06247">
        <ele>293.575902</ele>
        <time>2026-07-08T12:36:54.000Z</time>
      </trkpt>
      <trkpt lat="47.10638" lon="16.06251">
        <ele>293.555134</ele>
        <time>2026-07-08T12:36:55.000Z</time>
      </trkpt>
      <trkpt lat="47.10632" lon="16.06256">
        <ele>293.534343</ele>
        <time>2026-07-08T12:36:56.000Z</time>
      </trkpt>
      <trkpt lat="47.10626" lon="16.06261">
        <ele>293.513611</ele>
        <time>2026-07-08T12:36:57.000Z</time>
      </trkpt>
      <trkpt lat="47.1062" lon="16.06266">
        <ele>293.492346</ele>
        <time>2026-07-08T12:36:58.000Z</time>
      </trkpt>
      <trkpt lat="47.10614" lon="16.0627">
        <ele>293.471284</ele>
        <time>2026-07-08T12:36:59.000Z</time>
      </trkpt>
      <trkpt lat="47.10608" lon="16.06275">
        <ele>293.450553</ele>
        <time>2026-07-08T12:37:00.000Z</time>
      </trkpt>
      <trkpt lat="47.10603" lon="16.0628">
        <ele>293.430087</ele>
        <time>2026-07-08T12:37:01.000Z</time>
      </trkpt>
      <trkpt lat="47.10597" lon="16.06285">
        <ele>293.408924</ele>
        <time>2026-07-08T12:37:02.000Z</time>
      </trkpt>
      <trkpt lat="47.10591" lon="16.0629">
        <ele>293.388344</ele>
        <time>2026-07-08T12:37:03.000Z</time>
      </trkpt>
      <trkpt lat="47.10584" lon="16.06294">
        <ele>293.367207</ele>
        <time>2026-07-08T12:37:04.000Z</time>
      </trkpt>
      <trkpt lat="47.10578" lon="16.06298">
        <ele>293.346164</ele>
        <time>2026-07-08T12:37:05.000Z</time>
      </trkpt>
      <trkpt lat="47.10572" lon="16.06303">
        <ele>293.324845</ele>
        <time>2026-07-08T12:37:06.000Z</time>
      </trkpt>
      <trkpt lat="47.10566" lon="16.06308">
        <ele>293.30287</ele>
        <time>2026-07-08T12:37:07.000Z</time>
      </trkpt>
      <trkpt lat="47.1056" lon="16.06313">
        <ele>293.281265</ele>
        <time>2026-07-08T12:37:08.000Z</time>
      </trkpt>
      <trkpt lat="47.10553" lon="16.06317">
        <ele>293.259386</ele>
        <time>2026-07-08T12:37:09.000Z</time>
      </trkpt>
      <trkpt lat="47.10547" lon="16.06322">
        <ele>293.238067</ele>
        <time>2026-07-08T12:37:10.000Z</time>
      </trkpt>
      <trkpt lat="47.10541" lon="16.06327">
        <ele>293.216285</ele>
        <time>2026-07-08T12:37:11.000Z</time>
      </trkpt>
      <trkpt lat="47.10534" lon="16.06331">
        <ele>293.194227</ele>
        <time>2026-07-08T12:37:12.000Z</time>
      </trkpt>
      <trkpt lat="47.10528" lon="16.06336">
        <ele>293.172152</ele>
        <time>2026-07-08T12:37:13.000Z</time>
      </trkpt>
      <trkpt lat="47.10522" lon="16.06341">
        <ele>293.150348</ele>
        <time>2026-07-08T12:37:14.000Z</time>
      </trkpt>
      <trkpt lat="47.10516" lon="16.06346">
        <ele>293.12866</ele>
        <time>2026-07-08T12:37:15.000Z</time>
      </trkpt>
      <trkpt lat="47.10509" lon="16.06351">
        <ele>293.104625</ele>
        <time>2026-07-08T12:37:16.000Z</time>
      </trkpt>
      <trkpt lat="47.10503" lon="16.06356">
        <ele>293.079075</ele>
        <time>2026-07-08T12:37:17.000Z</time>
      </trkpt>
      <trkpt lat="47.10497" lon="16.06361">
        <ele>293.053225</ele>
        <time>2026-07-08T12:37:18.000Z</time>
      </trkpt>
      <trkpt lat="47.10491" lon="16.06366">
        <ele>293.028076</ele>
        <time>2026-07-08T12:37:19.000Z</time>
      </trkpt>
      <trkpt lat="47.10486" lon="16.06371">
        <ele>293.003247</ele>
        <time>2026-07-08T12:37:20.000Z</time>
      </trkpt>
      <trkpt lat="47.1048" lon="16.06376">
        <ele>292.97814</ele>
        <time>2026-07-08T12:37:21.000Z</time>
      </trkpt>
      <trkpt lat="47.10474" lon="16.0638">
        <ele>292.953922</ele>
        <time>2026-07-08T12:37:22.000Z</time>
      </trkpt>
      <trkpt lat="47.10468" lon="16.06384">
        <ele>292.929605</ele>
        <time>2026-07-08T12:37:23.000Z</time>
      </trkpt>
      <trkpt lat="47.10462" lon="16.06389">
        <ele>292.905729</ele>
        <time>2026-07-08T12:37:24.000Z</time>
      </trkpt>
      <trkpt lat="47.10456" lon="16.06393">
        <ele>292.881854</ele>
        <time>2026-07-08T12:37:25.000Z</time>
      </trkpt>
      <trkpt lat="47.1045" lon="16.06397">
        <ele>292.857536</ele>
        <time>2026-07-08T12:37:26.000Z</time>
      </trkpt>
      <trkpt lat="47.10445" lon="16.06401">
        <ele>292.834545</ele>
        <time>2026-07-08T12:37:27.000Z</time>
      </trkpt>
      <trkpt lat="47.10439" lon="16.06405">
        <ele>292.810886</ele>
        <time>2026-07-08T12:37:28.000Z</time>
      </trkpt>
      <trkpt lat="47.10434" lon="16.0641">
        <ele>292.787136</ele>
        <time>2026-07-08T12:37:29.000Z</time>
      </trkpt>
      <trkpt lat="47.10428" lon="16.06415">
        <ele>292.764148</ele>
        <time>2026-07-08T12:37:30.000Z</time>
      </trkpt>
      <trkpt lat="47.10423" lon="16.0642">
        <ele>292.740844</ele>
        <time>2026-07-08T12:37:31.000Z</time>
      </trkpt>
      <trkpt lat="47.10418" lon="16.06424">
        <ele>292.718366</ele>
        <time>2026-07-08T12:37:32.000Z</time>
      </trkpt>
      <trkpt lat="47.10412" lon="16.06428">
        <ele>292.695594</ele>
        <time>2026-07-08T12:37:33.000Z</time>
      </trkpt>
      <trkpt lat="47.10406" lon="16.06432">
        <ele>292.67227</ele>
        <time>2026-07-08T12:37:34.000Z</time>
      </trkpt>
      <trkpt lat="47.104" lon="16.06436">
        <ele>292.647942</ele>
        <time>2026-07-08T12:37:35.000Z</time>
      </trkpt>
      <trkpt lat="47.10395" lon="16.06441">
        <ele>292.624067</ele>
        <time>2026-07-08T12:37:36.000Z</time>
      </trkpt>
      <trkpt lat="47.10389" lon="16.06445">
        <ele>292.600079</ele>
        <time>2026-07-08T12:37:37.000Z</time>
      </trkpt>
      <trkpt lat="47.10383" lon="16.0645">
        <ele>292.575695</ele>
        <time>2026-07-08T12:37:38.000Z</time>
      </trkpt>
      <trkpt lat="47.10378" lon="16.06455">
        <ele>292.552074</ele>
        <time>2026-07-08T12:37:39.000Z</time>
      </trkpt>
      <trkpt lat="47.10372" lon="16.0646">
        <ele>292.528193</ele>
        <time>2026-07-08T12:37:40.000Z</time>
      </trkpt>
      <trkpt lat="47.10367" lon="16.06465">
        <ele>292.50513</ele>
        <time>2026-07-08T12:37:41.000Z</time>
      </trkpt>
      <trkpt lat="47.10362" lon="16.06471">
        <ele>292.482067</ele>
        <time>2026-07-08T12:37:42.000Z</time>
      </trkpt>
      <trkpt lat="47.10357" lon="16.06476">
        <ele>292.459004</ele>
        <time>2026-07-08T12:37:43.000Z</time>
      </trkpt>
      <trkpt lat="47.10352" lon="16.06482">
        <ele>292.450951</ele>
        <time>2026-07-08T12:37:44.000Z</time>
      </trkpt>
      <trkpt lat="47.10348" lon="16.06488">
        <ele>292.446404</ele>
        <time>2026-07-08T12:37:45.000Z</time>
      </trkpt>
      <trkpt lat="47.10344" lon="16.06494">
        <ele>292.441938</ele>
        <time>2026-07-08T12:37:46.000Z</time>
      </trkpt>
      <trkpt lat="47.1034" lon="16.065">
        <ele>292.437563</ele>
        <time>2026-07-08T12:37:47.000Z</time>
      </trkpt>
      <trkpt lat="47.10336" lon="16.06507">
        <ele>292.433172</ele>
        <time>2026-07-08T12:37:48.000Z</time>
      </trkpt>
      <trkpt lat="47.10333" lon="16.06515">
        <ele>292.428692</ele>
        <time>2026-07-08T12:37:49.000Z</time>
      </trkpt>
      <trkpt lat="47.10331" lon="16.06523">
        <ele>292.424058</ele>
        <time>2026-07-08T12:37:50.000Z</time>
      </trkpt>
      <trkpt lat="47.10328" lon="16.06531">
        <ele>292.419423</ele>
        <time>2026-07-08T12:37:51.000Z</time>
      </trkpt>
      <trkpt lat="47.10326" lon="16.0654">
        <ele>292.41468</ele>
        <time>2026-07-08T12:37:52.000Z</time>
      </trkpt>
      <trkpt lat="47.10323" lon="16.06548">
        <ele>292.409891</ele>
        <time>2026-07-08T12:37:53.000Z</time>
      </trkpt>
      <trkpt lat="47.1032" lon="16.06557">
        <ele>292.405092</ele>
        <time>2026-07-08T12:37:54.000Z</time>
      </trkpt>
      <trkpt lat="47.10316" lon="16.06564">
        <ele>292.400323</ele>
        <time>2026-07-08T12:37:55.000Z</time>
      </trkpt>
      <trkpt lat="47.10312" lon="16.06571">
        <ele>292.395481</ele>
        <time>2026-07-08T12:37:56.000Z</time>
      </trkpt>
      <trkpt lat="47.10306" lon="16.06576">
        <ele>292.390756</ele>
        <time>2026-07-08T12:37:57.000Z</time>
      </trkpt>
      <trkpt lat="47.103" lon="16.06579">
        <ele>292.386021</ele>
        <time>2026-07-08T12:37:58.000Z</time>
      </trkpt>
      <trkpt lat="47.10294" lon="16.06581">
        <ele>292.381353</ele>
        <time>2026-07-08T12:37:59.000Z</time>
      </trkpt>
      <trkpt lat="47.10288" lon="16.06582">
        <ele>292.376689</ele>
        <time>2026-07-08T12:38:00.000Z</time>
      </trkpt>
      <trkpt lat="47.10282" lon="16.06582">
        <ele>292.371962</ele>
        <time>2026-07-08T12:38:01.000Z</time>
      </trkpt>
      <trkpt lat="47.10275" lon="16.06582">
        <ele>292.367155</ele>
        <time>2026-07-08T12:38:02.000Z</time>
      </trkpt>
      <trkpt lat="47.10269" lon="16.06584">
        <ele>292.362531</ele>
        <time>2026-07-08T12:38:03.000Z</time>
      </trkpt>
      <trkpt lat="47.10263" lon="16.06586">
        <ele>292.357769</ele>
        <time>2026-07-08T12:38:04.000Z</time>
      </trkpt>
      <trkpt lat="47.10257" lon="16.06588">
        <ele>292.352904</ele>
        <time>2026-07-08T12:38:05.000Z</time>
      </trkpt>
      <trkpt lat="47.10251" lon="16.06592">
        <ele>292.348255</ele>
        <time>2026-07-08T12:38:06.000Z</time>
      </trkpt>
      <trkpt lat="47.10246" lon="16.06597">
        <ele>292.343521</ele>
        <time>2026-07-08T12:38:07.000Z</time>
      </trkpt>
      <trkpt lat="47.10241" lon="16.06602">
        <ele>292.339016</ele>
        <time>2026-07-08T12:38:08.000Z</time>
      </trkpt>
      <trkpt lat="47.10236" lon="16.06608">
        <ele>292.334481</ele>
        <time>2026-07-08T12:38:09.000Z</time>
      </trkpt>
      <trkpt lat="47.10231" lon="16.06613">
        <ele>292.329856</ele>
        <time>2026-07-08T12:38:10.000Z</time>
      </trkpt>
      <trkpt lat="47.10227" lon="16.06618">
        <ele>292.325533</ele>
        <time>2026-07-08T12:38:11.000Z</time>
      </trkpt>
      <trkpt lat="47.10222" lon="16.06624">
        <ele>292.321057</ele>
        <time>2026-07-08T12:38:12.000Z</time>
      </trkpt>
      <trkpt lat="47.10217" lon="16.06629">
        <ele>292.322517</ele>
        <time>2026-07-08T12:38:13.000Z</time>
      </trkpt>
      <trkpt lat="47.10213" lon="16.06635">
        <ele>292.326685</ele>
        <time>2026-07-08T12:38:14.000Z</time>
      </trkpt>
      <trkpt lat="47.10208" lon="16.06641">
        <ele>292.330849</ele>
        <time>2026-07-08T12:38:15.000Z</time>
      </trkpt>
      <trkpt lat="47.10204" lon="16.06648">
        <ele>292.334959</ele>
        <time>2026-07-08T12:38:16.000Z</time>
      </trkpt>
      <trkpt lat="47.10201" lon="16.06655">
        <ele>292.339161</ele>
        <time>2026-07-08T12:38:17.000Z</time>
      </trkpt>
      <trkpt lat="47.10197" lon="16.06662">
        <ele>292.343327</ele>
        <time>2026-07-08T12:38:18.000Z</time>
      </trkpt>
      <trkpt lat="47.10193" lon="16.0667">
        <ele>292.347562</ele>
        <time>2026-07-08T12:38:19.000Z</time>
      </trkpt>
      <trkpt lat="47.10189" lon="16.06677">
        <ele>292.351649</ele>
        <time>2026-07-08T12:38:20.000Z</time>
      </trkpt>
      <trkpt lat="47.10186" lon="16.06684">
        <ele>292.355577</ele>
        <time>2026-07-08T12:38:21.000Z</time>
      </trkpt>
      <trkpt lat="47.10183" lon="16.06691">
        <ele>292.359431</ele>
        <time>2026-07-08T12:38:22.000Z</time>
      </trkpt>
      <trkpt lat="47.10181" lon="16.06698">
        <ele>292.363159</ele>
        <time>2026-07-08T12:38:23.000Z</time>
      </trkpt>
      <trkpt lat="47.10179" lon="16.06705">
        <ele>292.366788</ele>
        <time>2026-07-08T12:38:24.000Z</time>
      </trkpt>
      <trkpt lat="47.10178" lon="16.06713">
        <ele>292.370356</ele>
        <time>2026-07-08T12:38:25.000Z</time>
      </trkpt>
      <trkpt lat="47.10179" lon="16.06721">
        <ele>292.374015</ele>
        <time>2026-07-08T12:38:26.000Z</time>
      </trkpt>
      <trkpt lat="47.10182" lon="16.06729">
        <ele>292.377963</ele>
        <time>2026-07-08T12:38:27.000Z</time>
      </trkpt>
      <trkpt lat="47.10185" lon="16.06736">
        <ele>292.382199</ele>
        <time>2026-07-08T12:38:28.000Z</time>
      </trkpt>
      <trkpt lat="47.10189" lon="16.06744">
        <ele>292.386557</ele>
        <time>2026-07-08T12:38:29.000Z</time>
      </trkpt>
      <trkpt lat="47.10193" lon="16.06751">
        <ele>292.390988</ele>
        <time>2026-07-08T12:38:30.000Z</time>
      </trkpt>
      <trkpt lat="47.10197" lon="16.06759">
        <ele>292.39545</ele>
        <time>2026-07-08T12:38:31.000Z</time>
      </trkpt>
      <trkpt lat="47.102" lon="16.06768">
        <ele>292.399784</ele>
        <time>2026-07-08T12:38:32.000Z</time>
      </trkpt>
      <trkpt lat="47.10202" lon="16.06776">
        <ele>292.404108</ele>
        <time>2026-07-08T12:38:33.000Z</time>
      </trkpt>
      <trkpt lat="47.10203" lon="16.06785">
        <ele>292.408351</ele>
        <time>2026-07-08T12:38:34.000Z</time>
      </trkpt>
      <trkpt lat="47.10204" lon="16.06794">
        <ele>292.412529</ele>
        <time>2026-07-08T12:38:35.000Z</time>
      </trkpt>
      <trkpt lat="47.10204" lon="16.06804">
        <ele>292.416775</ele>
        <time>2026-07-08T12:38:36.000Z</time>
      </trkpt>
      <trkpt lat="47.10204" lon="16.06813">
        <ele>292.42102</ele>
        <time>2026-07-08T12:38:37.000Z</time>
      </trkpt>
      <trkpt lat="47.10203" lon="16.06822">
        <ele>292.425336</ele>
        <time>2026-07-08T12:38:38.000Z</time>
      </trkpt>
      <trkpt lat="47.10203" lon="16.06831">
        <ele>292.429522</ele>
        <time>2026-07-08T12:38:39.000Z</time>
      </trkpt>
      <trkpt lat="47.10202" lon="16.0684">
        <ele>292.433819</ele>
        <time>2026-07-08T12:38:40.000Z</time>
      </trkpt>
      <trkpt lat="47.10201" lon="16.06849">
        <ele>292.437934</ele>
        <time>2026-07-08T12:38:41.000Z</time>
      </trkpt>
      <trkpt lat="47.102" lon="16.06858">
        <ele>292.437839</ele>
        <time>2026-07-08T12:38:42.000Z</time>
      </trkpt>
      <trkpt lat="47.10199" lon="16.06866">
        <ele>292.403975</ele>
        <time>2026-07-08T12:38:43.000Z</time>
      </trkpt>
      <trkpt lat="47.10198" lon="16.06874">
        <ele>292.371296</ele>
        <time>2026-07-08T12:38:44.000Z</time>
      </trkpt>
      <trkpt lat="47.10197" lon="16.06883">
        <ele>292.337249</ele>
        <time>2026-07-08T12:38:45.000Z</time>
      </trkpt>
      <trkpt lat="47.10197" lon="16.06891">
        <ele>292.30465</ele>
        <time>2026-07-08T12:38:46.000Z</time>
      </trkpt>
      <trkpt lat="47.10196" lon="16.06899">
        <ele>292.27189</ele>
        <time>2026-07-08T12:38:47.000Z</time>
      </trkpt>
      <trkpt lat="47.10197" lon="16.06907">
        <ele>292.238728</ele>
        <time>2026-07-08T12:38:48.000Z</time>
      </trkpt>
      <trkpt lat="47.10198" lon="16.06916">
        <ele>292.204288</ele>
        <time>2026-07-08T12:38:49.000Z</time>
      </trkpt>
      <trkpt lat="47.10199" lon="16.06924">
        <ele>292.170527</ele>
        <time>2026-07-08T12:38:50.000Z</time>
      </trkpt>
      <trkpt lat="47.10201" lon="16.06933">
        <ele>292.135868</ele>
        <time>2026-07-08T12:38:51.000Z</time>
      </trkpt>
      <trkpt lat="47.10202" lon="16.06941">
        <ele>292.102215</ele>
        <time>2026-07-08T12:38:52.000Z</time>
      </trkpt>
      <trkpt lat="47.10202" lon="16.06949">
        <ele>292.068278</ele>
        <time>2026-07-08T12:38:53.000Z</time>
      </trkpt>
      <trkpt lat="47.10201" lon="16.06958">
        <ele>292.033838</ele>
        <time>2026-07-08T12:38:54.000Z</time>
      </trkpt>
      <trkpt lat="47.10199" lon="16.06966">
        <ele>291.99906</ele>
        <time>2026-07-08T12:38:55.000Z</time>
      </trkpt>
      <trkpt lat="47.10195" lon="16.06974">
        <ele>291.962732</ele>
        <time>2026-07-08T12:38:56.000Z</time>
      </trkpt>
      <trkpt lat="47.10191" lon="16.0698">
        <ele>291.925848</ele>
        <time>2026-07-08T12:38:57.000Z</time>
      </trkpt>
      <trkpt lat="47.10186" lon="16.06986">
        <ele>291.889139</ele>
        <time>2026-07-08T12:38:58.000Z</time>
      </trkpt>
      <trkpt lat="47.10181" lon="16.06992">
        <ele>291.850846</ele>
        <time>2026-07-08T12:38:59.000Z</time>
      </trkpt>
      <trkpt lat="47.10175" lon="16.06997">
        <ele>291.812305</ele>
        <time>2026-07-08T12:39:00.000Z</time>
      </trkpt>
      <trkpt lat="47.1017" lon="16.07003">
        <ele>291.772826</ele>
        <time>2026-07-08T12:39:01.000Z</time>
      </trkpt>
      <trkpt lat="47.10164" lon="16.07009">
        <ele>291.733315</ele>
        <time>2026-07-08T12:39:02.000Z</time>
      </trkpt>
      <trkpt lat="47.10159" lon="16.07014">
        <ele>291.692646</ele>
        <time>2026-07-08T12:39:03.000Z</time>
      </trkpt>
      <trkpt lat="47.10153" lon="16.0702">
        <ele>291.651266</ele>
        <time>2026-07-08T12:39:04.000Z</time>
      </trkpt>
      <trkpt lat="47.10147" lon="16.07026">
        <ele>291.609627</ele>
        <time>2026-07-08T12:39:05.000Z</time>
      </trkpt>
      <trkpt lat="47.10141" lon="16.07032">
        <ele>291.568697</ele>
        <time>2026-07-08T12:39:06.000Z</time>
      </trkpt>
      <trkpt lat="47.10135" lon="16.07037">
        <ele>291.527003</ele>
        <time>2026-07-08T12:39:07.000Z</time>
      </trkpt>
      <trkpt lat="47.10129" lon="16.07043">
        <ele>291.485521</ele>
        <time>2026-07-08T12:39:08.000Z</time>
      </trkpt>
      <trkpt lat="47.10123" lon="16.07049">
        <ele>291.443913</ele>
        <time>2026-07-08T12:39:09.000Z</time>
      </trkpt>
      <trkpt lat="47.10118" lon="16.07055">
        <ele>291.402783</ele>
        <time>2026-07-08T12:39:10.000Z</time>
      </trkpt>
      <trkpt lat="47.10112" lon="16.07061">
        <ele>291.391397</ele>
        <time>2026-07-08T12:39:11.000Z</time>
      </trkpt>
      <trkpt lat="47.10106" lon="16.07067">
        <ele>291.399071</ele>
        <time>2026-07-08T12:39:12.000Z</time>
      </trkpt>
      <trkpt lat="47.10101" lon="16.07072">
        <ele>291.406662</ele>
        <time>2026-07-08T12:39:13.000Z</time>
      </trkpt>
      <trkpt lat="47.10095" lon="16.07078">
        <ele>291.414073</ele>
        <time>2026-07-08T12:39:14.000Z</time>
      </trkpt>
      <trkpt lat="47.1009" lon="16.07084">
        <ele>291.421524</ele>
        <time>2026-07-08T12:39:15.000Z</time>
      </trkpt>
      <trkpt lat="47.10086" lon="16.07091">
        <ele>291.428856</ele>
        <time>2026-07-08T12:39:16.000Z</time>
      </trkpt>
      <trkpt lat="47.10083" lon="16.07099">
        <ele>291.436003</ele>
        <time>2026-07-08T12:39:17.000Z</time>
      </trkpt>
      <trkpt lat="47.10082" lon="16.07109">
        <ele>291.443188</ele>
        <time>2026-07-08T12:39:18.000Z</time>
      </trkpt>
      <trkpt lat="47.10083" lon="16.07118">
        <ele>291.450531</ele>
        <time>2026-07-08T12:39:19.000Z</time>
      </trkpt>
      <trkpt lat="47.10085" lon="16.07127">
        <ele>291.457939</ele>
        <time>2026-07-08T12:39:20.000Z</time>
      </trkpt>
      <trkpt lat="47.10088" lon="16.07136">
        <ele>291.4653</ele>
        <time>2026-07-08T12:39:21.000Z</time>
      </trkpt>
      <trkpt lat="47.10091" lon="16.07144">
        <ele>291.472644</ele>
        <time>2026-07-08T12:39:22.000Z</time>
      </trkpt>
      <trkpt lat="47.10094" lon="16.07153">
        <ele>291.479887</ele>
        <time>2026-07-08T12:39:23.000Z</time>
      </trkpt>
      <trkpt lat="47.10096" lon="16.07162">
        <ele>291.487006</ele>
        <time>2026-07-08T12:39:24.000Z</time>
      </trkpt>
      <trkpt lat="47.10097" lon="16.07171">
        <ele>291.494063</ele>
        <time>2026-07-08T12:39:25.000Z</time>
      </trkpt>
      <trkpt lat="47.10098" lon="16.0718">
        <ele>291.500989</ele>
        <time>2026-07-08T12:39:26.000Z</time>
      </trkpt>
      <trkpt lat="47.10097" lon="16.07188">
        <ele>291.507763</ele>
        <time>2026-07-08T12:39:27.000Z</time>
      </trkpt>
      <trkpt lat="47.10096" lon="16.07197">
        <ele>291.514303</ele>
        <time>2026-07-08T12:39:28.000Z</time>
      </trkpt>
      <trkpt lat="47.10095" lon="16.07204">
        <ele>291.520373</ele>
        <time>2026-07-08T12:39:29.000Z</time>
      </trkpt>
      <trkpt lat="47.10093" lon="16.07212">
        <ele>291.526256</ele>
        <time>2026-07-08T12:39:30.000Z</time>
      </trkpt>
      <trkpt lat="47.10091" lon="16.07218">
        <ele>291.531824</ele>
        <time>2026-07-08T12:39:31.000Z</time>
      </trkpt>
      <trkpt lat="47.10089" lon="16.07225">
        <ele>291.537064</ele>
        <time>2026-07-08T12:39:32.000Z</time>
      </trkpt>
      <trkpt lat="47.10088" lon="16.07231">
        <ele>291.541967</ele>
        <time>2026-07-08T12:39:33.000Z</time>
      </trkpt>
      <trkpt lat="47.10086" lon="16.07237">
        <ele>291.54687</ele>
        <time>2026-07-08T12:39:34.000Z</time>
      </trkpt>
      <trkpt lat="47.10085" lon="16.07243">
        <ele>291.551846</ele>
        <time>2026-07-08T12:39:35.000Z</time>
      </trkpt>
      <trkpt lat="47.10083" lon="16.07249">
        <ele>291.556965</ele>
        <time>2026-07-08T12:39:36.000Z</time>
      </trkpt>
      <trkpt lat="47.10082" lon="16.07256">
        <ele>291.562448</ele>
        <time>2026-07-08T12:39:37.000Z</time>
      </trkpt>
      <trkpt lat="47.1008" lon="16.07263">
        <ele>291.568192</ele>
        <time>2026-07-08T12:39:38.000Z</time>
      </trkpt>
      <trkpt lat="47.10079" lon="16.07271">
        <ele>291.57444</ele>
        <time>2026-07-08T12:39:39.000Z</time>
      </trkpt>
      <trkpt lat="47.10077" lon="16.07279">
        <ele>291.581266</ele>
        <time>2026-07-08T12:39:40.000Z</time>
      </trkpt>
      <trkpt lat="47.10075" lon="16.07288">
        <ele>291.588313</ele>
        <time>2026-07-08T12:39:41.000Z</time>
      </trkpt>
      <trkpt lat="47.10072" lon="16.07297">
        <ele>291.567976</ele>
        <time>2026-07-08T12:39:42.000Z</time>
      </trkpt>
      <trkpt lat="47.1007" lon="16.07306">
        <ele>291.543512</ele>
        <time>2026-07-08T12:39:43.000Z</time>
      </trkpt>
      <trkpt lat="47.10068" lon="16.07315">
        <ele>291.519177</ele>
        <time>2026-07-08T12:39:44.000Z</time>
      </trkpt>
      <trkpt lat="47.10065" lon="16.07324">
        <ele>291.494602</ele>
        <time>2026-07-08T12:39:45.000Z</time>
      </trkpt>
      <trkpt lat="47.10063" lon="16.07333">
        <ele>291.470137</ele>
        <time>2026-07-08T12:39:46.000Z</time>
      </trkpt>
      <trkpt lat="47.10061" lon="16.07342">
        <ele>291.44556</ele>
        <time>2026-07-08T12:39:47.000Z</time>
      </trkpt>
      <trkpt lat="47.10059" lon="16.07351">
        <ele>291.420983</ele>
        <time>2026-07-08T12:39:48.000Z</time>
      </trkpt>
      <trkpt lat="47.10057" lon="16.0736">
        <ele>291.396867</ele>
        <time>2026-07-08T12:39:49.000Z</time>
      </trkpt>
      <trkpt lat="47.10055" lon="16.07369">
        <ele>291.373016</ele>
        <time>2026-07-08T12:39:50.000Z</time>
      </trkpt>
      <trkpt lat="47.10053" lon="16.07378">
        <ele>291.349406</ele>
        <time>2026-07-08T12:39:51.000Z</time>
      </trkpt>
      <trkpt lat="47.10051" lon="16.07387">
        <ele>291.325797</ele>
        <time>2026-07-08T12:39:52.000Z</time>
      </trkpt>
      <trkpt lat="47.10049" lon="16.07396">
        <ele>291.302428</ele>
        <time>2026-07-08T12:39:53.000Z</time>
      </trkpt>
      <trkpt lat="47.10047" lon="16.07404">
        <ele>291.279286</ele>
        <time>2026-07-08T12:39:54.000Z</time>
      </trkpt>
      <trkpt lat="47.10045" lon="16.07413">
        <ele>291.2564</ele>
        <time>2026-07-08T12:39:55.000Z</time>
      </trkpt>
      <trkpt lat="47.10043" lon="16.07421">
        <ele>291.232781</ele>
        <time>2026-07-08T12:39:56.000Z</time>
      </trkpt>
      <trkpt lat="47.10041" lon="16.0743">
        <ele>291.209504</ele>
        <time>2026-07-08T12:39:57.000Z</time>
      </trkpt>
      <trkpt lat="47.10038" lon="16.07438">
        <ele>291.18594</ele>
        <time>2026-07-08T12:39:58.000Z</time>
      </trkpt>
      <trkpt lat="47.10035" lon="16.07446">
        <ele>291.162473</ele>
        <time>2026-07-08T12:39:59.000Z</time>
      </trkpt>
      <trkpt lat="47.10031" lon="16.07454">
        <ele>291.13868</ele>
        <time>2026-07-08T12:40:00.000Z</time>
      </trkpt>
      <trkpt lat="47.10027" lon="16.07461">
        <ele>291.114728</ele>
        <time>2026-07-08T12:40:01.000Z</time>
      </trkpt>
      <trkpt lat="47.10022" lon="16.07467">
        <ele>291.090942</ele>
        <time>2026-07-08T12:40:02.000Z</time>
      </trkpt>
      <trkpt lat="47.10017" lon="16.07473">
        <ele>291.066966</ele>
        <time>2026-07-08T12:40:03.000Z</time>
      </trkpt>
      <trkpt lat="47.10012" lon="16.07478">
        <ele>291.043592</ele>
        <time>2026-07-08T12:40:04.000Z</time>
      </trkpt>
      <trkpt lat="47.10007" lon="16.07483">
        <ele>291.02081</ele>
        <time>2026-07-08T12:40:05.000Z</time>
      </trkpt>
      <trkpt lat="47.10002" lon="16.07487">
        <ele>290.998117</ele>
        <time>2026-07-08T12:40:06.000Z</time>
      </trkpt>
      <trkpt lat="47.09997" lon="16.07492">
        <ele>290.976196</ele>
        <time>2026-07-08T12:40:07.000Z</time>
      </trkpt>
      <trkpt lat="47.09992" lon="16.07496">
        <ele>290.954663</ele>
        <time>2026-07-08T12:40:08.000Z</time>
      </trkpt>
      <trkpt lat="47.09987" lon="16.075">
        <ele>290.933645</ele>
        <time>2026-07-08T12:40:09.000Z</time>
      </trkpt>
      <trkpt lat="47.09982" lon="16.07504">
        <ele>290.919988</ele>
        <time>2026-07-08T12:40:10.000Z</time>
      </trkpt>
      <trkpt lat="47.09978" lon="16.07509">
        <ele>290.934527</ele>
        <time>2026-07-08T12:40:11.000Z</time>
      </trkpt>
      <trkpt lat="47.09975" lon="16.07514">
        <ele>290.948069</ele>
        <time>2026-07-08T12:40:12.000Z</time>
      </trkpt>
      <trkpt lat="47.09973" lon="16.0752">
        <ele>290.961276</ele>
        <time>2026-07-08T12:40:13.000Z</time>
      </trkpt>
      <trkpt lat="47.09974" lon="16.07527">
        <ele>290.974256</ele>
        <time>2026-07-08T12:40:14.000Z</time>
      </trkpt>
      <trkpt lat="47.09976" lon="16.07533">
        <ele>290.98827</ele>
        <time>2026-07-08T12:40:15.000Z</time>
      </trkpt>
      <trkpt lat="47.09978" lon="16.0754">
        <ele>291.002887</ele>
        <time>2026-07-08T12:40:16.000Z</time>
      </trkpt>
      <trkpt lat="47.09982" lon="16.07546">
        <ele>291.018793</ele>
        <time>2026-07-08T12:40:17.000Z</time>
      </trkpt>
      <trkpt lat="47.09986" lon="16.07552">
        <ele>291.034893</ele>
        <time>2026-07-08T12:40:18.000Z</time>
      </trkpt>
      <trkpt lat="47.0999" lon="16.07558">
        <ele>291.051478</ele>
        <time>2026-07-08T12:40:19.000Z</time>
      </trkpt>
      <trkpt lat="47.09994" lon="16.07564">
        <ele>291.068311</ele>
        <time>2026-07-08T12:40:20.000Z</time>
      </trkpt>
      <trkpt lat="47.09998" lon="16.07571">
        <ele>291.085526</ele>
        <time>2026-07-08T12:40:21.000Z</time>
      </trkpt>
      <trkpt lat="47.10001" lon="16.07577">
        <ele>291.102359</ele>
        <time>2026-07-08T12:40:22.000Z</time>
      </trkpt>
      <trkpt lat="47.10006" lon="16.07584">
        <ele>291.119966</ele>
        <time>2026-07-08T12:40:23.000Z</time>
      </trkpt>
      <trkpt lat="47.1001" lon="16.0759">
        <ele>291.137181</ele>
        <time>2026-07-08T12:40:24.000Z</time>
      </trkpt>
      <trkpt lat="47.10014" lon="16.07597">
        <ele>291.154396</ele>
        <time>2026-07-08T12:40:25.000Z</time>
      </trkpt>
      <trkpt lat="47.10018" lon="16.07603">
        <ele>291.17172</ele>
        <time>2026-07-08T12:40:26.000Z</time>
      </trkpt>
      <trkpt lat="47.10022" lon="16.07609">
        <ele>291.188843</ele>
        <time>2026-07-08T12:40:27.000Z</time>
      </trkpt>
      <trkpt lat="47.10026" lon="16.07616">
        <ele>291.205866</ele>
        <time>2026-07-08T12:40:28.000Z</time>
      </trkpt>
      <trkpt lat="47.1003" lon="16.07622">
        <ele>291.222935</ele>
        <time>2026-07-08T12:40:29.000Z</time>
      </trkpt>
      <trkpt lat="47.10034" lon="16.07629">
        <ele>291.24015</ele>
        <time>2026-07-08T12:40:30.000Z</time>
      </trkpt>
      <trkpt lat="47.10038" lon="16.07635">
        <ele>291.257075</ele>
        <time>2026-07-08T12:40:31.000Z</time>
      </trkpt>
      <trkpt lat="47.10042" lon="16.07642">
        <ele>291.27429</ele>
        <time>2026-07-08T12:40:32.000Z</time>
      </trkpt>
      <trkpt lat="47.10046" lon="16.07648">
        <ele>291.290827</ele>
        <time>2026-07-08T12:40:33.000Z</time>
      </trkpt>
      <trkpt lat="47.1005" lon="16.07654">
        <ele>291.307609</ele>
        <time>2026-07-08T12:40:34.000Z</time>
      </trkpt>
      <trkpt lat="47.10054" lon="16.07661">
        <ele>291.325216</ele>
        <time>2026-07-08T12:40:35.000Z</time>
      </trkpt>
      <trkpt lat="47.10058" lon="16.07667">
        <ele>291.342049</ele>
        <time>2026-07-08T12:40:36.000Z</time>
      </trkpt>
      <trkpt lat="47.10062" lon="16.07674">
        <ele>291.359655</ele>
        <time>2026-07-08T12:40:37.000Z</time>
      </trkpt>
      <trkpt lat="47.10066" lon="16.0768">
        <ele>291.37687</ele>
        <time>2026-07-08T12:40:38.000Z</time>
      </trkpt>
      <trkpt lat="47.1007" lon="16.07687">
        <ele>291.394085</ele>
        <time>2026-07-08T12:40:39.000Z</time>
      </trkpt>
      <trkpt lat="47.10074" lon="16.07693">
        <ele>291.410475</ele>
        <time>2026-07-08T12:40:40.000Z</time>
      </trkpt>
      <trkpt lat="47.10077" lon="16.07699">
        <ele>291.427012</ele>
        <time>2026-07-08T12:40:41.000Z</time>
      </trkpt>
      <trkpt lat="47.10081" lon="16.07705">
        <ele>291.423685</ele>
        <time>2026-07-08T12:40:42.000Z</time>
      </trkpt>
      <trkpt lat="47.10085" lon="16.07711">
        <ele>291.397888</ele>
        <time>2026-07-08T12:40:43.000Z</time>
      </trkpt>
      <trkpt lat="47.10089" lon="16.07718">
        <ele>291.371557</ele>
        <time>2026-07-08T12:40:44.000Z</time>
      </trkpt>
      <trkpt lat="47.10093" lon="16.07724">
        <ele>291.34584</ele>
        <time>2026-07-08T12:40:45.000Z</time>
      </trkpt>
      <trkpt lat="47.10097" lon="16.0773">
        <ele>291.319732</ele>
        <time>2026-07-08T12:40:46.000Z</time>
      </trkpt>
      <trkpt lat="47.10101" lon="16.07736">
        <ele>291.294015</ele>
        <time>2026-07-08T12:40:47.000Z</time>
      </trkpt>
      <trkpt lat="47.10105" lon="16.07742">
        <ele>291.267684</ele>
        <time>2026-07-08T12:40:48.000Z</time>
      </trkpt>
      <trkpt lat="47.10109" lon="16.07749">
        <ele>291.241435</ele>
        <time>2026-07-08T12:40:49.000Z</time>
      </trkpt>
      <trkpt lat="47.10113" lon="16.07755">
        <ele>291.215488</ele>
        <time>2026-07-08T12:40:50.000Z</time>
      </trkpt>
      <trkpt lat="47.10117" lon="16.07761">
        <ele>291.188706</ele>
        <time>2026-07-08T12:40:51.000Z</time>
      </trkpt>
      <trkpt lat="47.1012" lon="16.07767">
        <ele>291.163218</ele>
        <time>2026-07-08T12:40:52.000Z</time>
      </trkpt>
      <trkpt lat="47.10124" lon="16.07774">
        <ele>291.136887</ele>
        <time>2026-07-08T12:40:53.000Z</time>
      </trkpt>
      <trkpt lat="47.10128" lon="16.0778">
        <ele>291.110999</ele>
        <time>2026-07-08T12:40:54.000Z</time>
      </trkpt>
      <trkpt lat="47.10132" lon="16.07786">
        <ele>291.084978</ele>
        <time>2026-07-08T12:40:55.000Z</time>
      </trkpt>
      <trkpt lat="47.10136" lon="16.07792">
        <ele>291.059716</ele>
        <time>2026-07-08T12:40:56.000Z</time>
      </trkpt>
      <trkpt lat="47.10139" lon="16.07798">
        <ele>291.036016</ele>
        <time>2026-07-08T12:40:57.000Z</time>
      </trkpt>
      <trkpt lat="47.10141" lon="16.07805">
        <ele>291.012525</ele>
        <time>2026-07-08T12:40:58.000Z</time>
      </trkpt>
      <trkpt lat="47.1014" lon="16.07813">
        <ele>290.989336</ele>
        <time>2026-07-08T12:40:59.000Z</time>
      </trkpt>
      <trkpt lat="47.10138" lon="16.07819">
        <ele>290.966879</ele>
        <time>2026-07-08T12:41:00.000Z</time>
      </trkpt>
      <trkpt lat="47.10135" lon="16.07825">
        <ele>290.943262</ele>
        <time>2026-07-08T12:41:01.000Z</time>
      </trkpt>
      <trkpt lat="47.1013" lon="16.0783">
        <ele>290.918806</ele>
        <time>2026-07-08T12:41:02.000Z</time>
      </trkpt>
      <trkpt lat="47.10126" lon="16.07835">
        <ele>290.89304</ele>
        <time>2026-07-08T12:41:03.000Z</time>
      </trkpt>
      <trkpt lat="47.10122" lon="16.07841">
        <ele>290.866813</ele>
        <time>2026-07-08T12:41:04.000Z</time>
      </trkpt>
      <trkpt lat="47.10117" lon="16.07847">
        <ele>290.839958</ele>
        <time>2026-07-08T12:41:05.000Z</time>
      </trkpt>
      <trkpt lat="47.10113" lon="16.07852">
        <ele>290.812849</ele>
        <time>2026-07-08T12:41:06.000Z</time>
      </trkpt>
      <trkpt lat="47.10108" lon="16.07858">
        <ele>290.78533</ele>
        <time>2026-07-08T12:41:07.000Z</time>
      </trkpt>
      <trkpt lat="47.10104" lon="16.07864">
        <ele>290.757811</ele>
        <time>2026-07-08T12:41:08.000Z</time>
      </trkpt>
      <trkpt lat="47.10099" lon="16.07871">
        <ele>290.729874</ele>
        <time>2026-07-08T12:41:09.000Z</time>
      </trkpt>
      <trkpt lat="47.10095" lon="16.07877">
        <ele>290.702051</ele>
        <time>2026-07-08T12:41:10.000Z</time>
      </trkpt>
      <trkpt lat="47.1009" lon="16.07883">
        <ele>290.673688</ele>
        <time>2026-07-08T12:41:11.000Z</time>
      </trkpt>
      <trkpt lat="47.10086" lon="16.0789">
        <ele>290.645111</ele>
        <time>2026-07-08T12:41:12.000Z</time>
      </trkpt>
      <trkpt lat="47.10081" lon="16.07896">
        <ele>290.61999</ele>
        <time>2026-07-08T12:41:13.000Z</time>
      </trkpt>
      <trkpt lat="47.10077" lon="16.07902">
        <ele>290.611321</ele>
        <time>2026-07-08T12:41:14.000Z</time>
      </trkpt>
      <trkpt lat="47.10072" lon="16.07908">
        <ele>290.602527</ele>
        <time>2026-07-08T12:41:15.000Z</time>
      </trkpt>
      <trkpt lat="47.10067" lon="16.07915">
        <ele>290.593772</ele>
        <time>2026-07-08T12:41:16.000Z</time>
      </trkpt>
      <trkpt lat="47.10063" lon="16.07921">
        <ele>290.584978</ele>
        <time>2026-07-08T12:41:17.000Z</time>
      </trkpt>
      <trkpt lat="47.10058" lon="16.07927">
        <ele>290.576453</ele>
        <time>2026-07-08T12:41:18.000Z</time>
      </trkpt>
      <trkpt lat="47.10054" lon="16.07933">
        <ele>290.567864</ele>
        <time>2026-07-08T12:41:19.000Z</time>
      </trkpt>
      <trkpt lat="47.10049" lon="16.07939">
        <ele>290.559476</ele>
        <time>2026-07-08T12:41:20.000Z</time>
      </trkpt>
      <trkpt lat="47.10045" lon="16.07945">
        <ele>290.550808</ele>
        <time>2026-07-08T12:41:21.000Z</time>
      </trkpt>
      <trkpt lat="47.1004" lon="16.07951">
        <ele>290.542139</ele>
        <time>2026-07-08T12:41:22.000Z</time>
      </trkpt>
      <trkpt lat="47.10035" lon="16.07957">
        <ele>290.533615</ele>
        <time>2026-07-08T12:41:23.000Z</time>
      </trkpt>
      <trkpt lat="47.10031" lon="16.07964">
        <ele>290.524895</ele>
        <time>2026-07-08T12:41:24.000Z</time>
      </trkpt>
      <trkpt lat="47.10022" lon="16.07976">
        <ele>290.507282</ele>
        <time>2026-07-08T12:41:25.000Z</time>
      </trkpt>
      <trkpt lat="47.10017" lon="16.07983">
        <ele>290.498563</ele>
        <time>2026-07-08T12:41:27.000Z</time>
      </trkpt>
      <trkpt lat="47.10008" lon="16.07996">
        <ele>290.480791</ele>
        <time>2026-07-08T12:41:28.000Z</time>
      </trkpt>
      <trkpt lat="47.10003" lon="16.08002">
        <ele>290.471906</ele>
        <time>2026-07-08T12:41:29.000Z</time>
      </trkpt>
      <trkpt lat="47.09999" lon="16.08009">
        <ele>290.463048</ele>
        <time>2026-07-08T12:41:30.000Z</time>
      </trkpt>
      <trkpt lat="47.09994" lon="16.08015">
        <ele>290.454061</ele>
        <time>2026-07-08T12:41:31.000Z</time>
      </trkpt>
      <trkpt lat="47.09989" lon="16.08022">
        <ele>290.445176</ele>
        <time>2026-07-08T12:41:32.000Z</time>
      </trkpt>
      <trkpt lat="47.09985" lon="16.08028">
        <ele>290.436058</ele>
        <time>2026-07-08T12:41:33.000Z</time>
      </trkpt>
      <trkpt lat="47.0998" lon="16.08035">
        <ele>290.427006</ele>
        <time>2026-07-08T12:41:34.000Z</time>
      </trkpt>
      <trkpt lat="47.09975" lon="16.08042">
        <ele>290.417788</ele>
        <time>2026-07-08T12:41:35.000Z</time>
      </trkpt>
      <trkpt lat="47.0997" lon="16.08048">
        <ele>290.408604</ele>
        <time>2026-07-08T12:41:36.000Z</time>
      </trkpt>
      <trkpt lat="47.09966" lon="16.08055">
        <ele>290.399586</ele>
        <time>2026-07-08T12:41:37.000Z</time>
      </trkpt>
      <trkpt lat="47.09961" lon="16.08062">
        <ele>290.3908</ele>
        <time>2026-07-08T12:41:38.000Z</time>
      </trkpt>
      <trkpt lat="47.09957" lon="16.08068">
        <ele>290.381943</ele>
        <time>2026-07-08T12:41:39.000Z</time>
      </trkpt>
      <trkpt lat="47.09952" lon="16.08074">
        <ele>290.373223</ele>
        <time>2026-07-08T12:41:40.000Z</time>
      </trkpt>
      <trkpt lat="47.09948" lon="16.08081">
        <ele>290.362999</ele>
        <time>2026-07-08T12:41:41.000Z</time>
      </trkpt>
      <trkpt lat="47.09943" lon="16.08087">
        <ele>290.352165</ele>
        <time>2026-07-08T12:41:42.000Z</time>
      </trkpt>
      <trkpt lat="47.09939" lon="16.08093">
        <ele>290.341168</ele>
        <time>2026-07-08T12:41:43.000Z</time>
      </trkpt>
      <trkpt lat="47.09934" lon="16.08099">
        <ele>290.330253</ele>
        <time>2026-07-08T12:41:44.000Z</time>
      </trkpt>
      <trkpt lat="47.0993" lon="16.08105">
        <ele>290.319003</ele>
        <time>2026-07-08T12:41:45.000Z</time>
      </trkpt>
      <trkpt lat="47.09925" lon="16.08112">
        <ele>290.307753</ele>
        <time>2026-07-08T12:41:46.000Z</time>
      </trkpt>
      <trkpt lat="47.09921" lon="16.08118">
        <ele>290.296588</ele>
        <time>2026-07-08T12:41:47.000Z</time>
      </trkpt>
      <trkpt lat="47.09916" lon="16.08125">
        <ele>290.285338</ele>
        <time>2026-07-08T12:41:48.000Z</time>
      </trkpt>
      <trkpt lat="47.09912" lon="16.08131">
        <ele>290.273831</ele>
        <time>2026-07-08T12:41:49.000Z</time>
      </trkpt>
      <trkpt lat="47.09907" lon="16.08138">
        <ele>290.26275</ele>
        <time>2026-07-08T12:41:50.000Z</time>
      </trkpt>
      <trkpt lat="47.09903" lon="16.08144">
        <ele>290.251669</ele>
        <time>2026-07-08T12:41:51.000Z</time>
      </trkpt>
      <trkpt lat="47.09898" lon="16.0815">
        <ele>290.240503</ele>
        <time>2026-07-08T12:41:52.000Z</time>
      </trkpt>
      <trkpt lat="47.09893" lon="16.08156">
        <ele>290.229404</ele>
        <time>2026-07-08T12:41:53.000Z</time>
      </trkpt>
      <trkpt lat="47.09889" lon="16.08162">
        <ele>290.21857</ele>
        <time>2026-07-08T12:41:54.000Z</time>
      </trkpt>
      <trkpt lat="47.09885" lon="16.08168">
        <ele>290.208254</ele>
        <time>2026-07-08T12:41:55.000Z</time>
      </trkpt>
      <trkpt lat="47.0988" lon="16.08174">
        <ele>290.197716</ele>
        <time>2026-07-08T12:41:56.000Z</time>
      </trkpt>
      <trkpt lat="47.09876" lon="16.0818">
        <ele>290.18731</ele>
        <time>2026-07-08T12:41:57.000Z</time>
      </trkpt>
      <trkpt lat="47.09872" lon="16.08186">
        <ele>290.17695</ele>
        <time>2026-07-08T12:41:58.000Z</time>
      </trkpt>
      <trkpt lat="47.09868" lon="16.08192">
        <ele>290.166378</ele>
        <time>2026-07-08T12:41:59.000Z</time>
      </trkpt>
      <trkpt lat="47.09863" lon="16.08198">
        <ele>290.155806</ele>
        <time>2026-07-08T12:42:00.000Z</time>
      </trkpt>
      <trkpt lat="47.09859" lon="16.08204">
        <ele>290.145022</ele>
        <time>2026-07-08T12:42:01.000Z</time>
      </trkpt>
      <trkpt lat="47.09854" lon="16.0821">
        <ele>290.133893</ele>
        <time>2026-07-08T12:42:02.000Z</time>
      </trkpt>
      <trkpt lat="47.0985" lon="16.08217">
        <ele>290.122643</ele>
        <time>2026-07-08T12:42:03.000Z</time>
      </trkpt>
      <trkpt lat="47.09845" lon="16.08223">
        <ele>290.111301</ele>
        <time>2026-07-08T12:42:04.000Z</time>
      </trkpt>
      <trkpt lat="47.0984" lon="16.0823">
        <ele>290.099498</ele>
        <time>2026-07-08T12:42:05.000Z</time>
      </trkpt>
      <trkpt lat="47.09835" lon="16.08236">
        <ele>290.087729</ele>
        <time>2026-07-08T12:42:06.000Z</time>
      </trkpt>
      <trkpt lat="47.09831" lon="16.08243">
        <ele>290.075926</ele>
        <time>2026-07-08T12:42:07.000Z</time>
      </trkpt>
      <trkpt lat="47.09826" lon="16.08249">
        <ele>290.064206</ele>
        <time>2026-07-08T12:42:08.000Z</time>
      </trkpt>
      <trkpt lat="47.09821" lon="16.08256">
        <ele>290.052273</ele>
        <time>2026-07-08T12:42:09.000Z</time>
      </trkpt>
      <trkpt lat="47.09816" lon="16.08263">
        <ele>290.049045</ele>
        <time>2026-07-08T12:42:10.000Z</time>
      </trkpt>
      <trkpt lat="47.09811" lon="16.08269">
        <ele>290.047411</ele>
        <time>2026-07-08T12:42:11.000Z</time>
      </trkpt>
      <trkpt lat="47.09807" lon="16.08276">
        <ele>290.045783</ele>
        <time>2026-07-08T12:42:12.000Z</time>
      </trkpt>
      <trkpt lat="47.09802" lon="16.08283">
        <ele>290.044172</ele>
        <time>2026-07-08T12:42:13.000Z</time>
      </trkpt>
      <trkpt lat="47.09798" lon="16.08289">
        <ele>290.04255</ele>
        <time>2026-07-08T12:42:14.000Z</time>
      </trkpt>
      <trkpt lat="47.09793" lon="16.08296">
        <ele>290.040951</ele>
        <time>2026-07-08T12:42:15.000Z</time>
      </trkpt>
      <trkpt lat="47.09789" lon="16.08302">
        <ele>290.039377</ele>
        <time>2026-07-08T12:42:16.000Z</time>
      </trkpt>
      <trkpt lat="47.09784" lon="16.08309">
        <ele>290.037851</ele>
        <time>2026-07-08T12:42:17.000Z</time>
      </trkpt>
      <trkpt lat="47.0978" lon="16.08315">
        <ele>290.036286</ele>
        <time>2026-07-08T12:42:18.000Z</time>
      </trkpt>
      <trkpt lat="47.09775" lon="16.08321">
        <ele>290.034723</ele>
        <time>2026-07-08T12:42:19.000Z</time>
      </trkpt>
      <trkpt lat="47.09771" lon="16.08327">
        <ele>290.033137</ele>
        <time>2026-07-08T12:42:20.000Z</time>
      </trkpt>
      <trkpt lat="47.09766" lon="16.08334">
        <ele>290.031598</ele>
        <time>2026-07-08T12:42:21.000Z</time>
      </trkpt>
      <trkpt lat="47.09762" lon="16.0834">
        <ele>290.030059</ele>
        <time>2026-07-08T12:42:22.000Z</time>
      </trkpt>
      <trkpt lat="47.09757" lon="16.08346">
        <ele>290.028485</ele>
        <time>2026-07-08T12:42:23.000Z</time>
      </trkpt>
      <trkpt lat="47.09753" lon="16.08353">
        <ele>290.026899</ele>
        <time>2026-07-08T12:42:24.000Z</time>
      </trkpt>
      <trkpt lat="47.09748" lon="16.08359">
        <ele>290.025354</ele>
        <time>2026-07-08T12:42:25.000Z</time>
      </trkpt>
      <trkpt lat="47.09744" lon="16.08366">
        <ele>290.02375</ele>
        <time>2026-07-08T12:42:26.000Z</time>
      </trkpt>
      <trkpt lat="47.09739" lon="16.08372">
        <ele>290.022124</ele>
        <time>2026-07-08T12:42:27.000Z</time>
      </trkpt>
      <trkpt lat="47.09734" lon="16.08378">
        <ele>290.020506</ele>
        <time>2026-07-08T12:42:28.000Z</time>
      </trkpt>
      <trkpt lat="47.09729" lon="16.08384">
        <ele>290.018884</ele>
        <time>2026-07-08T12:42:29.000Z</time>
      </trkpt>
      <trkpt lat="47.09724" lon="16.0839">
        <ele>290.017273</ele>
        <time>2026-07-08T12:42:30.000Z</time>
      </trkpt>
      <trkpt lat="47.09719" lon="16.08395">
        <ele>290.015642</ele>
        <time>2026-07-08T12:42:31.000Z</time>
      </trkpt>
      <trkpt lat="47.09713" lon="16.08401">
        <ele>290.01395</ele>
        <time>2026-07-08T12:42:32.000Z</time>
      </trkpt>
      <trkpt lat="47.09708" lon="16.08407">
        <ele>290.012249</ele>
        <time>2026-07-08T12:42:33.000Z</time>
      </trkpt>
      <trkpt lat="47.09702" lon="16.08412">
        <ele>290.010587</ele>
        <time>2026-07-08T12:42:34.000Z</time>
      </trkpt>
      <trkpt lat="47.09697" lon="16.08418">
        <ele>290.008896</ele>
        <time>2026-07-08T12:42:35.000Z</time>
      </trkpt>
      <trkpt lat="47.09692" lon="16.08424">
        <ele>290.007265</ele>
        <time>2026-07-08T12:42:36.000Z</time>
      </trkpt>
      <trkpt lat="47.09686" lon="16.08429">
        <ele>290.005654</ele>
        <time>2026-07-08T12:42:37.000Z</time>
      </trkpt>
      <trkpt lat="47.09681" lon="16.08434">
        <ele>289.991612</ele>
        <time>2026-07-08T12:42:38.000Z</time>
      </trkpt>
      <trkpt lat="47.09676" lon="16.0844">
        <ele>289.972662</ele>
        <time>2026-07-08T12:42:39.000Z</time>
      </trkpt>
      <trkpt lat="47.0967" lon="16.08445">
        <ele>289.953223</ele>
        <time>2026-07-08T12:42:40.000Z</time>
      </trkpt>
      <trkpt lat="47.09664" lon="16.0845">
        <ele>289.934166</ele>
        <time>2026-07-08T12:42:41.000Z</time>
      </trkpt>
      <trkpt lat="47.09659" lon="16.08456">
        <ele>289.914427</ele>
        <time>2026-07-08T12:42:42.000Z</time>
      </trkpt>
      <trkpt lat="47.09653" lon="16.08462">
        <ele>289.894461</ele>
        <time>2026-07-08T12:42:43.000Z</time>
      </trkpt>
      <trkpt lat="47.09648" lon="16.08468">
        <ele>289.874604</ele>
        <time>2026-07-08T12:42:44.000Z</time>
      </trkpt>
      <trkpt lat="47.09643" lon="16.08474">
        <ele>289.855299</ele>
        <time>2026-07-08T12:42:45.000Z</time>
      </trkpt>
      <trkpt lat="47.09637" lon="16.0848">
        <ele>289.835682</ele>
        <time>2026-07-08T12:42:46.000Z</time>
      </trkpt>
      <trkpt lat="47.09632" lon="16.08486">
        <ele>289.816752</ele>
        <time>2026-07-08T12:42:47.000Z</time>
      </trkpt>
      <trkpt lat="47.09627" lon="16.08492">
        <ele>289.798416</ele>
        <time>2026-07-08T12:42:48.000Z</time>
      </trkpt>
      <trkpt lat="47.09622" lon="16.08498">
        <ele>289.779679</ele>
        <time>2026-07-08T12:42:49.000Z</time>
      </trkpt>
      <trkpt lat="47.09618" lon="16.08504">
        <ele>289.761939</ele>
        <time>2026-07-08T12:42:50.000Z</time>
      </trkpt>
      <trkpt lat="47.09613" lon="16.08511">
        <ele>289.743852</ele>
        <time>2026-07-08T12:42:51.000Z</time>
      </trkpt>
      <trkpt lat="47.09609" lon="16.08516">
        <ele>289.726067</ele>
        <time>2026-07-08T12:42:52.000Z</time>
      </trkpt>
      <trkpt lat="47.09604" lon="16.08522">
        <ele>289.708027</ele>
        <time>2026-07-08T12:42:53.000Z</time>
      </trkpt>
      <trkpt lat="47.09599" lon="16.08528">
        <ele>289.690204</ele>
        <time>2026-07-08T12:42:54.000Z</time>
      </trkpt>
      <trkpt lat="47.09594" lon="16.08535">
        <ele>289.671468</ele>
        <time>2026-07-08T12:42:55.000Z</time>
      </trkpt>
      <trkpt lat="47.0959" lon="16.08541">
        <ele>289.653593</ele>
        <time>2026-07-08T12:42:56.000Z</time>
      </trkpt>
      <trkpt lat="47.09585" lon="16.08547">
        <ele>289.635639</ele>
        <time>2026-07-08T12:42:57.000Z</time>
      </trkpt>
      <trkpt lat="47.09581" lon="16.08553">
        <ele>289.618245</ele>
        <time>2026-07-08T12:42:58.000Z</time>
      </trkpt>
      <trkpt lat="47.09576" lon="16.08559">
        <ele>289.600638</ele>
        <time>2026-07-08T12:42:59.000Z</time>
      </trkpt>
      <trkpt lat="47.09572" lon="16.08565">
        <ele>289.582282</ele>
        <time>2026-07-08T12:43:00.000Z</time>
      </trkpt>
      <trkpt lat="47.09567" lon="16.08572">
        <ele>289.563848</ele>
        <time>2026-07-08T12:43:01.000Z</time>
      </trkpt>
      <trkpt lat="47.09563" lon="16.08578">
        <ele>289.545563</ele>
        <time>2026-07-08T12:43:02.000Z</time>
      </trkpt>
      <trkpt lat="47.09558" lon="16.08585">
        <ele>289.526649</ele>
        <time>2026-07-08T12:43:03.000Z</time>
      </trkpt>
      <trkpt lat="47.09553" lon="16.08591">
        <ele>289.508167</ele>
        <time>2026-07-08T12:43:04.000Z</time>
      </trkpt>
      <trkpt lat="47.09547" lon="16.08596">
        <ele>289.489217</ele>
        <time>2026-07-08T12:43:05.000Z</time>
      </trkpt>
      <trkpt lat="47.09542" lon="16.086">
        <ele>289.460609</ele>
        <time>2026-07-08T12:43:06.000Z</time>
      </trkpt>
      <trkpt lat="47.09536" lon="16.08604">
        <ele>289.428742</ele>
        <time>2026-07-08T12:43:07.000Z</time>
      </trkpt>
      <trkpt lat="47.09531" lon="16.08608">
        <ele>289.398226</ele>
        <time>2026-07-08T12:43:08.000Z</time>
      </trkpt>
      <trkpt lat="47.09525" lon="16.08612">
        <ele>289.36706</ele>
        <time>2026-07-08T12:43:09.000Z</time>
      </trkpt>
      <trkpt lat="47.09519" lon="16.08615">
        <ele>289.336823</ele>
        <time>2026-07-08T12:43:10.000Z</time>
      </trkpt>
      <trkpt lat="47.09514" lon="16.08618">
        <ele>289.307784</ele>
        <time>2026-07-08T12:43:11.000Z</time>
      </trkpt>
      <trkpt lat="47.09509" lon="16.08622">
        <ele>289.277682</ele>
        <time>2026-07-08T12:43:12.000Z</time>
      </trkpt>
      <trkpt lat="47.09503" lon="16.08625">
        <ele>289.248643</ele>
        <time>2026-07-08T12:43:13.000Z</time>
      </trkpt>
      <trkpt lat="47.09498" lon="16.08629">
        <ele>289.218406</ele>
        <time>2026-07-08T12:43:14.000Z</time>
      </trkpt>
      <trkpt lat="47.09492" lon="16.08632">
        <ele>289.187499</ele>
        <time>2026-07-08T12:43:15.000Z</time>
      </trkpt>
      <trkpt lat="47.09487" lon="16.08635">
        <ele>289.157656</ele>
        <time>2026-07-08T12:43:16.000Z</time>
      </trkpt>
      <trkpt lat="47.09481" lon="16.08638">
        <ele>289.126749</ele>
        <time>2026-07-08T12:43:17.000Z</time>
      </trkpt>
      <trkpt lat="47.09475" lon="16.08642">
        <ele>289.096647</ele>
        <time>2026-07-08T12:43:18.000Z</time>
      </trkpt>
      <trkpt lat="47.0947" lon="16.08645">
        <ele>289.067869</ele>
        <time>2026-07-08T12:43:19.000Z</time>
      </trkpt>
      <trkpt lat="47.09465" lon="16.08648">
        <ele>289.039428</ele>
        <time>2026-07-08T12:43:20.000Z</time>
      </trkpt>
      <trkpt lat="47.0946" lon="16.08651">
        <ele>289.010388</ele>
        <time>2026-07-08T12:43:21.000Z</time>
      </trkpt>
      <trkpt lat="47.09454" lon="16.08655">
        <ele>288.981675</ele>
        <time>2026-07-08T12:43:22.000Z</time>
      </trkpt>
      <trkpt lat="47.09449" lon="16.08658">
        <ele>288.953022</ele>
        <time>2026-07-08T12:43:23.000Z</time>
      </trkpt>
      <trkpt lat="47.09444" lon="16.0866">
        <ele>288.924834</ele>
        <time>2026-07-08T12:43:24.000Z</time>
      </trkpt>
      <trkpt lat="47.09438" lon="16.08663">
        <ele>288.895891</ele>
        <time>2026-07-08T12:43:25.000Z</time>
      </trkpt>
      <trkpt lat="47.09433" lon="16.08665">
        <ele>288.865882</ele>
        <time>2026-07-08T12:43:26.000Z</time>
      </trkpt>
      <trkpt lat="47.09427" lon="16.08668">
        <ele>288.836164</ele>
        <time>2026-07-08T12:43:27.000Z</time>
      </trkpt>
      <trkpt lat="47.09422" lon="16.08672">
        <ele>288.806062</ele>
        <time>2026-07-08T12:43:28.000Z</time>
      </trkpt>
      <trkpt lat="47.09416" lon="16.08675">
        <ele>288.774896</ele>
        <time>2026-07-08T12:43:29.000Z</time>
      </trkpt>
      <trkpt lat="47.0941" lon="16.08679">
        <ele>288.744521</ele>
        <time>2026-07-08T12:43:30.000Z</time>
      </trkpt>
      <trkpt lat="47.09405" lon="16.08682">
        <ele>288.714284</ele>
        <time>2026-07-08T12:43:31.000Z</time>
      </trkpt>
      <trkpt lat="47.09399" lon="16.08686">
        <ele>288.683324</ele>
        <time>2026-07-08T12:43:32.000Z</time>
      </trkpt>
      <trkpt lat="47.09394" lon="16.08691">
        <ele>288.653487</ele>
        <time>2026-07-08T12:43:33.000Z</time>
      </trkpt>
      <trkpt lat="47.09389" lon="16.08695">
        <ele>288.623725</ele>
        <time>2026-07-08T12:43:34.000Z</time>
      </trkpt>
      <trkpt lat="47.09385" lon="16.087">
        <ele>288.59445</ele>
        <time>2026-07-08T12:43:35.000Z</time>
      </trkpt>
      <trkpt lat="47.0938" lon="16.08706">
        <ele>288.563318</ele>
        <time>2026-07-08T12:43:36.000Z</time>
      </trkpt>
      <trkpt lat="47.09375" lon="16.08711">
        <ele>288.531427</ele>
        <time>2026-07-08T12:43:37.000Z</time>
      </trkpt>
      <trkpt lat="47.09371" lon="16.08716">
        <ele>288.499946</ele>
        <time>2026-07-08T12:43:38.000Z</time>
      </trkpt>
      <trkpt lat="47.09367" lon="16.0872">
        <ele>288.469881</ele>
        <time>2026-07-08T12:43:39.000Z</time>
      </trkpt>
      <trkpt lat="47.09363" lon="16.08725">
        <ele>288.441403</ele>
        <time>2026-07-08T12:43:40.000Z</time>
      </trkpt>
      <trkpt lat="47.09359" lon="16.08729">
        <ele>288.413112</ele>
        <time>2026-07-08T12:43:41.000Z</time>
      </trkpt>
      <trkpt lat="47.09355" lon="16.08733">
        <ele>288.386689</ele>
        <time>2026-07-08T12:43:42.000Z</time>
      </trkpt>
      <trkpt lat="47.09351" lon="16.08737">
        <ele>288.358212</ele>
        <time>2026-07-08T12:43:43.000Z</time>
      </trkpt>
      <trkpt lat="47.09347" lon="16.08742">
        <ele>288.330417</ele>
        <time>2026-07-08T12:43:44.000Z</time>
      </trkpt>
      <trkpt lat="47.09343" lon="16.08746">
        <ele>288.302829</ele>
        <time>2026-07-08T12:43:45.000Z</time>
      </trkpt>
      <trkpt lat="47.09339" lon="16.08751">
        <ele>288.275241</ele>
        <time>2026-07-08T12:43:46.000Z</time>
      </trkpt>
      <trkpt lat="47.09335" lon="16.08755">
        <ele>288.248134</ele>
        <time>2026-07-08T12:43:47.000Z</time>
      </trkpt>
      <trkpt lat="47.09331" lon="16.08759">
        <ele>288.220344</ele>
        <time>2026-07-08T12:43:48.000Z</time>
      </trkpt>
      <trkpt lat="47.09327" lon="16.08763">
        <ele>288.192553</ele>
        <time>2026-07-08T12:43:49.000Z</time>
      </trkpt>
      <trkpt lat="47.09324" lon="16.08768">
        <ele>288.165442</ele>
        <time>2026-07-08T12:43:50.000Z</time>
      </trkpt>
      <trkpt lat="47.0932" lon="16.08772">
        <ele>288.139012</ele>
        <time>2026-07-08T12:43:51.000Z</time>
      </trkpt>
      <trkpt lat="47.09316" lon="16.08775">
        <ele>288.115506</ele>
        <time>2026-07-08T12:43:52.000Z</time>
      </trkpt>
      <trkpt lat="47.09313" lon="16.08777">
        <ele>288.096369</ele>
        <time>2026-07-08T12:43:53.000Z</time>
      </trkpt>
      <trkpt lat="47.09311" lon="16.08777">
        <ele>288.082192</ele>
        <time>2026-07-08T12:43:54.000Z</time>
      </trkpt>
      <trkpt lat="47.09309" lon="16.08777">
        <ele>288.070881</ele>
        <time>2026-07-08T12:43:55.000Z</time>
      </trkpt>
      <trkpt lat="47.09307" lon="16.08777">
        <ele>288.062395</ele>
        <time>2026-07-08T12:43:56.000Z</time>
      </trkpt>
      <trkpt lat="47.09306" lon="16.08778">
        <ele>288.056956</ele>
        <time>2026-07-08T12:43:57.000Z</time>
      </trkpt>
      <trkpt lat="47.09306" lon="16.08789">
        <ele>288.012475</ele>
        <time>2026-07-08T12:47:02.000Z</time>
      </trkpt>
      <trkpt lat="47.09304" lon="16.08791">
        <ele>288.001834</ele>
        <time>2026-07-08T12:47:03.000Z</time>
      </trkpt>
      <trkpt lat="47.09302" lon="16.08793">
        <ele>287.988623</ele>
        <time>2026-07-08T12:47:04.000Z</time>
      </trkpt>
      <trkpt lat="47.093" lon="16.08796">
        <ele>287.9745</ele>
        <time>2026-07-08T12:47:05.000Z</time>
      </trkpt>
      <trkpt lat="47.09298" lon="16.08798">
        <ele>287.958029</ele>
        <time>2026-07-08T12:47:06.000Z</time>
      </trkpt>
      <trkpt lat="47.09295" lon="16.088">
        <ele>287.940935</ele>
        <time>2026-07-08T12:47:07.000Z</time>
      </trkpt>
      <trkpt lat="47.09293" lon="16.08803">
        <ele>287.922212</ele>
        <time>2026-07-08T12:47:08.000Z</time>
      </trkpt>
      <trkpt lat="47.0929" lon="16.08806">
        <ele>287.902624</ele>
        <time>2026-07-08T12:47:09.000Z</time>
      </trkpt>
      <trkpt lat="47.09287" lon="16.08809">
        <ele>287.882123</ele>
        <time>2026-07-08T12:47:10.000Z</time>
      </trkpt>
      <trkpt lat="47.09284" lon="16.08812">
        <ele>287.860939</ele>
        <time>2026-07-08T12:47:11.000Z</time>
      </trkpt>
      <trkpt lat="47.09281" lon="16.08816">
        <ele>287.83884</ele>
        <time>2026-07-08T12:47:12.000Z</time>
      </trkpt>
      <trkpt lat="47.09277" lon="16.08819">
        <ele>287.815374</ele>
        <time>2026-07-08T12:47:13.000Z</time>
      </trkpt>
      <trkpt lat="47.09274" lon="16.08823">
        <ele>287.792798</ele>
        <time>2026-07-08T12:47:14.000Z</time>
      </trkpt>
      <trkpt lat="47.09271" lon="16.08827">
        <ele>287.76865</ele>
        <time>2026-07-08T12:47:15.000Z</time>
      </trkpt>
      <trkpt lat="47.09268" lon="16.08831">
        <ele>287.746074</ele>
        <time>2026-07-08T12:47:16.000Z</time>
      </trkpt>
      <trkpt lat="47.09264" lon="16.08834">
        <ele>287.722143</ele>
        <time>2026-07-08T12:47:17.000Z</time>
      </trkpt>
      <trkpt lat="47.09261" lon="16.08838">
        <ele>287.698676</ele>
        <time>2026-07-08T12:47:18.000Z</time>
      </trkpt>
      <trkpt lat="47.09258" lon="16.08841">
        <ele>287.675855</ele>
        <time>2026-07-08T12:47:19.000Z</time>
      </trkpt>
      <trkpt lat="47.09254" lon="16.08845">
        <ele>287.651939</ele>
        <time>2026-07-08T12:47:20.000Z</time>
      </trkpt>
      <trkpt lat="47.09251" lon="16.08849">
        <ele>287.627566</ele>
        <time>2026-07-08T12:47:21.000Z</time>
      </trkpt>
      <trkpt lat="47.09248" lon="16.08852">
        <ele>287.604333</ele>
        <time>2026-07-08T12:47:22.000Z</time>
      </trkpt>
      <trkpt lat="47.09244" lon="16.08856">
        <ele>287.580394</ele>
        <time>2026-07-08T12:47:23.000Z</time>
      </trkpt>
      <trkpt lat="47.09241" lon="16.0886">
        <ele>287.561205</ele>
        <time>2026-07-08T12:47:24.000Z</time>
      </trkpt>
      <trkpt lat="47.09237" lon="16.08864">
        <ele>287.567356</ele>
        <time>2026-07-08T12:47:25.000Z</time>
      </trkpt>
      <trkpt lat="47.09234" lon="16.08868">
        <ele>287.573564</ele>
        <time>2026-07-08T12:47:26.000Z</time>
      </trkpt>
      <trkpt lat="47.0923" lon="16.08872">
        <ele>287.579829</ele>
        <time>2026-07-08T12:47:27.000Z</time>
      </trkpt>
      <trkpt lat="47.09226" lon="16.08876">
        <ele>287.586552</ele>
        <time>2026-07-08T12:47:28.000Z</time>
      </trkpt>
      <trkpt lat="47.09223" lon="16.0888">
        <ele>287.592931</ele>
        <time>2026-07-08T12:47:29.000Z</time>
      </trkpt>
      <trkpt lat="47.09219" lon="16.08884">
        <ele>287.599653</ele>
        <time>2026-07-08T12:47:30.000Z</time>
      </trkpt>
      <trkpt lat="47.09215" lon="16.08888">
        <ele>287.606492</ele>
        <time>2026-07-08T12:47:31.000Z</time>
      </trkpt>
      <trkpt lat="47.09211" lon="16.08892">
        <ele>287.613213</ele>
        <time>2026-07-08T12:47:32.000Z</time>
      </trkpt>
      <trkpt lat="47.09207" lon="16.08896">
        <ele>287.61988</ele>
        <time>2026-07-08T12:47:33.000Z</time>
      </trkpt>
      <trkpt lat="47.09203" lon="16.089">
        <ele>287.626719</ele>
        <time>2026-07-08T12:47:34.000Z</time>
      </trkpt>
      <trkpt lat="47.092" lon="16.08903">
        <ele>287.632716</ele>
        <time>2026-07-08T12:47:35.000Z</time>
      </trkpt>
      <trkpt lat="47.09197" lon="16.08907">
        <ele>287.638471</ele>
        <time>2026-07-08T12:47:36.000Z</time>
      </trkpt>
      <trkpt lat="47.09194" lon="16.08912">
        <ele>287.64406</ele>
        <time>2026-07-08T12:47:37.000Z</time>
      </trkpt>
      <trkpt lat="47.09193" lon="16.08917">
        <ele>287.649493</ele>
        <time>2026-07-08T12:47:38.000Z</time>
      </trkpt>
      <trkpt lat="47.09193" lon="16.08922">
        <ele>287.654593</ele>
        <time>2026-07-08T12:47:39.000Z</time>
      </trkpt>
      <trkpt lat="47.09194" lon="16.08927">
        <ele>287.65985</ele>
        <time>2026-07-08T12:47:40.000Z</time>
      </trkpt>
      <trkpt lat="47.09197" lon="16.08931">
        <ele>287.665408</ele>
        <time>2026-07-08T12:47:41.000Z</time>
      </trkpt>
      <trkpt lat="47.092" lon="16.08935">
        <ele>287.671392</ele>
        <time>2026-07-08T12:47:42.000Z</time>
      </trkpt>
      <trkpt lat="47.09204" lon="16.08938">
        <ele>287.677488</ele>
        <time>2026-07-08T12:47:43.000Z</time>
      </trkpt>
      <trkpt lat="47.09208" lon="16.08941">
        <ele>287.684131</ele>
        <time>2026-07-08T12:47:44.000Z</time>
      </trkpt>
      <trkpt lat="47.09212" lon="16.08944">
        <ele>287.690711</ele>
        <time>2026-07-08T12:47:45.000Z</time>
      </trkpt>
      <trkpt lat="47.09216" lon="16.08948">
        <ele>287.697496</ele>
        <time>2026-07-08T12:47:46.000Z</time>
      </trkpt>
      <trkpt lat="47.0922" lon="16.08952">
        <ele>287.704228</ele>
        <time>2026-07-08T12:47:47.000Z</time>
      </trkpt>
      <trkpt lat="47.09224" lon="16.08956">
        <ele>287.711079</ele>
        <time>2026-07-08T12:47:48.000Z</time>
      </trkpt>
      <trkpt lat="47.09228" lon="16.0896">
        <ele>287.718142</ele>
        <time>2026-07-08T12:47:49.000Z</time>
      </trkpt>
      <trkpt lat="47.09233" lon="16.08965">
        <ele>287.725377</ele>
        <time>2026-07-08T12:47:50.000Z</time>
      </trkpt>
      <trkpt lat="47.09237" lon="16.08969">
        <ele>287.732382</ele>
        <time>2026-07-08T12:47:51.000Z</time>
      </trkpt>
      <trkpt lat="47.09241" lon="16.08974">
        <ele>287.739621</ele>
        <time>2026-07-08T12:47:52.000Z</time>
      </trkpt>
      <trkpt lat="47.09244" lon="16.08978">
        <ele>287.746642</ele>
        <time>2026-07-08T12:47:53.000Z</time>
      </trkpt>
      <trkpt lat="47.09248" lon="16.08983">
        <ele>287.75365</ele>
        <time>2026-07-08T12:47:54.000Z</time>
      </trkpt>
      <trkpt lat="47.09252" lon="16.08987">
        <ele>287.760609</ele>
        <time>2026-07-08T12:47:55.000Z</time>
      </trkpt>
      <trkpt lat="47.09256" lon="16.08992">
        <ele>287.767398</ele>
        <time>2026-07-08T12:47:56.000Z</time>
      </trkpt>
      <trkpt lat="47.0926" lon="16.08997">
        <ele>287.774419</ele>
        <time>2026-07-08T12:47:57.000Z</time>
      </trkpt>
      <trkpt lat="47.09263" lon="16.09001">
        <ele>287.781208</ele>
        <time>2026-07-08T12:47:58.000Z</time>
      </trkpt>
      <trkpt lat="47.09267" lon="16.09006">
        <ele>287.788014</ele>
        <time>2026-07-08T12:47:59.000Z</time>
      </trkpt>
      <trkpt lat="47.0927" lon="16.0901">
        <ele>287.794588</ele>
        <time>2026-07-08T12:48:00.000Z</time>
      </trkpt>
      <trkpt lat="47.09274" lon="16.09015">
        <ele>287.801438</ele>
        <time>2026-07-08T12:48:01.000Z</time>
      </trkpt>
      <trkpt lat="47.09278" lon="16.0902">
        <ele>287.808351</ele>
        <time>2026-07-08T12:48:02.000Z</time>
      </trkpt>
      <trkpt lat="47.09281" lon="16.09024">
        <ele>287.816328</ele>
        <time>2026-07-08T12:48:03.000Z</time>
      </trkpt>
      <trkpt lat="47.09285" lon="16.09029">
        <ele>287.8381</ele>
        <time>2026-07-08T12:48:04.000Z</time>
      </trkpt>
      <trkpt lat="47.09289" lon="16.09033">
        <ele>287.859351</ele>
        <time>2026-07-08T12:48:05.000Z</time>
      </trkpt>
      <trkpt lat="47.09293" lon="16.09038">
        <ele>287.880462</ele>
        <time>2026-07-08T12:48:06.000Z</time>
      </trkpt>
      <trkpt lat="47.09296" lon="16.09043">
        <ele>287.901845</ele>
        <time>2026-07-08T12:48:07.000Z</time>
      </trkpt>
      <trkpt lat="47.093" lon="16.09048">
        <ele>287.923804</ele>
        <time>2026-07-08T12:48:08.000Z</time>
      </trkpt>
      <trkpt lat="47.09304" lon="16.09053">
        <ele>287.944591</ele>
        <time>2026-07-08T12:48:09.000Z</time>
      </trkpt>
      <trkpt lat="47.09308" lon="16.09057">
        <ele>287.966549</ele>
        <time>2026-07-08T12:48:11.000Z</time>
      </trkpt>
      <trkpt lat="47.09312" lon="16.09062">
        <ele>287.987989</ele>
        <time>2026-07-08T12:48:12.000Z</time>
      </trkpt>
      <trkpt lat="47.09315" lon="16.09067">
        <ele>288.009687</ele>
        <time>2026-07-08T12:48:13.000Z</time>
      </trkpt>
      <trkpt lat="47.09319" lon="16.09072">
        <ele>288.031317</ele>
        <time>2026-07-08T12:48:14.000Z</time>
      </trkpt>
      <trkpt lat="47.09323" lon="16.09077">
        <ele>288.052817</ele>
        <time>2026-07-08T12:48:15.000Z</time>
      </trkpt>
      <trkpt lat="47.09327" lon="16.09081">
        <ele>288.074068</ele>
        <time>2026-07-08T12:48:16.000Z</time>
      </trkpt>
      <trkpt lat="47.0933" lon="16.09086">
        <ele>288.095891</ele>
        <time>2026-07-08T12:48:17.000Z</time>
      </trkpt>
      <trkpt lat="47.09334" lon="16.09091">
        <ele>288.11785</ele>
        <time>2026-07-08T12:48:18.000Z</time>
      </trkpt>
      <trkpt lat="47.09338" lon="16.09096">
        <ele>288.139867</ele>
        <time>2026-07-08T12:48:19.000Z</time>
      </trkpt>
      <trkpt lat="47.09342" lon="16.09101">
        <ele>288.161497</ele>
        <time>2026-07-08T12:48:20.000Z</time>
      </trkpt>
      <trkpt lat="47.09346" lon="16.09106">
        <ele>288.183195</ele>
        <time>2026-07-08T12:48:21.000Z</time>
      </trkpt>
      <trkpt lat="47.09349" lon="16.09111">
        <ele>288.205212</ele>
        <time>2026-07-08T12:48:22.000Z</time>
      </trkpt>
      <trkpt lat="47.09353" lon="16.09116">
        <ele>288.22788</ele>
        <time>2026-07-08T12:48:23.000Z</time>
      </trkpt>
      <trkpt lat="47.09357" lon="16.09121">
        <ele>288.250548</ele>
        <time>2026-07-08T12:48:24.000Z</time>
      </trkpt>
      <trkpt lat="47.09361" lon="16.09126">
        <ele>288.273026</ele>
        <time>2026-07-08T12:48:25.000Z</time>
      </trkpt>
      <trkpt lat="47.09365" lon="16.09131">
        <ele>288.295694</ele>
        <time>2026-07-08T12:48:26.000Z</time>
      </trkpt>
      <trkpt lat="47.09369" lon="16.09136">
        <ele>288.318362</ele>
        <time>2026-07-08T12:48:27.000Z</time>
      </trkpt>
      <trkpt lat="47.09373" lon="16.09141">
        <ele>288.341221</ele>
        <time>2026-07-08T12:48:28.000Z</time>
      </trkpt>
      <trkpt lat="47.09377" lon="16.09146">
        <ele>288.363561</ele>
        <time>2026-07-08T12:48:29.000Z</time>
      </trkpt>
      <trkpt lat="47.09381" lon="16.09151">
        <ele>288.386229</ele>
        <time>2026-07-08T12:48:30.000Z</time>
      </trkpt>
      <trkpt lat="47.09385" lon="16.09156">
        <ele>288.408052</ele>
        <time>2026-07-08T12:48:31.000Z</time>
      </trkpt>
      <trkpt lat="47.09389" lon="16.09161">
        <ele>288.429681</ele>
        <time>2026-07-08T12:48:32.000Z</time>
      </trkpt>
      <trkpt lat="47.09393" lon="16.09166">
        <ele>288.452022</ele>
        <time>2026-07-08T12:48:33.000Z</time>
      </trkpt>
      <trkpt lat="47.09396" lon="16.0917">
        <ele>288.473005</ele>
        <time>2026-07-08T12:48:34.000Z</time>
      </trkpt>
      <trkpt lat="47.094" lon="16.09175">
        <ele>288.494776</ele>
        <time>2026-07-08T12:48:35.000Z</time>
      </trkpt>
      <trkpt lat="47.09404" lon="16.0918">
        <ele>288.516406</ele>
        <time>2026-07-08T12:48:36.000Z</time>
      </trkpt>
      <trkpt lat="47.09408" lon="16.09185">
        <ele>288.537906</ele>
        <time>2026-07-08T12:48:37.000Z</time>
      </trkpt>
      <trkpt lat="47.09411" lon="16.0919">
        <ele>288.558889</ele>
        <time>2026-07-08T12:48:38.000Z</time>
      </trkpt>
      <trkpt lat="47.09415" lon="16.09195">
        <ele>288.579959</ele>
        <time>2026-07-08T12:48:39.000Z</time>
      </trkpt>
      <trkpt lat="47.09418" lon="16.092">
        <ele>288.597316</ele>
        <time>2026-07-08T12:48:40.000Z</time>
      </trkpt>
      <trkpt lat="47.09421" lon="16.09205">
        <ele>288.610365</ele>
        <time>2026-07-08T12:48:41.000Z</time>
      </trkpt>
      <trkpt lat="47.09424" lon="16.09211">
        <ele>288.623525</ele>
        <time>2026-07-08T12:48:42.000Z</time>
      </trkpt>
      <trkpt lat="47.09427" lon="16.09216">
        <ele>288.636686</ele>
        <time>2026-07-08T12:48:43.000Z</time>
      </trkpt>
      <trkpt lat="47.0943" lon="16.09222">
        <ele>288.649846</ele>
        <time>2026-07-08T12:48:44.000Z</time>
      </trkpt>
      <trkpt lat="47.09433" lon="16.09227">
        <ele>288.663006</ele>
        <time>2026-07-08T12:48:45.000Z</time>
      </trkpt>
      <trkpt lat="47.09436" lon="16.09233">
        <ele>288.676294</ele>
        <time>2026-07-08T12:48:46.000Z</time>
      </trkpt>
      <trkpt lat="47.09439" lon="16.09239">
        <ele>288.68959</ele>
        <time>2026-07-08T12:48:47.000Z</time>
      </trkpt>
      <trkpt lat="47.09441" lon="16.09245">
        <ele>288.702402</ele>
        <time>2026-07-08T12:48:48.000Z</time>
      </trkpt>
      <trkpt lat="47.09442" lon="16.09251">
        <ele>288.714958</ele>
        <time>2026-07-08T12:48:49.000Z</time>
      </trkpt>
      <trkpt lat="47.09444" lon="16.09257">
        <ele>288.726636</ele>
        <time>2026-07-08T12:48:50.000Z</time>
      </trkpt>
      <trkpt lat="47.09445" lon="16.09263">
        <ele>288.738394</ele>
        <time>2026-07-08T12:48:51.000Z</time>
      </trkpt>
      <trkpt lat="47.09446" lon="16.09269">
        <ele>288.749892</ele>
        <time>2026-07-08T12:48:52.000Z</time>
      </trkpt>
      <trkpt lat="47.09447" lon="16.09275">
        <ele>288.760941</ele>
        <time>2026-07-08T12:48:53.000Z</time>
      </trkpt>
      <trkpt lat="47.09449" lon="16.09281">
        <ele>288.772619</ele>
        <time>2026-07-08T12:48:54.000Z</time>
      </trkpt>
      <trkpt lat="47.09449" lon="16.09287">
        <ele>288.784277</ele>
        <time>2026-07-08T12:48:55.000Z</time>
      </trkpt>
      <trkpt lat="47.0945" lon="16.09293">
        <ele>288.796061</ele>
        <time>2026-07-08T12:48:56.000Z</time>
      </trkpt>
      <trkpt lat="47.0945" lon="16.093">
        <ele>288.807877</ele>
        <time>2026-07-08T12:48:57.000Z</time>
      </trkpt>
      <trkpt lat="47.09451" lon="16.09306">
        <ele>288.820042</ele>
        <time>2026-07-08T12:48:58.000Z</time>
      </trkpt>
      <trkpt lat="47.09451" lon="16.09313">
        <ele>288.832566</ele>
        <time>2026-07-08T12:48:59.000Z</time>
      </trkpt>
      <trkpt lat="47.09451" lon="16.0932">
        <ele>288.845827</ele>
        <time>2026-07-08T12:49:00.000Z</time>
      </trkpt>
      <trkpt lat="47.09451" lon="16.09327">
        <ele>288.859648</ele>
        <time>2026-07-08T12:49:01.000Z</time>
      </trkpt>
      <trkpt lat="47.0945" lon="16.09335">
        <ele>288.873969</ele>
        <time>2026-07-08T12:49:02.000Z</time>
      </trkpt>
      <trkpt lat="47.09449" lon="16.09343">
        <ele>288.889084</ele>
        <time>2026-07-08T12:49:03.000Z</time>
      </trkpt>
      <trkpt lat="47.09447" lon="16.09351">
        <ele>288.904579</ele>
        <time>2026-07-08T12:49:04.000Z</time>
      </trkpt>
      <trkpt lat="47.09445" lon="16.09359">
        <ele>288.920144</ele>
        <time>2026-07-08T12:49:05.000Z</time>
      </trkpt>
      <trkpt lat="47.09443" lon="16.09366">
        <ele>288.935807</ele>
        <time>2026-07-08T12:49:06.000Z</time>
      </trkpt>
      <trkpt lat="47.09441" lon="16.09374">
        <ele>288.951961</ele>
        <time>2026-07-08T12:49:07.000Z</time>
      </trkpt>
      <trkpt lat="47.09438" lon="16.09382">
        <ele>288.967844</ele>
        <time>2026-07-08T12:49:08.000Z</time>
      </trkpt>
      <trkpt lat="47.09436" lon="16.0939">
        <ele>288.984018</ele>
        <time>2026-07-08T12:49:09.000Z</time>
      </trkpt>
      <trkpt lat="47.09433" lon="16.09397">
        <ele>289.000117</ele>
        <time>2026-07-08T12:49:10.000Z</time>
      </trkpt>
      <trkpt lat="47.0943" lon="16.09405">
        <ele>289.016624</ele>
        <time>2026-07-08T12:49:11.000Z</time>
      </trkpt>
      <trkpt lat="47.09428" lon="16.09413">
        <ele>289.032842</ele>
        <time>2026-07-08T12:49:12.000Z</time>
      </trkpt>
      <trkpt lat="47.09425" lon="16.09421">
        <ele>289.048941</ele>
        <time>2026-07-08T12:49:13.000Z</time>
      </trkpt>
      <trkpt lat="47.09423" lon="16.09429">
        <ele>289.065379</ele>
        <time>2026-07-08T12:49:14.000Z</time>
      </trkpt>
      <trkpt lat="47.0942" lon="16.09437">
        <ele>289.081533</ele>
        <time>2026-07-08T12:49:15.000Z</time>
      </trkpt>
      <trkpt lat="47.09418" lon="16.09445">
        <ele>289.052453</ele>
        <time>2026-07-08T12:49:16.000Z</time>
      </trkpt>
      <trkpt lat="47.09417" lon="16.09453">
        <ele>289.015506</ele>
        <time>2026-07-08T12:49:17.000Z</time>
      </trkpt>
      <trkpt lat="47.09415" lon="16.09461">
        <ele>288.977464</ele>
        <time>2026-07-08T12:49:18.000Z</time>
      </trkpt>
      <trkpt lat="47.09414" lon="16.0947">
        <ele>288.940539</ele>
        <time>2026-07-08T12:49:19.000Z</time>
      </trkpt>
      <trkpt lat="47.09413" lon="16.09478">
        <ele>288.902856</ele>
        <time>2026-07-08T12:49:20.000Z</time>
      </trkpt>
      <trkpt lat="47.09413" lon="16.09486">
        <ele>288.866445</ele>
        <time>2026-07-08T12:49:21.000Z</time>
      </trkpt>
      <trkpt lat="47.09413" lon="16.09495">
        <ele>288.830471</ele>
        <time>2026-07-08T12:49:22.000Z</time>
      </trkpt>
      <trkpt lat="47.09413" lon="16.09503">
        <ele>288.793213</ele>
        <time>2026-07-08T12:49:23.000Z</time>
      </trkpt>
      <trkpt lat="47.09413" lon="16.09512">
        <ele>288.755955</ele>
        <time>2026-07-08T12:49:24.000Z</time>
      </trkpt>
      <trkpt lat="47.09413" lon="16.0952">
        <ele>288.71852</ele>
        <time>2026-07-08T12:49:25.000Z</time>
      </trkpt>
      <trkpt lat="47.09414" lon="16.09529">
        <ele>288.680732</ele>
        <time>2026-07-08T12:49:26.000Z</time>
      </trkpt>
      <trkpt lat="47.09416" lon="16.09537">
        <ele>288.64399</ele>
        <time>2026-07-08T12:49:27.000Z</time>
      </trkpt>
      <trkpt lat="47.09417" lon="16.09545">
        <ele>288.607676</ele>
        <time>2026-07-08T12:49:28.000Z</time>
      </trkpt>
      <trkpt lat="47.09418" lon="16.09553">
        <ele>288.571064</ele>
        <time>2026-07-08T12:49:29.000Z</time>
      </trkpt>
      <trkpt lat="47.09419" lon="16.09561">
        <ele>288.534571</ele>
        <time>2026-07-08T12:49:30.000Z</time>
      </trkpt>
      <trkpt lat="47.0942" lon="16.09569">
        <ele>288.498257</ele>
        <time>2026-07-08T12:49:31.000Z</time>
      </trkpt>
      <trkpt lat="47.09421" lon="16.09578">
        <ele>288.461515</ele>
        <time>2026-07-08T12:49:32.000Z</time>
      </trkpt>
      <trkpt lat="47.09423" lon="16.09586">
        <ele>288.424632</ele>
        <time>2026-07-08T12:49:33.000Z</time>
      </trkpt>
      <trkpt lat="47.09424" lon="16.09594">
        <ele>288.388176</ele>
        <time>2026-07-08T12:49:34.000Z</time>
      </trkpt>
      <trkpt lat="47.09425" lon="16.09602">
        <ele>288.350292</ele>
        <time>2026-07-08T12:49:35.000Z</time>
      </trkpt>
      <trkpt lat="47.09426" lon="16.09611">
        <ele>288.31325</ele>
        <time>2026-07-08T12:49:36.000Z</time>
      </trkpt>
      <trkpt lat="47.09427" lon="16.09619">
        <ele>288.276325</ele>
        <time>2026-07-08T12:49:37.000Z</time>
      </trkpt>
      <trkpt lat="47.09428" lon="16.09627">
        <ele>288.239253</ele>
        <time>2026-07-08T12:49:38.000Z</time>
      </trkpt>
      <trkpt lat="47.09429" lon="16.09636">
        <ele>288.201746</ele>
        <time>2026-07-08T12:49:39.000Z</time>
      </trkpt>
      <trkpt lat="47.09429" lon="16.09644">
        <ele>288.166117</ele>
        <time>2026-07-08T12:49:40.000Z</time>
      </trkpt>
      <trkpt lat="47.0943" lon="16.09652">
        <ele>288.130144</ele>
        <time>2026-07-08T12:49:41.000Z</time>
      </trkpt>
      <trkpt lat="47.0943" lon="16.0966">
        <ele>288.094078</ele>
        <time>2026-07-08T12:49:42.000Z</time>
      </trkpt>
      <trkpt lat="47.0943" lon="16.09668">
        <ele>288.05898</ele>
        <time>2026-07-08T12:49:43.000Z</time>
      </trkpt>
      <trkpt lat="47.09431" lon="16.09676">
        <ele>288.023911</ele>
        <time>2026-07-08T12:49:44.000Z</time>
      </trkpt>
      <trkpt lat="47.0943" lon="16.09684">
        <ele>287.988842</ele>
        <time>2026-07-08T12:49:45.000Z</time>
      </trkpt>
      <trkpt lat="47.0943" lon="16.09692">
        <ele>287.953649</ele>
        <time>2026-07-08T12:49:46.000Z</time>
      </trkpt>
      <trkpt lat="47.0943" lon="16.097">
        <ele>287.923632</ele>
        <time>2026-07-08T12:49:47.000Z</time>
      </trkpt>
      <trkpt lat="47.09429" lon="16.09709">
        <ele>287.910949</ele>
        <time>2026-07-08T12:49:48.000Z</time>
      </trkpt>
      <trkpt lat="47.09429" lon="16.09717">
        <ele>287.898252</ele>
        <time>2026-07-08T12:49:49.000Z</time>
      </trkpt>
      <trkpt lat="47.09429" lon="16.09725">
        <ele>287.885723</ele>
        <time>2026-07-08T12:49:50.000Z</time>
      </trkpt>
      <trkpt lat="47.09428" lon="16.09733">
        <ele>287.872958</ele>
        <time>2026-07-08T12:49:51.000Z</time>
      </trkpt>
      <trkpt lat="47.09427" lon="16.09741">
        <ele>287.860164</ele>
        <time>2026-07-08T12:49:52.000Z</time>
      </trkpt>
      <trkpt lat="47.09426" lon="16.09749">
        <ele>287.847512</ele>
        <time>2026-07-08T12:49:53.000Z</time>
      </trkpt>
      <trkpt lat="47.09424" lon="16.09757">
        <ele>287.83493</ele>
        <time>2026-07-08T12:49:54.000Z</time>
      </trkpt>
      <trkpt lat="47.09422" lon="16.09765">
        <ele>287.822056</ele>
        <time>2026-07-08T12:49:55.000Z</time>
      </trkpt>
      <trkpt lat="47.0942" lon="16.09773">
        <ele>287.809039</ele>
        <time>2026-07-08T12:49:56.000Z</time>
      </trkpt>
      <trkpt lat="47.09418" lon="16.0978">
        <ele>287.796283</ele>
        <time>2026-07-08T12:49:57.000Z</time>
      </trkpt>
      <trkpt lat="47.09416" lon="16.09788">
        <ele>287.783579</ele>
        <time>2026-07-08T12:49:58.000Z</time>
      </trkpt>
      <trkpt lat="47.09413" lon="16.09795">
        <ele>287.770681</ele>
        <time>2026-07-08T12:49:59.000Z</time>
      </trkpt>
      <trkpt lat="47.09411" lon="16.09803">
        <ele>287.757783</ele>
        <time>2026-07-08T12:50:00.000Z</time>
      </trkpt>
      <trkpt lat="47.09408" lon="16.09811">
        <ele>287.744607</ele>
        <time>2026-07-08T12:50:01.000Z</time>
      </trkpt>
      <trkpt lat="47.09406" lon="16.09818">
        <ele>287.731431</ele>
        <time>2026-07-08T12:50:02.000Z</time>
      </trkpt>
      <trkpt lat="47.09403" lon="16.09826">
        <ele>287.718328</ele>
        <time>2026-07-08T12:50:03.000Z</time>
      </trkpt>
      <trkpt lat="47.09401" lon="16.09833">
        <ele>287.705291</ele>
        <time>2026-07-08T12:50:04.000Z</time>
      </trkpt>
      <trkpt lat="47.09398" lon="16.09841">
        <ele>287.692115</ele>
        <time>2026-07-08T12:50:05.000Z</time>
      </trkpt>
      <trkpt lat="47.09395" lon="16.09849">
        <ele>287.678737</ele>
        <time>2026-07-08T12:50:06.000Z</time>
      </trkpt>
      <trkpt lat="47.09393" lon="16.09857">
        <ele>287.665422</ele>
        <time>2026-07-08T12:50:07.000Z</time>
      </trkpt>
      <trkpt lat="47.0939" lon="16.09864">
        <ele>287.652008</ele>
        <time>2026-07-08T12:50:08.000Z</time>
      </trkpt>
      <trkpt lat="47.09388" lon="16.09872">
        <ele>287.638413</ele>
        <time>2026-07-08T12:50:09.000Z</time>
      </trkpt>
      <trkpt lat="47.09385" lon="16.0988">
        <ele>287.62455</ele>
        <time>2026-07-08T12:50:10.000Z</time>
      </trkpt>
      <trkpt lat="47.09382" lon="16.09888">
        <ele>287.611136</ele>
        <time>2026-07-08T12:50:11.000Z</time>
      </trkpt>
      <trkpt lat="47.0938" lon="16.09896">
        <ele>287.597759</ele>
        <time>2026-07-08T12:50:12.000Z</time>
      </trkpt>
      <trkpt lat="47.09377" lon="16.09903">
        <ele>287.584518</ele>
        <time>2026-07-08T12:50:13.000Z</time>
      </trkpt>
      <trkpt lat="47.09374" lon="16.09911">
        <ele>287.570966</ele>
        <time>2026-07-08T12:50:14.000Z</time>
      </trkpt>
      <trkpt lat="47.09372" lon="16.09919">
        <ele>287.557451</ele>
        <time>2026-07-08T12:50:15.000Z</time>
      </trkpt>
      <trkpt lat="47.09369" lon="16.09927">
        <ele>287.544135</ele>
        <time>2026-07-08T12:50:16.000Z</time>
      </trkpt>
      <trkpt lat="47.09367" lon="16.09935">
        <ele>287.530539</ele>
        <time>2026-07-08T12:50:17.000Z</time>
      </trkpt>
      <trkpt lat="47.09364" lon="16.09943">
        <ele>287.520127</ele>
        <time>2026-07-08T12:50:18.000Z</time>
      </trkpt>
      <trkpt lat="47.09361" lon="16.09951">
        <ele>287.534038</ele>
        <time>2026-07-08T12:50:19.000Z</time>
      </trkpt>
      <trkpt lat="47.09359" lon="16.09958">
        <ele>287.547745</ele>
        <time>2026-07-08T12:50:20.000Z</time>
      </trkpt>
      <trkpt lat="47.09356" lon="16.09966">
        <ele>287.561695</ele>
        <time>2026-07-08T12:50:21.000Z</time>
      </trkpt>
      <trkpt lat="47.09354" lon="16.09974">
        <ele>287.575324</ele>
        <time>2026-07-08T12:50:22.000Z</time>
      </trkpt>
      <trkpt lat="47.09351" lon="16.09982">
        <ele>287.589095</ele>
        <time>2026-07-08T12:50:23.000Z</time>
      </trkpt>
      <trkpt lat="47.09348" lon="16.09989">
        <ele>287.602475</ele>
        <time>2026-07-08T12:50:24.000Z</time>
      </trkpt>
      <trkpt lat="47.09346" lon="16.09997">
        <ele>287.616246</ele>
        <time>2026-07-08T12:50:25.000Z</time>
      </trkpt>
      <trkpt lat="47.09343" lon="16.10005">
        <ele>287.630158</ele>
        <time>2026-07-08T12:50:26.000Z</time>
      </trkpt>
      <trkpt lat="47.0934" lon="16.10013">
        <ele>287.644152</ele>
        <time>2026-07-08T12:50:27.000Z</time>
      </trkpt>
      <trkpt lat="47.09338" lon="16.1002">
        <ele>287.657666</ele>
        <time>2026-07-08T12:50:28.000Z</time>
      </trkpt>
      <trkpt lat="47.09335" lon="16.10028">
        <ele>287.67172</ele>
        <time>2026-07-08T12:50:29.000Z</time>
      </trkpt>
      <trkpt lat="47.09333" lon="16.10036">
        <ele>287.685528</ele>
        <time>2026-07-08T12:50:30.000Z</time>
      </trkpt>
      <trkpt lat="47.0933" lon="16.10044">
        <ele>287.699234</ele>
        <time>2026-07-08T12:50:31.000Z</time>
      </trkpt>
      <trkpt lat="47.09328" lon="16.10052">
        <ele>287.713085</ele>
        <time>2026-07-08T12:50:32.000Z</time>
      </trkpt>
      <trkpt lat="47.09325" lon="16.1006">
        <ele>287.727281</ele>
        <time>2026-07-08T12:50:33.000Z</time>
      </trkpt>
      <trkpt lat="47.09322" lon="16.10068">
        <ele>287.741192</ele>
        <time>2026-07-08T12:50:34.000Z</time>
      </trkpt>
      <trkpt lat="47.0932" lon="16.10075">
        <ele>287.755</ele>
        <time>2026-07-08T12:50:35.000Z</time>
      </trkpt>
      <trkpt lat="47.09317" lon="16.10083">
        <ele>287.769054</ele>
        <time>2026-07-08T12:50:36.000Z</time>
      </trkpt>
      <trkpt lat="47.09314" lon="16.10091">
        <ele>287.78325</ele>
        <time>2026-07-08T12:50:37.000Z</time>
      </trkpt>
      <trkpt lat="47.09312" lon="16.10099">
        <ele>287.797057</ele>
        <time>2026-07-08T12:50:38.000Z</time>
      </trkpt>
      <trkpt lat="47.09309" lon="16.10107">
        <ele>287.810764</ele>
        <time>2026-07-08T12:50:39.000Z</time>
      </trkpt>
      <trkpt lat="47.09306" lon="16.10115">
        <ele>287.825033</ele>
        <time>2026-07-08T12:50:40.000Z</time>
      </trkpt>
      <trkpt lat="47.09304" lon="16.10123">
        <ele>287.839271</ele>
        <time>2026-07-08T12:50:41.000Z</time>
      </trkpt>
      <trkpt lat="47.09301" lon="16.10131">
        <ele>287.853681</ele>
        <time>2026-07-08T12:50:42.000Z</time>
      </trkpt>
      <trkpt lat="47.09298" lon="16.10139">
        <ele>287.867631</ele>
        <time>2026-07-08T12:50:43.000Z</time>
      </trkpt>
      <trkpt lat="47.09296" lon="16.10147">
        <ele>287.881626</ele>
        <time>2026-07-08T12:50:44.000Z</time>
      </trkpt>
      <trkpt lat="47.09293" lon="16.10155">
        <ele>287.895538</ele>
        <time>2026-07-08T12:50:45.000Z</time>
      </trkpt>
      <trkpt lat="47.0929" lon="16.10162">
        <ele>287.90945</ele>
        <time>2026-07-08T12:50:46.000Z</time>
      </trkpt>
      <trkpt lat="47.09288" lon="16.1017">
        <ele>287.9233</ele>
        <time>2026-07-08T12:50:47.000Z</time>
      </trkpt>
      <trkpt lat="47.09285" lon="16.10178">
        <ele>287.93672</ele>
        <time>2026-07-08T12:50:48.000Z</time>
      </trkpt>
      <trkpt lat="47.09283" lon="16.10186">
        <ele>287.958131</ele>
        <time>2026-07-08T12:50:49.000Z</time>
      </trkpt>
      <trkpt lat="47.0928" lon="16.10193">
        <ele>287.980511</ele>
        <time>2026-07-08T12:50:50.000Z</time>
      </trkpt>
      <trkpt lat="47.09278" lon="16.10201">
        <ele>288.003196</ele>
        <time>2026-07-08T12:50:51.000Z</time>
      </trkpt>
      <trkpt lat="47.09275" lon="16.10208">
        <ele>288.025402</ele>
        <time>2026-07-08T12:50:52.000Z</time>
      </trkpt>
      <trkpt lat="47.09272" lon="16.10216">
        <ele>288.048338</ele>
        <time>2026-07-08T12:50:53.000Z</time>
      </trkpt>
      <trkpt lat="47.0927" lon="16.10223">
        <ele>288.070544</ele>
        <time>2026-07-08T12:50:54.000Z</time>
      </trkpt>
      <trkpt lat="47.09267" lon="16.10231">
        <ele>288.093638</ele>
        <time>2026-07-08T12:50:55.000Z</time>
      </trkpt>
      <trkpt lat="47.09265" lon="16.10239">
        <ele>288.116198</ele>
        <time>2026-07-08T12:50:56.000Z</time>
      </trkpt>
      <trkpt lat="47.09262" lon="16.10246">
        <ele>288.139123</ele>
        <time>2026-07-08T12:50:57.000Z</time>
      </trkpt>
      <trkpt lat="47.0926" lon="16.10254">
        <ele>288.161808</ele>
        <time>2026-07-08T12:50:58.000Z</time>
      </trkpt>
      <trkpt lat="47.09257" lon="16.10262">
        <ele>288.184733</ele>
        <time>2026-07-08T12:50:59.000Z</time>
      </trkpt>
      <trkpt lat="47.09255" lon="16.1027">
        <ele>288.207418</ele>
        <time>2026-07-08T12:51:00.000Z</time>
      </trkpt>
      <trkpt lat="47.09252" lon="16.10277">
        <ele>288.230344</ele>
        <time>2026-07-08T12:51:01.000Z</time>
      </trkpt>
      <trkpt lat="47.0925" lon="16.10285">
        <ele>288.253028</ele>
        <time>2026-07-08T12:51:02.000Z</time>
      </trkpt>
      <trkpt lat="47.09247" lon="16.10293">
        <ele>288.27606</ele>
        <time>2026-07-08T12:51:03.000Z</time>
      </trkpt>
      <trkpt lat="47.09244" lon="16.103">
        <ele>288.298678</ele>
        <time>2026-07-08T12:51:04.000Z</time>
      </trkpt>
      <trkpt lat="47.09242" lon="16.10308">
        <ele>288.321844</ele>
        <time>2026-07-08T12:51:05.000Z</time>
      </trkpt>
      <trkpt lat="47.09239" lon="16.10316">
        <ele>288.34464</ele>
        <time>2026-07-08T12:51:06.000Z</time>
      </trkpt>
      <trkpt lat="47.09236" lon="16.10324">
        <ele>288.368146</ele>
        <time>2026-07-08T12:51:07.000Z</time>
      </trkpt>
      <trkpt lat="47.09234" lon="16.10331">
        <ele>288.390764</ele>
        <time>2026-07-08T12:51:08.000Z</time>
      </trkpt>
      <trkpt lat="47.09231" lon="16.10339">
        <ele>288.414631</ele>
        <time>2026-07-08T12:51:09.000Z</time>
      </trkpt>
      <trkpt lat="47.09228" lon="16.10347">
        <ele>288.437725</ele>
        <time>2026-07-08T12:51:10.000Z</time>
      </trkpt>
      <trkpt lat="47.09226" lon="16.10355">
        <ele>288.460651</ele>
        <time>2026-07-08T12:51:11.000Z</time>
      </trkpt>
      <trkpt lat="47.09223" lon="16.10363">
        <ele>288.484395</ele>
        <time>2026-07-08T12:51:12.000Z</time>
      </trkpt>
      <trkpt lat="47.0922" lon="16.10371">
        <ele>288.507901</ele>
        <time>2026-07-08T12:51:13.000Z</time>
      </trkpt>
      <trkpt lat="47.09218" lon="16.10379">
        <ele>288.530826</ele>
        <time>2026-07-08T12:51:14.000Z</time>
      </trkpt>
      <trkpt lat="47.09215" lon="16.10386">
        <ele>288.553682</ele>
        <time>2026-07-08T12:51:15.000Z</time>
      </trkpt>
      <trkpt lat="47.09213" lon="16.10394">
        <ele>288.576127</ele>
        <time>2026-07-08T12:51:16.000Z</time>
      </trkpt>
      <trkpt lat="47.0921" lon="16.10402">
        <ele>288.599159</ele>
        <time>2026-07-08T12:51:17.000Z</time>
      </trkpt>
      <trkpt lat="47.09208" lon="16.10409">
        <ele>288.621844</ele>
        <time>2026-07-08T12:51:18.000Z</time>
      </trkpt>
      <trkpt lat="47.09205" lon="16.10417">
        <ele>288.643523</ele>
        <time>2026-07-08T12:51:19.000Z</time>
      </trkpt>
      <trkpt lat="47.09202" lon="16.10424">
        <ele>288.665107</ele>
        <time>2026-07-08T12:51:20.000Z</time>
      </trkpt>
      <trkpt lat="47.09199" lon="16.1043">
        <ele>288.686198</ele>
        <time>2026-07-08T12:51:21.000Z</time>
      </trkpt>
      <trkpt lat="47.09196" lon="16.10437">
        <ele>288.707078</ele>
        <time>2026-07-08T12:51:22.000Z</time>
      </trkpt>
      <trkpt lat="47.09192" lon="16.10443">
        <ele>288.727448</ele>
        <time>2026-07-08T12:51:23.000Z</time>
      </trkpt>
      <trkpt lat="47.09189" lon="16.10448">
        <ele>288.747045</ele>
        <time>2026-07-08T12:51:24.000Z</time>
      </trkpt>
      <trkpt lat="47.09185" lon="16.10453">
        <ele>288.766168</ele>
        <time>2026-07-08T12:51:25.000Z</time>
      </trkpt>
      <trkpt lat="47.09182" lon="16.10458">
        <ele>288.785216</ele>
        <time>2026-07-08T12:51:26.000Z</time>
      </trkpt>
      <trkpt lat="47.09178" lon="16.10463">
        <ele>288.803879</ele>
        <time>2026-07-08T12:51:27.000Z</time>
      </trkpt>
      <trkpt lat="47.09174" lon="16.10467">
        <ele>288.820996</ele>
        <time>2026-07-08T12:51:28.000Z</time>
      </trkpt>
      <trkpt lat="47.09171" lon="16.10471">
        <ele>288.836487</ele>
        <time>2026-07-08T12:51:29.000Z</time>
      </trkpt>
      <trkpt lat="47.09169" lon="16.10475">
        <ele>288.851523</ele>
        <time>2026-07-08T12:51:30.000Z</time>
      </trkpt>
      <trkpt lat="47.09166" lon="16.10479">
        <ele>288.867015</ele>
        <time>2026-07-08T12:51:31.000Z</time>
      </trkpt>
      <trkpt lat="47.09162" lon="16.10483">
        <ele>288.883047</ele>
        <time>2026-07-08T12:51:32.000Z</time>
      </trkpt>
      <trkpt lat="47.09158" lon="16.10486">
        <ele>288.900462</ele>
        <time>2026-07-08T12:51:33.000Z</time>
      </trkpt>
      <trkpt lat="47.09154" lon="16.10488">
        <ele>288.918969</ele>
        <time>2026-07-08T12:51:34.000Z</time>
      </trkpt>
      <trkpt lat="47.09149" lon="16.10488">
        <ele>288.937321</ele>
        <time>2026-07-08T12:51:35.000Z</time>
      </trkpt>
      <trkpt lat="47.09144" lon="16.10487">
        <ele>288.95734</ele>
        <time>2026-07-08T12:51:36.000Z</time>
      </trkpt>
      <trkpt lat="47.09138" lon="16.10487">
        <ele>288.977222</ele>
        <time>2026-07-08T12:51:37.000Z</time>
      </trkpt>
      <trkpt lat="47.09133" lon="16.10487">
        <ele>288.997513</ele>
        <time>2026-07-08T12:51:38.000Z</time>
      </trkpt>
      <trkpt lat="47.09128" lon="16.10488">
        <ele>289.017837</ele>
        <time>2026-07-08T12:51:39.000Z</time>
      </trkpt>
      <trkpt lat="47.09123" lon="16.10489">
        <ele>289.037888</ele>
        <time>2026-07-08T12:51:40.000Z</time>
      </trkpt>
      <trkpt lat="47.09117" lon="16.1049">
        <ele>289.058477</ele>
        <time>2026-07-08T12:51:41.000Z</time>
      </trkpt>
      <trkpt lat="47.09112" lon="16.10492">
        <ele>289.07879</ele>
        <time>2026-07-08T12:51:42.000Z</time>
      </trkpt>
      <trkpt lat="47.09107" lon="16.10494">
        <ele>289.098604</ele>
        <time>2026-07-08T12:51:43.000Z</time>
      </trkpt>
      <trkpt lat="47.09102" lon="16.10496">
        <ele>289.11856</ele>
        <time>2026-07-08T12:51:44.000Z</time>
      </trkpt>
      <trkpt lat="47.09097" lon="16.10499">
        <ele>289.137855</ele>
        <time>2026-07-08T12:51:45.000Z</time>
      </trkpt>
      <trkpt lat="47.09093" lon="16.10501">
        <ele>289.155635</ele>
        <time>2026-07-08T12:51:46.000Z</time>
      </trkpt>
      <trkpt lat="47.09089" lon="16.10503">
        <ele>289.172474</ele>
        <time>2026-07-08T12:51:47.000Z</time>
      </trkpt>
      <trkpt lat="47.09085" lon="16.10501">
        <ele>289.188941</ele>
        <time>2026-07-08T12:51:48.000Z</time>
      </trkpt>
      <trkpt lat="47.09081" lon="16.10498">
        <ele>289.205278</ele>
        <time>2026-07-08T12:51:49.000Z</time>
      </trkpt>
      <trkpt lat="47.09079" lon="16.10492">
        <ele>289.222492</ele>
        <time>2026-07-08T12:51:50.000Z</time>
      </trkpt>
      <trkpt lat="47.09077" lon="16.10486">
        <ele>289.239891</ele>
        <time>2026-07-08T12:51:51.000Z</time>
      </trkpt>
      <trkpt lat="47.09075" lon="16.1048">
        <ele>289.257757</ele>
        <time>2026-07-08T12:51:52.000Z</time>
      </trkpt>
      <trkpt lat="47.09074" lon="16.10473">
        <ele>289.277235</ele>
        <time>2026-07-08T12:51:53.000Z</time>
      </trkpt>
      <trkpt lat="47.09071" lon="16.10466">
        <ele>289.297305</ele>
        <time>2026-07-08T12:51:54.000Z</time>
      </trkpt>
      <trkpt lat="47.09069" lon="16.10459">
        <ele>289.317991</ele>
        <time>2026-07-08T12:51:55.000Z</time>
      </trkpt>
      <trkpt lat="47.09066" lon="16.10452">
        <ele>289.311021</ele>
        <time>2026-07-08T12:51:56.000Z</time>
      </trkpt>
      <trkpt lat="47.09063" lon="16.10444">
        <ele>289.274094</ele>
        <time>2026-07-08T12:51:57.000Z</time>
      </trkpt>
      <trkpt lat="47.09061" lon="16.10437">
        <ele>289.237143</ele>
        <time>2026-07-08T12:51:58.000Z</time>
      </trkpt>
      <trkpt lat="47.09059" lon="16.10429">
        <ele>289.199171</ele>
        <time>2026-07-08T12:51:59.000Z</time>
      </trkpt>
      <trkpt lat="47.09057" lon="16.10421">
        <ele>289.161135</ele>
        <time>2026-07-08T12:52:00.000Z</time>
      </trkpt>
      <trkpt lat="47.09055" lon="16.10413">
        <ele>289.121181</ele>
        <time>2026-07-08T12:52:01.000Z</time>
      </trkpt>
      <trkpt lat="47.09053" lon="16.10405">
        <ele>289.081892</ele>
        <time>2026-07-08T12:52:02.000Z</time>
      </trkpt>
      <trkpt lat="47.0905" lon="16.10396">
        <ele>289.041103</ele>
        <time>2026-07-08T12:52:03.000Z</time>
      </trkpt>
      <trkpt lat="47.09048" lon="16.10388">
        <ele>289.000215</ele>
        <time>2026-07-08T12:52:04.000Z</time>
      </trkpt>
      <trkpt lat="47.09045" lon="16.1038">
        <ele>288.959738</ele>
        <time>2026-07-08T12:52:05.000Z</time>
      </trkpt>
      <trkpt lat="47.09043" lon="16.10371">
        <ele>288.918023</ele>
        <time>2026-07-08T12:52:06.000Z</time>
      </trkpt>
      <trkpt lat="47.0904" lon="16.10363">
        <ele>288.878226</ele>
        <time>2026-07-08T12:52:07.000Z</time>
      </trkpt>
      <trkpt lat="47.09038" lon="16.10355">
        <ele>288.837437</ele>
        <time>2026-07-08T12:52:08.000Z</time>
      </trkpt>
      <trkpt lat="47.09036" lon="16.10347">
        <ele>288.796548</ele>
        <time>2026-07-08T12:52:09.000Z</time>
      </trkpt>
      <trkpt lat="47.09033" lon="16.10338">
        <ele>288.755512</ele>
        <time>2026-07-08T12:52:10.000Z</time>
      </trkpt>
      <trkpt lat="47.0903" lon="16.1033">
        <ele>288.712862</ele>
        <time>2026-07-08T12:52:11.000Z</time>
      </trkpt>
      <trkpt lat="47.09027" lon="16.10322">
        <ele>288.670527</ele>
        <time>2026-07-08T12:52:12.000Z</time>
      </trkpt>
      <trkpt lat="47.09024" lon="16.10314">
        <ele>288.628589</ele>
        <time>2026-07-08T12:52:13.000Z</time>
      </trkpt>
      <trkpt lat="47.09021" lon="16.10305">
        <ele>288.58696</ele>
        <time>2026-07-08T12:52:14.000Z</time>
      </trkpt>
      <trkpt lat="47.09018" lon="16.10297">
        <ele>288.546615</ele>
        <time>2026-07-08T12:52:15.000Z</time>
      </trkpt>
      <trkpt lat="47.09016" lon="16.10289">
        <ele>288.50558</ele>
        <time>2026-07-08T12:52:16.000Z</time>
      </trkpt>
      <trkpt lat="47.09013" lon="16.10281">
        <ele>288.465102</ele>
        <time>2026-07-08T12:52:17.000Z</time>
      </trkpt>
      <trkpt lat="47.0901" lon="16.10273">
        <ele>288.424876</ele>
        <time>2026-07-08T12:52:18.000Z</time>
      </trkpt>
      <trkpt lat="47.09008" lon="16.10265">
        <ele>288.38575</ele>
        <time>2026-07-08T12:52:19.000Z</time>
      </trkpt>
      <trkpt lat="47.09005" lon="16.10257">
        <ele>288.344918</ele>
        <time>2026-07-08T12:52:20.000Z</time>
      </trkpt>
      <trkpt lat="47.09002" lon="16.10249">
        <ele>288.304981</ele>
        <time>2026-07-08T12:52:21.000Z</time>
      </trkpt>
      <trkpt lat="47.09" lon="16.10241">
        <ele>288.266141</ele>
        <time>2026-07-08T12:52:22.000Z</time>
      </trkpt>
      <trkpt lat="47.08997" lon="16.10233">
        <ele>288.226893</ele>
        <time>2026-07-08T12:52:23.000Z</time>
      </trkpt>
      <trkpt lat="47.08995" lon="16.10226">
        <ele>288.188054</ele>
        <time>2026-07-08T12:52:24.000Z</time>
      </trkpt>
      <trkpt lat="47.08992" lon="16.10218">
        <ele>288.148632</ele>
        <time>2026-07-08T12:52:25.000Z</time>
      </trkpt>
      <trkpt lat="47.08989" lon="16.1021">
        <ele>288.117093</ele>
        <time>2026-07-08T12:52:26.000Z</time>
      </trkpt>
      <trkpt lat="47.08986" lon="16.10202">
        <ele>288.088269</ele>
        <time>2026-07-08T12:52:27.000Z</time>
      </trkpt>
      <trkpt lat="47.08984" lon="16.10194">
        <ele>288.0595</ele>
        <time>2026-07-08T12:52:28.000Z</time>
      </trkpt>
      <trkpt lat="47.08981" lon="16.10186">
        <ele>288.031103</ele>
        <time>2026-07-08T12:52:29.000Z</time>
      </trkpt>
      <trkpt lat="47.08978" lon="16.10178">
        <ele>288.002495</ele>
        <time>2026-07-08T12:52:30.000Z</time>
      </trkpt>
      <trkpt lat="47.08976" lon="16.10169">
        <ele>287.973526</ele>
        <time>2026-07-08T12:52:31.000Z</time>
      </trkpt>
      <trkpt lat="47.08973" lon="16.10161">
        <ele>287.945908</ele>
        <time>2026-07-08T12:52:32.000Z</time>
      </trkpt>
      <trkpt lat="47.08971" lon="16.10154">
        <ele>287.918079</ele>
        <time>2026-07-08T12:52:33.000Z</time>
      </trkpt>
      <trkpt lat="47.08968" lon="16.10146">
        <ele>287.890316</ele>
        <time>2026-07-08T12:52:34.000Z</time>
      </trkpt>
      <trkpt lat="47.08965" lon="16.10138">
        <ele>287.862051</ele>
        <time>2026-07-08T12:52:35.000Z</time>
      </trkpt>
      <trkpt lat="47.08962" lon="16.1013">
        <ele>287.834431</ele>
        <time>2026-07-08T12:52:36.000Z</time>
      </trkpt>
      <trkpt lat="47.0896" lon="16.10122">
        <ele>287.806033</ele>
        <time>2026-07-08T12:52:37.000Z</time>
      </trkpt>
      <trkpt lat="47.08957" lon="16.10115">
        <ele>287.77827</ele>
        <time>2026-07-08T12:52:38.000Z</time>
      </trkpt>
      <trkpt lat="47.08954" lon="16.10107">
        <ele>287.749223</ele>
        <time>2026-07-08T12:52:39.000Z</time>
      </trkpt>
      <trkpt lat="47.08951" lon="16.10098">
        <ele>287.720648</ele>
        <time>2026-07-08T12:52:40.000Z</time>
      </trkpt>
      <trkpt lat="47.08949" lon="16.1009">
        <ele>287.692251</ele>
        <time>2026-07-08T12:52:41.000Z</time>
      </trkpt>
      <trkpt lat="47.08946" lon="16.10082">
        <ele>287.663966</ele>
        <time>2026-07-08T12:52:42.000Z</time>
      </trkpt>
      <trkpt lat="47.08943" lon="16.10074">
        <ele>287.635569</ele>
        <time>2026-07-08T12:52:43.000Z</time>
      </trkpt>
      <trkpt lat="47.08941" lon="16.10066">
        <ele>287.6068</ele>
        <time>2026-07-08T12:52:44.000Z</time>
      </trkpt>
      <trkpt lat="47.08938" lon="16.10058">
        <ele>287.577412</ele>
        <time>2026-07-08T12:52:45.000Z</time>
      </trkpt>
      <trkpt lat="47.08935" lon="16.1005">
        <ele>287.548521</ele>
        <time>2026-07-08T12:52:46.000Z</time>
      </trkpt>
      <trkpt lat="47.08932" lon="16.10041">
        <ele>287.518776</ele>
        <time>2026-07-08T12:52:47.000Z</time>
      </trkpt>
      <trkpt lat="47.0893" lon="16.10033">
        <ele>287.48952</ele>
        <time>2026-07-08T12:52:48.000Z</time>
      </trkpt>
      <trkpt lat="47.08927" lon="16.10025">
        <ele>287.460912</ele>
        <time>2026-07-08T12:52:49.000Z</time>
      </trkpt>
      <trkpt lat="47.08924" lon="16.10017">
        <ele>287.432087</ele>
        <time>2026-07-08T12:52:50.000Z</time>
      </trkpt>
      <trkpt lat="47.08921" lon="16.10009">
        <ele>287.403318</ele>
        <time>2026-07-08T12:52:51.000Z</time>
      </trkpt>
      <trkpt lat="47.08918" lon="16.10001">
        <ele>287.374493</ele>
        <time>2026-07-08T12:52:52.000Z</time>
      </trkpt>
      <trkpt lat="47.08916" lon="16.09993">
        <ele>287.345602</ele>
        <time>2026-07-08T12:52:53.000Z</time>
      </trkpt>
      <trkpt lat="47.08913" lon="16.09985">
        <ele>287.317276</ele>
        <time>2026-07-08T12:52:54.000Z</time>
      </trkpt>
      <trkpt lat="47.0891" lon="16.09977">
        <ele>287.287682</ele>
        <time>2026-07-08T12:52:55.000Z</time>
      </trkpt>
      <trkpt lat="47.08907" lon="16.09969">
        <ele>287.255513</ele>
        <time>2026-07-08T12:52:56.000Z</time>
      </trkpt>
      <trkpt lat="47.08905" lon="16.09961">
        <ele>287.22326</ele>
        <time>2026-07-08T12:52:57.000Z</time>
      </trkpt>
      <trkpt lat="47.08902" lon="16.09953">
        <ele>287.191647</ele>
        <time>2026-07-08T12:52:58.000Z</time>
      </trkpt>
      <trkpt lat="47.08899" lon="16.09945">
        <ele>287.159477</ele>
        <time>2026-07-08T12:52:59.000Z</time>
      </trkpt>
      <trkpt lat="47.08896" lon="16.09937">
        <ele>287.126814</ele>
        <time>2026-07-08T12:53:00.000Z</time>
      </trkpt>
      <trkpt lat="47.08893" lon="16.09929">
        <ele>287.094326</ele>
        <time>2026-07-08T12:53:01.000Z</time>
      </trkpt>
      <trkpt lat="47.0889" lon="16.09921">
        <ele>287.06128</ele>
        <time>2026-07-08T12:53:02.000Z</time>
      </trkpt>
      <trkpt lat="47.08887" lon="16.09912">
        <ele>287.027989</ele>
        <time>2026-07-08T12:53:03.000Z</time>
      </trkpt>
      <trkpt lat="47.08885" lon="16.09904">
        <ele>286.995501</ele>
        <time>2026-07-08T12:53:04.000Z</time>
      </trkpt>
      <trkpt lat="47.08882" lon="16.09896">
        <ele>286.962053</ele>
        <time>2026-07-08T12:53:05.000Z</time>
      </trkpt>
      <trkpt lat="47.08879" lon="16.09888">
        <ele>286.929155</ele>
        <time>2026-07-08T12:53:06.000Z</time>
      </trkpt>
      <trkpt lat="47.08876" lon="16.09879">
        <ele>286.895864</ele>
        <time>2026-07-08T12:53:07.000Z</time>
      </trkpt>
      <trkpt lat="47.08873" lon="16.09871">
        <ele>286.863375</ele>
        <time>2026-07-08T12:53:08.000Z</time>
      </trkpt>
      <trkpt lat="47.0887" lon="16.09863">
        <ele>286.830329</ele>
        <time>2026-07-08T12:53:09.000Z</time>
      </trkpt>
      <trkpt lat="47.08868" lon="16.09855">
        <ele>286.79816</ele>
        <time>2026-07-08T12:53:10.000Z</time>
      </trkpt>
      <trkpt lat="47.08865" lon="16.09847">
        <ele>286.766625</ele>
        <time>2026-07-08T12:53:11.000Z</time>
      </trkpt>
      <trkpt lat="47.08862" lon="16.09839">
        <ele>286.734211</ele>
        <time>2026-07-08T12:53:12.000Z</time>
      </trkpt>
      <trkpt lat="47.08859" lon="16.09832">
        <ele>286.702992</ele>
        <time>2026-07-08T12:53:13.000Z</time>
      </trkpt>
      <trkpt lat="47.08857" lon="16.09824">
        <ele>286.671512</ele>
        <time>2026-07-08T12:53:14.000Z</time>
      </trkpt>
      <trkpt lat="47.08854" lon="16.09816">
        <ele>286.639976</ele>
        <time>2026-07-08T12:53:15.000Z</time>
      </trkpt>
      <trkpt lat="47.08851" lon="16.09808">
        <ele>286.607563</ele>
        <time>2026-07-08T12:53:16.000Z</time>
      </trkpt>
      <trkpt lat="47.08848" lon="16.098">
        <ele>286.575711</ele>
        <time>2026-07-08T12:53:17.000Z</time>
      </trkpt>
      <trkpt lat="47.08845" lon="16.09792">
        <ele>286.543542</ele>
        <time>2026-07-08T12:53:18.000Z</time>
      </trkpt>
      <trkpt lat="47.08842" lon="16.09784">
        <ele>286.510878</ele>
        <time>2026-07-08T12:53:19.000Z</time>
      </trkpt>
      <trkpt lat="47.0884" lon="16.09776">
        <ele>286.478945</ele>
        <time>2026-07-08T12:53:20.000Z</time>
      </trkpt>
      <trkpt lat="47.08837" lon="16.09768">
        <ele>286.446906</ele>
        <time>2026-07-08T12:53:21.000Z</time>
      </trkpt>
      <trkpt lat="47.08834" lon="16.0976">
        <ele>286.415179</ele>
        <time>2026-07-08T12:53:22.000Z</time>
      </trkpt>
      <trkpt lat="47.08831" lon="16.09753">
        <ele>286.38314</ele>
        <time>2026-07-08T12:53:23.000Z</time>
      </trkpt>
      <trkpt lat="47.08828" lon="16.09745">
        <ele>286.352082</ele>
        <time>2026-07-08T12:53:24.000Z</time>
      </trkpt>
      <trkpt lat="47.08825" lon="16.09737">
        <ele>286.327224</ele>
        <time>2026-07-08T12:53:25.000Z</time>
      </trkpt>
      <trkpt lat="47.08822" lon="16.09729">
        <ele>286.30242</ele>
        <time>2026-07-08T12:53:26.000Z</time>
      </trkpt>
      <trkpt lat="47.0882" lon="16.0972">
        <ele>286.277189</ele>
        <time>2026-07-08T12:53:27.000Z</time>
      </trkpt>
      <trkpt lat="47.08817" lon="16.09712">
        <ele>286.252051</ele>
        <time>2026-07-08T12:53:28.000Z</time>
      </trkpt>
      <trkpt lat="47.08814" lon="16.09704">
        <ele>286.226268</ele>
        <time>2026-07-08T12:53:29.000Z</time>
      </trkpt>
      <trkpt lat="47.08812" lon="16.09696">
        <ele>286.201353</ele>
        <time>2026-07-08T12:53:30.000Z</time>
      </trkpt>
      <trkpt lat="47.08809" lon="16.09688">
        <ele>286.176439</ele>
        <time>2026-07-08T12:53:31.000Z</time>
      </trkpt>
      <trkpt lat="47.08806" lon="16.0968">
        <ele>286.151336</ele>
        <time>2026-07-08T12:53:32.000Z</time>
      </trkpt>
      <trkpt lat="47.08803" lon="16.09672">
        <ele>286.127282</ele>
        <time>2026-07-08T12:53:33.000Z</time>
      </trkpt>
      <trkpt lat="47.088" lon="16.09664">
        <ele>286.102667</ele>
        <time>2026-07-08T12:53:34.000Z</time>
      </trkpt>
      <trkpt lat="47.08797" lon="16.09656">
        <ele>286.077612</ele>
        <time>2026-07-08T12:53:35.000Z</time>
      </trkpt>
      <trkpt lat="47.08795" lon="16.09649">
        <ele>286.053558</ele>
        <time>2026-07-08T12:53:36.000Z</time>
      </trkpt>
      <trkpt lat="47.08792" lon="16.09641">
        <ele>286.028455</ele>
        <time>2026-07-08T12:53:37.000Z</time>
      </trkpt>
      <trkpt lat="47.08789" lon="16.09633">
        <ele>286.0044</ele>
        <time>2026-07-08T12:53:38.000Z</time>
      </trkpt>
      <trkpt lat="47.08786" lon="16.09625">
        <ele>285.979298</ele>
        <time>2026-07-08T12:53:39.000Z</time>
      </trkpt>
      <trkpt lat="47.08784" lon="16.09617">
        <ele>285.954744</ele>
        <time>2026-07-08T12:53:40.000Z</time>
      </trkpt>
      <trkpt lat="47.08781" lon="16.09609">
        <ele>285.930013</ele>
        <time>2026-07-08T12:53:41.000Z</time>
      </trkpt>
      <trkpt lat="47.08778" lon="16.09601">
        <ele>285.905099</ele>
        <time>2026-07-08T12:53:42.000Z</time>
      </trkpt>
      <trkpt lat="47.08776" lon="16.09593">
        <ele>285.880214</ele>
        <time>2026-07-08T12:53:43.000Z</time>
      </trkpt>
      <trkpt lat="47.08773" lon="16.09585">
        <ele>285.855978</ele>
        <time>2026-07-08T12:53:44.000Z</time>
      </trkpt>
      <trkpt lat="47.0877" lon="16.09577">
        <ele>285.831063</ele>
        <time>2026-07-08T12:53:45.000Z</time>
      </trkpt>
      <trkpt lat="47.08768" lon="16.09569">
        <ele>285.806332</ele>
        <time>2026-07-08T12:53:46.000Z</time>
      </trkpt>
      <trkpt lat="47.08765" lon="16.09561">
        <ele>285.781418</ele>
        <time>2026-07-08T12:53:47.000Z</time>
      </trkpt>
      <trkpt lat="47.08762" lon="16.09553">
        <ele>285.756559</ele>
        <time>2026-07-08T12:53:48.000Z</time>
      </trkpt>
      <trkpt lat="47.08759" lon="16.09545">
        <ele>285.732624</ele>
        <time>2026-07-08T12:53:49.000Z</time>
      </trkpt>
      <trkpt lat="47.08756" lon="16.09537">
        <ele>285.708141</ele>
        <time>2026-07-08T12:53:50.000Z</time>
      </trkpt>
      <trkpt lat="47.08754" lon="16.0953">
        <ele>285.684086</ele>
        <time>2026-07-08T12:53:51.000Z</time>
      </trkpt>
      <trkpt lat="47.08751" lon="16.09522">
        <ele>285.659471</ele>
        <time>2026-07-08T12:53:52.000Z</time>
      </trkpt>
      <trkpt lat="47.08748" lon="16.09514">
        <ele>285.634918</ele>
        <time>2026-07-08T12:53:53.000Z</time>
      </trkpt>
      <trkpt lat="47.08745" lon="16.09506">
        <ele>285.619174</ele>
        <time>2026-07-08T12:53:54.000Z</time>
      </trkpt>
      <trkpt lat="47.08743" lon="16.09498">
        <ele>285.61339</ele>
        <time>2026-07-08T12:53:55.000Z</time>
      </trkpt>
      <trkpt lat="47.0874" lon="16.0949">
        <ele>285.607664</ele>
        <time>2026-07-08T12:53:56.000Z</time>
      </trkpt>
      <trkpt lat="47.08737" lon="16.09482">
        <ele>285.601892</ele>
        <time>2026-07-08T12:53:57.000Z</time>
      </trkpt>
      <trkpt lat="47.08734" lon="16.09474">
        <ele>285.5959</ele>
        <time>2026-07-08T12:53:58.000Z</time>
      </trkpt>
      <trkpt lat="47.08731" lon="16.09466">
        <ele>285.589841</ele>
        <time>2026-07-08T12:53:59.000Z</time>
      </trkpt>
      <trkpt lat="47.08729" lon="16.09458">
        <ele>285.584084</ele>
        <time>2026-07-08T12:54:00.000Z</time>
      </trkpt>
      <trkpt lat="47.08726" lon="16.0945">
        <ele>285.578323</ele>
        <time>2026-07-08T12:54:01.000Z</time>
      </trkpt>
      <trkpt lat="47.08722" lon="16.09443">
        <ele>285.572739</ele>
        <time>2026-07-08T12:54:02.000Z</time>
      </trkpt>
      <trkpt lat="47.08718" lon="16.09437">
        <ele>285.567377</ele>
        <time>2026-07-08T12:54:03.000Z</time>
      </trkpt>
      <trkpt lat="47.08714" lon="16.09433">
        <ele>285.562343</ele>
        <time>2026-07-08T12:54:04.000Z</time>
      </trkpt>
      <trkpt lat="47.08709" lon="16.09432">
        <ele>285.557476</ele>
        <time>2026-07-08T12:54:05.000Z</time>
      </trkpt>
      <trkpt lat="47.08704" lon="16.09432">
        <ele>285.552786</ele>
        <time>2026-07-08T12:54:06.000Z</time>
      </trkpt>
      <trkpt lat="47.08699" lon="16.09434">
        <ele>285.548045</ele>
        <time>2026-07-08T12:54:07.000Z</time>
      </trkpt>
      <trkpt lat="47.08694" lon="16.09437">
        <ele>285.543277</ele>
        <time>2026-07-08T12:54:08.000Z</time>
      </trkpt>
      <trkpt lat="47.0869" lon="16.09439">
        <ele>285.538598</ele>
        <time>2026-07-08T12:54:09.000Z</time>
      </trkpt>
      <trkpt lat="47.08685" lon="16.09442">
        <ele>285.533692</ele>
        <time>2026-07-08T12:54:10.000Z</time>
      </trkpt>
      <trkpt lat="47.0868" lon="16.09444">
        <ele>285.528714</ele>
        <time>2026-07-08T12:54:11.000Z</time>
      </trkpt>
      <trkpt lat="47.08675" lon="16.09446">
        <ele>285.523625</ele>
        <time>2026-07-08T12:54:12.000Z</time>
      </trkpt>
      <trkpt lat="47.08669" lon="16.09448">
        <ele>285.518262</ele>
        <time>2026-07-08T12:54:13.000Z</time>
      </trkpt>
      <trkpt lat="47.08664" lon="16.09451">
        <ele>285.512972</ele>
        <time>2026-07-08T12:54:14.000Z</time>
      </trkpt>
      <trkpt lat="47.08659" lon="16.09453">
        <ele>285.507753</ele>
        <time>2026-07-08T12:54:15.000Z</time>
      </trkpt>
      <trkpt lat="47.08653" lon="16.09455">
        <ele>285.502349</ele>
        <time>2026-07-08T12:54:16.000Z</time>
      </trkpt>
      <trkpt lat="47.08648" lon="16.09457">
        <ele>285.497021</ele>
        <time>2026-07-08T12:54:17.000Z</time>
      </trkpt>
      <trkpt lat="47.08643" lon="16.09459">
        <ele>285.491801</ele>
        <time>2026-07-08T12:54:18.000Z</time>
      </trkpt>
      <trkpt lat="47.08637" lon="16.09461">
        <ele>285.486397</ele>
        <time>2026-07-08T12:54:19.000Z</time>
      </trkpt>
      <trkpt lat="47.08632" lon="16.09463">
        <ele>285.481144</ele>
        <time>2026-07-08T12:54:20.000Z</time>
      </trkpt>
      <trkpt lat="47.08626" lon="16.09465">
        <ele>285.475707</ele>
        <time>2026-07-08T12:54:21.000Z</time>
      </trkpt>
      <trkpt lat="47.08621" lon="16.09467">
        <ele>285.470286</ele>
        <time>2026-07-08T12:54:22.000Z</time>
      </trkpt>
      <trkpt lat="47.08615" lon="16.0947">
        <ele>285.464849</ele>
        <time>2026-07-08T12:54:23.000Z</time>
      </trkpt>
      <trkpt lat="47.0861" lon="16.09472">
        <ele>285.459228</ele>
        <time>2026-07-08T12:54:24.000Z</time>
      </trkpt>
      <trkpt lat="47.08604" lon="16.09474">
        <ele>285.453774</ele>
        <time>2026-07-08T12:54:25.000Z</time>
      </trkpt>
      <trkpt lat="47.08598" lon="16.09476">
        <ele>285.4534</ele>
        <time>2026-07-08T12:54:26.000Z</time>
      </trkpt>
      <trkpt lat="47.08593" lon="16.09478">
        <ele>285.460496</ele>
        <time>2026-07-08T12:54:27.000Z</time>
      </trkpt>
      <trkpt lat="47.08587" lon="16.09481">
        <ele>285.467883</ele>
        <time>2026-07-08T12:54:28.000Z</time>
      </trkpt>
      <trkpt lat="47.08581" lon="16.09483">
        <ele>285.475269</ele>
        <time>2026-07-08T12:54:29.000Z</time>
      </trkpt>
      <trkpt lat="47.08574" lon="16.09485">
        <ele>285.482906</ele>
        <time>2026-07-08T12:54:30.000Z</time>
      </trkpt>
      <trkpt lat="47.08568" lon="16.09488">
        <ele>285.490408</ele>
        <time>2026-07-08T12:54:31.000Z</time>
      </trkpt>
      <trkpt lat="47.08562" lon="16.0949">
        <ele>285.498257</ele>
        <time>2026-07-08T12:54:32.000Z</time>
      </trkpt>
      <trkpt lat="47.08556" lon="16.09492">
        <ele>285.50597</ele>
        <time>2026-07-08T12:54:33.000Z</time>
      </trkpt>
      <trkpt lat="47.08549" lon="16.09494">
        <ele>285.513934</ele>
        <time>2026-07-08T12:54:34.000Z</time>
      </trkpt>
      <trkpt lat="47.08543" lon="16.09497">
        <ele>285.521981</ele>
        <time>2026-07-08T12:54:35.000Z</time>
      </trkpt>
      <trkpt lat="47.08536" lon="16.095">
        <ele>285.530027</ele>
        <time>2026-07-08T12:54:36.000Z</time>
      </trkpt>
      <trkpt lat="47.08529" lon="16.09502">
        <ele>285.538261</ele>
        <time>2026-07-08T12:54:37.000Z</time>
      </trkpt>
      <trkpt lat="47.08523" lon="16.09505">
        <ele>285.546265</ele>
        <time>2026-07-08T12:54:38.000Z</time>
      </trkpt>
      <trkpt lat="47.08516" lon="16.09507">
        <ele>285.554384</ele>
        <time>2026-07-08T12:54:39.000Z</time>
      </trkpt>
      <trkpt lat="47.0851" lon="16.0951">
        <ele>285.562348</ele>
        <time>2026-07-08T12:54:40.000Z</time>
      </trkpt>
      <trkpt lat="47.08503" lon="16.09512">
        <ele>285.570352</ele>
        <time>2026-07-08T12:54:41.000Z</time>
      </trkpt>
      <trkpt lat="47.08497" lon="16.09515">
        <ele>285.578355</ele>
        <time>2026-07-08T12:54:42.000Z</time>
      </trkpt>
      <trkpt lat="47.0849" lon="16.09517">
        <ele>285.586631</ele>
        <time>2026-07-08T12:54:43.000Z</time>
      </trkpt>
      <trkpt lat="47.08484" lon="16.0952">
        <ele>285.594656</ele>
        <time>2026-07-08T12:54:44.000Z</time>
      </trkpt>
      <trkpt lat="47.08477" lon="16.09522">
        <ele>285.602659</ele>
        <time>2026-07-08T12:54:45.000Z</time>
      </trkpt>
      <trkpt lat="47.08471" lon="16.09525">
        <ele>285.610643</ele>
        <time>2026-07-08T12:54:46.000Z</time>
      </trkpt>
      <trkpt lat="47.08464" lon="16.09527">
        <ele>285.618376</ele>
        <time>2026-07-08T12:54:47.000Z</time>
      </trkpt>
      <trkpt lat="47.08458" lon="16.0953">
        <ele>285.626422</ele>
        <time>2026-07-08T12:54:48.000Z</time>
      </trkpt>
      <trkpt lat="47.08451" lon="16.09532">
        <ele>285.63431</ele>
        <time>2026-07-08T12:54:49.000Z</time>
      </trkpt>
      <trkpt lat="47.08445" lon="16.09534">
        <ele>285.642238</ele>
        <time>2026-07-08T12:54:50.000Z</time>
      </trkpt>
      <trkpt lat="47.08438" lon="16.09537">
        <ele>285.650222</ele>
        <time>2026-07-08T12:54:51.000Z</time>
      </trkpt>
      <trkpt lat="47.08432" lon="16.09539">
        <ele>285.657995</ele>
        <time>2026-07-08T12:54:52.000Z</time>
      </trkpt>
      <trkpt lat="47.08426" lon="16.09542">
        <ele>285.661265</ele>
        <time>2026-07-08T12:54:53.000Z</time>
      </trkpt>
      <trkpt lat="47.08419" lon="16.09545">
        <ele>285.640785</ele>
        <time>2026-07-08T12:54:54.000Z</time>
      </trkpt>
      <trkpt lat="47.08413" lon="16.09549">
        <ele>285.619941</ele>
        <time>2026-07-08T12:54:55.000Z</time>
      </trkpt>
      <trkpt lat="47.08407" lon="16.09552">
        <ele>285.599499</ele>
        <time>2026-07-08T12:54:56.000Z</time>
      </trkpt>
      <trkpt lat="47.084" lon="16.09554">
        <ele>285.578463</ele>
        <time>2026-07-08T12:54:57.000Z</time>
      </trkpt>
      <trkpt lat="47.08394" lon="16.09557">
        <ele>285.557662</ele>
        <time>2026-07-08T12:54:58.000Z</time>
      </trkpt>
      <trkpt lat="47.08387" lon="16.0956">
        <ele>285.536626</ele>
        <time>2026-07-08T12:54:59.000Z</time>
      </trkpt>
      <trkpt lat="47.08381" lon="16.09563">
        <ele>285.515589</ele>
        <time>2026-07-08T12:55:00.000Z</time>
      </trkpt>
      <trkpt lat="47.08374" lon="16.09566">
        <ele>285.494611</ele>
        <time>2026-07-08T12:55:01.000Z</time>
      </trkpt>
      <trkpt lat="47.08368" lon="16.09568">
        <ele>285.473334</ele>
        <time>2026-07-08T12:55:02.000Z</time>
      </trkpt>
      <trkpt lat="47.08361" lon="16.09571">
        <ele>285.451701</ele>
        <time>2026-07-08T12:55:03.000Z</time>
      </trkpt>
      <trkpt lat="47.08354" lon="16.09574">
        <ele>285.429768</ele>
        <time>2026-07-08T12:55:04.000Z</time>
      </trkpt>
      <trkpt lat="47.08347" lon="16.09577">
        <ele>285.407181</ele>
        <time>2026-07-08T12:55:05.000Z</time>
      </trkpt>
      <trkpt lat="47.0834" lon="16.0958">
        <ele>285.38465</ele>
        <time>2026-07-08T12:55:06.000Z</time>
      </trkpt>
      <trkpt lat="47.08333" lon="16.09582">
        <ele>285.362174</ele>
        <time>2026-07-08T12:55:07.000Z</time>
      </trkpt>
      <trkpt lat="47.08326" lon="16.09585">
        <ele>285.340051</ele>
        <time>2026-07-08T12:55:08.000Z</time>
      </trkpt>
      <trkpt lat="47.0832" lon="16.09588">
        <ele>285.318001</ele>
        <time>2026-07-08T12:55:09.000Z</time>
      </trkpt>
      <trkpt lat="47.08313" lon="16.09591">
        <ele>285.296011</ele>
        <time>2026-07-08T12:55:10.000Z</time>
      </trkpt>
      <trkpt lat="47.08306" lon="16.09594">
        <ele>285.273779</ele>
        <time>2026-07-08T12:55:11.000Z</time>
      </trkpt>
      <trkpt lat="47.08299" lon="16.09596">
        <ele>285.252612</ele>
        <time>2026-07-08T12:55:12.000Z</time>
      </trkpt>
      <trkpt lat="47.08293" lon="16.09599">
        <ele>285.231143</ele>
        <time>2026-07-08T12:55:13.000Z</time>
      </trkpt>
      <trkpt lat="47.08286" lon="16.09601">
        <ele>285.20951</ele>
        <time>2026-07-08T12:55:14.000Z</time>
      </trkpt>
      <trkpt lat="47.08279" lon="16.09604">
        <ele>285.187634</ele>
        <time>2026-07-08T12:55:15.000Z</time>
      </trkpt>
      <trkpt lat="47.08272" lon="16.09607">
        <ele>285.165702</ele>
        <time>2026-07-08T12:55:16.000Z</time>
      </trkpt>
      <trkpt lat="47.08265" lon="16.0961">
        <ele>285.143413</ele>
        <time>2026-07-08T12:55:17.000Z</time>
      </trkpt>
      <trkpt lat="47.08259" lon="16.09612">
        <ele>285.121591</ele>
        <time>2026-07-08T12:55:18.000Z</time>
      </trkpt>
      <trkpt lat="47.08252" lon="16.09615">
        <ele>285.097689</ele>
        <time>2026-07-08T12:55:19.000Z</time>
      </trkpt>
      <trkpt lat="47.08245" lon="16.09618">
        <ele>285.07085</ele>
        <time>2026-07-08T12:55:20.000Z</time>
      </trkpt>
      <trkpt lat="47.08238" lon="16.0962">
        <ele>285.043544</ele>
        <time>2026-07-08T12:55:21.000Z</time>
      </trkpt>
      <trkpt lat="47.08231" lon="16.09623">
        <ele>285.016355</ele>
        <time>2026-07-08T12:55:22.000Z</time>
      </trkpt>
      <trkpt lat="47.08224" lon="16.09625">
        <ele>284.989049</ele>
        <time>2026-07-08T12:55:23.000Z</time>
      </trkpt>
      <trkpt lat="47.08217" lon="16.09628">
        <ele>284.961982</ele>
        <time>2026-07-08T12:55:24.000Z</time>
      </trkpt>
      <trkpt lat="47.0821" lon="16.0963">
        <ele>284.934676</ele>
        <time>2026-07-08T12:55:25.000Z</time>
      </trkpt>
      <trkpt lat="47.08203" lon="16.09633">
        <ele>284.908106</ele>
        <time>2026-07-08T12:55:26.000Z</time>
      </trkpt>
      <trkpt lat="47.08196" lon="16.09635">
        <ele>284.880917</ele>
        <time>2026-07-08T12:55:27.000Z</time>
      </trkpt>
      <trkpt lat="47.08189" lon="16.09638">
        <ele>284.854347</ele>
        <time>2026-07-08T12:55:28.000Z</time>
      </trkpt>
      <trkpt lat="47.08182" lon="16.0964">
        <ele>284.827159</ele>
        <time>2026-07-08T12:55:29.000Z</time>
      </trkpt>
      <trkpt lat="47.08175" lon="16.09642">
        <ele>284.800221</ele>
        <time>2026-07-08T12:55:30.000Z</time>
      </trkpt>
      <trkpt lat="47.08169" lon="16.09645">
        <ele>284.77352</ele>
        <time>2026-07-08T12:55:31.000Z</time>
      </trkpt>
      <trkpt lat="47.08162" lon="16.09648">
        <ele>284.747186</ele>
        <time>2026-07-08T12:55:32.000Z</time>
      </trkpt>
      <trkpt lat="47.08155" lon="16.0965">
        <ele>284.720616</ele>
        <time>2026-07-08T12:55:33.000Z</time>
      </trkpt>
      <trkpt lat="47.08149" lon="16.09653">
        <ele>284.695081</ele>
        <time>2026-07-08T12:55:34.000Z</time>
      </trkpt>
      <trkpt lat="47.08142" lon="16.09656">
        <ele>284.669476</ele>
        <time>2026-07-08T12:55:35.000Z</time>
      </trkpt>
      <trkpt lat="47.08136" lon="16.09658">
        <ele>284.644527</ele>
        <time>2026-07-08T12:55:36.000Z</time>
      </trkpt>
      <trkpt lat="47.08129" lon="16.09661">
        <ele>284.619288</ele>
        <time>2026-07-08T12:55:37.000Z</time>
      </trkpt>
      <trkpt lat="47.08123" lon="16.09664">
        <ele>284.595501</ele>
        <time>2026-07-08T12:55:38.000Z</time>
      </trkpt>
      <trkpt lat="47.08117" lon="16.09667">
        <ele>284.571477</ele>
        <time>2026-07-08T12:55:39.000Z</time>
      </trkpt>
      <trkpt lat="47.08111" lon="16.09669">
        <ele>284.547472</ele>
        <time>2026-07-08T12:55:40.000Z</time>
      </trkpt>
      <trkpt lat="47.08105" lon="16.09671">
        <ele>284.522615</ele>
        <time>2026-07-08T12:55:41.000Z</time>
      </trkpt>
      <trkpt lat="47.08099" lon="16.09673">
        <ele>284.498184</ele>
        <time>2026-07-08T12:55:42.000Z</time>
      </trkpt>
      <trkpt lat="47.08092" lon="16.09676">
        <ele>284.472044</ele>
        <time>2026-07-08T12:55:43.000Z</time>
      </trkpt>
      <trkpt lat="47.08085" lon="16.09678">
        <ele>284.446209</ele>
        <time>2026-07-08T12:55:44.000Z</time>
      </trkpt>
      <trkpt lat="47.08079" lon="16.09681">
        <ele>284.423638</ele>
        <time>2026-07-08T12:55:45.000Z</time>
      </trkpt>
      <trkpt lat="47.08072" lon="16.09684">
        <ele>284.41824</ele>
        <time>2026-07-08T12:55:46.000Z</time>
      </trkpt>
      <trkpt lat="47.08065" lon="16.09686">
        <ele>284.412885</ele>
        <time>2026-07-08T12:55:47.000Z</time>
      </trkpt>
      <trkpt lat="47.08059" lon="16.09689">
        <ele>284.40759</ele>
        <time>2026-07-08T12:55:48.000Z</time>
      </trkpt>
      <trkpt lat="47.08052" lon="16.09692">
        <ele>284.402098</ele>
        <time>2026-07-08T12:55:49.000Z</time>
      </trkpt>
      <trkpt lat="47.08045" lon="16.09694">
        <ele>284.396681</ele>
        <time>2026-07-08T12:55:50.000Z</time>
      </trkpt>
      <trkpt lat="47.08038" lon="16.09697">
        <ele>284.391339</ele>
        <time>2026-07-08T12:55:51.000Z</time>
      </trkpt>
      <trkpt lat="47.08032" lon="16.09699">
        <ele>284.385882</ele>
        <time>2026-07-08T12:55:52.000Z</time>
      </trkpt>
      <trkpt lat="47.08025" lon="16.09702">
        <ele>284.38041</ele>
        <time>2026-07-08T12:55:53.000Z</time>
      </trkpt>
      <trkpt lat="47.08018" lon="16.09705">
        <ele>284.375027</ele>
        <time>2026-07-08T12:55:54.000Z</time>
      </trkpt>
      <trkpt lat="47.08011" lon="16.09708">
        <ele>284.369434</ele>
        <time>2026-07-08T12:55:55.000Z</time>
      </trkpt>
      <trkpt lat="47.08004" lon="16.0971">
        <ele>284.364004</ele>
        <time>2026-07-08T12:55:56.000Z</time>
      </trkpt>
      <trkpt lat="47.07997" lon="16.09713">
        <ele>284.358486</ele>
        <time>2026-07-08T12:55:57.000Z</time>
      </trkpt>
      <trkpt lat="47.07991" lon="16.09716">
        <ele>284.353042</ele>
        <time>2026-07-08T12:55:58.000Z</time>
      </trkpt>
      <trkpt lat="47.07984" lon="16.09719">
        <ele>284.347555</ele>
        <time>2026-07-08T12:55:59.000Z</time>
      </trkpt>
      <trkpt lat="47.07977" lon="16.09722">
        <ele>284.342142</ele>
        <time>2026-07-08T12:56:00.000Z</time>
      </trkpt>
      <trkpt lat="47.0797" lon="16.09725">
        <ele>284.336656</ele>
        <time>2026-07-08T12:56:01.000Z</time>
      </trkpt>
      <trkpt lat="47.07963" lon="16.09728">
        <ele>284.331049</ele>
        <time>2026-07-08T12:56:02.000Z</time>
      </trkpt>
      <trkpt lat="47.07956" lon="16.0973">
        <ele>284.325482</ele>
        <time>2026-07-08T12:56:03.000Z</time>
      </trkpt>
      <trkpt lat="47.07949" lon="16.09733">
        <ele>284.31995</ele>
        <time>2026-07-08T12:56:04.000Z</time>
      </trkpt>
      <trkpt lat="47.07943" lon="16.09736">
        <ele>284.314478</ele>
        <time>2026-07-08T12:56:05.000Z</time>
      </trkpt>
      <trkpt lat="47.07936" lon="16.09738">
        <ele>284.309048</ele>
        <time>2026-07-08T12:56:06.000Z</time>
      </trkpt>
      <trkpt lat="47.07929" lon="16.09741">
        <ele>284.303679</ele>
        <time>2026-07-08T12:56:07.000Z</time>
      </trkpt>
      <trkpt lat="47.07922" lon="16.09744">
        <ele>284.29831</ele>
        <time>2026-07-08T12:56:08.000Z</time>
      </trkpt>
      <trkpt lat="47.07916" lon="16.09747">
        <ele>284.292853</ele>
        <time>2026-07-08T12:56:09.000Z</time>
      </trkpt>
      <trkpt lat="47.07909" lon="16.09749">
        <ele>284.287436</ele>
        <time>2026-07-08T12:56:10.000Z</time>
      </trkpt>
      <trkpt lat="47.07902" lon="16.09752">
        <ele>284.286459</ele>
        <time>2026-07-08T12:56:11.000Z</time>
      </trkpt>
      <trkpt lat="47.07895" lon="16.09754">
        <ele>284.288074</ele>
        <time>2026-07-08T12:56:12.000Z</time>
      </trkpt>
      <trkpt lat="47.07889" lon="16.09757">
        <ele>284.289716</ele>
        <time>2026-07-08T12:56:13.000Z</time>
      </trkpt>
      <trkpt lat="47.07882" lon="16.0976">
        <ele>284.291321</ele>
        <time>2026-07-08T12:56:14.000Z</time>
      </trkpt>
      <trkpt lat="47.07875" lon="16.09763">
        <ele>284.292959</ele>
        <time>2026-07-08T12:56:15.000Z</time>
      </trkpt>
      <trkpt lat="47.07869" lon="16.09765">
        <ele>284.294501</ele>
        <time>2026-07-08T12:56:16.000Z</time>
      </trkpt>
      <trkpt lat="47.07863" lon="16.09768">
        <ele>284.296107</ele>
        <time>2026-07-08T12:56:17.000Z</time>
      </trkpt>
      <trkpt lat="47.07856" lon="16.0977">
        <ele>284.297617</ele>
        <time>2026-07-08T12:56:18.000Z</time>
      </trkpt>
      <trkpt lat="47.0785" lon="16.09769">
        <ele>284.299131</ele>
        <time>2026-07-08T12:56:19.000Z</time>
      </trkpt>
      <trkpt lat="47.07844" lon="16.09765">
        <ele>284.300655</ele>
        <time>2026-07-08T12:56:20.000Z</time>
      </trkpt>
      <trkpt lat="47.0784" lon="16.09758">
        <ele>284.302144</ele>
        <time>2026-07-08T12:56:21.000Z</time>
      </trkpt>
      <trkpt lat="47.07837" lon="16.0975">
        <ele>284.303627</ele>
        <time>2026-07-08T12:56:22.000Z</time>
      </trkpt>
      <trkpt lat="47.07835" lon="16.09741">
        <ele>284.30512</ele>
        <time>2026-07-08T12:56:23.000Z</time>
      </trkpt>
      <trkpt lat="47.07834" lon="16.09732">
        <ele>284.306633</ele>
        <time>2026-07-08T12:56:24.000Z</time>
      </trkpt>
      <trkpt lat="47.07833" lon="16.09722">
        <ele>284.308189</ele>
        <time>2026-07-08T12:56:25.000Z</time>
      </trkpt>
      <trkpt lat="47.07831" lon="16.09713">
        <ele>284.309712</ele>
        <time>2026-07-08T12:56:26.000Z</time>
      </trkpt>
      <trkpt lat="47.0783" lon="16.09704">
        <ele>284.311278</ele>
        <time>2026-07-08T12:56:27.000Z</time>
      </trkpt>
      <trkpt lat="47.07828" lon="16.09694">
        <ele>284.312836</ele>
        <time>2026-07-08T12:56:28.000Z</time>
      </trkpt>
      <trkpt lat="47.07826" lon="16.09685">
        <ele>284.31436</ele>
        <time>2026-07-08T12:56:29.000Z</time>
      </trkpt>
      <trkpt lat="47.07825" lon="16.09676">
        <ele>284.315937</ele>
        <time>2026-07-08T12:56:30.000Z</time>
      </trkpt>
      <trkpt lat="47.07823" lon="16.09666">
        <ele>284.317471</ele>
        <time>2026-07-08T12:56:31.000Z</time>
      </trkpt>
      <trkpt lat="47.07822" lon="16.09657">
        <ele>284.319026</ele>
        <time>2026-07-08T12:56:32.000Z</time>
      </trkpt>
      <trkpt lat="47.0782" lon="16.09647">
        <ele>284.320591</ele>
        <time>2026-07-08T12:56:33.000Z</time>
      </trkpt>
      <trkpt lat="47.07818" lon="16.09638">
        <ele>284.32218</ele>
        <time>2026-07-08T12:56:34.000Z</time>
      </trkpt>
      <trkpt lat="47.07817" lon="16.09628">
        <ele>284.323763</ele>
        <time>2026-07-08T12:56:35.000Z</time>
      </trkpt>
      <trkpt lat="47.07815" lon="16.09619">
        <ele>284.325344</ele>
        <time>2026-07-08T12:56:36.000Z</time>
      </trkpt>
      <trkpt lat="47.07813" lon="16.0961">
        <ele>284.326858</ele>
        <time>2026-07-08T12:56:37.000Z</time>
      </trkpt>
      <trkpt lat="47.07811" lon="16.09601">
        <ele>284.319178</ele>
        <time>2026-07-08T12:56:38.000Z</time>
      </trkpt>
      <trkpt lat="47.0781" lon="16.09591">
        <ele>284.296468</ele>
        <time>2026-07-08T12:56:39.000Z</time>
      </trkpt>
      <trkpt lat="47.07808" lon="16.09582">
        <ele>284.273845</ele>
        <time>2026-07-08T12:56:40.000Z</time>
      </trkpt>
      <trkpt lat="47.07807" lon="16.09573">
        <ele>284.25159</ele>
        <time>2026-07-08T12:56:41.000Z</time>
      </trkpt>
      <trkpt lat="47.07805" lon="16.09564">
        <ele>284.229563</ele>
        <time>2026-07-08T12:56:42.000Z</time>
      </trkpt>
      <trkpt lat="47.07804" lon="16.09555">
        <ele>284.208095</ele>
        <time>2026-07-08T12:56:43.000Z</time>
      </trkpt>
      <trkpt lat="47.07802" lon="16.09546">
        <ele>284.186396</ele>
        <time>2026-07-08T12:56:44.000Z</time>
      </trkpt>
      <trkpt lat="47.07801" lon="16.09537">
        <ele>284.165082</ele>
        <time>2026-07-08T12:56:45.000Z</time>
      </trkpt>
      <trkpt lat="47.07799" lon="16.09528">
        <ele>284.143687</ele>
        <time>2026-07-08T12:56:46.000Z</time>
      </trkpt>
      <trkpt lat="47.07798" lon="16.09519">
        <ele>284.122064</ele>
        <time>2026-07-08T12:56:47.000Z</time>
      </trkpt>
      <trkpt lat="47.07796" lon="16.09511">
        <ele>284.100582</ele>
        <time>2026-07-08T12:56:48.000Z</time>
      </trkpt>
      <trkpt lat="47.07795" lon="16.09502">
        <ele>284.079235</ele>
        <time>2026-07-08T12:56:49.000Z</time>
      </trkpt>
      <trkpt lat="47.07793" lon="16.09493">
        <ele>284.058341</ele>
        <time>2026-07-08T12:56:50.000Z</time>
      </trkpt>
      <trkpt lat="47.07791" lon="16.09485">
        <ele>284.037996</ele>
        <time>2026-07-08T12:56:51.000Z</time>
      </trkpt>
      <trkpt lat="47.07789" lon="16.09477">
        <ele>284.017568</ele>
        <time>2026-07-08T12:56:52.000Z</time>
      </trkpt>
      <trkpt lat="47.07788" lon="16.09469">
        <ele>283.997903</ele>
        <time>2026-07-08T12:56:53.000Z</time>
      </trkpt>
      <trkpt lat="47.07786" lon="16.09461">
        <ele>283.977913</ele>
        <time>2026-07-08T12:56:54.000Z</time>
      </trkpt>
      <trkpt lat="47.07784" lon="16.09453">
        <ele>283.958373</ele>
        <time>2026-07-08T12:56:55.000Z</time>
      </trkpt>
      <trkpt lat="47.07783" lon="16.09445">
        <ele>283.939257</ele>
        <time>2026-07-08T12:56:56.000Z</time>
      </trkpt>
      <trkpt lat="47.07782" lon="16.09437">
        <ele>283.920547</ele>
        <time>2026-07-08T12:56:57.000Z</time>
      </trkpt>
      <trkpt lat="47.0778" lon="16.0943">
        <ele>283.901607</ele>
        <time>2026-07-08T12:56:58.000Z</time>
      </trkpt>
      <trkpt lat="47.07779" lon="16.09422">
        <ele>283.882492</ele>
        <time>2026-07-08T12:56:59.000Z</time>
      </trkpt>
      <trkpt lat="47.07777" lon="16.09414">
        <ele>283.863239</ele>
        <time>2026-07-08T12:57:00.000Z</time>
      </trkpt>
      <trkpt lat="47.07776" lon="16.09406">
        <ele>283.844758</ele>
        <time>2026-07-08T12:57:01.000Z</time>
      </trkpt>
      <trkpt lat="47.07775" lon="16.09399">
        <ele>283.826047</ele>
        <time>2026-07-08T12:57:02.000Z</time>
      </trkpt>
      <trkpt lat="47.07774" lon="16.09391">
        <ele>283.807877</ele>
        <time>2026-07-08T12:57:03.000Z</time>
      </trkpt>
      <trkpt lat="47.07772" lon="16.09384">
        <ele>283.790081</ele>
        <time>2026-07-08T12:57:04.000Z</time>
      </trkpt>
      <trkpt lat="47.07771" lon="16.09377">
        <ele>283.772599</ele>
        <time>2026-07-08T12:57:05.000Z</time>
      </trkpt>
      <trkpt lat="47.0777" lon="16.09369">
        <ele>283.754163</ele>
        <time>2026-07-08T12:57:06.000Z</time>
      </trkpt>
      <trkpt lat="47.07768" lon="16.09362">
        <ele>283.736367</ele>
        <time>2026-07-08T12:57:07.000Z</time>
      </trkpt>
      <trkpt lat="47.07767" lon="16.09354">
        <ele>283.717114</ele>
        <time>2026-07-08T12:57:08.000Z</time>
      </trkpt>
      <trkpt lat="47.07766" lon="16.09346">
        <ele>283.708042</ele>
        <time>2026-07-08T12:57:09.000Z</time>
      </trkpt>
      <trkpt lat="47.07764" lon="16.09337">
        <ele>283.716811</ele>
        <time>2026-07-08T12:57:10.000Z</time>
      </trkpt>
      <trkpt lat="47.07763" lon="16.09329">
        <ele>283.725481</ele>
        <time>2026-07-08T12:57:11.000Z</time>
      </trkpt>
      <trkpt lat="47.07761" lon="16.09321">
        <ele>283.733982</ele>
        <time>2026-07-08T12:57:12.000Z</time>
      </trkpt>
      <trkpt lat="47.0776" lon="16.09313">
        <ele>283.742323</ele>
        <time>2026-07-08T12:57:13.000Z</time>
      </trkpt>
      <trkpt lat="47.07759" lon="16.09305">
        <ele>283.750235</ele>
        <time>2026-07-08T12:57:14.000Z</time>
      </trkpt>
      <trkpt lat="47.07757" lon="16.09298">
        <ele>283.757915</ele>
        <time>2026-07-08T12:57:15.000Z</time>
      </trkpt>
      <trkpt lat="47.07756" lon="16.09291">
        <ele>283.765169</ele>
        <time>2026-07-08T12:57:16.000Z</time>
      </trkpt>
      <trkpt lat="47.07755" lon="16.09284">
        <ele>283.772342</ele>
        <time>2026-07-08T12:57:17.000Z</time>
      </trkpt>
      <trkpt lat="47.07754" lon="16.09277">
        <ele>283.779474</ele>
        <time>2026-07-08T12:57:18.000Z</time>
      </trkpt>
      <trkpt lat="47.07752" lon="16.0927">
        <ele>283.786702</ele>
        <time>2026-07-08T12:57:19.000Z</time>
      </trkpt>
      <trkpt lat="47.07751" lon="16.09264">
        <ele>283.793795</ele>
        <time>2026-07-08T12:57:20.000Z</time>
      </trkpt>
      <trkpt lat="47.0775" lon="16.09257">
        <ele>283.800888</ele>
        <time>2026-07-08T12:57:21.000Z</time>
      </trkpt>
      <trkpt lat="47.07749" lon="16.0925">
        <ele>283.807847</ele>
        <time>2026-07-08T12:57:22.000Z</time>
      </trkpt>
      <trkpt lat="47.07747" lon="16.09243">
        <ele>283.814923</ele>
        <time>2026-07-08T12:57:23.000Z</time>
      </trkpt>
      <trkpt lat="47.07746" lon="16.09237">
        <ele>283.821902</ele>
        <time>2026-07-08T12:57:24.000Z</time>
      </trkpt>
      <trkpt lat="47.07744" lon="16.0923">
        <ele>283.829044</ele>
        <time>2026-07-08T12:57:25.000Z</time>
      </trkpt>
      <trkpt lat="47.07742" lon="16.09224">
        <ele>283.836246</ele>
        <time>2026-07-08T12:57:26.000Z</time>
      </trkpt>
      <trkpt lat="47.0774" lon="16.09217">
        <ele>283.84332</ele>
        <time>2026-07-08T12:57:27.000Z</time>
      </trkpt>
      <trkpt lat="47.07739" lon="16.0921">
        <ele>283.850729</ele>
        <time>2026-07-08T12:57:28.000Z</time>
      </trkpt>
      <trkpt lat="47.07737" lon="16.09204">
        <ele>283.858043</ele>
        <time>2026-07-08T12:57:29.000Z</time>
      </trkpt>
      <trkpt lat="47.07735" lon="16.09197">
        <ele>283.865499</ele>
        <time>2026-07-08T12:57:30.000Z</time>
      </trkpt>
      <trkpt lat="47.07734" lon="16.09189">
        <ele>283.873193</ele>
        <time>2026-07-08T12:57:31.000Z</time>
      </trkpt>
      <trkpt lat="47.07732" lon="16.09182">
        <ele>283.880699</ele>
        <time>2026-07-08T12:57:32.000Z</time>
      </trkpt>
      <trkpt lat="47.07731" lon="16.09175">
        <ele>283.888513</ele>
        <time>2026-07-08T12:57:33.000Z</time>
      </trkpt>
      <trkpt lat="47.07729" lon="16.09167">
        <ele>283.896309</ele>
        <time>2026-07-08T12:57:34.000Z</time>
      </trkpt>
      <trkpt lat="47.07728" lon="16.0916">
        <ele>283.904008</ele>
        <time>2026-07-08T12:57:35.000Z</time>
      </trkpt>
      <trkpt lat="47.07726" lon="16.09153">
        <ele>283.911708</ele>
        <time>2026-07-08T12:57:36.000Z</time>
      </trkpt>
      <trkpt lat="47.07725" lon="16.09146">
        <ele>283.919212</ele>
        <time>2026-07-08T12:57:37.000Z</time>
      </trkpt>
      <trkpt lat="47.07723" lon="16.09139">
        <ele>283.926906</ele>
        <time>2026-07-08T12:57:38.000Z</time>
      </trkpt>
      <trkpt lat="47.07722" lon="16.09131">
        <ele>283.934427</ele>
        <time>2026-07-08T12:57:39.000Z</time>
      </trkpt>
      <trkpt lat="47.0772" lon="16.09124">
        <ele>283.941933</ele>
        <time>2026-07-08T12:57:40.000Z</time>
      </trkpt>
      <trkpt lat="47.07719" lon="16.09117">
        <ele>283.949343</ele>
        <time>2026-07-08T12:57:41.000Z</time>
      </trkpt>
      <trkpt lat="47.07717" lon="16.0911">
        <ele>283.957038</ele>
        <time>2026-07-08T12:57:42.000Z</time>
      </trkpt>
      <trkpt lat="47.07715" lon="16.09103">
        <ele>283.96464</ele>
        <time>2026-07-08T12:57:43.000Z</time>
      </trkpt>
      <trkpt lat="47.07714" lon="16.09096">
        <ele>283.973509</ele>
        <time>2026-07-08T12:57:44.000Z</time>
      </trkpt>
      <trkpt lat="47.07712" lon="16.09089">
        <ele>283.996932</ele>
        <time>2026-07-08T12:57:45.000Z</time>
      </trkpt>
      <trkpt lat="47.07711" lon="16.09081">
        <ele>284.020652</ele>
        <time>2026-07-08T12:57:46.000Z</time>
      </trkpt>
      <trkpt lat="47.07709" lon="16.09074">
        <ele>284.044947</ele>
        <time>2026-07-08T12:57:47.000Z</time>
      </trkpt>
      <trkpt lat="47.07708" lon="16.09067">
        <ele>284.067775</ele>
        <time>2026-07-08T12:57:48.000Z</time>
      </trkpt>
      <trkpt lat="47.07706" lon="16.0906">
        <ele>284.090901</ele>
        <time>2026-07-08T12:57:49.000Z</time>
      </trkpt>
      <trkpt lat="47.07705" lon="16.09052">
        <ele>284.114674</ele>
        <time>2026-07-08T12:57:50.000Z</time>
      </trkpt>
      <trkpt lat="47.07703" lon="16.09045">
        <ele>284.13737</ele>
        <time>2026-07-08T12:57:51.000Z</time>
      </trkpt>
      <trkpt lat="47.07702" lon="16.09038">
        <ele>284.159941</ele>
        <time>2026-07-08T12:57:52.000Z</time>
      </trkpt>
      <trkpt lat="47.07701" lon="16.09031">
        <ele>284.182769</ele>
        <time>2026-07-08T12:57:53.000Z</time>
      </trkpt>
      <trkpt lat="47.07699" lon="16.09024">
        <ele>284.205889</ele>
        <time>2026-07-08T12:57:54.000Z</time>
      </trkpt>
      <trkpt lat="47.07697" lon="16.09018">
        <ele>284.228124</ele>
        <time>2026-07-08T12:57:55.000Z</time>
      </trkpt>
      <trkpt lat="47.07696" lon="16.09011">
        <ele>284.250064</ele>
        <time>2026-07-08T12:57:56.000Z</time>
      </trkpt>
      <trkpt lat="47.07694" lon="16.09005">
        <ele>284.270826</ele>
        <time>2026-07-08T12:57:57.000Z</time>
      </trkpt>
      <trkpt lat="47.07693" lon="16.08998">
        <ele>284.291304</ele>
        <time>2026-07-08T12:57:58.000Z</time>
      </trkpt>
      <trkpt lat="47.07692" lon="16.08992">
        <ele>284.311955</ele>
        <time>2026-07-08T12:57:59.000Z</time>
      </trkpt>
      <trkpt lat="47.07691" lon="16.08986">
        <ele>284.331585</ele>
        <time>2026-07-08T12:58:00.000Z</time>
      </trkpt>
      <trkpt lat="47.07689" lon="16.08979">
        <ele>284.352792</ele>
        <time>2026-07-08T12:58:01.000Z</time>
      </trkpt>
      <trkpt lat="47.07688" lon="16.08973">
        <ele>284.374001</ele>
        <time>2026-07-08T12:58:02.000Z</time>
      </trkpt>
      <trkpt lat="47.07686" lon="16.08966">
        <ele>284.396006</ele>
        <time>2026-07-08T12:58:03.000Z</time>
      </trkpt>
      <trkpt lat="47.07684" lon="16.0896">
        <ele>284.41765</ele>
        <time>2026-07-08T12:58:04.000Z</time>
      </trkpt>
      <trkpt lat="47.07683" lon="16.08953">
        <ele>284.440325</ele>
        <time>2026-07-08T12:58:05.000Z</time>
      </trkpt>
      <trkpt lat="47.07681" lon="16.08946">
        <ele>284.46183</ele>
        <time>2026-07-08T12:58:06.000Z</time>
      </trkpt>
      <trkpt lat="47.0768" lon="16.08939">
        <ele>284.484401</ele>
        <time>2026-07-08T12:58:07.000Z</time>
      </trkpt>
      <trkpt lat="47.07679" lon="16.08932">
        <ele>284.506672</ele>
        <time>2026-07-08T12:58:08.000Z</time>
      </trkpt>
      <trkpt lat="47.07677" lon="16.08925">
        <ele>284.529667</ele>
        <time>2026-07-08T12:58:09.000Z</time>
      </trkpt>
      <trkpt lat="47.07676" lon="16.08918">
        <ele>284.552495</ele>
        <time>2026-07-08T12:58:10.000Z</time>
      </trkpt>
      <trkpt lat="47.07674" lon="16.08911">
        <ele>284.575918</ele>
        <time>2026-07-08T12:58:11.000Z</time>
      </trkpt>
      <trkpt lat="47.07673" lon="16.08904">
        <ele>284.599478</ele>
        <time>2026-07-08T12:58:12.000Z</time>
      </trkpt>
      <trkpt lat="47.0767" lon="16.08889">
        <ele>284.647191</ele>
        <time>2026-07-08T12:58:14.000Z</time>
      </trkpt>
      <trkpt lat="47.07668" lon="16.08882">
        <ele>284.671781</ele>
        <time>2026-07-08T12:58:15.000Z</time>
      </trkpt>
      <trkpt lat="47.07665" lon="16.08867">
        <ele>284.720819</ele>
        <time>2026-07-08T12:58:17.000Z</time>
      </trkpt>
      <trkpt lat="47.07661" lon="16.08852">
        <ele>284.770145</ele>
        <time>2026-07-08T12:58:18.000Z</time>
      </trkpt>
      <trkpt lat="47.0766" lon="16.08844">
        <ele>284.794519</ele>
        <time>2026-07-08T12:58:20.000Z</time>
      </trkpt>
      <trkpt lat="47.07656" lon="16.0883">
        <ele>284.845125</ele>
        <time>2026-07-08T12:58:21.000Z</time>
      </trkpt>
      <trkpt lat="47.07655" lon="16.08822">
        <ele>284.869905</ele>
        <time>2026-07-08T12:58:22.000Z</time>
      </trkpt>
      <trkpt lat="47.07653" lon="16.08815">
        <ele>284.895284</ele>
        <time>2026-07-08T12:58:23.000Z</time>
      </trkpt>
      <trkpt lat="47.07651" lon="16.08808">
        <ele>284.919904</ele>
        <time>2026-07-08T12:58:24.000Z</time>
      </trkpt>
      <trkpt lat="47.07649" lon="16.08801">
        <ele>284.944219</ele>
        <time>2026-07-08T12:58:26.000Z</time>
      </trkpt>
      <trkpt lat="47.07645" lon="16.08787">
        <ele>284.993074</ele>
        <time>2026-07-08T12:58:27.000Z</time>
      </trkpt>
      <trkpt lat="47.07644" lon="16.0878">
        <ele>285.017069</ele>
        <time>2026-07-08T12:58:28.000Z</time>
      </trkpt>
      <trkpt lat="47.07642" lon="16.08773">
        <ele>285.040355</ele>
        <time>2026-07-08T12:58:29.000Z</time>
      </trkpt>
      <trkpt lat="47.0764" lon="16.08767">
        <ele>285.062857</ele>
        <time>2026-07-08T12:58:30.000Z</time>
      </trkpt>
      <trkpt lat="47.07639" lon="16.08761">
        <ele>285.0827</ele>
        <time>2026-07-08T12:58:31.000Z</time>
      </trkpt>
      <trkpt lat="47.07638" lon="16.08756">
        <ele>285.100851</ele>
        <time>2026-07-08T12:58:32.000Z</time>
      </trkpt>
      <trkpt lat="47.07637" lon="16.08751">
        <ele>285.116594</ele>
        <time>2026-07-08T12:58:33.000Z</time>
      </trkpt>
      <trkpt lat="47.07636" lon="16.08747">
        <ele>285.130962</ele>
        <time>2026-07-08T12:58:34.000Z</time>
      </trkpt>
      <trkpt lat="47.07635" lon="16.08743">
        <ele>285.144069</ele>
        <time>2026-07-08T12:58:35.000Z</time>
      </trkpt>
      <trkpt lat="47.07635" lon="16.08739">
        <ele>285.156646</ele>
        <time>2026-07-08T12:58:37.000Z</time>
      </trkpt>
      <trkpt lat="47.07633" lon="16.08731">
        <ele>285.183119</ele>
        <time>2026-07-08T12:58:38.000Z</time>
      </trkpt>
      <trkpt lat="47.07632" lon="16.08727">
        <ele>285.198315</ele>
        <time>2026-07-08T12:58:39.000Z</time>
      </trkpt>
      <trkpt lat="47.0763" lon="16.08723">
        <ele>285.215829</ele>
        <time>2026-07-08T12:58:40.000Z</time>
      </trkpt>
      <trkpt lat="47.07627" lon="16.08719">
        <ele>285.235386</ele>
        <time>2026-07-08T12:58:41.000Z</time>
      </trkpt>
      <trkpt lat="47.07623" lon="16.08715">
        <ele>285.256388</ele>
        <time>2026-07-08T12:58:42.000Z</time>
      </trkpt>
      <trkpt lat="47.07619" lon="16.08713">
        <ele>285.277396</ele>
        <time>2026-07-08T12:58:43.000Z</time>
      </trkpt>
      <trkpt lat="47.07614" lon="16.08711">
        <ele>285.299831</ele>
        <time>2026-07-08T12:58:44.000Z</time>
      </trkpt>
      <trkpt lat="47.0761" lon="16.08709">
        <ele>285.323122</ele>
        <time>2026-07-08T12:58:45.000Z</time>
      </trkpt>
      <trkpt lat="47.07605" lon="16.08708">
        <ele>285.346474</ele>
        <time>2026-07-08T12:58:46.000Z</time>
      </trkpt>
      <trkpt lat="47.076" lon="16.08707">
        <ele>285.371544</ele>
        <time>2026-07-08T12:58:47.000Z</time>
      </trkpt>
      <trkpt lat="47.07594" lon="16.08705">
        <ele>285.396832</ele>
        <time>2026-07-08T12:58:48.000Z</time>
      </trkpt>
      <trkpt lat="47.07589" lon="16.08703">
        <ele>285.422866</ele>
        <time>2026-07-08T12:58:49.000Z</time>
      </trkpt>
      <trkpt lat="47.07584" lon="16.08701">
        <ele>285.448516</ele>
        <time>2026-07-08T12:58:50.000Z</time>
      </trkpt>
      <trkpt lat="47.07579" lon="16.08699">
        <ele>285.473791</ele>
        <time>2026-07-08T12:58:51.000Z</time>
      </trkpt>
      <trkpt lat="47.07573" lon="16.08697">
        <ele>285.500366</ele>
        <time>2026-07-08T12:58:52.000Z</time>
      </trkpt>
      <trkpt lat="47.07568" lon="16.08695">
        <ele>285.526479</ele>
        <time>2026-07-08T12:58:53.000Z</time>
      </trkpt>
      <trkpt lat="47.07563" lon="16.08693">
        <ele>285.552761</ele>
        <time>2026-07-08T12:58:54.000Z</time>
      </trkpt>
      <trkpt lat="47.07557" lon="16.08691">
        <ele>285.58005</ele>
        <time>2026-07-08T12:58:55.000Z</time>
      </trkpt>
      <trkpt lat="47.07552" lon="16.08689">
        <ele>285.607251</ele>
        <time>2026-07-08T12:58:56.000Z</time>
      </trkpt>
      <trkpt lat="47.07546" lon="16.08686">
        <ele>285.635459</ele>
        <time>2026-07-08T12:58:57.000Z</time>
      </trkpt>
      <trkpt lat="47.07541" lon="16.08684">
        <ele>285.664871</ele>
        <time>2026-07-08T12:58:58.000Z</time>
      </trkpt>
      <trkpt lat="47.07535" lon="16.08682">
        <ele>285.69744</ele>
        <time>2026-07-08T12:58:59.000Z</time>
      </trkpt>
      <trkpt lat="47.07529" lon="16.0868">
        <ele>285.730922</ele>
        <time>2026-07-08T12:59:00.000Z</time>
      </trkpt>
      <trkpt lat="47.07524" lon="16.08678">
        <ele>285.762186</ele>
        <time>2026-07-08T12:59:01.000Z</time>
      </trkpt>
      <trkpt lat="47.07519" lon="16.08676">
        <ele>285.794654</ele>
        <time>2026-07-08T12:59:02.000Z</time>
      </trkpt>
      <trkpt lat="47.07513" lon="16.08673">
        <ele>285.827436</ele>
        <time>2026-07-08T12:59:03.000Z</time>
      </trkpt>
      <trkpt lat="47.07508" lon="16.08671">
        <ele>285.858799</ele>
        <time>2026-07-08T12:59:04.000Z</time>
      </trkpt>
      <trkpt lat="47.07502" lon="16.08669">
        <ele>285.891172</ele>
        <time>2026-07-08T12:59:05.000Z</time>
      </trkpt>
      <trkpt lat="47.07497" lon="16.08667">
        <ele>285.924654</ele>
        <time>2026-07-08T12:59:06.000Z</time>
      </trkpt>
      <trkpt lat="47.07491" lon="16.08665">
        <ele>285.958137</ele>
        <time>2026-07-08T12:59:07.000Z</time>
      </trkpt>
      <trkpt lat="47.07485" lon="16.08663">
        <ele>285.990509</ele>
        <time>2026-07-08T12:59:08.000Z</time>
      </trkpt>
      <trkpt lat="47.0748" lon="16.08661">
        <ele>286.023077</ele>
        <time>2026-07-08T12:59:09.000Z</time>
      </trkpt>
      <trkpt lat="47.07474" lon="16.08659">
        <ele>286.05575</ele>
        <time>2026-07-08T12:59:10.000Z</time>
      </trkpt>
      <trkpt lat="47.07469" lon="16.08656">
        <ele>286.087554</ele>
        <time>2026-07-08T12:59:11.000Z</time>
      </trkpt>
      <trkpt lat="47.07464" lon="16.08654">
        <ele>286.119021</ele>
        <time>2026-07-08T12:59:12.000Z</time>
      </trkpt>
      <trkpt lat="47.07458" lon="16.08652">
        <ele>286.150839</ele>
        <time>2026-07-08T12:59:13.000Z</time>
      </trkpt>
      <trkpt lat="47.07453" lon="16.0865">
        <ele>286.181834</ele>
        <time>2026-07-08T12:59:14.000Z</time>
      </trkpt>
      <trkpt lat="47.07448" lon="16.08648">
        <ele>286.214206</ele>
        <time>2026-07-08T12:59:15.000Z</time>
      </trkpt>
      <trkpt lat="47.07442" lon="16.08646">
        <ele>286.245019</ele>
        <time>2026-07-08T12:59:16.000Z</time>
      </trkpt>
      <trkpt lat="47.07437" lon="16.08644">
        <ele>286.275178</ele>
        <time>2026-07-08T12:59:17.000Z</time>
      </trkpt>
      <trkpt lat="47.07432" lon="16.08643">
        <ele>286.305614</ele>
        <time>2026-07-08T12:59:18.000Z</time>
      </trkpt>
      <trkpt lat="47.07427" lon="16.08641">
        <ele>286.334936</ele>
        <time>2026-07-08T12:59:19.000Z</time>
      </trkpt>
      <trkpt lat="47.07422" lon="16.08639">
        <ele>286.364349</ele>
        <time>2026-07-08T12:59:20.000Z</time>
      </trkpt>
      <trkpt lat="47.07417" lon="16.08637">
        <ele>286.394526</ele>
        <time>2026-07-08T12:59:21.000Z</time>
      </trkpt>
      <trkpt lat="47.07412" lon="16.08634">
        <ele>286.423893</ele>
        <time>2026-07-08T12:59:22.000Z</time>
      </trkpt>
      <trkpt lat="47.07407" lon="16.08632">
        <ele>286.453829</ele>
        <time>2026-07-08T12:59:23.000Z</time>
      </trkpt>
      <trkpt lat="47.07402" lon="16.08629">
        <ele>286.48322</ele>
        <time>2026-07-08T12:59:24.000Z</time>
      </trkpt>
      <trkpt lat="47.07397" lon="16.08627">
        <ele>286.513041</ele>
        <time>2026-07-08T12:59:25.000Z</time>
      </trkpt>
      <trkpt lat="47.07392" lon="16.08625">
        <ele>286.542648</ele>
        <time>2026-07-08T12:59:26.000Z</time>
      </trkpt>
      <trkpt lat="47.07387" lon="16.08623">
        <ele>286.573018</ele>
        <time>2026-07-08T12:59:27.000Z</time>
      </trkpt>
      <trkpt lat="47.07382" lon="16.08621">
        <ele>286.604933</ele>
        <time>2026-07-08T12:59:28.000Z</time>
      </trkpt>
      <trkpt lat="47.07377" lon="16.08619">
        <ele>286.635092</ele>
        <time>2026-07-08T12:59:29.000Z</time>
      </trkpt>
      <trkpt lat="47.07371" lon="16.08617">
        <ele>286.666817</ele>
        <time>2026-07-08T12:59:30.000Z</time>
      </trkpt>
      <trkpt lat="47.07366" lon="16.08615">
        <ele>286.702955</ele>
        <time>2026-07-08T12:59:31.000Z</time>
      </trkpt>
      <trkpt lat="47.07361" lon="16.08614">
        <ele>286.744395</ele>
        <time>2026-07-08T12:59:32.000Z</time>
      </trkpt>
      <trkpt lat="47.07356" lon="16.08612">
        <ele>286.785954</ele>
        <time>2026-07-08T12:59:33.000Z</time>
      </trkpt>
      <trkpt lat="47.07351" lon="16.0861">
        <ele>286.826557</ele>
        <time>2026-07-08T12:59:34.000Z</time>
      </trkpt>
      <trkpt lat="47.07346" lon="16.08608">
        <ele>286.866868</ele>
        <time>2026-07-08T12:59:35.000Z</time>
      </trkpt>
      <trkpt lat="47.07341" lon="16.08606">
        <ele>286.906914</ele>
        <time>2026-07-08T12:59:36.000Z</time>
      </trkpt>
      <trkpt lat="47.07336" lon="16.08604">
        <ele>286.947089</ele>
        <time>2026-07-08T12:59:37.000Z</time>
      </trkpt>
      <trkpt lat="47.07331" lon="16.08602">
        <ele>286.987657</ele>
        <time>2026-07-08T12:59:38.000Z</time>
      </trkpt>
      <trkpt lat="47.07326" lon="16.08601">
        <ele>287.027354</ele>
        <time>2026-07-08T12:59:39.000Z</time>
      </trkpt>
      <trkpt lat="47.07321" lon="16.08599">
        <ele>287.068577</ele>
        <time>2026-07-08T12:59:40.000Z</time>
      </trkpt>
      <trkpt lat="47.07315" lon="16.08597">
        <ele>287.11026</ele>
        <time>2026-07-08T12:59:41.000Z</time>
      </trkpt>
      <trkpt lat="47.0731" lon="16.08596">
        <ele>287.151062</ele>
        <time>2026-07-08T12:59:42.000Z</time>
      </trkpt>
      <trkpt lat="47.07305" lon="16.08594">
        <ele>287.193813</ele>
        <time>2026-07-08T12:59:43.000Z</time>
      </trkpt>
      <trkpt lat="47.073" lon="16.08593">
        <ele>287.235799</ele>
        <time>2026-07-08T12:59:44.000Z</time>
      </trkpt>
      <trkpt lat="47.07294" lon="16.08591">
        <ele>287.279315</ele>
        <time>2026-07-08T12:59:45.000Z</time>
      </trkpt>
      <trkpt lat="47.07289" lon="16.0859">
        <ele>287.32283</ele>
        <time>2026-07-08T12:59:46.000Z</time>
      </trkpt>
      <trkpt lat="47.07283" lon="16.08588">
        <ele>287.364816</ele>
        <time>2026-07-08T12:59:47.000Z</time>
      </trkpt>
      <trkpt lat="47.07278" lon="16.08587">
        <ele>287.407383</ele>
        <time>2026-07-08T12:59:48.000Z</time>
      </trkpt>
      <trkpt lat="47.07273" lon="16.08586">
        <ele>287.447407</ele>
        <time>2026-07-08T12:59:49.000Z</time>
      </trkpt>
      <trkpt lat="47.07268" lon="16.08585">
        <ele>287.488026</ele>
        <time>2026-07-08T12:59:50.000Z</time>
      </trkpt>
      <trkpt lat="47.07263" lon="16.08584">
        <ele>287.527279</ele>
        <time>2026-07-08T12:59:51.000Z</time>
      </trkpt>
      <trkpt lat="47.07258" lon="16.08583">
        <ele>287.566532</ele>
        <time>2026-07-08T12:59:52.000Z</time>
      </trkpt>
      <trkpt lat="47.07253" lon="16.08582">
        <ele>287.605656</ele>
        <time>2026-07-08T12:59:53.000Z</time>
      </trkpt>
      <trkpt lat="47.07248" lon="16.08582">
        <ele>287.644641</ele>
        <time>2026-07-08T12:59:54.000Z</time>
      </trkpt>
      <trkpt lat="47.07242" lon="16.08581">
        <ele>287.68526</ele>
        <time>2026-07-08T12:59:55.000Z</time>
      </trkpt>
      <trkpt lat="47.07237" lon="16.0858">
        <ele>287.725158</ele>
        <time>2026-07-08T12:59:56.000Z</time>
      </trkpt>
      <trkpt lat="47.07232" lon="16.08579">
        <ele>287.765953</ele>
        <time>2026-07-08T12:59:57.000Z</time>
      </trkpt>
      <trkpt lat="47.07227" lon="16.08579">
        <ele>287.806572</ele>
        <time>2026-07-08T12:59:58.000Z</time>
      </trkpt>
      <trkpt lat="47.07222" lon="16.08578">
        <ele>287.848017</ele>
        <time>2026-07-08T12:59:59.000Z</time>
      </trkpt>
      <trkpt lat="47.07216" lon="16.08577">
        <ele>287.889411</ele>
        <time>2026-07-08T13:00:00.000Z</time>
      </trkpt>
      <trkpt lat="47.07211" lon="16.08576">
        <ele>287.93003</ele>
        <time>2026-07-08T13:00:01.000Z</time>
      </trkpt>
      <trkpt lat="47.07206" lon="16.08576">
        <ele>287.971343</ele>
        <time>2026-07-08T13:00:02.000Z</time>
      </trkpt>
      <trkpt lat="47.07201" lon="16.08576">
        <ele>288.010269</ele>
        <time>2026-07-08T13:00:03.000Z</time>
      </trkpt>
      <trkpt lat="47.07196" lon="16.08575">
        <ele>288.049196</ele>
        <time>2026-07-08T13:00:04.000Z</time>
      </trkpt>
      <trkpt lat="47.07191" lon="16.08575">
        <ele>288.090186</ele>
        <time>2026-07-08T13:00:05.000Z</time>
      </trkpt>
      <trkpt lat="47.07186" lon="16.08575">
        <ele>288.136383</ele>
        <time>2026-07-08T13:00:06.000Z</time>
      </trkpt>
      <trkpt lat="47.07181" lon="16.08576">
        <ele>288.178823</ele>
        <time>2026-07-08T13:00:07.000Z</time>
      </trkpt>
      <trkpt lat="47.07177" lon="16.08575">
        <ele>288.218004</ele>
        <time>2026-07-08T13:00:08.000Z</time>
      </trkpt>
      <trkpt lat="47.07174" lon="16.08572">
        <ele>288.255578</ele>
        <time>2026-07-08T13:00:09.000Z</time>
      </trkpt>
      <trkpt lat="47.07172" lon="16.08567">
        <ele>288.289746</ele>
        <time>2026-07-08T13:00:10.000Z</time>
      </trkpt>
      <trkpt lat="47.07172" lon="16.08562">
        <ele>288.325059</ele>
        <time>2026-07-08T13:00:11.000Z</time>
      </trkpt>
      <trkpt lat="47.07172" lon="16.08556">
        <ele>288.361765</ele>
        <time>2026-07-08T13:00:12.000Z</time>
      </trkpt>
      <trkpt lat="47.07173" lon="16.08551">
        <ele>288.396428</ele>
        <time>2026-07-08T13:00:13.000Z</time>
      </trkpt>
      <trkpt lat="47.07174" lon="16.08545">
        <ele>288.431739</ele>
        <time>2026-07-08T13:00:14.000Z</time>
      </trkpt>
      <trkpt lat="47.07175" lon="16.0854">
        <ele>288.464715</ele>
        <time>2026-07-08T13:00:15.000Z</time>
      </trkpt>
      <trkpt lat="47.07176" lon="16.08535">
        <ele>288.500409</ele>
        <time>2026-07-08T13:00:16.000Z</time>
      </trkpt>
      <trkpt lat="47.07176" lon="16.08529">
        <ele>288.536173</ele>
        <time>2026-07-08T13:00:17.000Z</time>
      </trkpt>
      <trkpt lat="47.07177" lon="16.08524">
        <ele>288.570526</ele>
        <time>2026-07-08T13:00:18.000Z</time>
      </trkpt>
      <trkpt lat="47.07177" lon="16.08519">
        <ele>288.60488</ele>
        <time>2026-07-08T13:00:19.000Z</time>
      </trkpt>
      <trkpt lat="47.07178" lon="16.08514">
        <ele>288.637025</ele>
        <time>2026-07-08T13:00:20.000Z</time>
      </trkpt>
      <trkpt lat="47.07179" lon="16.08509">
        <ele>288.668543</ele>
        <time>2026-07-08T13:00:21.000Z</time>
      </trkpt>
      <trkpt lat="47.07179" lon="16.08504">
        <ele>288.699876</ele>
        <time>2026-07-08T13:00:22.000Z</time>
      </trkpt>
      <trkpt lat="47.0718" lon="16.08499">
        <ele>288.735806</ele>
        <time>2026-07-08T13:00:23.000Z</time>
      </trkpt>
      <trkpt lat="47.07181" lon="16.08494">
        <ele>288.770876</ele>
        <time>2026-07-08T13:00:24.000Z</time>
      </trkpt>
      <trkpt lat="47.07182" lon="16.08488">
        <ele>288.805731</ele>
        <time>2026-07-08T13:00:25.000Z</time>
      </trkpt>
      <trkpt lat="47.07183" lon="16.08483">
        <ele>288.841357</ele>
        <time>2026-07-08T13:00:26.000Z</time>
      </trkpt>
      <trkpt lat="47.07183" lon="16.08477">
        <ele>288.877281</ele>
        <time>2026-07-08T13:00:27.000Z</time>
      </trkpt>
      <trkpt lat="47.07184" lon="16.08472">
        <ele>288.912271</ele>
        <time>2026-07-08T13:00:28.000Z</time>
      </trkpt>
      <trkpt lat="47.07184" lon="16.08467">
        <ele>288.945353</ele>
        <time>2026-07-08T13:00:29.000Z</time>
      </trkpt>
      <trkpt lat="47.07185" lon="16.08462">
        <ele>288.979071</ele>
        <time>2026-07-08T13:00:30.000Z</time>
      </trkpt>
      <trkpt lat="47.07185" lon="16.08457">
        <ele>289.011298</ele>
        <time>2026-07-08T13:00:31.000Z</time>
      </trkpt>
      <trkpt lat="47.07185" lon="16.08452">
        <ele>289.040252</ele>
        <time>2026-07-08T13:00:32.000Z</time>
      </trkpt>
      <trkpt lat="47.07186" lon="16.08448">
        <ele>289.068005</ele>
        <time>2026-07-08T13:00:33.000Z</time>
      </trkpt>
      <trkpt lat="47.07186" lon="16.08444">
        <ele>289.0939</ele>
        <time>2026-07-08T13:00:34.000Z</time>
      </trkpt>
      <trkpt lat="47.07187" lon="16.0844">
        <ele>289.119437</ele>
        <time>2026-07-08T13:00:35.000Z</time>
      </trkpt>
      <trkpt lat="47.07188" lon="16.08436">
        <ele>289.149273</ele>
        <time>2026-07-08T13:00:36.000Z</time>
      </trkpt>
      <trkpt lat="47.0719" lon="16.08431">
        <ele>289.180657</ele>
        <time>2026-07-08T13:00:37.000Z</time>
      </trkpt>
      <trkpt lat="47.07191" lon="16.08426">
        <ele>289.21442</ele>
        <time>2026-07-08T13:00:38.000Z</time>
      </trkpt>
      <trkpt lat="47.07192" lon="16.08421">
        <ele>289.250088</ele>
        <time>2026-07-08T13:00:39.000Z</time>
      </trkpt>
      <trkpt lat="47.07194" lon="16.08416">
        <ele>289.285988</ele>
        <time>2026-07-08T13:00:40.000Z</time>
      </trkpt>
      <trkpt lat="47.07195" lon="16.08411">
        <ele>289.321562</ele>
        <time>2026-07-08T13:00:41.000Z</time>
      </trkpt>
      <trkpt lat="47.07196" lon="16.08405">
        <ele>289.357486</ele>
        <time>2026-07-08T13:00:42.000Z</time>
      </trkpt>
      <trkpt lat="47.07196" lon="16.08399">
        <ele>289.395473</ele>
        <time>2026-07-08T13:00:43.000Z</time>
      </trkpt>
      <trkpt lat="47.07196" lon="16.08393">
        <ele>289.433996</ele>
        <time>2026-07-08T13:00:44.000Z</time>
      </trkpt>
      <trkpt lat="47.07196" lon="16.08387">
        <ele>289.47253</ele>
        <time>2026-07-08T13:00:45.000Z</time>
      </trkpt>
      <trkpt lat="47.07195" lon="16.08381">
        <ele>289.511615</ele>
        <time>2026-07-08T13:00:46.000Z</time>
      </trkpt>
      <trkpt lat="47.07194" lon="16.08375">
        <ele>289.550699</ele>
        <time>2026-07-08T13:00:47.000Z</time>
      </trkpt>
      <trkpt lat="47.07194" lon="16.0837">
        <ele>289.588235</ele>
        <time>2026-07-08T13:00:48.000Z</time>
      </trkpt>
      <trkpt lat="47.07193" lon="16.08364">
        <ele>289.625901</ele>
        <time>2026-07-08T13:00:49.000Z</time>
      </trkpt>
      <trkpt lat="47.07193" lon="16.08358">
        <ele>289.662547</ele>
        <time>2026-07-08T13:00:50.000Z</time>
      </trkpt>
      <trkpt lat="47.07194" lon="16.08353">
        <ele>289.698407</ele>
        <time>2026-07-08T13:00:51.000Z</time>
      </trkpt>
      <trkpt lat="47.07196" lon="16.08348">
        <ele>289.733027</ele>
        <time>2026-07-08T13:00:52.000Z</time>
      </trkpt>
      <trkpt lat="47.07198" lon="16.08344">
        <ele>289.767046</ele>
        <time>2026-07-08T13:00:53.000Z</time>
      </trkpt>
      <trkpt lat="47.072" lon="16.0834">
        <ele>289.776322</ele>
        <time>2026-07-08T13:00:54.000Z</time>
      </trkpt>
      <trkpt lat="47.07202" lon="16.08338">
        <ele>289.779039</ele>
        <time>2026-07-08T13:00:55.000Z</time>
      </trkpt>
      <trkpt lat="47.07204" lon="16.08336">
        <ele>289.781206</ele>
        <time>2026-07-08T13:00:56.000Z</time>
      </trkpt>
      <trkpt lat="47.07206" lon="16.08335">
        <ele>289.78291</ele>
        <time>2026-07-08T13:00:57.000Z</time>
      </trkpt>
      <trkpt lat="47.07207" lon="16.08334">
        <ele>289.784273</ele>
        <time>2026-07-08T13:00:58.000Z</time>
      </trkpt>
      <trkpt lat="47.07208" lon="16.08334">
        <ele>289.785464</ele>
        <time>2026-07-08T13:00:59.000Z</time>
      </trkpt>
      <trkpt lat="47.07209" lon="16.08333">
        <ele>289.786736</ele>
        <time>2026-07-08T13:01:00.000Z</time>
      </trkpt>
      <trkpt lat="47.07211" lon="16.08332">
        <ele>289.788726</ele>
        <time>2026-07-08T13:01:01.000Z</time>
      </trkpt>
      <trkpt lat="47.07213" lon="16.08331">
        <ele>289.791082</ele>
        <time>2026-07-08T13:01:02.000Z</time>
      </trkpt>
      <trkpt lat="47.07215" lon="16.08329">
        <ele>289.794096</ele>
        <time>2026-07-08T13:01:03.000Z</time>
      </trkpt>
      <trkpt lat="47.07218" lon="16.08326">
        <ele>289.797306</ele>
        <time>2026-07-08T13:01:04.000Z</time>
      </trkpt>
      <trkpt lat="47.07221" lon="16.08323">
        <ele>289.800974</ele>
        <time>2026-07-08T13:01:05.000Z</time>
      </trkpt>
      <trkpt lat="47.07224" lon="16.0832">
        <ele>289.804728</ele>
        <time>2026-07-08T13:01:06.000Z</time>
      </trkpt>
      <trkpt lat="47.07227" lon="16.08316">
        <ele>289.808531</ele>
        <time>2026-07-08T13:01:07.000Z</time>
      </trkpt>
      <trkpt lat="47.07229" lon="16.08312">
        <ele>289.812721</ele>
        <time>2026-07-08T13:01:08.000Z</time>
      </trkpt>
      <trkpt lat="47.07232" lon="16.08307">
        <ele>289.817052</ele>
        <time>2026-07-08T13:01:09.000Z</time>
      </trkpt>
      <trkpt lat="47.07235" lon="16.08302">
        <ele>289.821478</ele>
        <time>2026-07-08T13:01:10.000Z</time>
      </trkpt>
      <trkpt lat="47.07237" lon="16.08296">
        <ele>289.826215</ele>
        <time>2026-07-08T13:01:11.000Z</time>
      </trkpt>
      <trkpt lat="47.07238" lon="16.0829">
        <ele>289.830916</ele>
        <time>2026-07-08T13:01:12.000Z</time>
      </trkpt>
      <trkpt lat="47.07239" lon="16.08283">
        <ele>289.835747</ele>
        <time>2026-07-08T13:01:13.000Z</time>
      </trkpt>
      <trkpt lat="47.0724" lon="16.08277">
        <ele>289.840336</ele>
        <time>2026-07-08T13:01:14.000Z</time>
      </trkpt>
      <trkpt lat="47.0724" lon="16.0827">
        <ele>289.845126</ele>
        <time>2026-07-08T13:01:15.000Z</time>
      </trkpt>
      <trkpt lat="47.07239" lon="16.08263">
        <ele>289.849917</ele>
        <time>2026-07-08T13:01:16.000Z</time>
      </trkpt>
      <trkpt lat="47.07237" lon="16.08257">
        <ele>289.854817</ele>
        <time>2026-07-08T13:01:17.000Z</time>
      </trkpt>
      <trkpt lat="47.07235" lon="16.0825">
        <ele>289.859841</ele>
        <time>2026-07-08T13:01:18.000Z</time>
      </trkpt>
      <trkpt lat="47.07233" lon="16.08244">
        <ele>289.864906</ele>
        <time>2026-07-08T13:01:19.000Z</time>
      </trkpt>
      <trkpt lat="47.07229" lon="16.08239">
        <ele>289.870109</ele>
        <time>2026-07-08T13:01:20.000Z</time>
      </trkpt>
      <trkpt lat="47.07226" lon="16.08234">
        <ele>289.875159</ele>
        <time>2026-07-08T13:01:21.000Z</time>
      </trkpt>
      <trkpt lat="47.07222" lon="16.08229">
        <ele>289.880141</ele>
        <time>2026-07-08T13:01:22.000Z</time>
      </trkpt>
      <trkpt lat="47.07218" lon="16.08224">
        <ele>289.885271</ele>
        <time>2026-07-08T13:01:23.000Z</time>
      </trkpt>
      <trkpt lat="47.07215" lon="16.0822">
        <ele>289.89016</ele>
        <time>2026-07-08T13:01:24.000Z</time>
      </trkpt>
      <trkpt lat="47.07211" lon="16.08216">
        <ele>289.895204</ele>
        <time>2026-07-08T13:01:25.000Z</time>
      </trkpt>
      <trkpt lat="47.07207" lon="16.08212">
        <ele>289.90004</ele>
        <time>2026-07-08T13:01:26.000Z</time>
      </trkpt>
      <trkpt lat="47.07203" lon="16.08208">
        <ele>289.904967</ele>
        <time>2026-07-08T13:01:27.000Z</time>
      </trkpt>
      <trkpt lat="47.07199" lon="16.08204">
        <ele>289.909718</ele>
        <time>2026-07-08T13:01:28.000Z</time>
      </trkpt>
      <trkpt lat="47.07196" lon="16.082">
        <ele>289.914513</ele>
        <time>2026-07-08T13:01:29.000Z</time>
      </trkpt>
      <trkpt lat="47.07192" lon="16.08196">
        <ele>289.91944</ele>
        <time>2026-07-08T13:01:30.000Z</time>
      </trkpt>
      <trkpt lat="47.07188" lon="16.08192">
        <ele>289.924367</ele>
        <time>2026-07-08T13:01:31.000Z</time>
      </trkpt>
      <trkpt lat="47.07183" lon="16.08188">
        <ele>289.929544</ele>
        <time>2026-07-08T13:01:32.000Z</time>
      </trkpt>
      <trkpt lat="47.07179" lon="16.08184">
        <ele>289.934885</ele>
        <time>2026-07-08T13:01:33.000Z</time>
      </trkpt>
      <trkpt lat="47.07175" lon="16.0818">
        <ele>289.940226</ele>
        <time>2026-07-08T13:01:34.000Z</time>
      </trkpt>
      <trkpt lat="47.0717" lon="16.08176">
        <ele>289.945709</ele>
        <time>2026-07-08T13:01:35.000Z</time>
      </trkpt>
      <trkpt lat="47.07166" lon="16.08172">
        <ele>289.950936</ele>
        <time>2026-07-08T13:01:36.000Z</time>
      </trkpt>
      <trkpt lat="47.07161" lon="16.08169">
        <ele>289.955983</ele>
        <time>2026-07-08T13:01:37.000Z</time>
      </trkpt>
      <trkpt lat="47.07157" lon="16.08165">
        <ele>289.966907</ele>
        <time>2026-07-08T13:01:38.000Z</time>
      </trkpt>
      <trkpt lat="47.07154" lon="16.08159">
        <ele>289.986922</ele>
        <time>2026-07-08T13:01:39.000Z</time>
      </trkpt>
      <trkpt lat="47.0715" lon="16.08154">
        <ele>290.007025</ele>
        <time>2026-07-08T13:01:40.000Z</time>
      </trkpt>
      <trkpt lat="47.07147" lon="16.08149">
        <ele>290.028699</ele>
        <time>2026-07-08T13:01:41.000Z</time>
      </trkpt>
      <trkpt lat="47.07144" lon="16.08143">
        <ele>290.047935</ele>
        <time>2026-07-08T13:01:42.000Z</time>
      </trkpt>
      <trkpt lat="47.07142" lon="16.08137">
        <ele>290.068445</ele>
        <time>2026-07-08T13:01:43.000Z</time>
      </trkpt>
      <trkpt lat="47.0714" lon="16.0813">
        <ele>290.088899</ele>
        <time>2026-07-08T13:01:44.000Z</time>
      </trkpt>
      <trkpt lat="47.07139" lon="16.08122">
        <ele>290.110546</ele>
        <time>2026-07-08T13:01:45.000Z</time>
      </trkpt>
      <trkpt lat="47.07137" lon="16.08115">
        <ele>290.132419</ele>
        <time>2026-07-08T13:01:46.000Z</time>
      </trkpt>
      <trkpt lat="47.07137" lon="16.08107">
        <ele>290.153483</ele>
        <time>2026-07-08T13:01:47.000Z</time>
      </trkpt>
      <trkpt lat="47.07137" lon="16.081">
        <ele>290.17423</ele>
        <time>2026-07-08T13:01:48.000Z</time>
      </trkpt>
      <trkpt lat="47.07138" lon="16.08093">
        <ele>290.194961</ele>
        <time>2026-07-08T13:01:49.000Z</time>
      </trkpt>
      <trkpt lat="47.07139" lon="16.08085">
        <ele>290.21607</ele>
        <time>2026-07-08T13:01:50.000Z</time>
      </trkpt>
      <trkpt lat="47.07142" lon="16.08079">
        <ele>290.237177</ele>
        <time>2026-07-08T13:01:51.000Z</time>
      </trkpt>
      <trkpt lat="47.07144" lon="16.08072">
        <ele>290.258523</ele>
        <time>2026-07-08T13:01:52.000Z</time>
      </trkpt>
      <trkpt lat="47.07147" lon="16.08066">
        <ele>290.279846</ele>
        <time>2026-07-08T13:01:53.000Z</time>
      </trkpt>
      <trkpt lat="47.0715" lon="16.0806">
        <ele>290.300941</ele>
        <time>2026-07-08T13:01:54.000Z</time>
      </trkpt>
      <trkpt lat="47.07153" lon="16.08054">
        <ele>290.322056</ele>
        <time>2026-07-08T13:01:55.000Z</time>
      </trkpt>
      <trkpt lat="47.07157" lon="16.08048">
        <ele>290.343866</ele>
        <time>2026-07-08T13:01:56.000Z</time>
      </trkpt>
      <trkpt lat="47.0716" lon="16.08042">
        <ele>290.365232</ele>
        <time>2026-07-08T13:01:57.000Z</time>
      </trkpt>
      <trkpt lat="47.07163" lon="16.08036">
        <ele>290.386347</ele>
        <time>2026-07-08T13:01:58.000Z</time>
      </trkpt>
      <trkpt lat="47.07166" lon="16.0803">
        <ele>290.407713</ele>
        <time>2026-07-08T13:01:59.000Z</time>
      </trkpt>
      <trkpt lat="47.07169" lon="16.08024">
        <ele>290.428581</ele>
        <time>2026-07-08T13:02:00.000Z</time>
      </trkpt>
      <trkpt lat="47.07172" lon="16.08017">
        <ele>290.449904</ele>
        <time>2026-07-08T13:02:01.000Z</time>
      </trkpt>
      <trkpt lat="47.07175" lon="16.08011">
        <ele>290.470528</ele>
        <time>2026-07-08T13:02:02.000Z</time>
      </trkpt>
      <trkpt lat="47.07178" lon="16.08005">
        <ele>290.491851</ele>
        <time>2026-07-08T13:02:03.000Z</time>
      </trkpt>
      <trkpt lat="47.07181" lon="16.07999">
        <ele>290.512719</ele>
        <time>2026-07-08T13:02:04.000Z</time>
      </trkpt>
      <trkpt lat="47.07184" lon="16.07993">
        <ele>290.533807</ele>
        <time>2026-07-08T13:02:05.000Z</time>
      </trkpt>
      <trkpt lat="47.07186" lon="16.07987">
        <ele>290.554249</ele>
        <time>2026-07-08T13:02:06.000Z</time>
      </trkpt>
      <trkpt lat="47.07189" lon="16.0798">
        <ele>290.574786</ele>
        <time>2026-07-08T13:02:07.000Z</time>
      </trkpt>
      <trkpt lat="47.07191" lon="16.07973">
        <ele>290.595639</ele>
        <time>2026-07-08T13:02:08.000Z</time>
      </trkpt>
      <trkpt lat="47.07193" lon="16.07967">
        <ele>290.615572</ele>
        <time>2026-07-08T13:02:09.000Z</time>
      </trkpt>
      <trkpt lat="47.07194" lon="16.0796">
        <ele>290.636146</ele>
        <time>2026-07-08T13:02:10.000Z</time>
      </trkpt>
      <trkpt lat="47.07195" lon="16.07953">
        <ele>290.656748</ele>
        <time>2026-07-08T13:02:11.000Z</time>
      </trkpt>
      <trkpt lat="47.07196" lon="16.07945">
        <ele>290.677039</ele>
        <time>2026-07-08T13:02:12.000Z</time>
      </trkpt>
      <trkpt lat="47.07196" lon="16.07938">
        <ele>290.697522</ele>
        <time>2026-07-08T13:02:13.000Z</time>
      </trkpt>
      <trkpt lat="47.07196" lon="16.07931">
        <ele>290.719397</ele>
        <time>2026-07-08T13:02:14.000Z</time>
      </trkpt>
      <trkpt lat="47.07196" lon="16.07923">
        <ele>290.741998</ele>
        <time>2026-07-08T13:02:15.000Z</time>
      </trkpt>
      <trkpt lat="47.07195" lon="16.07915">
        <ele>290.764102</ele>
        <time>2026-07-08T13:02:16.000Z</time>
      </trkpt>
      <trkpt lat="47.07195" lon="16.07908">
        <ele>290.785622</ele>
        <time>2026-07-08T13:02:17.000Z</time>
      </trkpt>
      <trkpt lat="47.07194" lon="16.079">
        <ele>290.808407</ele>
        <time>2026-07-08T13:02:18.000Z</time>
      </trkpt>
      <trkpt lat="47.07194" lon="16.07893">
        <ele>290.830444</ele>
        <time>2026-07-08T13:02:19.000Z</time>
      </trkpt>
      <trkpt lat="47.07193" lon="16.07885">
        <ele>290.852839</ele>
        <time>2026-07-08T13:02:20.000Z</time>
      </trkpt>
      <trkpt lat="47.07193" lon="16.07878">
        <ele>290.875526</ele>
        <time>2026-07-08T13:02:21.000Z</time>
      </trkpt>
      <trkpt lat="47.07192" lon="16.0787">
        <ele>290.898312</ele>
        <time>2026-07-08T13:02:22.000Z</time>
      </trkpt>
      <trkpt lat="47.07191" lon="16.07862">
        <ele>290.921291</ele>
        <time>2026-07-08T13:02:23.000Z</time>
      </trkpt>
      <trkpt lat="47.07191" lon="16.07855">
        <ele>290.943395</ele>
        <time>2026-07-08T13:02:24.000Z</time>
      </trkpt>
      <trkpt lat="47.07191" lon="16.07847">
        <ele>290.965431</ele>
        <time>2026-07-08T13:02:25.000Z</time>
      </trkpt>
      <trkpt lat="47.07191" lon="16.07839">
        <ele>290.988016</ele>
        <time>2026-07-08T13:02:26.000Z</time>
      </trkpt>
      <trkpt lat="47.0719" lon="16.07832">
        <ele>291.010325</ele>
        <time>2026-07-08T13:02:27.000Z</time>
      </trkpt>
      <trkpt lat="47.07191" lon="16.07824">
        <ele>291.032926</ele>
        <time>2026-07-08T13:02:28.000Z</time>
      </trkpt>
      <trkpt lat="47.07191" lon="16.07816">
        <ele>291.055511</ele>
        <time>2026-07-08T13:02:29.000Z</time>
      </trkpt>
      <trkpt lat="47.07191" lon="16.07809">
        <ele>291.077527</ele>
        <time>2026-07-08T13:02:30.000Z</time>
      </trkpt>
      <trkpt lat="47.07191" lon="16.07801">
        <ele>291.099529</ele>
        <time>2026-07-08T13:02:31.000Z</time>
      </trkpt>
      <trkpt lat="47.07191" lon="16.07794">
        <ele>291.121821</ele>
        <time>2026-07-08T13:02:32.000Z</time>
      </trkpt>
      <trkpt lat="47.07191" lon="16.07786">
        <ele>291.144993</ele>
        <time>2026-07-08T13:02:33.000Z</time>
      </trkpt>
      <trkpt lat="47.07191" lon="16.07778">
        <ele>291.167887</ele>
        <time>2026-07-08T13:02:34.000Z</time>
      </trkpt>
      <trkpt lat="47.07192" lon="16.0777">
        <ele>291.190867</ele>
        <time>2026-07-08T13:02:35.000Z</time>
      </trkpt>
      <trkpt lat="47.07192" lon="16.07762">
        <ele>291.214054</ele>
        <time>2026-07-08T13:02:36.000Z</time>
      </trkpt>
      <trkpt lat="47.07192" lon="16.07755">
        <ele>291.236346</ele>
        <time>2026-07-08T13:02:37.000Z</time>
      </trkpt>
      <trkpt lat="47.07192" lon="16.07747">
        <ele>291.258345</ele>
        <time>2026-07-08T13:02:38.000Z</time>
      </trkpt>
      <trkpt lat="47.07192" lon="16.0774">
        <ele>291.280067</ele>
        <time>2026-07-08T13:02:39.000Z</time>
      </trkpt>
      <trkpt lat="47.07191" lon="16.07733">
        <ele>291.301496</ele>
        <time>2026-07-08T13:02:40.000Z</time>
      </trkpt>
      <trkpt lat="47.07191" lon="16.07726">
        <ele>291.32214</ele>
        <time>2026-07-08T13:02:41.000Z</time>
      </trkpt>
      <trkpt lat="47.0719" lon="16.07719">
        <ele>291.342252</ele>
        <time>2026-07-08T13:02:42.000Z</time>
      </trkpt>
      <trkpt lat="47.0719" lon="16.07712">
        <ele>291.362714</ele>
        <time>2026-07-08T13:02:43.000Z</time>
      </trkpt>
      <trkpt lat="47.07189" lon="16.07705">
        <ele>291.382955</ele>
        <time>2026-07-08T13:02:44.000Z</time>
      </trkpt>
      <trkpt lat="47.07188" lon="16.07698">
        <ele>291.40336</ele>
        <time>2026-07-08T13:02:45.000Z</time>
      </trkpt>
      <trkpt lat="47.07187" lon="16.07691">
        <ele>291.424338</ele>
        <time>2026-07-08T13:02:46.000Z</time>
      </trkpt>
      <trkpt lat="47.07186" lon="16.07684">
        <ele>291.445511</ele>
        <time>2026-07-08T13:02:47.000Z</time>
      </trkpt>
      <trkpt lat="47.07184" lon="16.07677">
        <ele>291.466792</ele>
        <time>2026-07-08T13:02:48.000Z</time>
      </trkpt>
      <trkpt lat="47.07183" lon="16.0767">
        <ele>291.481694</ele>
        <time>2026-07-08T13:02:49.000Z</time>
      </trkpt>
      <trkpt lat="47.07181" lon="16.07663">
        <ele>291.492962</ele>
        <time>2026-07-08T13:02:50.000Z</time>
      </trkpt>
      <trkpt lat="47.07179" lon="16.07656">
        <ele>291.503962</ele>
        <time>2026-07-08T13:02:51.000Z</time>
      </trkpt>
      <trkpt lat="47.07178" lon="16.07649">
        <ele>291.515012</ele>
        <time>2026-07-08T13:02:52.000Z</time>
      </trkpt>
      <trkpt lat="47.07176" lon="16.07642">
        <ele>291.526134</ele>
        <time>2026-07-08T13:02:53.000Z</time>
      </trkpt>
      <trkpt lat="47.07174" lon="16.07635">
        <ele>291.537332</ele>
        <time>2026-07-08T13:02:54.000Z</time>
      </trkpt>
      <trkpt lat="47.07172" lon="16.07628">
        <ele>291.548609</ele>
        <time>2026-07-08T13:02:55.000Z</time>
      </trkpt>
      <trkpt lat="47.07171" lon="16.07621">
        <ele>291.559667</ele>
        <time>2026-07-08T13:02:56.000Z</time>
      </trkpt>
      <trkpt lat="47.07169" lon="16.07614">
        <ele>291.571005</ele>
        <time>2026-07-08T13:02:57.000Z</time>
      </trkpt>
      <trkpt lat="47.07167" lon="16.07607">
        <ele>291.582642</ele>
        <time>2026-07-08T13:02:58.000Z</time>
      </trkpt>
      <trkpt lat="47.07165" lon="16.076">
        <ele>291.594452</ele>
        <time>2026-07-08T13:02:59.000Z</time>
      </trkpt>
      <trkpt lat="47.07162" lon="16.07593">
        <ele>291.605989</ele>
        <time>2026-07-08T13:03:00.000Z</time>
      </trkpt>
      <trkpt lat="47.0716" lon="16.07586">
        <ele>291.617436</ele>
        <time>2026-07-08T13:03:01.000Z</time>
      </trkpt>
      <trkpt lat="47.07158" lon="16.07579">
        <ele>291.629299</ele>
        <time>2026-07-08T13:03:02.000Z</time>
      </trkpt>
      <trkpt lat="47.07156" lon="16.07572">
        <ele>291.640746</ele>
        <time>2026-07-08T13:03:03.000Z</time>
      </trkpt>
      <trkpt lat="47.07154" lon="16.07565">
        <ele>291.652383</ele>
        <time>2026-07-08T13:03:04.000Z</time>
      </trkpt>
      <trkpt lat="47.07152" lon="16.07557">
        <ele>291.66402</ele>
        <time>2026-07-08T13:03:05.000Z</time>
      </trkpt>
      <trkpt lat="47.0715" lon="16.0755">
        <ele>291.675796</ele>
        <time>2026-07-08T13:03:06.000Z</time>
      </trkpt>
      <trkpt lat="47.07148" lon="16.07543">
        <ele>291.687605</ele>
        <time>2026-07-08T13:03:07.000Z</time>
      </trkpt>
      <trkpt lat="47.07145" lon="16.07536">
        <ele>291.699143</ele>
        <time>2026-07-08T13:03:08.000Z</time>
      </trkpt>
      <trkpt lat="47.07143" lon="16.07529">
        <ele>291.71059</ele>
        <time>2026-07-08T13:03:09.000Z</time>
      </trkpt>
      <trkpt lat="47.07141" lon="16.07522">
        <ele>291.722319</ele>
        <time>2026-07-08T13:03:10.000Z</time>
      </trkpt>
      <trkpt lat="47.07139" lon="16.07515">
        <ele>291.733903</ele>
        <time>2026-07-08T13:03:11.000Z</time>
      </trkpt>
      <trkpt lat="47.07137" lon="16.07507">
        <ele>291.745818</ele>
        <time>2026-07-08T13:03:12.000Z</time>
      </trkpt>
      <trkpt lat="47.07135" lon="16.075">
        <ele>291.757491</ele>
        <time>2026-07-08T13:03:13.000Z</time>
      </trkpt>
      <trkpt lat="47.07132" lon="16.07493">
        <ele>291.769302</ele>
        <time>2026-07-08T13:03:14.000Z</time>
      </trkpt>
      <trkpt lat="47.0713" lon="16.07486">
        <ele>291.781161</ele>
        <time>2026-07-08T13:03:15.000Z</time>
      </trkpt>
      <trkpt lat="47.07128" lon="16.07479">
        <ele>291.792971</ele>
        <time>2026-07-08T13:03:16.000Z</time>
      </trkpt>
      <trkpt lat="47.07126" lon="16.07471">
        <ele>291.805025</ele>
        <time>2026-07-08T13:03:17.000Z</time>
      </trkpt>
      <trkpt lat="47.07124" lon="16.07464">
        <ele>291.816801</ele>
        <time>2026-07-08T13:03:18.000Z</time>
      </trkpt>
      <trkpt lat="47.07122" lon="16.07456">
        <ele>291.828885</ele>
        <time>2026-07-08T13:03:19.000Z</time>
      </trkpt>
      <trkpt lat="47.0712" lon="16.07449">
        <ele>291.84066</ele>
        <time>2026-07-08T13:03:20.000Z</time>
      </trkpt>
      <trkpt lat="47.07118" lon="16.07442">
        <ele>291.852561</ele>
        <time>2026-07-08T13:03:21.000Z</time>
      </trkpt>
      <trkpt lat="47.07116" lon="16.07434">
        <ele>291.864615</ele>
        <time>2026-07-08T13:03:22.000Z</time>
      </trkpt>
      <trkpt lat="47.07114" lon="16.07426">
        <ele>291.858893</ele>
        <time>2026-07-08T13:03:23.000Z</time>
      </trkpt>
      <trkpt lat="47.07112" lon="16.07419">
        <ele>291.839776</ele>
        <time>2026-07-08T13:03:24.000Z</time>
      </trkpt>
      <trkpt lat="47.0711" lon="16.07411">
        <ele>291.820315</ele>
        <time>2026-07-08T13:03:25.000Z</time>
      </trkpt>
      <trkpt lat="47.07108" lon="16.07403">
        <ele>291.800979</ele>
        <time>2026-07-08T13:03:26.000Z</time>
      </trkpt>
      <trkpt lat="47.07106" lon="16.07396">
        <ele>291.781542</ele>
        <time>2026-07-08T13:03:27.000Z</time>
      </trkpt>
      <trkpt lat="47.07104" lon="16.07388">
        <ele>291.761774</ele>
        <time>2026-07-08T13:03:28.000Z</time>
      </trkpt>
      <trkpt lat="47.07102" lon="16.0738">
        <ele>291.742111</ele>
        <time>2026-07-08T13:03:29.000Z</time>
      </trkpt>
      <trkpt lat="47.07101" lon="16.07372">
        <ele>291.722997</ele>
        <time>2026-07-08T13:03:30.000Z</time>
      </trkpt>
      <trkpt lat="47.07099" lon="16.07364">
        <ele>291.703755</ele>
        <time>2026-07-08T13:03:31.000Z</time>
      </trkpt>
      <trkpt lat="47.07098" lon="16.07356">
        <ele>291.684147</ele>
        <time>2026-07-08T13:03:32.000Z</time>
      </trkpt>
      <trkpt lat="47.07097" lon="16.07348">
        <ele>291.664997</ele>
        <time>2026-07-08T13:03:33.000Z</time>
      </trkpt>
      <trkpt lat="47.07096" lon="16.0734">
        <ele>291.645913</ele>
        <time>2026-07-08T13:03:34.000Z</time>
      </trkpt>
      <trkpt lat="47.07095" lon="16.07332">
        <ele>291.626829</ele>
        <time>2026-07-08T13:03:35.000Z</time>
      </trkpt>
      <trkpt lat="47.07094" lon="16.07324">
        <ele>291.60715</ele>
        <time>2026-07-08T13:03:36.000Z</time>
      </trkpt>
      <trkpt lat="47.07092" lon="16.07315">
        <ele>291.587471</ele>
        <time>2026-07-08T13:03:37.000Z</time>
      </trkpt>
      <trkpt lat="47.07091" lon="16.07307">
        <ele>291.567631</ele>
        <time>2026-07-08T13:03:38.000Z</time>
      </trkpt>
      <trkpt lat="47.0709" lon="16.07299">
        <ele>291.547263</ele>
        <time>2026-07-08T13:03:39.000Z</time>
      </trkpt>
      <trkpt lat="47.07089" lon="16.0729">
        <ele>291.526436</ele>
        <time>2026-07-08T13:03:40.000Z</time>
      </trkpt>
      <trkpt lat="47.07088" lon="16.07281">
        <ele>291.505995</ele>
        <time>2026-07-08T13:03:41.000Z</time>
      </trkpt>
      <trkpt lat="47.07086" lon="16.07273">
        <ele>291.484867</ele>
        <time>2026-07-08T13:03:42.000Z</time>
      </trkpt>
      <trkpt lat="47.07085" lon="16.07264">
        <ele>291.46381</ele>
        <time>2026-07-08T13:03:43.000Z</time>
      </trkpt>
      <trkpt lat="47.07083" lon="16.07255">
        <ele>291.443291</ele>
        <time>2026-07-08T13:03:44.000Z</time>
      </trkpt>
      <trkpt lat="47.07082" lon="16.07247">
        <ele>291.422622</ele>
        <time>2026-07-08T13:03:45.000Z</time>
      </trkpt>
      <trkpt lat="47.0708" lon="16.07238">
        <ele>291.401836</ele>
        <time>2026-07-08T13:03:46.000Z</time>
      </trkpt>
      <trkpt lat="47.07079" lon="16.0723">
        <ele>291.38137</ele>
        <time>2026-07-08T13:03:47.000Z</time>
      </trkpt>
      <trkpt lat="47.07077" lon="16.07222">
        <ele>291.361269</ele>
        <time>2026-07-08T13:03:48.000Z</time>
      </trkpt>
      <trkpt lat="47.07075" lon="16.07214">
        <ele>291.341055</ele>
        <time>2026-07-08T13:03:49.000Z</time>
      </trkpt>
      <trkpt lat="47.07073" lon="16.07206">
        <ele>291.321839</ele>
        <time>2026-07-08T13:03:50.000Z</time>
      </trkpt>
      <trkpt lat="47.07072" lon="16.07198">
        <ele>291.302501</ele>
        <time>2026-07-08T13:03:51.000Z</time>
      </trkpt>
      <trkpt lat="47.0707" lon="16.0719">
        <ele>291.283935</ele>
        <time>2026-07-08T13:03:52.000Z</time>
      </trkpt>
      <trkpt lat="47.07068" lon="16.07183">
        <ele>291.264599</ele>
        <time>2026-07-08T13:03:53.000Z</time>
      </trkpt>
      <trkpt lat="47.07066" lon="16.07175">
        <ele>291.24082</ele>
        <time>2026-07-08T13:03:54.000Z</time>
      </trkpt>
      <trkpt lat="47.07065" lon="16.07167">
        <ele>291.207458</ele>
        <time>2026-07-08T13:03:55.000Z</time>
      </trkpt>
      <trkpt lat="47.07063" lon="16.07158">
        <ele>291.173517</ele>
        <time>2026-07-08T13:03:56.000Z</time>
      </trkpt>
      <trkpt lat="47.07061" lon="16.0715">
        <ele>291.139778</ele>
        <time>2026-07-08T13:03:57.000Z</time>
      </trkpt>
      <trkpt lat="47.07059" lon="16.07142">
        <ele>291.105663</ele>
        <time>2026-07-08T13:03:58.000Z</time>
      </trkpt>
      <trkpt lat="47.07057" lon="16.07134">
        <ele>291.071366</ele>
        <time>2026-07-08T13:03:59.000Z</time>
      </trkpt>
      <trkpt lat="47.07056" lon="16.07126">
        <ele>291.038004</ele>
        <time>2026-07-08T13:04:00.000Z</time>
      </trkpt>
      <trkpt lat="47.07054" lon="16.07118">
        <ele>291.003512</ele>
        <time>2026-07-08T13:04:01.000Z</time>
      </trkpt>
      <trkpt lat="47.07052" lon="16.07109">
        <ele>290.968839</ele>
        <time>2026-07-08T13:04:02.000Z</time>
      </trkpt>
      <trkpt lat="47.0705" lon="16.07101">
        <ele>290.934724</ele>
        <time>2026-07-08T13:04:03.000Z</time>
      </trkpt>
      <trkpt lat="47.07048" lon="16.07093">
        <ele>290.900232</ele>
        <time>2026-07-08T13:04:04.000Z</time>
      </trkpt>
      <trkpt lat="47.07047" lon="16.07084">
        <ele>290.865152</ele>
        <time>2026-07-08T13:04:05.000Z</time>
      </trkpt>
      <trkpt lat="47.07045" lon="16.07076">
        <ele>290.829312</ele>
        <time>2026-07-08T13:04:06.000Z</time>
      </trkpt>
      <trkpt lat="47.07043" lon="16.07067">
        <ele>290.794392</ele>
        <time>2026-07-08T13:04:07.000Z</time>
      </trkpt>
      <trkpt lat="47.07042" lon="16.07058">
        <ele>290.758856</ele>
        <time>2026-07-08T13:04:08.000Z</time>
      </trkpt>
      <trkpt lat="47.07041" lon="16.0705">
        <ele>290.724094</ele>
        <time>2026-07-08T13:04:09.000Z</time>
      </trkpt>
      <trkpt lat="47.0704" lon="16.07041">
        <ele>290.688618</ele>
        <time>2026-07-08T13:04:10.000Z</time>
      </trkpt>
      <trkpt lat="47.0704" lon="16.07032">
        <ele>290.652937</ele>
        <time>2026-07-08T13:04:11.000Z</time>
      </trkpt>
      <trkpt lat="47.07039" lon="16.07023">
        <ele>290.618071</ele>
        <time>2026-07-08T13:04:12.000Z</time>
      </trkpt>
      <trkpt lat="47.07039" lon="16.07014">
        <ele>290.58239</ele>
        <time>2026-07-08T13:04:13.000Z</time>
      </trkpt>
      <trkpt lat="47.07039" lon="16.07005">
        <ele>290.546733</ele>
        <time>2026-07-08T13:04:14.000Z</time>
      </trkpt>
      <trkpt lat="47.07039" lon="16.06996">
        <ele>290.511076</ele>
        <time>2026-07-08T13:04:15.000Z</time>
      </trkpt>
      <trkpt lat="47.07039" lon="16.06987">
        <ele>290.474604</ele>
        <time>2026-07-08T13:04:16.000Z</time>
      </trkpt>
      <trkpt lat="47.0704" lon="16.06978">
        <ele>290.438551</ele>
        <time>2026-07-08T13:04:17.000Z</time>
      </trkpt>
      <trkpt lat="47.0704" lon="16.06968">
        <ele>290.401329</ele>
        <time>2026-07-08T13:04:18.000Z</time>
      </trkpt>
      <trkpt lat="47.07039" lon="16.06959">
        <ele>290.365573</ele>
        <time>2026-07-08T13:04:19.000Z</time>
      </trkpt>
      <trkpt lat="47.07038" lon="16.06951">
        <ele>290.33069</ele>
        <time>2026-07-08T13:04:20.000Z</time>
      </trkpt>
      <trkpt lat="47.07036" lon="16.06943">
        <ele>290.2962</ele>
        <time>2026-07-08T13:04:21.000Z</time>
      </trkpt>
      <trkpt lat="47.07034" lon="16.06934">
        <ele>290.261338</ele>
        <time>2026-07-08T13:04:22.000Z</time>
      </trkpt>
      <trkpt lat="47.07032" lon="16.06926">
        <ele>290.225801</ele>
        <time>2026-07-08T13:04:23.000Z</time>
      </trkpt>
      <trkpt lat="47.07032" lon="16.06917">
        <ele>290.206103</ele>
        <time>2026-07-08T13:04:24.000Z</time>
      </trkpt>
      <trkpt lat="47.07031" lon="16.06908">
        <ele>290.209712</ele>
        <time>2026-07-08T13:04:25.000Z</time>
      </trkpt>
      <trkpt lat="47.07031" lon="16.06899">
        <ele>290.213278</ele>
        <time>2026-07-08T13:04:26.000Z</time>
      </trkpt>
      <trkpt lat="47.07031" lon="16.0689">
        <ele>290.216803</ele>
        <time>2026-07-08T13:04:27.000Z</time>
      </trkpt>
      <trkpt lat="47.07031" lon="16.06881">
        <ele>290.220329</ele>
        <time>2026-07-08T13:04:28.000Z</time>
      </trkpt>
      <trkpt lat="47.07031" lon="16.06873">
        <ele>290.223818</ele>
        <time>2026-07-08T13:04:29.000Z</time>
      </trkpt>
      <trkpt lat="47.0703" lon="16.06864">
        <ele>290.227307</ele>
        <time>2026-07-08T13:04:30.000Z</time>
      </trkpt>
      <trkpt lat="47.0703" lon="16.06855">
        <ele>290.230834</ele>
        <time>2026-07-08T13:04:31.000Z</time>
      </trkpt>
      <trkpt lat="47.0703" lon="16.06846">
        <ele>290.23432</ele>
        <time>2026-07-08T13:04:32.000Z</time>
      </trkpt>
      <trkpt lat="47.0703" lon="16.06838">
        <ele>290.237769</ele>
        <time>2026-07-08T13:04:33.000Z</time>
      </trkpt>
      <trkpt lat="47.07029" lon="16.06829">
        <ele>290.241255</ele>
        <time>2026-07-08T13:04:34.000Z</time>
      </trkpt>
      <trkpt lat="47.07029" lon="16.06821">
        <ele>290.244672</ele>
        <time>2026-07-08T13:04:35.000Z</time>
      </trkpt>
      <trkpt lat="47.07029" lon="16.06812">
        <ele>290.247961</ele>
        <time>2026-07-08T13:04:36.000Z</time>
      </trkpt>
      <trkpt lat="47.07028" lon="16.06805">
        <ele>290.251099</ele>
        <time>2026-07-08T13:04:37.000Z</time>
      </trkpt>
      <trkpt lat="47.07028" lon="16.06796">
        <ele>290.254388</ele>
        <time>2026-07-08T13:04:38.000Z</time>
      </trkpt>
      <trkpt lat="47.07027" lon="16.06788">
        <ele>290.257658</ele>
        <time>2026-07-08T13:04:39.000Z</time>
      </trkpt>
      <trkpt lat="47.07026" lon="16.0678">
        <ele>290.260889</ele>
        <time>2026-07-08T13:04:40.000Z</time>
      </trkpt>
      <trkpt lat="47.07025" lon="16.06772">
        <ele>290.264261</ele>
        <time>2026-07-08T13:04:41.000Z</time>
      </trkpt>
      <trkpt lat="47.07024" lon="16.06764">
        <ele>290.267507</ele>
        <time>2026-07-08T13:04:42.000Z</time>
      </trkpt>
      <trkpt lat="47.07022" lon="16.06756">
        <ele>290.27083</ele>
        <time>2026-07-08T13:04:43.000Z</time>
      </trkpt>
      <trkpt lat="47.0702" lon="16.06749">
        <ele>290.27409</ele>
        <time>2026-07-08T13:04:44.000Z</time>
      </trkpt>
      <trkpt lat="47.07018" lon="16.06741">
        <ele>290.277484</ele>
        <time>2026-07-08T13:04:45.000Z</time>
      </trkpt>
      <trkpt lat="47.07016" lon="16.06733">
        <ele>290.280822</ele>
        <time>2026-07-08T13:04:46.000Z</time>
      </trkpt>
      <trkpt lat="47.07015" lon="16.06725">
        <ele>290.284082</ele>
        <time>2026-07-08T13:04:47.000Z</time>
      </trkpt>
      <trkpt lat="47.07013" lon="16.06717">
        <ele>290.287381</ele>
        <time>2026-07-08T13:04:48.000Z</time>
      </trkpt>
      <trkpt lat="47.07011" lon="16.06709">
        <ele>290.290737</ele>
        <time>2026-07-08T13:04:49.000Z</time>
      </trkpt>
      <trkpt lat="47.07009" lon="16.06701">
        <ele>290.294226</ele>
        <time>2026-07-08T13:04:50.000Z</time>
      </trkpt>
      <trkpt lat="47.07007" lon="16.06693">
        <ele>290.297582</ele>
        <time>2026-07-08T13:04:51.000Z</time>
      </trkpt>
      <trkpt lat="47.07006" lon="16.06685">
        <ele>290.300983</ele>
        <time>2026-07-08T13:04:52.000Z</time>
      </trkpt>
      <trkpt lat="47.07005" lon="16.06676">
        <ele>290.304437</ele>
        <time>2026-07-08T13:04:53.000Z</time>
      </trkpt>
      <trkpt lat="47.07004" lon="16.06668">
        <ele>290.307874</ele>
        <time>2026-07-08T13:04:54.000Z</time>
      </trkpt>
      <trkpt lat="47.07004" lon="16.06659">
        <ele>290.297248</ele>
        <time>2026-07-08T13:04:55.000Z</time>
      </trkpt>
      <trkpt lat="47.07003" lon="16.06651">
        <ele>290.244452</ele>
        <time>2026-07-08T13:04:56.000Z</time>
      </trkpt>
      <trkpt lat="47.07003" lon="16.06642">
        <ele>290.191656</ele>
        <time>2026-07-08T13:04:57.000Z</time>
      </trkpt>
      <trkpt lat="47.07002" lon="16.06633">
        <ele>290.139462</ele>
        <time>2026-07-08T13:04:58.000Z</time>
      </trkpt>
      <trkpt lat="47.07001" lon="16.06625">
        <ele>290.087574</ele>
        <time>2026-07-08T13:04:59.000Z</time>
      </trkpt>
      <trkpt lat="47.07001" lon="16.06616">
        <ele>290.0358</ele>
        <time>2026-07-08T13:05:00.000Z</time>
      </trkpt>
      <trkpt lat="47.07" lon="16.06608">
        <ele>289.984626</ele>
        <time>2026-07-08T13:05:01.000Z</time>
      </trkpt>
      <trkpt lat="47.06999" lon="16.066">
        <ele>289.935356</ele>
        <time>2026-07-08T13:05:02.000Z</time>
      </trkpt>
      <trkpt lat="47.06998" lon="16.06592">
        <ele>289.888113</ele>
        <time>2026-07-08T13:05:03.000Z</time>
      </trkpt>
      <trkpt lat="47.06998" lon="16.06585">
        <ele>289.842448</ele>
        <time>2026-07-08T13:05:04.000Z</time>
      </trkpt>
      <trkpt lat="47.06997" lon="16.06577">
        <ele>289.79787</ele>
        <time>2026-07-08T13:05:05.000Z</time>
      </trkpt>
      <trkpt lat="47.06997" lon="16.0657">
        <ele>289.754105</ele>
        <time>2026-07-08T13:05:06.000Z</time>
      </trkpt>
      <trkpt lat="47.06996" lon="16.06563">
        <ele>289.709526</ele>
        <time>2026-07-08T13:05:07.000Z</time>
      </trkpt>
      <trkpt lat="47.06995" lon="16.06556">
        <ele>289.666965</ele>
        <time>2026-07-08T13:05:08.000Z</time>
      </trkpt>
      <trkpt lat="47.06995" lon="16.06549">
        <ele>289.626207</ele>
        <time>2026-07-08T13:05:09.000Z</time>
      </trkpt>
      <trkpt lat="47.06995" lon="16.06542">
        <ele>289.585001</ele>
        <time>2026-07-08T13:05:10.000Z</time>
      </trkpt>
      <trkpt lat="47.06994" lon="16.06536">
        <ele>289.544244</ele>
        <time>2026-07-08T13:05:12.000Z</time>
      </trkpt>
      <trkpt lat="47.06993" lon="16.06529">
        <ele>289.50146</ele>
        <time>2026-07-08T13:05:13.000Z</time>
      </trkpt>
      <trkpt lat="47.06993" lon="16.06522">
        <ele>289.459732</ele>
        <time>2026-07-08T13:05:14.000Z</time>
      </trkpt>
      <trkpt lat="47.06992" lon="16.06515">
        <ele>289.417547</ele>
        <time>2026-07-08T13:05:15.000Z</time>
      </trkpt>
      <trkpt lat="47.06991" lon="16.06508">
        <ele>289.376188</ele>
        <time>2026-07-08T13:05:16.000Z</time>
      </trkpt>
      <trkpt lat="47.06991" lon="16.06501">
        <ele>289.332324</ele>
        <time>2026-07-08T13:05:17.000Z</time>
      </trkpt>
      <trkpt lat="47.0699" lon="16.06494">
        <ele>289.289244</ele>
        <time>2026-07-08T13:05:18.000Z</time>
      </trkpt>
      <trkpt lat="47.0699" lon="16.06486">
        <ele>289.244179</ele>
        <time>2026-07-08T13:05:19.000Z</time>
      </trkpt>
      <trkpt lat="47.06989" lon="16.06479">
        <ele>289.198403</ele>
        <time>2026-07-08T13:05:20.000Z</time>
      </trkpt>
      <trkpt lat="47.06988" lon="16.06472">
        <ele>289.155021</ele>
        <time>2026-07-08T13:05:21.000Z</time>
      </trkpt>
      <trkpt lat="47.06988" lon="16.06465">
        <ele>289.110907</ele>
        <time>2026-07-08T13:05:22.000Z</time>
      </trkpt>
      <trkpt lat="47.06987" lon="16.06458">
        <ele>289.069178</ele>
        <time>2026-07-08T13:05:23.000Z</time>
      </trkpt>
      <trkpt lat="47.06986" lon="16.06452">
        <ele>289.032367</ele>
        <time>2026-07-08T13:05:24.000Z</time>
      </trkpt>
      <trkpt lat="47.06986" lon="16.06448">
        <ele>289.006585</ele>
        <time>2026-07-08T13:05:25.000Z</time>
      </trkpt>
      <trkpt lat="47.06985" lon="16.06445">
        <ele>288.989882</ele>
        <time>2026-07-08T13:05:26.000Z</time>
      </trkpt>
      <trkpt lat="47.06984" lon="16.06444">
        <ele>288.977631</ele>
        <time>2026-07-08T13:05:27.000Z</time>
      </trkpt>
      <trkpt lat="47.06982" lon="16.06444">
        <ele>288.965948</ele>
        <time>2026-07-08T13:05:28.000Z</time>
      </trkpt>
      <trkpt lat="47.06981" lon="16.06445">
        <ele>288.954484</ele>
        <time>2026-07-08T13:05:29.000Z</time>
      </trkpt>
      <trkpt lat="47.06979" lon="16.06446">
        <ele>288.937397</ele>
        <time>2026-07-08T13:05:30.000Z</time>
      </trkpt>
      <trkpt lat="47.06977" lon="16.06447">
        <ele>288.91468</ele>
        <time>2026-07-08T13:05:31.000Z</time>
      </trkpt>
      <trkpt lat="47.06973" lon="16.06447">
        <ele>288.884397</ele>
        <time>2026-07-08T13:05:32.000Z</time>
      </trkpt>
      <trkpt lat="47.06969" lon="16.06447">
        <ele>288.848884</ele>
        <time>2026-07-08T13:05:33.000Z</time>
      </trkpt>
      <trkpt lat="47.06965" lon="16.06447">
        <ele>288.808026</ele>
        <time>2026-07-08T13:05:34.000Z</time>
      </trkpt>
      <trkpt lat="47.0696" lon="16.06447">
        <ele>288.763597</ele>
        <time>2026-07-08T13:05:35.000Z</time>
      </trkpt>
      <trkpt lat="47.06954" lon="16.06447">
        <ele>288.714767</ele>
        <time>2026-07-08T13:05:36.000Z</time>
      </trkpt>
      <trkpt lat="47.06948" lon="16.06446">
        <ele>288.641153</ele>
        <time>2026-07-08T13:05:37.000Z</time>
      </trkpt>
      <trkpt lat="47.06943" lon="16.06446">
        <ele>288.568378</ele>
        <time>2026-07-08T13:05:38.000Z</time>
      </trkpt>
      <trkpt lat="47.06937" lon="16.06447">
        <ele>288.493075</ele>
        <time>2026-07-08T13:05:39.000Z</time>
      </trkpt>
      <trkpt lat="47.0693" lon="16.06447">
        <ele>288.414026</ele>
        <time>2026-07-08T13:05:40.000Z</time>
      </trkpt>
      <trkpt lat="47.06924" lon="16.06446">
        <ele>288.33619</ele>
        <time>2026-07-08T13:05:41.000Z</time>
      </trkpt>
      <trkpt lat="47.06918" lon="16.06446">
        <ele>288.25456</ele>
        <time>2026-07-08T13:05:42.000Z</time>
      </trkpt>
      <trkpt lat="47.06911" lon="16.06446">
        <ele>288.175511</ele>
        <time>2026-07-08T13:05:43.000Z</time>
      </trkpt>
      <trkpt lat="47.06905" lon="16.06446">
        <ele>288.095135</ele>
        <time>2026-07-08T13:05:44.000Z</time>
      </trkpt>
      <trkpt lat="47.06899" lon="16.06447">
        <ele>288.018477</ele>
        <time>2026-07-08T13:05:45.000Z</time>
      </trkpt>
      <trkpt lat="47.06893" lon="16.06447">
        <ele>287.940566</ele>
        <time>2026-07-08T13:05:46.000Z</time>
      </trkpt>
      <trkpt lat="47.06886" lon="16.06448">
        <ele>287.86273</ele>
        <time>2026-07-08T13:05:47.000Z</time>
      </trkpt>
      <trkpt lat="47.0688" lon="16.06448">
        <ele>287.787426</ele>
        <time>2026-07-08T13:05:48.000Z</time>
      </trkpt>
      <trkpt lat="47.06874" lon="16.06448">
        <ele>287.712137</ele>
        <time>2026-07-08T13:05:49.000Z</time>
      </trkpt>
      <trkpt lat="47.06869" lon="16.06448">
        <ele>287.639362</ele>
        <time>2026-07-08T13:05:50.000Z</time>
      </trkpt>
      <trkpt lat="47.06863" lon="16.06448">
        <ele>287.566582</ele>
        <time>2026-07-08T13:05:51.000Z</time>
      </trkpt>
      <trkpt lat="47.06858" lon="16.06447">
        <ele>287.501195</ele>
        <time>2026-07-08T13:05:52.000Z</time>
      </trkpt>
      <trkpt lat="47.06853" lon="16.06446">
        <ele>287.447938</ele>
        <time>2026-07-08T13:05:53.000Z</time>
      </trkpt>
      <trkpt lat="47.06851" lon="16.06446">
        <ele>287.414606</ele>
        <time>2026-07-08T13:05:54.000Z</time>
      </trkpt>
      <trkpt lat="47.0685" lon="16.06445">
        <ele>287.399332</ele>
        <time>2026-07-08T13:05:55.000Z</time>
      </trkpt>
      <trkpt lat="47.06849" lon="16.06445">
        <ele>287.395198</ele>
        <time>2026-07-08T13:05:56.000Z</time>
      </trkpt>
      <trkpt lat="47.06843" lon="16.06445">
        <ele>287.319793</ele>
        <time>2026-07-08T13:06:23.000Z</time>
      </trkpt>
      <trkpt lat="47.06841" lon="16.06444">
        <ele>287.291547</ele>
        <time>2026-07-08T13:06:24.000Z</time>
      </trkpt>
      <trkpt lat="47.06839" lon="16.06443">
        <ele>287.261449</ele>
        <time>2026-07-08T13:06:25.000Z</time>
      </trkpt>
      <trkpt lat="47.06836" lon="16.06442">
        <ele>287.224072</ele>
        <time>2026-07-08T13:06:26.000Z</time>
      </trkpt>
      <trkpt lat="47.06833" lon="16.06441">
        <ele>287.181612</ele>
        <time>2026-07-08T13:06:27.000Z</time>
      </trkpt>
      <trkpt lat="47.06829" lon="16.0644">
        <ele>287.139497</ele>
        <time>2026-07-08T13:06:28.000Z</time>
      </trkpt>
      <trkpt lat="47.06825" lon="16.06439">
        <ele>287.089667</ele>
        <time>2026-07-08T13:06:29.000Z</time>
      </trkpt>
      <trkpt lat="47.06822" lon="16.06438">
        <ele>287.041227</ele>
        <time>2026-07-08T13:06:30.000Z</time>
      </trkpt>
      <trkpt lat="47.06817" lon="16.06437">
        <ele>286.987539</ele>
        <time>2026-07-08T13:06:31.000Z</time>
      </trkpt>
      <trkpt lat="47.06813" lon="16.06435">
        <ele>286.935083</ele>
        <time>2026-07-08T13:06:32.000Z</time>
      </trkpt>
      <trkpt lat="47.06809" lon="16.06434">
        <ele>286.881552</ele>
        <time>2026-07-08T13:06:33.000Z</time>
      </trkpt>
      <trkpt lat="47.06805" lon="16.06433">
        <ele>286.824445</ele>
        <time>2026-07-08T13:06:34.000Z</time>
      </trkpt>
      <trkpt lat="47.068" lon="16.06432">
        <ele>286.769525</ele>
        <time>2026-07-08T13:06:35.000Z</time>
      </trkpt>
      <trkpt lat="47.06796" lon="16.06431">
        <ele>286.712649</ele>
        <time>2026-07-08T13:06:36.000Z</time>
      </trkpt>
      <trkpt lat="47.06791" lon="16.0643">
        <ele>286.655665</ele>
        <time>2026-07-08T13:06:37.000Z</time>
      </trkpt>
      <trkpt lat="47.06787" lon="16.06429">
        <ele>286.599349</ele>
        <time>2026-07-08T13:06:38.000Z</time>
      </trkpt>
      <trkpt lat="47.06783" lon="16.06428">
        <ele>286.544429</ele>
        <time>2026-07-08T13:06:39.000Z</time>
      </trkpt>
      <trkpt lat="47.06778" lon="16.06427">
        <ele>286.489803</ele>
        <time>2026-07-08T13:06:40.000Z</time>
      </trkpt>
      <trkpt lat="47.06774" lon="16.06426">
        <ele>286.45079</ele>
        <time>2026-07-08T13:06:41.000Z</time>
      </trkpt>
      <trkpt lat="47.0677" lon="16.06425">
        <ele>286.436548</ele>
        <time>2026-07-08T13:06:42.000Z</time>
      </trkpt>
      <trkpt lat="47.06765" lon="16.06424">
        <ele>286.422768</ele>
        <time>2026-07-08T13:06:43.000Z</time>
      </trkpt>
      <trkpt lat="47.06761" lon="16.06423">
        <ele>286.409279</ele>
        <time>2026-07-08T13:06:44.000Z</time>
      </trkpt>
      <trkpt lat="47.06757" lon="16.06422">
        <ele>286.395398</ele>
        <time>2026-07-08T13:06:45.000Z</time>
      </trkpt>
      <trkpt lat="47.06753" lon="16.06421">
        <ele>286.381156</ele>
        <time>2026-07-08T13:06:46.000Z</time>
      </trkpt>
      <trkpt lat="47.06748" lon="16.0642">
        <ele>286.366348</ele>
        <time>2026-07-08T13:06:47.000Z</time>
      </trkpt>
      <trkpt lat="47.06744" lon="16.06419">
        <ele>286.351624</ele>
        <time>2026-07-08T13:06:48.000Z</time>
      </trkpt>
      <trkpt lat="47.06739" lon="16.06418">
        <ele>286.336291</ele>
        <time>2026-07-08T13:06:49.000Z</time>
      </trkpt>
      <trkpt lat="47.06734" lon="16.06417">
        <ele>286.320839</ele>
        <time>2026-07-08T13:06:50.000Z</time>
      </trkpt>
      <trkpt lat="47.0673" lon="16.06416">
        <ele>286.305597</ele>
        <time>2026-07-08T13:06:51.000Z</time>
      </trkpt>
      <trkpt lat="47.06725" lon="16.06414">
        <ele>286.290478</ele>
        <time>2026-07-08T13:06:52.000Z</time>
      </trkpt>
      <trkpt lat="47.06721" lon="16.06413">
        <ele>286.275413</ele>
        <time>2026-07-08T13:06:53.000Z</time>
      </trkpt>
      <trkpt lat="47.06716" lon="16.06411">
        <ele>286.259171</ele>
        <time>2026-07-08T13:06:54.000Z</time>
      </trkpt>
      <trkpt lat="47.06711" lon="16.0641">
        <ele>286.244007</ele>
        <time>2026-07-08T13:06:55.000Z</time>
      </trkpt>
      <trkpt lat="47.06707" lon="16.06409">
        <ele>286.228484</ele>
        <time>2026-07-08T13:06:56.000Z</time>
      </trkpt>
      <trkpt lat="47.06702" lon="16.06408">
        <ele>286.212923</ele>
        <time>2026-07-08T13:06:57.000Z</time>
      </trkpt>
      <trkpt lat="47.06697" lon="16.06407">
        <ele>286.197721</ele>
        <time>2026-07-08T13:06:58.000Z</time>
      </trkpt>
      <trkpt lat="47.06693" lon="16.06405">
        <ele>286.182199</ele>
        <time>2026-07-08T13:06:59.000Z</time>
      </trkpt>
      <trkpt lat="47.06688" lon="16.06404">
        <ele>286.167356</ele>
        <time>2026-07-08T13:07:00.000Z</time>
      </trkpt>
      <trkpt lat="47.06684" lon="16.06403">
        <ele>286.152474</ele>
        <time>2026-07-08T13:07:01.000Z</time>
      </trkpt>
      <trkpt lat="47.06679" lon="16.06402">
        <ele>286.138309</ele>
        <time>2026-07-08T13:07:02.000Z</time>
      </trkpt>
      <trkpt lat="47.06675" lon="16.06402">
        <ele>286.124598</ele>
        <time>2026-07-08T13:07:03.000Z</time>
      </trkpt>
      <trkpt lat="47.06671" lon="16.06403">
        <ele>286.111396</ele>
        <time>2026-07-08T13:07:04.000Z</time>
      </trkpt>
      <trkpt lat="47.06667" lon="16.06406">
        <ele>286.097358</ele>
        <time>2026-07-08T13:07:05.000Z</time>
      </trkpt>
      <trkpt lat="47.06665" lon="16.0641">
        <ele>286.084067</ele>
        <time>2026-07-08T13:07:06.000Z</time>
      </trkpt>
      <trkpt lat="47.06663" lon="16.06416">
        <ele>286.070524</ele>
        <time>2026-07-08T13:07:07.000Z</time>
      </trkpt>
      <trkpt lat="47.06662" lon="16.06422">
        <ele>286.056377</ele>
        <time>2026-07-08T13:07:08.000Z</time>
      </trkpt>
      <trkpt lat="47.06662" lon="16.06429">
        <ele>286.041938</ele>
        <time>2026-07-08T13:07:09.000Z</time>
      </trkpt>
      <trkpt lat="47.06662" lon="16.06435">
        <ele>286.027961</ele>
        <time>2026-07-08T13:07:10.000Z</time>
      </trkpt>
      <trkpt lat="47.06661" lon="16.06441">
        <ele>286.014082</ele>
        <time>2026-07-08T13:07:11.000Z</time>
      </trkpt>
      <trkpt lat="47.06659" lon="16.06446">
        <ele>286.001259</ele>
        <time>2026-07-08T13:07:12.000Z</time>
      </trkpt>
      <trkpt lat="47.06656" lon="16.06449">
        <ele>285.987844</ele>
        <time>2026-07-08T13:07:13.000Z</time>
      </trkpt>
      <trkpt lat="47.06652" lon="16.0645">
        <ele>285.975197</ele>
        <time>2026-07-08T13:07:14.000Z</time>
      </trkpt>
      <trkpt lat="47.06648" lon="16.06449">
        <ele>285.961274</ele>
        <time>2026-07-08T13:07:15.000Z</time>
      </trkpt>
      <trkpt lat="47.06643" lon="16.06446">
        <ele>285.946356</ele>
        <time>2026-07-08T13:07:16.000Z</time>
      </trkpt>
      <trkpt lat="47.06639" lon="16.06443">
        <ele>285.931427</ele>
        <time>2026-07-08T13:07:17.000Z</time>
      </trkpt>
      <trkpt lat="47.06635" lon="16.0644">
        <ele>285.916276</ele>
        <time>2026-07-08T13:07:18.000Z</time>
      </trkpt>
      <trkpt lat="47.06631" lon="16.06436">
        <ele>285.901125</ele>
        <time>2026-07-08T13:07:19.000Z</time>
      </trkpt>
      <trkpt lat="47.06627" lon="16.06432">
        <ele>285.885465</ele>
        <time>2026-07-08T13:07:20.000Z</time>
      </trkpt>
      <trkpt lat="47.06623" lon="16.06428">
        <ele>285.872023</ele>
        <time>2026-07-08T13:07:21.000Z</time>
      </trkpt>
      <trkpt lat="47.06619" lon="16.06425">
        <ele>285.876585</ele>
        <time>2026-07-08T13:07:22.000Z</time>
      </trkpt>
      <trkpt lat="47.06615" lon="16.06421">
        <ele>285.88109</ele>
        <time>2026-07-08T13:07:23.000Z</time>
      </trkpt>
      <trkpt lat="47.06611" lon="16.06417">
        <ele>285.885786</ele>
        <time>2026-07-08T13:07:24.000Z</time>
      </trkpt>
      <trkpt lat="47.06607" lon="16.06413">
        <ele>285.890255</ele>
        <time>2026-07-08T13:07:25.000Z</time>
      </trkpt>
      <trkpt lat="47.06603" lon="16.06409">
        <ele>285.894803</ele>
        <time>2026-07-08T13:07:26.000Z</time>
      </trkpt>
      <trkpt lat="47.06599" lon="16.06406">
        <ele>285.899398</ele>
        <time>2026-07-08T13:07:27.000Z</time>
      </trkpt>
      <trkpt lat="47.06594" lon="16.06402">
        <ele>285.904026</ele>
        <time>2026-07-08T13:07:28.000Z</time>
      </trkpt>
      <trkpt lat="47.0659" lon="16.06398">
        <ele>285.90853</ele>
        <time>2026-07-08T13:07:29.000Z</time>
      </trkpt>
      <trkpt lat="47.06586" lon="16.06394">
        <ele>285.912999</ele>
        <time>2026-07-08T13:07:30.000Z</time>
      </trkpt>
      <trkpt lat="47.06582" lon="16.0639">
        <ele>285.917468</ele>
        <time>2026-07-08T13:07:31.000Z</time>
      </trkpt>
      <trkpt lat="47.06578" lon="16.06386">
        <ele>285.922051</ele>
        <time>2026-07-08T13:07:32.000Z</time>
      </trkpt>
      <trkpt lat="47.06574" lon="16.06383">
        <ele>285.926613</ele>
        <time>2026-07-08T13:07:33.000Z</time>
      </trkpt>
      <trkpt lat="47.0657" lon="16.06379">
        <ele>285.931274</ele>
        <time>2026-07-08T13:07:34.000Z</time>
      </trkpt>
      <trkpt lat="47.06566" lon="16.06375">
        <ele>285.935823</ele>
        <time>2026-07-08T13:07:35.000Z</time>
      </trkpt>
      <trkpt lat="47.06562" lon="16.06371">
        <ele>285.940519</ele>
        <time>2026-07-08T13:07:36.000Z</time>
      </trkpt>
      <trkpt lat="47.06558" lon="16.06367">
        <ele>285.944988</ele>
        <time>2026-07-08T13:07:37.000Z</time>
      </trkpt>
      <trkpt lat="47.06553" lon="16.06364">
        <ele>285.949583</ele>
        <time>2026-07-08T13:07:38.000Z</time>
      </trkpt>
      <trkpt lat="47.06549" lon="16.0636">
        <ele>285.954131</ele>
        <time>2026-07-08T13:07:39.000Z</time>
      </trkpt>
      <trkpt lat="47.06545" lon="16.06356">
        <ele>285.958635</ele>
        <time>2026-07-08T13:07:40.000Z</time>
      </trkpt>
      <trkpt lat="47.06541" lon="16.06352">
        <ele>285.963104</ele>
        <time>2026-07-08T13:07:41.000Z</time>
      </trkpt>
      <trkpt lat="47.06537" lon="16.06348">
        <ele>285.967495</ele>
        <time>2026-07-08T13:07:42.000Z</time>
      </trkpt>
      <trkpt lat="47.06534" lon="16.06345">
        <ele>285.971617</ele>
        <time>2026-07-08T13:07:43.000Z</time>
      </trkpt>
      <trkpt lat="47.0653" lon="16.06341">
        <ele>285.97544</ele>
        <time>2026-07-08T13:07:44.000Z</time>
      </trkpt>
      <trkpt lat="47.06527" lon="16.06338">
        <ele>285.978919</ele>
        <time>2026-07-08T13:07:45.000Z</time>
      </trkpt>
      <trkpt lat="47.06524" lon="16.06335">
        <ele>285.982324</ele>
        <time>2026-07-08T13:07:46.000Z</time>
      </trkpt>
      <trkpt lat="47.06522" lon="16.06332">
        <ele>285.985311</ele>
        <time>2026-07-08T13:07:47.000Z</time>
      </trkpt>
      <trkpt lat="47.0652" lon="16.06331">
        <ele>285.987448</ele>
        <time>2026-07-08T13:07:48.000Z</time>
      </trkpt>
      <trkpt lat="47.06518" lon="16.0633">
        <ele>285.989285</ele>
        <time>2026-07-08T13:07:49.000Z</time>
      </trkpt>
      <trkpt lat="47.06516" lon="16.0633">
        <ele>285.991161</ele>
        <time>2026-07-08T13:07:50.000Z</time>
      </trkpt>
      <trkpt lat="47.06513" lon="16.06331">
        <ele>285.993549</ele>
        <time>2026-07-08T13:07:51.000Z</time>
      </trkpt>
      <trkpt lat="47.06512" lon="16.06332">
        <ele>285.99549</ele>
        <time>2026-07-08T13:07:52.000Z</time>
      </trkpt>
      <trkpt lat="47.0651" lon="16.06335">
        <ele>285.997444</ele>
        <time>2026-07-08T13:07:53.000Z</time>
      </trkpt>
      <trkpt lat="47.06509" lon="16.06337">
        <ele>285.999505</ele>
        <time>2026-07-08T13:07:54.000Z</time>
      </trkpt>
      <trkpt lat="47.06508" lon="16.06341">
        <ele>286.001987</ele>
        <time>2026-07-08T13:07:55.000Z</time>
      </trkpt>
      <trkpt lat="47.06506" lon="16.06344">
        <ele>286.004688</ele>
        <time>2026-07-08T13:07:56.000Z</time>
      </trkpt>
      <trkpt lat="47.06504" lon="16.06348">
        <ele>286.007706</ele>
        <time>2026-07-08T13:07:57.000Z</time>
      </trkpt>
      <trkpt lat="47.06502" lon="16.06351">
        <ele>286.010775</ele>
        <time>2026-07-08T13:07:58.000Z</time>
      </trkpt>
      <trkpt lat="47.065" lon="16.06356">
        <ele>286.01416</ele>
        <time>2026-07-08T13:07:59.000Z</time>
      </trkpt>
      <trkpt lat="47.06497" lon="16.0636">
        <ele>286.017596</ele>
        <time>2026-07-08T13:08:00.000Z</time>
      </trkpt>
      <trkpt lat="47.06495" lon="16.06364">
        <ele>286.021082</ele>
        <time>2026-07-08T13:08:01.000Z</time>
      </trkpt>
      <trkpt lat="47.06493" lon="16.06369">
        <ele>286.024683</ele>
        <time>2026-07-08T13:08:02.000Z</time>
      </trkpt>
      <trkpt lat="47.0649" lon="16.06373">
        <ele>286.028484</ele>
        <time>2026-07-08T13:08:03.000Z</time>
      </trkpt>
      <trkpt lat="47.06487" lon="16.06378">
        <ele>286.03262</ele>
        <time>2026-07-08T13:08:04.000Z</time>
      </trkpt>
      <trkpt lat="47.06484" lon="16.06383">
        <ele>286.036974</ele>
        <time>2026-07-08T13:08:05.000Z</time>
      </trkpt>
      <trkpt lat="47.06481" lon="16.06388">
        <ele>286.037977</ele>
        <time>2026-07-08T13:08:06.000Z</time>
      </trkpt>
      <trkpt lat="47.06478" lon="16.06393">
        <ele>286.028077</ele>
        <time>2026-07-08T13:08:07.000Z</time>
      </trkpt>
      <trkpt lat="47.06475" lon="16.06399">
        <ele>286.017929</ele>
        <time>2026-07-08T13:08:08.000Z</time>
      </trkpt>
      <trkpt lat="47.06471" lon="16.06404">
        <ele>286.007842</ele>
        <time>2026-07-08T13:08:09.000Z</time>
      </trkpt>
      <trkpt lat="47.06468" lon="16.06409">
        <ele>285.997975</ele>
        <time>2026-07-08T13:08:10.000Z</time>
      </trkpt>
      <trkpt lat="47.06465" lon="16.06414">
        <ele>285.988385</ele>
        <time>2026-07-08T13:08:11.000Z</time>
      </trkpt>
      <trkpt lat="47.06462" lon="16.06418">
        <ele>285.978748</ele>
        <time>2026-07-08T13:08:12.000Z</time>
      </trkpt>
      <trkpt lat="47.06459" lon="16.06423">
        <ele>285.968952</ele>
        <time>2026-07-08T13:08:13.000Z</time>
      </trkpt>
      <trkpt lat="47.06455" lon="16.06428">
        <ele>285.959011</ele>
        <time>2026-07-08T13:08:14.000Z</time>
      </trkpt>
      <trkpt lat="47.06452" lon="16.06433">
        <ele>285.94932</ele>
        <time>2026-07-08T13:08:15.000Z</time>
      </trkpt>
      <trkpt lat="47.06449" lon="16.06438">
        <ele>285.939666</ele>
        <time>2026-07-08T13:08:16.000Z</time>
      </trkpt>
      <trkpt lat="47.06445" lon="16.06443">
        <ele>285.929579</ele>
        <time>2026-07-08T13:08:17.000Z</time>
      </trkpt>
      <trkpt lat="47.06442" lon="16.06448">
        <ele>285.91974</ele>
        <time>2026-07-08T13:08:18.000Z</time>
      </trkpt>
      <trkpt lat="47.06439" lon="16.06453">
        <ele>285.9098</ele>
        <time>2026-07-08T13:08:19.000Z</time>
      </trkpt>
      <trkpt lat="47.06435" lon="16.06458">
        <ele>285.899611</ele>
        <time>2026-07-08T13:08:20.000Z</time>
      </trkpt>
      <trkpt lat="47.06432" lon="16.06463">
        <ele>285.889957</ele>
        <time>2026-07-08T13:08:21.000Z</time>
      </trkpt>
      <trkpt lat="47.06429" lon="16.06468">
        <ele>285.87997</ele>
        <time>2026-07-08T13:08:22.000Z</time>
      </trkpt>
      <trkpt lat="47.06426" lon="16.06473">
        <ele>285.870526</ele>
        <time>2026-07-08T13:08:23.000Z</time>
      </trkpt>
      <trkpt lat="47.06423" lon="16.06478">
        <ele>285.86073</ele>
        <time>2026-07-08T13:08:24.000Z</time>
      </trkpt>
      <trkpt lat="47.06419" lon="16.06482">
        <ele>285.850992</ele>
        <time>2026-07-08T13:08:25.000Z</time>
      </trkpt>
      <trkpt lat="47.06416" lon="16.06488">
        <ele>285.840773</ele>
        <time>2026-07-08T13:08:26.000Z</time>
      </trkpt>
      <trkpt lat="47.06413" lon="16.06493">
        <ele>285.830661</ele>
        <time>2026-07-08T13:08:27.000Z</time>
      </trkpt>
      <trkpt lat="47.0641" lon="16.06498">
        <ele>285.82072</ele>
        <time>2026-07-08T13:08:28.000Z</time>
      </trkpt>
      <trkpt lat="47.06406" lon="16.06503">
        <ele>285.810968</ele>
        <time>2026-07-08T13:08:29.000Z</time>
      </trkpt>
      <trkpt lat="47.06402" lon="16.06506">
        <ele>285.801584</ele>
        <time>2026-07-08T13:08:30.000Z</time>
      </trkpt>
      <trkpt lat="47.06398" lon="16.06509">
        <ele>285.792414</ele>
        <time>2026-07-08T13:08:31.000Z</time>
      </trkpt>
      <trkpt lat="47.06394" lon="16.0651">
        <ele>285.783182</ele>
        <time>2026-07-08T13:08:32.000Z</time>
      </trkpt>
      <trkpt lat="47.0639" lon="16.0651">
        <ele>285.773697</ele>
        <time>2026-07-08T13:08:33.000Z</time>
      </trkpt>
      <trkpt lat="47.06385" lon="16.06507">
        <ele>285.7643</ele>
        <time>2026-07-08T13:08:34.000Z</time>
      </trkpt>
      <trkpt lat="47.06381" lon="16.06505">
        <ele>285.754215</ele>
        <time>2026-07-08T13:08:35.000Z</time>
      </trkpt>
      <trkpt lat="47.06376" lon="16.06502">
        <ele>285.743914</ele>
        <time>2026-07-08T13:08:36.000Z</time>
      </trkpt>
      <trkpt lat="47.06372" lon="16.06499">
        <ele>285.73337</ele>
        <time>2026-07-08T13:08:37.000Z</time>
      </trkpt>
      <trkpt lat="47.06368" lon="16.06495">
        <ele>285.722849</ele>
        <time>2026-07-08T13:08:38.000Z</time>
      </trkpt>
      <trkpt lat="47.06363" lon="16.06491">
        <ele>285.712255</ele>
        <time>2026-07-08T13:08:39.000Z</time>
      </trkpt>
      <trkpt lat="47.06359" lon="16.06487">
        <ele>285.702268</ele>
        <time>2026-07-08T13:08:40.000Z</time>
      </trkpt>
      <trkpt lat="47.06355" lon="16.06483">
        <ele>285.692123</ele>
        <time>2026-07-08T13:08:41.000Z</time>
      </trkpt>
      <trkpt lat="47.06351" lon="16.06479">
        <ele>285.682389</ele>
        <time>2026-07-08T13:08:42.000Z</time>
      </trkpt>
      <trkpt lat="47.06347" lon="16.06476">
        <ele>285.672772</ele>
        <time>2026-07-08T13:08:43.000Z</time>
      </trkpt>
      <trkpt lat="47.06343" lon="16.06473">
        <ele>285.663258</ele>
        <time>2026-07-08T13:08:44.000Z</time>
      </trkpt>
      <trkpt lat="47.06339" lon="16.0647">
        <ele>285.664447</ele>
        <time>2026-07-08T13:08:45.000Z</time>
      </trkpt>
      <trkpt lat="47.06335" lon="16.06466">
        <ele>285.665664</ele>
        <time>2026-07-08T13:08:46.000Z</time>
      </trkpt>
      <trkpt lat="47.0633" lon="16.06462">
        <ele>285.666894</ele>
        <time>2026-07-08T13:08:47.000Z</time>
      </trkpt>
      <trkpt lat="47.06326" lon="16.06458">
        <ele>285.668157</ele>
        <time>2026-07-08T13:08:48.000Z</time>
      </trkpt>
      <trkpt lat="47.06322" lon="16.06455">
        <ele>285.669366</ele>
        <time>2026-07-08T13:08:49.000Z</time>
      </trkpt>
      <trkpt lat="47.06317" lon="16.06451">
        <ele>285.670566</ele>
        <time>2026-07-08T13:08:50.000Z</time>
      </trkpt>
      <trkpt lat="47.06313" lon="16.06447">
        <ele>285.671813</ele>
        <time>2026-07-08T13:08:51.000Z</time>
      </trkpt>
      <trkpt lat="47.06308" lon="16.06444">
        <ele>285.673053</ele>
        <time>2026-07-08T13:08:52.000Z</time>
      </trkpt>
      <trkpt lat="47.06303" lon="16.06442">
        <ele>285.674319</ele>
        <time>2026-07-08T13:08:53.000Z</time>
      </trkpt>
      <trkpt lat="47.06298" lon="16.0644">
        <ele>285.67558</ele>
        <time>2026-07-08T13:08:54.000Z</time>
      </trkpt>
      <trkpt lat="47.06293" lon="16.06439">
        <ele>285.676824</ele>
        <time>2026-07-08T13:08:55.000Z</time>
      </trkpt>
      <trkpt lat="47.06288" lon="16.06438">
        <ele>285.678052</ele>
        <time>2026-07-08T13:08:56.000Z</time>
      </trkpt>
      <trkpt lat="47.06284" lon="16.06438">
        <ele>285.679228</ele>
        <time>2026-07-08T13:08:57.000Z</time>
      </trkpt>
      <trkpt lat="47.06279" lon="16.06439">
        <ele>285.680404</ele>
        <time>2026-07-08T13:08:58.000Z</time>
      </trkpt>
      <trkpt lat="47.06274" lon="16.06439">
        <ele>285.68161</ele>
        <time>2026-07-08T13:08:59.000Z</time>
      </trkpt>
      <trkpt lat="47.06269" lon="16.0644">
        <ele>285.682725</ele>
        <time>2026-07-08T13:09:00.000Z</time>
      </trkpt>
      <trkpt lat="47.06265" lon="16.06441">
        <ele>285.683832</ele>
        <time>2026-07-08T13:09:01.000Z</time>
      </trkpt>
      <trkpt lat="47.0626" lon="16.06441">
        <ele>285.684935</ele>
        <time>2026-07-08T13:09:02.000Z</time>
      </trkpt>
      <trkpt lat="47.06256" lon="16.06441">
        <ele>285.685941</ele>
        <time>2026-07-08T13:09:03.000Z</time>
      </trkpt>
      <trkpt lat="47.06252" lon="16.06441">
        <ele>285.687019</ele>
        <time>2026-07-08T13:09:04.000Z</time>
      </trkpt>
      <trkpt lat="47.06248" lon="16.0644">
        <ele>285.68811</ele>
        <time>2026-07-08T13:09:05.000Z</time>
      </trkpt>
      <trkpt lat="47.06243" lon="16.06437">
        <ele>285.689276</ele>
        <time>2026-07-08T13:09:06.000Z</time>
      </trkpt>
      <trkpt lat="47.06239" lon="16.06433">
        <ele>285.690518</ele>
        <time>2026-07-08T13:09:07.000Z</time>
      </trkpt>
      <trkpt lat="47.06234" lon="16.06429">
        <ele>285.691766</ele>
        <time>2026-07-08T13:09:08.000Z</time>
      </trkpt>
      <trkpt lat="47.0623" lon="16.06426">
        <ele>285.692998</ele>
        <time>2026-07-08T13:09:09.000Z</time>
      </trkpt>
      <trkpt lat="47.06225" lon="16.06423">
        <ele>285.694231</ele>
        <time>2026-07-08T13:09:10.000Z</time>
      </trkpt>
      <trkpt lat="47.06221" lon="16.06419">
        <ele>285.695492</ele>
        <time>2026-07-08T13:09:11.000Z</time>
      </trkpt>
      <trkpt lat="47.06216" lon="16.06416">
        <ele>285.696769</ele>
        <time>2026-07-08T13:09:12.000Z</time>
      </trkpt>
      <trkpt lat="47.06211" lon="16.06413">
        <ele>285.698038</ele>
        <time>2026-07-08T13:09:13.000Z</time>
      </trkpt>
      <trkpt lat="47.06207" lon="16.0641">
        <ele>285.699316</ele>
        <time>2026-07-08T13:09:14.000Z</time>
      </trkpt>
      <trkpt lat="47.06202" lon="16.06407">
        <ele>285.700534</ele>
        <time>2026-07-08T13:09:15.000Z</time>
      </trkpt>
      <trkpt lat="47.06197" lon="16.06403">
        <ele>285.701817</ele>
        <time>2026-07-08T13:09:16.000Z</time>
      </trkpt>
      <trkpt lat="47.06193" lon="16.064">
        <ele>285.70303</ele>
        <time>2026-07-08T13:09:17.000Z</time>
      </trkpt>
      <trkpt lat="47.06189" lon="16.06396">
        <ele>285.70427</ele>
        <time>2026-07-08T13:09:18.000Z</time>
      </trkpt>
      <trkpt lat="47.06184" lon="16.06394">
        <ele>285.705484</ele>
        <time>2026-07-08T13:09:19.000Z</time>
      </trkpt>
      <trkpt lat="47.06179" lon="16.06392">
        <ele>285.706685</ele>
        <time>2026-07-08T13:09:20.000Z</time>
      </trkpt>
      <trkpt lat="47.06175" lon="16.06389">
        <ele>285.709627</ele>
        <time>2026-07-08T13:09:21.000Z</time>
      </trkpt>
      <trkpt lat="47.0617" lon="16.06385">
        <ele>285.714582</ele>
        <time>2026-07-08T13:09:22.000Z</time>
      </trkpt>
      <trkpt lat="47.06165" lon="16.06382">
        <ele>285.719429</ele>
        <time>2026-07-08T13:09:23.000Z</time>
      </trkpt>
      <trkpt lat="47.06161" lon="16.0638">
        <ele>285.72409</ele>
        <time>2026-07-08T13:09:24.000Z</time>
      </trkpt>
      <trkpt lat="47.06156" lon="16.06377">
        <ele>285.72904</ele>
        <time>2026-07-08T13:09:25.000Z</time>
      </trkpt>
      <trkpt lat="47.06151" lon="16.06374">
        <ele>285.733749</ele>
        <time>2026-07-08T13:09:26.000Z</time>
      </trkpt>
      <trkpt lat="47.06146" lon="16.06371">
        <ele>285.738745</ele>
        <time>2026-07-08T13:09:27.000Z</time>
      </trkpt>
      <trkpt lat="47.06142" lon="16.06368">
        <ele>285.743505</ele>
        <time>2026-07-08T13:09:28.000Z</time>
      </trkpt>
      <trkpt lat="47.06137" lon="16.06365">
        <ele>285.748551</ele>
        <time>2026-07-08T13:09:29.000Z</time>
      </trkpt>
      <trkpt lat="47.06132" lon="16.06362">
        <ele>285.753635</ele>
        <time>2026-07-08T13:09:30.000Z</time>
      </trkpt>
      <trkpt lat="47.06127" lon="16.06359">
        <ele>285.758768</ele>
        <time>2026-07-08T13:09:31.000Z</time>
      </trkpt>
      <trkpt lat="47.06122" lon="16.06356">
        <ele>285.763963</ele>
        <time>2026-07-08T13:09:32.000Z</time>
      </trkpt>
      <trkpt lat="47.06117" lon="16.06353">
        <ele>285.769121</ele>
        <time>2026-07-08T13:09:33.000Z</time>
      </trkpt>
      <trkpt lat="47.06112" lon="16.0635">
        <ele>285.77428</ele>
        <time>2026-07-08T13:09:34.000Z</time>
      </trkpt>
      <trkpt lat="47.06107" lon="16.06347">
        <ele>285.779388</ele>
        <time>2026-07-08T13:09:35.000Z</time>
      </trkpt>
      <trkpt lat="47.06102" lon="16.06344">
        <ele>285.78436</ele>
        <time>2026-07-08T13:09:36.000Z</time>
      </trkpt>
      <trkpt lat="47.06097" lon="16.06341">
        <ele>285.789045</ele>
        <time>2026-07-08T13:09:37.000Z</time>
      </trkpt>
      <trkpt lat="47.06093" lon="16.06339">
        <ele>285.793667</ele>
        <time>2026-07-08T13:09:38.000Z</time>
      </trkpt>
      <trkpt lat="47.06088" lon="16.06336">
        <ele>285.798255</ele>
        <time>2026-07-08T13:09:39.000Z</time>
      </trkpt>
      <trkpt lat="47.06085" lon="16.06333">
        <ele>285.802335</ele>
        <time>2026-07-08T13:09:40.000Z</time>
      </trkpt>
      <trkpt lat="47.06081" lon="16.0633">
        <ele>285.806272</ele>
        <time>2026-07-08T13:09:41.000Z</time>
      </trkpt>
      <trkpt lat="47.06078" lon="16.06327">
        <ele>285.809779</ele>
        <time>2026-07-08T13:09:42.000Z</time>
      </trkpt>
      <trkpt lat="47.06075" lon="16.06323">
        <ele>285.812958</ele>
        <time>2026-07-08T13:09:43.000Z</time>
      </trkpt>
      <trkpt lat="47.06074" lon="16.0632">
        <ele>285.815485</ele>
        <time>2026-07-08T13:09:44.000Z</time>
      </trkpt>
      <trkpt lat="47.06072" lon="16.06319">
        <ele>285.817468</ele>
        <time>2026-07-08T13:09:45.000Z</time>
      </trkpt>
      <trkpt lat="47.0607" lon="16.06318">
        <ele>285.819458</ele>
        <time>2026-07-08T13:09:46.000Z</time>
      </trkpt>
      <trkpt lat="47.06068" lon="16.0632">
        <ele>285.82171</ele>
        <time>2026-07-08T13:09:47.000Z</time>
      </trkpt>
      <trkpt lat="47.06066" lon="16.06323">
        <ele>285.824053</ele>
        <time>2026-07-08T13:09:48.000Z</time>
      </trkpt>
      <trkpt lat="47.06065" lon="16.06326">
        <ele>285.826205</ele>
        <time>2026-07-08T13:09:49.000Z</time>
      </trkpt>
      <trkpt lat="47.06064" lon="16.06329">
        <ele>285.828256</ele>
        <time>2026-07-08T13:09:50.000Z</time>
      </trkpt>
      <trkpt lat="47.06062" lon="16.0633">
        <ele>285.829955</ele>
        <time>2026-07-08T13:09:51.000Z</time>
      </trkpt>
      <trkpt lat="47.0606" lon="16.0633">
        <ele>285.832071</ele>
        <time>2026-07-08T13:09:52.000Z</time>
      </trkpt>
      <trkpt lat="47.06058" lon="16.06331">
        <ele>285.83427</ele>
        <time>2026-07-08T13:09:53.000Z</time>
      </trkpt>
      <trkpt lat="47.06055" lon="16.06331">
        <ele>285.836836</ele>
        <time>2026-07-08T13:09:54.000Z</time>
      </trkpt>
      <trkpt lat="47.06052" lon="16.06332">
        <ele>285.839486</ele>
        <time>2026-07-08T13:09:55.000Z</time>
      </trkpt>
      <trkpt lat="47.06051" lon="16.06335">
        <ele>285.84192</ele>
        <time>2026-07-08T13:09:56.000Z</time>
      </trkpt>
      <trkpt lat="47.0605" lon="16.0634">
        <ele>285.844893</ele>
        <time>2026-07-08T13:09:57.000Z</time>
      </trkpt>
      <trkpt lat="47.0605" lon="16.06345">
        <ele>285.848438</ele>
        <time>2026-07-08T13:09:58.000Z</time>
      </trkpt>
      <trkpt lat="47.0605" lon="16.06351">
        <ele>285.852436</ele>
        <time>2026-07-08T13:09:59.000Z</time>
      </trkpt>
      <trkpt lat="47.06049" lon="16.06358">
        <ele>285.856714</ele>
        <time>2026-07-08T13:10:00.000Z</time>
      </trkpt>
      <trkpt lat="47.06048" lon="16.06365">
        <ele>285.861133</ele>
        <time>2026-07-08T13:10:01.000Z</time>
      </trkpt>
      <trkpt lat="47.06047" lon="16.06371">
        <ele>285.865347</ele>
        <time>2026-07-08T13:10:02.000Z</time>
      </trkpt>
      <trkpt lat="47.06046" lon="16.06377">
        <ele>285.869649</ele>
        <time>2026-07-08T13:10:03.000Z</time>
      </trkpt>
      <trkpt lat="47.06044" lon="16.06383">
        <ele>285.873767</ele>
        <time>2026-07-08T13:10:04.000Z</time>
      </trkpt>
      <trkpt lat="47.06043" lon="16.06389">
        <ele>285.876365</ele>
        <time>2026-07-08T13:10:05.000Z</time>
      </trkpt>
      <trkpt lat="47.06041" lon="16.06395">
        <ele>285.867905</ele>
        <time>2026-07-08T13:10:06.000Z</time>
      </trkpt>
      <trkpt lat="47.06039" lon="16.064">
        <ele>285.85986</ele>
        <time>2026-07-08T13:10:07.000Z</time>
      </trkpt>
      <trkpt lat="47.06037" lon="16.06405">
        <ele>285.851222</ele>
        <time>2026-07-08T13:10:08.000Z</time>
      </trkpt>
      <trkpt lat="47.06035" lon="16.06411">
        <ele>285.842241</ele>
        <time>2026-07-08T13:10:09.000Z</time>
      </trkpt>
      <trkpt lat="47.06033" lon="16.06417">
        <ele>285.832885</ele>
        <time>2026-07-08T13:10:10.000Z</time>
      </trkpt>
      <trkpt lat="47.06031" lon="16.06423">
        <ele>285.823685</ele>
        <time>2026-07-08T13:10:11.000Z</time>
      </trkpt>
      <trkpt lat="47.06029" lon="16.06429">
        <ele>285.814263</ele>
        <time>2026-07-08T13:10:12.000Z</time>
      </trkpt>
      <trkpt lat="47.06027" lon="16.06435">
        <ele>285.804412</ele>
        <time>2026-07-08T13:10:13.000Z</time>
      </trkpt>
      <trkpt lat="47.06024" lon="16.06441">
        <ele>285.79444</ele>
        <time>2026-07-08T13:10:14.000Z</time>
      </trkpt>
      <trkpt lat="47.06022" lon="16.06447">
        <ele>285.784552</ele>
        <time>2026-07-08T13:10:15.000Z</time>
      </trkpt>
      <trkpt lat="47.06019" lon="16.06453">
        <ele>285.77446</ele>
        <time>2026-07-08T13:10:16.000Z</time>
      </trkpt>
      <trkpt lat="47.06017" lon="16.06459">
        <ele>285.764271</ele>
        <time>2026-07-08T13:10:17.000Z</time>
      </trkpt>
      <trkpt lat="47.06014" lon="16.06465">
        <ele>285.754084</ele>
        <time>2026-07-08T13:10:18.000Z</time>
      </trkpt>
      <trkpt lat="47.06011" lon="16.06472">
        <ele>285.743777</ele>
        <time>2026-07-08T13:10:19.000Z</time>
      </trkpt>
      <trkpt lat="47.06008" lon="16.06478">
        <ele>285.733351</ele>
        <time>2026-07-08T13:10:20.000Z</time>
      </trkpt>
      <trkpt lat="47.06006" lon="16.06484">
        <ele>285.723153</ele>
        <time>2026-07-08T13:10:21.000Z</time>
      </trkpt>
      <trkpt lat="47.06003" lon="16.0649">
        <ele>285.713165</ele>
        <time>2026-07-08T13:10:22.000Z</time>
      </trkpt>
      <trkpt lat="47.06001" lon="16.06496">
        <ele>285.703313</ele>
        <time>2026-07-08T13:10:23.000Z</time>
      </trkpt>
      <trkpt lat="47.05998" lon="16.06502">
        <ele>285.693353</ele>
        <time>2026-07-08T13:10:24.000Z</time>
      </trkpt>
      <trkpt lat="47.05995" lon="16.06508">
        <ele>285.682934</ele>
        <time>2026-07-08T13:10:25.000Z</time>
      </trkpt>
      <trkpt lat="47.05993" lon="16.06515">
        <ele>285.67228</ele>
        <time>2026-07-08T13:10:26.000Z</time>
      </trkpt>
      <trkpt lat="47.0599" lon="16.06521">
        <ele>285.661616</ele>
        <time>2026-07-08T13:10:27.000Z</time>
      </trkpt>
      <trkpt lat="47.05987" lon="16.06528">
        <ele>285.651079</ele>
        <time>2026-07-08T13:10:28.000Z</time>
      </trkpt>
      <trkpt lat="47.05984" lon="16.06534">
        <ele>285.640082</ele>
        <time>2026-07-08T13:10:29.000Z</time>
      </trkpt>
      <trkpt lat="47.05981" lon="16.06541">
        <ele>285.62931</ele>
        <time>2026-07-08T13:10:30.000Z</time>
      </trkpt>
      <trkpt lat="47.05978" lon="16.06547">
        <ele>285.618312</ele>
        <time>2026-07-08T13:10:31.000Z</time>
      </trkpt>
      <trkpt lat="47.05975" lon="16.06554">
        <ele>285.607194</ele>
        <time>2026-07-08T13:10:32.000Z</time>
      </trkpt>
      <trkpt lat="47.05973" lon="16.0656">
        <ele>285.596514</ele>
        <time>2026-07-08T13:10:33.000Z</time>
      </trkpt>
      <trkpt lat="47.0597" lon="16.06567">
        <ele>285.585611</ele>
        <time>2026-07-08T13:10:34.000Z</time>
      </trkpt>
      <trkpt lat="47.05967" lon="16.06574">
        <ele>285.574838</ele>
        <time>2026-07-08T13:10:35.000Z</time>
      </trkpt>
      <trkpt lat="47.05964" lon="16.0658">
        <ele>285.564304</ele>
        <time>2026-07-08T13:10:36.000Z</time>
      </trkpt>
      <trkpt lat="47.05962" lon="16.06586">
        <ele>285.554225</ele>
        <time>2026-07-08T13:10:37.000Z</time>
      </trkpt>
      <trkpt lat="47.05959" lon="16.06592">
        <ele>285.544269</ele>
        <time>2026-07-08T13:10:38.000Z</time>
      </trkpt>
      <trkpt lat="47.05956" lon="16.06598">
        <ele>285.53408</ele>
        <time>2026-07-08T13:10:39.000Z</time>
      </trkpt>
      <trkpt lat="47.05954" lon="16.06604">
        <ele>285.523642</ele>
        <time>2026-07-08T13:10:40.000Z</time>
      </trkpt>
      <trkpt lat="47.05951" lon="16.06611">
        <ele>285.512875</ele>
        <time>2026-07-08T13:10:41.000Z</time>
      </trkpt>
      <trkpt lat="47.05948" lon="16.06617">
        <ele>285.497405</ele>
        <time>2026-07-08T13:10:42.000Z</time>
      </trkpt>
      <trkpt lat="47.05945" lon="16.06624">
        <ele>285.477901</ele>
        <time>2026-07-08T13:10:43.000Z</time>
      </trkpt>
      <trkpt lat="47.05942" lon="16.06631">
        <ele>285.457207</ele>
        <time>2026-07-08T13:10:44.000Z</time>
      </trkpt>
      <trkpt lat="47.05939" lon="16.06638">
        <ele>285.436906</ele>
        <time>2026-07-08T13:10:45.000Z</time>
      </trkpt>
      <trkpt lat="47.05936" lon="16.06645">
        <ele>285.416604</ele>
        <time>2026-07-08T13:10:46.000Z</time>
      </trkpt>
      <trkpt lat="47.05933" lon="16.06652">
        <ele>285.396303</ele>
        <time>2026-07-08T13:10:47.000Z</time>
      </trkpt>
      <trkpt lat="47.0593" lon="16.06659">
        <ele>285.375585</ele>
        <time>2026-07-08T13:10:48.000Z</time>
      </trkpt>
      <trkpt lat="47.05927" lon="16.06666">
        <ele>285.354486</ele>
        <time>2026-07-08T13:10:49.000Z</time>
      </trkpt>
      <trkpt lat="47.05923" lon="16.06674">
        <ele>285.332969</ele>
        <time>2026-07-08T13:10:50.000Z</time>
      </trkpt>
      <trkpt lat="47.0592" lon="16.06681">
        <ele>285.312041</ele>
        <time>2026-07-08T13:10:51.000Z</time>
      </trkpt>
      <trkpt lat="47.05917" lon="16.06689">
        <ele>285.290506</ele>
        <time>2026-07-08T13:10:52.000Z</time>
      </trkpt>
      <trkpt lat="47.05914" lon="16.06696">
        <ele>285.268798</ele>
        <time>2026-07-08T13:10:53.000Z</time>
      </trkpt>
      <trkpt lat="47.05911" lon="16.06703">
        <ele>285.247264</ele>
        <time>2026-07-08T13:10:54.000Z</time>
      </trkpt>
      <trkpt lat="47.05908" lon="16.06711">
        <ele>285.224701</ele>
        <time>2026-07-08T13:10:55.000Z</time>
      </trkpt>
      <trkpt lat="47.05904" lon="16.06719">
        <ele>285.202769</ele>
        <time>2026-07-08T13:10:56.000Z</time>
      </trkpt>
      <trkpt lat="47.05901" lon="16.06727">
        <ele>285.180813</ele>
        <time>2026-07-08T13:10:57.000Z</time>
      </trkpt>
      <trkpt lat="47.05898" lon="16.06734">
        <ele>285.159463</ele>
        <time>2026-07-08T13:10:58.000Z</time>
      </trkpt>
      <trkpt lat="47.05895" lon="16.06742">
        <ele>285.137864</ele>
        <time>2026-07-08T13:10:59.000Z</time>
      </trkpt>
      <trkpt lat="47.05893" lon="16.06749">
        <ele>285.116654</ele>
        <time>2026-07-08T13:11:00.000Z</time>
      </trkpt>
      <trkpt lat="47.0589" lon="16.06757">
        <ele>285.09583</ele>
        <time>2026-07-08T13:11:01.000Z</time>
      </trkpt>
      <trkpt lat="47.05887" lon="16.06764">
        <ele>285.075554</ele>
        <time>2026-07-08T13:11:02.000Z</time>
      </trkpt>
      <trkpt lat="47.05885" lon="16.06771">
        <ele>285.056917</ele>
        <time>2026-07-08T13:11:03.000Z</time>
      </trkpt>
      <trkpt lat="47.05883" lon="16.06777">
        <ele>285.039371</ele>
        <time>2026-07-08T13:11:04.000Z</time>
      </trkpt>
      <trkpt lat="47.0588" lon="16.06783">
        <ele>285.02229</ele>
        <time>2026-07-08T13:11:05.000Z</time>
      </trkpt>
      <trkpt lat="47.05878" lon="16.06789">
        <ele>285.005025</ele>
        <time>2026-07-08T13:11:06.000Z</time>
      </trkpt>
      <trkpt lat="47.05875" lon="16.06796">
        <ele>284.987339</ele>
        <time>2026-07-08T13:11:07.000Z</time>
      </trkpt>
      <trkpt lat="47.05873" lon="16.06802">
        <ele>284.968835</ele>
        <time>2026-07-08T13:11:08.000Z</time>
      </trkpt>
      <trkpt lat="47.0587" lon="16.06809">
        <ele>284.949349</ele>
        <time>2026-07-08T13:11:09.000Z</time>
      </trkpt>
      <trkpt lat="47.05867" lon="16.06816">
        <ele>284.929844</ele>
        <time>2026-07-08T13:11:10.000Z</time>
      </trkpt>
      <trkpt lat="47.05864" lon="16.06823">
        <ele>284.909917</ele>
        <time>2026-07-08T13:11:11.000Z</time>
      </trkpt>
      <trkpt lat="47.05861" lon="16.06829">
        <ele>284.890843</ele>
        <time>2026-07-08T13:11:12.000Z</time>
      </trkpt>
      <trkpt lat="47.05859" lon="16.06836">
        <ele>284.871548</ele>
        <time>2026-07-08T13:11:13.000Z</time>
      </trkpt>
      <trkpt lat="47.05856" lon="16.06843">
        <ele>284.852527</ele>
        <time>2026-07-08T13:11:14.000Z</time>
      </trkpt>
      <trkpt lat="47.05852" lon="16.06849">
        <ele>284.834507</ele>
        <time>2026-07-08T13:11:15.000Z</time>
      </trkpt>
      <trkpt lat="47.05849" lon="16.06856">
        <ele>284.816848</ele>
        <time>2026-07-08T13:11:16.000Z</time>
      </trkpt>
      <trkpt lat="47.05846" lon="16.06863">
        <ele>284.799729</ele>
        <time>2026-07-08T13:11:17.000Z</time>
      </trkpt>
      <trkpt lat="47.05843" lon="16.06869">
        <ele>284.782788</ele>
        <time>2026-07-08T13:11:18.000Z</time>
      </trkpt>
      <trkpt lat="47.05841" lon="16.06876">
        <ele>284.76565</ele>
        <time>2026-07-08T13:11:19.000Z</time>
      </trkpt>
      <trkpt lat="47.05838" lon="16.06882">
        <ele>284.748891</ele>
        <time>2026-07-08T13:11:20.000Z</time>
      </trkpt>
      <trkpt lat="47.05835" lon="16.06888">
        <ele>284.73231</ele>
        <time>2026-07-08T13:11:21.000Z</time>
      </trkpt>
      <trkpt lat="47.05832" lon="16.06895">
        <ele>284.715909</ele>
        <time>2026-07-08T13:11:22.000Z</time>
      </trkpt>
      <trkpt lat="47.05829" lon="16.06901">
        <ele>284.699511</ele>
        <time>2026-07-08T13:11:23.000Z</time>
      </trkpt>
      <trkpt lat="47.05826" lon="16.06907">
        <ele>284.684546</ele>
        <time>2026-07-08T13:11:24.000Z</time>
      </trkpt>
      <trkpt lat="47.05824" lon="16.06912">
        <ele>284.67013</ele>
        <time>2026-07-08T13:11:25.000Z</time>
      </trkpt>
      <trkpt lat="47.05822" lon="16.06917">
        <ele>284.656612</ele>
        <time>2026-07-08T13:11:26.000Z</time>
      </trkpt>
      <trkpt lat="47.05819" lon="16.06922">
        <ele>284.643438</ele>
        <time>2026-07-08T13:11:27.000Z</time>
      </trkpt>
      <trkpt lat="47.05816" lon="16.06926">
        <ele>284.630625</ele>
        <time>2026-07-08T13:11:28.000Z</time>
      </trkpt>
      <trkpt lat="47.05814" lon="16.0693">
        <ele>284.619568</ele>
        <time>2026-07-08T13:11:29.000Z</time>
      </trkpt>
      <trkpt lat="47.05811" lon="16.06933">
        <ele>284.608586</ele>
        <time>2026-07-08T13:11:30.000Z</time>
      </trkpt>
      <trkpt lat="47.0581" lon="16.06937">
        <ele>284.598314</ele>
        <time>2026-07-08T13:11:31.000Z</time>
      </trkpt>
      <trkpt lat="47.05808" lon="16.0694">
        <ele>284.591467</ele>
        <time>2026-07-08T13:11:32.000Z</time>
      </trkpt>
      <trkpt lat="47.05808" lon="16.06941">
        <ele>284.588267</ele>
        <time>2026-07-08T13:11:33.000Z</time>
      </trkpt>
      <trkpt lat="47.05808" lon="16.06941">
        <ele>284.587591</ele>
        <time>2026-07-08T13:11:34.000Z</time>
      </trkpt>
      <trkpt lat="47.05803" lon="16.06954">
        <ele>284.556173</ele>
        <time>2026-07-08T13:11:44.000Z</time>
      </trkpt>
      <trkpt lat="47.05802" lon="16.06958">
        <ele>284.546902</ele>
        <time>2026-07-08T13:11:45.000Z</time>
      </trkpt>
      <trkpt lat="47.058" lon="16.06961">
        <ele>284.53699</ele>
        <time>2026-07-08T13:11:46.000Z</time>
      </trkpt>
      <trkpt lat="47.05798" lon="16.06966">
        <ele>284.525612</ele>
        <time>2026-07-08T13:11:47.000Z</time>
      </trkpt>
      <trkpt lat="47.05796" lon="16.0697">
        <ele>284.514392</ele>
        <time>2026-07-08T13:11:48.000Z</time>
      </trkpt>
      <trkpt lat="47.05795" lon="16.06975">
        <ele>284.502636</ele>
        <time>2026-07-08T13:11:49.000Z</time>
      </trkpt>
      <trkpt lat="47.05793" lon="16.0698">
        <ele>284.491122</ele>
        <time>2026-07-08T13:11:50.000Z</time>
      </trkpt>
      <trkpt lat="47.05791" lon="16.06984">
        <ele>284.480093</ele>
        <time>2026-07-08T13:11:51.000Z</time>
      </trkpt>
      <trkpt lat="47.0579" lon="16.06988">
        <ele>284.469946</ele>
        <time>2026-07-08T13:11:52.000Z</time>
      </trkpt>
      <trkpt lat="47.05788" lon="16.06993">
        <ele>284.459218</ele>
        <time>2026-07-08T13:11:53.000Z</time>
      </trkpt>
      <trkpt lat="47.05787" lon="16.06997">
        <ele>284.449203</ele>
        <time>2026-07-08T13:11:54.000Z</time>
      </trkpt>
      <trkpt lat="47.05787" lon="16.07002">
        <ele>284.439308</ele>
        <time>2026-07-08T13:11:55.000Z</time>
      </trkpt>
      <trkpt lat="47.05788" lon="16.07006">
        <ele>284.430123</ele>
        <time>2026-07-08T13:11:56.000Z</time>
      </trkpt>
      <trkpt lat="47.0579" lon="16.07008">
        <ele>284.421886</ele>
        <time>2026-07-08T13:11:57.000Z</time>
      </trkpt>
      <trkpt lat="47.05792" lon="16.07009">
        <ele>284.415452</ele>
        <time>2026-07-08T13:11:58.000Z</time>
      </trkpt>
      <trkpt lat="47.05794" lon="16.07007">
        <ele>284.407944</ele>
        <time>2026-07-08T13:11:59.000Z</time>
      </trkpt>
      <trkpt lat="47.05795" lon="16.07005">
        <ele>284.400447</ele>
        <time>2026-07-08T13:12:00.000Z</time>
      </trkpt>
      <trkpt lat="47.05797" lon="16.07004">
        <ele>284.394013</ele>
        <time>2026-07-08T13:12:01.000Z</time>
      </trkpt>
      <trkpt lat="47.05799" lon="16.07007">
        <ele>284.38707</ele>
        <time>2026-07-08T13:12:02.000Z</time>
      </trkpt>
      <trkpt lat="47.05799" lon="16.0701">
        <ele>284.380086</ele>
        <time>2026-07-08T13:12:03.000Z</time>
      </trkpt>
      <trkpt lat="47.05797" lon="16.07012">
        <ele>284.372228</ele>
        <time>2026-07-08T13:12:04.000Z</time>
      </trkpt>
      <trkpt lat="47.05794" lon="16.07013">
        <ele>284.363005</ele>
        <time>2026-07-08T13:12:05.000Z</time>
      </trkpt>
      <trkpt lat="47.05791" lon="16.07013">
        <ele>284.353721</ele>
        <time>2026-07-08T13:12:06.000Z</time>
      </trkpt>
      <trkpt lat="47.05789" lon="16.07012">
        <ele>284.345752</ele>
        <time>2026-07-08T13:12:07.000Z</time>
      </trkpt>
      <trkpt lat="47.05787" lon="16.0701">
        <ele>284.338393</ele>
        <time>2026-07-08T13:12:08.000Z</time>
      </trkpt>
      <trkpt lat="47.05786" lon="16.07007">
        <ele>284.331337</ele>
        <time>2026-07-08T13:12:09.000Z</time>
      </trkpt>
      <trkpt lat="47.05785" lon="16.07005">
        <ele>284.325512</ele>
        <time>2026-07-08T13:12:10.000Z</time>
      </trkpt>
      <trkpt lat="47.05785" lon="16.07004">
        <ele>284.322807</ele>
        <time>2026-07-08T13:12:11.000Z</time>
      </trkpt>
      <trkpt lat="47.05784" lon="16.07004">
        <ele>284.321752</ele>
        <time>2026-07-08T13:12:12.000Z</time>
      </trkpt>
      <trkpt lat="47.05784" lon="16.06997">
        <ele>284.307088</ele>
        <time>2026-07-08T13:12:31.000Z</time>
      </trkpt>
      <trkpt lat="47.05784" lon="16.06993">
        <ele>284.298273</ele>
        <time>2026-07-08T13:12:32.000Z</time>
      </trkpt>
      <trkpt lat="47.05785" lon="16.06989">
        <ele>284.288116</ele>
        <time>2026-07-08T13:12:33.000Z</time>
      </trkpt>
      <trkpt lat="47.05786" lon="16.06984">
        <ele>284.281719</ele>
        <time>2026-07-08T13:12:34.000Z</time>
      </trkpt>
      <trkpt lat="47.05787" lon="16.06979">
        <ele>284.278107</ele>
        <time>2026-07-08T13:12:35.000Z</time>
      </trkpt>
      <trkpt lat="47.05788" lon="16.06974">
        <ele>284.274399</ele>
        <time>2026-07-08T13:12:36.000Z</time>
      </trkpt>
      <trkpt lat="47.05789" lon="16.06968">
        <ele>284.270533</ele>
        <time>2026-07-08T13:12:37.000Z</time>
      </trkpt>
      <trkpt lat="47.05789" lon="16.06963">
        <ele>284.266851</ele>
        <time>2026-07-08T13:12:38.000Z</time>
      </trkpt>
      <trkpt lat="47.0579" lon="16.06957">
        <ele>284.263254</ele>
        <time>2026-07-08T13:12:39.000Z</time>
      </trkpt>
      <trkpt lat="47.05791" lon="16.06953">
        <ele>284.25978</ele>
        <time>2026-07-08T13:12:40.000Z</time>
      </trkpt>
      <trkpt lat="47.05793" lon="16.06948">
        <ele>284.256405</ele>
        <time>2026-07-08T13:12:41.000Z</time>
      </trkpt>
      <trkpt lat="47.05795" lon="16.06945">
        <ele>284.253527</ele>
        <time>2026-07-08T13:12:42.000Z</time>
      </trkpt>
      <trkpt lat="47.05796" lon="16.06942">
        <ele>284.251292</ele>
        <time>2026-07-08T13:12:43.000Z</time>
      </trkpt>
      <trkpt lat="47.05796" lon="16.06939">
        <ele>284.249685</ele>
        <time>2026-07-08T13:12:44.000Z</time>
      </trkpt>
      <trkpt lat="47.05796" lon="16.06938">
        <ele>284.248638</ele>
        <time>2026-07-08T13:12:45.000Z</time>
      </trkpt>
      <trkpt lat="47.05795" lon="16.06937">
        <ele>284.247842</ele>
        <time>2026-07-08T13:12:46.000Z</time>
      </trkpt>
      <trkpt lat="47.05794" lon="16.06937">
        <ele>284.247346</ele>
        <time>2026-07-08T13:12:47.000Z</time>
      </trkpt>
      <trkpt lat="47.05794" lon="16.06938">
        <ele>284.2469</ele>
        <time>2026-07-08T13:12:48.000Z</time>
      </trkpt>
      <trkpt lat="47.05788" lon="16.06937">
        <ele>284.24098</ele>
        <time>2026-07-08T13:12:53.000Z</time>
      </trkpt>
      <trkpt lat="47.05786" lon="16.06937">
        <ele>284.238711</ele>
        <time>2026-07-08T13:12:54.000Z</time>
      </trkpt>
      <trkpt lat="47.05783" lon="16.06937">
        <ele>284.236253</ele>
        <time>2026-07-08T13:12:55.000Z</time>
      </trkpt>
      <trkpt lat="47.05781" lon="16.06937">
        <ele>284.233891</ele>
        <time>2026-07-08T13:12:56.000Z</time>
      </trkpt>
      <trkpt lat="47.05778" lon="16.06937">
        <ele>284.231426</ele>
        <time>2026-07-08T13:12:57.000Z</time>
      </trkpt>
      <trkpt lat="47.05776" lon="16.06938">
        <ele>284.228662</ele>
        <time>2026-07-08T13:12:58.000Z</time>
      </trkpt>
      <trkpt lat="47.05773" lon="16.06938">
        <ele>284.22589</ele>
        <time>2026-07-08T13:12:59.000Z</time>
      </trkpt>
      <trkpt lat="47.0577" lon="16.06939">
        <ele>284.222894</ele>
        <time>2026-07-08T13:13:00.000Z</time>
      </trkpt>
      <trkpt lat="47.05766" lon="16.0694">
        <ele>284.219487</ele>
        <time>2026-07-08T13:13:01.000Z</time>
      </trkpt>
      <trkpt lat="47.05763" lon="16.06941">
        <ele>284.215939</ele>
        <time>2026-07-08T13:13:02.000Z</time>
      </trkpt>
      <trkpt lat="47.05759" lon="16.06943">
        <ele>284.212262</ele>
        <time>2026-07-08T13:13:03.000Z</time>
      </trkpt>
      <trkpt lat="47.05755" lon="16.06945">
        <ele>284.208224</ele>
        <time>2026-07-08T13:13:04.000Z</time>
      </trkpt>
      <trkpt lat="47.05751" lon="16.06946">
        <ele>284.204198</ele>
        <time>2026-07-08T13:13:05.000Z</time>
      </trkpt>
      <trkpt lat="47.05747" lon="16.06947">
        <ele>284.19992</ele>
        <time>2026-07-08T13:13:06.000Z</time>
      </trkpt>
      <trkpt lat="47.05742" lon="16.06948">
        <ele>284.195254</ele>
        <time>2026-07-08T13:13:07.000Z</time>
      </trkpt>
      <trkpt lat="47.05738" lon="16.06949">
        <ele>284.190684</ele>
        <time>2026-07-08T13:13:08.000Z</time>
      </trkpt>
      <trkpt lat="47.05733" lon="16.0695">
        <ele>284.185791</ele>
        <time>2026-07-08T13:13:09.000Z</time>
      </trkpt>
      <trkpt lat="47.05728" lon="16.06952">
        <ele>284.18113</ele>
        <time>2026-07-08T13:13:10.000Z</time>
      </trkpt>
      <trkpt lat="47.05723" lon="16.06954">
        <ele>284.176182</ele>
        <time>2026-07-08T13:13:11.000Z</time>
      </trkpt>
      <trkpt lat="47.05719" lon="16.06955">
        <ele>284.171676</ele>
        <time>2026-07-08T13:13:12.000Z</time>
      </trkpt>
      <trkpt lat="47.05714" lon="16.06957">
        <ele>284.167045</ele>
        <time>2026-07-08T13:13:13.000Z</time>
      </trkpt>
      <trkpt lat="47.0571" lon="16.06958">
        <ele>284.162539</ele>
        <time>2026-07-08T13:13:14.000Z</time>
      </trkpt>
      <trkpt lat="47.05705" lon="16.06959">
        <ele>284.158004</ele>
        <time>2026-07-08T13:13:15.000Z</time>
      </trkpt>
      <trkpt lat="47.05701" lon="16.06961">
        <ele>284.153963</ele>
        <time>2026-07-08T13:13:16.000Z</time>
      </trkpt>
      <trkpt lat="47.05698" lon="16.06961">
        <ele>284.150521</ele>
        <time>2026-07-08T13:13:17.000Z</time>
      </trkpt>
      <trkpt lat="47.05695" lon="16.06958">
        <ele>284.147196</ele>
        <time>2026-07-08T13:13:18.000Z</time>
      </trkpt>
      <trkpt lat="47.05693" lon="16.06955">
        <ele>284.144318</ele>
        <time>2026-07-08T13:13:19.000Z</time>
      </trkpt>
      <trkpt lat="47.05693" lon="16.06952">
        <ele>284.1423</ele>
        <time>2026-07-08T13:13:20.000Z</time>
      </trkpt>
      <trkpt lat="47.05694" lon="16.06949">
        <ele>284.140288</ele>
        <time>2026-07-08T13:13:21.000Z</time>
      </trkpt>
      <trkpt lat="47.05695" lon="16.06946">
        <ele>284.138255</ele>
        <time>2026-07-08T13:13:22.000Z</time>
      </trkpt>
      <trkpt lat="47.05694" lon="16.06944">
        <ele>284.136424</ele>
        <time>2026-07-08T13:13:23.000Z</time>
      </trkpt>
      <trkpt lat="47.05693" lon="16.06942">
        <ele>284.134638</ele>
        <time>2026-07-08T13:13:24.000Z</time>
      </trkpt>
      <trkpt lat="47.05691" lon="16.0694">
        <ele>284.132855</ele>
        <time>2026-07-08T13:13:25.000Z</time>
      </trkpt>
      <trkpt lat="47.05689" lon="16.06939">
        <ele>284.130648</ele>
        <time>2026-07-08T13:13:26.000Z</time>
      </trkpt>
      <trkpt lat="47.05688" lon="16.06937">
        <ele>284.128782</ele>
        <time>2026-07-08T13:13:27.000Z</time>
      </trkpt>
      <trkpt lat="47.05686" lon="16.06936">
        <ele>284.12656</ele>
        <time>2026-07-08T13:13:28.000Z</time>
      </trkpt>
      <trkpt lat="47.05684" lon="16.06934">
        <ele>284.124289</ele>
        <time>2026-07-08T13:13:29.000Z</time>
      </trkpt>
      <trkpt lat="47.05682" lon="16.06932">
        <ele>284.121964</ele>
        <time>2026-07-08T13:13:30.000Z</time>
      </trkpt>
      <trkpt lat="47.0568" lon="16.0693">
        <ele>284.119456</ele>
        <time>2026-07-08T13:13:31.000Z</time>
      </trkpt>
      <trkpt lat="47.05678" lon="16.06929">
        <ele>284.117485</ele>
        <time>2026-07-08T13:13:32.000Z</time>
      </trkpt>
      <trkpt lat="47.05676" lon="16.06927">
        <ele>284.115214</ele>
        <time>2026-07-08T13:13:33.000Z</time>
      </trkpt>
      <trkpt lat="47.05674" lon="16.06926">
        <ele>284.113007</ele>
        <time>2026-07-08T13:13:34.000Z</time>
      </trkpt>
      <trkpt lat="47.05671" lon="16.06925">
        <ele>284.110588</ele>
        <time>2026-07-08T13:13:35.000Z</time>
      </trkpt>
      <trkpt lat="47.05669" lon="16.06927">
        <ele>284.10766</ele>
        <time>2026-07-08T13:13:36.000Z</time>
      </trkpt>
      <trkpt lat="47.05666" lon="16.06929">
        <ele>284.102019</ele>
        <time>2026-07-08T13:13:37.000Z</time>
      </trkpt>
      <trkpt lat="47.05662" lon="16.06933">
        <ele>284.094694</ele>
        <time>2026-07-08T13:13:38.000Z</time>
      </trkpt>
      <trkpt lat="47.05659" lon="16.06937">
        <ele>284.087161</ele>
        <time>2026-07-08T13:13:39.000Z</time>
      </trkpt>
      <trkpt lat="47.05655" lon="16.06939">
        <ele>284.079946</ele>
        <time>2026-07-08T13:13:40.000Z</time>
      </trkpt>
      <trkpt lat="47.05651" lon="16.0694">
        <ele>284.072706</ele>
        <time>2026-07-08T13:13:41.000Z</time>
      </trkpt>
      <trkpt lat="47.05647" lon="16.06943">
        <ele>284.065646</ele>
        <time>2026-07-08T13:13:42.000Z</time>
      </trkpt>
      <trkpt lat="47.05644" lon="16.06947">
        <ele>284.058113</ele>
        <time>2026-07-08T13:13:43.000Z</time>
      </trkpt>
      <trkpt lat="47.0564" lon="16.06951">
        <ele>284.050142</ele>
        <time>2026-07-08T13:13:44.000Z</time>
      </trkpt>
      <trkpt lat="47.05637" lon="16.06956">
        <ele>284.041985</ele>
        <time>2026-07-08T13:13:45.000Z</time>
      </trkpt>
      <trkpt lat="47.05633" lon="16.0696">
        <ele>284.033781</ele>
        <time>2026-07-08T13:13:46.000Z</time>
      </trkpt>
      <trkpt lat="47.0563" lon="16.06965">
        <ele>284.025334</ele>
        <time>2026-07-08T13:13:47.000Z</time>
      </trkpt>
      <trkpt lat="47.05626" lon="16.0697">
        <ele>284.01684</ele>
        <time>2026-07-08T13:13:48.000Z</time>
      </trkpt>
      <trkpt lat="47.05623" lon="16.06975">
        <ele>284.008435</ele>
        <time>2026-07-08T13:13:49.000Z</time>
      </trkpt>
      <trkpt lat="47.0562" lon="16.0698">
        <ele>284.000568</ele>
        <time>2026-07-08T13:13:50.000Z</time>
      </trkpt>
      <trkpt lat="47.05616" lon="16.06984">
        <ele>283.992402</ele>
        <time>2026-07-08T13:13:51.000Z</time>
      </trkpt>
      <trkpt lat="47.05612" lon="16.06987">
        <ele>283.984516</ele>
        <time>2026-07-08T13:13:52.000Z</time>
      </trkpt>
      <trkpt lat="47.05608" lon="16.06991">
        <ele>283.976828</ele>
        <time>2026-07-08T13:13:53.000Z</time>
      </trkpt>
      <trkpt lat="47.05605" lon="16.06994">
        <ele>283.969352</ele>
        <time>2026-07-08T13:13:54.000Z</time>
      </trkpt>
      <trkpt lat="47.05601" lon="16.06998">
        <ele>283.961791</ele>
        <time>2026-07-08T13:13:55.000Z</time>
      </trkpt>
      <trkpt lat="47.05597" lon="16.07001">
        <ele>283.954104</ele>
        <time>2026-07-08T13:13:56.000Z</time>
      </trkpt>
      <trkpt lat="47.05594" lon="16.07005">
        <ele>283.946476</ele>
        <time>2026-07-08T13:13:57.000Z</time>
      </trkpt>
      <trkpt lat="47.05591" lon="16.0701">
        <ele>283.938609</ele>
        <time>2026-07-08T13:13:58.000Z</time>
      </trkpt>
      <trkpt lat="47.05588" lon="16.07014">
        <ele>283.931152</ele>
        <time>2026-07-08T13:13:59.000Z</time>
      </trkpt>
      <trkpt lat="47.05585" lon="16.0702">
        <ele>283.923266</ele>
        <time>2026-07-08T13:14:00.000Z</time>
      </trkpt>
      <trkpt lat="47.05582" lon="16.07025">
        <ele>283.915487</ele>
        <time>2026-07-08T13:14:01.000Z</time>
      </trkpt>
      <trkpt lat="47.05579" lon="16.0703">
        <ele>283.90756</ele>
        <time>2026-07-08T13:14:02.000Z</time>
      </trkpt>
      <trkpt lat="47.05576" lon="16.07035">
        <ele>283.899633</ele>
        <time>2026-07-08T13:14:03.000Z</time>
      </trkpt>
      <trkpt lat="47.05574" lon="16.0704">
        <ele>283.891653</ele>
        <time>2026-07-08T13:14:04.000Z</time>
      </trkpt>
      <trkpt lat="47.05571" lon="16.07046">
        <ele>283.883587</ele>
        <time>2026-07-08T13:14:05.000Z</time>
      </trkpt>
      <trkpt lat="47.05568" lon="16.07051">
        <ele>283.87513</ele>
        <time>2026-07-08T13:14:06.000Z</time>
      </trkpt>
      <trkpt lat="47.05565" lon="16.07057">
        <ele>283.86656</ele>
        <time>2026-07-08T13:14:07.000Z</time>
      </trkpt>
      <trkpt lat="47.05562" lon="16.07063">
        <ele>283.85768</ele>
        <time>2026-07-08T13:14:08.000Z</time>
      </trkpt>
      <trkpt lat="47.05559" lon="16.07068">
        <ele>283.849187</ele>
        <time>2026-07-08T13:14:09.000Z</time>
      </trkpt>
      <trkpt lat="47.05556" lon="16.07074">
        <ele>283.840399</ele>
        <time>2026-07-08T13:14:10.000Z</time>
      </trkpt>
      <trkpt lat="47.05553" lon="16.0708">
        <ele>283.831829</ele>
        <time>2026-07-08T13:14:11.000Z</time>
      </trkpt>
      <trkpt lat="47.05549" lon="16.07086">
        <ele>283.822949</ele>
        <time>2026-07-08T13:14:12.000Z</time>
      </trkpt>
      <trkpt lat="47.05547" lon="16.07092">
        <ele>283.814098</ele>
        <time>2026-07-08T13:14:13.000Z</time>
      </trkpt>
      <trkpt lat="47.05544" lon="16.07098">
        <ele>283.805217</ele>
        <time>2026-07-08T13:14:14.000Z</time>
      </trkpt>
      <trkpt lat="47.05541" lon="16.07105">
        <ele>283.796159</ele>
        <time>2026-07-08T13:14:15.000Z</time>
      </trkpt>
      <trkpt lat="47.05539" lon="16.07111">
        <ele>283.802805</ele>
        <time>2026-07-08T13:14:16.000Z</time>
      </trkpt>
      <trkpt lat="47.05536" lon="16.07117">
        <ele>283.819743</ele>
        <time>2026-07-08T13:14:17.000Z</time>
      </trkpt>
      <trkpt lat="47.05533" lon="16.07123">
        <ele>283.836678</ele>
        <time>2026-07-08T13:14:18.000Z</time>
      </trkpt>
      <trkpt lat="47.0553" lon="16.0713">
        <ele>283.853246</ele>
        <time>2026-07-08T13:14:19.000Z</time>
      </trkpt>
      <trkpt lat="47.05527" lon="16.07136">
        <ele>283.869636</ele>
        <time>2026-07-08T13:14:20.000Z</time>
      </trkpt>
      <trkpt lat="47.05524" lon="16.07142">
        <ele>283.886213</ele>
        <time>2026-07-08T13:14:21.000Z</time>
      </trkpt>
      <trkpt lat="47.05521" lon="16.07147">
        <ele>283.902284</ele>
        <time>2026-07-08T13:14:22.000Z</time>
      </trkpt>
      <trkpt lat="47.05518" lon="16.07153">
        <ele>283.918225</ele>
        <time>2026-07-08T13:14:23.000Z</time>
      </trkpt>
      <trkpt lat="47.05515" lon="16.07158">
        <ele>283.934335</ele>
        <time>2026-07-08T13:14:24.000Z</time>
      </trkpt>
      <trkpt lat="47.05512" lon="16.07164">
        <ele>283.949894</ele>
        <time>2026-07-08T13:14:25.000Z</time>
      </trkpt>
      <trkpt lat="47.05508" lon="16.07169">
        <ele>283.966334</ele>
        <time>2026-07-08T13:14:26.000Z</time>
      </trkpt>
      <trkpt lat="47.05505" lon="16.07174">
        <ele>283.982712</ele>
        <time>2026-07-08T13:14:27.000Z</time>
      </trkpt>
      <trkpt lat="47.05502" lon="16.0718">
        <ele>283.999036</ele>
        <time>2026-07-08T13:14:28.000Z</time>
      </trkpt>
      <trkpt lat="47.05498" lon="16.07185">
        <ele>284.014809</ele>
        <time>2026-07-08T13:14:29.000Z</time>
      </trkpt>
      <trkpt lat="47.05495" lon="16.0719">
        <ele>284.030777</ele>
        <time>2026-07-08T13:14:30.000Z</time>
      </trkpt>
      <trkpt lat="47.05492" lon="16.07195">
        <ele>284.046167</ele>
        <time>2026-07-08T13:14:31.000Z</time>
      </trkpt>
      <trkpt lat="47.05488" lon="16.072">
        <ele>284.061902</ele>
        <time>2026-07-08T13:14:32.000Z</time>
      </trkpt>
      <trkpt lat="47.05485" lon="16.07205">
        <ele>284.077562</ele>
        <time>2026-07-08T13:14:33.000Z</time>
      </trkpt>
      <trkpt lat="47.05482" lon="16.0721">
        <ele>284.092294</ele>
        <time>2026-07-08T13:14:34.000Z</time>
      </trkpt>
      <trkpt lat="47.05478" lon="16.07215">
        <ele>284.107563</ele>
        <time>2026-07-08T13:14:35.000Z</time>
      </trkpt>
      <trkpt lat="47.05475" lon="16.07219">
        <ele>284.121817</ele>
        <time>2026-07-08T13:14:36.000Z</time>
      </trkpt>
      <trkpt lat="47.05472" lon="16.07223">
        <ele>284.136001</ele>
        <time>2026-07-08T13:14:37.000Z</time>
      </trkpt>
      <trkpt lat="47.05469" lon="16.07227">
        <ele>284.149252</ele>
        <time>2026-07-08T13:14:38.000Z</time>
      </trkpt>
      <trkpt lat="47.05467" lon="16.07231">
        <ele>284.160741</ele>
        <time>2026-07-08T13:14:39.000Z</time>
      </trkpt>
      <trkpt lat="47.05465" lon="16.07234">
        <ele>284.17025</ele>
        <time>2026-07-08T13:14:40.000Z</time>
      </trkpt>
      <trkpt lat="47.05464" lon="16.07237">
        <ele>284.177808</ele>
        <time>2026-07-08T13:14:41.000Z</time>
      </trkpt>
      <trkpt lat="47.05463" lon="16.07239">
        <ele>284.183015</ele>
        <time>2026-07-08T13:14:42.000Z</time>
      </trkpt>
      <trkpt lat="47.05463" lon="16.0724">
        <ele>284.18502</ele>
        <time>2026-07-08T13:14:43.000Z</time>
      </trkpt>
      <trkpt lat="47.05463" lon="16.0724">
        <ele>284.185347</ele>
        <time>2026-07-08T13:14:44.000Z</time>
      </trkpt>
      <trkpt lat="47.05461" lon="16.07245">
        <ele>284.198792</ele>
        <time>2026-07-08T13:15:09.000Z</time>
      </trkpt>
      <trkpt lat="47.05461" lon="16.07248">
        <ele>284.205671</ele>
        <time>2026-07-08T13:15:10.000Z</time>
      </trkpt>
      <trkpt lat="47.05463" lon="16.07251">
        <ele>284.214409</ele>
        <time>2026-07-08T13:15:12.000Z</time>
      </trkpt>
      <trkpt lat="47.05468" lon="16.07256">
        <ele>284.232755</ele>
        <time>2026-07-08T13:15:13.000Z</time>
      </trkpt>
      <trkpt lat="47.0547" lon="16.07258">
        <ele>284.242063</ele>
        <time>2026-07-08T13:15:14.000Z</time>
      </trkpt>
      <trkpt lat="47.05473" lon="16.0726">
        <ele>284.25208</ele>
        <time>2026-07-08T13:15:15.000Z</time>
      </trkpt>
      <trkpt lat="47.05475" lon="16.07263">
        <ele>284.262681</ele>
        <time>2026-07-08T13:15:16.000Z</time>
      </trkpt>
      <trkpt lat="47.05479" lon="16.07264">
        <ele>284.273733</ele>
        <time>2026-07-08T13:15:17.000Z</time>
      </trkpt>
      <trkpt lat="47.05482" lon="16.07266">
        <ele>284.285027</ele>
        <time>2026-07-08T13:15:18.000Z</time>
      </trkpt>
      <trkpt lat="47.05485" lon="16.07267">
        <ele>284.296778</ele>
        <time>2026-07-08T13:15:19.000Z</time>
      </trkpt>
      <trkpt lat="47.05489" lon="16.07268">
        <ele>284.308358</ele>
        <time>2026-07-08T13:15:20.000Z</time>
      </trkpt>
      <trkpt lat="47.05492" lon="16.07269">
        <ele>284.319583</ele>
        <time>2026-07-08T13:15:21.000Z</time>
      </trkpt>
      <trkpt lat="47.05496" lon="16.07269">
        <ele>284.33108</ele>
        <time>2026-07-08T13:15:22.000Z</time>
      </trkpt>
      <trkpt lat="47.05499" lon="16.0727">
        <ele>284.341334</ele>
        <time>2026-07-08T13:15:23.000Z</time>
      </trkpt>
      <trkpt lat="47.05502" lon="16.0727">
        <ele>284.351854</ele>
        <time>2026-07-08T13:15:24.000Z</time>
      </trkpt>
      <trkpt lat="47.05505" lon="16.07271">
        <ele>284.362375</ele>
        <time>2026-07-08T13:15:25.000Z</time>
      </trkpt>
      <trkpt lat="47.05508" lon="16.07271">
        <ele>284.372598</ele>
        <time>2026-07-08T13:15:26.000Z</time>
      </trkpt>
      <trkpt lat="47.05511" lon="16.07272">
        <ele>284.377326</ele>
        <time>2026-07-08T13:15:27.000Z</time>
      </trkpt>
      <trkpt lat="47.05514" lon="16.07271">
        <ele>284.35364</ele>
        <time>2026-07-08T13:15:28.000Z</time>
      </trkpt>
      <trkpt lat="47.05517" lon="16.07272">
        <ele>284.329826</ele>
        <time>2026-07-08T13:15:29.000Z</time>
      </trkpt>
      <trkpt lat="47.0552" lon="16.07274">
        <ele>284.30621</ele>
        <time>2026-07-08T13:15:30.000Z</time>
      </trkpt>
      <trkpt lat="47.05522" lon="16.07277">
        <ele>284.281942</ele>
        <time>2026-07-08T13:15:31.000Z</time>
      </trkpt>
      <trkpt lat="47.05524" lon="16.07281">
        <ele>284.259436</ele>
        <time>2026-07-08T13:15:32.000Z</time>
      </trkpt>
      <trkpt lat="47.05524" lon="16.07284">
        <ele>284.23888</ele>
        <time>2026-07-08T13:15:33.000Z</time>
      </trkpt>
      <trkpt lat="47.05524" lon="16.07288">
        <ele>284.220056</ele>
        <time>2026-07-08T13:15:34.000Z</time>
      </trkpt>
      <trkpt lat="47.05523" lon="16.07291">
        <ele>284.20097</ele>
        <time>2026-07-08T13:15:35.000Z</time>
      </trkpt>
      <trkpt lat="47.05522" lon="16.07294">
        <ele>284.183157</ele>
        <time>2026-07-08T13:15:36.000Z</time>
      </trkpt>
      <trkpt lat="47.05521" lon="16.07297">
        <ele>284.165692</ele>
        <time>2026-07-08T13:15:37.000Z</time>
      </trkpt>
      <trkpt lat="47.0552" lon="16.073">
        <ele>284.147261</ele>
        <time>2026-07-08T13:15:38.000Z</time>
      </trkpt>
      <trkpt lat="47.05519" lon="16.07304">
        <ele>284.125452</ele>
        <time>2026-07-08T13:15:39.000Z</time>
      </trkpt>
      <trkpt lat="47.05517" lon="16.07307">
        <ele>284.102803</ele>
        <time>2026-07-08T13:15:40.000Z</time>
      </trkpt>
      <trkpt lat="47.05515" lon="16.07311">
        <ele>284.07704</ele>
        <time>2026-07-08T13:15:41.000Z</time>
      </trkpt>
      <trkpt lat="47.05514" lon="16.07315">
        <ele>284.050831</ele>
        <time>2026-07-08T13:15:42.000Z</time>
      </trkpt>
      <trkpt lat="47.05512" lon="16.0732">
        <ele>284.023911</ele>
        <time>2026-07-08T13:15:43.000Z</time>
      </trkpt>
      <trkpt lat="47.05511" lon="16.07325">
        <ele>283.995045</ele>
        <time>2026-07-08T13:15:44.000Z</time>
      </trkpt>
      <trkpt lat="47.05509" lon="16.0733">
        <ele>283.965034</ele>
        <time>2026-07-08T13:15:45.000Z</time>
      </trkpt>
      <trkpt lat="47.05508" lon="16.07336">
        <ele>283.934233</ele>
        <time>2026-07-08T13:15:46.000Z</time>
      </trkpt>
      <trkpt lat="47.05507" lon="16.07341">
        <ele>283.902398</ele>
        <time>2026-07-08T13:15:47.000Z</time>
      </trkpt>
      <trkpt lat="47.05505" lon="16.07346">
        <ele>283.869842</ele>
        <time>2026-07-08T13:15:48.000Z</time>
      </trkpt>
      <trkpt lat="47.05502" lon="16.07351">
        <ele>283.836947</ele>
        <time>2026-07-08T13:15:49.000Z</time>
      </trkpt>
      <trkpt lat="47.05499" lon="16.07356">
        <ele>283.803662</ele>
        <time>2026-07-08T13:15:50.000Z</time>
      </trkpt>
      <trkpt lat="47.05496" lon="16.0736">
        <ele>283.771807</ele>
        <time>2026-07-08T13:15:51.000Z</time>
      </trkpt>
      <trkpt lat="47.05493" lon="16.07363">
        <ele>283.737787</ele>
        <time>2026-07-08T13:15:52.000Z</time>
      </trkpt>
      <trkpt lat="47.05489" lon="16.07367">
        <ele>283.703081</ele>
        <time>2026-07-08T13:15:53.000Z</time>
      </trkpt>
      <trkpt lat="47.05486" lon="16.07371">
        <ele>283.668422</ele>
        <time>2026-07-08T13:15:54.000Z</time>
      </trkpt>
      <trkpt lat="47.05482" lon="16.07375">
        <ele>283.634065</ele>
        <time>2026-07-08T13:15:55.000Z</time>
      </trkpt>
      <trkpt lat="47.05478" lon="16.07378">
        <ele>283.598011</ele>
        <time>2026-07-08T13:15:56.000Z</time>
      </trkpt>
      <trkpt lat="47.05475" lon="16.07382">
        <ele>283.564255</ele>
        <time>2026-07-08T13:15:57.000Z</time>
      </trkpt>
      <trkpt lat="47.05472" lon="16.07388">
        <ele>283.52864</ele>
        <time>2026-07-08T13:15:58.000Z</time>
      </trkpt>
      <trkpt lat="47.0547" lon="16.07393">
        <ele>283.493111</ele>
        <time>2026-07-08T13:15:59.000Z</time>
      </trkpt>
      <trkpt lat="47.05467" lon="16.07399">
        <ele>283.456684</ele>
        <time>2026-07-08T13:16:00.000Z</time>
      </trkpt>
      <trkpt lat="47.05465" lon="16.07404">
        <ele>283.420256</ele>
        <time>2026-07-08T13:16:01.000Z</time>
      </trkpt>
      <trkpt lat="47.05462" lon="16.0741">
        <ele>283.383829</ele>
        <time>2026-07-08T13:16:02.000Z</time>
      </trkpt>
      <trkpt lat="47.05459" lon="16.07415">
        <ele>283.347852</ele>
        <time>2026-07-08T13:16:03.000Z</time>
      </trkpt>
      <trkpt lat="47.05457" lon="16.07421">
        <ele>283.310517</ele>
        <time>2026-07-08T13:16:04.000Z</time>
      </trkpt>
      <trkpt lat="47.05454" lon="16.07427">
        <ele>283.27454</ele>
        <time>2026-07-08T13:16:05.000Z</time>
      </trkpt>
      <trkpt lat="47.05452" lon="16.07433">
        <ele>283.23877</ele>
        <time>2026-07-08T13:16:06.000Z</time>
      </trkpt>
      <trkpt lat="47.0545" lon="16.07439">
        <ele>283.201422</ele>
        <time>2026-07-08T13:16:07.000Z</time>
      </trkpt>
      <trkpt lat="47.05448" lon="16.07446">
        <ele>283.162425</ele>
        <time>2026-07-08T13:16:08.000Z</time>
      </trkpt>
      <trkpt lat="47.05447" lon="16.07453">
        <ele>283.123438</ele>
        <time>2026-07-08T13:16:09.000Z</time>
      </trkpt>
      <trkpt lat="47.05447" lon="16.0746">
        <ele>283.084013</ele>
        <time>2026-07-08T13:16:10.000Z</time>
      </trkpt>
      <trkpt lat="47.05446" lon="16.07467">
        <ele>283.044754</ele>
        <time>2026-07-08T13:16:11.000Z</time>
      </trkpt>
      <trkpt lat="47.05446" lon="16.07475">
        <ele>283.004383</ele>
        <time>2026-07-08T13:16:12.000Z</time>
      </trkpt>
      <trkpt lat="47.05445" lon="16.07483">
        <ele>282.96264</ele>
        <time>2026-07-08T13:16:13.000Z</time>
      </trkpt>
      <trkpt lat="47.05444" lon="16.0749">
        <ele>282.939339</ele>
        <time>2026-07-08T13:16:14.000Z</time>
      </trkpt>
      <trkpt lat="47.05443" lon="16.07498">
        <ele>282.916481</ele>
        <time>2026-07-08T13:16:15.000Z</time>
      </trkpt>
      <trkpt lat="47.05442" lon="16.07505">
        <ele>282.893627</ele>
        <time>2026-07-08T13:16:16.000Z</time>
      </trkpt>
      <trkpt lat="47.0544" lon="16.07512">
        <ele>282.871069</ele>
        <time>2026-07-08T13:16:17.000Z</time>
      </trkpt>
      <trkpt lat="47.05436" lon="16.07517">
        <ele>282.84866</ele>
        <time>2026-07-08T13:16:18.000Z</time>
      </trkpt>
      <trkpt lat="47.05431" lon="16.07521">
        <ele>282.826303</ele>
        <time>2026-07-08T13:16:19.000Z</time>
      </trkpt>
      <trkpt lat="47.05427" lon="16.07524">
        <ele>282.80369</ele>
        <time>2026-07-08T13:16:20.000Z</time>
      </trkpt>
      <trkpt lat="47.05422" lon="16.07528">
        <ele>282.781616</ele>
        <time>2026-07-08T13:16:21.000Z</time>
      </trkpt>
      <trkpt lat="47.05418" lon="16.07531">
        <ele>282.759113</ele>
        <time>2026-07-08T13:16:22.000Z</time>
      </trkpt>
      <trkpt lat="47.05414" lon="16.07536">
        <ele>282.737446</ele>
        <time>2026-07-08T13:16:23.000Z</time>
      </trkpt>
      <trkpt lat="47.0541" lon="16.07541">
        <ele>282.715326</ele>
        <time>2026-07-08T13:16:24.000Z</time>
      </trkpt>
      <trkpt lat="47.05407" lon="16.07546">
        <ele>282.694851</ele>
        <time>2026-07-08T13:16:25.000Z</time>
      </trkpt>
      <trkpt lat="47.05404" lon="16.07552">
        <ele>282.673863</ele>
        <time>2026-07-08T13:16:26.000Z</time>
      </trkpt>
      <trkpt lat="47.05401" lon="16.07556">
        <ele>282.656486</ele>
        <time>2026-07-08T13:16:27.000Z</time>
      </trkpt>
      <trkpt lat="47.05398" lon="16.07558">
        <ele>282.641808</ele>
        <time>2026-07-08T13:16:28.000Z</time>
      </trkpt>
      <trkpt lat="47.05395" lon="16.07558">
        <ele>282.626883</ele>
        <time>2026-07-08T13:16:29.000Z</time>
      </trkpt>
      <trkpt lat="47.05392" lon="16.07555">
        <ele>282.610786</ele>
        <time>2026-07-08T13:16:30.000Z</time>
      </trkpt>
      <trkpt lat="47.05389" lon="16.07551">
        <ele>282.594456</ele>
        <time>2026-07-08T13:16:31.000Z</time>
      </trkpt>
      <trkpt lat="47.05386" lon="16.07547">
        <ele>282.577579</ele>
        <time>2026-07-08T13:16:32.000Z</time>
      </trkpt>
      <trkpt lat="47.05385" lon="16.07542">
        <ele>282.561266</ele>
        <time>2026-07-08T13:16:33.000Z</time>
      </trkpt>
      <trkpt lat="47.05384" lon="16.07537">
        <ele>282.54672</ele>
        <time>2026-07-08T13:16:34.000Z</time>
      </trkpt>
      <trkpt lat="47.05382" lon="16.07533">
        <ele>282.533048</ele>
        <time>2026-07-08T13:16:35.000Z</time>
      </trkpt>
      <trkpt lat="47.0538" lon="16.07531">
        <ele>282.52169</ele>
        <time>2026-07-08T13:16:36.000Z</time>
      </trkpt>
      <trkpt lat="47.05375" lon="16.07532">
        <ele>282.501265</ele>
        <time>2026-07-08T13:16:38.000Z</time>
      </trkpt>
      <trkpt lat="47.05372" lon="16.07534">
        <ele>282.485821</ele>
        <time>2026-07-08T13:16:39.000Z</time>
      </trkpt>
      <trkpt lat="47.05368" lon="16.07537">
        <ele>282.465636</ele>
        <time>2026-07-08T13:16:40.000Z</time>
      </trkpt>
      <trkpt lat="47.05364" lon="16.07541">
        <ele>282.445143</ele>
        <time>2026-07-08T13:16:41.000Z</time>
      </trkpt>
      <trkpt lat="47.0536" lon="16.07545">
        <ele>282.424125</ele>
        <time>2026-07-08T13:16:42.000Z</time>
      </trkpt>
      <trkpt lat="47.05356" lon="16.07549">
        <ele>282.402893</ele>
        <time>2026-07-08T13:16:43.000Z</time>
      </trkpt>
      <trkpt lat="47.05351" lon="16.07553">
        <ele>282.380827</ele>
        <time>2026-07-08T13:16:44.000Z</time>
      </trkpt>
      <trkpt lat="47.05347" lon="16.07557">
        <ele>282.358393</ele>
        <time>2026-07-08T13:16:45.000Z</time>
      </trkpt>
      <trkpt lat="47.05343" lon="16.07561">
        <ele>282.336327</ele>
        <time>2026-07-08T13:16:46.000Z</time>
      </trkpt>
      <trkpt lat="47.05338" lon="16.07565">
        <ele>282.314299</ele>
        <time>2026-07-08T13:16:47.000Z</time>
      </trkpt>
      <trkpt lat="47.05335" lon="16.07569">
        <ele>282.293856</ele>
        <time>2026-07-08T13:16:48.000Z</time>
      </trkpt>
      <trkpt lat="47.05331" lon="16.07574">
        <ele>282.271647</ele>
        <time>2026-07-08T13:16:49.000Z</time>
      </trkpt>
      <trkpt lat="47.05327" lon="16.07578">
        <ele>282.251716</ele>
        <time>2026-07-08T13:16:50.000Z</time>
      </trkpt>
      <trkpt lat="47.05324" lon="16.07583">
        <ele>282.231268</ele>
        <time>2026-07-08T13:16:51.000Z</time>
      </trkpt>
      <trkpt lat="47.0532" lon="16.07588">
        <ele>282.209375</ele>
        <time>2026-07-08T13:16:52.000Z</time>
      </trkpt>
      <trkpt lat="47.05316" lon="16.07594">
        <ele>282.186337</ele>
        <time>2026-07-08T13:16:53.000Z</time>
      </trkpt>
      <trkpt lat="47.05313" lon="16.07599">
        <ele>282.178158</ele>
        <time>2026-07-08T13:16:54.000Z</time>
      </trkpt>
      <trkpt lat="47.05309" lon="16.07604">
        <ele>282.173017</ele>
        <time>2026-07-08T13:16:55.000Z</time>
      </trkpt>
      <trkpt lat="47.05306" lon="16.0761">
        <ele>282.16753</ele>
        <time>2026-07-08T13:16:56.000Z</time>
      </trkpt>
      <trkpt lat="47.05302" lon="16.07616">
        <ele>282.162056</ele>
        <time>2026-07-08T13:16:57.000Z</time>
      </trkpt>
      <trkpt lat="47.05299" lon="16.07623">
        <ele>282.156549</ele>
        <time>2026-07-08T13:16:58.000Z</time>
      </trkpt>
      <trkpt lat="47.05297" lon="16.07629">
        <ele>282.151382</ele>
        <time>2026-07-08T13:16:59.000Z</time>
      </trkpt>
      <trkpt lat="47.05294" lon="16.07636">
        <ele>282.146147</ele>
        <time>2026-07-08T13:17:00.000Z</time>
      </trkpt>
      <trkpt lat="47.05292" lon="16.07642">
        <ele>282.140911</ele>
        <time>2026-07-08T13:17:01.000Z</time>
      </trkpt>
      <trkpt lat="47.05289" lon="16.07649">
        <ele>282.135461</ele>
        <time>2026-07-08T13:17:02.000Z</time>
      </trkpt>
      <trkpt lat="47.05286" lon="16.07655">
        <ele>282.130295</ele>
        <time>2026-07-08T13:17:03.000Z</time>
      </trkpt>
      <trkpt lat="47.05284" lon="16.07661">
        <ele>282.12512</ele>
        <time>2026-07-08T13:17:04.000Z</time>
      </trkpt>
      <trkpt lat="47.05281" lon="16.07668">
        <ele>282.120057</ele>
        <time>2026-07-08T13:17:05.000Z</time>
      </trkpt>
      <trkpt lat="47.05279" lon="16.07674">
        <ele>282.115106</ele>
        <time>2026-07-08T13:17:06.000Z</time>
      </trkpt>
      <trkpt lat="47.05277" lon="16.0768">
        <ele>282.110264</ele>
        <time>2026-07-08T13:17:07.000Z</time>
      </trkpt>
      <trkpt lat="47.05274" lon="16.07686">
        <ele>282.10509</ele>
        <time>2026-07-08T13:17:08.000Z</time>
      </trkpt>
      <trkpt lat="47.05272" lon="16.07693">
        <ele>282.099923</ele>
        <time>2026-07-08T13:17:09.000Z</time>
      </trkpt>
      <trkpt lat="47.05269" lon="16.07699">
        <ele>282.094463</ele>
        <time>2026-07-08T13:17:10.000Z</time>
      </trkpt>
      <trkpt lat="47.05267" lon="16.07706">
        <ele>282.088919</ele>
        <time>2026-07-08T13:17:11.000Z</time>
      </trkpt>
      <trkpt lat="47.05265" lon="16.07713">
        <ele>282.083595</ele>
        <time>2026-07-08T13:17:12.000Z</time>
      </trkpt>
      <trkpt lat="47.05263" lon="16.07721">
        <ele>282.078076</ele>
        <time>2026-07-08T13:17:13.000Z</time>
      </trkpt>
      <trkpt lat="47.0526" lon="16.07728">
        <ele>282.072669</ele>
        <time>2026-07-08T13:17:14.000Z</time>
      </trkpt>
      <trkpt lat="47.05258" lon="16.07734">
        <ele>282.067199</ele>
        <time>2026-07-08T13:17:15.000Z</time>
      </trkpt>
      <trkpt lat="47.05255" lon="16.07741">
        <ele>282.061575</ele>
        <time>2026-07-08T13:17:16.000Z</time>
      </trkpt>
      <trkpt lat="47.05251" lon="16.07747">
        <ele>282.055938</ele>
        <time>2026-07-08T13:17:17.000Z</time>
      </trkpt>
      <trkpt lat="47.05248" lon="16.07754">
        <ele>282.050373</ele>
        <time>2026-07-08T13:17:18.000Z</time>
      </trkpt>
      <trkpt lat="47.05246" lon="16.07761">
        <ele>282.044709</ele>
        <time>2026-07-08T13:17:19.000Z</time>
      </trkpt>
      <trkpt lat="47.05244" lon="16.07769">
        <ele>282.038978</ele>
        <time>2026-07-08T13:17:20.000Z</time>
      </trkpt>
      <trkpt lat="47.05241" lon="16.07776">
        <ele>282.033435</ele>
        <time>2026-07-08T13:17:21.000Z</time>
      </trkpt>
      <trkpt lat="47.05239" lon="16.07783">
        <ele>282.027766</ele>
        <time>2026-07-08T13:17:22.000Z</time>
      </trkpt>
      <trkpt lat="47.05236" lon="16.0779">
        <ele>282.02216</ele>
        <time>2026-07-08T13:17:23.000Z</time>
      </trkpt>
      <trkpt lat="47.05234" lon="16.07797">
        <ele>282.016617</ele>
        <time>2026-07-08T13:17:24.000Z</time>
      </trkpt>
      <trkpt lat="47.05231" lon="16.07804">
        <ele>282.010953</ele>
        <time>2026-07-08T13:17:25.000Z</time>
      </trkpt>
      <trkpt lat="47.05229" lon="16.07812">
        <ele>282.005395</ele>
        <time>2026-07-08T13:17:26.000Z</time>
      </trkpt>
      <trkpt lat="47.05227" lon="16.07819">
        <ele>281.99986</ele>
        <time>2026-07-08T13:17:27.000Z</time>
      </trkpt>
      <trkpt lat="47.05225" lon="16.07826">
        <ele>281.994391</ele>
        <time>2026-07-08T13:17:28.000Z</time>
      </trkpt>
      <trkpt lat="47.05223" lon="16.07833">
        <ele>281.988936</ele>
        <time>2026-07-08T13:17:29.000Z</time>
      </trkpt>
      <trkpt lat="47.0522" lon="16.0784">
        <ele>281.98348</ele>
        <time>2026-07-08T13:17:30.000Z</time>
      </trkpt>
      <trkpt lat="47.05218" lon="16.07848">
        <ele>281.978041</ele>
        <time>2026-07-08T13:17:31.000Z</time>
      </trkpt>
      <trkpt lat="47.05216" lon="16.07855">
        <ele>281.972435</ele>
        <time>2026-07-08T13:17:32.000Z</time>
      </trkpt>
      <trkpt lat="47.05214" lon="16.07862">
        <ele>281.966916</ele>
        <time>2026-07-08T13:17:33.000Z</time>
      </trkpt>
      <trkpt lat="47.05212" lon="16.0787">
        <ele>281.961419</ele>
        <time>2026-07-08T13:17:34.000Z</time>
      </trkpt>
      <trkpt lat="47.05209" lon="16.07877">
        <ele>281.955832</ele>
        <time>2026-07-08T13:17:35.000Z</time>
      </trkpt>
      <trkpt lat="47.05207" lon="16.07884">
        <ele>281.950228</ele>
        <time>2026-07-08T13:17:36.000Z</time>
      </trkpt>
      <trkpt lat="47.05205" lon="16.07891">
        <ele>281.944814</ele>
        <time>2026-07-08T13:17:37.000Z</time>
      </trkpt>
      <trkpt lat="47.05203" lon="16.07899">
        <ele>281.939295</ele>
        <time>2026-07-08T13:17:38.000Z</time>
      </trkpt>
      <trkpt lat="47.052" lon="16.07906">
        <ele>281.933777</ele>
        <time>2026-07-08T13:17:39.000Z</time>
      </trkpt>
      <trkpt lat="47.05198" lon="16.07913">
        <ele>281.928273</ele>
        <time>2026-07-08T13:17:40.000Z</time>
      </trkpt>
      <trkpt lat="47.05197" lon="16.07921">
        <ele>281.92271</ele>
        <time>2026-07-08T13:17:41.000Z</time>
      </trkpt>
      <trkpt lat="47.05195" lon="16.07929">
        <ele>281.917114</ele>
        <time>2026-07-08T13:17:42.000Z</time>
      </trkpt>
      <trkpt lat="47.05193" lon="16.07936">
        <ele>281.911483</ele>
        <time>2026-07-08T13:17:43.000Z</time>
      </trkpt>
      <trkpt lat="47.05192" lon="16.07944">
        <ele>281.905887</ele>
        <time>2026-07-08T13:17:44.000Z</time>
      </trkpt>
      <trkpt lat="47.0519" lon="16.07952">
        <ele>281.900259</ele>
        <time>2026-07-08T13:17:45.000Z</time>
      </trkpt>
      <trkpt lat="47.05188" lon="16.07959">
        <ele>281.894856</ele>
        <time>2026-07-08T13:17:46.000Z</time>
      </trkpt>
      <trkpt lat="47.05186" lon="16.07966">
        <ele>281.889358</ele>
        <time>2026-07-08T13:17:47.000Z</time>
      </trkpt>
      <trkpt lat="47.05183" lon="16.07974">
        <ele>281.883798</ele>
        <time>2026-07-08T13:17:48.000Z</time>
      </trkpt>
      <trkpt lat="47.05181" lon="16.07981">
        <ele>281.878359</ele>
        <time>2026-07-08T13:17:49.000Z</time>
      </trkpt>
      <trkpt lat="47.0518" lon="16.07988">
        <ele>281.873021</ele>
        <time>2026-07-08T13:17:50.000Z</time>
      </trkpt>
      <trkpt lat="47.05178" lon="16.07995">
        <ele>281.867882</ele>
        <time>2026-07-08T13:17:51.000Z</time>
      </trkpt>
      <trkpt lat="47.05177" lon="16.08003">
        <ele>281.862676</ele>
        <time>2026-07-08T13:17:52.000Z</time>
      </trkpt>
      <trkpt lat="47.05175" lon="16.0801">
        <ele>281.857633</ele>
        <time>2026-07-08T13:17:53.000Z</time>
      </trkpt>
      <trkpt lat="47.05174" lon="16.08017">
        <ele>281.852666</ele>
        <time>2026-07-08T13:17:54.000Z</time>
      </trkpt>
      <trkpt lat="47.05173" lon="16.08024">
        <ele>281.847676</ele>
        <time>2026-07-08T13:17:55.000Z</time>
      </trkpt>
      <trkpt lat="47.05172" lon="16.0803">
        <ele>281.84286</ele>
        <time>2026-07-08T13:17:56.000Z</time>
      </trkpt>
      <trkpt lat="47.05171" lon="16.08037">
        <ele>281.838137</ele>
        <time>2026-07-08T13:17:57.000Z</time>
      </trkpt>
      <trkpt lat="47.0517" lon="16.08044">
        <ele>281.833395</ele>
        <time>2026-07-08T13:17:58.000Z</time>
      </trkpt>
      <trkpt lat="47.05168" lon="16.0805">
        <ele>281.828739</ele>
        <time>2026-07-08T13:17:59.000Z</time>
      </trkpt>
      <trkpt lat="47.05167" lon="16.08056">
        <ele>281.824243</ele>
        <time>2026-07-08T13:18:00.000Z</time>
      </trkpt>
      <trkpt lat="47.05166" lon="16.08063">
        <ele>281.819654</ele>
        <time>2026-07-08T13:18:01.000Z</time>
      </trkpt>
      <trkpt lat="47.05165" lon="16.08069">
        <ele>281.815131</ele>
        <time>2026-07-08T13:18:02.000Z</time>
      </trkpt>
      <trkpt lat="47.05164" lon="16.08075">
        <ele>281.801275</ele>
        <time>2026-07-08T13:18:03.000Z</time>
      </trkpt>
      <trkpt lat="47.05163" lon="16.08081">
        <ele>281.787572</ele>
        <time>2026-07-08T13:18:04.000Z</time>
      </trkpt>
      <trkpt lat="47.05162" lon="16.08087">
        <ele>281.774092</ele>
        <time>2026-07-08T13:18:05.000Z</time>
      </trkpt>
      <trkpt lat="47.05161" lon="16.08092">
        <ele>281.760882</ele>
        <time>2026-07-08T13:18:06.000Z</time>
      </trkpt>
      <trkpt lat="47.0516" lon="16.08098">
        <ele>281.747259</ele>
        <time>2026-07-08T13:18:07.000Z</time>
      </trkpt>
      <trkpt lat="47.0516" lon="16.08104">
        <ele>281.732581</ele>
        <time>2026-07-08T13:18:08.000Z</time>
      </trkpt>
      <trkpt lat="47.05159" lon="16.08111">
        <ele>281.716425</ele>
        <time>2026-07-08T13:18:09.000Z</time>
      </trkpt>
      <trkpt lat="47.05158" lon="16.08118">
        <ele>281.700044</ele>
        <time>2026-07-08T13:18:10.000Z</time>
      </trkpt>
      <trkpt lat="47.05157" lon="16.08125">
        <ele>281.683563</ele>
        <time>2026-07-08T13:18:11.000Z</time>
      </trkpt>
      <trkpt lat="47.05156" lon="16.08133">
        <ele>281.666797</ele>
        <time>2026-07-08T13:18:12.000Z</time>
      </trkpt>
      <trkpt lat="47.05156" lon="16.0814">
        <ele>281.650075</ele>
        <time>2026-07-08T13:18:13.000Z</time>
      </trkpt>
      <trkpt lat="47.05156" lon="16.08147">
        <ele>281.633114</ele>
        <time>2026-07-08T13:18:14.000Z</time>
      </trkpt>
      <trkpt lat="47.05156" lon="16.08154">
        <ele>281.616839</ele>
        <time>2026-07-08T13:18:15.000Z</time>
      </trkpt>
      <trkpt lat="47.05156" lon="16.08161">
        <ele>281.601004</ele>
        <time>2026-07-08T13:18:16.000Z</time>
      </trkpt>
      <trkpt lat="47.05156" lon="16.08168">
        <ele>281.585397</ele>
        <time>2026-07-08T13:18:17.000Z</time>
      </trkpt>
      <trkpt lat="47.05157" lon="16.08175">
        <ele>281.570416</ele>
        <time>2026-07-08T13:18:18.000Z</time>
      </trkpt>
      <trkpt lat="47.05157" lon="16.08181">
        <ele>281.555067</ele>
        <time>2026-07-08T13:18:19.000Z</time>
      </trkpt>
      <trkpt lat="47.05156" lon="16.08188">
        <ele>281.539996</ele>
        <time>2026-07-08T13:18:20.000Z</time>
      </trkpt>
      <trkpt lat="47.05155" lon="16.08194">
        <ele>281.525143</ele>
        <time>2026-07-08T13:18:21.000Z</time>
      </trkpt>
      <trkpt lat="47.05152" lon="16.08199">
        <ele>281.510531</ele>
        <time>2026-07-08T13:18:22.000Z</time>
      </trkpt>
      <trkpt lat="47.05148" lon="16.08201">
        <ele>281.49724</ele>
        <time>2026-07-08T13:18:23.000Z</time>
      </trkpt>
      <trkpt lat="47.05144" lon="16.082">
        <ele>281.482937</ele>
        <time>2026-07-08T13:18:24.000Z</time>
      </trkpt>
      <trkpt lat="47.0514" lon="16.082">
        <ele>281.468454</ele>
        <time>2026-07-08T13:18:25.000Z</time>
      </trkpt>
      <trkpt lat="47.05136" lon="16.08202">
        <ele>281.454095</ele>
        <time>2026-07-08T13:18:26.000Z</time>
      </trkpt>
      <trkpt lat="47.05132" lon="16.08206">
        <ele>281.439157</ele>
        <time>2026-07-08T13:18:27.000Z</time>
      </trkpt>
      <trkpt lat="47.0513" lon="16.08212">
        <ele>281.423433</ele>
        <time>2026-07-08T13:18:28.000Z</time>
      </trkpt>
      <trkpt lat="47.05127" lon="16.08218">
        <ele>281.407129</ele>
        <time>2026-07-08T13:18:29.000Z</time>
      </trkpt>
      <trkpt lat="47.05125" lon="16.08224">
        <ele>281.390629</ele>
        <time>2026-07-08T13:18:30.000Z</time>
      </trkpt>
      <trkpt lat="47.05122" lon="16.0823">
        <ele>281.373213</ele>
        <time>2026-07-08T13:18:31.000Z</time>
      </trkpt>
      <trkpt lat="47.05118" lon="16.08236">
        <ele>281.35612</ele>
        <time>2026-07-08T13:18:32.000Z</time>
      </trkpt>
      <trkpt lat="47.05115" lon="16.08242">
        <ele>281.338814</ele>
        <time>2026-07-08T13:18:33.000Z</time>
      </trkpt>
      <trkpt lat="47.05112" lon="16.08248">
        <ele>281.320897</ele>
        <time>2026-07-08T13:18:34.000Z</time>
      </trkpt>
      <trkpt lat="47.05108" lon="16.08253">
        <ele>281.303518</ele>
        <time>2026-07-08T13:18:35.000Z</time>
      </trkpt>
      <trkpt lat="47.05104" lon="16.08258">
        <ele>281.286363</ele>
        <time>2026-07-08T13:18:36.000Z</time>
      </trkpt>
      <trkpt lat="47.051" lon="16.08263">
        <ele>281.268995</ele>
        <time>2026-07-08T13:18:37.000Z</time>
      </trkpt>
      <trkpt lat="47.05096" lon="16.08268">
        <ele>281.251481</ele>
        <time>2026-07-08T13:18:38.000Z</time>
      </trkpt>
      <trkpt lat="47.05092" lon="16.08273">
        <ele>281.233588</ele>
        <time>2026-07-08T13:18:39.000Z</time>
      </trkpt>
      <trkpt lat="47.05088" lon="16.08277">
        <ele>281.21622</ele>
        <time>2026-07-08T13:18:40.000Z</time>
      </trkpt>
      <trkpt lat="47.05084" lon="16.08282">
        <ele>281.204338</ele>
        <time>2026-07-08T13:18:41.000Z</time>
      </trkpt>
      <trkpt lat="47.05079" lon="16.08286">
        <ele>281.19535</ele>
        <time>2026-07-08T13:18:42.000Z</time>
      </trkpt>
      <trkpt lat="47.05075" lon="16.08291">
        <ele>281.186154</ele>
        <time>2026-07-08T13:18:43.000Z</time>
      </trkpt>
      <trkpt lat="47.05071" lon="16.08296">
        <ele>281.177078</ele>
        <time>2026-07-08T13:18:44.000Z</time>
      </trkpt>
      <trkpt lat="47.05067" lon="16.08301">
        <ele>281.168229</ele>
        <time>2026-07-08T13:18:45.000Z</time>
      </trkpt>
      <trkpt lat="47.05064" lon="16.08306">
        <ele>281.159421</ele>
        <time>2026-07-08T13:18:46.000Z</time>
      </trkpt>
      <trkpt lat="47.0506" lon="16.08312">
        <ele>281.150938</ele>
        <time>2026-07-08T13:18:47.000Z</time>
      </trkpt>
      <trkpt lat="47.05057" lon="16.08317">
        <ele>281.142251</ele>
        <time>2026-07-08T13:18:48.000Z</time>
      </trkpt>
      <trkpt lat="47.05054" lon="16.08322">
        <ele>281.133625</ele>
        <time>2026-07-08T13:18:49.000Z</time>
      </trkpt>
      <trkpt lat="47.0505" lon="16.08328">
        <ele>281.124657</ele>
        <time>2026-07-08T13:18:50.000Z</time>
      </trkpt>
      <trkpt lat="47.05047" lon="16.08335">
        <ele>281.115707</ele>
        <time>2026-07-08T13:18:51.000Z</time>
      </trkpt>
      <trkpt lat="47.05044" lon="16.08341">
        <ele>281.106354</ele>
        <time>2026-07-08T13:18:52.000Z</time>
      </trkpt>
      <trkpt lat="47.05041" lon="16.08347">
        <ele>281.097386</ele>
        <time>2026-07-08T13:18:53.000Z</time>
      </trkpt>
      <trkpt lat="47.05038" lon="16.08353">
        <ele>281.088627</ele>
        <time>2026-07-08T13:18:54.000Z</time>
      </trkpt>
      <trkpt lat="47.05035" lon="16.08359">
        <ele>281.079676</ele>
        <time>2026-07-08T13:18:55.000Z</time>
      </trkpt>
      <trkpt lat="47.05032" lon="16.08365">
        <ele>281.071117</ele>
        <time>2026-07-08T13:18:56.000Z</time>
      </trkpt>
      <trkpt lat="47.05029" lon="16.08371">
        <ele>281.062557</ele>
        <time>2026-07-08T13:18:57.000Z</time>
      </trkpt>
      <trkpt lat="47.05026" lon="16.08377">
        <ele>281.053899</ele>
        <time>2026-07-08T13:18:58.000Z</time>
      </trkpt>
      <trkpt lat="47.05024" lon="16.08383">
        <ele>281.045046</ele>
        <time>2026-07-08T13:18:59.000Z</time>
      </trkpt>
      <trkpt lat="47.05021" lon="16.0839">
        <ele>281.036186</ele>
        <time>2026-07-08T13:19:00.000Z</time>
      </trkpt>
      <trkpt lat="47.05018" lon="16.08396">
        <ele>281.027315</ele>
        <time>2026-07-08T13:19:01.000Z</time>
      </trkpt>
      <trkpt lat="47.05015" lon="16.08403">
        <ele>281.01817</ele>
        <time>2026-07-08T13:19:02.000Z</time>
      </trkpt>
      <trkpt lat="47.05013" lon="16.08409">
        <ele>281.009019</ele>
        <time>2026-07-08T13:19:03.000Z</time>
      </trkpt>
      <trkpt lat="47.0501" lon="16.08416">
        <ele>280.999583</ele>
        <time>2026-07-08T13:19:04.000Z</time>
      </trkpt>
      <trkpt lat="47.05007" lon="16.08423">
        <ele>280.990342</ele>
        <time>2026-07-08T13:19:05.000Z</time>
      </trkpt>
      <trkpt lat="47.05003" lon="16.08429">
        <ele>280.980904</ele>
        <time>2026-07-08T13:19:06.000Z</time>
      </trkpt>
      <trkpt lat="47.05" lon="16.08436">
        <ele>280.971372</ele>
        <time>2026-07-08T13:19:07.000Z</time>
      </trkpt>
      <trkpt lat="47.04997" lon="16.08443">
        <ele>280.961645</ele>
        <time>2026-07-08T13:19:08.000Z</time>
      </trkpt>
      <trkpt lat="47.04994" lon="16.08449">
        <ele>280.951819</ele>
        <time>2026-07-08T13:19:09.000Z</time>
      </trkpt>
      <trkpt lat="47.04991" lon="16.08456">
        <ele>280.942185</ele>
        <time>2026-07-08T13:19:10.000Z</time>
      </trkpt>
      <trkpt lat="47.04988" lon="16.08463">
        <ele>280.932651</ele>
        <time>2026-07-08T13:19:11.000Z</time>
      </trkpt>
      <trkpt lat="47.04984" lon="16.08469">
        <ele>280.922991</ele>
        <time>2026-07-08T13:19:12.000Z</time>
      </trkpt>
      <trkpt lat="47.04981" lon="16.08476">
        <ele>280.913148</ele>
        <time>2026-07-08T13:19:13.000Z</time>
      </trkpt>
      <trkpt lat="47.04977" lon="16.08482">
        <ele>280.903607</ele>
        <time>2026-07-08T13:19:14.000Z</time>
      </trkpt>
      <trkpt lat="47.04974" lon="16.08489">
        <ele>280.88926</ele>
        <time>2026-07-08T13:19:15.000Z</time>
      </trkpt>
      <trkpt lat="47.0497" lon="16.08496">
        <ele>280.872595</ele>
        <time>2026-07-08T13:19:16.000Z</time>
      </trkpt>
      <trkpt lat="47.04966" lon="16.08502">
        <ele>280.856113</ele>
        <time>2026-07-08T13:19:17.000Z</time>
      </trkpt>
      <trkpt lat="47.04963" lon="16.08509">
        <ele>280.839989</ele>
        <time>2026-07-08T13:19:18.000Z</time>
      </trkpt>
      <trkpt lat="47.0496" lon="16.08515">
        <ele>280.82389</ele>
        <time>2026-07-08T13:19:19.000Z</time>
      </trkpt>
      <trkpt lat="47.04957" lon="16.08522">
        <ele>280.807618</ele>
        <time>2026-07-08T13:19:20.000Z</time>
      </trkpt>
      <trkpt lat="47.04954" lon="16.0853">
        <ele>280.791012</ele>
        <time>2026-07-08T13:19:21.000Z</time>
      </trkpt>
      <trkpt lat="47.04951" lon="16.08536">
        <ele>280.774751</ele>
        <time>2026-07-08T13:19:22.000Z</time>
      </trkpt>
      <trkpt lat="47.04947" lon="16.08543">
        <ele>280.758328</ele>
        <time>2026-07-08T13:19:23.000Z</time>
      </trkpt>
      <trkpt lat="47.04944" lon="16.0855">
        <ele>280.742716</ele>
        <time>2026-07-08T13:19:24.000Z</time>
      </trkpt>
      <trkpt lat="47.04941" lon="16.08556">
        <ele>280.726778</ele>
        <time>2026-07-08T13:19:25.000Z</time>
      </trkpt>
      <trkpt lat="47.04938" lon="16.08563">
        <ele>280.711002</ele>
        <time>2026-07-08T13:19:26.000Z</time>
      </trkpt>
      <trkpt lat="47.04935" lon="16.08569">
        <ele>280.695541</ele>
        <time>2026-07-08T13:19:27.000Z</time>
      </trkpt>
      <trkpt lat="47.04932" lon="16.08576">
        <ele>280.680409</ele>
        <time>2026-07-08T13:19:28.000Z</time>
      </trkpt>
      <trkpt lat="47.04928" lon="16.08581">
        <ele>280.665354</ele>
        <time>2026-07-08T13:19:29.000Z</time>
      </trkpt>
      <trkpt lat="47.04925" lon="16.08587">
        <ele>280.650694</ele>
        <time>2026-07-08T13:19:30.000Z</time>
      </trkpt>
      <trkpt lat="47.04922" lon="16.08593">
        <ele>280.635701</ele>
        <time>2026-07-08T13:19:31.000Z</time>
      </trkpt>
      <trkpt lat="47.04919" lon="16.08599">
        <ele>280.621058</ele>
        <time>2026-07-08T13:19:32.000Z</time>
      </trkpt>
      <trkpt lat="47.04916" lon="16.08605">
        <ele>280.605732</ele>
        <time>2026-07-08T13:19:33.000Z</time>
      </trkpt>
      <trkpt lat="47.04912" lon="16.08611">
        <ele>280.590377</ele>
        <time>2026-07-08T13:19:34.000Z</time>
      </trkpt>
      <trkpt lat="47.04909" lon="16.08617">
        <ele>280.574646</ele>
        <time>2026-07-08T13:19:35.000Z</time>
      </trkpt>
      <trkpt lat="47.04905" lon="16.08623">
        <ele>280.559253</ele>
        <time>2026-07-08T13:19:36.000Z</time>
      </trkpt>
      <trkpt lat="47.04902" lon="16.0863">
        <ele>280.543791</ele>
        <time>2026-07-08T13:19:37.000Z</time>
      </trkpt>
      <trkpt lat="47.04899" lon="16.08636">
        <ele>280.528343</ele>
        <time>2026-07-08T13:19:38.000Z</time>
      </trkpt>
      <trkpt lat="47.04896" lon="16.08642">
        <ele>280.51322</ele>
        <time>2026-07-08T13:19:39.000Z</time>
      </trkpt>
      <trkpt lat="47.04893" lon="16.08649">
        <ele>280.497934</ele>
        <time>2026-07-08T13:19:40.000Z</time>
      </trkpt>
      <trkpt lat="47.0489" lon="16.08655">
        <ele>280.482803</ele>
        <time>2026-07-08T13:19:41.000Z</time>
      </trkpt>
      <trkpt lat="47.04888" lon="16.08662">
        <ele>280.467655</ele>
        <time>2026-07-08T13:19:42.000Z</time>
      </trkpt>
      <trkpt lat="47.04885" lon="16.08669">
        <ele>280.452278</ele>
        <time>2026-07-08T13:19:43.000Z</time>
      </trkpt>
      <trkpt lat="47.04882" lon="16.08676">
        <ele>280.436306</ele>
        <time>2026-07-08T13:19:44.000Z</time>
      </trkpt>
      <trkpt lat="47.04879" lon="16.08683">
        <ele>280.419868</ele>
        <time>2026-07-08T13:19:45.000Z</time>
      </trkpt>
      <trkpt lat="47.04876" lon="16.0869">
        <ele>280.402924</ele>
        <time>2026-07-08T13:19:46.000Z</time>
      </trkpt>
      <trkpt lat="47.04873" lon="16.08697">
        <ele>280.386174</ele>
        <time>2026-07-08T13:19:47.000Z</time>
      </trkpt>
      <trkpt lat="47.0487" lon="16.08705">
        <ele>280.38373</ele>
        <time>2026-07-08T13:19:48.000Z</time>
      </trkpt>
      <trkpt lat="47.04866" lon="16.08712">
        <ele>280.388931</ele>
        <time>2026-07-08T13:19:49.000Z</time>
      </trkpt>
      <trkpt lat="47.04863" lon="16.08719">
        <ele>280.394084</ele>
        <time>2026-07-08T13:19:50.000Z</time>
      </trkpt>
      <trkpt lat="47.0486" lon="16.08727">
        <ele>280.399239</ele>
        <time>2026-07-08T13:19:51.000Z</time>
      </trkpt>
      <trkpt lat="47.04857" lon="16.08734">
        <ele>280.404298</ele>
        <time>2026-07-08T13:19:52.000Z</time>
      </trkpt>
      <trkpt lat="47.04854" lon="16.08741">
        <ele>280.409262</ele>
        <time>2026-07-08T13:19:53.000Z</time>
      </trkpt>
      <trkpt lat="47.04851" lon="16.08748">
        <ele>280.414126</ele>
        <time>2026-07-08T13:19:54.000Z</time>
      </trkpt>
      <trkpt lat="47.04848" lon="16.08755">
        <ele>280.418792</ele>
        <time>2026-07-08T13:19:55.000Z</time>
      </trkpt>
      <trkpt lat="47.04845" lon="16.08762">
        <ele>280.423472</ele>
        <time>2026-07-08T13:19:56.000Z</time>
      </trkpt>
      <trkpt lat="47.04842" lon="16.08768">
        <ele>280.42795</ele>
        <time>2026-07-08T13:19:57.000Z</time>
      </trkpt>
      <trkpt lat="47.0484" lon="16.08774">
        <ele>280.431879</ele>
        <time>2026-07-08T13:19:58.000Z</time>
      </trkpt>
      <trkpt lat="47.04838" lon="16.0878">
        <ele>280.435485</ele>
        <time>2026-07-08T13:19:59.000Z</time>
      </trkpt>
      <trkpt lat="47.04836" lon="16.08784">
        <ele>280.438599</ele>
        <time>2026-07-08T13:20:00.000Z</time>
      </trkpt>
      <trkpt lat="47.04835" lon="16.08788">
        <ele>280.441284</ele>
        <time>2026-07-08T13:20:01.000Z</time>
      </trkpt>
      <trkpt lat="47.04834" lon="16.08792">
        <ele>280.443901</ele>
        <time>2026-07-08T13:20:02.000Z</time>
      </trkpt>
      <trkpt lat="47.04834" lon="16.08796">
        <ele>280.446151</ele>
        <time>2026-07-08T13:20:03.000Z</time>
      </trkpt>
      <trkpt lat="47.04834" lon="16.088">
        <ele>280.448427</ele>
        <time>2026-07-08T13:20:04.000Z</time>
      </trkpt>
      <trkpt lat="47.04835" lon="16.08803">
        <ele>280.45066</ele>
        <time>2026-07-08T13:20:05.000Z</time>
      </trkpt>
      <trkpt lat="47.04836" lon="16.08807">
        <ele>280.45307</ele>
        <time>2026-07-08T13:20:06.000Z</time>
      </trkpt>
      <trkpt lat="47.04838" lon="16.08811">
        <ele>280.455518</ele>
        <time>2026-07-08T13:20:07.000Z</time>
      </trkpt>
      <trkpt lat="47.04839" lon="16.08815">
        <ele>280.458204</ele>
        <time>2026-07-08T13:20:08.000Z</time>
      </trkpt>
      <trkpt lat="47.0484" lon="16.08819">
        <ele>280.460864</ele>
        <time>2026-07-08T13:20:09.000Z</time>
      </trkpt>
      <trkpt lat="47.04841" lon="16.08823">
        <ele>280.463566</ele>
        <time>2026-07-08T13:20:10.000Z</time>
      </trkpt>
      <trkpt lat="47.04841" lon="16.08827">
        <ele>280.466052</ele>
        <time>2026-07-08T13:20:11.000Z</time>
      </trkpt>
      <trkpt lat="47.04839" lon="16.08831">
        <ele>280.468738</ele>
        <time>2026-07-08T13:20:12.000Z</time>
      </trkpt>
      <trkpt lat="47.04836" lon="16.08834">
        <ele>280.471734</ele>
        <time>2026-07-08T13:20:13.000Z</time>
      </trkpt>
      <trkpt lat="47.04833" lon="16.08837">
        <ele>280.475085</ele>
        <time>2026-07-08T13:20:14.000Z</time>
      </trkpt>
      <trkpt lat="47.04829" lon="16.0884">
        <ele>280.478792</ele>
        <time>2026-07-08T13:20:15.000Z</time>
      </trkpt>
      <trkpt lat="47.04825" lon="16.08843">
        <ele>280.482697</ele>
        <time>2026-07-08T13:20:16.000Z</time>
      </trkpt>
      <trkpt lat="47.0482" lon="16.08847">
        <ele>280.487066</ele>
        <time>2026-07-08T13:20:17.000Z</time>
      </trkpt>
      <trkpt lat="47.04816" lon="16.0885">
        <ele>280.49149</ele>
        <time>2026-07-08T13:20:18.000Z</time>
      </trkpt>
      <trkpt lat="47.04811" lon="16.08854">
        <ele>280.496106</ele>
        <time>2026-07-08T13:20:19.000Z</time>
      </trkpt>
      <trkpt lat="47.04807" lon="16.08859">
        <ele>280.500856</ele>
        <time>2026-07-08T13:20:20.000Z</time>
      </trkpt>
      <trkpt lat="47.04802" lon="16.08863">
        <ele>280.505606</ele>
        <time>2026-07-08T13:20:21.000Z</time>
      </trkpt>
      <trkpt lat="47.04797" lon="16.08867">
        <ele>280.510411</ele>
        <time>2026-07-08T13:20:22.000Z</time>
      </trkpt>
      <trkpt lat="47.04793" lon="16.08872">
        <ele>280.515255</ele>
        <time>2026-07-08T13:20:23.000Z</time>
      </trkpt>
      <trkpt lat="47.04788" lon="16.08876">
        <ele>280.519955</ele>
        <time>2026-07-08T13:20:24.000Z</time>
      </trkpt>
      <trkpt lat="47.04784" lon="16.08881">
        <ele>280.524453</ele>
        <time>2026-07-08T13:20:25.000Z</time>
      </trkpt>
      <trkpt lat="47.0478" lon="16.08886">
        <ele>280.528835</ele>
        <time>2026-07-08T13:20:26.000Z</time>
      </trkpt>
      <trkpt lat="47.04777" lon="16.08892">
        <ele>280.533401</ele>
        <time>2026-07-08T13:20:27.000Z</time>
      </trkpt>
      <trkpt lat="47.04773" lon="16.08897">
        <ele>280.525604</ele>
        <time>2026-07-08T13:20:28.000Z</time>
      </trkpt>
      <trkpt lat="47.04769" lon="16.08903">
        <ele>280.50632</ele>
        <time>2026-07-08T13:20:29.000Z</time>
      </trkpt>
      <trkpt lat="47.04766" lon="16.08909">
        <ele>280.487505</ele>
        <time>2026-07-08T13:20:30.000Z</time>
      </trkpt>
      <trkpt lat="47.04762" lon="16.08915">
        <ele>280.468232</ele>
        <time>2026-07-08T13:20:31.000Z</time>
      </trkpt>
      <trkpt lat="47.04759" lon="16.08921">
        <ele>280.44843</ele>
        <time>2026-07-08T13:20:32.000Z</time>
      </trkpt>
      <trkpt lat="47.04755" lon="16.08928">
        <ele>280.428596</ele>
        <time>2026-07-08T13:20:33.000Z</time>
      </trkpt>
      <trkpt lat="47.04752" lon="16.08934">
        <ele>280.408761</ele>
        <time>2026-07-08T13:20:34.000Z</time>
      </trkpt>
      <trkpt lat="47.04748" lon="16.0894">
        <ele>280.388546</ele>
        <time>2026-07-08T13:20:35.000Z</time>
      </trkpt>
      <trkpt lat="47.04745" lon="16.08947">
        <ele>280.367946</ele>
        <time>2026-07-08T13:20:36.000Z</time>
      </trkpt>
      <trkpt lat="47.04741" lon="16.08954">
        <ele>280.347731</ele>
        <time>2026-07-08T13:20:37.000Z</time>
      </trkpt>
      <trkpt lat="47.04738" lon="16.0896">
        <ele>280.327131</ele>
        <time>2026-07-08T13:20:38.000Z</time>
      </trkpt>
      <trkpt lat="47.04734" lon="16.08967">
        <ele>280.306915</ele>
        <time>2026-07-08T13:20:39.000Z</time>
      </trkpt>
      <trkpt lat="47.04731" lon="16.08973">
        <ele>280.28694</ele>
        <time>2026-07-08T13:20:40.000Z</time>
      </trkpt>
      <trkpt lat="47.04728" lon="16.0898">
        <ele>280.26634</ele>
        <time>2026-07-08T13:20:41.000Z</time>
      </trkpt>
      <trkpt lat="47.04724" lon="16.08987">
        <ele>280.246125</ele>
        <time>2026-07-08T13:20:42.000Z</time>
      </trkpt>
      <trkpt lat="47.04721" lon="16.08993">
        <ele>280.226346</ele>
        <time>2026-07-08T13:20:43.000Z</time>
      </trkpt>
      <trkpt lat="47.04717" lon="16.09">
        <ele>280.20635</ele>
        <time>2026-07-08T13:20:44.000Z</time>
      </trkpt>
      <trkpt lat="47.04714" lon="16.09006">
        <ele>280.186178</ele>
        <time>2026-07-08T13:20:45.000Z</time>
      </trkpt>
      <trkpt lat="47.04711" lon="16.09013">
        <ele>280.166788</ele>
        <time>2026-07-08T13:20:46.000Z</time>
      </trkpt>
      <trkpt lat="47.04707" lon="16.09019">
        <ele>280.147515</ele>
        <time>2026-07-08T13:20:47.000Z</time>
      </trkpt>
      <trkpt lat="47.04704" lon="16.09024">
        <ele>280.129305</ele>
        <time>2026-07-08T13:20:48.000Z</time>
      </trkpt>
      <trkpt lat="47.04701" lon="16.0903">
        <ele>280.112764</ele>
        <time>2026-07-08T13:20:49.000Z</time>
      </trkpt>
      <trkpt lat="47.04699" lon="16.09035">
        <ele>280.09761</ele>
        <time>2026-07-08T13:20:50.000Z</time>
      </trkpt>
      <trkpt lat="47.04696" lon="16.09039">
        <ele>280.082979</ele>
        <time>2026-07-08T13:20:51.000Z</time>
      </trkpt>
      <trkpt lat="47.04694" lon="16.09044">
        <ele>280.069253</ele>
        <time>2026-07-08T13:20:52.000Z</time>
      </trkpt>
      <trkpt lat="47.04692" lon="16.09049">
        <ele>280.055137</ele>
        <time>2026-07-08T13:20:53.000Z</time>
      </trkpt>
      <trkpt lat="47.0469" lon="16.09053">
        <ele>280.041981</ele>
        <time>2026-07-08T13:20:54.000Z</time>
      </trkpt>
      <trkpt lat="47.04688" lon="16.09058">
        <ele>280.028666</ele>
        <time>2026-07-08T13:20:55.000Z</time>
      </trkpt>
      <trkpt lat="47.04686" lon="16.09062">
        <ele>280.016123</ele>
        <time>2026-07-08T13:20:56.000Z</time>
      </trkpt>
      <trkpt lat="47.04683" lon="16.09066">
        <ele>280.003057</ele>
        <time>2026-07-08T13:20:57.000Z</time>
      </trkpt>
      <trkpt lat="47.04681" lon="16.09069">
        <ele>279.990515</ele>
        <time>2026-07-08T13:20:58.000Z</time>
      </trkpt>
      <trkpt lat="47.04678" lon="16.09073">
        <ele>279.978294</ele>
        <time>2026-07-08T13:20:59.000Z</time>
      </trkpt>
      <trkpt lat="47.04676" lon="16.09077">
        <ele>279.965791</ele>
        <time>2026-07-08T13:21:00.000Z</time>
      </trkpt>
      <trkpt lat="47.04674" lon="16.09081">
        <ele>279.953692</ele>
        <time>2026-07-08T13:21:01.000Z</time>
      </trkpt>
      <trkpt lat="47.04672" lon="16.09085">
        <ele>279.94137</ele>
        <time>2026-07-08T13:21:02.000Z</time>
      </trkpt>
      <trkpt lat="47.0467" lon="16.09089">
        <ele>279.928656</ele>
        <time>2026-07-08T13:21:03.000Z</time>
      </trkpt>
      <trkpt lat="47.04668" lon="16.09093">
        <ele>279.916112</ele>
        <time>2026-07-08T13:21:04.000Z</time>
      </trkpt>
      <trkpt lat="47.04665" lon="16.09097">
        <ele>279.902964</ele>
        <time>2026-07-08T13:21:05.000Z</time>
      </trkpt>
      <trkpt lat="47.04663" lon="16.09102">
        <ele>279.890424</ele>
        <time>2026-07-08T13:21:06.000Z</time>
      </trkpt>
      <trkpt lat="47.04661" lon="16.09106">
        <ele>279.879115</ele>
        <time>2026-07-08T13:21:07.000Z</time>
      </trkpt>
      <trkpt lat="47.04659" lon="16.0911">
        <ele>279.867797</ele>
        <time>2026-07-08T13:21:08.000Z</time>
      </trkpt>
      <trkpt lat="47.04657" lon="16.09115">
        <ele>279.85631</ele>
        <time>2026-07-08T13:21:09.000Z</time>
      </trkpt>
      <trkpt lat="47.04654" lon="16.09119">
        <ele>279.844886</ele>
        <time>2026-07-08T13:21:10.000Z</time>
      </trkpt>
      <trkpt lat="47.04652" lon="16.09123">
        <ele>279.833461</ele>
        <time>2026-07-08T13:21:11.000Z</time>
      </trkpt>
      <trkpt lat="47.0465" lon="16.09127">
        <ele>279.821452</ele>
        <time>2026-07-08T13:21:12.000Z</time>
      </trkpt>
      <trkpt lat="47.04647" lon="16.09132">
        <ele>279.810111</ele>
        <time>2026-07-08T13:21:13.000Z</time>
      </trkpt>
      <trkpt lat="47.04645" lon="16.09136">
        <ele>279.79749</ele>
        <time>2026-07-08T13:21:14.000Z</time>
      </trkpt>
      <trkpt lat="47.04642" lon="16.09141">
        <ele>279.78435</ele>
        <time>2026-07-08T13:21:15.000Z</time>
      </trkpt>
      <trkpt lat="47.04639" lon="16.09145">
        <ele>279.771571</ele>
        <time>2026-07-08T13:21:16.000Z</time>
      </trkpt>
      <trkpt lat="47.04636" lon="16.0915">
        <ele>279.758744</ele>
        <time>2026-07-08T13:21:17.000Z</time>
      </trkpt>
      <trkpt lat="47.04634" lon="16.09155">
        <ele>279.745805</ele>
        <time>2026-07-08T13:21:18.000Z</time>
      </trkpt>
      <trkpt lat="47.04631" lon="16.09159">
        <ele>279.733088</ele>
        <time>2026-07-08T13:21:19.000Z</time>
      </trkpt>
      <trkpt lat="47.04629" lon="16.09164">
        <ele>279.721431</ele>
        <time>2026-07-08T13:21:20.000Z</time>
      </trkpt>
      <trkpt lat="47.04626" lon="16.09169">
        <ele>279.708881</ele>
        <time>2026-07-08T13:21:21.000Z</time>
      </trkpt>
      <trkpt lat="47.04624" lon="16.09173">
        <ele>279.69666</ele>
        <time>2026-07-08T13:21:22.000Z</time>
      </trkpt>
      <trkpt lat="47.04621" lon="16.09178">
        <ele>279.684439</ele>
        <time>2026-07-08T13:21:23.000Z</time>
      </trkpt>
      <trkpt lat="47.04619" lon="16.09182">
        <ele>279.672701</ele>
        <time>2026-07-08T13:21:24.000Z</time>
      </trkpt>
      <trkpt lat="47.04616" lon="16.09186">
        <ele>279.660912</ele>
        <time>2026-07-08T13:21:25.000Z</time>
      </trkpt>
      <trkpt lat="47.04614" lon="16.0919">
        <ele>279.649049</ele>
        <time>2026-07-08T13:21:26.000Z</time>
      </trkpt>
      <trkpt lat="47.04612" lon="16.09195">
        <ele>279.637741</ele>
        <time>2026-07-08T13:21:27.000Z</time>
      </trkpt>
      <trkpt lat="47.0461" lon="16.09199">
        <ele>279.626234</ele>
        <time>2026-07-08T13:21:28.000Z</time>
      </trkpt>
      <trkpt lat="47.04607" lon="16.09203">
        <ele>279.614893</ele>
        <time>2026-07-08T13:21:29.000Z</time>
      </trkpt>
      <trkpt lat="47.04605" lon="16.09207">
        <ele>279.603516</ele>
        <time>2026-07-08T13:21:30.000Z</time>
      </trkpt>
      <trkpt lat="47.04603" lon="16.09212">
        <ele>279.592209</ele>
        <time>2026-07-08T13:21:31.000Z</time>
      </trkpt>
      <trkpt lat="47.04601" lon="16.09216">
        <ele>279.58038</ele>
        <time>2026-07-08T13:21:32.000Z</time>
      </trkpt>
      <trkpt lat="47.04598" lon="16.09221">
        <ele>279.56783</ele>
        <time>2026-07-08T13:21:33.000Z</time>
      </trkpt>
      <trkpt lat="47.04596" lon="16.09225">
        <ele>279.555932</ele>
        <time>2026-07-08T13:21:34.000Z</time>
      </trkpt>
      <trkpt lat="47.04593" lon="16.0923">
        <ele>279.543312</ele>
        <time>2026-07-08T13:21:35.000Z</time>
      </trkpt>
      <trkpt lat="47.0459" lon="16.09234">
        <ele>279.530893</ele>
        <time>2026-07-08T13:21:36.000Z</time>
      </trkpt>
      <trkpt lat="47.04588" lon="16.09239">
        <ele>279.518273</ele>
        <time>2026-07-08T13:21:37.000Z</time>
      </trkpt>
      <trkpt lat="47.04585" lon="16.09244">
        <ele>279.505723</ele>
        <time>2026-07-08T13:21:38.000Z</time>
      </trkpt>
      <trkpt lat="47.04583" lon="16.09248">
        <ele>279.493502</ele>
        <time>2026-07-08T13:21:39.000Z</time>
      </trkpt>
      <trkpt lat="47.0458" lon="16.09253">
        <ele>279.481322</ele>
        <time>2026-07-08T13:21:40.000Z</time>
      </trkpt>
      <trkpt lat="47.04578" lon="16.09257">
        <ele>279.469128</ele>
        <time>2026-07-08T13:21:41.000Z</time>
      </trkpt>
      <trkpt lat="47.04575" lon="16.09262">
        <ele>279.456709</ele>
        <time>2026-07-08T13:21:42.000Z</time>
      </trkpt>
      <trkpt lat="47.04573" lon="16.09266">
        <ele>279.444651</ele>
        <time>2026-07-08T13:21:43.000Z</time>
      </trkpt>
      <trkpt lat="47.0457" lon="16.0927">
        <ele>279.43307</ele>
        <time>2026-07-08T13:21:44.000Z</time>
      </trkpt>
      <trkpt lat="47.04568" lon="16.09274">
        <ele>279.421219</ele>
        <time>2026-07-08T13:21:45.000Z</time>
      </trkpt>
      <trkpt lat="47.04565" lon="16.09279">
        <ele>279.409066</ele>
        <time>2026-07-08T13:21:46.000Z</time>
      </trkpt>
      <trkpt lat="47.04562" lon="16.09283">
        <ele>279.396516</ele>
        <time>2026-07-08T13:21:47.000Z</time>
      </trkpt>
      <trkpt lat="47.0456" lon="16.09288">
        <ele>279.383462</ele>
        <time>2026-07-08T13:21:48.000Z</time>
      </trkpt>
      <trkpt lat="47.04557" lon="16.09293">
        <ele>279.370555</ele>
        <time>2026-07-08T13:21:49.000Z</time>
      </trkpt>
      <trkpt lat="47.04555" lon="16.09298">
        <ele>279.358005</ele>
        <time>2026-07-08T13:21:50.000Z</time>
      </trkpt>
      <trkpt lat="47.04552" lon="16.09303">
        <ele>279.344904</ele>
        <time>2026-07-08T13:21:51.000Z</time>
      </trkpt>
      <trkpt lat="47.04549" lon="16.09307">
        <ele>279.333067</ele>
        <time>2026-07-08T13:21:52.000Z</time>
      </trkpt>
      <trkpt lat="47.04547" lon="16.09311">
        <ele>279.323411</ele>
        <time>2026-07-08T13:21:53.000Z</time>
      </trkpt>
      <trkpt lat="47.04544" lon="16.09315">
        <ele>279.313872</ele>
        <time>2026-07-08T13:21:54.000Z</time>
      </trkpt>
      <trkpt lat="47.04541" lon="16.0932">
        <ele>279.30461</ele>
        <time>2026-07-08T13:21:55.000Z</time>
      </trkpt>
      <trkpt lat="47.04539" lon="16.09324">
        <ele>279.295511</ele>
        <time>2026-07-08T13:21:56.000Z</time>
      </trkpt>
      <trkpt lat="47.04537" lon="16.09329">
        <ele>279.286249</ele>
        <time>2026-07-08T13:21:57.000Z</time>
      </trkpt>
      <trkpt lat="47.04534" lon="16.09333">
        <ele>279.27696</ele>
        <time>2026-07-08T13:21:58.000Z</time>
      </trkpt>
      <trkpt lat="47.04532" lon="16.09338">
        <ele>279.267451</ele>
        <time>2026-07-08T13:21:59.000Z</time>
      </trkpt>
      <trkpt lat="47.0453" lon="16.09343">
        <ele>279.257537</ele>
        <time>2026-07-08T13:22:00.000Z</time>
      </trkpt>
      <trkpt lat="47.04528" lon="16.09348">
        <ele>279.247867</ele>
        <time>2026-07-08T13:22:01.000Z</time>
      </trkpt>
      <trkpt lat="47.04525" lon="16.09353">
        <ele>279.237546</ele>
        <time>2026-07-08T13:22:02.000Z</time>
      </trkpt>
      <trkpt lat="47.04523" lon="16.09358">
        <ele>279.227471</ele>
        <time>2026-07-08T13:22:03.000Z</time>
      </trkpt>
      <trkpt lat="47.04521" lon="16.09364">
        <ele>279.217412</ele>
        <time>2026-07-08T13:22:04.000Z</time>
      </trkpt>
      <trkpt lat="47.04519" lon="16.09369">
        <ele>279.207456</ele>
        <time>2026-07-08T13:22:05.000Z</time>
      </trkpt>
      <trkpt lat="47.04517" lon="16.09374">
        <ele>279.197675</ele>
        <time>2026-07-08T13:22:06.000Z</time>
      </trkpt>
      <trkpt lat="47.04515" lon="16.09379">
        <ele>279.188163</ele>
        <time>2026-07-08T13:22:07.000Z</time>
      </trkpt>
      <trkpt lat="47.04512" lon="16.09383">
        <ele>279.178642</ele>
        <time>2026-07-08T13:22:08.000Z</time>
      </trkpt>
      <trkpt lat="47.0451" lon="16.09388">
        <ele>279.1691</ele>
        <time>2026-07-08T13:22:09.000Z</time>
      </trkpt>
      <trkpt lat="47.04508" lon="16.09393">
        <ele>279.159588</ele>
        <time>2026-07-08T13:22:10.000Z</time>
      </trkpt>
      <trkpt lat="47.04505" lon="16.09397">
        <ele>279.150197</ele>
        <time>2026-07-08T13:22:11.000Z</time>
      </trkpt>
      <trkpt lat="47.04503" lon="16.09401">
        <ele>279.141156</ele>
        <time>2026-07-08T13:22:12.000Z</time>
      </trkpt>
      <trkpt lat="47.045" lon="16.09405">
        <ele>279.132069</ele>
        <time>2026-07-08T13:22:13.000Z</time>
      </trkpt>
      <trkpt lat="47.04498" lon="16.09409">
        <ele>279.123149</ele>
        <time>2026-07-08T13:22:15.000Z</time>
      </trkpt>
      <trkpt lat="47.04495" lon="16.09413">
        <ele>279.114229</ele>
        <time>2026-07-08T13:22:16.000Z</time>
      </trkpt>
      <trkpt lat="47.04493" lon="16.09417">
        <ele>279.105628</ele>
        <time>2026-07-08T13:22:17.000Z</time>
      </trkpt>
      <trkpt lat="47.0449" lon="16.09421">
        <ele>279.09687</ele>
        <time>2026-07-08T13:22:18.000Z</time>
      </trkpt>
      <trkpt lat="47.04488" lon="16.09425">
        <ele>279.08819</ele>
        <time>2026-07-08T13:22:19.000Z</time>
      </trkpt>
      <trkpt lat="47.04485" lon="16.09429">
        <ele>279.07939</ele>
        <time>2026-07-08T13:22:20.000Z</time>
      </trkpt>
      <trkpt lat="47.04483" lon="16.09432">
        <ele>279.071633</ele>
        <time>2026-07-08T13:22:21.000Z</time>
      </trkpt>
      <trkpt lat="47.04481" lon="16.09435">
        <ele>279.063876</ele>
        <time>2026-07-08T13:22:22.000Z</time>
      </trkpt>
      <trkpt lat="47.04478" lon="16.09439">
        <ele>279.055831</ele>
        <time>2026-07-08T13:22:23.000Z</time>
      </trkpt>
      <trkpt lat="47.04476" lon="16.09442">
        <ele>279.04784</ele>
        <time>2026-07-08T13:22:24.000Z</time>
      </trkpt>
      <trkpt lat="47.04474" lon="16.09445">
        <ele>279.040824</ele>
        <time>2026-07-08T13:22:25.000Z</time>
      </trkpt>
      <trkpt lat="47.04472" lon="16.09449">
        <ele>279.033443</ele>
        <time>2026-07-08T13:22:26.000Z</time>
      </trkpt>
      <trkpt lat="47.0447" lon="16.09452">
        <ele>279.026497</ele>
        <time>2026-07-08T13:22:27.000Z</time>
      </trkpt>
      <trkpt lat="47.04468" lon="16.09456">
        <ele>279.018735</ele>
        <time>2026-07-08T13:22:28.000Z</time>
      </trkpt>
      <trkpt lat="47.04466" lon="16.0946">
        <ele>279.010159</ele>
        <time>2026-07-08T13:22:29.000Z</time>
      </trkpt>
      <trkpt lat="47.04464" lon="16.09464">
        <ele>279.001454</ele>
        <time>2026-07-08T13:22:30.000Z</time>
      </trkpt>
      <trkpt lat="47.04462" lon="16.09468">
        <ele>278.992893</ele>
        <time>2026-07-08T13:22:31.000Z</time>
      </trkpt>
      <trkpt lat="47.0446" lon="16.09472">
        <ele>278.984317</ele>
        <time>2026-07-08T13:22:32.000Z</time>
      </trkpt>
      <trkpt lat="47.04457" lon="16.09477">
        <ele>278.975348</ele>
        <time>2026-07-08T13:22:33.000Z</time>
      </trkpt>
      <trkpt lat="47.04455" lon="16.09481">
        <ele>278.966519</ele>
        <time>2026-07-08T13:22:34.000Z</time>
      </trkpt>
      <trkpt lat="47.04453" lon="16.09486">
        <ele>278.95742</ele>
        <time>2026-07-08T13:22:35.000Z</time>
      </trkpt>
      <trkpt lat="47.04451" lon="16.0949">
        <ele>278.948728</ele>
        <time>2026-07-08T13:22:36.000Z</time>
      </trkpt>
      <trkpt lat="47.04449" lon="16.09495">
        <ele>278.939439</ele>
        <time>2026-07-08T13:22:37.000Z</time>
      </trkpt>
      <trkpt lat="47.04446" lon="16.09499">
        <ele>278.929586</ele>
        <time>2026-07-08T13:22:38.000Z</time>
      </trkpt>
      <trkpt lat="47.04444" lon="16.09504">
        <ele>278.920079</ele>
        <time>2026-07-08T13:22:39.000Z</time>
      </trkpt>
      <trkpt lat="47.04442" lon="16.09509">
        <ele>278.909891</ele>
        <time>2026-07-08T13:22:40.000Z</time>
      </trkpt>
      <trkpt lat="47.04439" lon="16.09514">
        <ele>278.900227</ele>
        <time>2026-07-08T13:22:41.000Z</time>
      </trkpt>
      <trkpt lat="47.04437" lon="16.09519">
        <ele>278.891148</ele>
        <time>2026-07-08T13:22:42.000Z</time>
      </trkpt>
      <trkpt lat="47.04435" lon="16.09524">
        <ele>278.881948</ele>
        <time>2026-07-08T13:22:43.000Z</time>
      </trkpt>
      <trkpt lat="47.04433" lon="16.09529">
        <ele>278.873006</ele>
        <time>2026-07-08T13:22:44.000Z</time>
      </trkpt>
      <trkpt lat="47.04431" lon="16.09534">
        <ele>278.863926</ele>
        <time>2026-07-08T13:22:45.000Z</time>
      </trkpt>
      <trkpt lat="47.04429" lon="16.09539">
        <ele>278.854964</ele>
        <time>2026-07-08T13:22:46.000Z</time>
      </trkpt>
      <trkpt lat="47.04426" lon="16.09544">
        <ele>278.845885</ele>
        <time>2026-07-08T13:22:47.000Z</time>
      </trkpt>
      <trkpt lat="47.04424" lon="16.09548">
        <ele>278.837189</ele>
        <time>2026-07-08T13:22:48.000Z</time>
      </trkpt>
      <trkpt lat="47.04422" lon="16.09552">
        <ele>278.828452</ele>
        <time>2026-07-08T13:22:49.000Z</time>
      </trkpt>
      <trkpt lat="47.04419" lon="16.09557">
        <ele>278.819879</ele>
        <time>2026-07-08T13:22:50.000Z</time>
      </trkpt>
      <trkpt lat="47.04417" lon="16.09561">
        <ele>278.811287</ele>
        <time>2026-07-08T13:22:51.000Z</time>
      </trkpt>
      <trkpt lat="47.04415" lon="16.09565">
        <ele>278.802958</ele>
        <time>2026-07-08T13:22:52.000Z</time>
      </trkpt>
      <trkpt lat="47.04412" lon="16.0957">
        <ele>278.79422</ele>
        <time>2026-07-08T13:22:53.000Z</time>
      </trkpt>
      <trkpt lat="47.0441" lon="16.09574">
        <ele>278.785406</ele>
        <time>2026-07-08T13:22:54.000Z</time>
      </trkpt>
      <trkpt lat="47.04408" lon="16.09579">
        <ele>278.77671</ele>
        <time>2026-07-08T13:22:55.000Z</time>
      </trkpt>
      <trkpt lat="47.04405" lon="16.09583">
        <ele>278.767891</ele>
        <time>2026-07-08T13:22:56.000Z</time>
      </trkpt>
      <trkpt lat="47.04403" lon="16.09588">
        <ele>278.758811</ele>
        <time>2026-07-08T13:22:57.000Z</time>
      </trkpt>
      <trkpt lat="47.04401" lon="16.09593">
        <ele>278.750124</ele>
        <time>2026-07-08T13:22:58.000Z</time>
      </trkpt>
      <trkpt lat="47.04398" lon="16.09597">
        <ele>278.741148</ele>
        <time>2026-07-08T13:22:59.000Z</time>
      </trkpt>
      <trkpt lat="47.04396" lon="16.09602">
        <ele>278.732315</ele>
        <time>2026-07-08T13:23:00.000Z</time>
      </trkpt>
      <trkpt lat="47.04394" lon="16.09606">
        <ele>278.723495</ele>
        <time>2026-07-08T13:23:01.000Z</time>
      </trkpt>
      <trkpt lat="47.04391" lon="16.09611">
        <ele>278.714227</ele>
        <time>2026-07-08T13:23:02.000Z</time>
      </trkpt>
      <trkpt lat="47.04388" lon="16.09615">
        <ele>278.705251</ele>
        <time>2026-07-08T13:23:03.000Z</time>
      </trkpt>
      <trkpt lat="47.04386" lon="16.0962">
        <ele>278.696276</ele>
        <time>2026-07-08T13:23:04.000Z</time>
      </trkpt>
      <trkpt lat="47.04384" lon="16.09624">
        <ele>278.687704</ele>
        <time>2026-07-08T13:23:05.000Z</time>
      </trkpt>
      <trkpt lat="47.04381" lon="16.09629">
        <ele>278.679392</ele>
        <time>2026-07-08T13:23:06.000Z</time>
      </trkpt>
      <trkpt lat="47.04379" lon="16.09633">
        <ele>278.671063</ele>
        <time>2026-07-08T13:23:07.000Z</time>
      </trkpt>
      <trkpt lat="47.04377" lon="16.09637">
        <ele>278.662757</ele>
        <time>2026-07-08T13:23:08.000Z</time>
      </trkpt>
      <trkpt lat="47.04375" lon="16.09642">
        <ele>278.654445</ele>
        <time>2026-07-08T13:23:09.000Z</time>
      </trkpt>
      <trkpt lat="47.04373" lon="16.09646">
        <ele>278.646014</ele>
        <time>2026-07-08T13:23:10.000Z</time>
      </trkpt>
      <trkpt lat="47.0437" lon="16.0965">
        <ele>278.637634</ele>
        <time>2026-07-08T13:23:11.000Z</time>
      </trkpt>
      <trkpt lat="47.04367" lon="16.09653">
        <ele>278.629358</ele>
        <time>2026-07-08T13:23:12.000Z</time>
      </trkpt>
      <trkpt lat="47.04365" lon="16.09657">
        <ele>278.621268</ele>
        <time>2026-07-08T13:23:13.000Z</time>
      </trkpt>
      <trkpt lat="47.04363" lon="16.09662">
        <ele>278.613079</ele>
        <time>2026-07-08T13:23:14.000Z</time>
      </trkpt>
      <trkpt lat="47.04361" lon="16.09666">
        <ele>278.604988</ele>
        <time>2026-07-08T13:23:15.000Z</time>
      </trkpt>
      <trkpt lat="47.04358" lon="16.0967">
        <ele>278.596598</ele>
        <time>2026-07-08T13:23:16.000Z</time>
      </trkpt>
      <trkpt lat="47.04356" lon="16.09673">
        <ele>278.588432</ele>
        <time>2026-07-08T13:23:17.000Z</time>
      </trkpt>
      <trkpt lat="47.04353" lon="16.09678">
        <ele>278.579812</ele>
        <time>2026-07-08T13:23:18.000Z</time>
      </trkpt>
      <trkpt lat="47.04351" lon="16.09682">
        <ele>278.571721</ele>
        <time>2026-07-08T13:23:19.000Z</time>
      </trkpt>
      <trkpt lat="47.04348" lon="16.09686">
        <ele>278.563018</ele>
        <time>2026-07-08T13:23:20.000Z</time>
      </trkpt>
      <trkpt lat="47.04346" lon="16.0969">
        <ele>278.554627</ele>
        <time>2026-07-08T13:23:21.000Z</time>
      </trkpt>
      <trkpt lat="47.04343" lon="16.09694">
        <ele>278.546007</ele>
        <time>2026-07-08T13:23:22.000Z</time>
      </trkpt>
      <trkpt lat="47.04341" lon="16.09698">
        <ele>278.537797</ele>
        <time>2026-07-08T13:23:23.000Z</time>
      </trkpt>
      <trkpt lat="47.04339" lon="16.09702">
        <ele>278.529236</ele>
        <time>2026-07-08T13:23:24.000Z</time>
      </trkpt>
      <trkpt lat="47.04336" lon="16.09707">
        <ele>278.5208</ele>
        <time>2026-07-08T13:23:25.000Z</time>
      </trkpt>
      <trkpt lat="47.04334" lon="16.09711">
        <ele>278.512871</ele>
        <time>2026-07-08T13:23:26.000Z</time>
      </trkpt>
      <trkpt lat="47.04332" lon="16.09715">
        <ele>278.504158</ele>
        <time>2026-07-08T13:23:27.000Z</time>
      </trkpt>
      <trkpt lat="47.0433" lon="16.0972">
        <ele>278.495727</ele>
        <time>2026-07-08T13:23:28.000Z</time>
      </trkpt>
      <trkpt lat="47.04327" lon="16.09724">
        <ele>278.49808</ele>
        <time>2026-07-08T13:23:29.000Z</time>
      </trkpt>
      <trkpt lat="47.04325" lon="16.09729">
        <ele>278.503125</ele>
        <time>2026-07-08T13:23:30.000Z</time>
      </trkpt>
      <trkpt lat="47.04323" lon="16.09733">
        <ele>278.508126</ele>
        <time>2026-07-08T13:23:31.000Z</time>
      </trkpt>
      <trkpt lat="47.0432" lon="16.09737">
        <ele>278.513334</ele>
        <time>2026-07-08T13:23:32.000Z</time>
      </trkpt>
      <trkpt lat="47.04318" lon="16.09742">
        <ele>278.518403</ele>
        <time>2026-07-08T13:23:33.000Z</time>
      </trkpt>
      <trkpt lat="47.04315" lon="16.09746">
        <ele>278.523781</ele>
        <time>2026-07-08T13:23:34.000Z</time>
      </trkpt>
      <trkpt lat="47.04312" lon="16.09751">
        <ele>278.528988</ele>
        <time>2026-07-08T13:23:35.000Z</time>
      </trkpt>
      <trkpt lat="47.0431" lon="16.09755">
        <ele>278.534335</ele>
        <time>2026-07-08T13:23:36.000Z</time>
      </trkpt>
      <trkpt lat="47.04308" lon="16.0976">
        <ele>278.539452</ele>
        <time>2026-07-08T13:23:37.000Z</time>
      </trkpt>
      <trkpt lat="47.04305" lon="16.09765">
        <ele>278.5448</ele>
        <time>2026-07-08T13:23:38.000Z</time>
      </trkpt>
      <trkpt lat="47.04303" lon="16.09769">
        <ele>278.550147</ele>
        <time>2026-07-08T13:23:39.000Z</time>
      </trkpt>
      <trkpt lat="47.043" lon="16.09774">
        <ele>278.555264</ele>
        <time>2026-07-08T13:23:40.000Z</time>
      </trkpt>
      <trkpt lat="47.04298" lon="16.09779">
        <ele>278.560754</ele>
        <time>2026-07-08T13:23:41.000Z</time>
      </trkpt>
      <trkpt lat="47.04296" lon="16.09783">
        <ele>278.565795</ele>
        <time>2026-07-08T13:23:42.000Z</time>
      </trkpt>
      <trkpt lat="47.04293" lon="16.09788">
        <ele>278.571131</ele>
        <time>2026-07-08T13:23:43.000Z</time>
      </trkpt>
      <trkpt lat="47.04291" lon="16.09793">
        <ele>278.576319</ele>
        <time>2026-07-08T13:23:44.000Z</time>
      </trkpt>
      <trkpt lat="47.04289" lon="16.09798">
        <ele>278.581507</ele>
        <time>2026-07-08T13:23:45.000Z</time>
      </trkpt>
      <trkpt lat="47.04287" lon="16.09803">
        <ele>278.586477</ele>
        <time>2026-07-08T13:23:46.000Z</time>
      </trkpt>
      <trkpt lat="47.04285" lon="16.09807">
        <ele>278.591296</ele>
        <time>2026-07-08T13:23:47.000Z</time>
      </trkpt>
      <trkpt lat="47.04283" lon="16.09812">
        <ele>278.595976</ele>
        <time>2026-07-08T13:23:48.000Z</time>
      </trkpt>
      <trkpt lat="47.04281" lon="16.09816">
        <ele>278.600748</ele>
        <time>2026-07-08T13:23:49.000Z</time>
      </trkpt>
      <trkpt lat="47.0428" lon="16.09821">
        <ele>278.6053</ele>
        <time>2026-07-08T13:23:50.000Z</time>
      </trkpt>
      <trkpt lat="47.04278" lon="16.09825">
        <ele>278.609759</ele>
        <time>2026-07-08T13:23:51.000Z</time>
      </trkpt>
      <trkpt lat="47.04276" lon="16.09829">
        <ele>278.61414</ele>
        <time>2026-07-08T13:23:52.000Z</time>
      </trkpt>
      <trkpt lat="47.04275" lon="16.09833">
        <ele>278.6183</ele>
        <time>2026-07-08T13:23:53.000Z</time>
      </trkpt>
      <trkpt lat="47.04273" lon="16.09838">
        <ele>278.622574</ele>
        <time>2026-07-08T13:23:54.000Z</time>
      </trkpt>
      <trkpt lat="47.04272" lon="16.09842">
        <ele>278.626564</ele>
        <time>2026-07-08T13:23:55.000Z</time>
      </trkpt>
      <trkpt lat="47.04271" lon="16.09846">
        <ele>278.63047</ele>
        <time>2026-07-08T13:23:56.000Z</time>
      </trkpt>
      <trkpt lat="47.0427" lon="16.0985">
        <ele>278.634339</ele>
        <time>2026-07-08T13:23:57.000Z</time>
      </trkpt>
      <trkpt lat="47.04269" lon="16.09854">
        <ele>278.638434</ele>
        <time>2026-07-08T13:23:58.000Z</time>
      </trkpt>
      <trkpt lat="47.04267" lon="16.09858">
        <ele>278.642815</ele>
        <time>2026-07-08T13:23:59.000Z</time>
      </trkpt>
      <trkpt lat="47.04265" lon="16.09863">
        <ele>278.647587</ele>
        <time>2026-07-08T13:24:00.000Z</time>
      </trkpt>
      <trkpt lat="47.04264" lon="16.09868">
        <ele>278.652471</ele>
        <time>2026-07-08T13:24:01.000Z</time>
      </trkpt>
      <trkpt lat="47.04263" lon="16.09874">
        <ele>278.657691</ele>
        <time>2026-07-08T13:24:02.000Z</time>
      </trkpt>
      <trkpt lat="47.04263" lon="16.09879">
        <ele>278.662973</ele>
        <time>2026-07-08T13:24:03.000Z</time>
      </trkpt>
      <trkpt lat="47.04262" lon="16.09885">
        <ele>278.668395</ele>
        <time>2026-07-08T13:24:04.000Z</time>
      </trkpt>
      <trkpt lat="47.04262" lon="16.09891">
        <ele>278.673816</ele>
        <time>2026-07-08T13:24:05.000Z</time>
      </trkpt>
      <trkpt lat="47.04262" lon="16.09898">
        <ele>278.679391</ele>
        <time>2026-07-08T13:24:06.000Z</time>
      </trkpt>
      <trkpt lat="47.04263" lon="16.09904">
        <ele>278.685123</ele>
        <time>2026-07-08T13:24:07.000Z</time>
      </trkpt>
      <trkpt lat="47.04265" lon="16.09909">
        <ele>278.690895</ele>
        <time>2026-07-08T13:24:08.000Z</time>
      </trkpt>
      <trkpt lat="47.04267" lon="16.09915">
        <ele>278.696486</ele>
        <time>2026-07-08T13:24:09.000Z</time>
      </trkpt>
      <trkpt lat="47.04269" lon="16.09921">
        <ele>278.702121</ele>
        <time>2026-07-08T13:24:10.000Z</time>
      </trkpt>
      <trkpt lat="47.04271" lon="16.09926">
        <ele>278.707701</ele>
        <time>2026-07-08T13:24:11.000Z</time>
      </trkpt>
      <trkpt lat="47.04272" lon="16.09932">
        <ele>278.713101</ele>
        <time>2026-07-08T13:24:12.000Z</time>
      </trkpt>
      <trkpt lat="47.04273" lon="16.09938">
        <ele>278.718737</ele>
        <time>2026-07-08T13:24:13.000Z</time>
      </trkpt>
      <trkpt lat="47.04273" lon="16.09944">
        <ele>278.724125</ele>
        <time>2026-07-08T13:24:14.000Z</time>
      </trkpt>
      <trkpt lat="47.04273" lon="16.0995">
        <ele>278.729508</ele>
        <time>2026-07-08T13:24:15.000Z</time>
      </trkpt>
      <trkpt lat="47.04273" lon="16.09957">
        <ele>278.730759</ele>
        <time>2026-07-08T13:24:16.000Z</time>
      </trkpt>
      <trkpt lat="47.04273" lon="16.09963">
        <ele>278.730723</ele>
        <time>2026-07-08T13:24:17.000Z</time>
      </trkpt>
      <trkpt lat="47.04273" lon="16.09969">
        <ele>278.730688</ele>
        <time>2026-07-08T13:24:18.000Z</time>
      </trkpt>
      <trkpt lat="47.04273" lon="16.09975">
        <ele>278.730652</ele>
        <time>2026-07-08T13:24:19.000Z</time>
      </trkpt>
      <trkpt lat="47.04273" lon="16.09981">
        <ele>278.730615</ele>
        <time>2026-07-08T13:24:20.000Z</time>
      </trkpt>
      <trkpt lat="47.04273" lon="16.09988">
        <ele>278.730578</ele>
        <time>2026-07-08T13:24:21.000Z</time>
      </trkpt>
      <trkpt lat="47.04273" lon="16.09994">
        <ele>278.730541</ele>
        <time>2026-07-08T13:24:22.000Z</time>
      </trkpt>
      <trkpt lat="47.04273" lon="16.10001">
        <ele>278.730502</ele>
        <time>2026-07-08T13:24:23.000Z</time>
      </trkpt>
      <trkpt lat="47.04273" lon="16.10007">
        <ele>278.730465</ele>
        <time>2026-07-08T13:24:24.000Z</time>
      </trkpt>
      <trkpt lat="47.04273" lon="16.10014">
        <ele>278.730426</ele>
        <time>2026-07-08T13:24:25.000Z</time>
      </trkpt>
      <trkpt lat="47.04273" lon="16.10021">
        <ele>278.730387</ele>
        <time>2026-07-08T13:24:26.000Z</time>
      </trkpt>
      <trkpt lat="47.04274" lon="16.10027">
        <ele>278.73035</ele>
        <time>2026-07-08T13:24:27.000Z</time>
      </trkpt>
      <trkpt lat="47.04274" lon="16.10033">
        <ele>278.730313</ele>
        <time>2026-07-08T13:24:28.000Z</time>
      </trkpt>
      <trkpt lat="47.04274" lon="16.1004">
        <ele>278.730277</ele>
        <time>2026-07-08T13:24:29.000Z</time>
      </trkpt>
      <trkpt lat="47.04274" lon="16.10046">
        <ele>278.730238</ele>
        <time>2026-07-08T13:24:30.000Z</time>
      </trkpt>
      <trkpt lat="47.04274" lon="16.10053">
        <ele>278.730201</ele>
        <time>2026-07-08T13:24:31.000Z</time>
      </trkpt>
      <trkpt lat="47.04274" lon="16.10059">
        <ele>278.730165</ele>
        <time>2026-07-08T13:24:32.000Z</time>
      </trkpt>
      <trkpt lat="47.04274" lon="16.10065">
        <ele>278.730129</ele>
        <time>2026-07-08T13:24:33.000Z</time>
      </trkpt>
      <trkpt lat="47.04274" lon="16.10071">
        <ele>278.730093</ele>
        <time>2026-07-08T13:24:34.000Z</time>
      </trkpt>
      <trkpt lat="47.04273" lon="16.10078">
        <ele>278.730056</ele>
        <time>2026-07-08T13:24:35.000Z</time>
      </trkpt>
      <trkpt lat="47.04272" lon="16.10084">
        <ele>278.730019</ele>
        <time>2026-07-08T13:24:36.000Z</time>
      </trkpt>
      <trkpt lat="47.04271" lon="16.1009">
        <ele>278.729984</ele>
        <time>2026-07-08T13:24:37.000Z</time>
      </trkpt>
      <trkpt lat="47.0427" lon="16.10096">
        <ele>278.729947</ele>
        <time>2026-07-08T13:24:38.000Z</time>
      </trkpt>
      <trkpt lat="47.04269" lon="16.10102">
        <ele>278.72991</ele>
        <time>2026-07-08T13:24:39.000Z</time>
      </trkpt>
      <trkpt lat="47.04268" lon="16.10108">
        <ele>278.729875</ele>
        <time>2026-07-08T13:24:40.000Z</time>
      </trkpt>
      <trkpt lat="47.04266" lon="16.10113">
        <ele>278.72984</ele>
        <time>2026-07-08T13:24:41.000Z</time>
      </trkpt>
      <trkpt lat="47.04265" lon="16.10119">
        <ele>278.729805</ele>
        <time>2026-07-08T13:24:42.000Z</time>
      </trkpt>
      <trkpt lat="47.04263" lon="16.10124">
        <ele>278.72977</ele>
        <time>2026-07-08T13:24:43.000Z</time>
      </trkpt>
      <trkpt lat="47.04261" lon="16.1013">
        <ele>278.729735</ele>
        <time>2026-07-08T13:24:44.000Z</time>
      </trkpt>
      <trkpt lat="47.04259" lon="16.10135">
        <ele>278.7297</ele>
        <time>2026-07-08T13:24:45.000Z</time>
      </trkpt>
      <trkpt lat="47.04257" lon="16.10141">
        <ele>278.729664</ele>
        <time>2026-07-08T13:24:46.000Z</time>
      </trkpt>
      <trkpt lat="47.04255" lon="16.10146">
        <ele>278.729627</ele>
        <time>2026-07-08T13:24:47.000Z</time>
      </trkpt>
      <trkpt lat="47.04253" lon="16.10152">
        <ele>278.729588</ele>
        <time>2026-07-08T13:24:48.000Z</time>
      </trkpt>
      <trkpt lat="47.04251" lon="16.10157">
        <ele>278.729551</ele>
        <time>2026-07-08T13:24:49.000Z</time>
      </trkpt>
      <trkpt lat="47.04248" lon="16.10163">
        <ele>278.729514</ele>
        <time>2026-07-08T13:24:50.000Z</time>
      </trkpt>
      <trkpt lat="47.04245" lon="16.10168">
        <ele>278.729474</ele>
        <time>2026-07-08T13:24:51.000Z</time>
      </trkpt>
      <trkpt lat="47.04243" lon="16.10174">
        <ele>278.729437</ele>
        <time>2026-07-08T13:24:52.000Z</time>
      </trkpt>
      <trkpt lat="47.04241" lon="16.10179">
        <ele>278.729399</ele>
        <time>2026-07-08T13:24:53.000Z</time>
      </trkpt>
      <trkpt lat="47.04238" lon="16.10185">
        <ele>278.729359</ele>
        <time>2026-07-08T13:24:54.000Z</time>
      </trkpt>
      <trkpt lat="47.04236" lon="16.1019">
        <ele>278.729321</ele>
        <time>2026-07-08T13:24:55.000Z</time>
      </trkpt>
      <trkpt lat="47.04233" lon="16.10196">
        <ele>278.729281</ele>
        <time>2026-07-08T13:24:56.000Z</time>
      </trkpt>
      <trkpt lat="47.0423" lon="16.10201">
        <ele>278.747987</ele>
        <time>2026-07-08T13:24:57.000Z</time>
      </trkpt>
      <trkpt lat="47.04227" lon="16.10207">
        <ele>278.804192</ele>
        <time>2026-07-08T13:24:58.000Z</time>
      </trkpt>
      <trkpt lat="47.04224" lon="16.10212">
        <ele>278.861775</ele>
        <time>2026-07-08T13:24:59.000Z</time>
      </trkpt>
      <trkpt lat="47.04222" lon="16.10218">
        <ele>278.916576</ele>
        <time>2026-07-08T13:25:00.000Z</time>
      </trkpt>
      <trkpt lat="47.04219" lon="16.10224">
        <ele>278.972071</ele>
        <time>2026-07-08T13:25:01.000Z</time>
      </trkpt>
      <trkpt lat="47.04217" lon="16.10229">
        <ele>279.026925</ele>
        <time>2026-07-08T13:25:02.000Z</time>
      </trkpt>
      <trkpt lat="47.04215" lon="16.10235">
        <ele>279.079255</ele>
        <time>2026-07-08T13:25:03.000Z</time>
      </trkpt>
      <trkpt lat="47.04213" lon="16.10241">
        <ele>279.133204</ele>
        <time>2026-07-08T13:25:04.000Z</time>
      </trkpt>
      <trkpt lat="47.04211" lon="16.10246">
        <ele>279.184241</ele>
        <time>2026-07-08T13:25:05.000Z</time>
      </trkpt>
      <trkpt lat="47.04209" lon="16.10252">
        <ele>279.234431</ele>
        <time>2026-07-08T13:25:06.000Z</time>
      </trkpt>
      <trkpt lat="47.04208" lon="16.10258">
        <ele>279.284839</ele>
        <time>2026-07-08T13:25:07.000Z</time>
      </trkpt>
      <trkpt lat="47.04207" lon="16.10264">
        <ele>279.33382</ele>
        <time>2026-07-08T13:25:08.000Z</time>
      </trkpt>
      <trkpt lat="47.04206" lon="16.10269">
        <ele>279.383108</ele>
        <time>2026-07-08T13:25:09.000Z</time>
      </trkpt>
      <trkpt lat="47.04204" lon="16.10275">
        <ele>279.431175</ele>
        <time>2026-07-08T13:25:10.000Z</time>
      </trkpt>
      <trkpt lat="47.04202" lon="16.10279">
        <ele>279.475827</ele>
        <time>2026-07-08T13:25:11.000Z</time>
      </trkpt>
      <trkpt lat="47.04199" lon="16.10282">
        <ele>279.518985</ele>
        <time>2026-07-08T13:25:12.000Z</time>
      </trkpt>
      <trkpt lat="47.04196" lon="16.10283">
        <ele>279.560813</ele>
        <time>2026-07-08T13:25:13.000Z</time>
      </trkpt>
      <trkpt lat="47.04193" lon="16.10283">
        <ele>279.600669</ele>
        <time>2026-07-08T13:25:14.000Z</time>
      </trkpt>
      <trkpt lat="47.04189" lon="16.10282">
        <ele>279.639975</ele>
        <time>2026-07-08T13:25:15.000Z</time>
      </trkpt>
      <trkpt lat="47.04186" lon="16.10281">
        <ele>279.677555</ele>
        <time>2026-07-08T13:25:16.000Z</time>
      </trkpt>
      <trkpt lat="47.04183" lon="16.10279">
        <ele>279.716072</ele>
        <time>2026-07-08T13:25:17.000Z</time>
      </trkpt>
      <trkpt lat="47.0418" lon="16.10278">
        <ele>279.75186</ele>
        <time>2026-07-08T13:25:18.000Z</time>
      </trkpt>
      <trkpt lat="47.04177" lon="16.10278">
        <ele>279.788492</ele>
        <time>2026-07-08T13:25:19.000Z</time>
      </trkpt>
      <trkpt lat="47.04175" lon="16.10277">
        <ele>279.822379</ele>
        <time>2026-07-08T13:25:20.000Z</time>
      </trkpt>
      <trkpt lat="47.04172" lon="16.10277">
        <ele>279.854857</ele>
        <time>2026-07-08T13:25:21.000Z</time>
      </trkpt>
      <trkpt lat="47.04169" lon="16.10277">
        <ele>279.886093</ele>
        <time>2026-07-08T13:25:22.000Z</time>
      </trkpt>
      <trkpt lat="47.04167" lon="16.10277">
        <ele>279.918623</ele>
        <time>2026-07-08T13:25:23.000Z</time>
      </trkpt>
      <trkpt lat="47.04164" lon="16.10276">
        <ele>279.952301</ele>
        <time>2026-07-08T13:25:24.000Z</time>
      </trkpt>
      <trkpt lat="47.04161" lon="16.10276">
        <ele>279.987227</ele>
        <time>2026-07-08T13:25:25.000Z</time>
      </trkpt>
      <trkpt lat="47.04158" lon="16.10276">
        <ele>280.0235</ele>
        <time>2026-07-08T13:25:26.000Z</time>
      </trkpt>
      <trkpt lat="47.04155" lon="16.10275">
        <ele>280.060824</ele>
        <time>2026-07-08T13:25:27.000Z</time>
      </trkpt>
      <trkpt lat="47.04151" lon="16.10275">
        <ele>280.102071</ele>
        <time>2026-07-08T13:25:28.000Z</time>
      </trkpt>
      <trkpt lat="47.04148" lon="16.10274">
        <ele>280.141792</ele>
        <time>2026-07-08T13:25:29.000Z</time>
      </trkpt>
      <trkpt lat="47.04145" lon="16.10274">
        <ele>280.184039</ele>
        <time>2026-07-08T13:25:30.000Z</time>
      </trkpt>
      <trkpt lat="47.04141" lon="16.10274">
        <ele>280.226119</ele>
        <time>2026-07-08T13:25:31.000Z</time>
      </trkpt>
      <trkpt lat="47.04137" lon="16.10274">
        <ele>280.27057</ele>
        <time>2026-07-08T13:25:32.000Z</time>
      </trkpt>
      <trkpt lat="47.04134" lon="16.10274">
        <ele>280.316222</ele>
        <time>2026-07-08T13:25:33.000Z</time>
      </trkpt>
      <trkpt lat="47.0413" lon="16.10273">
        <ele>280.364305</ele>
        <time>2026-07-08T13:25:34.000Z</time>
      </trkpt>
      <trkpt lat="47.04126" lon="16.10274">
        <ele>280.412388</ele>
        <time>2026-07-08T13:25:35.000Z</time>
      </trkpt>
      <trkpt lat="47.04121" lon="16.10274">
        <ele>280.462872</ele>
        <time>2026-07-08T13:25:36.000Z</time>
      </trkpt>
      <trkpt lat="47.04117" lon="16.10274">
        <ele>280.510927</ele>
        <time>2026-07-08T13:25:37.000Z</time>
      </trkpt>
      <trkpt lat="47.04113" lon="16.10274">
        <ele>280.558982</ele>
        <time>2026-07-08T13:25:38.000Z</time>
      </trkpt>
      <trkpt lat="47.04109" lon="16.10274">
        <ele>280.607065</ele>
        <time>2026-07-08T13:25:39.000Z</time>
      </trkpt>
      <trkpt lat="47.04106" lon="16.10273">
        <ele>280.652747</ele>
        <time>2026-07-08T13:25:40.000Z</time>
      </trkpt>
      <trkpt lat="47.04102" lon="16.10273">
        <ele>280.697265</ele>
        <time>2026-07-08T13:25:41.000Z</time>
      </trkpt>
      <trkpt lat="47.04098" lon="16.10273">
        <ele>280.739313</ele>
        <time>2026-07-08T13:25:42.000Z</time>
      </trkpt>
      <trkpt lat="47.04095" lon="16.10274">
        <ele>280.78156</ele>
        <time>2026-07-08T13:25:43.000Z</time>
      </trkpt>
      <trkpt lat="47.04091" lon="16.10274">
        <ele>280.823807</ele>
        <time>2026-07-08T13:25:44.000Z</time>
      </trkpt>
      <trkpt lat="47.04088" lon="16.10274">
        <ele>280.863486</ele>
        <time>2026-07-08T13:25:45.000Z</time>
      </trkpt>
      <trkpt lat="47.04085" lon="16.10274">
        <ele>280.908406</ele>
        <time>2026-07-08T13:25:46.000Z</time>
      </trkpt>
      <trkpt lat="47.04081" lon="16.10274">
        <ele>280.96576</ele>
        <time>2026-07-08T13:25:47.000Z</time>
      </trkpt>
      <trkpt lat="47.04078" lon="16.10274">
        <ele>281.018243</ele>
        <time>2026-07-08T13:25:48.000Z</time>
      </trkpt>
      <trkpt lat="47.04075" lon="16.10273">
        <ele>281.069164</ele>
        <time>2026-07-08T13:25:49.000Z</time>
      </trkpt>
      <trkpt lat="47.04072" lon="16.10273">
        <ele>281.120085</ele>
        <time>2026-07-08T13:25:50.000Z</time>
      </trkpt>
      <trkpt lat="47.04069" lon="16.10272">
        <ele>281.171509</ele>
        <time>2026-07-08T13:25:51.000Z</time>
      </trkpt>
      <trkpt lat="47.04066" lon="16.10271">
        <ele>281.226256</ele>
        <time>2026-07-08T13:25:52.000Z</time>
      </trkpt>
      <trkpt lat="47.04063" lon="16.10271">
        <ele>281.280821</ele>
        <time>2026-07-08T13:25:53.000Z</time>
      </trkpt>
      <trkpt lat="47.0406" lon="16.1027">
        <ele>281.333905</ele>
        <time>2026-07-08T13:25:54.000Z</time>
      </trkpt>
      <trkpt lat="47.04057" lon="16.10269">
        <ele>281.389084</ele>
        <time>2026-07-08T13:25:55.000Z</time>
      </trkpt>
      <trkpt lat="47.04053" lon="16.10268">
        <ele>281.445914</ele>
        <time>2026-07-08T13:25:56.000Z</time>
      </trkpt>
      <trkpt lat="47.0405" lon="16.10267">
        <ele>281.501092</ele>
        <time>2026-07-08T13:25:57.000Z</time>
      </trkpt>
      <trkpt lat="47.04047" lon="16.10266">
        <ele>281.556796</ele>
        <time>2026-07-08T13:25:58.000Z</time>
      </trkpt>
      <trkpt lat="47.04044" lon="16.10264">
        <ele>281.614421</ele>
        <time>2026-07-08T13:25:59.000Z</time>
      </trkpt>
      <trkpt lat="47.0404" lon="16.10263">
        <ele>281.670738</ele>
        <time>2026-07-08T13:26:00.000Z</time>
      </trkpt>
      <trkpt lat="47.04037" lon="16.10261">
        <ele>281.729352</ele>
        <time>2026-07-08T13:26:01.000Z</time>
      </trkpt>
      <trkpt lat="47.04034" lon="16.1026">
        <ele>281.786008</ele>
        <time>2026-07-08T13:26:02.000Z</time>
      </trkpt>
      <trkpt lat="47.04031" lon="16.10258">
        <ele>281.841821</ele>
        <time>2026-07-08T13:26:03.000Z</time>
      </trkpt>
      <trkpt lat="47.04028" lon="16.10256">
        <ele>281.899218</ele>
        <time>2026-07-08T13:26:04.000Z</time>
      </trkpt>
      <trkpt lat="47.04024" lon="16.10254">
        <ele>281.959433</ele>
        <time>2026-07-08T13:26:05.000Z</time>
      </trkpt>
      <trkpt lat="47.04021" lon="16.10252">
        <ele>282.018093</ele>
        <time>2026-07-08T13:26:06.000Z</time>
      </trkpt>
      <trkpt lat="47.04018" lon="16.1025">
        <ele>282.078309</ele>
        <time>2026-07-08T13:26:07.000Z</time>
      </trkpt>
      <trkpt lat="47.04014" lon="16.10248">
        <ele>282.140523</ele>
        <time>2026-07-08T13:26:08.000Z</time>
      </trkpt>
      <trkpt lat="47.04011" lon="16.10246">
        <ele>282.205678</ele>
        <time>2026-07-08T13:26:09.000Z</time>
      </trkpt>
      <trkpt lat="47.04007" lon="16.10244">
        <ele>282.270355</ele>
        <time>2026-07-08T13:26:10.000Z</time>
      </trkpt>
      <trkpt lat="47.04004" lon="16.10241">
        <ele>282.335033</ele>
        <time>2026-07-08T13:26:11.000Z</time>
      </trkpt>
      <trkpt lat="47.04" lon="16.10239">
        <ele>282.400683</ele>
        <time>2026-07-08T13:26:12.000Z</time>
      </trkpt>
      <trkpt lat="47.03997" lon="16.10236">
        <ele>282.463317</ele>
        <time>2026-07-08T13:26:13.000Z</time>
      </trkpt>
      <trkpt lat="47.03994" lon="16.10234">
        <ele>282.528968</ele>
        <time>2026-07-08T13:26:14.000Z</time>
      </trkpt>
      <trkpt lat="47.0399" lon="16.10231">
        <ele>282.591602</ele>
        <time>2026-07-08T13:26:15.000Z</time>
      </trkpt>
      <trkpt lat="47.03987" lon="16.10229">
        <ele>282.658291</ele>
        <time>2026-07-08T13:26:16.000Z</time>
      </trkpt>
      <trkpt lat="47.03983" lon="16.10226">
        <ele>282.723941</ele>
        <time>2026-07-08T13:26:17.000Z</time>
      </trkpt>
      <trkpt lat="47.0398" lon="16.10224">
        <ele>282.789591</ele>
        <time>2026-07-08T13:26:18.000Z</time>
      </trkpt>
      <trkpt lat="47.03976" lon="16.10221">
        <ele>282.854791</ele>
        <time>2026-07-08T13:26:19.000Z</time>
      </trkpt>
      <trkpt lat="47.03973" lon="16.10219">
        <ele>282.919469</ele>
        <time>2026-07-08T13:26:20.000Z</time>
      </trkpt>
      <trkpt lat="47.03969" lon="16.10216">
        <ele>282.984146</ele>
        <time>2026-07-08T13:26:21.000Z</time>
      </trkpt>
      <trkpt lat="47.03966" lon="16.10214">
        <ele>283.049301</ele>
        <time>2026-07-08T13:26:22.000Z</time>
      </trkpt>
      <trkpt lat="47.03962" lon="16.10211">
        <ele>283.114951</ele>
        <time>2026-07-08T13:26:23.000Z</time>
      </trkpt>
      <trkpt lat="47.03959" lon="16.10209">
        <ele>283.178122</ele>
        <time>2026-07-08T13:26:24.000Z</time>
      </trkpt>
      <trkpt lat="47.03956" lon="16.10206">
        <ele>283.24481</ele>
        <time>2026-07-08T13:26:25.000Z</time>
      </trkpt>
      <trkpt lat="47.03952" lon="16.10203">
        <ele>283.314502</ele>
        <time>2026-07-08T13:26:26.000Z</time>
      </trkpt>
      <trkpt lat="47.03948" lon="16.10201">
        <ele>283.381733</ele>
        <time>2026-07-08T13:26:27.000Z</time>
      </trkpt>
      <trkpt lat="47.03945" lon="16.10198">
        <ele>283.447383</ele>
        <time>2026-07-08T13:26:28.000Z</time>
      </trkpt>
      <trkpt lat="47.03941" lon="16.10196">
        <ele>283.510729</ele>
        <time>2026-07-08T13:26:29.000Z</time>
      </trkpt>
      <trkpt lat="47.03938" lon="16.10194">
        <ele>283.574075</ele>
        <time>2026-07-08T13:26:30.000Z</time>
      </trkpt>
      <trkpt lat="47.03935" lon="16.10192">
        <ele>283.634291</ele>
        <time>2026-07-08T13:26:31.000Z</time>
      </trkpt>
      <trkpt lat="47.03932" lon="16.1019">
        <ele>283.690853</ele>
        <time>2026-07-08T13:26:32.000Z</time>
      </trkpt>
      <trkpt lat="47.03929" lon="16.10188">
        <ele>283.743887</ele>
        <time>2026-07-08T13:26:33.000Z</time>
      </trkpt>
      <trkpt lat="47.03926" lon="16.10186">
        <ele>283.795972</ele>
        <time>2026-07-08T13:26:34.000Z</time>
      </trkpt>
      <trkpt lat="47.03923" lon="16.10184">
        <ele>283.846981</ele>
        <time>2026-07-08T13:26:35.000Z</time>
      </trkpt>
      <trkpt lat="47.03921" lon="16.10182">
        <ele>283.896177</ele>
        <time>2026-07-08T13:26:36.000Z</time>
      </trkpt>
      <trkpt lat="47.03918" lon="16.10182">
        <ele>283.918932</ele>
        <time>2026-07-08T13:26:37.000Z</time>
      </trkpt>
      <trkpt lat="47.03915" lon="16.10184">
        <ele>283.906589</ele>
        <time>2026-07-08T13:26:38.000Z</time>
      </trkpt>
      <trkpt lat="47.03911" lon="16.10186">
        <ele>283.892228</ele>
        <time>2026-07-08T13:26:39.000Z</time>
      </trkpt>
      <trkpt lat="47.03908" lon="16.10188">
        <ele>283.877403</ele>
        <time>2026-07-08T13:26:40.000Z</time>
      </trkpt>
      <trkpt lat="47.03904" lon="16.10191">
        <ele>283.861552</ele>
        <time>2026-07-08T13:26:41.000Z</time>
      </trkpt>
      <trkpt lat="47.039" lon="16.10193">
        <ele>283.844529</ele>
        <time>2026-07-08T13:26:42.000Z</time>
      </trkpt>
      <trkpt lat="47.03897" lon="16.10197">
        <ele>283.827352</ele>
        <time>2026-07-08T13:26:43.000Z</time>
      </trkpt>
      <trkpt lat="47.03893" lon="16.102">
        <ele>283.809093</ele>
        <time>2026-07-08T13:26:44.000Z</time>
      </trkpt>
      <trkpt lat="47.03889" lon="16.10204">
        <ele>283.790757</ele>
        <time>2026-07-08T13:26:45.000Z</time>
      </trkpt>
      <trkpt lat="47.03885" lon="16.10208">
        <ele>283.772102</ele>
        <time>2026-07-08T13:26:46.000Z</time>
      </trkpt>
      <trkpt lat="47.03881" lon="16.10212">
        <ele>283.752818</ele>
        <time>2026-07-08T13:26:47.000Z</time>
      </trkpt>
      <trkpt lat="47.03877" lon="16.10216">
        <ele>283.733688</ele>
        <time>2026-07-08T13:26:48.000Z</time>
      </trkpt>
      <trkpt lat="47.03873" lon="16.10221">
        <ele>283.714404</ele>
        <time>2026-07-08T13:26:49.000Z</time>
      </trkpt>
      <trkpt lat="47.03869" lon="16.10225">
        <ele>283.69512</ele>
        <time>2026-07-08T13:26:50.000Z</time>
      </trkpt>
      <trkpt lat="47.03865" lon="16.10229">
        <ele>283.675667</ele>
        <time>2026-07-08T13:26:51.000Z</time>
      </trkpt>
      <trkpt lat="47.03861" lon="16.10233">
        <ele>283.655278</ele>
        <time>2026-07-08T13:26:52.000Z</time>
      </trkpt>
      <trkpt lat="47.03856" lon="16.10237">
        <ele>283.635317</ele>
        <time>2026-07-08T13:26:53.000Z</time>
      </trkpt>
      <trkpt lat="47.03852" lon="16.10242">
        <ele>283.614441</ele>
        <time>2026-07-08T13:26:54.000Z</time>
      </trkpt>
      <trkpt lat="47.03848" lon="16.10246">
        <ele>283.593734</ele>
        <time>2026-07-08T13:26:55.000Z</time>
      </trkpt>
      <trkpt lat="47.03843" lon="16.10251">
        <ele>283.572871</ele>
        <time>2026-07-08T13:26:56.000Z</time>
      </trkpt>
      <trkpt lat="47.03839" lon="16.10255">
        <ele>283.551843</ele>
        <time>2026-07-08T13:26:57.000Z</time>
      </trkpt>
      <trkpt lat="47.03834" lon="16.1026">
        <ele>283.530493</ele>
        <time>2026-07-08T13:26:58.000Z</time>
      </trkpt>
      <trkpt lat="47.0383" lon="16.10265">
        <ele>283.509471</ele>
        <time>2026-07-08T13:26:59.000Z</time>
      </trkpt>
      <trkpt lat="47.03826" lon="16.10269">
        <ele>283.487815</ele>
        <time>2026-07-08T13:27:00.000Z</time>
      </trkpt>
      <trkpt lat="47.03821" lon="16.10274">
        <ele>283.466465</ele>
        <time>2026-07-08T13:27:01.000Z</time>
      </trkpt>
      <trkpt lat="47.03817" lon="16.10278">
        <ele>283.445114</ele>
        <time>2026-07-08T13:27:02.000Z</time>
      </trkpt>
      <trkpt lat="47.03812" lon="16.10283">
        <ele>283.423612</ele>
        <time>2026-07-08T13:27:03.000Z</time>
      </trkpt>
      <trkpt lat="47.03808" lon="16.10288">
        <ele>283.401642</ele>
        <time>2026-07-08T13:27:04.000Z</time>
      </trkpt>
      <trkpt lat="47.03803" lon="16.10292">
        <ele>283.379492</ele>
        <time>2026-07-08T13:27:05.000Z</time>
      </trkpt>
      <trkpt lat="47.03798" lon="16.10297">
        <ele>283.357836</ele>
        <time>2026-07-08T13:27:06.000Z</time>
      </trkpt>
      <trkpt lat="47.03794" lon="16.10302">
        <ele>283.336024</ele>
        <time>2026-07-08T13:27:07.000Z</time>
      </trkpt>
      <trkpt lat="47.03789" lon="16.10306">
        <ele>283.314349</ele>
        <time>2026-07-08T13:27:08.000Z</time>
      </trkpt>
      <trkpt lat="47.03785" lon="16.10311">
        <ele>283.292998</ele>
        <time>2026-07-08T13:27:09.000Z</time>
      </trkpt>
      <trkpt lat="47.0378" lon="16.10315">
        <ele>283.270995</ele>
        <time>2026-07-08T13:27:10.000Z</time>
      </trkpt>
      <trkpt lat="47.03776" lon="16.1032">
        <ele>283.249645</ele>
        <time>2026-07-08T13:27:11.000Z</time>
      </trkpt>
      <trkpt lat="47.03771" lon="16.10325">
        <ele>283.227989</ele>
        <time>2026-07-08T13:27:12.000Z</time>
      </trkpt>
      <trkpt lat="47.03766" lon="16.10329">
        <ele>283.196419</ele>
        <time>2026-07-08T13:27:13.000Z</time>
      </trkpt>
      <trkpt lat="47.03762" lon="16.10334">
        <ele>283.158831</ele>
        <time>2026-07-08T13:27:14.000Z</time>
      </trkpt>
      <trkpt lat="47.03757" lon="16.10339">
        <ele>283.119868</ele>
        <time>2026-07-08T13:27:15.000Z</time>
      </trkpt>
      <trkpt lat="47.03752" lon="16.10344">
        <ele>283.080383</ele>
        <time>2026-07-08T13:27:16.000Z</time>
      </trkpt>
      <trkpt lat="47.03747" lon="16.10349">
        <ele>283.040349</ele>
        <time>2026-07-08T13:27:17.000Z</time>
      </trkpt>
      <trkpt lat="47.03743" lon="16.10354">
        <ele>283.00195</ele>
        <time>2026-07-08T13:27:18.000Z</time>
      </trkpt>
      <trkpt lat="47.03738" lon="16.10359">
        <ele>282.961917</ele>
        <time>2026-07-08T13:27:19.000Z</time>
      </trkpt>
      <trkpt lat="47.03733" lon="16.10364">
        <ele>282.924055</ele>
        <time>2026-07-08T13:27:20.000Z</time>
      </trkpt>
      <trkpt lat="47.03728" lon="16.10369">
        <ele>282.883492</ele>
        <time>2026-07-08T13:27:21.000Z</time>
      </trkpt>
      <trkpt lat="47.03724" lon="16.10374">
        <ele>282.844007</ele>
        <time>2026-07-08T13:27:22.000Z</time>
      </trkpt>
      <trkpt lat="47.03719" lon="16.10379">
        <ele>282.80342</ele>
        <time>2026-07-08T13:27:23.000Z</time>
      </trkpt>
      <trkpt lat="47.03714" lon="16.10384">
        <ele>282.763342</ele>
        <time>2026-07-08T13:27:24.000Z</time>
      </trkpt>
      <trkpt lat="47.03709" lon="16.10389">
        <ele>282.72332</ele>
        <time>2026-07-08T13:27:25.000Z</time>
      </trkpt>
      <trkpt lat="47.03704" lon="16.10394">
        <ele>282.683286</ele>
        <time>2026-07-08T13:27:26.000Z</time>
      </trkpt>
      <trkpt lat="47.03699" lon="16.10399">
        <ele>282.642178</ele>
        <time>2026-07-08T13:27:27.000Z</time>
      </trkpt>
      <trkpt lat="47.03694" lon="16.10404">
        <ele>282.602426</ele>
        <time>2026-07-08T13:27:28.000Z</time>
      </trkpt>
      <trkpt lat="47.03689" lon="16.1041">
        <ele>282.561855</ele>
        <time>2026-07-08T13:27:29.000Z</time>
      </trkpt>
      <trkpt lat="47.03684" lon="16.10415">
        <ele>282.519939</ele>
        <time>2026-07-08T13:27:30.000Z</time>
      </trkpt>
      <trkpt lat="47.03679" lon="16.10421">
        <ele>282.478564</ele>
        <time>2026-07-08T13:27:31.000Z</time>
      </trkpt>
      <trkpt lat="47.03674" lon="16.10426">
        <ele>282.43719</ele>
        <time>2026-07-08T13:27:32.000Z</time>
      </trkpt>
      <trkpt lat="47.03669" lon="16.10431">
        <ele>282.39498</ele>
        <time>2026-07-08T13:27:33.000Z</time>
      </trkpt>
      <trkpt lat="47.03664" lon="16.10436">
        <ele>282.353605</ele>
        <time>2026-07-08T13:27:34.000Z</time>
      </trkpt>
      <trkpt lat="47.03659" lon="16.10442">
        <ele>282.312497</ele>
        <time>2026-07-08T13:27:35.000Z</time>
      </trkpt>
      <trkpt lat="47.03654" lon="16.10447">
        <ele>282.270287</ele>
        <time>2026-07-08T13:27:36.000Z</time>
      </trkpt>
      <trkpt lat="47.03649" lon="16.10452">
        <ele>282.229144</ele>
        <time>2026-07-08T13:27:37.000Z</time>
      </trkpt>
      <trkpt lat="47.03644" lon="16.10457">
        <ele>282.187442</ele>
        <time>2026-07-08T13:27:38.000Z</time>
      </trkpt>
      <trkpt lat="47.03639" lon="16.10462">
        <ele>282.146856</ele>
        <time>2026-07-08T13:27:39.000Z</time>
      </trkpt>
      <trkpt lat="47.03634" lon="16.10467">
        <ele>282.106269</ele>
        <time>2026-07-08T13:27:40.000Z</time>
      </trkpt>
      <trkpt lat="47.03629" lon="16.10472">
        <ele>282.065682</ele>
        <time>2026-07-08T13:27:41.000Z</time>
      </trkpt>
      <trkpt lat="47.03623" lon="16.10477">
        <ele>282.02398</ele>
        <time>2026-07-08T13:27:42.000Z</time>
      </trkpt>
      <trkpt lat="47.03618" lon="16.10482">
        <ele>281.983886</ele>
        <time>2026-07-08T13:27:43.000Z</time>
      </trkpt>
      <trkpt lat="47.03613" lon="16.10487">
        <ele>281.943689</ele>
        <time>2026-07-08T13:27:44.000Z</time>
      </trkpt>
      <trkpt lat="47.03608" lon="16.10492">
        <ele>281.904318</ele>
        <time>2026-07-08T13:27:45.000Z</time>
      </trkpt>
      <trkpt lat="47.03603" lon="16.10497">
        <ele>281.863128</ele>
        <time>2026-07-08T13:27:46.000Z</time>
      </trkpt>
      <trkpt lat="47.03598" lon="16.10502">
        <ele>281.823756</ele>
        <time>2026-07-08T13:27:47.000Z</time>
      </trkpt>
      <trkpt lat="47.03593" lon="16.10508">
        <ele>281.783602</ele>
        <time>2026-07-08T13:27:48.000Z</time>
      </trkpt>
      <trkpt lat="47.03588" lon="16.10513">
        <ele>281.743405</ele>
        <time>2026-07-08T13:27:49.000Z</time>
      </trkpt>
      <trkpt lat="47.03582" lon="16.10518">
        <ele>281.703208</ele>
        <time>2026-07-08T13:27:50.000Z</time>
      </trkpt>
      <trkpt lat="47.03577" lon="16.10522">
        <ele>281.662938</ele>
        <time>2026-07-08T13:27:51.000Z</time>
      </trkpt>
      <trkpt lat="47.03572" lon="16.10527">
        <ele>281.622741</ele>
        <time>2026-07-08T13:27:52.000Z</time>
      </trkpt>
      <trkpt lat="47.03567" lon="16.10532">
        <ele>281.583326</ele>
        <time>2026-07-08T13:27:53.000Z</time>
      </trkpt>
      <trkpt lat="47.03562" lon="16.10537">
        <ele>281.544204</ele>
        <time>2026-07-08T13:27:54.000Z</time>
      </trkpt>
      <trkpt lat="47.03557" lon="16.10542">
        <ele>281.504483</ele>
        <time>2026-07-08T13:27:55.000Z</time>
      </trkpt>
      <trkpt lat="47.03552" lon="16.10547">
        <ele>281.465361</ele>
        <time>2026-07-08T13:27:56.000Z</time>
      </trkpt>
      <trkpt lat="47.03547" lon="16.10552">
        <ele>281.425736</ele>
        <time>2026-07-08T13:27:57.000Z</time>
      </trkpt>
      <trkpt lat="47.03542" lon="16.10557">
        <ele>281.387104</ele>
        <time>2026-07-08T13:27:58.000Z</time>
      </trkpt>
      <trkpt lat="47.03537" lon="16.10562">
        <ele>281.348471</ele>
        <time>2026-07-08T13:27:59.000Z</time>
      </trkpt>
      <trkpt lat="47.03532" lon="16.10567">
        <ele>281.309595</ele>
        <time>2026-07-08T13:28:00.000Z</time>
      </trkpt>
      <trkpt lat="47.03527" lon="16.10572">
        <ele>281.270473</ele>
        <time>2026-07-08T13:28:01.000Z</time>
      </trkpt>
      <trkpt lat="47.03522" lon="16.10576">
        <ele>281.233644</ele>
        <time>2026-07-08T13:28:02.000Z</time>
      </trkpt>
      <trkpt lat="47.03517" lon="16.10581">
        <ele>281.196033</ele>
        <time>2026-07-08T13:28:03.000Z</time>
      </trkpt>
      <trkpt lat="47.03512" lon="16.10585">
        <ele>281.160287</ele>
        <time>2026-07-08T13:28:04.000Z</time>
      </trkpt>
      <trkpt lat="47.03508" lon="16.1059">
        <ele>281.124001</ele>
        <time>2026-07-08T13:28:05.000Z</time>
      </trkpt>
      <trkpt lat="47.03503" lon="16.10594">
        <ele>281.087172</ele>
        <time>2026-07-08T13:28:06.000Z</time>
      </trkpt>
      <trkpt lat="47.03498" lon="16.10598">
        <ele>281.052042</ele>
        <time>2026-07-08T13:28:07.000Z</time>
      </trkpt>
      <trkpt lat="47.03493" lon="16.10602">
        <ele>281.014081</ele>
        <time>2026-07-08T13:28:08.000Z</time>
      </trkpt>
      <trkpt lat="47.03488" lon="16.10606">
        <ele>280.977296</ele>
        <time>2026-07-08T13:28:09.000Z</time>
      </trkpt>
      <trkpt lat="47.03482" lon="16.1061">
        <ele>280.938176</ele>
        <time>2026-07-08T13:28:10.000Z</time>
      </trkpt>
      <trkpt lat="47.03477" lon="16.10613">
        <ele>280.900007</ele>
        <time>2026-07-08T13:28:11.000Z</time>
      </trkpt>
      <trkpt lat="47.03471" lon="16.10617">
        <ele>280.861588</ele>
        <time>2026-07-08T13:28:12.000Z</time>
      </trkpt>
      <trkpt lat="47.03466" lon="16.1062">
        <ele>280.826247</ele>
        <time>2026-07-08T13:28:13.000Z</time>
      </trkpt>
      <trkpt lat="47.0346" lon="16.10623">
        <ele>280.792547</ele>
        <time>2026-07-08T13:28:14.000Z</time>
      </trkpt>
      <trkpt lat="47.03455" lon="16.10626">
        <ele>280.759621</ele>
        <time>2026-07-08T13:28:15.000Z</time>
      </trkpt>
      <trkpt lat="47.03449" lon="16.10629">
        <ele>280.726553</ele>
        <time>2026-07-08T13:28:16.000Z</time>
      </trkpt>
      <trkpt lat="47.03444" lon="16.10633">
        <ele>280.694658</ele>
        <time>2026-07-08T13:28:17.000Z</time>
      </trkpt>
      <trkpt lat="47.03438" lon="16.10636">
        <ele>280.662004</ele>
        <time>2026-07-08T13:28:18.000Z</time>
      </trkpt>
      <trkpt lat="47.03433" lon="16.10639">
        <ele>280.62935</ele>
        <time>2026-07-08T13:28:19.000Z</time>
      </trkpt>
      <trkpt lat="47.03427" lon="16.10641">
        <ele>280.595898</ele>
        <time>2026-07-08T13:28:20.000Z</time>
      </trkpt>
      <trkpt lat="47.03422" lon="16.10644">
        <ele>280.563374</ele>
        <time>2026-07-08T13:28:21.000Z</time>
      </trkpt>
      <trkpt lat="47.03416" lon="16.10647">
        <ele>280.530585</ele>
        <time>2026-07-08T13:28:22.000Z</time>
      </trkpt>
      <trkpt lat="47.0341" lon="16.1065">
        <ele>280.497012</ele>
        <time>2026-07-08T13:28:23.000Z</time>
      </trkpt>
      <trkpt lat="47.03405" lon="16.10653">
        <ele>280.464088</ele>
        <time>2026-07-08T13:28:24.000Z</time>
      </trkpt>
      <trkpt lat="47.03399" lon="16.10656">
        <ele>280.43098</ele>
        <time>2026-07-08T13:28:25.000Z</time>
      </trkpt>
      <trkpt lat="47.03393" lon="16.10658">
        <ele>280.398081</ele>
        <time>2026-07-08T13:28:26.000Z</time>
      </trkpt>
      <trkpt lat="47.03388" lon="16.1066">
        <ele>280.364743</ele>
        <time>2026-07-08T13:28:27.000Z</time>
      </trkpt>
      <trkpt lat="47.03382" lon="16.10662">
        <ele>280.332373</ele>
        <time>2026-07-08T13:28:28.000Z</time>
      </trkpt>
      <trkpt lat="47.03376" lon="16.10663">
        <ele>280.299599</ele>
        <time>2026-07-08T13:28:29.000Z</time>
      </trkpt>
      <trkpt lat="47.0337" lon="16.10665">
        <ele>280.266947</ele>
        <time>2026-07-08T13:28:30.000Z</time>
      </trkpt>
      <trkpt lat="47.03364" lon="16.10666">
        <ele>280.233895</ele>
        <time>2026-07-08T13:28:31.000Z</time>
      </trkpt>
      <trkpt lat="47.03359" lon="16.10666">
        <ele>280.201475</ele>
        <time>2026-07-08T13:28:32.000Z</time>
      </trkpt>
      <trkpt lat="47.03353" lon="16.10667">
        <ele>280.169718</ele>
        <time>2026-07-08T13:28:33.000Z</time>
      </trkpt>
      <trkpt lat="47.03347" lon="16.10667">
        <ele>280.138554</ele>
        <time>2026-07-08T13:28:34.000Z</time>
      </trkpt>
      <trkpt lat="47.03342" lon="16.10667">
        <ele>280.107944</ele>
        <time>2026-07-08T13:28:35.000Z</time>
      </trkpt>
      <trkpt lat="47.03336" lon="16.10667">
        <ele>280.075101</ele>
        <time>2026-07-08T13:28:36.000Z</time>
      </trkpt>
      <trkpt lat="47.0333" lon="16.10667">
        <ele>280.042815</ele>
        <time>2026-07-08T13:28:37.000Z</time>
      </trkpt>
      <trkpt lat="47.03324" lon="16.10667">
        <ele>280.011092</ele>
        <time>2026-07-08T13:28:38.000Z</time>
      </trkpt>
      <trkpt lat="47.03319" lon="16.10667">
        <ele>279.978815</ele>
        <time>2026-07-08T13:28:39.000Z</time>
      </trkpt>
      <trkpt lat="47.03313" lon="16.10668">
        <ele>279.946502</ele>
        <time>2026-07-08T13:28:40.000Z</time>
      </trkpt>
      <trkpt lat="47.03307" lon="16.10668">
        <ele>279.913613</ele>
        <time>2026-07-08T13:28:41.000Z</time>
      </trkpt>
      <trkpt lat="47.03301" lon="16.10669">
        <ele>279.881256</ele>
        <time>2026-07-08T13:28:42.000Z</time>
      </trkpt>
      <trkpt lat="47.03295" lon="16.1067">
        <ele>279.849352</ele>
        <time>2026-07-08T13:28:43.000Z</time>
      </trkpt>
      <trkpt lat="47.0329" lon="16.10671">
        <ele>279.850321</ele>
        <time>2026-07-08T13:28:44.000Z</time>
      </trkpt>
      <trkpt lat="47.03284" lon="16.10673">
        <ele>279.852753</ele>
        <time>2026-07-08T13:28:45.000Z</time>
      </trkpt>
      <trkpt lat="47.03279" lon="16.10674">
        <ele>279.855173</ele>
        <time>2026-07-08T13:28:46.000Z</time>
      </trkpt>
      <trkpt lat="47.03274" lon="16.10675">
        <ele>279.8574</ele>
        <time>2026-07-08T13:28:47.000Z</time>
      </trkpt>
      <trkpt lat="47.03269" lon="16.10676">
        <ele>279.859655</ele>
        <time>2026-07-08T13:28:48.000Z</time>
      </trkpt>
      <trkpt lat="47.03264" lon="16.10676">
        <ele>279.861745</ele>
        <time>2026-07-08T13:28:49.000Z</time>
      </trkpt>
      <trkpt lat="47.03259" lon="16.10678">
        <ele>279.863809</ele>
        <time>2026-07-08T13:28:50.000Z</time>
      </trkpt>
      <trkpt lat="47.03254" lon="16.10679">
        <ele>279.866002</ele>
        <time>2026-07-08T13:28:51.000Z</time>
      </trkpt>
      <trkpt lat="47.03249" lon="16.1068">
        <ele>279.868284</ele>
        <time>2026-07-08T13:28:52.000Z</time>
      </trkpt>
      <trkpt lat="47.03244" lon="16.10681">
        <ele>279.870609</ele>
        <time>2026-07-08T13:28:53.000Z</time>
      </trkpt>
      <trkpt lat="47.03238" lon="16.10683">
        <ele>279.872902</ele>
        <time>2026-07-08T13:28:54.000Z</time>
      </trkpt>
      <trkpt lat="47.03233" lon="16.10684">
        <ele>279.875323</ele>
        <time>2026-07-08T13:28:55.000Z</time>
      </trkpt>
      <trkpt lat="47.03228" lon="16.10686">
        <ele>279.87767</ele>
        <time>2026-07-08T13:28:56.000Z</time>
      </trkpt>
      <trkpt lat="47.03222" lon="16.10688">
        <ele>279.880103</ele>
        <time>2026-07-08T13:28:57.000Z</time>
      </trkpt>
      <trkpt lat="47.03216" lon="16.10689">
        <ele>279.882614</ele>
        <time>2026-07-08T13:28:58.000Z</time>
      </trkpt>
      <trkpt lat="47.03211" lon="16.10691">
        <ele>279.885077</ele>
        <time>2026-07-08T13:28:59.000Z</time>
      </trkpt>
      <trkpt lat="47.03205" lon="16.10692">
        <ele>279.887663</ele>
        <time>2026-07-08T13:29:00.000Z</time>
      </trkpt>
      <trkpt lat="47.03199" lon="16.10693">
        <ele>279.89027</ele>
        <time>2026-07-08T13:29:01.000Z</time>
      </trkpt>
      <trkpt lat="47.03193" lon="16.10693">
        <ele>279.892781</ele>
        <time>2026-07-08T13:29:02.000Z</time>
      </trkpt>
      <trkpt lat="47.03187" lon="16.10693">
        <ele>279.895291</ele>
        <time>2026-07-08T13:29:03.000Z</time>
      </trkpt>
      <trkpt lat="47.03181" lon="16.10693">
        <ele>279.897848</ele>
        <time>2026-07-08T13:29:04.000Z</time>
      </trkpt>
      <trkpt lat="47.03176" lon="16.10692">
        <ele>279.900297</ele>
        <time>2026-07-08T13:29:05.000Z</time>
      </trkpt>
      <trkpt lat="47.0317" lon="16.10689">
        <ele>279.902764</ele>
        <time>2026-07-08T13:29:06.000Z</time>
      </trkpt>
      <trkpt lat="47.03165" lon="16.10686">
        <ele>279.905273</ele>
        <time>2026-07-08T13:29:07.000Z</time>
      </trkpt>
      <trkpt lat="47.0316" lon="16.10683">
        <ele>279.907709</ele>
        <time>2026-07-08T13:29:08.000Z</time>
      </trkpt>
      <trkpt lat="47.03155" lon="16.10679">
        <ele>279.910159</ele>
        <time>2026-07-08T13:29:09.000Z</time>
      </trkpt>
      <trkpt lat="47.0315" lon="16.10675">
        <ele>279.912531</ele>
        <time>2026-07-08T13:29:10.000Z</time>
      </trkpt>
      <trkpt lat="47.03145" lon="16.10671">
        <ele>279.91498</ele>
        <time>2026-07-08T13:29:11.000Z</time>
      </trkpt>
      <trkpt lat="47.0314" lon="16.10667">
        <ele>279.917331</ele>
        <time>2026-07-08T13:29:12.000Z</time>
      </trkpt>
      <trkpt lat="47.03136" lon="16.10663">
        <ele>279.919587</ele>
        <time>2026-07-08T13:29:13.000Z</time>
      </trkpt>
      <trkpt lat="47.03131" lon="16.1066">
        <ele>279.921895</ele>
        <time>2026-07-08T13:29:14.000Z</time>
      </trkpt>
      <trkpt lat="47.03126" lon="16.10656">
        <ele>279.924203</ele>
        <time>2026-07-08T13:29:15.000Z</time>
      </trkpt>
      <trkpt lat="47.03122" lon="16.10652">
        <ele>279.969677</ele>
        <time>2026-07-08T13:29:16.000Z</time>
      </trkpt>
      <trkpt lat="47.03117" lon="16.10649">
        <ele>280.127712</ele>
        <time>2026-07-08T13:29:17.000Z</time>
      </trkpt>
      <trkpt lat="47.03113" lon="16.10645">
        <ele>280.277709</ele>
        <time>2026-07-08T13:29:18.000Z</time>
      </trkpt>
      <trkpt lat="47.03109" lon="16.10641">
        <ele>280.433675</ele>
        <time>2026-07-08T13:29:19.000Z</time>
      </trkpt>
      <trkpt lat="47.03105" lon="16.10638">
        <ele>280.577406</ele>
        <time>2026-07-08T13:29:20.000Z</time>
      </trkpt>
      <trkpt lat="47.03101" lon="16.10635">
        <ele>280.72488</ele>
        <time>2026-07-08T13:29:21.000Z</time>
      </trkpt>
      <trkpt lat="47.03096" lon="16.10631">
        <ele>280.877539</ele>
        <time>2026-07-08T13:29:22.000Z</time>
      </trkpt>
      <trkpt lat="47.03092" lon="16.10628">
        <ele>281.023265</ele>
        <time>2026-07-08T13:29:23.000Z</time>
      </trkpt>
      <trkpt lat="47.03088" lon="16.10625">
        <ele>281.16883</ele>
        <time>2026-07-08T13:29:24.000Z</time>
      </trkpt>
      <trkpt lat="47.03084" lon="16.10622">
        <ele>281.308818</ele>
        <time>2026-07-08T13:29:25.000Z</time>
      </trkpt>
      <trkpt lat="47.0308" lon="16.10619">
        <ele>281.445352</ele>
        <time>2026-07-08T13:29:26.000Z</time>
      </trkpt>
      <trkpt lat="47.03077" lon="16.10616">
        <ele>281.577085</ele>
        <time>2026-07-08T13:29:27.000Z</time>
      </trkpt>
      <trkpt lat="47.03073" lon="16.10613">
        <ele>281.715191</ele>
        <time>2026-07-08T13:29:28.000Z</time>
      </trkpt>
      <trkpt lat="47.03069" lon="16.1061">
        <ele>281.8477</ele>
        <time>2026-07-08T13:29:29.000Z</time>
      </trkpt>
      <trkpt lat="47.03065" lon="16.10607">
        <ele>281.974015</ele>
        <time>2026-07-08T13:29:30.000Z</time>
      </trkpt>
      <trkpt lat="47.03062" lon="16.10604">
        <ele>282.107855</ele>
        <time>2026-07-08T13:29:31.000Z</time>
      </trkpt>
      <trkpt lat="47.03058" lon="16.10601">
        <ele>282.234169</ele>
        <time>2026-07-08T13:29:32.000Z</time>
      </trkpt>
      <trkpt lat="47.03054" lon="16.10598">
        <ele>282.363901</ele>
        <time>2026-07-08T13:29:33.000Z</time>
      </trkpt>
      <trkpt lat="47.03051" lon="16.10596">
        <ele>282.481644</ele>
        <time>2026-07-08T13:29:34.000Z</time>
      </trkpt>
      <trkpt lat="47.03047" lon="16.10593">
        <ele>282.610416</ele>
        <time>2026-07-08T13:29:35.000Z</time>
      </trkpt>
      <trkpt lat="47.03044" lon="16.1059">
        <ele>282.732665</ele>
        <time>2026-07-08T13:29:36.000Z</time>
      </trkpt>
      <trkpt lat="47.0304" lon="16.10588">
        <ele>282.858655</ele>
        <time>2026-07-08T13:29:37.000Z</time>
      </trkpt>
      <trkpt lat="47.03037" lon="16.10585">
        <ele>282.985592</ele>
        <time>2026-07-08T13:29:38.000Z</time>
      </trkpt>
      <trkpt lat="47.03033" lon="16.10582">
        <ele>283.109818</ele>
        <time>2026-07-08T13:29:39.000Z</time>
      </trkpt>
      <trkpt lat="47.0303" lon="16.1058">
        <ele>283.231123</ele>
        <time>2026-07-08T13:29:40.000Z</time>
      </trkpt>
      <trkpt lat="47.03026" lon="16.10577">
        <ele>283.352428</ele>
        <time>2026-07-08T13:29:41.000Z</time>
      </trkpt>
      <trkpt lat="47.03023" lon="16.10574">
        <ele>283.477684</ele>
        <time>2026-07-08T13:29:42.000Z</time>
      </trkpt>
      <trkpt lat="47.03019" lon="16.10572">
        <ele>283.594408</ele>
        <time>2026-07-08T13:29:43.000Z</time>
      </trkpt>
      <trkpt lat="47.03016" lon="16.10569">
        <ele>283.721345</ele>
        <time>2026-07-08T13:29:44.000Z</time>
      </trkpt>
      <trkpt lat="47.03012" lon="16.10566">
        <ele>283.852064</ele>
        <time>2026-07-08T13:29:45.000Z</time>
      </trkpt>
      <trkpt lat="47.03008" lon="16.10564">
        <ele>283.979035</ele>
        <time>2026-07-08T13:29:46.000Z</time>
      </trkpt>
      <trkpt lat="47.03005" lon="16.10561">
        <ele>284.107808</ele>
        <time>2026-07-08T13:29:47.000Z</time>
      </trkpt>
      <trkpt lat="47.03001" lon="16.10558">
        <ele>284.2266</ele>
        <time>2026-07-08T13:29:48.000Z</time>
      </trkpt>
      <trkpt lat="47.02998" lon="16.10555">
        <ele>284.342705</ele>
        <time>2026-07-08T13:29:49.000Z</time>
      </trkpt>
      <trkpt lat="47.02995" lon="16.10552">
        <ele>284.461042</ele>
        <time>2026-07-08T13:29:50.000Z</time>
      </trkpt>
      <trkpt lat="47.02992" lon="16.1055">
        <ele>284.576775</ele>
        <time>2026-07-08T13:29:51.000Z</time>
      </trkpt>
      <trkpt lat="47.02988" lon="16.10547">
        <ele>284.692509</ele>
        <time>2026-07-08T13:29:52.000Z</time>
      </trkpt>
      <trkpt lat="47.02985" lon="16.10545">
        <ele>284.81102</ele>
        <time>2026-07-08T13:29:53.000Z</time>
      </trkpt>
      <trkpt lat="47.02982" lon="16.10542">
        <ele>284.923361</ele>
        <time>2026-07-08T13:29:54.000Z</time>
      </trkpt>
      <trkpt lat="47.02978" lon="16.1054">
        <ele>285.041872</ele>
        <time>2026-07-08T13:29:55.000Z</time>
      </trkpt>
      <trkpt lat="47.02975" lon="16.10538">
        <ele>285.1474</ele>
        <time>2026-07-08T13:29:56.000Z</time>
      </trkpt>
      <trkpt lat="47.02972" lon="16.10535">
        <ele>285.251913</ele>
        <time>2026-07-08T13:29:57.000Z</time>
      </trkpt>
      <trkpt lat="47.02969" lon="16.10533">
        <ele>285.359425</ele>
        <time>2026-07-08T13:29:58.000Z</time>
      </trkpt>
      <trkpt lat="47.02966" lon="16.1053">
        <ele>285.472399</ele>
        <time>2026-07-08T13:29:59.000Z</time>
      </trkpt>
      <trkpt lat="47.02963" lon="16.10528">
        <ele>285.579417</ele>
        <time>2026-07-08T13:30:00.000Z</time>
      </trkpt>
      <trkpt lat="47.0296" lon="16.10525">
        <ele>285.695389</ele>
        <time>2026-07-08T13:30:01.000Z</time>
      </trkpt>
      <trkpt lat="47.02958" lon="16.10523">
        <ele>285.803741</ele>
        <time>2026-07-08T13:30:02.000Z</time>
      </trkpt>
      <trkpt lat="47.02955" lon="16.1052">
        <ele>285.919117</ele>
        <time>2026-07-08T13:30:03.000Z</time>
      </trkpt>
      <trkpt lat="47.02952" lon="16.10518">
        <ele>286.033409</ele>
        <time>2026-07-08T13:30:04.000Z</time>
      </trkpt>
      <trkpt lat="47.02949" lon="16.10516">
        <ele>286.147701</ele>
        <time>2026-07-08T13:30:05.000Z</time>
      </trkpt>
      <trkpt lat="47.02946" lon="16.10514">
        <ele>286.254948</ele>
        <time>2026-07-08T13:30:06.000Z</time>
      </trkpt>
      <trkpt lat="47.02943" lon="16.10511">
        <ele>286.362751</ele>
        <time>2026-07-08T13:30:07.000Z</time>
      </trkpt>
      <trkpt lat="47.0294" lon="16.10509">
        <ele>286.470555</ele>
        <time>2026-07-08T13:30:08.000Z</time>
      </trkpt>
      <trkpt lat="47.02938" lon="16.10506">
        <ele>286.581229</ele>
        <time>2026-07-08T13:30:09.000Z</time>
      </trkpt>
      <trkpt lat="47.02935" lon="16.10504">
        <ele>286.697725</ele>
        <time>2026-07-08T13:30:10.000Z</time>
      </trkpt>
      <trkpt lat="47.02932" lon="16.10501">
        <ele>286.799881</ele>
        <time>2026-07-08T13:30:11.000Z</time>
      </trkpt>
      <trkpt lat="47.02929" lon="16.10499">
        <ele>286.908234</ele>
        <time>2026-07-08T13:30:12.000Z</time>
      </trkpt>
      <trkpt lat="47.02927" lon="16.10497">
        <ele>287.012516</ele>
        <time>2026-07-08T13:30:13.000Z</time>
      </trkpt>
      <trkpt lat="47.02924" lon="16.10494">
        <ele>287.119763</ele>
        <time>2026-07-08T13:30:14.000Z</time>
      </trkpt>
      <trkpt lat="47.02921" lon="16.10492">
        <ele>287.222947</ele>
        <time>2026-07-08T13:30:15.000Z</time>
      </trkpt>
      <trkpt lat="47.02918" lon="16.1049">
        <ele>287.329541</ele>
        <time>2026-07-08T13:30:16.000Z</time>
      </trkpt>
      <trkpt lat="47.02916" lon="16.10488">
        <ele>287.425687</ele>
        <time>2026-07-08T13:30:17.000Z</time>
      </trkpt>
      <trkpt lat="47.02913" lon="16.10486">
        <ele>287.525901</ele>
        <time>2026-07-08T13:30:18.000Z</time>
      </trkpt>
      <trkpt lat="47.02911" lon="16.10484">
        <ele>287.622048</ele>
        <time>2026-07-08T13:30:19.000Z</time>
      </trkpt>
      <trkpt lat="47.02908" lon="16.10482">
        <ele>287.717602</ele>
        <time>2026-07-08T13:30:20.000Z</time>
      </trkpt>
      <trkpt lat="47.02906" lon="16.1048">
        <ele>287.813749</ele>
        <time>2026-07-08T13:30:21.000Z</time>
      </trkpt>
      <trkpt lat="47.02903" lon="16.10478">
        <ele>287.910822</ele>
        <time>2026-07-08T13:30:22.000Z</time>
      </trkpt>
      <trkpt lat="47.02901" lon="16.10476">
        <ele>288.012948</ele>
        <time>2026-07-08T13:30:23.000Z</time>
      </trkpt>
      <trkpt lat="47.02898" lon="16.10474">
        <ele>288.111382</ele>
        <time>2026-07-08T13:30:24.000Z</time>
      </trkpt>
      <trkpt lat="47.02896" lon="16.10471">
        <ele>288.209816</ele>
        <time>2026-07-08T13:30:25.000Z</time>
      </trkpt>
      <trkpt lat="47.02893" lon="16.10469">
        <ele>288.305963</ele>
        <time>2026-07-08T13:30:26.000Z</time>
      </trkpt>
      <trkpt lat="47.0289" lon="16.10467">
        <ele>288.411382</ele>
        <time>2026-07-08T13:30:27.000Z</time>
      </trkpt>
      <trkpt lat="47.02888" lon="16.10465">
        <ele>288.510506</ele>
        <time>2026-07-08T13:30:28.000Z</time>
      </trkpt>
      <trkpt lat="47.02885" lon="16.10463">
        <ele>288.614789</ele>
        <time>2026-07-08T13:30:29.000Z</time>
      </trkpt>
      <trkpt lat="47.02883" lon="16.10461">
        <ele>288.710936</ele>
        <time>2026-07-08T13:30:30.000Z</time>
      </trkpt>
      <trkpt lat="47.0288" lon="16.10459">
        <ele>288.807083</ele>
        <time>2026-07-08T13:30:31.000Z</time>
      </trkpt>
      <trkpt lat="47.02877" lon="16.10457">
        <ele>288.910268</ele>
        <time>2026-07-08T13:30:32.000Z</time>
      </trkpt>
      <trkpt lat="47.02875" lon="16.10455">
        <ele>289.014433</ele>
        <time>2026-07-08T13:30:33.000Z</time>
      </trkpt>
      <trkpt lat="47.02872" lon="16.10453">
        <ele>289.123872</ele>
        <time>2026-07-08T13:30:34.000Z</time>
      </trkpt>
      <trkpt lat="47.02869" lon="16.10451">
        <ele>289.235135</ele>
        <time>2026-07-08T13:30:35.000Z</time>
      </trkpt>
      <trkpt lat="47.02866" lon="16.10449">
        <ele>289.343487</ele>
        <time>2026-07-08T13:30:36.000Z</time>
      </trkpt>
      <trkpt lat="47.02863" lon="16.10446">
        <ele>289.450081</ele>
        <time>2026-07-08T13:30:37.000Z</time>
      </trkpt>
      <trkpt lat="47.0286" lon="16.10444">
        <ele>289.552208</ele>
        <time>2026-07-08T13:30:38.000Z</time>
      </trkpt>
      <trkpt lat="47.02858" lon="16.10443">
        <ele>289.646238</ele>
        <time>2026-07-08T13:30:39.000Z</time>
      </trkpt>
      <trkpt lat="47.02855" lon="16.1044">
        <ele>289.747582</ele>
        <time>2026-07-08T13:30:40.000Z</time>
      </trkpt>
      <trkpt lat="47.02853" lon="16.10438">
        <ele>289.850767</ele>
        <time>2026-07-08T13:30:41.000Z</time>
      </trkpt>
      <trkpt lat="47.0285" lon="16.10436">
        <ele>289.952894</ele>
        <time>2026-07-08T13:30:42.000Z</time>
      </trkpt>
      <trkpt lat="47.02847" lon="16.10434">
        <ele>290.052019</ele>
        <time>2026-07-08T13:30:43.000Z</time>
      </trkpt>
      <trkpt lat="47.02844" lon="16.10432">
        <ele>290.159258</ele>
        <time>2026-07-08T13:30:44.000Z</time>
      </trkpt>
      <trkpt lat="47.02842" lon="16.1043">
        <ele>290.265438</ele>
        <time>2026-07-08T13:30:45.000Z</time>
      </trkpt>
      <trkpt lat="47.02839" lon="16.10428">
        <ele>290.376112</ele>
        <time>2026-07-08T13:30:46.000Z</time>
      </trkpt>
      <trkpt lat="47.02836" lon="16.10425">
        <ele>290.489685</ele>
        <time>2026-07-08T13:30:47.000Z</time>
      </trkpt>
      <trkpt lat="47.02833" lon="16.10423">
        <ele>290.606181</ele>
        <time>2026-07-08T13:30:48.000Z</time>
      </trkpt>
      <trkpt lat="47.0283" lon="16.1042">
        <ele>290.715676</ele>
        <time>2026-07-08T13:30:49.000Z</time>
      </trkpt>
      <trkpt lat="47.02827" lon="16.10418">
        <ele>290.821096</ele>
        <time>2026-07-08T13:30:50.000Z</time>
      </trkpt>
      <trkpt lat="47.02824" lon="16.10416">
        <ele>290.934341</ele>
        <time>2026-07-08T13:30:51.000Z</time>
      </trkpt>
      <trkpt lat="47.02822" lon="16.10414">
        <ele>291.040521</ele>
        <time>2026-07-08T13:30:52.000Z</time>
      </trkpt>
      <trkpt lat="47.02819" lon="16.10411">
        <ele>291.155898</ele>
        <time>2026-07-08T13:30:53.000Z</time>
      </trkpt>
      <trkpt lat="47.02816" lon="16.10409">
        <ele>291.27019</ele>
        <time>2026-07-08T13:30:54.000Z</time>
      </trkpt>
      <trkpt lat="47.02813" lon="16.10407">
        <ele>291.375343</ele>
        <time>2026-07-08T13:30:55.000Z</time>
      </trkpt>
      <trkpt lat="47.0281" lon="16.10405">
        <ele>291.486606</ele>
        <time>2026-07-08T13:30:56.000Z</time>
      </trkpt>
      <trkpt lat="47.02807" lon="16.10403">
        <ele>291.604388</ele>
        <time>2026-07-08T13:30:57.000Z</time>
      </trkpt>
      <trkpt lat="47.02803" lon="16.10401">
        <ele>291.637455</ele>
        <time>2026-07-08T13:30:58.000Z</time>
      </trkpt>
      <trkpt lat="47.02801" lon="16.10398">
        <ele>291.668373</ele>
        <time>2026-07-08T13:30:59.000Z</time>
      </trkpt>
      <trkpt lat="47.02798" lon="16.10396">
        <ele>291.700917</ele>
        <time>2026-07-08T13:31:00.000Z</time>
      </trkpt>
      <trkpt lat="47.02795" lon="16.10394">
        <ele>291.732</ele>
        <time>2026-07-08T13:31:01.000Z</time>
      </trkpt>
      <trkpt lat="47.02792" lon="16.10392">
        <ele>291.76196</ele>
        <time>2026-07-08T13:31:02.000Z</time>
      </trkpt>
      <trkpt lat="47.02789" lon="16.10389">
        <ele>291.795572</ele>
        <time>2026-07-08T13:31:03.000Z</time>
      </trkpt>
      <trkpt lat="47.02786" lon="16.10387">
        <ele>291.827208</ele>
        <time>2026-07-08T13:31:04.000Z</time>
      </trkpt>
      <trkpt lat="47.02782" lon="16.10385">
        <ele>291.860543</ele>
        <time>2026-07-08T13:31:05.000Z</time>
      </trkpt>
      <trkpt lat="47.0278" lon="16.10382">
        <ele>291.892506</ele>
        <time>2026-07-08T13:31:06.000Z</time>
      </trkpt>
      <trkpt lat="47.02777" lon="16.1038">
        <ele>291.92505</ele>
        <time>2026-07-08T13:31:07.000Z</time>
      </trkpt>
      <trkpt lat="47.02774" lon="16.10377">
        <ele>291.956979</ele>
        <time>2026-07-08T13:31:08.000Z</time>
      </trkpt>
      <trkpt lat="47.0277" lon="16.10375">
        <ele>291.9918</ele>
        <time>2026-07-08T13:31:09.000Z</time>
      </trkpt>
      <trkpt lat="47.02767" lon="16.10372">
        <ele>292.023728</ele>
        <time>2026-07-08T13:31:10.000Z</time>
      </trkpt>
      <trkpt lat="47.02764" lon="16.1037">
        <ele>292.055365</ele>
        <time>2026-07-08T13:31:11.000Z</time>
      </trkpt>
      <trkpt lat="47.02761" lon="16.10368">
        <ele>292.087308</ele>
        <time>2026-07-08T13:31:12.000Z</time>
      </trkpt>
      <trkpt lat="47.02758" lon="16.10366">
        <ele>292.12092</ele>
        <time>2026-07-08T13:31:13.000Z</time>
      </trkpt>
      <trkpt lat="47.02755" lon="16.10363">
        <ele>292.151838</ele>
        <time>2026-07-08T13:31:14.000Z</time>
      </trkpt>
      <trkpt lat="47.02753" lon="16.10361">
        <ele>292.181121</ele>
        <time>2026-07-08T13:31:15.000Z</time>
      </trkpt>
      <trkpt lat="47.0275" lon="16.10358">
        <ele>292.21305</ele>
        <time>2026-07-08T13:31:16.000Z</time>
      </trkpt>
      <trkpt lat="47.02747" lon="16.10356">
        <ele>292.245281</ele>
        <time>2026-07-08T13:31:17.000Z</time>
      </trkpt>
      <trkpt lat="47.02744" lon="16.10353">
        <ele>292.277009</ele>
        <time>2026-07-08T13:31:18.000Z</time>
      </trkpt>
      <trkpt lat="47.02741" lon="16.10351">
        <ele>292.310377</ele>
        <time>2026-07-08T13:31:19.000Z</time>
      </trkpt>
      <trkpt lat="47.02738" lon="16.10348">
        <ele>292.344574</ele>
        <time>2026-07-08T13:31:20.000Z</time>
      </trkpt>
      <trkpt lat="47.02734" lon="16.10346">
        <ele>292.379907</ele>
        <time>2026-07-08T13:31:21.000Z</time>
      </trkpt>
      <trkpt lat="47.02731" lon="16.10343">
        <ele>292.41578</ele>
        <time>2026-07-08T13:31:22.000Z</time>
      </trkpt>
      <trkpt lat="47.02728" lon="16.10341">
        <ele>292.449971</ele>
        <time>2026-07-08T13:31:23.000Z</time>
      </trkpt>
      <trkpt lat="47.02724" lon="16.10339">
        <ele>292.485004</ele>
        <time>2026-07-08T13:31:24.000Z</time>
      </trkpt>
      <trkpt lat="47.02721" lon="16.10336">
        <ele>292.521782</ele>
        <time>2026-07-08T13:31:25.000Z</time>
      </trkpt>
      <trkpt lat="47.02718" lon="16.10333">
        <ele>292.558067</ele>
        <time>2026-07-08T13:31:26.000Z</time>
      </trkpt>
      <trkpt lat="47.02714" lon="16.1033">
        <ele>292.595671</ele>
        <time>2026-07-08T13:31:27.000Z</time>
      </trkpt>
      <trkpt lat="47.02711" lon="16.10328">
        <ele>292.63239</ele>
        <time>2026-07-08T13:31:28.000Z</time>
      </trkpt>
      <trkpt lat="47.02707" lon="16.10325">
        <ele>292.66969</ele>
        <time>2026-07-08T13:31:29.000Z</time>
      </trkpt>
      <trkpt lat="47.02704" lon="16.10322">
        <ele>292.707294</ele>
        <time>2026-07-08T13:31:30.000Z</time>
      </trkpt>
      <trkpt lat="47.027" lon="16.10319">
        <ele>292.742935</ele>
        <time>2026-07-08T13:31:31.000Z</time>
      </trkpt>
      <trkpt lat="47.02696" lon="16.10317">
        <ele>292.783343</ele>
        <time>2026-07-08T13:31:32.000Z</time>
      </trkpt>
      <trkpt lat="47.02693" lon="16.10314">
        <ele>292.821579</ele>
        <time>2026-07-08T13:31:33.000Z</time>
      </trkpt>
      <trkpt lat="47.02689" lon="16.10311">
        <ele>292.859815</ele>
        <time>2026-07-08T13:31:34.000Z</time>
      </trkpt>
      <trkpt lat="47.02686" lon="16.10308">
        <ele>292.898868</ele>
        <time>2026-07-08T13:31:35.000Z</time>
      </trkpt>
      <trkpt lat="47.02682" lon="16.10305">
        <ele>292.940406</ele>
        <time>2026-07-08T13:31:36.000Z</time>
      </trkpt>
      <trkpt lat="47.02678" lon="16.10302">
        <ele>292.980809</ele>
        <time>2026-07-08T13:31:37.000Z</time>
      </trkpt>
      <trkpt lat="47.02675" lon="16.10299">
        <ele>293.018413</ele>
        <time>2026-07-08T13:31:38.000Z</time>
      </trkpt>
      <trkpt lat="47.02671" lon="16.10296">
        <ele>293.057684</ele>
        <time>2026-07-08T13:31:39.000Z</time>
      </trkpt>
      <trkpt lat="47.02664" lon="16.1029">
        <ele>293.137901</ele>
        <time>2026-07-08T13:31:41.000Z</time>
      </trkpt>
      <trkpt lat="47.0266" lon="16.10287">
        <ele>293.177451</ele>
        <time>2026-07-08T13:31:42.000Z</time>
      </trkpt>
      <trkpt lat="47.02653" lon="16.10282">
        <ele>293.250622</ele>
        <time>2026-07-08T13:31:44.000Z</time>
      </trkpt>
      <trkpt lat="47.0265" lon="16.10279">
        <ele>293.284868</ele>
        <time>2026-07-08T13:31:45.000Z</time>
      </trkpt>
      <trkpt lat="47.02644" lon="16.10273">
        <ele>293.326107</ele>
        <time>2026-07-08T13:31:46.000Z</time>
      </trkpt>
      <trkpt lat="47.0264" lon="16.10271">
        <ele>293.344461</ele>
        <time>2026-07-08T13:31:48.000Z</time>
      </trkpt>
      <trkpt lat="47.02636" lon="16.10268">
        <ele>293.362465</ele>
        <time>2026-07-08T13:31:49.000Z</time>
      </trkpt>
      <trkpt lat="47.02633" lon="16.10265">
        <ele>293.380469</ele>
        <time>2026-07-08T13:31:50.000Z</time>
      </trkpt>
      <trkpt lat="47.02626" lon="16.10259">
        <ele>293.417341</ele>
        <time>2026-07-08T13:31:51.000Z</time>
      </trkpt>
      <trkpt lat="47.02622" lon="16.10256">
        <ele>293.435345</ele>
        <time>2026-07-08T13:31:52.000Z</time>
      </trkpt>
      <trkpt lat="47.02618" lon="16.10253">
        <ele>293.45437</ele>
        <time>2026-07-08T13:31:54.000Z</time>
      </trkpt>
      <trkpt lat="47.02611" lon="16.10247">
        <ele>293.490076</ele>
        <time>2026-07-08T13:31:55.000Z</time>
      </trkpt>
      <trkpt lat="47.02608" lon="16.10244">
        <ele>293.508393</ele>
        <time>2026-07-08T13:31:56.000Z</time>
      </trkpt>
      <trkpt lat="47.02604" lon="16.10241">
        <ele>293.525711</ele>
        <time>2026-07-08T13:31:57.000Z</time>
      </trkpt>
      <trkpt lat="47.02601" lon="16.10238">
        <ele>293.544877</ele>
        <time>2026-07-08T13:31:58.000Z</time>
      </trkpt>
      <trkpt lat="47.02597" lon="16.10235">
        <ele>293.564338</ele>
        <time>2026-07-08T13:31:59.000Z</time>
      </trkpt>
      <trkpt lat="47.02593" lon="16.10232">
        <ele>293.58522</ele>
        <time>2026-07-08T13:32:00.000Z</time>
      </trkpt>
      <trkpt lat="47.02588" lon="16.10228">
        <ele>293.606673</ele>
        <time>2026-07-08T13:32:01.000Z</time>
      </trkpt>
      <trkpt lat="47.02584" lon="16.10225">
        <ele>293.627591</ele>
        <time>2026-07-08T13:32:02.000Z</time>
      </trkpt>
      <trkpt lat="47.0258" lon="16.10221">
        <ele>293.649822</ele>
        <time>2026-07-08T13:32:03.000Z</time>
      </trkpt>
      <trkpt lat="47.02576" lon="16.10218">
        <ele>293.669775</ele>
        <time>2026-07-08T13:32:04.000Z</time>
      </trkpt>
      <trkpt lat="47.02572" lon="16.10215">
        <ele>293.690157</ele>
        <time>2026-07-08T13:32:05.000Z</time>
      </trkpt>
      <trkpt lat="47.02568" lon="16.10212">
        <ele>293.710843</ele>
        <time>2026-07-08T13:32:06.000Z</time>
      </trkpt>
      <trkpt lat="47.02564" lon="16.10208">
        <ele>293.731846</ele>
        <time>2026-07-08T13:32:07.000Z</time>
      </trkpt>
      <trkpt lat="47.0256" lon="16.10205">
        <ele>293.752617</ele>
        <time>2026-07-08T13:32:08.000Z</time>
      </trkpt>
      <trkpt lat="47.02555" lon="16.10201">
        <ele>293.774847</ele>
        <time>2026-07-08T13:32:09.000Z</time>
      </trkpt>
      <trkpt lat="47.02551" lon="16.10198">
        <ele>293.795618</ele>
        <time>2026-07-08T13:32:10.000Z</time>
      </trkpt>
      <trkpt lat="47.02547" lon="16.10195">
        <ele>293.81743</ele>
        <time>2026-07-08T13:32:11.000Z</time>
      </trkpt>
      <trkpt lat="47.02543" lon="16.10191">
        <ele>293.838845</ele>
        <time>2026-07-08T13:32:12.000Z</time>
      </trkpt>
      <trkpt lat="47.02538" lon="16.10188">
        <ele>293.860925</ele>
        <time>2026-07-08T13:32:13.000Z</time>
      </trkpt>
      <trkpt lat="47.02534" lon="16.10185">
        <ele>293.882621</ele>
        <time>2026-07-08T13:32:14.000Z</time>
      </trkpt>
      <trkpt lat="47.0253" lon="16.10181">
        <ele>293.904075</ele>
        <time>2026-07-08T13:32:15.000Z</time>
      </trkpt>
      <trkpt lat="47.02525" lon="16.10178">
        <ele>293.925629</ele>
        <time>2026-07-08T13:32:16.000Z</time>
      </trkpt>
      <trkpt lat="47.02521" lon="16.10175">
        <ele>293.94784</ele>
        <time>2026-07-08T13:32:17.000Z</time>
      </trkpt>
      <trkpt lat="47.02516" lon="16.10171">
        <ele>293.970216</ele>
        <time>2026-07-08T13:32:18.000Z</time>
      </trkpt>
      <trkpt lat="47.02512" lon="16.10168">
        <ele>293.991912</ele>
        <time>2026-07-08T13:32:19.000Z</time>
      </trkpt>
      <trkpt lat="47.02508" lon="16.10164">
        <ele>294.014677</ele>
        <time>2026-07-08T13:32:20.000Z</time>
      </trkpt>
      <trkpt lat="47.02503" lon="16.10161">
        <ele>294.037299</ele>
        <time>2026-07-08T13:32:21.000Z</time>
      </trkpt>
      <trkpt lat="47.02499" lon="16.10157">
        <ele>294.059781</ele>
        <time>2026-07-08T13:32:22.000Z</time>
      </trkpt>
      <trkpt lat="47.02494" lon="16.10154">
        <ele>294.082403</ele>
        <time>2026-07-08T13:32:23.000Z</time>
      </trkpt>
      <trkpt lat="47.0249" lon="16.1015">
        <ele>294.090548</ele>
        <time>2026-07-08T13:32:24.000Z</time>
      </trkpt>
      <trkpt lat="47.02485" lon="16.10147">
        <ele>294.058259</ele>
        <time>2026-07-08T13:32:25.000Z</time>
      </trkpt>
      <trkpt lat="47.02481" lon="16.10143">
        <ele>294.023712</ele>
        <time>2026-07-08T13:32:26.000Z</time>
      </trkpt>
      <trkpt lat="47.02476" lon="16.1014">
        <ele>293.989388</ele>
        <time>2026-07-08T13:32:27.000Z</time>
      </trkpt>
      <trkpt lat="47.02472" lon="16.10136">
        <ele>293.955499</ele>
        <time>2026-07-08T13:32:28.000Z</time>
      </trkpt>
      <trkpt lat="47.02467" lon="16.10132">
        <ele>293.920952</ele>
        <time>2026-07-08T13:32:29.000Z</time>
      </trkpt>
      <trkpt lat="47.02463" lon="16.10129">
        <ele>293.887208</ele>
        <time>2026-07-08T13:32:30.000Z</time>
      </trkpt>
      <trkpt lat="47.02458" lon="16.10125">
        <ele>293.852729</ele>
        <time>2026-07-08T13:32:31.000Z</time>
      </trkpt>
      <trkpt lat="47.02454" lon="16.10122">
        <ele>293.81806</ele>
        <time>2026-07-08T13:32:32.000Z</time>
      </trkpt>
      <trkpt lat="47.02449" lon="16.10118">
        <ele>293.782396</ele>
        <time>2026-07-08T13:32:33.000Z</time>
      </trkpt>
      <trkpt lat="47.02444" lon="16.10115">
        <ele>293.748506</ele>
        <time>2026-07-08T13:32:34.000Z</time>
      </trkpt>
      <trkpt lat="47.0244" lon="16.10111">
        <ele>293.714183</ele>
        <time>2026-07-08T13:32:35.000Z</time>
      </trkpt>
      <trkpt lat="47.02435" lon="16.10108">
        <ele>293.68088</ele>
        <time>2026-07-08T13:32:36.000Z</time>
      </trkpt>
      <trkpt lat="47.02431" lon="16.10104">
        <ele>293.649891</ele>
        <time>2026-07-08T13:32:37.000Z</time>
      </trkpt>
      <trkpt lat="47.02427" lon="16.10101">
        <ele>293.618329</ele>
        <time>2026-07-08T13:32:38.000Z</time>
      </trkpt>
      <trkpt lat="47.02423" lon="16.10098">
        <ele>293.586046</ele>
        <time>2026-07-08T13:32:39.000Z</time>
      </trkpt>
      <trkpt lat="47.02419" lon="16.10094">
        <ele>293.553965</ele>
        <time>2026-07-08T13:32:40.000Z</time>
      </trkpt>
      <trkpt lat="47.02414" lon="16.10091">
        <ele>293.521245</ele>
        <time>2026-07-08T13:32:41.000Z</time>
      </trkpt>
      <trkpt lat="47.0241" lon="16.10088">
        <ele>293.487771</ele>
        <time>2026-07-08T13:32:42.000Z</time>
      </trkpt>
      <trkpt lat="47.02405" lon="16.10084">
        <ele>293.454469</ele>
        <time>2026-07-08T13:32:43.000Z</time>
      </trkpt>
      <trkpt lat="47.02401" lon="16.1008">
        <ele>293.420145</ele>
        <time>2026-07-08T13:32:44.000Z</time>
      </trkpt>
      <trkpt lat="47.02396" lon="16.10077">
        <ele>293.386672</ele>
        <time>2026-07-08T13:32:45.000Z</time>
      </trkpt>
      <trkpt lat="47.02392" lon="16.10074">
        <ele>293.35459</ele>
        <time>2026-07-08T13:32:46.000Z</time>
      </trkpt>
      <trkpt lat="47.02388" lon="16.10071">
        <ele>293.324056</ele>
        <time>2026-07-08T13:32:47.000Z</time>
      </trkpt>
      <trkpt lat="47.02384" lon="16.10067">
        <ele>293.293522</ele>
        <time>2026-07-08T13:32:48.000Z</time>
      </trkpt>
      <trkpt lat="47.0238" lon="16.10064">
        <ele>293.262032</ele>
        <time>2026-07-08T13:32:49.000Z</time>
      </trkpt>
      <trkpt lat="47.02376" lon="16.10061">
        <ele>293.232141</ele>
        <time>2026-07-08T13:32:50.000Z</time>
      </trkpt>
      <trkpt lat="47.02372" lon="16.10058">
        <ele>293.201827</ele>
        <time>2026-07-08T13:32:51.000Z</time>
      </trkpt>
      <trkpt lat="47.02368" lon="16.10055">
        <ele>293.171936</ele>
        <time>2026-07-08T13:32:52.000Z</time>
      </trkpt>
      <trkpt lat="47.02364" lon="16.10052">
        <ele>293.14116</ele>
        <time>2026-07-08T13:32:53.000Z</time>
      </trkpt>
      <trkpt lat="47.02359" lon="16.1005">
        <ele>293.111002</ele>
        <time>2026-07-08T13:32:54.000Z</time>
      </trkpt>
      <trkpt lat="47.02355" lon="16.10047">
        <ele>293.081513</ele>
        <time>2026-07-08T13:32:55.000Z</time>
      </trkpt>
      <trkpt lat="47.02352" lon="16.10044">
        <ele>293.053219</ele>
        <time>2026-07-08T13:32:56.000Z</time>
      </trkpt>
      <trkpt lat="47.02348" lon="16.10042">
        <ele>293.026115</ele>
        <time>2026-07-08T13:32:57.000Z</time>
      </trkpt>
      <trkpt lat="47.02344" lon="16.10039">
        <ele>292.999804</ele>
        <time>2026-07-08T13:32:58.000Z</time>
      </trkpt>
      <trkpt lat="47.02341" lon="16.10037">
        <ele>292.975092</ele>
        <time>2026-07-08T13:32:59.000Z</time>
      </trkpt>
      <trkpt lat="47.02338" lon="16.10034">
        <ele>292.95038</ele>
        <time>2026-07-08T13:33:00.000Z</time>
      </trkpt>
      <trkpt lat="47.02334" lon="16.10031">
        <ele>292.924656</ele>
        <time>2026-07-08T13:33:01.000Z</time>
      </trkpt>
      <trkpt lat="47.02331" lon="16.10028">
        <ele>292.870677</ele>
        <time>2026-07-08T13:33:02.000Z</time>
      </trkpt>
      <trkpt lat="47.02328" lon="16.10025">
        <ele>292.636767</ele>
        <time>2026-07-08T13:33:03.000Z</time>
      </trkpt>
      <trkpt lat="47.02324" lon="16.10023">
        <ele>292.396452</ele>
        <time>2026-07-08T13:33:04.000Z</time>
      </trkpt>
      <trkpt lat="47.0232" lon="16.1002">
        <ele>292.16641</ele>
        <time>2026-07-08T13:33:05.000Z</time>
      </trkpt>
      <trkpt lat="47.02316" lon="16.10017">
        <ele>291.912334</ele>
        <time>2026-07-08T13:33:06.000Z</time>
      </trkpt>
      <trkpt lat="47.02312" lon="16.10015">
        <ele>291.659877</ele>
        <time>2026-07-08T13:33:07.000Z</time>
      </trkpt>
      <trkpt lat="47.02308" lon="16.10012">
        <ele>291.392018</ele>
        <time>2026-07-08T13:33:08.000Z</time>
      </trkpt>
      <trkpt lat="47.02304" lon="16.10009">
        <ele>291.101714</ele>
        <time>2026-07-08T13:33:09.000Z</time>
      </trkpt>
      <trkpt lat="47.02299" lon="16.10005">
        <ele>290.804042</ele>
        <time>2026-07-08T13:33:10.000Z</time>
      </trkpt>
      <trkpt lat="47.02294" lon="16.10001">
        <ele>290.490498</ele>
        <time>2026-07-08T13:33:11.000Z</time>
      </trkpt>
      <trkpt lat="47.02289" lon="16.09997">
        <ele>290.156055</ele>
        <time>2026-07-08T13:33:12.000Z</time>
      </trkpt>
      <trkpt lat="47.02284" lon="16.09992">
        <ele>289.806404</ele>
        <time>2026-07-08T13:33:13.000Z</time>
      </trkpt>
      <trkpt lat="47.02279" lon="16.09987">
        <ele>289.428829</ele>
        <time>2026-07-08T13:33:14.000Z</time>
      </trkpt>
      <trkpt lat="47.02273" lon="16.09981">
        <ele>289.01457</ele>
        <time>2026-07-08T13:33:15.000Z</time>
      </trkpt>
      <trkpt lat="47.02267" lon="16.09974">
        <ele>288.58417</ele>
        <time>2026-07-08T13:33:16.000Z</time>
      </trkpt>
      <trkpt lat="47.02261" lon="16.09967">
        <ele>288.120906</ele>
        <time>2026-07-08T13:33:17.000Z</time>
      </trkpt>
      <trkpt lat="47.02254" lon="16.09959">
        <ele>287.620371</ele>
        <time>2026-07-08T13:33:18.000Z</time>
      </trkpt>
      <trkpt lat="47.02247" lon="16.09951">
        <ele>287.112869</ele>
        <time>2026-07-08T13:33:19.000Z</time>
      </trkpt>
      <trkpt lat="47.0224" lon="16.09942">
        <ele>286.585994</ele>
        <time>2026-07-08T13:33:20.000Z</time>
      </trkpt>
      <trkpt lat="47.02233" lon="16.09933">
        <ele>286.031466</ele>
        <time>2026-07-08T13:33:21.000Z</time>
      </trkpt>
      <trkpt lat="47.02225" lon="16.09923">
        <ele>285.449269</ele>
        <time>2026-07-08T13:33:22.000Z</time>
      </trkpt>
      <trkpt lat="47.02218" lon="16.09913">
        <ele>284.869695</ele>
        <time>2026-07-08T13:33:23.000Z</time>
      </trkpt>
      <trkpt lat="47.0221" lon="16.09903">
        <ele>284.294417</ele>
        <time>2026-07-08T13:33:24.000Z</time>
      </trkpt>
      <trkpt lat="47.02203" lon="16.09894">
        <ele>283.752083</ele>
        <time>2026-07-08T13:33:25.000Z</time>
      </trkpt>
      <trkpt lat="47.02197" lon="16.09886">
        <ele>283.254811</ele>
        <time>2026-07-08T13:33:26.000Z</time>
      </trkpt>
      <trkpt lat="47.02192" lon="16.09878">
        <ele>282.838102</ele>
        <time>2026-07-08T13:33:27.000Z</time>
      </trkpt>
      <trkpt lat="47.02187" lon="16.09872">
        <ele>282.4957</ele>
        <time>2026-07-08T13:33:28.000Z</time>
      </trkpt>
      <trkpt lat="47.02183" lon="16.09867">
        <ele>282.324197</ele>
        <time>2026-07-08T13:33:29.000Z</time>
      </trkpt>
      <trkpt lat="47.0218" lon="16.09861">
        <ele>282.159577</ele>
        <time>2026-07-08T13:33:30.000Z</time>
      </trkpt>
      <trkpt lat="47.02177" lon="16.09857">
        <ele>282.039104</ele>
        <time>2026-07-08T13:33:31.000Z</time>
      </trkpt>
      <trkpt lat="47.02175" lon="16.09854">
        <ele>281.944081</ele>
        <time>2026-07-08T13:33:32.000Z</time>
      </trkpt>
      <trkpt lat="47.02173" lon="16.09852">
        <ele>281.866318</ele>
        <time>2026-07-08T13:33:33.000Z</time>
      </trkpt>
      <trkpt lat="47.02171" lon="16.09851">
        <ele>281.798702</ele>
        <time>2026-07-08T13:33:34.000Z</time>
      </trkpt>
      <trkpt lat="47.0217" lon="16.09848">
        <ele>281.727392</ele>
        <time>2026-07-08T13:33:35.000Z</time>
      </trkpt>
      <trkpt lat="47.02169" lon="16.09846">
        <ele>281.660901</ele>
        <time>2026-07-08T13:33:36.000Z</time>
      </trkpt>
      <trkpt lat="47.02169" lon="16.09843">
        <ele>281.61012</ele>
        <time>2026-07-08T13:33:37.000Z</time>
      </trkpt>
      <trkpt lat="47.02169" lon="16.09842">
        <ele>281.578792</ele>
        <time>2026-07-08T13:33:38.000Z</time>
      </trkpt>
      <trkpt lat="47.02169" lon="16.09841">
        <ele>281.56738</ele>
        <time>2026-07-08T13:33:39.000Z</time>
      </trkpt>
      <trkpt lat="47.02165" lon="16.09846">
        <ele>281.406722</ele>
        <time>2026-07-08T13:35:05.000Z</time>
      </trkpt>
      <trkpt lat="47.02164" lon="16.09848">
        <ele>281.353549</ele>
        <time>2026-07-08T13:35:06.000Z</time>
      </trkpt>
      <trkpt lat="47.02163" lon="16.0985">
        <ele>281.300863</ele>
        <time>2026-07-08T13:35:07.000Z</time>
      </trkpt>
      <trkpt lat="47.02163" lon="16.09852">
        <ele>281.24769</ele>
        <time>2026-07-08T13:35:08.000Z</time>
      </trkpt>
      <trkpt lat="47.02162" lon="16.09854">
        <ele>281.187945</ele>
        <time>2026-07-08T13:35:09.000Z</time>
      </trkpt>
      <trkpt lat="47.02161" lon="16.09857">
        <ele>281.124462</ele>
        <time>2026-07-08T13:35:10.000Z</time>
      </trkpt>
      <trkpt lat="47.0216" lon="16.09859">
        <ele>281.065952</ele>
        <time>2026-07-08T13:35:11.000Z</time>
      </trkpt>
      <trkpt lat="47.02159" lon="16.09861">
        <ele>281.007601</ele>
        <time>2026-07-08T13:35:12.000Z</time>
      </trkpt>
      <trkpt lat="47.02158" lon="16.09863">
        <ele>280.951499</ele>
        <time>2026-07-08T13:35:13.000Z</time>
      </trkpt>
      <trkpt lat="47.02157" lon="16.09866">
        <ele>280.889896</ele>
        <time>2026-07-08T13:35:14.000Z</time>
      </trkpt>
      <trkpt lat="47.02155" lon="16.09869">
        <ele>280.815701</ele>
        <time>2026-07-08T13:35:15.000Z</time>
      </trkpt>
      <trkpt lat="47.02154" lon="16.09872">
        <ele>280.725112</ele>
        <time>2026-07-08T13:35:16.000Z</time>
      </trkpt>
      <trkpt lat="47.02152" lon="16.09876">
        <ele>280.62556</ele>
        <time>2026-07-08T13:35:17.000Z</time>
      </trkpt>
      <trkpt lat="47.0215" lon="16.0988">
        <ele>280.516918</ele>
        <time>2026-07-08T13:35:18.000Z</time>
      </trkpt>
      <trkpt lat="47.02148" lon="16.09884">
        <ele>280.39917</ele>
        <time>2026-07-08T13:35:19.000Z</time>
      </trkpt>
      <trkpt lat="47.02145" lon="16.09888">
        <ele>280.277891</ele>
        <time>2026-07-08T13:35:20.000Z</time>
      </trkpt>
      <trkpt lat="47.02143" lon="16.09893">
        <ele>280.14927</ele>
        <time>2026-07-08T13:35:21.000Z</time>
      </trkpt>
      <trkpt lat="47.02141" lon="16.09898">
        <ele>280.017127</ele>
        <time>2026-07-08T13:35:22.000Z</time>
      </trkpt>
      <trkpt lat="47.02138" lon="16.09903">
        <ele>279.8794</ele>
        <time>2026-07-08T13:35:23.000Z</time>
      </trkpt>
      <trkpt lat="47.02136" lon="16.09908">
        <ele>279.739701</ele>
        <time>2026-07-08T13:35:24.000Z</time>
      </trkpt>
      <trkpt lat="47.02133" lon="16.09913">
        <ele>279.597985</ele>
        <time>2026-07-08T13:35:25.000Z</time>
      </trkpt>
      <trkpt lat="47.0213" lon="16.09918">
        <ele>279.456563</ele>
        <time>2026-07-08T13:35:26.000Z</time>
      </trkpt>
      <trkpt lat="47.02127" lon="16.09924">
        <ele>279.303997</ele>
        <time>2026-07-08T13:35:27.000Z</time>
      </trkpt>
      <trkpt lat="47.02124" lon="16.09929">
        <ele>279.157145</ele>
        <time>2026-07-08T13:35:28.000Z</time>
      </trkpt>
      <trkpt lat="47.02121" lon="16.09934">
        <ele>279.013368</ele>
        <time>2026-07-08T13:35:29.000Z</time>
      </trkpt>
      <trkpt lat="47.02118" lon="16.09939">
        <ele>278.868557</ele>
        <time>2026-07-08T13:35:30.000Z</time>
      </trkpt>
      <trkpt lat="47.02115" lon="16.09944">
        <ele>278.719944</ele>
        <time>2026-07-08T13:35:31.000Z</time>
      </trkpt>
      <trkpt lat="47.02112" lon="16.09949">
        <ele>278.574065</ele>
        <time>2026-07-08T13:35:32.000Z</time>
      </trkpt>
      <trkpt lat="47.02109" lon="16.09954">
        <ele>278.430649</ele>
        <time>2026-07-08T13:35:33.000Z</time>
      </trkpt>
      <trkpt lat="47.02106" lon="16.09959">
        <ele>278.280093</ele>
        <time>2026-07-08T13:35:34.000Z</time>
      </trkpt>
      <trkpt lat="47.02103" lon="16.09964">
        <ele>278.132562</ele>
        <time>2026-07-08T13:35:35.000Z</time>
      </trkpt>
      <trkpt lat="47.021" lon="16.0997">
        <ele>277.972865</ele>
        <time>2026-07-08T13:35:36.000Z</time>
      </trkpt>
      <trkpt lat="47.02097" lon="16.09976">
        <ele>277.811144</ele>
        <time>2026-07-08T13:35:37.000Z</time>
      </trkpt>
      <trkpt lat="47.02094" lon="16.09981">
        <ele>277.651109</ele>
        <time>2026-07-08T13:35:38.000Z</time>
      </trkpt>
      <trkpt lat="47.02091" lon="16.09987">
        <ele>277.491411</ele>
        <time>2026-07-08T13:35:39.000Z</time>
      </trkpt>
      <trkpt lat="47.02088" lon="16.09993">
        <ele>277.333697</ele>
        <time>2026-07-08T13:35:40.000Z</time>
      </trkpt>
      <trkpt lat="47.02085" lon="16.09999">
        <ele>277.174244</ele>
        <time>2026-07-08T13:35:41.000Z</time>
      </trkpt>
      <trkpt lat="47.02082" lon="16.10004">
        <ele>277.014791</ele>
        <time>2026-07-08T13:35:42.000Z</time>
      </trkpt>
      <trkpt lat="47.02079" lon="16.1001">
        <ele>276.862507</ele>
        <time>2026-07-08T13:35:43.000Z</time>
      </trkpt>
      <trkpt lat="47.02076" lon="16.10015">
        <ele>276.742718</ele>
        <time>2026-07-08T13:35:44.000Z</time>
      </trkpt>
      <trkpt lat="47.02073" lon="16.10021">
        <ele>276.731705</ele>
        <time>2026-07-08T13:35:45.000Z</time>
      </trkpt>
      <trkpt lat="47.0207" lon="16.10026">
        <ele>276.721241</ele>
        <time>2026-07-08T13:35:46.000Z</time>
      </trkpt>
      <trkpt lat="47.02068" lon="16.10032">
        <ele>276.711021</ele>
        <time>2026-07-08T13:35:47.000Z</time>
      </trkpt>
      <trkpt lat="47.02065" lon="16.10036">
        <ele>276.701143</ele>
        <time>2026-07-08T13:35:48.000Z</time>
      </trkpt>
      <trkpt lat="47.02062" lon="16.10041">
        <ele>276.690879</ele>
        <time>2026-07-08T13:35:49.000Z</time>
      </trkpt>
      <trkpt lat="47.02059" lon="16.10046">
        <ele>276.681184</ele>
        <time>2026-07-08T13:35:50.000Z</time>
      </trkpt>
      <trkpt lat="47.02057" lon="16.10051">
        <ele>276.671352</ele>
        <time>2026-07-08T13:35:51.000Z</time>
      </trkpt>
      <trkpt lat="47.02054" lon="16.10056">
        <ele>276.661207</ele>
        <time>2026-07-08T13:35:52.000Z</time>
      </trkpt>
      <trkpt lat="47.02051" lon="16.10061">
        <ele>276.652009</ele>
        <time>2026-07-08T13:35:53.000Z</time>
      </trkpt>
      <trkpt lat="47.02049" lon="16.10066">
        <ele>276.64244</ele>
        <time>2026-07-08T13:35:54.000Z</time>
      </trkpt>
      <trkpt lat="47.02046" lon="16.10071">
        <ele>276.632854</ele>
        <time>2026-07-08T13:35:55.000Z</time>
      </trkpt>
      <trkpt lat="47.02044" lon="16.10075">
        <ele>276.623547</ele>
        <time>2026-07-08T13:35:56.000Z</time>
      </trkpt>
      <trkpt lat="47.02042" lon="16.1008">
        <ele>276.614116</ele>
        <time>2026-07-08T13:35:57.000Z</time>
      </trkpt>
      <trkpt lat="47.02039" lon="16.10086">
        <ele>276.604167</ele>
        <time>2026-07-08T13:35:58.000Z</time>
      </trkpt>
      <trkpt lat="47.02037" lon="16.10091">
        <ele>276.594737</ele>
        <time>2026-07-08T13:35:59.000Z</time>
      </trkpt>
      <trkpt lat="47.02034" lon="16.10095">
        <ele>276.585127</ele>
        <time>2026-07-08T13:36:00.000Z</time>
      </trkpt>
      <trkpt lat="47.02032" lon="16.101">
        <ele>276.576208</ele>
        <time>2026-07-08T13:36:01.000Z</time>
      </trkpt>
      <trkpt lat="47.02029" lon="16.10105">
        <ele>276.56591</ele>
        <time>2026-07-08T13:36:02.000Z</time>
      </trkpt>
      <trkpt lat="47.02026" lon="16.1011">
        <ele>276.555882</ele>
        <time>2026-07-08T13:36:03.000Z</time>
      </trkpt>
      <trkpt lat="47.02023" lon="16.10115">
        <ele>276.545522</ele>
        <time>2026-07-08T13:36:04.000Z</time>
      </trkpt>
      <trkpt lat="47.0202" lon="16.1012">
        <ele>276.535038</ele>
        <time>2026-07-08T13:36:05.000Z</time>
      </trkpt>
      <trkpt lat="47.02017" lon="16.10126">
        <ele>276.524025</ele>
        <time>2026-07-08T13:36:06.000Z</time>
      </trkpt>
      <trkpt lat="47.02014" lon="16.10131">
        <ele>276.512766</ele>
        <time>2026-07-08T13:36:07.000Z</time>
      </trkpt>
      <trkpt lat="47.02012" lon="16.10137">
        <ele>276.501785</ele>
        <time>2026-07-08T13:36:08.000Z</time>
      </trkpt>
      <trkpt lat="47.02008" lon="16.10143">
        <ele>276.49024</ele>
        <time>2026-07-08T13:36:09.000Z</time>
      </trkpt>
      <trkpt lat="47.02005" lon="16.10149">
        <ele>276.478856</ele>
        <time>2026-07-08T13:36:10.000Z</time>
      </trkpt>
      <trkpt lat="47.02002" lon="16.10154">
        <ele>276.467045</ele>
        <time>2026-07-08T13:36:11.000Z</time>
      </trkpt>
      <trkpt lat="47.01998" lon="16.1016">
        <ele>276.45491</ele>
        <time>2026-07-08T13:36:12.000Z</time>
      </trkpt>
      <trkpt lat="47.01994" lon="16.10164">
        <ele>276.442331</ele>
        <time>2026-07-08T13:36:13.000Z</time>
      </trkpt>
      <trkpt lat="47.01989" lon="16.10169">
        <ele>276.429478</ele>
        <time>2026-07-08T13:36:14.000Z</time>
      </trkpt>
      <trkpt lat="47.01985" lon="16.10175">
        <ele>276.416117</ele>
        <time>2026-07-08T13:36:15.000Z</time>
      </trkpt>
      <trkpt lat="47.01981" lon="16.10181">
        <ele>276.402612</ele>
        <time>2026-07-08T13:36:16.000Z</time>
      </trkpt>
      <trkpt lat="47.01977" lon="16.10188">
        <ele>276.388687</ele>
        <time>2026-07-08T13:36:17.000Z</time>
      </trkpt>
      <trkpt lat="47.01972" lon="16.10194">
        <ele>276.374203</ele>
        <time>2026-07-08T13:36:18.000Z</time>
      </trkpt>
      <trkpt lat="47.01968" lon="16.10201">
        <ele>276.359608</ele>
        <time>2026-07-08T13:36:19.000Z</time>
      </trkpt>
      <trkpt lat="47.01963" lon="16.10208">
        <ele>276.344721</ele>
        <time>2026-07-08T13:36:20.000Z</time>
      </trkpt>
      <trkpt lat="47.01959" lon="16.10215">
        <ele>276.320789</ele>
        <time>2026-07-08T13:36:21.000Z</time>
      </trkpt>
      <trkpt lat="47.01954" lon="16.10221">
        <ele>276.261428</ele>
        <time>2026-07-08T13:36:22.000Z</time>
      </trkpt>
      <trkpt lat="47.01949" lon="16.10228">
        <ele>276.200182</ele>
        <time>2026-07-08T13:36:23.000Z</time>
      </trkpt>
      <trkpt lat="47.01944" lon="16.10234">
        <ele>276.140808</ele>
        <time>2026-07-08T13:36:24.000Z</time>
      </trkpt>
      <trkpt lat="47.01938" lon="16.10239">
        <ele>276.081493</ele>
        <time>2026-07-08T13:36:25.000Z</time>
      </trkpt>
      <trkpt lat="47.01933" lon="16.10244">
        <ele>276.02266</ele>
        <time>2026-07-08T13:36:26.000Z</time>
      </trkpt>
      <trkpt lat="47.01927" lon="16.10249">
        <ele>275.961858</ele>
        <time>2026-07-08T13:36:27.000Z</time>
      </trkpt>
      <trkpt lat="47.01921" lon="16.10253">
        <ele>275.900496</ele>
        <time>2026-07-08T13:36:28.000Z</time>
      </trkpt>
      <trkpt lat="47.01914" lon="16.10256">
        <ele>275.839714</ele>
        <time>2026-07-08T13:36:29.000Z</time>
      </trkpt>
      <trkpt lat="47.01908" lon="16.10259">
        <ele>275.779277</ele>
        <time>2026-07-08T13:36:30.000Z</time>
      </trkpt>
      <trkpt lat="47.01901" lon="16.10262">
        <ele>275.717618</ele>
        <time>2026-07-08T13:36:31.000Z</time>
      </trkpt>
      <trkpt lat="47.01895" lon="16.10264">
        <ele>275.655928</ele>
        <time>2026-07-08T13:36:32.000Z</time>
      </trkpt>
      <trkpt lat="47.01888" lon="16.10266">
        <ele>275.59369</ele>
        <time>2026-07-08T13:36:33.000Z</time>
      </trkpt>
      <trkpt lat="47.01881" lon="16.10267">
        <ele>275.532539</ele>
        <time>2026-07-08T13:36:34.000Z</time>
      </trkpt>
      <trkpt lat="47.01875" lon="16.10269">
        <ele>275.474953</ele>
        <time>2026-07-08T13:36:35.000Z</time>
      </trkpt>
      <trkpt lat="47.01868" lon="16.1027">
        <ele>275.416657</ele>
        <time>2026-07-08T13:36:36.000Z</time>
      </trkpt>
      <trkpt lat="47.01862" lon="16.10271">
        <ele>275.359338</ele>
        <time>2026-07-08T13:36:37.000Z</time>
      </trkpt>
      <trkpt lat="47.01856" lon="16.10272">
        <ele>275.302019</ele>
        <time>2026-07-08T13:36:38.000Z</time>
      </trkpt>
      <trkpt lat="47.01849" lon="16.10273">
        <ele>275.243051</ele>
        <time>2026-07-08T13:36:39.000Z</time>
      </trkpt>
      <trkpt lat="47.01843" lon="16.10274">
        <ele>275.18498</ele>
        <time>2026-07-08T13:36:40.000Z</time>
      </trkpt>
      <trkpt lat="47.01837" lon="16.10275">
        <ele>275.127736</ele>
        <time>2026-07-08T13:36:41.000Z</time>
      </trkpt>
      <trkpt lat="47.0183" lon="16.10276">
        <ele>275.068768</ele>
        <time>2026-07-08T13:36:42.000Z</time>
      </trkpt>
      <trkpt lat="47.01824" lon="16.10277">
        <ele>275.011657</ele>
        <time>2026-07-08T13:36:43.000Z</time>
      </trkpt>
      <trkpt lat="47.01818" lon="16.10278">
        <ele>274.955501</ele>
        <time>2026-07-08T13:36:44.000Z</time>
      </trkpt>
      <trkpt lat="47.01811" lon="16.10279">
        <ele>274.899346</ele>
        <time>2026-07-08T13:36:45.000Z</time>
      </trkpt>
      <trkpt lat="47.01805" lon="16.1028">
        <ele>274.84403</ele>
        <time>2026-07-08T13:36:46.000Z</time>
      </trkpt>
      <trkpt lat="47.01799" lon="16.10281">
        <ele>274.787875</ele>
        <time>2026-07-08T13:36:47.000Z</time>
      </trkpt>
      <trkpt lat="47.01793" lon="16.10281">
        <ele>274.733568</ele>
        <time>2026-07-08T13:36:48.000Z</time>
      </trkpt>
      <trkpt lat="47.01787" lon="16.10282">
        <ele>274.68713</ele>
        <time>2026-07-08T13:36:49.000Z</time>
      </trkpt>
      <trkpt lat="47.01781" lon="16.10282">
        <ele>274.648953</ele>
        <time>2026-07-08T13:36:50.000Z</time>
      </trkpt>
      <trkpt lat="47.01775" lon="16.10283">
        <ele>274.610798</ele>
        <time>2026-07-08T13:36:51.000Z</time>
      </trkpt>
      <trkpt lat="47.01769" lon="16.10283">
        <ele>274.573931</ele>
        <time>2026-07-08T13:36:52.000Z</time>
      </trkpt>
      <trkpt lat="47.01763" lon="16.10284">
        <ele>274.535754</ele>
        <time>2026-07-08T13:36:53.000Z</time>
      </trkpt>
      <trkpt lat="47.01757" lon="16.10284">
        <ele>274.497616</ele>
        <time>2026-07-08T13:36:54.000Z</time>
      </trkpt>
      <trkpt lat="47.01751" lon="16.10284">
        <ele>274.458171</ele>
        <time>2026-07-08T13:36:55.000Z</time>
      </trkpt>
      <trkpt lat="47.01745" lon="16.10285">
        <ele>274.419301</ele>
        <time>2026-07-08T13:36:56.000Z</time>
      </trkpt>
      <trkpt lat="47.01739" lon="16.10286">
        <ele>274.379799</ele>
        <time>2026-07-08T13:36:57.000Z</time>
      </trkpt>
      <trkpt lat="47.01732" lon="16.10286">
        <ele>274.340327</ele>
        <time>2026-07-08T13:36:58.000Z</time>
      </trkpt>
      <trkpt lat="47.01726" lon="16.10287">
        <ele>274.300248</ele>
        <time>2026-07-08T13:36:59.000Z</time>
      </trkpt>
      <trkpt lat="47.0172" lon="16.10287">
        <ele>274.260168</ele>
        <time>2026-07-08T13:37:00.000Z</time>
      </trkpt>
      <trkpt lat="47.01713" lon="16.10288">
        <ele>274.218867</ele>
        <time>2026-07-08T13:37:01.000Z</time>
      </trkpt>
      <trkpt lat="47.01707" lon="16.10288">
        <ele>274.177555</ele>
        <time>2026-07-08T13:37:02.000Z</time>
      </trkpt>
      <trkpt lat="47.017" lon="16.10288">
        <ele>274.136261</ele>
        <time>2026-07-08T13:37:03.000Z</time>
      </trkpt>
      <trkpt lat="47.01694" lon="16.10287">
        <ele>274.094785</ele>
        <time>2026-07-08T13:37:04.000Z</time>
      </trkpt>
      <trkpt lat="47.01687" lon="16.10286">
        <ele>274.053111</ele>
        <time>2026-07-08T13:37:05.000Z</time>
      </trkpt>
      <trkpt lat="47.01681" lon="16.10284">
        <ele>274.01109</ele>
        <time>2026-07-08T13:37:06.000Z</time>
      </trkpt>
      <trkpt lat="47.01675" lon="16.10282">
        <ele>273.970854</ele>
        <time>2026-07-08T13:37:07.000Z</time>
      </trkpt>
      <trkpt lat="47.01668" lon="16.1028">
        <ele>273.930228</ele>
        <time>2026-07-08T13:37:08.000Z</time>
      </trkpt>
      <trkpt lat="47.01663" lon="16.10277">
        <ele>273.891571</ele>
        <time>2026-07-08T13:37:09.000Z</time>
      </trkpt>
      <trkpt lat="47.01657" lon="16.10274">
        <ele>273.852782</ele>
        <time>2026-07-08T13:37:10.000Z</time>
      </trkpt>
      <trkpt lat="47.01651" lon="16.10271">
        <ele>273.812513</ele>
        <time>2026-07-08T13:37:11.000Z</time>
      </trkpt>
      <trkpt lat="47.01645" lon="16.10268">
        <ele>273.7724</ele>
        <time>2026-07-08T13:37:12.000Z</time>
      </trkpt>
      <trkpt lat="47.01639" lon="16.10264">
        <ele>273.734484</ele>
        <time>2026-07-08T13:37:13.000Z</time>
      </trkpt>
      <trkpt lat="47.01634" lon="16.10261">
        <ele>273.696146</ele>
        <time>2026-07-08T13:37:14.000Z</time>
      </trkpt>
      <trkpt lat="47.01628" lon="16.10258">
        <ele>273.657217</ele>
        <time>2026-07-08T13:37:15.000Z</time>
      </trkpt>
      <trkpt lat="47.01623" lon="16.10255">
        <ele>273.61963</ele>
        <time>2026-07-08T13:37:16.000Z</time>
      </trkpt>
      <trkpt lat="47.01617" lon="16.10251">
        <ele>273.582042</ele>
        <time>2026-07-08T13:37:17.000Z</time>
      </trkpt>
      <trkpt lat="47.01612" lon="16.10248">
        <ele>273.561441</ele>
        <time>2026-07-08T13:37:18.000Z</time>
      </trkpt>
      <trkpt lat="47.01606" lon="16.10246">
        <ele>273.551135</ele>
        <time>2026-07-08T13:37:19.000Z</time>
      </trkpt>
      <trkpt lat="47.01601" lon="16.10243">
        <ele>273.540995</ele>
        <time>2026-07-08T13:37:20.000Z</time>
      </trkpt>
      <trkpt lat="47.01596" lon="16.1024">
        <ele>273.530938</ele>
        <time>2026-07-08T13:37:21.000Z</time>
      </trkpt>
      <trkpt lat="47.0159" lon="16.10237">
        <ele>273.52055</ele>
        <time>2026-07-08T13:37:22.000Z</time>
      </trkpt>
      <trkpt lat="47.01585" lon="16.10234">
        <ele>273.510618</ele>
        <time>2026-07-08T13:37:23.000Z</time>
      </trkpt>
      <trkpt lat="47.0158" lon="16.10231">
        <ele>273.500853</ele>
        <time>2026-07-08T13:37:24.000Z</time>
      </trkpt>
      <trkpt lat="47.01574" lon="16.10229">
        <ele>273.491047</ele>
        <time>2026-07-08T13:37:25.000Z</time>
      </trkpt>
      <trkpt lat="47.01569" lon="16.10226">
        <ele>273.481601</ele>
        <time>2026-07-08T13:37:26.000Z</time>
      </trkpt>
      <trkpt lat="47.01564" lon="16.10225">
        <ele>273.472844</ele>
        <time>2026-07-08T13:37:27.000Z</time>
      </trkpt>
      <trkpt lat="47.0156" lon="16.10227">
        <ele>273.465267</ele>
        <time>2026-07-08T13:37:28.000Z</time>
      </trkpt>
      <trkpt lat="47.01557" lon="16.10231">
        <ele>273.457824</ele>
        <time>2026-07-08T13:37:29.000Z</time>
      </trkpt>
      <trkpt lat="47.01555" lon="16.10236">
        <ele>273.450842</ele>
        <time>2026-07-08T13:37:30.000Z</time>
      </trkpt>
      <trkpt lat="47.01553" lon="16.10241">
        <ele>273.443772</ele>
        <time>2026-07-08T13:37:31.000Z</time>
      </trkpt>
      <trkpt lat="47.01552" lon="16.10247">
        <ele>273.436456</ele>
        <time>2026-07-08T13:37:32.000Z</time>
      </trkpt>
      <trkpt lat="47.01551" lon="16.10253">
        <ele>273.428724</ele>
        <time>2026-07-08T13:37:33.000Z</time>
      </trkpt>
      <trkpt lat="47.0155" lon="16.10259">
        <ele>273.420829</ele>
        <time>2026-07-08T13:37:34.000Z</time>
      </trkpt>
      <trkpt lat="47.01548" lon="16.10266">
        <ele>273.412546</ele>
        <time>2026-07-08T13:37:35.000Z</time>
      </trkpt>
      <trkpt lat="47.01547" lon="16.10273">
        <ele>273.404035</ele>
        <time>2026-07-08T13:37:36.000Z</time>
      </trkpt>
      <trkpt lat="47.01545" lon="16.10279">
        <ele>273.395632</ele>
        <time>2026-07-08T13:37:37.000Z</time>
      </trkpt>
      <trkpt lat="47.01543" lon="16.10286">
        <ele>273.38735</ele>
        <time>2026-07-08T13:37:38.000Z</time>
      </trkpt>
      <trkpt lat="47.01542" lon="16.10292">
        <ele>273.379105</ele>
        <time>2026-07-08T13:37:39.000Z</time>
      </trkpt>
      <trkpt lat="47.01539" lon="16.10297">
        <ele>273.370925</ele>
        <time>2026-07-08T13:37:40.000Z</time>
      </trkpt>
      <trkpt lat="47.01535" lon="16.10301">
        <ele>273.36307</ele>
        <time>2026-07-08T13:37:41.000Z</time>
      </trkpt>
      <trkpt lat="47.01531" lon="16.10303">
        <ele>273.355421</ele>
        <time>2026-07-08T13:37:42.000Z</time>
      </trkpt>
      <trkpt lat="47.01527" lon="16.10303">
        <ele>273.347924</ele>
        <time>2026-07-08T13:37:43.000Z</time>
      </trkpt>
      <trkpt lat="47.01523" lon="16.103">
        <ele>273.340551</ele>
        <time>2026-07-08T13:37:44.000Z</time>
      </trkpt>
      <trkpt lat="47.01519" lon="16.10297">
        <ele>273.33258</ele>
        <time>2026-07-08T13:37:45.000Z</time>
      </trkpt>
      <trkpt lat="47.01516" lon="16.10293">
        <ele>273.324934</ele>
        <time>2026-07-08T13:37:46.000Z</time>
      </trkpt>
      <trkpt lat="47.01512" lon="16.1029">
        <ele>273.317007</ele>
        <time>2026-07-08T13:37:47.000Z</time>
      </trkpt>
      <trkpt lat="47.01508" lon="16.10286">
        <ele>273.308635</ele>
        <time>2026-07-08T13:37:48.000Z</time>
      </trkpt>
      <trkpt lat="47.01504" lon="16.10282">
        <ele>273.300084</ele>
        <time>2026-07-08T13:37:49.000Z</time>
      </trkpt>
      <trkpt lat="47.015" lon="16.10279">
        <ele>273.291918</ele>
        <time>2026-07-08T13:37:50.000Z</time>
      </trkpt>
      <trkpt lat="47.01495" lon="16.10276">
        <ele>273.283224</ele>
        <time>2026-07-08T13:37:51.000Z</time>
      </trkpt>
      <trkpt lat="47.01491" lon="16.10273">
        <ele>273.274633</ele>
        <time>2026-07-08T13:37:52.000Z</time>
      </trkpt>
      <trkpt lat="47.01487" lon="16.10269">
        <ele>273.265927</ele>
        <time>2026-07-08T13:37:53.000Z</time>
      </trkpt>
      <trkpt lat="47.01482" lon="16.10266">
        <ele>273.257123</ele>
        <time>2026-07-08T13:37:54.000Z</time>
      </trkpt>
      <trkpt lat="47.01478" lon="16.10263">
        <ele>273.248285</ele>
        <time>2026-07-08T13:37:55.000Z</time>
      </trkpt>
      <trkpt lat="47.01473" lon="16.10262">
        <ele>273.234899</ele>
        <time>2026-07-08T13:37:56.000Z</time>
      </trkpt>
      <trkpt lat="47.01469" lon="16.10262">
        <ele>273.221534</ele>
        <time>2026-07-08T13:37:57.000Z</time>
      </trkpt>
      <trkpt lat="47.01464" lon="16.10265">
        <ele>273.207865</ele>
        <time>2026-07-08T13:37:58.000Z</time>
      </trkpt>
      <trkpt lat="47.0146" lon="16.10268">
        <ele>273.194799</ele>
        <time>2026-07-08T13:37:59.000Z</time>
      </trkpt>
      <trkpt lat="47.01457" lon="16.10273">
        <ele>273.181517</ele>
        <time>2026-07-08T13:38:00.000Z</time>
      </trkpt>
      <trkpt lat="47.01454" lon="16.10279">
        <ele>273.16839</ele>
        <time>2026-07-08T13:38:01.000Z</time>
      </trkpt>
      <trkpt lat="47.01452" lon="16.10285">
        <ele>273.155107</ele>
        <time>2026-07-08T13:38:02.000Z</time>
      </trkpt>
      <trkpt lat="47.01449" lon="16.1029">
        <ele>273.142304</ele>
        <time>2026-07-08T13:38:03.000Z</time>
      </trkpt>
      <trkpt lat="47.01446" lon="16.10296">
        <ele>273.128373</ele>
        <time>2026-07-08T13:38:04.000Z</time>
      </trkpt>
      <trkpt lat="47.01444" lon="16.10302">
        <ele>273.114766</ele>
        <time>2026-07-08T13:38:05.000Z</time>
      </trkpt>
      <trkpt lat="47.01441" lon="16.10307">
        <ele>273.101482</ele>
        <time>2026-07-08T13:38:06.000Z</time>
      </trkpt>
      <trkpt lat="47.01438" lon="16.10313">
        <ele>273.087719</ele>
        <time>2026-07-08T13:38:07.000Z</time>
      </trkpt>
      <trkpt lat="47.01436" lon="16.10319">
        <ele>273.074099</ele>
        <time>2026-07-08T13:38:08.000Z</time>
      </trkpt>
      <trkpt lat="47.01433" lon="16.10325">
        <ele>273.060655</ele>
        <time>2026-07-08T13:38:09.000Z</time>
      </trkpt>
      <trkpt lat="47.01431" lon="16.10331">
        <ele>273.047052</ele>
        <time>2026-07-08T13:38:10.000Z</time>
      </trkpt>
      <trkpt lat="47.01428" lon="16.10337">
        <ele>273.033289</ele>
        <time>2026-07-08T13:38:11.000Z</time>
      </trkpt>
      <trkpt lat="47.01425" lon="16.10343">
        <ele>273.019999</ele>
        <time>2026-07-08T13:38:12.000Z</time>
      </trkpt>
      <trkpt lat="47.01423" lon="16.10348">
        <ele>273.006391</ele>
        <time>2026-07-08T13:38:13.000Z</time>
      </trkpt>
      <trkpt lat="47.0142" lon="16.10354">
        <ele>272.992597</ele>
        <time>2026-07-08T13:38:14.000Z</time>
      </trkpt>
      <trkpt lat="47.01417" lon="16.1036">
        <ele>272.978186</ele>
        <time>2026-07-08T13:38:15.000Z</time>
      </trkpt>
      <trkpt lat="47.01413" lon="16.10366">
        <ele>272.963125</ele>
        <time>2026-07-08T13:38:16.000Z</time>
      </trkpt>
      <trkpt lat="47.0141" lon="16.10372">
        <ele>272.948241</ele>
        <time>2026-07-08T13:38:17.000Z</time>
      </trkpt>
      <trkpt lat="47.01407" lon="16.10379">
        <ele>272.932877</ele>
        <time>2026-07-08T13:38:18.000Z</time>
      </trkpt>
      <trkpt lat="47.01404" lon="16.10386">
        <ele>272.917505</ele>
        <time>2026-07-08T13:38:19.000Z</time>
      </trkpt>
      <trkpt lat="47.01401" lon="16.10392">
        <ele>272.902141</ele>
        <time>2026-07-08T13:38:20.000Z</time>
      </trkpt>
      <trkpt lat="47.01398" lon="16.10399">
        <ele>272.886938</ele>
        <time>2026-07-08T13:38:21.000Z</time>
      </trkpt>
      <trkpt lat="47.01395" lon="16.10405">
        <ele>272.872054</ele>
        <time>2026-07-08T13:38:22.000Z</time>
      </trkpt>
      <trkpt lat="47.01392" lon="16.10411">
        <ele>272.857009</ele>
        <time>2026-07-08T13:38:23.000Z</time>
      </trkpt>
      <trkpt lat="47.01389" lon="16.10418">
        <ele>272.842117</ele>
        <time>2026-07-08T13:38:24.000Z</time>
      </trkpt>
      <trkpt lat="47.01386" lon="16.10424">
        <ele>272.827706</ele>
        <time>2026-07-08T13:38:25.000Z</time>
      </trkpt>
      <trkpt lat="47.01384" lon="16.1043">
        <ele>272.813293</ele>
        <time>2026-07-08T13:38:26.000Z</time>
      </trkpt>
      <trkpt lat="47.01381" lon="16.10436">
        <ele>272.799006</ele>
        <time>2026-07-08T13:38:27.000Z</time>
      </trkpt>
      <trkpt lat="47.01378" lon="16.10443">
        <ele>272.784594</ele>
        <time>2026-07-08T13:38:28.000Z</time>
      </trkpt>
      <trkpt lat="47.01376" lon="16.10449">
        <ele>272.770027</ele>
        <time>2026-07-08T13:38:29.000Z</time>
      </trkpt>
      <trkpt lat="47.01373" lon="16.10455">
        <ele>272.754824</ele>
        <time>2026-07-08T13:38:30.000Z</time>
      </trkpt>
      <trkpt lat="47.0137" lon="16.10462">
        <ele>272.739781</ele>
        <time>2026-07-08T13:38:31.000Z</time>
      </trkpt>
      <trkpt lat="47.01367" lon="16.10468">
        <ele>272.719692</ele>
        <time>2026-07-08T13:38:32.000Z</time>
      </trkpt>
      <trkpt lat="47.01364" lon="16.10475">
        <ele>272.69876</ele>
        <time>2026-07-08T13:38:33.000Z</time>
      </trkpt>
      <trkpt lat="47.01361" lon="16.10481">
        <ele>272.678048</ele>
        <time>2026-07-08T13:38:34.000Z</time>
      </trkpt>
      <trkpt lat="47.01357" lon="16.10488">
        <ele>272.657105</ele>
        <time>2026-07-08T13:38:35.000Z</time>
      </trkpt>
      <trkpt lat="47.01354" lon="16.10494">
        <ele>272.636393</ele>
        <time>2026-07-08T13:38:36.000Z</time>
      </trkpt>
      <trkpt lat="47.01351" lon="16.10501">
        <ele>272.615681</ele>
        <time>2026-07-08T13:38:37.000Z</time>
      </trkpt>
      <trkpt lat="47.01349" lon="16.10507">
        <ele>272.595392</ele>
        <time>2026-07-08T13:38:38.000Z</time>
      </trkpt>
      <trkpt lat="47.01346" lon="16.10514">
        <ele>272.575104</ele>
        <time>2026-07-08T13:38:39.000Z</time>
      </trkpt>
      <trkpt lat="47.01343" lon="16.1052">
        <ele>272.555411</ele>
        <time>2026-07-08T13:38:40.000Z</time>
      </trkpt>
      <trkpt lat="47.01341" lon="16.10526">
        <ele>272.53622</ele>
        <time>2026-07-08T13:38:41.000Z</time>
      </trkpt>
      <trkpt lat="47.01338" lon="16.10533">
        <ele>272.517212</ele>
        <time>2026-07-08T13:38:42.000Z</time>
      </trkpt>
      <trkpt lat="47.01335" lon="16.10539">
        <ele>272.497579</ele>
        <time>2026-07-08T13:38:43.000Z</time>
      </trkpt>
      <trkpt lat="47.01332" lon="16.10544">
        <ele>272.478095</ele>
        <time>2026-07-08T13:38:44.000Z</time>
      </trkpt>
      <trkpt lat="47.01329" lon="16.1055">
        <ele>272.458884</ele>
        <time>2026-07-08T13:38:45.000Z</time>
      </trkpt>
      <trkpt lat="47.01326" lon="16.10556">
        <ele>272.439644</ele>
        <time>2026-07-08T13:38:46.000Z</time>
      </trkpt>
      <trkpt lat="47.01323" lon="16.10561">
        <ele>272.420363</ele>
        <time>2026-07-08T13:38:47.000Z</time>
      </trkpt>
      <trkpt lat="47.01319" lon="16.10567">
        <ele>272.401031</ele>
        <time>2026-07-08T13:38:48.000Z</time>
      </trkpt>
      <trkpt lat="47.01316" lon="16.10572">
        <ele>272.381749</ele>
        <time>2026-07-08T13:38:49.000Z</time>
      </trkpt>
      <trkpt lat="47.01312" lon="16.10577">
        <ele>272.361702</ele>
        <time>2026-07-08T13:38:50.000Z</time>
      </trkpt>
      <trkpt lat="47.01308" lon="16.10582">
        <ele>272.341944</ele>
        <time>2026-07-08T13:38:51.000Z</time>
      </trkpt>
      <trkpt lat="47.01304" lon="16.10587">
        <ele>272.321257</ele>
        <time>2026-07-08T13:38:52.000Z</time>
      </trkpt>
      <trkpt lat="47.013" lon="16.10592">
        <ele>272.301499</ele>
        <time>2026-07-08T13:38:53.000Z</time>
      </trkpt>
      <trkpt lat="47.01296" lon="16.10597">
        <ele>272.280564</ele>
        <time>2026-07-08T13:38:54.000Z</time>
      </trkpt>
      <trkpt lat="47.01292" lon="16.10602">
        <ele>272.260277</ele>
        <time>2026-07-08T13:38:55.000Z</time>
      </trkpt>
      <trkpt lat="47.01288" lon="16.10606">
        <ele>272.239833</ele>
        <time>2026-07-08T13:38:56.000Z</time>
      </trkpt>
      <trkpt lat="47.01283" lon="16.10611">
        <ele>272.219541</ele>
        <time>2026-07-08T13:38:57.000Z</time>
      </trkpt>
      <trkpt lat="47.01279" lon="16.10615">
        <ele>272.198628</ele>
        <time>2026-07-08T13:38:58.000Z</time>
      </trkpt>
      <trkpt lat="47.01275" lon="16.1062">
        <ele>272.177873</ele>
        <time>2026-07-08T13:38:59.000Z</time>
      </trkpt>
      <trkpt lat="47.0127" lon="16.10625">
        <ele>272.15696</ele>
        <time>2026-07-08T13:39:00.000Z</time>
      </trkpt>
      <trkpt lat="47.01266" lon="16.10629">
        <ele>272.135881</ele>
        <time>2026-07-08T13:39:01.000Z</time>
      </trkpt>
      <trkpt lat="47.01261" lon="16.10634">
        <ele>272.114802</ele>
        <time>2026-07-08T13:39:02.000Z</time>
      </trkpt>
      <trkpt lat="47.01257" lon="16.10638">
        <ele>272.093723</ele>
        <time>2026-07-08T13:39:03.000Z</time>
      </trkpt>
      <trkpt lat="47.01252" lon="16.10643">
        <ele>272.072791</ele>
        <time>2026-07-08T13:39:04.000Z</time>
      </trkpt>
      <trkpt lat="47.01248" lon="16.10647">
        <ele>272.051712</ele>
        <time>2026-07-08T13:39:05.000Z</time>
      </trkpt>
      <trkpt lat="47.01243" lon="16.10652">
        <ele>272.035298</ele>
        <time>2026-07-08T13:39:06.000Z</time>
      </trkpt>
      <trkpt lat="47.01239" lon="16.10656">
        <ele>272.022904</ele>
        <time>2026-07-08T13:39:07.000Z</time>
      </trkpt>
      <trkpt lat="47.01234" lon="16.10661">
        <ele>272.010422</ele>
        <time>2026-07-08T13:39:08.000Z</time>
      </trkpt>
      <trkpt lat="47.0123" lon="16.10666">
        <ele>271.997851</ele>
        <time>2026-07-08T13:39:09.000Z</time>
      </trkpt>
      <trkpt lat="47.01225" lon="16.1067">
        <ele>271.985279</ele>
        <time>2026-07-08T13:39:10.000Z</time>
      </trkpt>
      <trkpt lat="47.01221" lon="16.10675">
        <ele>271.972885</ele>
        <time>2026-07-08T13:39:11.000Z</time>
      </trkpt>
      <trkpt lat="47.01216" lon="16.10679">
        <ele>271.960589</ele>
        <time>2026-07-08T13:39:12.000Z</time>
      </trkpt>
      <trkpt lat="47.01212" lon="16.10684">
        <ele>271.948195</ele>
        <time>2026-07-08T13:39:13.000Z</time>
      </trkpt>
      <trkpt lat="47.01207" lon="16.10688">
        <ele>271.935801</ele>
        <time>2026-07-08T13:39:14.000Z</time>
      </trkpt>
      <trkpt lat="47.01203" lon="16.10693">
        <ele>271.923598</ele>
        <time>2026-07-08T13:39:16.000Z</time>
      </trkpt>
      <trkpt lat="47.01199" lon="16.10698">
        <ele>271.911204</ele>
        <time>2026-07-08T13:39:17.000Z</time>
      </trkpt>
      <trkpt lat="47.01194" lon="16.10702">
        <ele>271.899183</ele>
        <time>2026-07-08T13:39:18.000Z</time>
      </trkpt>
      <trkpt lat="47.0119" lon="16.10707">
        <ele>271.886796</ele>
        <time>2026-07-08T13:39:19.000Z</time>
      </trkpt>
      <trkpt lat="47.01186" lon="16.10711">
        <ele>271.875049</ele>
        <time>2026-07-08T13:39:20.000Z</time>
      </trkpt>
      <trkpt lat="47.01182" lon="16.10716">
        <ele>271.863386</ele>
        <time>2026-07-08T13:39:21.000Z</time>
      </trkpt>
      <trkpt lat="47.01178" lon="16.10721">
        <ele>271.851269</ele>
        <time>2026-07-08T13:39:22.000Z</time>
      </trkpt>
      <trkpt lat="47.01173" lon="16.10726">
        <ele>271.838878</ele>
        <time>2026-07-08T13:39:23.000Z</time>
      </trkpt>
      <trkpt lat="47.01169" lon="16.1073">
        <ele>271.827041</ele>
        <time>2026-07-08T13:39:24.000Z</time>
      </trkpt>
      <trkpt lat="47.01165" lon="16.10735">
        <ele>271.814744</ele>
        <time>2026-07-08T13:39:25.000Z</time>
      </trkpt>
      <trkpt lat="47.01161" lon="16.1074">
        <ele>271.802628</ele>
        <time>2026-07-08T13:39:26.000Z</time>
      </trkpt>
      <trkpt lat="47.01156" lon="16.10745">
        <ele>271.789874</ele>
        <time>2026-07-08T13:39:27.000Z</time>
      </trkpt>
      <trkpt lat="47.01152" lon="16.10749">
        <ele>271.777853</ele>
        <time>2026-07-08T13:39:28.000Z</time>
      </trkpt>
      <trkpt lat="47.01147" lon="16.10754">
        <ele>271.765557</ele>
        <time>2026-07-08T13:39:29.000Z</time>
      </trkpt>
      <trkpt lat="47.01143" lon="16.10759">
        <ele>271.753165</ele>
        <time>2026-07-08T13:39:30.000Z</time>
      </trkpt>
      <trkpt lat="47.01139" lon="16.10763">
        <ele>271.741054</ele>
        <time>2026-07-08T13:39:31.000Z</time>
      </trkpt>
      <trkpt lat="47.01134" lon="16.10768">
        <ele>271.728847</ele>
        <time>2026-07-08T13:39:32.000Z</time>
      </trkpt>
      <trkpt lat="47.0113" lon="16.10773">
        <ele>271.717184</ele>
        <time>2026-07-08T13:39:33.000Z</time>
      </trkpt>
      <trkpt lat="47.01126" lon="16.10777">
        <ele>271.70552</ele>
        <time>2026-07-08T13:39:34.000Z</time>
      </trkpt>
      <trkpt lat="47.01122" lon="16.10782">
        <ele>271.693759</ele>
        <time>2026-07-08T13:39:35.000Z</time>
      </trkpt>
      <trkpt lat="47.01118" lon="16.10787">
        <ele>271.681738</ele>
        <time>2026-07-08T13:39:36.000Z</time>
      </trkpt>
      <trkpt lat="47.01114" lon="16.10791">
        <ele>271.669601</ele>
        <time>2026-07-08T13:39:37.000Z</time>
      </trkpt>
      <trkpt lat="47.01109" lon="16.10795">
        <ele>271.657379</ele>
        <time>2026-07-08T13:39:38.000Z</time>
      </trkpt>
      <trkpt lat="47.01105" lon="16.108">
        <ele>271.645358</ele>
        <time>2026-07-08T13:39:39.000Z</time>
      </trkpt>
      <trkpt lat="47.01101" lon="16.10805">
        <ele>271.633398</ele>
        <time>2026-07-08T13:39:40.000Z</time>
      </trkpt>
      <trkpt lat="47.01097" lon="16.10809">
        <ele>271.62176</ele>
        <time>2026-07-08T13:39:41.000Z</time>
      </trkpt>
      <trkpt lat="47.01092" lon="16.10814">
        <ele>271.610501</ele>
        <time>2026-07-08T13:39:42.000Z</time>
      </trkpt>
      <trkpt lat="47.01088" lon="16.10818">
        <ele>271.599677</ele>
        <time>2026-07-08T13:39:43.000Z</time>
      </trkpt>
      <trkpt lat="47.01084" lon="16.10822">
        <ele>271.588298</ele>
        <time>2026-07-08T13:39:44.000Z</time>
      </trkpt>
      <trkpt lat="47.0108" lon="16.10826">
        <ele>271.577473</ele>
        <time>2026-07-08T13:39:45.000Z</time>
      </trkpt>
      <trkpt lat="47.01075" lon="16.1083">
        <ele>271.565851</ele>
        <time>2026-07-08T13:39:46.000Z</time>
      </trkpt>
      <trkpt lat="47.01071" lon="16.10834">
        <ele>271.554858</ele>
        <time>2026-07-08T13:39:47.000Z</time>
      </trkpt>
      <trkpt lat="47.01067" lon="16.10838">
        <ele>271.543236</ele>
        <time>2026-07-08T13:39:48.000Z</time>
      </trkpt>
      <trkpt lat="47.01063" lon="16.10843">
        <ele>271.531979</ele>
        <time>2026-07-08T13:39:49.000Z</time>
      </trkpt>
      <trkpt lat="47.01059" lon="16.10848">
        <ele>271.520366</ele>
        <time>2026-07-08T13:39:50.000Z</time>
      </trkpt>
      <trkpt lat="47.01054" lon="16.10852">
        <ele>271.508754</ele>
        <time>2026-07-08T13:39:51.000Z</time>
      </trkpt>
      <trkpt lat="47.0105" lon="16.10857">
        <ele>271.497142</ele>
        <time>2026-07-08T13:39:52.000Z</time>
      </trkpt>
      <trkpt lat="47.01046" lon="16.10861">
        <ele>271.48553</ele>
        <time>2026-07-08T13:39:53.000Z</time>
      </trkpt>
      <trkpt lat="47.01041" lon="16.10866">
        <ele>271.473739</ele>
        <time>2026-07-08T13:39:54.000Z</time>
      </trkpt>
      <trkpt lat="47.01037" lon="16.1087">
        <ele>271.462128</ele>
        <time>2026-07-08T13:39:55.000Z</time>
      </trkpt>
      <trkpt lat="47.01033" lon="16.10875">
        <ele>271.450428</ele>
        <time>2026-07-08T13:39:56.000Z</time>
      </trkpt>
      <trkpt lat="47.01028" lon="16.10879">
        <ele>271.438637</ele>
        <time>2026-07-08T13:39:57.000Z</time>
      </trkpt>
      <trkpt lat="47.01024" lon="16.10884">
        <ele>271.426849</ele>
        <time>2026-07-08T13:39:58.000Z</time>
      </trkpt>
      <trkpt lat="47.0102" lon="16.10889">
        <ele>271.414618</ele>
        <time>2026-07-08T13:39:59.000Z</time>
      </trkpt>
      <trkpt lat="47.01015" lon="16.10894">
        <ele>271.402829</ele>
        <time>2026-07-08T13:40:00.000Z</time>
      </trkpt>
      <trkpt lat="47.01011" lon="16.10898">
        <ele>271.390864</ele>
        <time>2026-07-08T13:40:01.000Z</time>
      </trkpt>
      <trkpt lat="47.01007" lon="16.10903">
        <ele>271.379165</ele>
        <time>2026-07-08T13:40:02.000Z</time>
      </trkpt>
      <trkpt lat="47.01002" lon="16.10907">
        <ele>271.367193</ele>
        <time>2026-07-08T13:40:03.000Z</time>
      </trkpt>
      <trkpt lat="47.00998" lon="16.10912">
        <ele>271.355404</ele>
        <time>2026-07-08T13:40:04.000Z</time>
      </trkpt>
      <trkpt lat="47.00994" lon="16.10917">
        <ele>271.343971</ele>
        <time>2026-07-08T13:40:05.000Z</time>
      </trkpt>
      <trkpt lat="47.00989" lon="16.10921">
        <ele>271.332093</ele>
        <time>2026-07-08T13:40:06.000Z</time>
      </trkpt>
      <trkpt lat="47.00985" lon="16.10926">
        <ele>271.32048</ele>
        <time>2026-07-08T13:40:07.000Z</time>
      </trkpt>
      <trkpt lat="47.00981" lon="16.10931">
        <ele>271.308508</ele>
        <time>2026-07-08T13:40:08.000Z</time>
      </trkpt>
      <trkpt lat="47.00976" lon="16.10935">
        <ele>271.296896</ele>
        <time>2026-07-08T13:40:09.000Z</time>
      </trkpt>
      <trkpt lat="47.00972" lon="16.1094">
        <ele>271.285105</ele>
        <time>2026-07-08T13:40:10.000Z</time>
      </trkpt>
      <trkpt lat="47.00968" lon="16.10944">
        <ele>271.273316</ele>
        <time>2026-07-08T13:40:11.000Z</time>
      </trkpt>
      <trkpt lat="47.00963" lon="16.10949">
        <ele>271.261794</ele>
        <time>2026-07-08T13:40:12.000Z</time>
      </trkpt>
      <trkpt lat="47.00959" lon="16.10953">
        <ele>271.250537</ele>
        <time>2026-07-08T13:40:13.000Z</time>
      </trkpt>
      <trkpt lat="47.00955" lon="16.10958">
        <ele>271.238746</ele>
        <time>2026-07-08T13:40:14.000Z</time>
      </trkpt>
      <trkpt lat="47.00951" lon="16.10962">
        <ele>271.235007</ele>
        <time>2026-07-08T13:40:15.000Z</time>
      </trkpt>
      <trkpt lat="47.00946" lon="16.10966">
        <ele>271.232405</ele>
        <time>2026-07-08T13:40:16.000Z</time>
      </trkpt>
      <trkpt lat="47.00942" lon="16.10971">
        <ele>271.229722</ele>
        <time>2026-07-08T13:40:17.000Z</time>
      </trkpt>
      <trkpt lat="47.00938" lon="16.10975">
        <ele>271.22708</ele>
        <time>2026-07-08T13:40:18.000Z</time>
      </trkpt>
      <trkpt lat="47.00934" lon="16.1098">
        <ele>271.224356</ele>
        <time>2026-07-08T13:40:19.000Z</time>
      </trkpt>
      <trkpt lat="47.00929" lon="16.10985">
        <ele>271.221714</ele>
        <time>2026-07-08T13:40:20.000Z</time>
      </trkpt>
      <trkpt lat="47.00925" lon="16.10989">
        <ele>271.21907</ele>
        <time>2026-07-08T13:40:21.000Z</time>
      </trkpt>
      <trkpt lat="47.00921" lon="16.10993">
        <ele>271.216407</ele>
        <time>2026-07-08T13:40:22.000Z</time>
      </trkpt>
      <trkpt lat="47.00916" lon="16.10998">
        <ele>271.213682</ele>
        <time>2026-07-08T13:40:23.000Z</time>
      </trkpt>
      <trkpt lat="47.00912" lon="16.11002">
        <ele>271.210999</ele>
        <time>2026-07-08T13:40:24.000Z</time>
      </trkpt>
      <trkpt lat="47.00908" lon="16.11007">
        <ele>271.208316</ele>
        <time>2026-07-08T13:40:25.000Z</time>
      </trkpt>
      <trkpt lat="47.00904" lon="16.11012">
        <ele>271.205568</ele>
        <time>2026-07-08T13:40:26.000Z</time>
      </trkpt>
      <trkpt lat="47.009" lon="16.11017">
        <ele>271.20283</ele>
        <time>2026-07-08T13:40:27.000Z</time>
      </trkpt>
      <trkpt lat="47.00896" lon="16.11023">
        <ele>271.200045</ele>
        <time>2026-07-08T13:40:28.000Z</time>
      </trkpt>
      <trkpt lat="47.00892" lon="16.11028">
        <ele>271.197333</ele>
        <time>2026-07-08T13:40:29.000Z</time>
      </trkpt>
      <trkpt lat="47.00888" lon="16.11034">
        <ele>271.194462</ele>
        <time>2026-07-08T13:40:30.000Z</time>
      </trkpt>
      <trkpt lat="47.00885" lon="16.11041">
        <ele>271.191656</ele>
        <time>2026-07-08T13:40:31.000Z</time>
      </trkpt>
      <trkpt lat="47.00881" lon="16.11047">
        <ele>271.188823</ele>
        <time>2026-07-08T13:40:32.000Z</time>
      </trkpt>
      <trkpt lat="47.00878" lon="16.11054">
        <ele>271.18599</ele>
        <time>2026-07-08T13:40:33.000Z</time>
      </trkpt>
      <trkpt lat="47.00875" lon="16.11061">
        <ele>271.183128</ele>
        <time>2026-07-08T13:40:34.000Z</time>
      </trkpt>
      <trkpt lat="47.00872" lon="16.11068">
        <ele>271.180264</ele>
        <time>2026-07-08T13:40:35.000Z</time>
      </trkpt>
      <trkpt lat="47.00869" lon="16.11075">
        <ele>271.177394</ele>
        <time>2026-07-08T13:40:36.000Z</time>
      </trkpt>
      <trkpt lat="47.00867" lon="16.11082">
        <ele>271.174517</ele>
        <time>2026-07-08T13:40:37.000Z</time>
      </trkpt>
      <trkpt lat="47.00864" lon="16.11089">
        <ele>271.171732</ele>
        <time>2026-07-08T13:40:38.000Z</time>
      </trkpt>
      <trkpt lat="47.00861" lon="16.11097">
        <ele>271.16881</ele>
        <time>2026-07-08T13:40:39.000Z</time>
      </trkpt>
      <trkpt lat="47.00858" lon="16.11104">
        <ele>271.165939</ele>
        <time>2026-07-08T13:40:40.000Z</time>
      </trkpt>
      <trkpt lat="47.00855" lon="16.11111">
        <ele>271.163038</ele>
        <time>2026-07-08T13:40:41.000Z</time>
      </trkpt>
      <trkpt lat="47.00853" lon="16.11118">
        <ele>271.160162</ele>
        <time>2026-07-08T13:40:42.000Z</time>
      </trkpt>
      <trkpt lat="47.0085" lon="16.11126">
        <ele>271.15725</ele>
        <time>2026-07-08T13:40:43.000Z</time>
      </trkpt>
      <trkpt lat="47.00848" lon="16.11134">
        <ele>271.154286</ele>
        <time>2026-07-08T13:40:44.000Z</time>
      </trkpt>
      <trkpt lat="47.00846" lon="16.11142">
        <ele>271.151375</ele>
        <time>2026-07-08T13:40:45.000Z</time>
      </trkpt>
      <trkpt lat="47.00843" lon="16.11149">
        <ele>271.148431</ele>
        <time>2026-07-08T13:40:46.000Z</time>
      </trkpt>
      <trkpt lat="47.00841" lon="16.11157">
        <ele>271.147898</ele>
        <time>2026-07-08T13:40:47.000Z</time>
      </trkpt>
      <trkpt lat="47.00839" lon="16.11165">
        <ele>271.159397</ele>
        <time>2026-07-08T13:40:48.000Z</time>
      </trkpt>
      <trkpt lat="47.00836" lon="16.11173">
        <ele>271.170693</ele>
        <time>2026-07-08T13:40:49.000Z</time>
      </trkpt>
      <trkpt lat="47.00834" lon="16.1118">
        <ele>271.181716</ele>
        <time>2026-07-08T13:40:50.000Z</time>
      </trkpt>
      <trkpt lat="47.00833" lon="16.11188">
        <ele>271.19273</ele>
        <time>2026-07-08T13:40:51.000Z</time>
      </trkpt>
      <trkpt lat="47.00831" lon="16.11196">
        <ele>271.204005</ele>
        <time>2026-07-08T13:40:52.000Z</time>
      </trkpt>
      <trkpt lat="47.00829" lon="16.11204">
        <ele>271.215407</ele>
        <time>2026-07-08T13:40:53.000Z</time>
      </trkpt>
      <trkpt lat="47.00827" lon="16.11212">
        <ele>271.226746</ele>
        <time>2026-07-08T13:40:54.000Z</time>
      </trkpt>
      <trkpt lat="47.00825" lon="16.1122">
        <ele>271.237972</ele>
        <time>2026-07-08T13:40:55.000Z</time>
      </trkpt>
      <trkpt lat="47.00825" lon="16.11228">
        <ele>271.248862</ele>
        <time>2026-07-08T13:40:56.000Z</time>
      </trkpt>
      <trkpt lat="47.00825" lon="16.11236">
        <ele>271.26037</ele>
        <time>2026-07-08T13:40:57.000Z</time>
      </trkpt>
      <trkpt lat="47.00825" lon="16.11245">
        <ele>271.271607</ele>
        <time>2026-07-08T13:40:58.000Z</time>
      </trkpt>
      <trkpt lat="47.00825" lon="16.11253">
        <ele>271.282854</ele>
        <time>2026-07-08T13:40:59.000Z</time>
      </trkpt>
      <trkpt lat="47.00825" lon="16.11261">
        <ele>271.294235</ele>
        <time>2026-07-08T13:41:00.000Z</time>
      </trkpt>
      <trkpt lat="47.00826" lon="16.1127">
        <ele>271.305551</ele>
        <time>2026-07-08T13:41:01.000Z</time>
      </trkpt>
      <trkpt lat="47.00827" lon="16.11278">
        <ele>271.316465</ele>
        <time>2026-07-08T13:41:02.000Z</time>
      </trkpt>
      <trkpt lat="47.00827" lon="16.11285">
        <ele>271.326414</ele>
        <time>2026-07-08T13:41:03.000Z</time>
      </trkpt>
      <trkpt lat="47.00827" lon="16.11291">
        <ele>271.334554</ele>
        <time>2026-07-08T13:41:04.000Z</time>
      </trkpt>
      <trkpt lat="47.00825" lon="16.11295">
        <ele>271.341039</ele>
        <time>2026-07-08T13:41:05.000Z</time>
      </trkpt>
      <trkpt lat="47.00823" lon="16.11297">
        <ele>271.346824</ele>
        <time>2026-07-08T13:41:06.000Z</time>
      </trkpt>
      <trkpt lat="47.0082" lon="16.11297">
        <ele>271.352783</ele>
        <time>2026-07-08T13:41:07.000Z</time>
      </trkpt>
      <trkpt lat="47.00817" lon="16.11295">
        <ele>271.358726</ele>
        <time>2026-07-08T13:41:08.000Z</time>
      </trkpt>
      <trkpt lat="47.00814" lon="16.11293">
        <ele>271.365062</ele>
        <time>2026-07-08T13:41:09.000Z</time>
      </trkpt>
      <trkpt lat="47.00812" lon="16.1129">
        <ele>271.371711</ele>
        <time>2026-07-08T13:41:10.000Z</time>
      </trkpt>
      <trkpt lat="47.00809" lon="16.11286">
        <ele>271.378862</ele>
        <time>2026-07-08T13:41:11.000Z</time>
      </trkpt>
      <trkpt lat="47.00806" lon="16.11283">
        <ele>271.386341</ele>
        <time>2026-07-08T13:41:12.000Z</time>
      </trkpt>
      <trkpt lat="47.00803" lon="16.11279">
        <ele>271.394427</ele>
        <time>2026-07-08T13:41:13.000Z</time>
      </trkpt>
      <trkpt lat="47.008" lon="16.11275">
        <ele>271.402597</ele>
        <time>2026-07-08T13:41:14.000Z</time>
      </trkpt>
      <trkpt lat="47.00797" lon="16.11271">
        <ele>271.410528</ele>
        <time>2026-07-08T13:41:15.000Z</time>
      </trkpt>
      <trkpt lat="47.00793" lon="16.11267">
        <ele>271.419178</ele>
        <time>2026-07-08T13:41:16.000Z</time>
      </trkpt>
      <trkpt lat="47.0079" lon="16.11264">
        <ele>271.427503</ele>
        <time>2026-07-08T13:41:17.000Z</time>
      </trkpt>
      <trkpt lat="47.00787" lon="16.1126">
        <ele>271.436144</ele>
        <time>2026-07-08T13:41:18.000Z</time>
      </trkpt>
      <trkpt lat="47.00783" lon="16.11256">
        <ele>271.444554</ele>
        <time>2026-07-08T13:41:19.000Z</time>
      </trkpt>
      <trkpt lat="47.0078" lon="16.11252">
        <ele>271.453196</ele>
        <time>2026-07-08T13:41:20.000Z</time>
      </trkpt>
      <trkpt lat="47.00776" lon="16.11248">
        <ele>271.461597</ele>
        <time>2026-07-08T13:41:21.000Z</time>
      </trkpt>
      <trkpt lat="47.00773" lon="16.11245">
        <ele>271.47008</ele>
        <time>2026-07-08T13:41:22.000Z</time>
      </trkpt>
      <trkpt lat="47.0077" lon="16.11241">
        <ele>271.47849</ele>
        <time>2026-07-08T13:41:23.000Z</time>
      </trkpt>
      <trkpt lat="47.00766" lon="16.11237">
        <ele>271.486816</ele>
        <time>2026-07-08T13:41:24.000Z</time>
      </trkpt>
      <trkpt lat="47.00763" lon="16.11233">
        <ele>271.495159</ele>
        <time>2026-07-08T13:41:25.000Z</time>
      </trkpt>
      <trkpt lat="47.0076" lon="16.11229">
        <ele>271.508782</ele>
        <time>2026-07-08T13:41:26.000Z</time>
      </trkpt>
      <trkpt lat="47.00756" lon="16.11225">
        <ele>271.570867</ele>
        <time>2026-07-08T13:41:27.000Z</time>
      </trkpt>
      <trkpt lat="47.00753" lon="16.11222">
        <ele>271.631196</ele>
        <time>2026-07-08T13:41:28.000Z</time>
      </trkpt>
      <trkpt lat="47.0075" lon="16.11218">
        <ele>271.693858</ele>
        <time>2026-07-08T13:41:29.000Z</time>
      </trkpt>
      <trkpt lat="47.00746" lon="16.11214">
        <ele>271.754793</ele>
        <time>2026-07-08T13:41:30.000Z</time>
      </trkpt>
      <trkpt lat="47.00743" lon="16.1121">
        <ele>271.814594</ele>
        <time>2026-07-08T13:41:31.000Z</time>
      </trkpt>
      <trkpt lat="47.0074" lon="16.11207">
        <ele>271.870844</ele>
        <time>2026-07-08T13:41:32.000Z</time>
      </trkpt>
      <trkpt lat="47.00736" lon="16.11205">
        <ele>271.926546</ele>
        <time>2026-07-08T13:41:33.000Z</time>
      </trkpt>
      <trkpt lat="47.00733" lon="16.11203">
        <ele>271.979234</ele>
        <time>2026-07-08T13:41:34.000Z</time>
      </trkpt>
      <trkpt lat="47.00729" lon="16.11203">
        <ele>272.031517</ele>
        <time>2026-07-08T13:41:35.000Z</time>
      </trkpt>
      <trkpt lat="47.00726" lon="16.11205">
        <ele>272.084474</ele>
        <time>2026-07-08T13:41:36.000Z</time>
      </trkpt>
      <trkpt lat="47.00723" lon="16.11207">
        <ele>272.137132</ele>
        <time>2026-07-08T13:41:37.000Z</time>
      </trkpt>
      <trkpt lat="47.00719" lon="16.1121">
        <ele>272.193672</ele>
        <time>2026-07-08T13:41:38.000Z</time>
      </trkpt>
      <trkpt lat="47.00715" lon="16.11211">
        <ele>272.253634</ele>
        <time>2026-07-08T13:41:39.000Z</time>
      </trkpt>
      <trkpt lat="47.00711" lon="16.11212">
        <ele>272.314663</ele>
        <time>2026-07-08T13:41:40.000Z</time>
      </trkpt>
      <trkpt lat="47.00707" lon="16.11212">
        <ele>272.37279</ele>
        <time>2026-07-08T13:41:41.000Z</time>
      </trkpt>
      <trkpt lat="47.00703" lon="16.11213">
        <ele>272.431895</ele>
        <time>2026-07-08T13:41:42.000Z</time>
      </trkpt>
      <trkpt lat="47.00699" lon="16.11215">
        <ele>272.491228</ele>
        <time>2026-07-08T13:41:43.000Z</time>
      </trkpt>
      <trkpt lat="47.00695" lon="16.11218">
        <ele>272.551715</ele>
        <time>2026-07-08T13:41:44.000Z</time>
      </trkpt>
      <trkpt lat="47.00691" lon="16.1122">
        <ele>272.612401</ele>
        <time>2026-07-08T13:41:45.000Z</time>
      </trkpt>
      <trkpt lat="47.00687" lon="16.11222">
        <ele>272.674105</ele>
        <time>2026-07-08T13:41:46.000Z</time>
      </trkpt>
      <trkpt lat="47.00684" lon="16.11224">
        <ele>272.732739</ele>
        <time>2026-07-08T13:41:47.000Z</time>
      </trkpt>
      <trkpt lat="47.0068" lon="16.11225">
        <ele>272.789892</ele>
        <time>2026-07-08T13:41:48.000Z</time>
      </trkpt>
      <trkpt lat="47.00676" lon="16.11227">
        <ele>272.848448</ele>
        <time>2026-07-08T13:41:49.000Z</time>
      </trkpt>
      <trkpt lat="47.00672" lon="16.11228">
        <ele>272.90841</ele>
        <time>2026-07-08T13:41:50.000Z</time>
      </trkpt>
      <trkpt lat="47.00668" lon="16.1123">
        <ele>272.965562</ele>
        <time>2026-07-08T13:41:51.000Z</time>
      </trkpt>
      <trkpt lat="47.00664" lon="16.11232">
        <ele>273.023261</ele>
        <time>2026-07-08T13:41:52.000Z</time>
      </trkpt>
      <trkpt lat="47.0066" lon="16.11233">
        <ele>273.08235</ele>
        <time>2026-07-08T13:41:53.000Z</time>
      </trkpt>
      <trkpt lat="47.00656" lon="16.11235">
        <ele>273.143117</ele>
        <time>2026-07-08T13:41:54.000Z</time>
      </trkpt>
      <trkpt lat="47.00653" lon="16.11237">
        <ele>273.201751</ele>
        <time>2026-07-08T13:41:55.000Z</time>
      </trkpt>
      <trkpt lat="47.00649" lon="16.11239">
        <ele>273.259747</ele>
        <time>2026-07-08T13:41:56.000Z</time>
      </trkpt>
      <trkpt lat="47.00645" lon="16.11241">
        <ele>273.316682</ele>
        <time>2026-07-08T13:41:57.000Z</time>
      </trkpt>
      <trkpt lat="47.00642" lon="16.11243">
        <ele>273.36854</ele>
        <time>2026-07-08T13:41:58.000Z</time>
      </trkpt>
      <trkpt lat="47.00638" lon="16.11245">
        <ele>273.422406</ele>
        <time>2026-07-08T13:41:59.000Z</time>
      </trkpt>
      <trkpt lat="47.00635" lon="16.11246">
        <ele>273.476273</ele>
        <time>2026-07-08T13:42:00.000Z</time>
      </trkpt>
      <trkpt lat="47.00631" lon="16.11248">
        <ele>273.529819</ele>
        <time>2026-07-08T13:42:01.000Z</time>
      </trkpt>
      <trkpt lat="47.00628" lon="16.1125">
        <ele>273.583686</ele>
        <time>2026-07-08T13:42:02.000Z</time>
      </trkpt>
      <trkpt lat="47.00624" lon="16.11252">
        <ele>273.640956</ele>
        <time>2026-07-08T13:42:03.000Z</time>
      </trkpt>
      <trkpt lat="47.0062" lon="16.11254">
        <ele>273.698226</ele>
        <time>2026-07-08T13:42:04.000Z</time>
      </trkpt>
      <trkpt lat="47.00617" lon="16.11256">
        <ele>273.756533</ele>
        <time>2026-07-08T13:42:05.000Z</time>
      </trkpt>
      <trkpt lat="47.00613" lon="16.11258">
        <ele>273.81551</ele>
        <time>2026-07-08T13:42:06.000Z</time>
      </trkpt>
      <trkpt lat="47.00609" lon="16.1126">
        <ele>273.875194</ele>
        <time>2026-07-08T13:42:07.000Z</time>
      </trkpt>
      <trkpt lat="47.00605" lon="16.11262">
        <ele>273.93319</ele>
        <time>2026-07-08T13:42:08.000Z</time>
      </trkpt>
      <trkpt lat="47.00601" lon="16.11263">
        <ele>273.991186</ele>
        <time>2026-07-08T13:42:09.000Z</time>
      </trkpt>
      <trkpt lat="47.00597" lon="16.11265">
        <ele>274.050275</ele>
        <time>2026-07-08T13:42:10.000Z</time>
      </trkpt>
      <trkpt lat="47.00594" lon="16.11267">
        <ele>274.10891</ele>
        <time>2026-07-08T13:42:11.000Z</time>
      </trkpt>
      <trkpt lat="47.0059" lon="16.11269">
        <ele>274.13005</ele>
        <time>2026-07-08T13:42:12.000Z</time>
      </trkpt>
      <trkpt lat="47.00586" lon="16.11271">
        <ele>274.146158</ele>
        <time>2026-07-08T13:42:13.000Z</time>
      </trkpt>
      <trkpt lat="47.00582" lon="16.11273">
        <ele>274.162829</ele>
        <time>2026-07-08T13:42:14.000Z</time>
      </trkpt>
      <trkpt lat="47.00578" lon="16.11275">
        <ele>274.179874</ele>
        <time>2026-07-08T13:42:15.000Z</time>
      </trkpt>
      <trkpt lat="47.00574" lon="16.11278">
        <ele>274.196275</ele>
        <time>2026-07-08T13:42:16.000Z</time>
      </trkpt>
      <trkpt lat="47.0057" lon="16.1128">
        <ele>274.212309</ele>
        <time>2026-07-08T13:42:17.000Z</time>
      </trkpt>
      <trkpt lat="47.00567" lon="16.11282">
        <ele>274.228609</ele>
        <time>2026-07-08T13:42:18.000Z</time>
      </trkpt>
      <trkpt lat="47.00563" lon="16.11283">
        <ele>274.244798</ele>
        <time>2026-07-08T13:42:19.000Z</time>
      </trkpt>
      <trkpt lat="47.00559" lon="16.11283">
        <ele>274.260778</ele>
        <time>2026-07-08T13:42:20.000Z</time>
      </trkpt>
      <trkpt lat="47.00555" lon="16.11282">
        <ele>274.276924</ele>
        <time>2026-07-08T13:42:21.000Z</time>
      </trkpt>
      <trkpt lat="47.0055" lon="16.11281">
        <ele>274.29376</ele>
        <time>2026-07-08T13:42:22.000Z</time>
      </trkpt>
      <trkpt lat="47.00547" lon="16.1128">
        <ele>274.309118</ele>
        <time>2026-07-08T13:42:23.000Z</time>
      </trkpt>
      <trkpt lat="47.00543" lon="16.1128">
        <ele>274.325225</ele>
        <time>2026-07-08T13:42:24.000Z</time>
      </trkpt>
      <trkpt lat="47.00539" lon="16.11279">
        <ele>274.340505</ele>
        <time>2026-07-08T13:42:25.000Z</time>
      </trkpt>
      <trkpt lat="47.00535" lon="16.11278">
        <ele>274.356522</ele>
        <time>2026-07-08T13:42:26.000Z</time>
      </trkpt>
      <trkpt lat="47.00531" lon="16.11278">
        <ele>274.372141</ele>
        <time>2026-07-08T13:42:27.000Z</time>
      </trkpt>
      <trkpt lat="47.00527" lon="16.11278">
        <ele>274.387305</ele>
        <time>2026-07-08T13:42:28.000Z</time>
      </trkpt>
      <trkpt lat="47.00523" lon="16.11277">
        <ele>274.402129</ele>
        <time>2026-07-08T13:42:29.000Z</time>
      </trkpt>
      <trkpt lat="47.0052" lon="16.11277">
        <ele>274.417351</ele>
        <time>2026-07-08T13:42:30.000Z</time>
      </trkpt>
      <trkpt lat="47.00516" lon="16.11276">
        <ele>274.432632</ele>
        <time>2026-07-08T13:42:31.000Z</time>
      </trkpt>
      <trkpt lat="47.00512" lon="16.11276">
        <ele>274.448649</ele>
        <time>2026-07-08T13:42:32.000Z</time>
      </trkpt>
      <trkpt lat="47.00508" lon="16.11275">
        <ele>274.464325</ele>
        <time>2026-07-08T13:42:33.000Z</time>
      </trkpt>
      <trkpt lat="47.00504" lon="16.11274">
        <ele>274.480367</ele>
        <time>2026-07-08T13:42:34.000Z</time>
      </trkpt>
      <trkpt lat="47.005" lon="16.11273">
        <ele>274.495725</ele>
        <time>2026-07-08T13:42:35.000Z</time>
      </trkpt>
      <trkpt lat="47.00496" lon="16.11273">
        <ele>274.511831</ele>
        <time>2026-07-08T13:42:36.000Z</time>
      </trkpt>
      <trkpt lat="47.00492" lon="16.11272">
        <ele>274.527112</ele>
        <time>2026-07-08T13:42:37.000Z</time>
      </trkpt>
      <trkpt lat="47.00488" lon="16.11271">
        <ele>274.543218</ele>
        <time>2026-07-08T13:42:38.000Z</time>
      </trkpt>
      <trkpt lat="47.00484" lon="16.1127">
        <ele>274.55893</ele>
        <time>2026-07-08T13:42:39.000Z</time>
      </trkpt>
      <trkpt lat="47.0048" lon="16.1127">
        <ele>274.575398</ele>
        <time>2026-07-08T13:42:40.000Z</time>
      </trkpt>
      <trkpt lat="47.00476" lon="16.11269">
        <ele>274.591505</ele>
        <time>2026-07-08T13:42:41.000Z</time>
      </trkpt>
      <trkpt lat="47.00472" lon="16.11268">
        <ele>274.608482</ele>
        <time>2026-07-08T13:42:42.000Z</time>
      </trkpt>
      <trkpt lat="47.00468" lon="16.11267">
        <ele>274.625458</ele>
        <time>2026-07-08T13:42:43.000Z</time>
      </trkpt>
      <trkpt lat="47.00464" lon="16.11266">
        <ele>274.642041</ele>
        <time>2026-07-08T13:42:44.000Z</time>
      </trkpt>
      <trkpt lat="47.0046" lon="16.11265">
        <ele>274.659017</ele>
        <time>2026-07-08T13:42:45.000Z</time>
      </trkpt>
      <trkpt lat="47.00456" lon="16.11264">
        <ele>274.675207</ele>
        <time>2026-07-08T13:42:46.000Z</time>
      </trkpt>
      <trkpt lat="47.00452" lon="16.11262">
        <ele>274.691614</ele>
        <time>2026-07-08T13:42:47.000Z</time>
      </trkpt>
      <trkpt lat="47.00448" lon="16.11261">
        <ele>274.707017</ele>
        <time>2026-07-08T13:42:48.000Z</time>
      </trkpt>
      <trkpt lat="47.00444" lon="16.1126">
        <ele>274.72208</ele>
        <time>2026-07-08T13:42:49.000Z</time>
      </trkpt>
      <trkpt lat="47.0044" lon="16.11259">
        <ele>274.738225</ele>
        <time>2026-07-08T13:42:50.000Z</time>
      </trkpt>
      <trkpt lat="47.00436" lon="16.11259">
        <ele>274.754242</ele>
        <time>2026-07-08T13:42:51.000Z</time>
      </trkpt>
      <trkpt lat="47.00432" lon="16.11258">
        <ele>274.770259</ele>
        <time>2026-07-08T13:42:52.000Z</time>
      </trkpt>
      <trkpt lat="47.00428" lon="16.11258">
        <ele>274.786276</ele>
        <time>2026-07-08T13:42:53.000Z</time>
      </trkpt>
      <trkpt lat="47.00424" lon="16.11258">
        <ele>274.803053</ele>
        <time>2026-07-08T13:42:54.000Z</time>
      </trkpt>
      <trkpt lat="47.0042" lon="16.11258">
        <ele>274.819411</ele>
        <time>2026-07-08T13:42:55.000Z</time>
      </trkpt>
      <trkpt lat="47.00415" lon="16.11257">
        <ele>274.853719</ele>
        <time>2026-07-08T13:42:56.000Z</time>
      </trkpt>
      <trkpt lat="47.00411" lon="16.11257">
        <ele>274.933508</ele>
        <time>2026-07-08T13:42:57.000Z</time>
      </trkpt>
      <trkpt lat="47.00407" lon="16.11257">
        <ele>275.015404</ele>
        <time>2026-07-08T13:42:58.000Z</time>
      </trkpt>
      <trkpt lat="47.00403" lon="16.11257">
        <ele>275.097225</ele>
        <time>2026-07-08T13:42:59.000Z</time>
      </trkpt>
      <trkpt lat="47.00399" lon="16.11256">
        <ele>275.175158</ele>
        <time>2026-07-08T13:43:00.000Z</time>
      </trkpt>
      <trkpt lat="47.00395" lon="16.11256">
        <ele>275.25498</ele>
        <time>2026-07-08T13:43:01.000Z</time>
      </trkpt>
      <trkpt lat="47.00391" lon="16.11256">
        <ele>275.332858</ele>
        <time>2026-07-08T13:43:02.000Z</time>
      </trkpt>
      <trkpt lat="47.00387" lon="16.11256">
        <ele>275.410791</ele>
        <time>2026-07-08T13:43:03.000Z</time>
      </trkpt>
      <trkpt lat="47.00383" lon="16.11256">
        <ele>275.486678</ele>
        <time>2026-07-08T13:43:04.000Z</time>
      </trkpt>
      <trkpt lat="47.00379" lon="16.11255">
        <ele>275.564555</ele>
        <time>2026-07-08T13:43:05.000Z</time>
      </trkpt>
      <trkpt lat="47.00375" lon="16.11255">
        <ele>275.638495</ele>
        <time>2026-07-08T13:43:06.000Z</time>
      </trkpt>
      <trkpt lat="47.00371" lon="16.11256">
        <ele>275.710539</ele>
        <time>2026-07-08T13:43:07.000Z</time>
      </trkpt>
      <trkpt lat="47.00368" lon="16.11256">
        <ele>275.778642</ele>
        <time>2026-07-08T13:43:08.000Z</time>
      </trkpt>
      <trkpt lat="47.00364" lon="16.11256">
        <ele>275.846797</ele>
        <time>2026-07-08T13:43:09.000Z</time>
      </trkpt>
      <trkpt lat="47.00361" lon="16.11257">
        <ele>275.912365</ele>
        <time>2026-07-08T13:43:10.000Z</time>
      </trkpt>
      <trkpt lat="47.00358" lon="16.11259">
        <ele>275.974498</ele>
        <time>2026-07-08T13:43:11.000Z</time>
      </trkpt>
      <trkpt lat="47.00356" lon="16.11262">
        <ele>276.042766</ele>
        <time>2026-07-08T13:43:12.000Z</time>
      </trkpt>
      <trkpt lat="47.00352" lon="16.11265">
        <ele>276.124929</ele>
        <time>2026-07-08T13:43:13.000Z</time>
      </trkpt>
      <trkpt lat="47.00347" lon="16.11266">
        <ele>276.2112</ele>
        <time>2026-07-08T13:43:14.000Z</time>
      </trkpt>
      <trkpt lat="47.00343" lon="16.11265">
        <ele>276.299122</ele>
        <time>2026-07-08T13:43:15.000Z</time>
      </trkpt>
      <trkpt lat="47.00339" lon="16.11264">
        <ele>276.383837</ele>
        <time>2026-07-08T13:43:16.000Z</time>
      </trkpt>
      <trkpt lat="47.00334" lon="16.11263">
        <ele>276.466429</ele>
        <time>2026-07-08T13:43:17.000Z</time>
      </trkpt>
      <trkpt lat="47.0033" lon="16.11263">
        <ele>276.550477</ele>
        <time>2026-07-08T13:43:18.000Z</time>
      </trkpt>
      <trkpt lat="47.00326" lon="16.11262">
        <ele>276.634994</ele>
        <time>2026-07-08T13:43:19.000Z</time>
      </trkpt>
      <trkpt lat="47.00322" lon="16.11261">
        <ele>276.718518</ele>
        <time>2026-07-08T13:43:20.000Z</time>
      </trkpt>
      <trkpt lat="47.00318" lon="16.11259">
        <ele>276.796221</ele>
        <time>2026-07-08T13:43:21.000Z</time>
      </trkpt>
      <trkpt lat="47.00314" lon="16.11257">
        <ele>276.872951</ele>
        <time>2026-07-08T13:43:22.000Z</time>
      </trkpt>
      <trkpt lat="47.00311" lon="16.11255">
        <ele>276.940177</ele>
        <time>2026-07-08T13:43:23.000Z</time>
      </trkpt>
      <trkpt lat="47.00308" lon="16.11254">
        <ele>276.99976</ele>
        <time>2026-07-08T13:43:24.000Z</time>
      </trkpt>
      <trkpt lat="47.00305" lon="16.11254">
        <ele>277.059092</ele>
        <time>2026-07-08T13:43:25.000Z</time>
      </trkpt>
      <trkpt lat="47.00302" lon="16.11253">
        <ele>277.11651</ele>
        <time>2026-07-08T13:43:26.000Z</time>
      </trkpt>
      <trkpt lat="47.00299" lon="16.11252">
        <ele>277.168491</ele>
        <time>2026-07-08T13:43:27.000Z</time>
      </trkpt>
      <trkpt lat="47.00296" lon="16.11251">
        <ele>277.225478</ele>
        <time>2026-07-08T13:43:28.000Z</time>
      </trkpt>
      <trkpt lat="47.00293" lon="16.11251">
        <ele>277.284587</ele>
        <time>2026-07-08T13:43:29.000Z</time>
      </trkpt>
      <trkpt lat="47.0029" lon="16.1125">
        <ele>277.345834</ele>
        <time>2026-07-08T13:43:30.000Z</time>
      </trkpt>
      <trkpt lat="47.00287" lon="16.11248">
        <ele>277.411203</ele>
        <time>2026-07-08T13:43:31.000Z</time>
      </trkpt>
      <trkpt lat="47.00284" lon="16.11246">
        <ele>277.482879</ele>
        <time>2026-07-08T13:43:32.000Z</time>
      </trkpt>
      <trkpt lat="47.00281" lon="16.11243">
        <ele>277.553535</ele>
        <time>2026-07-08T13:43:33.000Z</time>
      </trkpt>
      <trkpt lat="47.00278" lon="16.1124">
        <ele>277.621928</ele>
        <time>2026-07-08T13:43:34.000Z</time>
      </trkpt>
      <trkpt lat="47.00276" lon="16.11236">
        <ele>277.684541</ele>
        <time>2026-07-08T13:43:35.000Z</time>
      </trkpt>
      <trkpt lat="47.00273" lon="16.11233">
        <ele>277.745905</ele>
        <time>2026-07-08T13:43:36.000Z</time>
      </trkpt>
      <trkpt lat="47.00271" lon="16.1123">
        <ele>277.807598</ele>
        <time>2026-07-08T13:43:37.000Z</time>
      </trkpt>
      <trkpt lat="47.00269" lon="16.11227">
        <ele>277.865196</ele>
        <time>2026-07-08T13:43:38.000Z</time>
      </trkpt>
      <trkpt lat="47.00267" lon="16.11224">
        <ele>277.916257</ele>
        <time>2026-07-08T13:43:39.000Z</time>
      </trkpt>
      <trkpt lat="47.00266" lon="16.11221">
        <ele>277.966003</ele>
        <time>2026-07-08T13:43:40.000Z</time>
      </trkpt>
      <trkpt lat="47.00264" lon="16.11218">
        <ele>278.014302</ele>
        <time>2026-07-08T13:43:41.000Z</time>
      </trkpt>
      <trkpt lat="47.00263" lon="16.11216">
        <ele>278.05925</ele>
        <time>2026-07-08T13:43:42.000Z</time>
      </trkpt>
      <trkpt lat="47.00261" lon="16.11213">
        <ele>278.107488</ele>
        <time>2026-07-08T13:43:43.000Z</time>
      </trkpt>
      <trkpt lat="47.0026" lon="16.1121">
        <ele>278.152436</ele>
        <time>2026-07-08T13:43:44.000Z</time>
      </trkpt>
      <trkpt lat="47.00259" lon="16.11207">
        <ele>278.195201</ele>
        <time>2026-07-08T13:43:45.000Z</time>
      </trkpt>
      <trkpt lat="47.00258" lon="16.11204">
        <ele>278.239059</ele>
        <time>2026-07-08T13:43:46.000Z</time>
      </trkpt>
      <trkpt lat="47.00256" lon="16.11202">
        <ele>278.279627</ele>
        <time>2026-07-08T13:43:47.000Z</time>
      </trkpt>
      <trkpt lat="47.00255" lon="16.11199">
        <ele>278.320228</ele>
        <time>2026-07-08T13:43:48.000Z</time>
      </trkpt>
      <trkpt lat="47.00254" lon="16.11197">
        <ele>278.466867</ele>
        <time>2026-07-08T13:43:49.000Z</time>
      </trkpt>
      <trkpt lat="47.00254" lon="16.11194">
        <ele>278.656762</ele>
        <time>2026-07-08T13:43:50.000Z</time>
      </trkpt>
      <trkpt lat="47.00253" lon="16.11192">
        <ele>278.832715</ele>
        <time>2026-07-08T13:43:51.000Z</time>
      </trkpt>
      <trkpt lat="47.00252" lon="16.11189">
        <ele>279.010852</ele>
        <time>2026-07-08T13:43:52.000Z</time>
      </trkpt>
      <trkpt lat="47.00251" lon="16.11187">
        <ele>279.181906</ele>
        <time>2026-07-08T13:43:53.000Z</time>
      </trkpt>
      <trkpt lat="47.0025" lon="16.11184">
        <ele>279.368866</ele>
        <time>2026-07-08T13:43:54.000Z</time>
      </trkpt>
      <trkpt lat="47.00249" lon="16.11182">
        <ele>279.547003</ele>
        <time>2026-07-08T13:43:55.000Z</time>
      </trkpt>
      <trkpt lat="47.00248" lon="16.11179">
        <ele>279.733963</ele>
        <time>2026-07-08T13:43:56.000Z</time>
      </trkpt>
      <trkpt lat="47.00247" lon="16.11177">
        <ele>279.932158</ele>
        <time>2026-07-08T13:43:57.000Z</time>
      </trkpt>
      <trkpt lat="47.00246" lon="16.11174">
        <ele>280.130354</ele>
        <time>2026-07-08T13:43:58.000Z</time>
      </trkpt>
      <trkpt lat="47.00245" lon="16.11171">
        <ele>280.322906</ele>
        <time>2026-07-08T13:43:59.000Z</time>
      </trkpt>
      <trkpt lat="47.00244" lon="16.11169">
        <ele>280.509235</ele>
        <time>2026-07-08T13:44:00.000Z</time>
      </trkpt>
      <trkpt lat="47.00244" lon="16.11166">
        <ele>280.69856</ele>
        <time>2026-07-08T13:44:01.000Z</time>
      </trkpt>
      <trkpt lat="47.00243" lon="16.11163">
        <ele>280.879035</ele>
        <time>2026-07-08T13:44:02.000Z</time>
      </trkpt>
      <trkpt lat="47.00242" lon="16.1116">
        <ele>281.072895</ele>
        <time>2026-07-08T13:44:03.000Z</time>
      </trkpt>
      <trkpt lat="47.00242" lon="16.11158">
        <ele>281.247153</ele>
        <time>2026-07-08T13:44:04.000Z</time>
      </trkpt>
      <trkpt lat="47.00241" lon="16.11155">
        <ele>281.437049</ele>
        <time>2026-07-08T13:44:05.000Z</time>
      </trkpt>
      <trkpt lat="47.00241" lon="16.11153">
        <ele>281.605108</ele>
        <time>2026-07-08T13:44:06.000Z</time>
      </trkpt>
      <trkpt lat="47.0024" lon="16.1115">
        <ele>281.791437</ele>
        <time>2026-07-08T13:44:07.000Z</time>
      </trkpt>
      <trkpt lat="47.00239" lon="16.11147">
        <ele>281.969575</ele>
        <time>2026-07-08T13:44:08.000Z</time>
      </trkpt>
      <trkpt lat="47.00238" lon="16.11145">
        <ele>282.143905</ele>
        <time>2026-07-08T13:44:09.000Z</time>
      </trkpt>
      <trkpt lat="47.00238" lon="16.11142">
        <ele>282.320964</ele>
        <time>2026-07-08T13:44:10.000Z</time>
      </trkpt>
      <trkpt lat="47.00237" lon="16.1114">
        <ele>282.507924</ele>
        <time>2026-07-08T13:44:11.000Z</time>
      </trkpt>
      <trkpt lat="47.00236" lon="16.11137">
        <ele>282.690281</ele>
        <time>2026-07-08T13:44:12.000Z</time>
      </trkpt>
      <trkpt lat="47.00235" lon="16.11135">
        <ele>282.877241</ele>
        <time>2026-07-08T13:44:13.000Z</time>
      </trkpt>
      <trkpt lat="47.00234" lon="16.11132">
        <ele>283.049561</ele>
        <time>2026-07-08T13:44:14.000Z</time>
      </trkpt>
      <trkpt lat="47.00233" lon="16.1113">
        <ele>283.246769</ele>
        <time>2026-07-08T13:44:15.000Z</time>
      </trkpt>
      <trkpt lat="47.00232" lon="16.11128">
        <ele>283.427982</ele>
        <time>2026-07-08T13:44:16.000Z</time>
      </trkpt>
      <trkpt lat="47.00231" lon="16.11125">
        <ele>283.603935</ele>
        <time>2026-07-08T13:44:17.000Z</time>
      </trkpt>
      <trkpt lat="47.00229" lon="16.11123">
        <ele>283.804611</ele>
        <time>2026-07-08T13:44:18.000Z</time>
      </trkpt>
      <trkpt lat="47.00228" lon="16.11121">
        <ele>283.991571</ele>
        <time>2026-07-08T13:44:19.000Z</time>
      </trkpt>
      <trkpt lat="47.00227" lon="16.11118">
        <ele>284.185675</ele>
        <time>2026-07-08T13:44:20.000Z</time>
      </trkpt>
      <trkpt lat="47.00226" lon="16.11116">
        <ele>284.356486</ele>
        <time>2026-07-08T13:44:21.000Z</time>
      </trkpt>
      <trkpt lat="47.00224" lon="16.11114">
        <ele>284.548256</ele>
        <time>2026-07-08T13:44:22.000Z</time>
      </trkpt>
      <trkpt lat="47.00223" lon="16.11112">
        <ele>284.742359</ele>
        <time>2026-07-08T13:44:23.000Z</time>
      </trkpt>
      <trkpt lat="47.00221" lon="16.1111">
        <ele>284.934129</ele>
        <time>2026-07-08T13:44:24.000Z</time>
      </trkpt>
      <trkpt lat="47.0022" lon="16.11108">
        <ele>285.117467</ele>
        <time>2026-07-08T13:44:25.000Z</time>
      </trkpt>
      <trkpt lat="47.00219" lon="16.11106">
        <ele>285.28321</ele>
        <time>2026-07-08T13:44:26.000Z</time>
      </trkpt>
      <trkpt lat="47.00217" lon="16.11104">
        <ele>285.463648</ele>
        <time>2026-07-08T13:44:27.000Z</time>
      </trkpt>
      <trkpt lat="47.00216" lon="16.11103">
        <ele>285.643278</ele>
        <time>2026-07-08T13:44:28.000Z</time>
      </trkpt>
      <trkpt lat="47.00214" lon="16.11101">
        <ele>285.830947</ele>
        <time>2026-07-08T13:44:29.000Z</time>
      </trkpt>
      <trkpt lat="47.00213" lon="16.111">
        <ele>285.979786</ele>
        <time>2026-07-08T13:44:30.000Z</time>
      </trkpt>
      <trkpt lat="47.00211" lon="16.11099">
        <ele>286.144599</ele>
        <time>2026-07-08T13:44:31.000Z</time>
      </trkpt>
      <trkpt lat="47.0021" lon="16.11097">
        <ele>286.308608</ele>
        <time>2026-07-08T13:44:32.000Z</time>
      </trkpt>
      <trkpt lat="47.00208" lon="16.11096">
        <ele>286.476795</ele>
        <time>2026-07-08T13:44:33.000Z</time>
      </trkpt>
      <trkpt lat="47.00207" lon="16.11095">
        <ele>286.625633</ele>
        <time>2026-07-08T13:44:34.000Z</time>
      </trkpt>
      <trkpt lat="47.00206" lon="16.11093">
        <ele>286.790446</ele>
        <time>2026-07-08T13:44:35.000Z</time>
      </trkpt>
      <trkpt lat="47.00204" lon="16.11092">
        <ele>286.943012</ele>
        <time>2026-07-08T13:44:36.000Z</time>
      </trkpt>
      <trkpt lat="47.00203" lon="16.1109">
        <ele>287.118465</ele>
        <time>2026-07-08T13:44:37.000Z</time>
      </trkpt>
      <trkpt lat="47.00201" lon="16.11089">
        <ele>287.286652</ele>
        <time>2026-07-08T13:44:38.000Z</time>
      </trkpt>
      <trkpt lat="47.002" lon="16.11088">
        <ele>287.468006</ele>
        <time>2026-07-08T13:44:39.000Z</time>
      </trkpt>
      <trkpt lat="47.00198" lon="16.11087">
        <ele>287.623865</ele>
        <time>2026-07-08T13:44:40.000Z</time>
      </trkpt>
      <trkpt lat="47.00196" lon="16.11086">
        <ele>287.792745</ele>
        <time>2026-07-08T13:44:41.000Z</time>
      </trkpt>
      <trkpt lat="47.00195" lon="16.11085">
        <ele>287.948604</ele>
        <time>2026-07-08T13:44:42.000Z</time>
      </trkpt>
      <trkpt lat="47.00193" lon="16.11084">
        <ele>288.101906</ele>
        <time>2026-07-08T13:44:43.000Z</time>
      </trkpt>
      <trkpt lat="47.00192" lon="16.11083">
        <ele>288.266423</ele>
        <time>2026-07-08T13:44:44.000Z</time>
      </trkpt>
      <trkpt lat="47.0019" lon="16.11082">
        <ele>288.435302</ele>
        <time>2026-07-08T13:44:45.000Z</time>
      </trkpt>
      <trkpt lat="47.00189" lon="16.11081">
        <ele>288.596928</ele>
        <time>2026-07-08T13:44:46.000Z</time>
      </trkpt>
      <trkpt lat="47.00187" lon="16.1108">
        <ele>288.765808</ele>
        <time>2026-07-08T13:44:47.000Z</time>
      </trkpt>
      <trkpt lat="47.00185" lon="16.1108">
        <ele>288.911311</ele>
        <time>2026-07-08T13:44:48.000Z</time>
      </trkpt>
      <trkpt lat="47.00184" lon="16.11079">
        <ele>289.056814</ele>
        <time>2026-07-08T13:44:49.000Z</time>
      </trkpt>
      <trkpt lat="47.00183" lon="16.11079">
        <ele>289.18394</ele>
        <time>2026-07-08T13:44:50.000Z</time>
      </trkpt>
      <trkpt lat="47.00181" lon="16.11078">
        <ele>289.314934</ele>
        <time>2026-07-08T13:44:51.000Z</time>
      </trkpt>
      <trkpt lat="47.0018" lon="16.11077">
        <ele>289.462002</ele>
        <time>2026-07-08T13:44:52.000Z</time>
      </trkpt>
      <trkpt lat="47.00178" lon="16.11077">
        <ele>289.610898</ele>
        <time>2026-07-08T13:44:53.000Z</time>
      </trkpt>
      <trkpt lat="47.00177" lon="16.11076">
        <ele>289.756401</ele>
        <time>2026-07-08T13:44:54.000Z</time>
      </trkpt>
      <trkpt lat="47.00175" lon="16.11076">
        <ele>289.892697</ele>
        <time>2026-07-08T13:44:55.000Z</time>
      </trkpt>
      <trkpt lat="47.00174" lon="16.11075">
        <ele>290.017177</ele>
        <time>2026-07-08T13:44:56.000Z</time>
      </trkpt>
      <trkpt lat="47.00173" lon="16.11075">
        <ele>290.130867</ele>
        <time>2026-07-08T13:44:57.000Z</time>
      </trkpt>
      <trkpt lat="47.00171" lon="16.11076">
        <ele>290.273335</ele>
        <time>2026-07-08T13:44:58.000Z</time>
      </trkpt>
      <trkpt lat="47.0017" lon="16.11075">
        <ele>290.428077</ele>
        <time>2026-07-08T13:44:59.000Z</time>
      </trkpt>
      <trkpt lat="47.00168" lon="16.11075">
        <ele>290.561908</ele>
        <time>2026-07-08T13:45:00.000Z</time>
      </trkpt>
      <trkpt lat="47.00167" lon="16.11074">
        <ele>290.706119</ele>
        <time>2026-07-08T13:45:01.000Z</time>
      </trkpt>
      <trkpt lat="47.00166" lon="16.11075">
        <ele>290.829759</ele>
        <time>2026-07-08T13:45:02.000Z</time>
      </trkpt>
      <trkpt lat="47.00164" lon="16.11074">
        <ele>290.972228</ele>
        <time>2026-07-08T13:45:03.000Z</time>
      </trkpt>
      <trkpt lat="47.00163" lon="16.11074">
        <ele>291.096707</ele>
        <time>2026-07-08T13:45:04.000Z</time>
      </trkpt>
      <trkpt lat="47.00161" lon="16.11074">
        <ele>291.229759</ele>
        <time>2026-07-08T13:45:05.000Z</time>
      </trkpt>
      <trkpt lat="47.0016" lon="16.11074">
        <ele>291.371789</ele>
        <time>2026-07-08T13:45:06.000Z</time>
      </trkpt>
      <trkpt lat="47.00158" lon="16.11074">
        <ele>291.523132</ele>
        <time>2026-07-08T13:45:07.000Z</time>
      </trkpt>
      <trkpt lat="47.00157" lon="16.11074">
        <ele>291.655556</ele>
        <time>2026-07-08T13:45:08.000Z</time>
      </trkpt>
      <trkpt lat="47.00155" lon="16.11073">
        <ele>291.799767</ele>
        <time>2026-07-08T13:45:09.000Z</time>
      </trkpt>
      <trkpt lat="47.00154" lon="16.11073">
        <ele>291.922902</ele>
        <time>2026-07-08T13:45:10.000Z</time>
      </trkpt>
      <trkpt lat="47.00152" lon="16.11073">
        <ele>292.08422</ele>
        <time>2026-07-08T13:45:11.000Z</time>
      </trkpt>
      <trkpt lat="47.00151" lon="16.11073">
        <ele>292.226104</ele>
        <time>2026-07-08T13:45:12.000Z</time>
      </trkpt>
      <trkpt lat="47.0015" lon="16.11073">
        <ele>292.350583</ele>
        <time>2026-07-08T13:45:13.000Z</time>
      </trkpt>
      <trkpt lat="47.00148" lon="16.11073">
        <ele>292.473548</ele>
        <time>2026-07-08T13:45:14.000Z</time>
      </trkpt>
      <trkpt lat="47.00147" lon="16.11073">
        <ele>292.615432</ele>
        <time>2026-07-08T13:45:15.000Z</time>
      </trkpt>
      <trkpt lat="47.00145" lon="16.11073">
        <ele>292.747857</ele>
        <time>2026-07-08T13:45:16.000Z</time>
      </trkpt>
      <trkpt lat="47.00144" lon="16.11073">
        <ele>292.874982</ele>
        <time>2026-07-08T13:45:17.000Z</time>
      </trkpt>
      <trkpt lat="47.00143" lon="16.11074">
        <ele>293.002108</ele>
        <time>2026-07-08T13:45:18.000Z</time>
      </trkpt>
      <trkpt lat="47.00141" lon="16.11074">
        <ele>293.143991</ele>
        <time>2026-07-08T13:45:19.000Z</time>
      </trkpt>
      <trkpt lat="47.0014" lon="16.11074">
        <ele>293.280287</ele>
        <time>2026-07-08T13:45:20.000Z</time>
      </trkpt>
      <trkpt lat="47.00139" lon="16.11075">
        <ele>293.376836</ele>
        <time>2026-07-08T13:45:21.000Z</time>
      </trkpt>
      <trkpt lat="47.00138" lon="16.11075">
        <ele>293.436798</ele>
        <time>2026-07-08T13:45:22.000Z</time>
      </trkpt>
      <trkpt lat="47.00138" lon="16.11075">
        <ele>293.436798</ele>
        <time>2026-07-08T13:45:23.000Z</time>
      </trkpt>
      <trkpt lat="47.00134" lon="16.11078">
        <ele>293.867802</ele>
        <time>2026-07-08T13:46:01.000Z</time>
      </trkpt>
      <trkpt lat="47.00133" lon="16.11078">
        <ele>294.009686</ele>
        <time>2026-07-08T13:46:02.000Z</time>
      </trkpt>
      <trkpt lat="47.00131" lon="16.11079">
        <ele>294.155189</ele>
        <time>2026-07-08T13:46:03.000Z</time>
      </trkpt>
      <trkpt lat="47.0013" lon="16.11079">
        <ele>294.28902</ele>
        <time>2026-07-08T13:46:04.000Z</time>
      </trkpt>
      <trkpt lat="47.00128" lon="16.11079">
        <ele>294.431489</ele>
        <time>2026-07-08T13:46:05.000Z</time>
      </trkpt>
      <trkpt lat="47.00127" lon="16.11079">
        <ele>294.555969</ele>
        <time>2026-07-08T13:46:06.000Z</time>
      </trkpt>
      <trkpt lat="47.00126" lon="16.11079">
        <ele>294.698438</ele>
        <time>2026-07-08T13:46:07.000Z</time>
      </trkpt>
      <trkpt lat="47.00124" lon="16.11078">
        <ele>294.822078</ele>
        <time>2026-07-08T13:46:08.000Z</time>
      </trkpt>
      <trkpt lat="47.00123" lon="16.11079">
        <ele>294.984937</ele>
        <time>2026-07-08T13:46:09.000Z</time>
      </trkpt>
      <trkpt lat="47.00121" lon="16.11079">
        <ele>295.128134</ele>
        <time>2026-07-08T13:46:10.000Z</time>
      </trkpt>
      <trkpt lat="47.0012" lon="16.11079">
        <ele>295.271331</ele>
        <time>2026-07-08T13:46:11.000Z</time>
      </trkpt>
      <trkpt lat="47.00118" lon="16.11079">
        <ele>295.437821</ele>
        <time>2026-07-08T13:46:12.000Z</time>
      </trkpt>
      <trkpt lat="47.00116" lon="16.11079">
        <ele>295.659509</ele>
        <time>2026-07-08T13:46:13.000Z</time>
      </trkpt>
      <trkpt lat="47.00115" lon="16.11079">
        <ele>295.852645</ele>
        <time>2026-07-08T13:46:14.000Z</time>
      </trkpt>
      <trkpt lat="47.00113" lon="16.11079">
        <ele>296.063283</ele>
        <time>2026-07-08T13:46:15.000Z</time>
      </trkpt>
      <trkpt lat="47.00112" lon="16.11079">
        <ele>296.256618</ele>
        <time>2026-07-08T13:46:16.000Z</time>
      </trkpt>
      <trkpt lat="47.0011" lon="16.11079">
        <ele>296.476209</ele>
        <time>2026-07-08T13:46:17.000Z</time>
      </trkpt>
      <trkpt lat="47.00109" lon="16.11079">
        <ele>296.674273</ele>
        <time>2026-07-08T13:46:18.000Z</time>
      </trkpt>
      <trkpt lat="47.00107" lon="16.11079">
        <ele>296.867409</ele>
        <time>2026-07-08T13:46:19.000Z</time>
      </trkpt>
      <trkpt lat="47.00105" lon="16.11079">
        <ele>297.086296</ele>
        <time>2026-07-08T13:46:20.000Z</time>
      </trkpt>
      <trkpt lat="47.00104" lon="16.11078">
        <ele>297.280229</ele>
        <time>2026-07-08T13:46:21.000Z</time>
      </trkpt>
      <trkpt lat="47.00102" lon="16.11079">
        <ele>297.486988</ele>
        <time>2026-07-08T13:46:22.000Z</time>
      </trkpt>
      <trkpt lat="47.00101" lon="16.11079">
        <ele>297.705876</ele>
        <time>2026-07-08T13:46:23.000Z</time>
      </trkpt>
      <trkpt lat="47.00099" lon="16.11079">
        <ele>297.899011</ele>
        <time>2026-07-08T13:46:24.000Z</time>
      </trkpt>
      <trkpt lat="47.00098" lon="16.11079">
        <ele>298.066396</ele>
        <time>2026-07-08T13:46:25.000Z</time>
      </trkpt>
      <trkpt lat="47.00096" lon="16.11079">
        <ele>298.260329</ele>
        <time>2026-07-08T13:46:26.000Z</time>
      </trkpt>
      <trkpt lat="47.00095" lon="16.11079">
        <ele>298.479392</ele>
        <time>2026-07-08T13:46:27.000Z</time>
      </trkpt>
      <trkpt lat="47.00093" lon="16.11079">
        <ele>298.672528</ele>
        <time>2026-07-08T13:46:28.000Z</time>
      </trkpt>
      <trkpt lat="47.00091" lon="16.11079">
        <ele>298.892119</ele>
        <time>2026-07-08T13:46:29.000Z</time>
      </trkpt>
      <trkpt lat="47.0009" lon="16.11079">
        <ele>299.098878</ele>
        <time>2026-07-08T13:46:30.000Z</time>
      </trkpt>
      <trkpt lat="47.00088" lon="16.11079">
        <ele>299.292214</ele>
        <time>2026-07-08T13:46:31.000Z</time>
      </trkpt>
      <trkpt lat="47.00087" lon="16.1108">
        <ele>299.511805</ele>
        <time>2026-07-08T13:46:32.000Z</time>
      </trkpt>
      <trkpt lat="47.00085" lon="16.1108">
        <ele>299.730692</ele>
        <time>2026-07-08T13:46:33.000Z</time>
      </trkpt>
      <trkpt lat="47.00083" lon="16.1108">
        <ele>299.937451</ele>
        <time>2026-07-08T13:46:34.000Z</time>
      </trkpt>
      <trkpt lat="47.00082" lon="16.1108">
        <ele>300.130786</ele>
        <time>2026-07-08T13:46:35.000Z</time>
      </trkpt>
      <trkpt lat="47.0008" lon="16.1108">
        <ele>300.324719</ele>
        <time>2026-07-08T13:46:36.000Z</time>
      </trkpt>
      <trkpt lat="47.00079" lon="16.1108">
        <ele>300.519644</ele>
        <time>2026-07-08T13:46:37.000Z</time>
      </trkpt>
      <trkpt lat="47.00077" lon="16.11081">
        <ele>300.742891</ele>
        <time>2026-07-08T13:46:38.000Z</time>
      </trkpt>
      <trkpt lat="47.00076" lon="16.11081">
        <ele>300.939195</ele>
        <time>2026-07-08T13:46:39.000Z</time>
      </trkpt>
      <trkpt lat="47.00074" lon="16.11082">
        <ele>301.134119</ele>
        <time>2026-07-08T13:46:40.000Z</time>
      </trkpt>
      <trkpt lat="47.00073" lon="16.11082">
        <ele>301.302423</ele>
        <time>2026-07-08T13:46:41.000Z</time>
      </trkpt>
      <trkpt lat="47.00071" lon="16.11082">
        <ele>301.500486</ele>
        <time>2026-07-08T13:46:42.000Z</time>
      </trkpt>
      <trkpt lat="47.0007" lon="16.11083">
        <ele>301.723734</ele>
        <time>2026-07-08T13:46:43.000Z</time>
      </trkpt>
      <trkpt lat="47.00068" lon="16.11083">
        <ele>301.923927</ele>
        <time>2026-07-08T13:46:44.000Z</time>
      </trkpt>
      <trkpt lat="47.00067" lon="16.11084">
        <ele>302.096974</ele>
        <time>2026-07-08T13:46:45.000Z</time>
      </trkpt>
      <trkpt lat="47.00065" lon="16.11084">
        <ele>302.278088</ele>
        <time>2026-07-08T13:46:46.000Z</time>
      </trkpt>
      <trkpt lat="47.00064" lon="16.11084">
        <ele>302.445472</ele>
        <time>2026-07-08T13:46:47.000Z</time>
      </trkpt>
      <trkpt lat="47.00063" lon="16.11085">
        <ele>302.623786</ele>
        <time>2026-07-08T13:46:48.000Z</time>
      </trkpt>
      <trkpt lat="47.00061" lon="16.11085">
        <ele>302.82185</ele>
        <time>2026-07-08T13:46:49.000Z</time>
      </trkpt>
      <trkpt lat="47.0006" lon="16.11085">
        <ele>302.976608</ele>
        <time>2026-07-08T13:46:50.000Z</time>
      </trkpt>
      <trkpt lat="47.0006" lon="16.11085">
        <ele>303.016221</ele>
        <time>2026-07-08T13:46:51.000Z</time>
      </trkpt>
      <trkpt lat="47.0006" lon="16.11085">
        <ele>303.016221</ele>
        <time>2026-07-08T13:46:52.000Z</time>
      </trkpt>
      <trkpt lat="47.00056" lon="16.11087">
        <ele>303.55007</ele>
        <time>2026-07-08T13:47:14.000Z</time>
      </trkpt>
      <trkpt lat="47.00054" lon="16.11087">
        <ele>303.746374</ele>
        <time>2026-07-08T13:47:15.000Z</time>
      </trkpt>
      <trkpt lat="47.00053" lon="16.11088">
        <ele>303.941298</ele>
        <time>2026-07-08T13:47:16.000Z</time>
      </trkpt>
      <trkpt lat="47.00051" lon="16.11088">
        <ele>304.123473</ele>
        <time>2026-07-08T13:47:17.000Z</time>
      </trkpt>
      <trkpt lat="47.0005" lon="16.11088">
        <ele>304.316809</ele>
        <time>2026-07-08T13:47:18.000Z</time>
      </trkpt>
      <trkpt lat="47.00048" lon="16.11088">
        <ele>304.511733</ele>
        <time>2026-07-08T13:47:19.000Z</time>
      </trkpt>
      <trkpt lat="47.00047" lon="16.11088">
        <ele>304.706657</ele>
        <time>2026-07-08T13:47:20.000Z</time>
      </trkpt>
      <trkpt lat="47.00045" lon="16.11089">
        <ele>304.915337</ele>
        <time>2026-07-08T13:47:21.000Z</time>
      </trkpt>
      <trkpt lat="47.00044" lon="16.1109">
        <ele>305.081983</ele>
        <time>2026-07-08T13:47:22.000Z</time>
      </trkpt>
      <trkpt lat="47.00043" lon="16.11091">
        <ele>305.259702</ele>
        <time>2026-07-08T13:47:23.000Z</time>
      </trkpt>
      <trkpt lat="47.00042" lon="16.11092">
        <ele>305.44123</ele>
        <time>2026-07-08T13:47:24.000Z</time>
      </trkpt>
      <trkpt lat="47.0004" lon="16.11093">
        <ele>305.646745</ele>
        <time>2026-07-08T13:47:25.000Z</time>
      </trkpt>
      <trkpt lat="47.00039" lon="16.11094">
        <ele>305.847256</ele>
        <time>2026-07-08T13:47:26.000Z</time>
      </trkpt>
      <trkpt lat="47.00037" lon="16.11095">
        <ele>306.059417</ele>
        <time>2026-07-08T13:47:27.000Z</time>
      </trkpt>
      <trkpt lat="47.00036" lon="16.11096">
        <ele>306.257208</ele>
        <time>2026-07-08T13:47:28.000Z</time>
      </trkpt>
      <trkpt lat="47.00035" lon="16.11097">
        <ele>306.438737</ele>
        <time>2026-07-08T13:47:29.000Z</time>
      </trkpt>
      <trkpt lat="47.00033" lon="16.11098">
        <ele>306.639248</ele>
        <time>2026-07-08T13:47:30.000Z</time>
      </trkpt>
      <trkpt lat="47.00032" lon="16.11099">
        <ele>306.826793</ele>
        <time>2026-07-08T13:47:31.000Z</time>
      </trkpt>
      <trkpt lat="47.00031" lon="16.111">
        <ele>307.00901</ele>
        <time>2026-07-08T13:47:32.000Z</time>
      </trkpt>
      <trkpt lat="47.0003" lon="16.11102">
        <ele>307.229022</ele>
        <time>2026-07-08T13:47:33.000Z</time>
      </trkpt>
      <trkpt lat="47.00028" lon="16.11103">
        <ele>307.416043</ele>
        <time>2026-07-08T13:47:34.000Z</time>
      </trkpt>
      <trkpt lat="47.00027" lon="16.11104">
        <ele>307.588118</ele>
        <time>2026-07-08T13:47:35.000Z</time>
      </trkpt>
      <trkpt lat="47.00026" lon="16.11105">
        <ele>307.760193</ele>
        <time>2026-07-08T13:47:36.000Z</time>
      </trkpt>
      <trkpt lat="47.00025" lon="16.11107">
        <ele>307.957984</ele>
        <time>2026-07-08T13:47:37.000Z</time>
      </trkpt>
      <trkpt lat="47.00024" lon="16.11108">
        <ele>308.145005</ele>
        <time>2026-07-08T13:47:38.000Z</time>
      </trkpt>
      <trkpt lat="47.00023" lon="16.11109">
        <ele>308.334025</ele>
        <time>2026-07-08T13:47:39.000Z</time>
      </trkpt>
      <trkpt lat="47.00022" lon="16.1111">
        <ele>308.494987</ele>
        <time>2026-07-08T13:47:40.000Z</time>
      </trkpt>
      <trkpt lat="47.00021" lon="16.11112">
        <ele>308.705735</ele>
        <time>2026-07-08T13:47:41.000Z</time>
      </trkpt>
      <trkpt lat="47.0002" lon="16.11114">
        <ele>308.887688</ele>
        <time>2026-07-08T13:47:42.000Z</time>
      </trkpt>
      <trkpt lat="47.00019" lon="16.11115">
        <ele>309.069057</ele>
        <time>2026-07-08T13:47:43.000Z</time>
      </trkpt>
      <trkpt lat="47.00018" lon="16.11117">
        <ele>309.253253</ele>
        <time>2026-07-08T13:47:44.000Z</time>
      </trkpt>
      <trkpt lat="47.00017" lon="16.11118">
        <ele>309.445358</ele>
        <time>2026-07-08T13:47:45.000Z</time>
      </trkpt>
      <trkpt lat="47.00016" lon="16.1112">
        <ele>309.629554</ele>
        <time>2026-07-08T13:47:46.000Z</time>
      </trkpt>
      <trkpt lat="47.00015" lon="16.11121">
        <ele>309.810924</ele>
        <time>2026-07-08T13:47:47.000Z</time>
      </trkpt>
      <trkpt lat="47.00014" lon="16.11123">
        <ele>309.964682</ele>
        <time>2026-07-08T13:47:48.000Z</time>
      </trkpt>
      <trkpt lat="47.00013" lon="16.11124">
        <ele>310.153662</ele>
        <time>2026-07-08T13:47:49.000Z</time>
      </trkpt>
      <trkpt lat="47.00012" lon="16.11126">
        <ele>310.357529</ele>
        <time>2026-07-08T13:47:50.000Z</time>
      </trkpt>
      <trkpt lat="47.00012" lon="16.11128">
        <ele>310.561132</ele>
        <time>2026-07-08T13:47:51.000Z</time>
      </trkpt>
      <trkpt lat="47.00011" lon="16.1113">
        <ele>310.778899</ele>
        <time>2026-07-08T13:47:52.000Z</time>
      </trkpt>
      <trkpt lat="47.0001" lon="16.11132">
        <ele>310.960852</ele>
        <time>2026-07-08T13:47:53.000Z</time>
      </trkpt>
      <trkpt lat="47.00009" lon="16.11133">
        <ele>311.145048</ele>
        <time>2026-07-08T13:47:54.000Z</time>
      </trkpt>
      <trkpt lat="47.00008" lon="16.11135">
        <ele>311.341126</ele>
        <time>2026-07-08T13:47:55.000Z</time>
      </trkpt>
      <trkpt lat="47.00007" lon="16.11137">
        <ele>311.531701</ele>
        <time>2026-07-08T13:47:56.000Z</time>
      </trkpt>
      <trkpt lat="47.00007" lon="16.11138">
        <ele>311.655185</ele>
        <time>2026-07-08T13:47:57.000Z</time>
      </trkpt>
      <trkpt lat="47.00006" lon="16.11138">
        <ele>311.70194</ele>
        <time>2026-07-08T13:47:58.000Z</time>
      </trkpt>
      <trkpt lat="47.00006" lon="16.11138">
        <ele>311.710722</ele>
        <time>2026-07-08T13:47:59.000Z</time>
      </trkpt>
      <trkpt lat="47.00004" lon="16.11142">
        <ele>312.132219</ele>
        <time>2026-07-08T13:48:04.000Z</time>
      </trkpt>
      <trkpt lat="47.00004" lon="16.11143">
        <ele>312.277667</ele>
        <time>2026-07-08T13:48:05.000Z</time>
      </trkpt>
      <trkpt lat="47.00003" lon="16.11145">
        <ele>312.416329</ele>
        <time>2026-07-08T13:48:06.000Z</time>
      </trkpt>
      <trkpt lat="47.00002" lon="16.11146">
        <ele>312.533288</ele>
        <time>2026-07-08T13:48:07.000Z</time>
      </trkpt>
      <trkpt lat="47.00002" lon="16.11147">
        <ele>312.67195</ele>
        <time>2026-07-08T13:48:08.000Z</time>
      </trkpt>
      <trkpt lat="47.00001" lon="16.11148">
        <ele>312.81856</ele>
        <time>2026-07-08T13:48:09.000Z</time>
      </trkpt>
      <trkpt lat="47.00001" lon="16.1115">
        <ele>312.949618</ele>
        <time>2026-07-08T13:48:10.000Z</time>
      </trkpt>
      <trkpt lat="47" lon="16.11151">
        <ele>313.103376</ele>
        <time>2026-07-08T13:48:11.000Z</time>
      </trkpt>
      <trkpt lat="46.99999" lon="16.11152">
        <ele>313.242039</ele>
        <time>2026-07-08T13:48:12.000Z</time>
      </trkpt>
      <trkpt lat="46.99998" lon="16.11153">
        <ele>313.367874</ele>
        <time>2026-07-08T13:48:13.000Z</time>
      </trkpt>
      <trkpt lat="46.99998" lon="16.11154">
        <ele>313.498932</ele>
        <time>2026-07-08T13:48:14.000Z</time>
      </trkpt>
      <trkpt lat="46.99997" lon="16.11156">
        <ele>313.629592</ele>
        <time>2026-07-08T13:48:15.000Z</time>
      </trkpt>
      <trkpt lat="46.99997" lon="16.11157">
        <ele>313.753077</ele>
        <time>2026-07-08T13:48:16.000Z</time>
      </trkpt>
      <trkpt lat="46.99996" lon="16.11158">
        <ele>313.86735</ele>
        <time>2026-07-08T13:48:17.000Z</time>
      </trkpt>
      <trkpt lat="46.99996" lon="16.11159">
        <ele>313.976234</ele>
        <time>2026-07-08T13:48:18.000Z</time>
      </trkpt>
      <trkpt lat="46.99995" lon="16.1116">
        <ele>314.102069</ele>
        <time>2026-07-08T13:48:19.000Z</time>
      </trkpt>
      <trkpt lat="46.99994" lon="16.11161">
        <ele>314.225554</ele>
        <time>2026-07-08T13:48:20.000Z</time>
      </trkpt>
      <trkpt lat="46.99994" lon="16.11162">
        <ele>314.334437</ele>
        <time>2026-07-08T13:48:21.000Z</time>
      </trkpt>
      <trkpt lat="46.99993" lon="16.11163">
        <ele>314.451396</ele>
        <time>2026-07-08T13:48:22.000Z</time>
      </trkpt>
      <trkpt lat="46.99993" lon="16.11164">
        <ele>314.565669</ele>
        <time>2026-07-08T13:48:23.000Z</time>
      </trkpt>
      <trkpt lat="46.99992" lon="16.11164">
        <ele>314.660957</ele>
        <time>2026-07-08T13:48:24.000Z</time>
      </trkpt>
      <trkpt lat="46.99992" lon="16.11165">
        <ele>314.756889</ele>
        <time>2026-07-08T13:48:25.000Z</time>
      </trkpt>
      <trkpt lat="46.99991" lon="16.11166">
        <ele>314.865773</ele>
        <time>2026-07-08T13:48:26.000Z</time>
      </trkpt>
      <trkpt lat="46.99991" lon="16.11167">
        <ele>314.967575</ele>
        <time>2026-07-08T13:48:27.000Z</time>
      </trkpt>
      <trkpt lat="46.99991" lon="16.11168">
        <ele>315.010007</ele>
        <time>2026-07-08T13:48:29.000Z</time>
      </trkpt>
      <trkpt lat="46.99989" lon="16.1117">
        <ele>315.360046</ele>
        <time>2026-07-08T13:48:43.000Z</time>
      </trkpt>
      <trkpt lat="46.99988" lon="16.11171">
        <ele>315.476127</ele>
        <time>2026-07-08T13:48:44.000Z</time>
      </trkpt>
      <trkpt lat="46.99987" lon="16.11172">
        <ele>315.601963</ele>
        <time>2026-07-08T13:48:45.000Z</time>
      </trkpt>
      <trkpt lat="46.99987" lon="16.11174">
        <ele>315.732623</ele>
        <time>2026-07-08T13:48:46.000Z</time>
      </trkpt>
      <trkpt lat="46.99986" lon="16.11175">
        <ele>315.863681</ele>
        <time>2026-07-08T13:48:47.000Z</time>
      </trkpt>
      <trkpt lat="46.99986" lon="16.11176">
        <ele>315.996971</ele>
        <time>2026-07-08T13:48:48.000Z</time>
      </trkpt>
      <trkpt lat="46.99986" lon="16.11178">
        <ele>316.117485</ele>
        <time>2026-07-08T13:48:49.000Z</time>
      </trkpt>
      <trkpt lat="46.99985" lon="16.11179">
        <ele>316.264095</ele>
        <time>2026-07-08T13:48:50.000Z</time>
      </trkpt>
      <trkpt lat="46.99985" lon="16.1118">
        <ele>316.395154</ele>
        <time>2026-07-08T13:48:51.000Z</time>
      </trkpt>
      <trkpt lat="46.99984" lon="16.11182">
        <ele>316.518638</ele>
        <time>2026-07-08T13:48:52.000Z</time>
      </trkpt>
      <trkpt lat="46.99984" lon="16.11182">
        <ele>316.613926</ele>
        <time>2026-07-08T13:48:53.000Z</time>
      </trkpt>
      <trkpt lat="46.99983" lon="16.11184">
        <ele>316.737411</ele>
        <time>2026-07-08T13:48:54.000Z</time>
      </trkpt>
      <trkpt lat="46.99983" lon="16.11185">
        <ele>316.868469</ele>
        <time>2026-07-08T13:48:55.000Z</time>
      </trkpt>
      <trkpt lat="46.99982" lon="16.11186">
        <ele>316.994304</ele>
        <time>2026-07-08T13:48:56.000Z</time>
      </trkpt>
      <trkpt lat="46.99981" lon="16.11187">
        <ele>317.103188</ele>
        <time>2026-07-08T13:48:57.000Z</time>
      </trkpt>
      <trkpt lat="46.99981" lon="16.11188">
        <ele>317.226673</ele>
        <time>2026-07-08T13:48:58.000Z</time>
      </trkpt>
      <trkpt lat="46.9998" lon="16.11189">
        <ele>317.343631</ele>
        <time>2026-07-08T13:48:59.000Z</time>
      </trkpt>
      <trkpt lat="46.9998" lon="16.1119">
        <ele>317.467116</ele>
        <time>2026-07-08T13:49:00.000Z</time>
      </trkpt>
      <trkpt lat="46.99979" lon="16.11191">
        <ele>317.583198</ele>
        <time>2026-07-08T13:49:01.000Z</time>
      </trkpt>
      <trkpt lat="46.99979" lon="16.11193">
        <ele>317.721861</ele>
        <time>2026-07-08T13:49:02.000Z</time>
      </trkpt>
      <trkpt lat="46.99978" lon="16.11194">
        <ele>317.830745</ele>
        <time>2026-07-08T13:49:03.000Z</time>
      </trkpt>
      <trkpt lat="46.99978" lon="16.11195">
        <ele>317.939628</ele>
        <time>2026-07-08T13:49:04.000Z</time>
      </trkpt>
      <trkpt lat="46.99977" lon="16.11195">
        <ele>318.053902</ele>
        <time>2026-07-08T13:49:05.000Z</time>
      </trkpt>
      <trkpt lat="46.99976" lon="16.11197">
        <ele>318.184563</ele>
        <time>2026-07-08T13:49:06.000Z</time>
      </trkpt>
      <trkpt lat="46.99976" lon="16.11198">
        <ele>318.310398</ele>
        <time>2026-07-08T13:49:07.000Z</time>
      </trkpt>
      <trkpt lat="46.99975" lon="16.11199">
        <ele>318.436233</ele>
        <time>2026-07-08T13:49:08.000Z</time>
      </trkpt>
      <trkpt lat="46.99974" lon="16.112">
        <ele>318.563507</ele>
        <time>2026-07-08T13:49:09.000Z</time>
      </trkpt>
      <trkpt lat="46.99974" lon="16.11201">
        <ele>318.68251</ele>
        <time>2026-07-08T13:49:10.000Z</time>
      </trkpt>
      <trkpt lat="46.99973" lon="16.11202">
        <ele>318.816055</ele>
        <time>2026-07-08T13:49:11.000Z</time>
      </trkpt>
      <trkpt lat="46.99972" lon="16.11203">
        <ele>318.94719</ele>
        <time>2026-07-08T13:49:12.000Z</time>
      </trkpt>
      <trkpt lat="46.99971" lon="16.11204">
        <ele>319.078326</ele>
        <time>2026-07-08T13:49:13.000Z</time>
      </trkpt>
      <trkpt lat="46.99971" lon="16.11205">
        <ele>319.177076</ele>
        <time>2026-07-08T13:49:14.000Z</time>
      </trkpt>
      <trkpt lat="46.9997" lon="16.11206">
        <ele>319.308211</ele>
        <time>2026-07-08T13:49:15.000Z</time>
      </trkpt>
      <trkpt lat="46.99969" lon="16.11207">
        <ele>319.427215</ele>
        <time>2026-07-08T13:49:16.000Z</time>
      </trkpt>
      <trkpt lat="46.99969" lon="16.11208">
        <ele>319.544188</ele>
        <time>2026-07-08T13:49:17.000Z</time>
      </trkpt>
      <trkpt lat="46.99968" lon="16.11209">
        <ele>319.663192</ele>
        <time>2026-07-08T13:49:18.000Z</time>
      </trkpt>
      <trkpt lat="46.99968" lon="16.11211">
        <ele>319.779973</ele>
        <time>2026-07-08T13:49:19.000Z</time>
      </trkpt>
      <trkpt lat="46.99967" lon="16.11212">
        <ele>319.898977</ele>
        <time>2026-07-08T13:49:20.000Z</time>
      </trkpt>
      <trkpt lat="46.99966" lon="16.11213">
        <ele>320.029334</ele>
        <time>2026-07-08T13:49:21.000Z</time>
      </trkpt>
      <trkpt lat="46.99966" lon="16.11214">
        <ele>320.146115</ele>
        <time>2026-07-08T13:49:22.000Z</time>
      </trkpt>
      <trkpt lat="46.99965" lon="16.11215">
        <ele>320.262897</ele>
        <time>2026-07-08T13:49:23.000Z</time>
      </trkpt>
      <trkpt lat="46.99965" lon="16.11216">
        <ele>320.387838</ele>
        <time>2026-07-08T13:49:24.000Z</time>
      </trkpt>
      <trkpt lat="46.99964" lon="16.11218">
        <ele>320.518973</ele>
        <time>2026-07-08T13:49:25.000Z</time>
      </trkpt>
      <trkpt lat="46.99963" lon="16.11219">
        <ele>320.629582</ele>
        <time>2026-07-08T13:49:26.000Z</time>
      </trkpt>
      <trkpt lat="46.99963" lon="16.1122">
        <ele>320.746363</ele>
        <time>2026-07-08T13:49:27.000Z</time>
      </trkpt>
      <trkpt lat="46.99962" lon="16.11221">
        <ele>320.856144</ele>
        <time>2026-07-08T13:49:28.000Z</time>
      </trkpt>
      <trkpt lat="46.99962" lon="16.11222">
        <ele>320.972925</ele>
        <time>2026-07-08T13:49:29.000Z</time>
      </trkpt>
      <trkpt lat="46.99961" lon="16.11223">
        <ele>321.075898</ele>
        <time>2026-07-08T13:49:30.000Z</time>
      </trkpt>
      <trkpt lat="46.99961" lon="16.11224">
        <ele>321.192679</ele>
        <time>2026-07-08T13:49:31.000Z</time>
      </trkpt>
      <trkpt lat="46.9996" lon="16.11225">
        <ele>321.31762</ele>
        <time>2026-07-08T13:49:32.000Z</time>
      </trkpt>
      <trkpt lat="46.9996" lon="16.11227">
        <ele>321.434402</ele>
        <time>2026-07-08T13:49:33.000Z</time>
      </trkpt>
      <trkpt lat="46.99959" lon="16.11228">
        <ele>321.565537</ele>
        <time>2026-07-08T13:49:34.000Z</time>
      </trkpt>
      <trkpt lat="46.99958" lon="16.11229">
        <ele>321.675317</ele>
        <time>2026-07-08T13:49:35.000Z</time>
      </trkpt>
      <trkpt lat="46.99958" lon="16.1123">
        <ele>321.798885</ele>
        <time>2026-07-08T13:49:36.000Z</time>
      </trkpt>
      <trkpt lat="46.99957" lon="16.11231">
        <ele>321.915666</ele>
        <time>2026-07-08T13:49:37.000Z</time>
      </trkpt>
      <trkpt lat="46.99957" lon="16.11232">
        <ele>322.018639</ele>
        <time>2026-07-08T13:49:38.000Z</time>
      </trkpt>
      <trkpt lat="46.99956" lon="16.11233">
        <ele>322.128419</ele>
        <time>2026-07-08T13:49:39.000Z</time>
      </trkpt>
      <trkpt lat="46.99956" lon="16.11235">
        <ele>322.245201</ele>
        <time>2026-07-08T13:49:40.000Z</time>
      </trkpt>
      <trkpt lat="46.99955" lon="16.11236">
        <ele>322.348174</ele>
        <time>2026-07-08T13:49:41.000Z</time>
      </trkpt>
      <trkpt lat="46.99955" lon="16.11237">
        <ele>322.451146</ele>
        <time>2026-07-08T13:49:42.000Z</time>
      </trkpt>
      <trkpt lat="46.99954" lon="16.11238">
        <ele>322.554119</ele>
        <time>2026-07-08T13:49:43.000Z</time>
      </trkpt>
      <trkpt lat="46.99954" lon="16.11239">
        <ele>322.657092</ele>
        <time>2026-07-08T13:49:44.000Z</time>
      </trkpt>
      <trkpt lat="46.99953" lon="16.1124">
        <ele>322.773874</ele>
        <time>2026-07-08T13:49:45.000Z</time>
      </trkpt>
      <trkpt lat="46.99953" lon="16.11241">
        <ele>322.876847</ele>
        <time>2026-07-08T13:49:46.000Z</time>
      </trkpt>
      <trkpt lat="46.99952" lon="16.11242">
        <ele>322.97982</ele>
        <time>2026-07-08T13:49:47.000Z</time>
      </trkpt>
      <trkpt lat="46.99952" lon="16.11243">
        <ele>323.074361</ele>
        <time>2026-07-08T13:49:48.000Z</time>
      </trkpt>
      <trkpt lat="46.99952" lon="16.11244">
        <ele>323.191142</ele>
        <time>2026-07-08T13:49:49.000Z</time>
      </trkpt>
      <trkpt lat="46.99951" lon="16.11245">
        <ele>323.281867</ele>
        <time>2026-07-08T13:49:50.000Z</time>
      </trkpt>
      <trkpt lat="46.99951" lon="16.11246">
        <ele>323.38484</ele>
        <time>2026-07-08T13:49:51.000Z</time>
      </trkpt>
      <trkpt lat="46.9995" lon="16.11247">
        <ele>323.503279</ele>
        <time>2026-07-08T13:49:52.000Z</time>
      </trkpt>
      <trkpt lat="46.9995" lon="16.11249">
        <ele>323.609418</ele>
        <time>2026-07-08T13:49:53.000Z</time>
      </trkpt>
      <trkpt lat="46.99949" lon="16.1125">
        <ele>323.728422</ele>
        <time>2026-07-08T13:49:54.000Z</time>
      </trkpt>
      <trkpt lat="46.99949" lon="16.11251">
        <ele>323.85199</ele>
        <time>2026-07-08T13:49:55.000Z</time>
      </trkpt>
      <trkpt lat="46.99948" lon="16.11252">
        <ele>324.002929</ele>
        <time>2026-07-08T13:49:56.000Z</time>
      </trkpt>
      <trkpt lat="46.99947" lon="16.11254">
        <ele>324.148342</ele>
        <time>2026-07-08T13:49:57.000Z</time>
      </trkpt>
      <trkpt lat="46.99946" lon="16.11255">
        <ele>324.302177</ele>
        <time>2026-07-08T13:49:58.000Z</time>
      </trkpt>
      <trkpt lat="46.99945" lon="16.11256">
        <ele>324.470536</ele>
        <time>2026-07-08T13:49:59.000Z</time>
      </trkpt>
      <trkpt lat="46.99945" lon="16.11258">
        <ele>324.628672</ele>
        <time>2026-07-08T13:50:00.000Z</time>
      </trkpt>
      <trkpt lat="46.99944" lon="16.11259">
        <ele>324.762217</ele>
        <time>2026-07-08T13:50:01.000Z</time>
      </trkpt>
      <trkpt lat="46.99943" lon="16.1126">
        <ele>324.909607</ele>
        <time>2026-07-08T13:50:02.000Z</time>
      </trkpt>
      <trkpt lat="46.99942" lon="16.11261">
        <ele>325.056998</ele>
        <time>2026-07-08T13:50:03.000Z</time>
      </trkpt>
      <trkpt lat="46.99941" lon="16.11262">
        <ele>325.176002</ele>
        <time>2026-07-08T13:50:04.000Z</time>
      </trkpt>
      <trkpt lat="46.9994" lon="16.11263">
        <ele>325.298785</ele>
        <time>2026-07-08T13:50:05.000Z</time>
      </trkpt>
      <trkpt lat="46.99939" lon="16.11264">
        <ele>325.426941</ele>
        <time>2026-07-08T13:50:06.000Z</time>
      </trkpt>
      <trkpt lat="46.99939" lon="16.11264">
        <ele>325.544853</ele>
        <time>2026-07-08T13:50:07.000Z</time>
      </trkpt>
      <trkpt lat="46.99938" lon="16.11265">
        <ele>325.672861</ele>
        <time>2026-07-08T13:50:08.000Z</time>
      </trkpt>
      <trkpt lat="46.99937" lon="16.11266">
        <ele>325.805513</ele>
        <time>2026-07-08T13:50:09.000Z</time>
      </trkpt>
      <trkpt lat="46.99936" lon="16.11267">
        <ele>325.911407</ele>
        <time>2026-07-08T13:50:10.000Z</time>
      </trkpt>
      <trkpt lat="46.99935" lon="16.11267">
        <ele>326.017301</ele>
        <time>2026-07-08T13:50:11.000Z</time>
      </trkpt>
      <trkpt lat="46.99934" lon="16.11268">
        <ele>326.145457</ele>
        <time>2026-07-08T13:50:12.000Z</time>
      </trkpt>
      <trkpt lat="46.99934" lon="16.11269">
        <ele>326.258898</ele>
        <time>2026-07-08T13:50:13.000Z</time>
      </trkpt>
      <trkpt lat="46.99933" lon="16.1127">
        <ele>326.386906</ele>
        <time>2026-07-08T13:50:14.000Z</time>
      </trkpt>
      <trkpt lat="46.99932" lon="16.11271">
        <ele>326.524408</ele>
        <time>2026-07-08T13:50:15.000Z</time>
      </trkpt>
      <trkpt lat="46.99931" lon="16.11272">
        <ele>326.623159</ele>
        <time>2026-07-08T13:50:16.000Z</time>
      </trkpt>
      <trkpt lat="46.99931" lon="16.11273">
        <ele>326.742163</ele>
        <time>2026-07-08T13:50:17.000Z</time>
      </trkpt>
      <trkpt lat="46.9993" lon="16.11273">
        <ele>326.860076</ele>
        <time>2026-07-08T13:50:18.000Z</time>
      </trkpt>
      <trkpt lat="46.99929" lon="16.11274">
        <ele>326.973441</ele>
        <time>2026-07-08T13:50:19.000Z</time>
      </trkpt>
      <trkpt lat="46.99928" lon="16.11275">
        <ele>327.091353</ele>
        <time>2026-07-08T13:50:20.000Z</time>
      </trkpt>
      <trkpt lat="46.99928" lon="16.11276">
        <ele>327.194326</ele>
        <time>2026-07-08T13:50:21.000Z</time>
      </trkpt>
      <trkpt lat="46.99927" lon="16.11277">
        <ele>327.325462</ele>
        <time>2026-07-08T13:50:22.000Z</time>
      </trkpt>
      <trkpt lat="46.99926" lon="16.11278">
        <ele>327.433533</ele>
        <time>2026-07-08T13:50:23.000Z</time>
      </trkpt>
      <trkpt lat="46.99926" lon="16.11279">
        <ele>327.544142</ele>
        <time>2026-07-08T13:50:24.000Z</time>
      </trkpt>
      <trkpt lat="46.99925" lon="16.1128">
        <ele>327.652213</ele>
        <time>2026-07-08T13:50:25.000Z</time>
      </trkpt>
      <trkpt lat="46.99924" lon="16.11281">
        <ele>327.771217</ele>
        <time>2026-07-08T13:50:26.000Z</time>
      </trkpt>
      <trkpt lat="46.99924" lon="16.11282">
        <ele>327.894</ele>
        <time>2026-07-08T13:50:27.000Z</time>
      </trkpt>
      <trkpt lat="46.99923" lon="16.11283">
        <ele>328.002071</ele>
        <time>2026-07-08T13:50:28.000Z</time>
      </trkpt>
      <trkpt lat="46.99922" lon="16.11284">
        <ele>328.130079</ele>
        <time>2026-07-08T13:50:29.000Z</time>
      </trkpt>
      <trkpt lat="46.99921" lon="16.11284">
        <ele>328.23815</ele>
        <time>2026-07-08T13:50:30.000Z</time>
      </trkpt>
      <trkpt lat="46.99921" lon="16.11285">
        <ele>328.342668</ele>
        <time>2026-07-08T13:50:31.000Z</time>
      </trkpt>
      <trkpt lat="46.9992" lon="16.11286">
        <ele>328.450739</ele>
        <time>2026-07-08T13:50:32.000Z</time>
      </trkpt>
      <trkpt lat="46.99919" lon="16.11287">
        <ele>328.553912</ele>
        <time>2026-07-08T13:50:33.000Z</time>
      </trkpt>
      <trkpt lat="46.99919" lon="16.11288">
        <ele>328.652663</ele>
        <time>2026-07-08T13:50:34.000Z</time>
      </trkpt>
      <trkpt lat="46.99918" lon="16.11288">
        <ele>328.755836</ele>
        <time>2026-07-08T13:50:35.000Z</time>
      </trkpt>
      <trkpt lat="46.99917" lon="16.11289">
        <ele>328.865254</ele>
        <time>2026-07-08T13:50:36.000Z</time>
      </trkpt>
      <trkpt lat="46.99916" lon="16.1129">
        <ele>328.997906</ele>
        <time>2026-07-08T13:50:37.000Z</time>
      </trkpt>
      <trkpt lat="46.99916" lon="16.11291">
        <ele>329.096656</ele>
        <time>2026-07-08T13:50:38.000Z</time>
      </trkpt>
      <trkpt lat="46.99915" lon="16.11291">
        <ele>329.224813</ele>
        <time>2026-07-08T13:50:39.000Z</time>
      </trkpt>
      <trkpt lat="46.99914" lon="16.11292">
        <ele>329.318179</ele>
        <time>2026-07-08T13:50:40.000Z</time>
      </trkpt>
      <trkpt lat="46.99913" lon="16.11293">
        <ele>329.453111</ele>
        <time>2026-07-08T13:50:41.000Z</time>
      </trkpt>
      <trkpt lat="46.99912" lon="16.11293">
        <ele>329.573497</ele>
        <time>2026-07-08T13:50:42.000Z</time>
      </trkpt>
      <trkpt lat="46.99912" lon="16.11294">
        <ele>329.666863</ele>
        <time>2026-07-08T13:50:43.000Z</time>
      </trkpt>
      <trkpt lat="46.99911" lon="16.11295">
        <ele>329.740558</ele>
        <time>2026-07-08T13:50:44.000Z</time>
      </trkpt>
      <trkpt lat="46.99911" lon="16.11295">
        <ele>329.770036</ele>
        <time>2026-07-08T13:50:45.000Z</time>
      </trkpt>
      <trkpt lat="46.99907" lon="16.11299">
        <ele>330.42408</ele>
        <time>2026-07-08T13:51:03.000Z</time>
      </trkpt>
      <trkpt lat="46.99906" lon="16.113">
        <ele>330.581428</ele>
        <time>2026-07-08T13:51:04.000Z</time>
      </trkpt>
      <trkpt lat="46.99904" lon="16.11301">
        <ele>330.782072</ele>
        <time>2026-07-08T13:51:05.000Z</time>
      </trkpt>
      <trkpt lat="46.99903" lon="16.11302">
        <ele>330.971398</ele>
        <time>2026-07-08T13:51:06.000Z</time>
      </trkpt>
      <trkpt lat="46.99901" lon="16.11303">
        <ele>331.18641</ele>
        <time>2026-07-08T13:51:07.000Z</time>
      </trkpt>
      <trkpt lat="46.999" lon="16.11303">
        <ele>331.355044</ele>
        <time>2026-07-08T13:51:08.000Z</time>
      </trkpt>
      <trkpt lat="46.99898" lon="16.11304">
        <ele>331.575637</ele>
        <time>2026-07-08T13:51:09.000Z</time>
      </trkpt>
      <trkpt lat="46.99896" lon="16.11304">
        <ele>331.786765</ele>
        <time>2026-07-08T13:51:10.000Z</time>
      </trkpt>
      <trkpt lat="46.99895" lon="16.11304">
        <ele>331.971107</ele>
        <time>2026-07-08T13:51:11.000Z</time>
      </trkpt>
      <trkpt lat="46.99893" lon="16.11305">
        <ele>332.139741</ele>
        <time>2026-07-08T13:51:12.000Z</time>
      </trkpt>
      <trkpt lat="46.99892" lon="16.11306">
        <ele>332.33142</ele>
        <time>2026-07-08T13:51:13.000Z</time>
      </trkpt>
      <trkpt lat="46.9989" lon="16.11307">
        <ele>332.525779</ele>
        <time>2026-07-08T13:51:14.000Z</time>
      </trkpt>
      <trkpt lat="46.99889" lon="16.11307">
        <ele>332.720137</ele>
        <time>2026-07-08T13:51:15.000Z</time>
      </trkpt>
      <trkpt lat="46.99887" lon="16.11308">
        <ele>332.911816</ele>
        <time>2026-07-08T13:51:16.000Z</time>
      </trkpt>
      <trkpt lat="46.99886" lon="16.11309">
        <ele>333.106175</ele>
        <time>2026-07-08T13:51:17.000Z</time>
      </trkpt>
      <trkpt lat="46.99884" lon="16.1131">
        <ele>333.292314</ele>
        <time>2026-07-08T13:51:18.000Z</time>
      </trkpt>
      <trkpt lat="46.99883" lon="16.11311">
        <ele>333.471073</ele>
        <time>2026-07-08T13:51:19.000Z</time>
      </trkpt>
      <trkpt lat="46.99882" lon="16.11312">
        <ele>333.665432</ele>
        <time>2026-07-08T13:51:20.000Z</time>
      </trkpt>
      <trkpt lat="46.9988" lon="16.11312">
        <ele>333.857111</ele>
        <time>2026-07-08T13:51:21.000Z</time>
      </trkpt>
      <trkpt lat="46.99878" lon="16.11313">
        <ele>334.074515</ele>
        <time>2026-07-08T13:51:22.000Z</time>
      </trkpt>
      <trkpt lat="46.99877" lon="16.11314">
        <ele>334.268874</ele>
        <time>2026-07-08T13:51:23.000Z</time>
      </trkpt>
      <trkpt lat="46.99875" lon="16.11315">
        <ele>334.460553</ele>
        <time>2026-07-08T13:51:24.000Z</time>
      </trkpt>
      <trkpt lat="46.99874" lon="16.11315">
        <ele>334.629187</ele>
        <time>2026-07-08T13:51:25.000Z</time>
      </trkpt>
      <trkpt lat="46.99873" lon="16.11316">
        <ele>334.818513</ele>
        <time>2026-07-08T13:51:26.000Z</time>
      </trkpt>
      <trkpt lat="46.99871" lon="16.11316">
        <ele>334.982166</ele>
        <time>2026-07-08T13:51:27.000Z</time>
      </trkpt>
      <trkpt lat="46.9987" lon="16.11317">
        <ele>335.169477</ele>
        <time>2026-07-08T13:51:28.000Z</time>
      </trkpt>
      <trkpt lat="46.99868" lon="16.11317">
        <ele>335.356789</ele>
        <time>2026-07-08T13:51:29.000Z</time>
      </trkpt>
      <trkpt lat="46.99867" lon="16.11318">
        <ele>335.548468</ele>
        <time>2026-07-08T13:51:30.000Z</time>
      </trkpt>
      <trkpt lat="46.99865" lon="16.11319">
        <ele>335.728581</ele>
        <time>2026-07-08T13:51:31.000Z</time>
      </trkpt>
      <trkpt lat="46.99864" lon="16.11319">
        <ele>335.917907</ele>
        <time>2026-07-08T13:51:32.000Z</time>
      </trkpt>
      <trkpt lat="46.99863" lon="16.1132">
        <ele>336.08156</ele>
        <time>2026-07-08T13:51:33.000Z</time>
      </trkpt>
      <trkpt lat="46.99861" lon="16.11321">
        <ele>336.273239</ele>
        <time>2026-07-08T13:51:34.000Z</time>
      </trkpt>
      <trkpt lat="46.9986" lon="16.11321">
        <ele>336.411952</ele>
        <time>2026-07-08T13:51:35.000Z</time>
      </trkpt>
      <trkpt lat="46.99859" lon="16.11322">
        <ele>336.569212</ele>
        <time>2026-07-08T13:51:36.000Z</time>
      </trkpt>
      <trkpt lat="46.99857" lon="16.11323">
        <ele>336.760891</ele>
        <time>2026-07-08T13:51:37.000Z</time>
      </trkpt>
      <trkpt lat="46.99856" lon="16.11323">
        <ele>336.924544</ele>
        <time>2026-07-08T13:51:38.000Z</time>
      </trkpt>
      <trkpt lat="46.99855" lon="16.11324">
        <ele>337.108886</ele>
        <time>2026-07-08T13:51:39.000Z</time>
      </trkpt>
      <trkpt lat="46.99853" lon="16.11324">
        <ele>337.269132</ele>
        <time>2026-07-08T13:51:40.000Z</time>
      </trkpt>
      <trkpt lat="46.99852" lon="16.11325">
        <ele>337.449246</ele>
        <time>2026-07-08T13:51:41.000Z</time>
      </trkpt>
      <trkpt lat="46.99851" lon="16.11325">
        <ele>337.595261</ele>
        <time>2026-07-08T13:51:42.000Z</time>
      </trkpt>
      <trkpt lat="46.99849" lon="16.11326">
        <ele>337.782572</ele>
        <time>2026-07-08T13:51:43.000Z</time>
      </trkpt>
      <trkpt lat="46.99848" lon="16.11326">
        <ele>337.958031</ele>
        <time>2026-07-08T13:51:44.000Z</time>
      </trkpt>
      <trkpt lat="46.99847" lon="16.11327">
        <ele>338.121684</ele>
        <time>2026-07-08T13:51:45.000Z</time>
      </trkpt>
      <trkpt lat="46.99845" lon="16.11327">
        <ele>338.285337</ele>
        <time>2026-07-08T13:51:46.000Z</time>
      </trkpt>
      <trkpt lat="46.99844" lon="16.11328">
        <ele>338.460795</ele>
        <time>2026-07-08T13:51:47.000Z</time>
      </trkpt>
      <trkpt lat="46.99843" lon="16.11328">
        <ele>338.601028</ele>
        <time>2026-07-08T13:51:48.000Z</time>
      </trkpt>
      <trkpt lat="46.99841" lon="16.11329">
        <ele>338.783991</ele>
        <time>2026-07-08T13:51:49.000Z</time>
      </trkpt>
      <trkpt lat="46.9984" lon="16.1133">
        <ele>338.924224</ele>
        <time>2026-07-08T13:51:50.000Z</time>
      </trkpt>
      <trkpt lat="46.99839" lon="16.1133">
        <ele>339.096509</ele>
        <time>2026-07-08T13:51:51.000Z</time>
      </trkpt>
      <trkpt lat="46.99837" lon="16.1133">
        <ele>339.282156</ele>
        <time>2026-07-08T13:51:52.000Z</time>
      </trkpt>
      <trkpt lat="46.99836" lon="16.11331">
        <ele>339.469467</ele>
        <time>2026-07-08T13:51:53.000Z</time>
      </trkpt>
      <trkpt lat="46.99835" lon="16.11331">
        <ele>339.635422</ele>
        <time>2026-07-08T13:51:54.000Z</time>
      </trkpt>
      <trkpt lat="46.99833" lon="16.11332">
        <ele>339.797168</ele>
        <time>2026-07-08T13:51:55.000Z</time>
      </trkpt>
      <trkpt lat="46.99832" lon="16.11332">
        <ele>340.008296</ele>
        <time>2026-07-08T13:51:56.000Z</time>
      </trkpt>
      <trkpt lat="46.9983" lon="16.11333">
        <ele>340.202654</ele>
        <time>2026-07-08T13:51:57.000Z</time>
      </trkpt>
      <trkpt lat="46.99829" lon="16.11334">
        <ele>340.371289</ele>
        <time>2026-07-08T13:51:58.000Z</time>
      </trkpt>
      <trkpt lat="46.99827" lon="16.11334">
        <ele>340.494797</ele>
        <time>2026-07-08T13:51:59.000Z</time>
      </trkpt>
      <trkpt lat="46.99826" lon="16.11335">
        <ele>340.603537</ele>
        <time>2026-07-08T13:52:00.000Z</time>
      </trkpt>
      <trkpt lat="46.99825" lon="16.11336">
        <ele>340.706624</ele>
        <time>2026-07-08T13:52:01.000Z</time>
      </trkpt>
      <trkpt lat="46.99823" lon="16.11336">
        <ele>340.81451</ele>
        <time>2026-07-08T13:52:02.000Z</time>
      </trkpt>
      <trkpt lat="46.99822" lon="16.11337">
        <ele>340.916168</ele>
        <time>2026-07-08T13:52:03.000Z</time>
      </trkpt>
      <trkpt lat="46.99821" lon="16.11337">
        <ele>341.032521</ele>
        <time>2026-07-08T13:52:04.000Z</time>
      </trkpt>
      <trkpt lat="46.99819" lon="16.11338">
        <ele>341.148874</ele>
        <time>2026-07-08T13:52:05.000Z</time>
      </trkpt>
      <trkpt lat="46.99818" lon="16.11338">
        <ele>341.263383</ele>
        <time>2026-07-08T13:52:06.000Z</time>
      </trkpt>
      <trkpt lat="46.99816" lon="16.11338">
        <ele>341.377892</ele>
        <time>2026-07-08T13:52:07.000Z</time>
      </trkpt>
      <trkpt lat="46.99815" lon="16.11339">
        <ele>341.491819</ele>
        <time>2026-07-08T13:52:08.000Z</time>
      </trkpt>
      <trkpt lat="46.99813" lon="16.11339">
        <ele>341.59136</ele>
        <time>2026-07-08T13:52:09.000Z</time>
      </trkpt>
      <trkpt lat="46.99812" lon="16.1134">
        <ele>341.710426</ele>
        <time>2026-07-08T13:52:10.000Z</time>
      </trkpt>
      <trkpt lat="46.9981" lon="16.1134">
        <ele>341.829493</ele>
        <time>2026-07-08T13:52:11.000Z</time>
      </trkpt>
      <trkpt lat="46.99809" lon="16.11341">
        <ele>341.954128</ele>
        <time>2026-07-08T13:52:12.000Z</time>
      </trkpt>
      <trkpt lat="46.99807" lon="16.11342">
        <ele>342.074859</ele>
        <time>2026-07-08T13:52:13.000Z</time>
      </trkpt>
      <trkpt lat="46.99806" lon="16.11343">
        <ele>342.188512</ele>
        <time>2026-07-08T13:52:14.000Z</time>
      </trkpt>
      <trkpt lat="46.99804" lon="16.11343">
        <ele>342.304865</ele>
        <time>2026-07-08T13:52:15.000Z</time>
      </trkpt>
      <trkpt lat="46.99803" lon="16.11344">
        <ele>342.420184</ele>
        <time>2026-07-08T13:52:16.000Z</time>
      </trkpt>
      <trkpt lat="46.99801" lon="16.11344">
        <ele>342.53376</ele>
        <time>2026-07-08T13:52:17.000Z</time>
      </trkpt>
      <trkpt lat="46.998" lon="16.11344">
        <ele>342.650113</ele>
        <time>2026-07-08T13:52:18.000Z</time>
      </trkpt>
      <trkpt lat="46.99798" lon="16.11345">
        <ele>342.766467</ele>
        <time>2026-07-08T13:52:19.000Z</time>
      </trkpt>
      <trkpt lat="46.99797" lon="16.11345">
        <ele>342.880393</ele>
        <time>2026-07-08T13:52:20.000Z</time>
      </trkpt>
      <trkpt lat="46.99795" lon="16.11346">
        <ele>342.996747</ele>
        <time>2026-07-08T13:52:21.000Z</time>
      </trkpt>
      <trkpt lat="46.99794" lon="16.11346">
        <ele>343.115813</ele>
        <time>2026-07-08T13:52:22.000Z</time>
      </trkpt>
      <trkpt lat="46.99792" lon="16.11347">
        <ele>343.232166</ele>
        <time>2026-07-08T13:52:23.000Z</time>
      </trkpt>
      <trkpt lat="46.99791" lon="16.11347">
        <ele>343.333824</ele>
        <time>2026-07-08T13:52:24.000Z</time>
      </trkpt>
      <trkpt lat="46.9979" lon="16.11348">
        <ele>343.448333</ele>
        <time>2026-07-08T13:52:25.000Z</time>
      </trkpt>
      <trkpt lat="46.99788" lon="16.11348">
        <ele>343.562842</ele>
        <time>2026-07-08T13:52:26.000Z</time>
      </trkpt>
      <trkpt lat="46.99787" lon="16.11348">
        <ele>343.678161</ele>
        <time>2026-07-08T13:52:27.000Z</time>
      </trkpt>
      <trkpt lat="46.99785" lon="16.11349">
        <ele>343.784801</ele>
        <time>2026-07-08T13:52:28.000Z</time>
      </trkpt>
      <trkpt lat="46.99784" lon="16.1135">
        <ele>343.901155</ele>
        <time>2026-07-08T13:52:29.000Z</time>
      </trkpt>
      <trkpt lat="46.99782" lon="16.1135">
        <ele>344.020221</ele>
        <time>2026-07-08T13:52:30.000Z</time>
      </trkpt>
      <trkpt lat="46.99781" lon="16.11351">
        <ele>344.151369</ele>
        <time>2026-07-08T13:52:31.000Z</time>
      </trkpt>
      <trkpt lat="46.99779" lon="16.11351">
        <ele>344.268974</ele>
        <time>2026-07-08T13:52:32.000Z</time>
      </trkpt>
      <trkpt lat="46.99777" lon="16.11352">
        <ele>344.405685</ele>
        <time>2026-07-08T13:52:33.000Z</time>
      </trkpt>
      <trkpt lat="46.99776" lon="16.11353">
        <ele>344.527693</ele>
        <time>2026-07-08T13:52:34.000Z</time>
      </trkpt>
      <trkpt lat="46.99774" lon="16.11353">
        <ele>344.65884</ele>
        <time>2026-07-08T13:52:35.000Z</time>
      </trkpt>
      <trkpt lat="46.99772" lon="16.11353">
        <ele>344.788355</ele>
        <time>2026-07-08T13:52:36.000Z</time>
      </trkpt>
      <trkpt lat="46.99771" lon="16.11354">
        <ele>344.929212</ele>
        <time>2026-07-08T13:52:37.000Z</time>
      </trkpt>
      <trkpt lat="46.99769" lon="16.11355">
        <ele>345.064259</ele>
        <time>2026-07-08T13:52:38.000Z</time>
      </trkpt>
      <trkpt lat="46.99767" lon="16.11355">
        <ele>345.187999</ele>
        <time>2026-07-08T13:52:39.000Z</time>
      </trkpt>
      <trkpt lat="46.99766" lon="16.11356">
        <ele>345.319147</ele>
        <time>2026-07-08T13:52:40.000Z</time>
      </trkpt>
      <trkpt lat="46.99764" lon="16.11357">
        <ele>345.452707</ele>
        <time>2026-07-08T13:52:41.000Z</time>
      </trkpt>
      <trkpt lat="46.99762" lon="16.11357">
        <ele>345.574715</ele>
        <time>2026-07-08T13:52:42.000Z</time>
      </trkpt>
      <trkpt lat="46.99761" lon="16.11357">
        <ele>345.705863</ele>
        <time>2026-07-08T13:52:43.000Z</time>
      </trkpt>
      <trkpt lat="46.99759" lon="16.11358">
        <ele>345.837011</ele>
        <time>2026-07-08T13:52:44.000Z</time>
      </trkpt>
      <trkpt lat="46.99757" lon="16.11358">
        <ele>345.959779</ele>
        <time>2026-07-08T13:52:45.000Z</time>
      </trkpt>
      <trkpt lat="46.99755" lon="16.11359">
        <ele>346.10579</ele>
        <time>2026-07-08T13:52:46.000Z</time>
      </trkpt>
      <trkpt lat="46.99754" lon="16.11359">
        <ele>346.220299</ele>
        <time>2026-07-08T13:52:47.000Z</time>
      </trkpt>
      <trkpt lat="46.99752" lon="16.11359">
        <ele>346.334808</ele>
        <time>2026-07-08T13:52:48.000Z</time>
      </trkpt>
      <trkpt lat="46.99751" lon="16.1136">
        <ele>346.450127</ele>
        <time>2026-07-08T13:52:49.000Z</time>
      </trkpt>
      <trkpt lat="46.99749" lon="16.1136">
        <ele>346.572135</ele>
        <time>2026-07-08T13:52:50.000Z</time>
      </trkpt>
      <trkpt lat="46.99747" lon="16.11361">
        <ele>346.720316</ele>
        <time>2026-07-08T13:52:51.000Z</time>
      </trkpt>
      <trkpt lat="46.99746" lon="16.11361">
        <ele>346.844057</ele>
        <time>2026-07-08T13:52:52.000Z</time>
      </trkpt>
      <trkpt lat="46.99744" lon="16.11362">
        <ele>346.976316</ele>
        <time>2026-07-08T13:52:53.000Z</time>
      </trkpt>
      <trkpt lat="46.99742" lon="16.11363">
        <ele>347.113028</ele>
        <time>2026-07-08T13:52:54.000Z</time>
      </trkpt>
      <trkpt lat="46.99741" lon="16.11364">
        <ele>347.240893</ele>
        <time>2026-07-08T13:52:55.000Z</time>
      </trkpt>
      <trkpt lat="46.99739" lon="16.11364">
        <ele>347.37594</ele>
        <time>2026-07-08T13:52:56.000Z</time>
      </trkpt>
      <trkpt lat="46.99737" lon="16.11365">
        <ele>347.512652</ele>
        <time>2026-07-08T13:52:57.000Z</time>
      </trkpt>
      <trkpt lat="46.99736" lon="16.11366">
        <ele>347.658247</ele>
        <time>2026-07-08T13:52:58.000Z</time>
      </trkpt>
      <trkpt lat="46.99734" lon="16.11367">
        <ele>347.800515</ele>
        <time>2026-07-08T13:52:59.000Z</time>
      </trkpt>
      <trkpt lat="46.99732" lon="16.11368">
        <ele>347.934076</ele>
        <time>2026-07-08T13:53:00.000Z</time>
      </trkpt>
      <trkpt lat="46.9973" lon="16.11368">
        <ele>348.062765</ele>
        <time>2026-07-08T13:53:01.000Z</time>
      </trkpt>
      <trkpt lat="46.99729" lon="16.11368">
        <ele>348.184773</ele>
        <time>2026-07-08T13:53:02.000Z</time>
      </trkpt>
      <trkpt lat="46.99727" lon="16.11368">
        <ele>348.328487</ele>
        <time>2026-07-08T13:53:03.000Z</time>
      </trkpt>
      <trkpt lat="46.99725" lon="16.11368">
        <ele>348.487328</ele>
        <time>2026-07-08T13:53:04.000Z</time>
      </trkpt>
      <trkpt lat="46.99723" lon="16.11368">
        <ele>348.638958</ele>
        <time>2026-07-08T13:53:05.000Z</time>
      </trkpt>
      <trkpt lat="46.99721" lon="16.11368">
        <ele>348.790323</ele>
        <time>2026-07-08T13:53:06.000Z</time>
      </trkpt>
      <trkpt lat="46.99719" lon="16.11368">
        <ele>348.956809</ele>
        <time>2026-07-08T13:53:07.000Z</time>
      </trkpt>
      <trkpt lat="46.99717" lon="16.11367">
        <ele>349.109488</ele>
        <time>2026-07-08T13:53:08.000Z</time>
      </trkpt>
      <trkpt lat="46.99715" lon="16.11367">
        <ele>349.246514</ele>
        <time>2026-07-08T13:53:09.000Z</time>
      </trkpt>
      <trkpt lat="46.99713" lon="16.11367">
        <ele>349.398143</ele>
        <time>2026-07-08T13:53:10.000Z</time>
      </trkpt>
      <trkpt lat="46.99711" lon="16.11366">
        <ele>349.551605</ele>
        <time>2026-07-08T13:53:11.000Z</time>
      </trkpt>
      <trkpt lat="46.99709" lon="16.11366">
        <ele>349.708411</ele>
        <time>2026-07-08T13:53:12.000Z</time>
      </trkpt>
      <trkpt lat="46.99707" lon="16.11365">
        <ele>349.860478</ele>
        <time>2026-07-08T13:53:13.000Z</time>
      </trkpt>
      <trkpt lat="46.99705" lon="16.11365">
        <ele>350.012107</ele>
        <time>2026-07-08T13:53:14.000Z</time>
      </trkpt>
      <trkpt lat="46.99703" lon="16.11365">
        <ele>350.163737</ele>
        <time>2026-07-08T13:53:15.000Z</time>
      </trkpt>
      <trkpt lat="46.99701" lon="16.11365">
        <ele>350.315804</ele>
        <time>2026-07-08T13:53:16.000Z</time>
      </trkpt>
      <trkpt lat="46.99699" lon="16.11364">
        <ele>350.461814</ele>
        <time>2026-07-08T13:53:17.000Z</time>
      </trkpt>
      <trkpt lat="46.99697" lon="16.11363">
        <ele>350.624709</ele>
        <time>2026-07-08T13:53:18.000Z</time>
      </trkpt>
      <trkpt lat="46.99695" lon="16.11363">
        <ele>350.779121</ele>
        <time>2026-07-08T13:53:19.000Z</time>
      </trkpt>
      <trkpt lat="46.99693" lon="16.11362">
        <ele>350.951883</ele>
        <time>2026-07-08T13:53:20.000Z</time>
      </trkpt>
      <trkpt lat="46.99691" lon="16.11361">
        <ele>351.108689</ele>
        <time>2026-07-08T13:53:21.000Z</time>
      </trkpt>
      <trkpt lat="46.99689" lon="16.1136">
        <ele>351.254285</ele>
        <time>2026-07-08T13:53:22.000Z</time>
      </trkpt>
      <trkpt lat="46.99687" lon="16.11359">
        <ele>351.411091</ele>
        <time>2026-07-08T13:53:23.000Z</time>
      </trkpt>
      <trkpt lat="46.99685" lon="16.11358">
        <ele>351.569334</ele>
        <time>2026-07-08T13:53:24.000Z</time>
      </trkpt>
      <trkpt lat="46.99683" lon="16.11358">
        <ele>351.715344</ele>
        <time>2026-07-08T13:53:25.000Z</time>
      </trkpt>
      <trkpt lat="46.99681" lon="16.11357">
        <ele>351.868805</ele>
        <time>2026-07-08T13:53:26.000Z</time>
      </trkpt>
      <trkpt lat="46.99679" lon="16.11357">
        <ele>351.996671</ele>
        <time>2026-07-08T13:53:27.000Z</time>
      </trkpt>
      <trkpt lat="46.99677" lon="16.11356">
        <ele>352.153478</ele>
        <time>2026-07-08T13:53:28.000Z</time>
      </trkpt>
      <trkpt lat="46.99675" lon="16.11355">
        <ele>352.31331</ele>
        <time>2026-07-08T13:53:29.000Z</time>
      </trkpt>
      <trkpt lat="46.99674" lon="16.11354">
        <ele>352.456022</ele>
        <time>2026-07-08T13:53:30.000Z</time>
      </trkpt>
      <trkpt lat="46.99672" lon="16.11353">
        <ele>352.59688</ele>
        <time>2026-07-08T13:53:31.000Z</time>
      </trkpt>
      <trkpt lat="46.9967" lon="16.11352">
        <ele>352.746402</ele>
        <time>2026-07-08T13:53:32.000Z</time>
      </trkpt>
      <trkpt lat="46.99668" lon="16.11351">
        <ele>352.903209</ele>
        <time>2026-07-08T13:53:33.000Z</time>
      </trkpt>
      <trkpt lat="46.99666" lon="16.1135">
        <ele>353.048805</ele>
        <time>2026-07-08T13:53:34.000Z</time>
      </trkpt>
      <trkpt lat="46.99664" lon="16.11349">
        <ele>353.207047</ele>
        <time>2026-07-08T13:53:35.000Z</time>
      </trkpt>
      <trkpt lat="46.99662" lon="16.11349">
        <ele>353.361459</ele>
        <time>2026-07-08T13:53:36.000Z</time>
      </trkpt>
      <trkpt lat="46.9966" lon="16.11348">
        <ele>353.505309</ele>
        <time>2026-07-08T13:53:37.000Z</time>
      </trkpt>
      <trkpt lat="46.99658" lon="16.11347">
        <ele>353.654831</ele>
        <time>2026-07-08T13:53:38.000Z</time>
      </trkpt>
      <trkpt lat="46.99656" lon="16.11346">
        <ele>353.811637</ele>
        <time>2026-07-08T13:53:39.000Z</time>
      </trkpt>
      <trkpt lat="46.99655" lon="16.11346">
        <ele>353.952495</ele>
        <time>2026-07-08T13:53:40.000Z</time>
      </trkpt>
      <trkpt lat="46.99653" lon="16.11345">
        <ele>354.069397</ele>
        <time>2026-07-08T13:53:41.000Z</time>
      </trkpt>
      <trkpt lat="46.99651" lon="16.11344">
        <ele>354.179225</ele>
        <time>2026-07-08T13:53:42.000Z</time>
      </trkpt>
      <trkpt lat="46.99649" lon="16.11343">
        <ele>354.285007</ele>
        <time>2026-07-08T13:53:43.000Z</time>
      </trkpt>
      <trkpt lat="46.99648" lon="16.11342">
        <ele>354.385451</ele>
        <time>2026-07-08T13:53:44.000Z</time>
      </trkpt>
      <trkpt lat="46.99646" lon="16.11341">
        <ele>354.502031</ele>
        <time>2026-07-08T13:53:45.000Z</time>
      </trkpt>
      <trkpt lat="46.99644" lon="16.1134">
        <ele>354.628372</ele>
        <time>2026-07-08T13:53:46.000Z</time>
      </trkpt>
      <trkpt lat="46.99642" lon="16.11338">
        <ele>354.747939</ele>
        <time>2026-07-08T13:53:47.000Z</time>
      </trkpt>
      <trkpt lat="46.9964" lon="16.11337">
        <ele>354.859101</ele>
        <time>2026-07-08T13:53:48.000Z</time>
      </trkpt>
      <trkpt lat="46.99638" lon="16.11336">
        <ele>354.975681</ele>
        <time>2026-07-08T13:53:49.000Z</time>
      </trkpt>
      <trkpt lat="46.99636" lon="16.11335">
        <ele>355.100478</ele>
        <time>2026-07-08T13:53:50.000Z</time>
      </trkpt>
      <trkpt lat="46.99634" lon="16.11334">
        <ele>355.229259</ele>
        <time>2026-07-08T13:53:51.000Z</time>
      </trkpt>
      <trkpt lat="46.99632" lon="16.11333">
        <ele>355.354056</ele>
        <time>2026-07-08T13:53:52.000Z</time>
      </trkpt>
      <trkpt lat="46.9963" lon="16.11331">
        <ele>355.489613</ele>
        <time>2026-07-08T13:53:53.000Z</time>
      </trkpt>
      <trkpt lat="46.99628" lon="16.1133">
        <ele>355.611644</ele>
        <time>2026-07-08T13:53:54.000Z</time>
      </trkpt>
      <trkpt lat="46.99626" lon="16.11329">
        <ele>355.735003</ele>
        <time>2026-07-08T13:53:55.000Z</time>
      </trkpt>
      <trkpt lat="46.99624" lon="16.11328">
        <ele>355.862991</ele>
        <time>2026-07-08T13:53:56.000Z</time>
      </trkpt>
      <trkpt lat="46.99622" lon="16.11327">
        <ele>355.986349</ele>
        <time>2026-07-08T13:53:57.000Z</time>
      </trkpt>
      <trkpt lat="46.9962" lon="16.11326">
        <ele>356.111146</ele>
        <time>2026-07-08T13:53:58.000Z</time>
      </trkpt>
      <trkpt lat="46.99618" lon="16.11324">
        <ele>356.237487</ele>
        <time>2026-07-08T13:53:59.000Z</time>
      </trkpt>
      <trkpt lat="46.99616" lon="16.11323">
        <ele>356.362284</ele>
        <time>2026-07-08T13:54:00.000Z</time>
      </trkpt>
      <trkpt lat="46.99614" lon="16.11322">
        <ele>356.499264</ele>
        <time>2026-07-08T13:54:01.000Z</time>
      </trkpt>
      <trkpt lat="46.99612" lon="16.11321">
        <ele>356.624061</ele>
        <time>2026-07-08T13:54:02.000Z</time>
      </trkpt>
      <trkpt lat="46.9961" lon="16.11319">
        <ele>356.755702</ele>
        <time>2026-07-08T13:54:03.000Z</time>
      </trkpt>
      <trkpt lat="46.99608" lon="16.11318">
        <ele>356.880499</ele>
        <time>2026-07-08T13:54:04.000Z</time>
      </trkpt>
      <trkpt lat="46.99606" lon="16.11317">
        <ele>357.001583</ele>
        <time>2026-07-08T13:54:05.000Z</time>
      </trkpt>
      <trkpt lat="46.99604" lon="16.11315">
        <ele>357.136484</ele>
        <time>2026-07-08T13:54:06.000Z</time>
      </trkpt>
      <trkpt lat="46.99602" lon="16.11314">
        <ele>357.261281</ele>
        <time>2026-07-08T13:54:07.000Z</time>
      </trkpt>
      <trkpt lat="46.996" lon="16.11313">
        <ele>357.380753</ele>
        <time>2026-07-08T13:54:08.000Z</time>
      </trkpt>
      <trkpt lat="46.99598" lon="16.11312">
        <ele>357.507094</ele>
        <time>2026-07-08T13:54:09.000Z</time>
      </trkpt>
      <trkpt lat="46.99596" lon="16.1131">
        <ele>357.621285</ele>
        <time>2026-07-08T13:54:10.000Z</time>
      </trkpt>
      <trkpt lat="46.99594" lon="16.11309">
        <ele>357.755519</ele>
        <time>2026-07-08T13:54:11.000Z</time>
      </trkpt>
      <trkpt lat="46.99592" lon="16.11308">
        <ele>357.87755</ele>
        <time>2026-07-08T13:54:12.000Z</time>
      </trkpt>
      <trkpt lat="46.9959" lon="16.11307">
        <ele>358.002347</ele>
        <time>2026-07-08T13:54:13.000Z</time>
      </trkpt>
      <trkpt lat="46.99588" lon="16.11306">
        <ele>358.122068</ele>
        <time>2026-07-08T13:54:14.000Z</time>
      </trkpt>
      <trkpt lat="46.99586" lon="16.11305">
        <ele>358.246865</ele>
        <time>2026-07-08T13:54:15.000Z</time>
      </trkpt>
      <trkpt lat="46.99584" lon="16.11304">
        <ele>358.368896</ele>
        <time>2026-07-08T13:54:16.000Z</time>
      </trkpt>
      <trkpt lat="46.99582" lon="16.11303">
        <ele>358.490927</ele>
        <time>2026-07-08T13:54:17.000Z</time>
      </trkpt>
      <trkpt lat="46.9958" lon="16.11302">
        <ele>358.606804</ele>
        <time>2026-07-08T13:54:18.000Z</time>
      </trkpt>
      <trkpt lat="46.99578" lon="16.11301">
        <ele>358.728836</ele>
        <time>2026-07-08T13:54:19.000Z</time>
      </trkpt>
      <trkpt lat="46.99576" lon="16.113">
        <ele>358.853632</ele>
        <time>2026-07-08T13:54:20.000Z</time>
      </trkpt>
      <trkpt lat="46.99574" lon="16.11298">
        <ele>358.978429</ele>
        <time>2026-07-08T13:54:21.000Z</time>
      </trkpt>
      <trkpt lat="46.99572" lon="16.11297">
        <ele>359.101788</ele>
        <time>2026-07-08T13:54:22.000Z</time>
      </trkpt>
      <trkpt lat="46.9957" lon="16.11296">
        <ele>359.21295</ele>
        <time>2026-07-08T13:54:23.000Z</time>
      </trkpt>
      <trkpt lat="46.99568" lon="16.11296">
        <ele>359.342957</ele>
        <time>2026-07-08T13:54:24.000Z</time>
      </trkpt>
      <trkpt lat="46.99566" lon="16.11295">
        <ele>359.460124</ele>
        <time>2026-07-08T13:54:25.000Z</time>
      </trkpt>
      <trkpt lat="46.99564" lon="16.11294">
        <ele>359.591023</ele>
        <time>2026-07-08T13:54:26.000Z</time>
      </trkpt>
      <trkpt lat="46.99562" lon="16.11293">
        <ele>359.71184</ele>
        <time>2026-07-08T13:54:27.000Z</time>
      </trkpt>
      <trkpt lat="46.9956" lon="16.11293">
        <ele>359.837142</ele>
        <time>2026-07-08T13:54:28.000Z</time>
      </trkpt>
      <trkpt lat="46.99558" lon="16.11292">
        <ele>359.968041</ele>
        <time>2026-07-08T13:54:29.000Z</time>
      </trkpt>
      <trkpt lat="46.99555" lon="16.11291">
        <ele>360.098048</ele>
        <time>2026-07-08T13:54:30.000Z</time>
      </trkpt>
      <trkpt lat="46.99553" lon="16.1129">
        <ele>360.216793</ele>
        <time>2026-07-08T13:54:31.000Z</time>
      </trkpt>
      <trkpt lat="46.99551" lon="16.1129">
        <ele>360.340349</ele>
        <time>2026-07-08T13:54:32.000Z</time>
      </trkpt>
      <trkpt lat="46.99549" lon="16.11289">
        <ele>360.470356</ele>
        <time>2026-07-08T13:54:33.000Z</time>
      </trkpt>
      <trkpt lat="46.99547" lon="16.11288">
        <ele>360.606012</ele>
        <time>2026-07-08T13:54:34.000Z</time>
      </trkpt>
      <trkpt lat="46.99545" lon="16.11288">
        <ele>360.723904</ele>
        <time>2026-07-08T13:54:35.000Z</time>
      </trkpt>
      <trkpt lat="46.99543" lon="16.11287">
        <ele>360.852471</ele>
        <time>2026-07-08T13:54:36.000Z</time>
      </trkpt>
      <trkpt lat="46.9954" lon="16.11287">
        <ele>360.981038</ele>
        <time>2026-07-08T13:54:37.000Z</time>
      </trkpt>
      <trkpt lat="46.99538" lon="16.11286">
        <ele>361.103332</ele>
        <time>2026-07-08T13:54:38.000Z</time>
      </trkpt>
      <trkpt lat="46.99536" lon="16.11286">
        <ele>361.218899</ele>
        <time>2026-07-08T13:54:39.000Z</time>
      </trkpt>
      <trkpt lat="46.99534" lon="16.11286">
        <ele>361.347466</ele>
        <time>2026-07-08T13:54:40.000Z</time>
      </trkpt>
      <trkpt lat="46.99532" lon="16.11285">
        <ele>361.481222</ele>
        <time>2026-07-08T13:54:41.000Z</time>
      </trkpt>
      <trkpt lat="46.9953" lon="16.11285">
        <ele>361.60882</ele>
        <time>2026-07-08T13:54:42.000Z</time>
      </trkpt>
      <trkpt lat="46.99528" lon="16.11285">
        <ele>361.713068</ele>
        <time>2026-07-08T13:54:43.000Z</time>
      </trkpt>
      <trkpt lat="46.99527" lon="16.11285">
        <ele>361.784136</ele>
        <time>2026-07-08T13:54:44.000Z</time>
      </trkpt>
      <trkpt lat="46.99525" lon="16.11285">
        <ele>361.853547</ele>
        <time>2026-07-08T13:54:45.000Z</time>
      </trkpt>
      <trkpt lat="46.99524" lon="16.11285">
        <ele>361.940974</ele>
        <time>2026-07-08T13:54:46.000Z</time>
      </trkpt>
      <trkpt lat="46.99522" lon="16.11285">
        <ele>362.02981</ele>
        <time>2026-07-08T13:54:47.000Z</time>
      </trkpt>
      <trkpt lat="46.99521" lon="16.11284">
        <ele>362.126236</ele>
        <time>2026-07-08T13:54:48.000Z</time>
      </trkpt>
      <trkpt lat="46.99519" lon="16.11283">
        <ele>362.227215</ele>
        <time>2026-07-08T13:54:49.000Z</time>
      </trkpt>
      <trkpt lat="46.99517" lon="16.11283">
        <ele>362.329188</ele>
        <time>2026-07-08T13:54:50.000Z</time>
      </trkpt>
      <trkpt lat="46.99515" lon="16.11282">
        <ele>362.444956</ele>
        <time>2026-07-08T13:54:51.000Z</time>
      </trkpt>
      <trkpt lat="46.99513" lon="16.11282">
        <ele>362.566294</ele>
        <time>2026-07-08T13:54:52.000Z</time>
      </trkpt>
      <trkpt lat="46.99511" lon="16.11282">
        <ele>362.682062</ele>
        <time>2026-07-08T13:54:53.000Z</time>
      </trkpt>
      <trkpt lat="46.99509" lon="16.11282">
        <ele>362.792069</ele>
        <time>2026-07-08T13:54:54.000Z</time>
      </trkpt>
      <trkpt lat="46.99508" lon="16.11282">
        <ele>362.896689</ele>
        <time>2026-07-08T13:54:55.000Z</time>
      </trkpt>
      <trkpt lat="46.99506" lon="16.11281">
        <ele>363.013855</ele>
        <time>2026-07-08T13:54:56.000Z</time>
      </trkpt>
      <trkpt lat="46.99503" lon="16.1128">
        <ele>363.143862</ele>
        <time>2026-07-08T13:54:57.000Z</time>
      </trkpt>
      <trkpt lat="46.99501" lon="16.1128">
        <ele>363.261755</ele>
        <time>2026-07-08T13:54:58.000Z</time>
      </trkpt>
      <trkpt lat="46.99499" lon="16.11279">
        <ele>363.396032</ele>
        <time>2026-07-08T13:54:59.000Z</time>
      </trkpt>
      <trkpt lat="46.99497" lon="16.11279">
        <ele>363.524599</ele>
        <time>2026-07-08T13:55:00.000Z</time>
      </trkpt>
      <trkpt lat="46.99495" lon="16.11278">
        <ele>363.641766</ele>
        <time>2026-07-08T13:55:01.000Z</time>
      </trkpt>
      <trkpt lat="46.99493" lon="16.11278">
        <ele>363.777422</ele>
        <time>2026-07-08T13:55:02.000Z</time>
      </trkpt>
      <trkpt lat="46.99491" lon="16.11277">
        <ele>363.893524</ele>
        <time>2026-07-08T13:55:03.000Z</time>
      </trkpt>
      <trkpt lat="46.99489" lon="16.11277">
        <ele>364.010691</ele>
        <time>2026-07-08T13:55:04.000Z</time>
      </trkpt>
      <trkpt lat="46.99487" lon="16.11276">
        <ele>364.129436</ele>
        <time>2026-07-08T13:55:05.000Z</time>
      </trkpt>
      <trkpt lat="46.99484" lon="16.11275">
        <ele>364.260335</ele>
        <time>2026-07-08T13:55:06.000Z</time>
      </trkpt>
      <trkpt lat="46.99482" lon="16.11274">
        <ele>364.381153</ele>
        <time>2026-07-08T13:55:07.000Z</time>
      </trkpt>
      <trkpt lat="46.9948" lon="16.11274">
        <ele>364.467952</ele>
        <time>2026-07-08T13:55:08.000Z</time>
      </trkpt>
      <trkpt lat="46.99478" lon="16.11274">
        <ele>364.552933</ele>
        <time>2026-07-08T13:55:09.000Z</time>
      </trkpt>
      <trkpt lat="46.99476" lon="16.11273">
        <ele>364.6426</ele>
        <time>2026-07-08T13:55:10.000Z</time>
      </trkpt>
      <trkpt lat="46.99474" lon="16.11272">
        <ele>364.725416</ele>
        <time>2026-07-08T13:55:11.000Z</time>
      </trkpt>
      <trkpt lat="46.99472" lon="16.11272">
        <ele>364.815544</ele>
        <time>2026-07-08T13:55:12.000Z</time>
      </trkpt>
      <trkpt lat="46.9947" lon="16.11271">
        <ele>364.909192</ele>
        <time>2026-07-08T13:55:13.000Z</time>
      </trkpt>
      <trkpt lat="46.99467" lon="16.11271">
        <ele>364.998479</ele>
        <time>2026-07-08T13:55:14.000Z</time>
      </trkpt>
      <trkpt lat="46.99465" lon="16.1127">
        <ele>365.084651</ele>
        <time>2026-07-08T13:55:15.000Z</time>
      </trkpt>
      <trkpt lat="46.99463" lon="16.1127">
        <ele>365.173937</ele>
        <time>2026-07-08T13:55:16.000Z</time>
      </trkpt>
      <trkpt lat="46.99461" lon="16.11269">
        <ele>365.263604</ele>
        <time>2026-07-08T13:55:17.000Z</time>
      </trkpt>
      <trkpt lat="46.99459" lon="16.11269">
        <ele>365.337951</ele>
        <time>2026-07-08T13:55:18.000Z</time>
      </trkpt>
      <trkpt lat="46.99457" lon="16.11268">
        <ele>365.422213</ele>
        <time>2026-07-08T13:55:19.000Z</time>
      </trkpt>
      <trkpt lat="46.99455" lon="16.11267">
        <ele>365.507321</ele>
        <time>2026-07-08T13:55:20.000Z</time>
      </trkpt>
      <trkpt lat="46.99453" lon="16.11266">
        <ele>365.60009</ele>
        <time>2026-07-08T13:55:21.000Z</time>
      </trkpt>
      <trkpt lat="46.99451" lon="16.11265">
        <ele>365.683587</ele>
        <time>2026-07-08T13:55:22.000Z</time>
      </trkpt>
      <trkpt lat="46.99449" lon="16.11264">
        <ele>365.768695</ele>
        <time>2026-07-08T13:55:23.000Z</time>
      </trkpt>
      <trkpt lat="46.99447" lon="16.11263">
        <ele>365.846223</ele>
        <time>2026-07-08T13:55:24.000Z</time>
      </trkpt>
      <trkpt lat="46.99445" lon="16.11262">
        <ele>365.929039</ele>
        <time>2026-07-08T13:55:25.000Z</time>
      </trkpt>
      <trkpt lat="46.99443" lon="16.11262">
        <ele>366.018706</ele>
        <time>2026-07-08T13:55:26.000Z</time>
      </trkpt>
      <trkpt lat="46.99441" lon="16.11261">
        <ele>366.100421</ele>
        <time>2026-07-08T13:55:27.000Z</time>
      </trkpt>
      <trkpt lat="46.99439" lon="16.11261">
        <ele>366.18611</ele>
        <time>2026-07-08T13:55:28.000Z</time>
      </trkpt>
      <trkpt lat="46.99437" lon="16.1126">
        <ele>366.276238</ele>
        <time>2026-07-08T13:55:29.000Z</time>
      </trkpt>
      <trkpt lat="46.99434" lon="16.1126">
        <ele>366.365904</ele>
        <time>2026-07-08T13:55:30.000Z</time>
      </trkpt>
      <trkpt lat="46.99432" lon="16.11259">
        <ele>366.447619</ele>
        <time>2026-07-08T13:55:31.000Z</time>
      </trkpt>
      <trkpt lat="46.9943" lon="16.11259">
        <ele>366.530436</ele>
        <time>2026-07-08T13:55:32.000Z</time>
      </trkpt>
      <trkpt lat="46.99428" lon="16.11258">
        <ele>366.616124</ele>
        <time>2026-07-08T13:55:33.000Z</time>
      </trkpt>
      <trkpt lat="46.99426" lon="16.11258">
        <ele>366.704902</ele>
        <time>2026-07-08T13:55:34.000Z</time>
      </trkpt>
      <trkpt lat="46.99424" lon="16.11257">
        <ele>366.786618</ele>
        <time>2026-07-08T13:55:35.000Z</time>
      </trkpt>
      <trkpt lat="46.99422" lon="16.11257">
        <ele>366.875608</ele>
        <time>2026-07-08T13:55:36.000Z</time>
      </trkpt>
      <trkpt lat="46.9942" lon="16.11257">
        <ele>366.960367</ele>
        <time>2026-07-08T13:55:37.000Z</time>
      </trkpt>
      <trkpt lat="46.99418" lon="16.11257">
        <ele>367.049145</ele>
        <time>2026-07-08T13:55:38.000Z</time>
      </trkpt>
      <trkpt lat="46.99415" lon="16.11257">
        <ele>367.141781</ele>
        <time>2026-07-08T13:55:39.000Z</time>
      </trkpt>
      <trkpt lat="46.99413" lon="16.11257">
        <ele>367.230559</ele>
        <time>2026-07-08T13:55:40.000Z</time>
      </trkpt>
      <trkpt lat="46.99411" lon="16.11257">
        <ele>367.31921</ele>
        <time>2026-07-08T13:55:41.000Z</time>
      </trkpt>
      <trkpt lat="46.99409" lon="16.11258">
        <ele>367.412008</ele>
        <time>2026-07-08T13:55:42.000Z</time>
      </trkpt>
      <trkpt lat="46.99407" lon="16.11258">
        <ele>367.492982</ele>
        <time>2026-07-08T13:55:43.000Z</time>
      </trkpt>
      <trkpt lat="46.99404" lon="16.11258">
        <ele>367.58663</ele>
        <time>2026-07-08T13:55:44.000Z</time>
      </trkpt>
      <trkpt lat="46.99402" lon="16.11259">
        <ele>367.684264</ele>
        <time>2026-07-08T13:55:45.000Z</time>
      </trkpt>
      <trkpt lat="46.994" lon="16.1126">
        <ele>367.778875</ele>
        <time>2026-07-08T13:55:46.000Z</time>
      </trkpt>
      <trkpt lat="46.99397" lon="16.1126">
        <ele>367.872524</ele>
        <time>2026-07-08T13:55:47.000Z</time>
      </trkpt>
      <trkpt lat="46.99395" lon="16.11261">
        <ele>367.971081</ele>
        <time>2026-07-08T13:55:48.000Z</time>
      </trkpt>
      <trkpt lat="46.99393" lon="16.11261">
        <ele>368.065172</ele>
        <time>2026-07-08T13:55:49.000Z</time>
      </trkpt>
      <trkpt lat="46.9939" lon="16.11263">
        <ele>368.159713</ele>
        <time>2026-07-08T13:55:50.000Z</time>
      </trkpt>
      <trkpt lat="46.99388" lon="16.11264">
        <ele>368.261101</ele>
        <time>2026-07-08T13:55:51.000Z</time>
      </trkpt>
      <trkpt lat="46.99386" lon="16.11266">
        <ele>368.351582</ele>
        <time>2026-07-08T13:55:52.000Z</time>
      </trkpt>
      <trkpt lat="46.99384" lon="16.11267">
        <ele>368.446101</ele>
        <time>2026-07-08T13:55:53.000Z</time>
      </trkpt>
      <trkpt lat="46.99382" lon="16.11269">
        <ele>368.542087</ele>
        <time>2026-07-08T13:55:54.000Z</time>
      </trkpt>
      <trkpt lat="46.9938" lon="16.11271">
        <ele>368.639593</ele>
        <time>2026-07-08T13:55:55.000Z</time>
      </trkpt>
      <trkpt lat="46.99378" lon="16.11273">
        <ele>368.731358</ele>
        <time>2026-07-08T13:55:56.000Z</time>
      </trkpt>
      <trkpt lat="46.99376" lon="16.11275">
        <ele>368.83152</ele>
        <time>2026-07-08T13:55:57.000Z</time>
      </trkpt>
      <trkpt lat="46.99374" lon="16.11276">
        <ele>368.925604</ele>
        <time>2026-07-08T13:55:58.000Z</time>
      </trkpt>
      <trkpt lat="46.99372" lon="16.11277">
        <ele>369.021139</ele>
        <time>2026-07-08T13:55:59.000Z</time>
      </trkpt>
      <trkpt lat="46.99369" lon="16.11279">
        <ele>369.121301</ele>
        <time>2026-07-08T13:56:00.000Z</time>
      </trkpt>
      <trkpt lat="46.99367" lon="16.11281">
        <ele>369.219276</ele>
        <time>2026-07-08T13:56:01.000Z</time>
      </trkpt>
      <trkpt lat="46.99365" lon="16.11283">
        <ele>369.311907</ele>
        <time>2026-07-08T13:56:02.000Z</time>
      </trkpt>
      <trkpt lat="46.99363" lon="16.11285">
        <ele>369.406426</ele>
        <time>2026-07-08T13:56:03.000Z</time>
      </trkpt>
      <trkpt lat="46.99361" lon="16.11286">
        <ele>369.499538</ele>
        <time>2026-07-08T13:56:04.000Z</time>
      </trkpt>
      <trkpt lat="46.99359" lon="16.11288">
        <ele>369.591303</ele>
        <time>2026-07-08T13:56:05.000Z</time>
      </trkpt>
      <trkpt lat="46.99357" lon="16.1129">
        <ele>369.688809</ele>
        <time>2026-07-08T13:56:06.000Z</time>
      </trkpt>
      <trkpt lat="46.99356" lon="16.11292">
        <ele>369.783195</ele>
        <time>2026-07-08T13:56:07.000Z</time>
      </trkpt>
      <trkpt lat="46.99354" lon="16.11294">
        <ele>369.880702</ele>
        <time>2026-07-08T13:56:08.000Z</time>
      </trkpt>
      <trkpt lat="46.99352" lon="16.11296">
        <ele>369.975087</ele>
        <time>2026-07-08T13:56:09.000Z</time>
      </trkpt>
      <trkpt lat="46.9935" lon="16.11298">
        <ele>370.076559</ele>
        <time>2026-07-08T13:56:10.000Z</time>
      </trkpt>
      <trkpt lat="46.99347" lon="16.113">
        <ele>370.180819</ele>
        <time>2026-07-08T13:56:11.000Z</time>
      </trkpt>
      <trkpt lat="46.99345" lon="16.11302">
        <ele>370.281524</ele>
        <time>2026-07-08T13:56:12.000Z</time>
      </trkpt>
      <trkpt lat="46.99343" lon="16.11304">
        <ele>370.379499</ele>
        <time>2026-07-08T13:56:13.000Z</time>
      </trkpt>
      <trkpt lat="46.99341" lon="16.11306">
        <ele>370.493502</ele>
        <time>2026-07-08T13:56:14.000Z</time>
      </trkpt>
      <trkpt lat="46.99339" lon="16.11308">
        <ele>370.598509</ele>
        <time>2026-07-08T13:56:16.000Z</time>
      </trkpt>
      <trkpt lat="46.99336" lon="16.1131">
        <ele>370.706213</ele>
        <time>2026-07-08T13:56:17.000Z</time>
      </trkpt>
      <trkpt lat="46.99334" lon="16.11312">
        <ele>370.808591</ele>
        <time>2026-07-08T13:56:18.000Z</time>
      </trkpt>
      <trkpt lat="46.99332" lon="16.11315">
        <ele>370.926028</ele>
        <time>2026-07-08T13:56:19.000Z</time>
      </trkpt>
      <trkpt lat="46.99329" lon="16.11317">
        <ele>371.055107</ele>
        <time>2026-07-08T13:56:20.000Z</time>
      </trkpt>
      <trkpt lat="46.99326" lon="16.11318">
        <ele>371.185663</ele>
        <time>2026-07-08T13:56:21.000Z</time>
      </trkpt>
      <trkpt lat="46.99323" lon="16.1132">
        <ele>371.324816</ele>
        <time>2026-07-08T13:56:22.000Z</time>
      </trkpt>
      <trkpt lat="46.99319" lon="16.11321">
        <ele>371.461756</ele>
        <time>2026-07-08T13:56:23.000Z</time>
      </trkpt>
      <trkpt lat="46.99316" lon="16.11322">
        <ele>371.59137</ele>
        <time>2026-07-08T13:56:24.000Z</time>
      </trkpt>
      <trkpt lat="46.99313" lon="16.11322">
        <ele>371.640697</ele>
        <time>2026-07-08T13:56:25.000Z</time>
      </trkpt>
      <trkpt lat="46.9931" lon="16.11322">
        <ele>371.638485</ele>
        <time>2026-07-08T13:56:26.000Z</time>
      </trkpt>
      <trkpt lat="46.99307" lon="16.11323">
        <ele>371.636103</ele>
        <time>2026-07-08T13:56:27.000Z</time>
      </trkpt>
      <trkpt lat="46.99304" lon="16.11323">
        <ele>371.633871</ele>
        <time>2026-07-08T13:56:28.000Z</time>
      </trkpt>
      <trkpt lat="46.99301" lon="16.11324">
        <ele>371.631488</ele>
        <time>2026-07-08T13:56:29.000Z</time>
      </trkpt>
      <trkpt lat="46.99298" lon="16.11324">
        <ele>371.629106</ele>
        <time>2026-07-08T13:56:30.000Z</time>
      </trkpt>
      <trkpt lat="46.99295" lon="16.11325">
        <ele>371.626737</ele>
        <time>2026-07-08T13:56:31.000Z</time>
      </trkpt>
      <trkpt lat="46.99292" lon="16.11324">
        <ele>371.624368</ele>
        <time>2026-07-08T13:56:32.000Z</time>
      </trkpt>
      <trkpt lat="46.99289" lon="16.11324">
        <ele>371.621829</ele>
        <time>2026-07-08T13:56:33.000Z</time>
      </trkpt>
      <trkpt lat="46.99286" lon="16.11323">
        <ele>371.619423</ele>
        <time>2026-07-08T13:56:34.000Z</time>
      </trkpt>
      <trkpt lat="46.99283" lon="16.11322">
        <ele>371.616792</ele>
        <time>2026-07-08T13:56:35.000Z</time>
      </trkpt>
      <trkpt lat="46.9928" lon="16.11322">
        <ele>371.614231</ele>
        <time>2026-07-08T13:56:36.000Z</time>
      </trkpt>
      <trkpt lat="46.99276" lon="16.1132">
        <ele>371.611625</ele>
        <time>2026-07-08T13:56:37.000Z</time>
      </trkpt>
      <trkpt lat="46.99273" lon="16.11319">
        <ele>371.608955</ele>
        <time>2026-07-08T13:56:38.000Z</time>
      </trkpt>
      <trkpt lat="46.9927" lon="16.11318">
        <ele>371.606374</ele>
        <time>2026-07-08T13:56:39.000Z</time>
      </trkpt>
      <trkpt lat="46.99267" lon="16.11317">
        <ele>371.60392</ele>
        <time>2026-07-08T13:56:40.000Z</time>
      </trkpt>
      <trkpt lat="46.99264" lon="16.11316">
        <ele>371.60142</ele>
        <time>2026-07-08T13:56:41.000Z</time>
      </trkpt>
      <trkpt lat="46.99261" lon="16.11314">
        <ele>371.598966</ele>
        <time>2026-07-08T13:56:42.000Z</time>
      </trkpt>
      <trkpt lat="46.99258" lon="16.11313">
        <ele>371.596526</ele>
        <time>2026-07-08T13:56:43.000Z</time>
      </trkpt>
      <trkpt lat="46.99255" lon="16.11312">
        <ele>371.594174</ele>
        <time>2026-07-08T13:56:44.000Z</time>
      </trkpt>
      <trkpt lat="46.99252" lon="16.1131">
        <ele>371.59184</ele>
        <time>2026-07-08T13:56:45.000Z</time>
      </trkpt>
      <trkpt lat="46.99249" lon="16.11309">
        <ele>371.589396</ele>
        <time>2026-07-08T13:56:46.000Z</time>
      </trkpt>
      <trkpt lat="46.99247" lon="16.11307">
        <ele>371.587005</ele>
        <time>2026-07-08T13:56:47.000Z</time>
      </trkpt>
      <trkpt lat="46.99244" lon="16.11305">
        <ele>371.584593</ele>
        <time>2026-07-08T13:56:48.000Z</time>
      </trkpt>
      <trkpt lat="46.99241" lon="16.11303">
        <ele>371.581896</ele>
        <time>2026-07-08T13:56:49.000Z</time>
      </trkpt>
      <trkpt lat="46.99238" lon="16.113">
        <ele>371.57901</ele>
        <time>2026-07-08T13:56:50.000Z</time>
      </trkpt>
      <trkpt lat="46.99234" lon="16.11297">
        <ele>371.576013</ele>
        <time>2026-07-08T13:56:51.000Z</time>
      </trkpt>
      <trkpt lat="46.99231" lon="16.11294">
        <ele>371.573022</ele>
        <time>2026-07-08T13:56:52.000Z</time>
      </trkpt>
      <trkpt lat="46.99228" lon="16.11291">
        <ele>371.569739</ele>
        <time>2026-07-08T13:56:53.000Z</time>
      </trkpt>
      <trkpt lat="46.99225" lon="16.11287">
        <ele>371.566589</ele>
        <time>2026-07-08T13:56:54.000Z</time>
      </trkpt>
      <trkpt lat="46.99221" lon="16.11284">
        <ele>371.563311</ele>
        <time>2026-07-08T13:56:55.000Z</time>
      </trkpt>
      <trkpt lat="46.99218" lon="16.1128">
        <ele>371.560183</ele>
        <time>2026-07-08T13:56:56.000Z</time>
      </trkpt>
      <trkpt lat="46.99215" lon="16.11276">
        <ele>371.5569</ele>
        <time>2026-07-08T13:56:57.000Z</time>
      </trkpt>
      <trkpt lat="46.99212" lon="16.11272">
        <ele>371.553589</ele>
        <time>2026-07-08T13:56:58.000Z</time>
      </trkpt>
      <trkpt lat="46.99208" lon="16.11268">
        <ele>371.550249</ele>
        <time>2026-07-08T13:56:59.000Z</time>
      </trkpt>
      <trkpt lat="46.99205" lon="16.11265">
        <ele>371.547224</ele>
        <time>2026-07-08T13:57:00.000Z</time>
      </trkpt>
      <trkpt lat="46.99202" lon="16.11261">
        <ele>371.544137</ele>
        <time>2026-07-08T13:57:01.000Z</time>
      </trkpt>
      <trkpt lat="46.99199" lon="16.11258">
        <ele>371.541111</ele>
        <time>2026-07-08T13:57:02.000Z</time>
      </trkpt>
      <trkpt lat="46.99196" lon="16.11255">
        <ele>371.538114</ele>
        <time>2026-07-08T13:57:03.000Z</time>
      </trkpt>
      <trkpt lat="46.99193" lon="16.11252">
        <ele>371.53505</ele>
        <time>2026-07-08T13:57:04.000Z</time>
      </trkpt>
      <trkpt lat="46.99189" lon="16.11249">
        <ele>371.531852</ele>
        <time>2026-07-08T13:57:05.000Z</time>
      </trkpt>
      <trkpt lat="46.99185" lon="16.11247">
        <ele>371.52852</ele>
        <time>2026-07-08T13:57:06.000Z</time>
      </trkpt>
      <trkpt lat="46.99181" lon="16.11245">
        <ele>371.52526</ele>
        <time>2026-07-08T13:57:07.000Z</time>
      </trkpt>
      <trkpt lat="46.99177" lon="16.11243">
        <ele>371.521975</ele>
        <time>2026-07-08T13:57:08.000Z</time>
      </trkpt>
      <trkpt lat="46.99173" lon="16.11241">
        <ele>371.518487</ele>
        <time>2026-07-08T13:57:09.000Z</time>
      </trkpt>
      <trkpt lat="46.99169" lon="16.1124">
        <ele>371.51513</ele>
        <time>2026-07-08T13:57:10.000Z</time>
      </trkpt>
      <trkpt lat="46.99165" lon="16.1124">
        <ele>371.511891</ele>
        <time>2026-07-08T13:57:11.000Z</time>
      </trkpt>
      <trkpt lat="46.99161" lon="16.1124">
        <ele>371.508574</ele>
        <time>2026-07-08T13:57:12.000Z</time>
      </trkpt>
      <trkpt lat="46.99157" lon="16.11241">
        <ele>371.505396</ele>
        <time>2026-07-08T13:57:13.000Z</time>
      </trkpt>
      <trkpt lat="46.99153" lon="16.11243">
        <ele>371.502261</ele>
        <time>2026-07-08T13:57:14.000Z</time>
      </trkpt>
      <trkpt lat="46.99149" lon="16.11245">
        <ele>371.488285</ele>
        <time>2026-07-08T13:57:15.000Z</time>
      </trkpt>
      <trkpt lat="46.99145" lon="16.11247">
        <ele>371.455359</ele>
        <time>2026-07-08T13:57:16.000Z</time>
      </trkpt>
      <trkpt lat="46.99142" lon="16.1125">
        <ele>371.42458</ele>
        <time>2026-07-08T13:57:17.000Z</time>
      </trkpt>
      <trkpt lat="46.99138" lon="16.11253">
        <ele>371.393484</ele>
        <time>2026-07-08T13:57:18.000Z</time>
      </trkpt>
      <trkpt lat="46.99135" lon="16.11256">
        <ele>371.3625</ele>
        <time>2026-07-08T13:57:19.000Z</time>
      </trkpt>
      <trkpt lat="46.99132" lon="16.11259">
        <ele>371.333411</ele>
        <time>2026-07-08T13:57:20.000Z</time>
      </trkpt>
      <trkpt lat="46.9913" lon="16.11263">
        <ele>371.304193</ele>
        <time>2026-07-08T13:57:21.000Z</time>
      </trkpt>
      <trkpt lat="46.99127" lon="16.11267">
        <ele>371.274976</ele>
        <time>2026-07-08T13:57:22.000Z</time>
      </trkpt>
      <trkpt lat="46.99125" lon="16.11271">
        <ele>371.246351</ele>
        <time>2026-07-08T13:57:23.000Z</time>
      </trkpt>
      <trkpt lat="46.99122" lon="16.11276">
        <ele>371.213355</ele>
        <time>2026-07-08T13:57:24.000Z</time>
      </trkpt>
      <trkpt lat="46.9912" lon="16.11281">
        <ele>371.179925</ele>
        <time>2026-07-08T13:57:25.000Z</time>
      </trkpt>
      <trkpt lat="46.99117" lon="16.11286">
        <ele>371.14361</ele>
        <time>2026-07-08T13:57:26.000Z</time>
      </trkpt>
      <trkpt lat="46.99114" lon="16.11291">
        <ele>371.110181</ele>
        <time>2026-07-08T13:57:27.000Z</time>
      </trkpt>
      <trkpt lat="46.99111" lon="16.11296">
        <ele>371.075297</ele>
        <time>2026-07-08T13:57:28.000Z</time>
      </trkpt>
      <trkpt lat="46.99108" lon="16.11301">
        <ele>371.039077</ele>
        <time>2026-07-08T13:57:29.000Z</time>
      </trkpt>
      <trkpt lat="46.99106" lon="16.11306">
        <ele>371.00431</ele>
        <time>2026-07-08T13:57:30.000Z</time>
      </trkpt>
      <trkpt lat="46.99103" lon="16.11311">
        <ele>370.970761</ele>
        <time>2026-07-08T13:57:31.000Z</time>
      </trkpt>
      <trkpt lat="46.991" lon="16.11316">
        <ele>370.938444</ele>
        <time>2026-07-08T13:57:32.000Z</time>
      </trkpt>
      <trkpt lat="46.99098" lon="16.1132">
        <ele>370.906387</ele>
        <time>2026-07-08T13:57:33.000Z</time>
      </trkpt>
      <trkpt lat="46.99094" lon="16.11324">
        <ele>370.873143</ele>
        <time>2026-07-08T13:57:34.000Z</time>
      </trkpt>
      <trkpt lat="46.99092" lon="16.11328">
        <ele>370.843343</ele>
        <time>2026-07-08T13:57:35.000Z</time>
      </trkpt>
      <trkpt lat="46.99089" lon="16.11331">
        <ele>370.81235</ele>
        <time>2026-07-08T13:57:36.000Z</time>
      </trkpt>
      <trkpt lat="46.99085" lon="16.11334">
        <ele>370.780024</ele>
        <time>2026-07-08T13:57:37.000Z</time>
      </trkpt>
      <trkpt lat="46.99082" lon="16.11337">
        <ele>370.749478</ele>
        <time>2026-07-08T13:57:38.000Z</time>
      </trkpt>
      <trkpt lat="46.99078" lon="16.11339">
        <ele>370.721038</ele>
        <time>2026-07-08T13:57:39.000Z</time>
      </trkpt>
      <trkpt lat="46.99075" lon="16.11341">
        <ele>370.695612</ele>
        <time>2026-07-08T13:57:40.000Z</time>
      </trkpt>
      <trkpt lat="46.99072" lon="16.11342">
        <ele>370.667197</ele>
        <time>2026-07-08T13:57:41.000Z</time>
      </trkpt>
      <trkpt lat="46.99068" lon="16.11343">
        <ele>370.637351</ele>
        <time>2026-07-08T13:57:42.000Z</time>
      </trkpt>
      <trkpt lat="46.99065" lon="16.11344">
        <ele>370.608936</ele>
        <time>2026-07-08T13:57:43.000Z</time>
      </trkpt>
      <trkpt lat="46.99061" lon="16.11346">
        <ele>370.581284</ele>
        <time>2026-07-08T13:57:44.000Z</time>
      </trkpt>
      <trkpt lat="46.99058" lon="16.11347">
        <ele>370.554725</ele>
        <time>2026-07-08T13:57:45.000Z</time>
      </trkpt>
      <trkpt lat="46.99055" lon="16.11349">
        <ele>370.528474</ele>
        <time>2026-07-08T13:57:46.000Z</time>
      </trkpt>
      <trkpt lat="46.99052" lon="16.1135">
        <ele>370.501596</ele>
        <time>2026-07-08T13:57:47.000Z</time>
      </trkpt>
      <trkpt lat="46.99048" lon="16.11351">
        <ele>370.47573</ele>
        <time>2026-07-08T13:57:48.000Z</time>
      </trkpt>
      <trkpt lat="46.99045" lon="16.11352">
        <ele>370.449091</ele>
        <time>2026-07-08T13:57:49.000Z</time>
      </trkpt>
      <trkpt lat="46.99042" lon="16.11353">
        <ele>370.422649</ele>
        <time>2026-07-08T13:57:50.000Z</time>
      </trkpt>
      <trkpt lat="46.99038" lon="16.11353">
        <ele>370.395749</ele>
        <time>2026-07-08T13:57:51.000Z</time>
      </trkpt>
      <trkpt lat="46.99035" lon="16.11353">
        <ele>370.369656</ele>
        <time>2026-07-08T13:57:52.000Z</time>
      </trkpt>
      <trkpt lat="46.99031" lon="16.11353">
        <ele>370.340406</ele>
        <time>2026-07-08T13:57:53.000Z</time>
      </trkpt>
      <trkpt lat="46.99028" lon="16.11353">
        <ele>370.315899</ele>
        <time>2026-07-08T13:57:54.000Z</time>
      </trkpt>
      <trkpt lat="46.99025" lon="16.11353">
        <ele>370.28823</ele>
        <time>2026-07-08T13:57:55.000Z</time>
      </trkpt>
      <trkpt lat="46.99021" lon="16.11353">
        <ele>370.260561</ele>
        <time>2026-07-08T13:57:56.000Z</time>
      </trkpt>
      <trkpt lat="46.99018" lon="16.11353">
        <ele>370.235212</ele>
        <time>2026-07-08T13:57:57.000Z</time>
      </trkpt>
      <trkpt lat="46.99015" lon="16.11352">
        <ele>370.209074</ele>
        <time>2026-07-08T13:57:58.000Z</time>
      </trkpt>
      <trkpt lat="46.99012" lon="16.11352">
        <ele>370.185205</ele>
        <time>2026-07-08T13:57:59.000Z</time>
      </trkpt>
      <trkpt lat="46.99009" lon="16.11351">
        <ele>370.159628</ele>
        <time>2026-07-08T13:58:00.000Z</time>
      </trkpt>
      <trkpt lat="46.98961" lon="16.11334">
        <ele>370.478103</ele>
        <time>2026-07-08T13:58:16.000Z</time>
      </trkpt>
      <trkpt lat="46.98958" lon="16.11332">
        <ele>370.516925</ele>
        <time>2026-07-08T13:58:17.000Z</time>
      </trkpt>
      <trkpt lat="46.98954" lon="16.11329">
        <ele>370.556857</ele>
        <time>2026-07-08T13:58:18.000Z</time>
      </trkpt>
      <trkpt lat="46.98951" lon="16.11327">
        <ele>370.598064</ele>
        <time>2026-07-08T13:58:19.000Z</time>
      </trkpt>
      <trkpt lat="46.98947" lon="16.11324">
        <ele>370.640168</ele>
        <time>2026-07-08T13:58:20.000Z</time>
      </trkpt>
      <trkpt lat="46.98943" lon="16.11322">
        <ele>370.683212</ele>
        <time>2026-07-08T13:58:21.000Z</time>
      </trkpt>
      <trkpt lat="46.98939" lon="16.11319">
        <ele>370.729547</ele>
        <time>2026-07-08T13:58:22.000Z</time>
      </trkpt>
      <trkpt lat="46.98935" lon="16.11317">
        <ele>370.771273</ele>
        <time>2026-07-08T13:58:23.000Z</time>
      </trkpt>
      <trkpt lat="46.98932" lon="16.11315">
        <ele>370.811205</ele>
        <time>2026-07-08T13:58:24.000Z</time>
      </trkpt>
      <trkpt lat="46.98928" lon="16.11313">
        <ele>370.849537</ele>
        <time>2026-07-08T13:58:25.000Z</time>
      </trkpt>
      <trkpt lat="46.98925" lon="16.11311">
        <ele>370.885925</ele>
        <time>2026-07-08T13:58:26.000Z</time>
      </trkpt>
      <trkpt lat="46.98922" lon="16.11309">
        <ele>370.921605</ele>
        <time>2026-07-08T13:58:27.000Z</time>
      </trkpt>
      <trkpt lat="46.98918" lon="16.11308">
        <ele>370.957526</ele>
        <time>2026-07-08T13:58:28.000Z</time>
      </trkpt>
      <trkpt lat="46.98915" lon="16.11305">
        <ele>370.994674</ele>
        <time>2026-07-08T13:58:29.000Z</time>
      </trkpt>
      <trkpt lat="46.98912" lon="16.11303">
        <ele>371.031505</ele>
        <time>2026-07-08T13:58:30.000Z</time>
      </trkpt>
      <trkpt lat="46.98909" lon="16.11301">
        <ele>371.067412</ele>
        <time>2026-07-08T13:58:31.000Z</time>
      </trkpt>
      <trkpt lat="46.98906" lon="16.11299">
        <ele>371.103362</ele>
        <time>2026-07-08T13:58:32.000Z</time>
      </trkpt>
      <trkpt lat="46.98902" lon="16.11297">
        <ele>371.142184</ele>
        <time>2026-07-08T13:58:33.000Z</time>
      </trkpt>
      <trkpt lat="46.98898" lon="16.11295">
        <ele>371.183243</ele>
        <time>2026-07-08T13:58:34.000Z</time>
      </trkpt>
      <trkpt lat="46.98895" lon="16.11294">
        <ele>371.222916</ele>
        <time>2026-07-08T13:58:35.000Z</time>
      </trkpt>
      <trkpt lat="46.98891" lon="16.11292">
        <ele>371.26259</ele>
        <time>2026-07-08T13:58:36.000Z</time>
      </trkpt>
      <trkpt lat="46.98887" lon="16.11291">
        <ele>371.300275</ele>
        <time>2026-07-08T13:58:37.000Z</time>
      </trkpt>
      <trkpt lat="46.98884" lon="16.11289">
        <ele>371.337588</ele>
        <time>2026-07-08T13:58:38.000Z</time>
      </trkpt>
      <trkpt lat="46.98881" lon="16.11288">
        <ele>371.371111</ele>
        <time>2026-07-08T13:58:39.000Z</time>
      </trkpt>
      <trkpt lat="46.98878" lon="16.11287">
        <ele>371.401379</ele>
        <time>2026-07-08T13:58:40.000Z</time>
      </trkpt>
      <trkpt lat="46.98875" lon="16.11286">
        <ele>371.430004</ele>
        <time>2026-07-08T13:58:41.000Z</time>
      </trkpt>
      <trkpt lat="46.98872" lon="16.11285">
        <ele>371.460181</ele>
        <time>2026-07-08T13:58:42.000Z</time>
      </trkpt>
      <trkpt lat="46.9887" lon="16.11285">
        <ele>371.489331</ele>
        <time>2026-07-08T13:58:43.000Z</time>
      </trkpt>
      <trkpt lat="46.98867" lon="16.11284">
        <ele>371.518813</ele>
        <time>2026-07-08T13:58:44.000Z</time>
      </trkpt>
      <trkpt lat="46.98864" lon="16.11283">
        <ele>371.552249</ele>
        <time>2026-07-08T13:58:45.000Z</time>
      </trkpt>
      <trkpt lat="46.9886" lon="16.11283">
        <ele>371.585589</ele>
        <time>2026-07-08T13:58:46.000Z</time>
      </trkpt>
      <trkpt lat="46.98857" lon="16.11282">
        <ele>371.619875</ele>
        <time>2026-07-08T13:58:47.000Z</time>
      </trkpt>
      <trkpt lat="46.98854" lon="16.11282">
        <ele>371.654334</ele>
        <time>2026-07-08T13:58:48.000Z</time>
      </trkpt>
      <trkpt lat="46.98851" lon="16.11281">
        <ele>371.687771</ele>
        <time>2026-07-08T13:58:49.000Z</time>
      </trkpt>
      <trkpt lat="46.98848" lon="16.11281">
        <ele>371.718783</ele>
        <time>2026-07-08T13:58:50.000Z</time>
      </trkpt>
      <trkpt lat="46.98845" lon="16.11281">
        <ele>371.746686</ele>
        <time>2026-07-08T13:58:51.000Z</time>
      </trkpt>
      <trkpt lat="46.98842" lon="16.1128">
        <ele>371.773704</ele>
        <time>2026-07-08T13:58:52.000Z</time>
      </trkpt>
      <trkpt lat="46.9884" lon="16.1128">
        <ele>371.799884</ele>
        <time>2026-07-08T13:58:53.000Z</time>
      </trkpt>
      <trkpt lat="46.98837" lon="16.11279">
        <ele>371.825874</ele>
        <time>2026-07-08T13:58:54.000Z</time>
      </trkpt>
      <trkpt lat="46.98834" lon="16.1128">
        <ele>371.855976</ele>
        <time>2026-07-08T13:58:55.000Z</time>
      </trkpt>
      <trkpt lat="46.98831" lon="16.1128">
        <ele>371.888021</ele>
        <time>2026-07-08T13:58:56.000Z</time>
      </trkpt>
      <trkpt lat="46.98828" lon="16.1128">
        <ele>371.92422</ele>
        <time>2026-07-08T13:58:57.000Z</time>
      </trkpt>
      <trkpt lat="46.98825" lon="16.11281">
        <ele>371.895853</ele>
        <time>2026-07-08T13:58:58.000Z</time>
      </trkpt>
      <trkpt lat="46.98821" lon="16.11281">
        <ele>371.825907</ele>
        <time>2026-07-08T13:58:59.000Z</time>
      </trkpt>
      <trkpt lat="46.98818" lon="16.11281">
        <ele>371.753979</ele>
        <time>2026-07-08T13:59:00.000Z</time>
      </trkpt>
      <trkpt lat="46.98814" lon="16.11282">
        <ele>371.676721</ele>
        <time>2026-07-08T13:59:01.000Z</time>
      </trkpt>
      <trkpt lat="46.98811" lon="16.11283">
        <ele>371.608047</ele>
        <time>2026-07-08T13:59:02.000Z</time>
      </trkpt>
      <trkpt lat="46.98808" lon="16.11283">
        <ele>371.537508</ele>
        <time>2026-07-08T13:59:03.000Z</time>
      </trkpt>
      <trkpt lat="46.98805" lon="16.11284">
        <ele>371.475735</ele>
        <time>2026-07-08T13:59:04.000Z</time>
      </trkpt>
      <trkpt lat="46.98802" lon="16.11285">
        <ele>371.419533</ele>
        <time>2026-07-08T13:59:05.000Z</time>
      </trkpt>
      <trkpt lat="46.988" lon="16.11285">
        <ele>371.362414</ele>
        <time>2026-07-08T13:59:06.000Z</time>
      </trkpt>
      <trkpt lat="46.98797" lon="16.11284">
        <ele>371.304139</ele>
        <time>2026-07-08T13:59:07.000Z</time>
      </trkpt>
      <trkpt lat="46.98794" lon="16.11282">
        <ele>371.241074</ele>
        <time>2026-07-08T13:59:08.000Z</time>
      </trkpt>
      <trkpt lat="46.98791" lon="16.1128">
        <ele>371.173867</ele>
        <time>2026-07-08T13:59:09.000Z</time>
      </trkpt>
      <trkpt lat="46.98788" lon="16.11279">
        <ele>371.098753</ele>
        <time>2026-07-08T13:59:10.000Z</time>
      </trkpt>
      <trkpt lat="46.98784" lon="16.11278">
        <ele>371.021927</ele>
        <time>2026-07-08T13:59:11.000Z</time>
      </trkpt>
      <trkpt lat="46.98781" lon="16.11278">
        <ele>370.943533</ele>
        <time>2026-07-08T13:59:12.000Z</time>
      </trkpt>
      <trkpt lat="46.98777" lon="16.11277">
        <ele>370.869139</ele>
        <time>2026-07-08T13:59:13.000Z</time>
      </trkpt>
      <trkpt lat="46.98773" lon="16.11276">
        <ele>370.786906</ele>
        <time>2026-07-08T13:59:14.000Z</time>
      </trkpt>
      <trkpt lat="46.9877" lon="16.11274">
        <ele>370.705297</ele>
        <time>2026-07-08T13:59:15.000Z</time>
      </trkpt>
      <trkpt lat="46.98766" lon="16.11272">
        <ele>370.617763</ele>
        <time>2026-07-08T13:59:16.000Z</time>
      </trkpt>
      <trkpt lat="46.98762" lon="16.11269">
        <ele>370.527607</ele>
        <time>2026-07-08T13:59:17.000Z</time>
      </trkpt>
      <trkpt lat="46.98759" lon="16.11265">
        <ele>370.433721</ele>
        <time>2026-07-08T13:59:18.000Z</time>
      </trkpt>
      <trkpt lat="46.98755" lon="16.1126">
        <ele>370.335234</ele>
        <time>2026-07-08T13:59:19.000Z</time>
      </trkpt>
      <trkpt lat="46.98752" lon="16.11255">
        <ele>370.230609</ele>
        <time>2026-07-08T13:59:20.000Z</time>
      </trkpt>
      <trkpt lat="46.98748" lon="16.11249">
        <ele>370.11668</ele>
        <time>2026-07-08T13:59:21.000Z</time>
      </trkpt>
      <trkpt lat="46.98745" lon="16.11243">
        <ele>369.999957</ele>
        <time>2026-07-08T13:59:22.000Z</time>
      </trkpt>
      <trkpt lat="46.98741" lon="16.11237">
        <ele>369.885359</ele>
        <time>2026-07-08T13:59:23.000Z</time>
      </trkpt>
      <trkpt lat="46.98737" lon="16.11231">
        <ele>369.765076</ele>
        <time>2026-07-08T13:59:24.000Z</time>
      </trkpt>
      <trkpt lat="46.98733" lon="16.11225">
        <ele>369.640872</ele>
        <time>2026-07-08T13:59:25.000Z</time>
      </trkpt>
      <trkpt lat="46.98729" lon="16.11218">
        <ele>369.511771</ele>
        <time>2026-07-08T13:59:26.000Z</time>
      </trkpt>
      <trkpt lat="46.98725" lon="16.1121">
        <ele>369.374383</ele>
        <time>2026-07-08T13:59:27.000Z</time>
      </trkpt>
      <trkpt lat="46.98721" lon="16.11202">
        <ele>369.228318</ele>
        <time>2026-07-08T13:59:28.000Z</time>
      </trkpt>
      <trkpt lat="46.98716" lon="16.11194">
        <ele>369.07868</ele>
        <time>2026-07-08T13:59:29.000Z</time>
      </trkpt>
      <trkpt lat="46.98712" lon="16.11186">
        <ele>368.919437</ele>
        <time>2026-07-08T13:59:30.000Z</time>
      </trkpt>
      <trkpt lat="46.98707" lon="16.11177">
        <ele>368.75701</ele>
        <time>2026-07-08T13:59:31.000Z</time>
      </trkpt>
      <trkpt lat="46.98702" lon="16.11168">
        <ele>368.591231</ele>
        <time>2026-07-08T13:59:32.000Z</time>
      </trkpt>
      <trkpt lat="46.98698" lon="16.11158">
        <ele>368.424209</ele>
        <time>2026-07-08T13:59:33.000Z</time>
      </trkpt>
      <trkpt lat="46.98694" lon="16.11147">
        <ele>368.249795</ele>
        <time>2026-07-08T13:59:34.000Z</time>
      </trkpt>
      <trkpt lat="46.9869" lon="16.11137">
        <ele>367.994732</ele>
        <time>2026-07-08T13:59:35.000Z</time>
      </trkpt>
      <trkpt lat="46.98686" lon="16.11126">
        <ele>367.555959</ele>
        <time>2026-07-08T13:59:36.000Z</time>
      </trkpt>
      <trkpt lat="46.98682" lon="16.11115">
        <ele>367.12821</ele>
        <time>2026-07-08T13:59:37.000Z</time>
      </trkpt>
      <trkpt lat="46.98678" lon="16.11105">
        <ele>366.724713</ele>
        <time>2026-07-08T13:59:38.000Z</time>
      </trkpt>
      <trkpt lat="46.98674" lon="16.11096">
        <ele>366.358056</ele>
        <time>2026-07-08T13:59:39.000Z</time>
      </trkpt>
      <trkpt lat="46.98671" lon="16.11088">
        <ele>366.023668</ele>
        <time>2026-07-08T13:59:40.000Z</time>
      </trkpt>
      <trkpt lat="46.98668" lon="16.1108">
        <ele>365.732633</ele>
        <time>2026-07-08T13:59:41.000Z</time>
      </trkpt>
      <trkpt lat="46.98665" lon="16.11074">
        <ele>365.487914</ele>
        <time>2026-07-08T13:59:42.000Z</time>
      </trkpt>
      <trkpt lat="46.98663" lon="16.1107">
        <ele>365.283741</ele>
        <time>2026-07-08T13:59:43.000Z</time>
      </trkpt>
      <trkpt lat="46.98661" lon="16.11066">
        <ele>365.116682</ele>
        <time>2026-07-08T13:59:44.000Z</time>
      </trkpt>
      <trkpt lat="46.9866" lon="16.11063">
        <ele>364.981537</ele>
        <time>2026-07-08T13:59:45.000Z</time>
      </trkpt>
      <trkpt lat="46.98658" lon="16.1106">
        <ele>364.860488</ele>
        <time>2026-07-08T13:59:46.000Z</time>
      </trkpt>
      <trkpt lat="46.98657" lon="16.11056">
        <ele>364.732644</ele>
        <time>2026-07-08T13:59:47.000Z</time>
      </trkpt>
      <trkpt lat="46.98656" lon="16.11053">
        <ele>364.606126</ele>
        <time>2026-07-08T13:59:48.000Z</time>
      </trkpt>
      <trkpt lat="46.98655" lon="16.1105">
        <ele>364.49063</ele>
        <time>2026-07-08T13:59:49.000Z</time>
      </trkpt>
      <trkpt lat="46.98653" lon="16.11048">
        <ele>364.390885</ele>
        <time>2026-07-08T13:59:50.000Z</time>
      </trkpt>
      <trkpt lat="46.98652" lon="16.11048">
        <ele>364.322308</ele>
        <time>2026-07-08T13:59:51.000Z</time>
      </trkpt>
      <trkpt lat="46.98652" lon="16.11048">
        <ele>364.305493</ele>
        <time>2026-07-08T13:59:52.000Z</time>
      </trkpt>
      <trkpt lat="46.98653" lon="16.11052">
        <ele>364.150059</ele>
        <time>2026-07-08T14:00:24.000Z</time>
      </trkpt>
      <trkpt lat="46.98654" lon="16.11051">
        <ele>364.09193</ele>
        <time>2026-07-08T14:00:25.000Z</time>
      </trkpt>
      <trkpt lat="46.98655" lon="16.11049">
        <ele>364.01425</ele>
        <time>2026-07-08T14:00:26.000Z</time>
      </trkpt>
      <trkpt lat="46.98656" lon="16.11047">
        <ele>363.926904</ele>
        <time>2026-07-08T14:00:27.000Z</time>
      </trkpt>
      <trkpt lat="46.98656" lon="16.11045">
        <ele>363.853099</ele>
        <time>2026-07-08T14:00:28.000Z</time>
      </trkpt>
      <trkpt lat="46.98655" lon="16.11043">
        <ele>363.792681</ele>
        <time>2026-07-08T14:00:29.000Z</time>
      </trkpt>
      <trkpt lat="46.98654" lon="16.11043">
        <ele>363.733918</ele>
        <time>2026-07-08T14:00:30.000Z</time>
      </trkpt>
      <trkpt lat="46.98653" lon="16.11042">
        <ele>363.666654</ele>
        <time>2026-07-08T14:00:31.000Z</time>
      </trkpt>
      <trkpt lat="46.98651" lon="16.1104">
        <ele>363.577765</ele>
        <time>2026-07-08T14:00:32.000Z</time>
      </trkpt>
      <trkpt lat="46.9865" lon="16.11038">
        <ele>363.467009</ele>
        <time>2026-07-08T14:00:33.000Z</time>
      </trkpt>
      <trkpt lat="46.98648" lon="16.11035">
        <ele>363.328278</ele>
        <time>2026-07-08T14:00:34.000Z</time>
      </trkpt>
      <trkpt lat="46.98645" lon="16.11033">
        <ele>363.167746</ele>
        <time>2026-07-08T14:00:35.000Z</time>
      </trkpt>
      <trkpt lat="46.98642" lon="16.11029">
        <ele>362.982539</ele>
        <time>2026-07-08T14:00:36.000Z</time>
      </trkpt>
      <trkpt lat="46.98639" lon="16.11026">
        <ele>362.791162</ele>
        <time>2026-07-08T14:00:37.000Z</time>
      </trkpt>
      <trkpt lat="46.98636" lon="16.11023">
        <ele>362.574517</ele>
        <time>2026-07-08T14:00:38.000Z</time>
      </trkpt>
      <trkpt lat="46.98632" lon="16.1102">
        <ele>362.342004</ele>
        <time>2026-07-08T14:00:39.000Z</time>
      </trkpt>
      <trkpt lat="46.98627" lon="16.11017">
        <ele>362.0944</ele>
        <time>2026-07-08T14:00:40.000Z</time>
      </trkpt>
      <trkpt lat="46.98623" lon="16.11013">
        <ele>361.848342</ele>
        <time>2026-07-08T14:00:41.000Z</time>
      </trkpt>
      <trkpt lat="46.98618" lon="16.1101">
        <ele>361.582437</ele>
        <time>2026-07-08T14:00:42.000Z</time>
      </trkpt>
      <trkpt lat="46.98614" lon="16.11007">
        <ele>361.313382</ele>
        <time>2026-07-08T14:00:43.000Z</time>
      </trkpt>
      <trkpt lat="46.98608" lon="16.11004">
        <ele>361.024258</ele>
        <time>2026-07-08T14:00:44.000Z</time>
      </trkpt>
      <trkpt lat="46.98603" lon="16.11001">
        <ele>360.751154</ele>
        <time>2026-07-08T14:00:45.000Z</time>
      </trkpt>
      <trkpt lat="46.98598" lon="16.10998">
        <ele>360.476765</ele>
        <time>2026-07-08T14:00:46.000Z</time>
      </trkpt>
      <trkpt lat="46.98593" lon="16.10997">
        <ele>360.207001</ele>
        <time>2026-07-08T14:00:47.000Z</time>
      </trkpt>
      <trkpt lat="46.98588" lon="16.10996">
        <ele>359.941104</ele>
        <time>2026-07-08T14:00:48.000Z</time>
      </trkpt>
      <trkpt lat="46.98583" lon="16.10996">
        <ele>359.68067</ele>
        <time>2026-07-08T14:00:49.000Z</time>
      </trkpt>
      <trkpt lat="46.98578" lon="16.10996">
        <ele>359.415251</ele>
        <time>2026-07-08T14:00:50.000Z</time>
      </trkpt>
      <trkpt lat="46.98572" lon="16.10996">
        <ele>359.149924</ele>
        <time>2026-07-08T14:00:51.000Z</time>
      </trkpt>
      <trkpt lat="46.98567" lon="16.10996">
        <ele>358.952364</ele>
        <time>2026-07-08T14:00:52.000Z</time>
      </trkpt>
      <trkpt lat="46.98562" lon="16.10995">
        <ele>358.942222</ele>
        <time>2026-07-08T14:00:53.000Z</time>
      </trkpt>
      <trkpt lat="46.98557" lon="16.10993">
        <ele>358.932523</ele>
        <time>2026-07-08T14:00:54.000Z</time>
      </trkpt>
      <trkpt lat="46.98551" lon="16.10991">
        <ele>358.922618</ele>
        <time>2026-07-08T14:00:55.000Z</time>
      </trkpt>
      <trkpt lat="46.98546" lon="16.10989">
        <ele>358.912776</ele>
        <time>2026-07-08T14:00:56.000Z</time>
      </trkpt>
      <trkpt lat="46.98542" lon="16.10986">
        <ele>358.903491</ele>
        <time>2026-07-08T14:00:57.000Z</time>
      </trkpt>
      <trkpt lat="46.98537" lon="16.10983">
        <ele>358.89411</ele>
        <time>2026-07-08T14:00:58.000Z</time>
      </trkpt>
      <trkpt lat="46.98532" lon="16.1098">
        <ele>358.884956</ele>
        <time>2026-07-08T14:00:59.000Z</time>
      </trkpt>
      <trkpt lat="46.98528" lon="16.10977">
        <ele>358.875742</ele>
        <time>2026-07-08T14:01:00.000Z</time>
      </trkpt>
      <trkpt lat="46.98523" lon="16.10974">
        <ele>358.866361</ele>
        <time>2026-07-08T14:01:01.000Z</time>
      </trkpt>
      <trkpt lat="46.98519" lon="16.10971">
        <ele>358.85775</ele>
        <time>2026-07-08T14:01:02.000Z</time>
      </trkpt>
      <trkpt lat="46.98514" lon="16.10968">
        <ele>358.848851</ele>
        <time>2026-07-08T14:01:03.000Z</time>
      </trkpt>
      <trkpt lat="46.9851" lon="16.10966">
        <ele>358.84013</ele>
        <time>2026-07-08T14:01:04.000Z</time>
      </trkpt>
      <trkpt lat="46.98505" lon="16.10963">
        <ele>358.831366</ele>
        <time>2026-07-08T14:01:05.000Z</time>
      </trkpt>
      <trkpt lat="46.98501" lon="16.10961">
        <ele>358.822723</ele>
        <time>2026-07-08T14:01:06.000Z</time>
      </trkpt>
      <trkpt lat="46.98496" lon="16.10959">
        <ele>358.814215</ele>
        <time>2026-07-08T14:01:07.000Z</time>
      </trkpt>
      <trkpt lat="46.98492" lon="16.10957">
        <ele>358.805502</ele>
        <time>2026-07-08T14:01:08.000Z</time>
      </trkpt>
      <trkpt lat="46.98487" lon="16.10956">
        <ele>358.796699</ele>
        <time>2026-07-08T14:01:09.000Z</time>
      </trkpt>
      <trkpt lat="46.98482" lon="16.10954">
        <ele>358.787896</ele>
        <time>2026-07-08T14:01:10.000Z</time>
      </trkpt>
      <trkpt lat="46.98478" lon="16.10953">
        <ele>358.779298</ele>
        <time>2026-07-08T14:01:11.000Z</time>
      </trkpt>
      <trkpt lat="46.98473" lon="16.10952">
        <ele>358.770904</ele>
        <time>2026-07-08T14:01:12.000Z</time>
      </trkpt>
      <trkpt lat="46.98469" lon="16.1095">
        <ele>358.76251</ele>
        <time>2026-07-08T14:01:13.000Z</time>
      </trkpt>
      <trkpt lat="46.98465" lon="16.10949">
        <ele>358.754723</ele>
        <time>2026-07-08T14:01:14.000Z</time>
      </trkpt>
      <trkpt lat="46.98461" lon="16.10948">
        <ele>358.747521</ele>
        <time>2026-07-08T14:01:15.000Z</time>
      </trkpt>
      <trkpt lat="46.98458" lon="16.10945">
        <ele>358.741234</ele>
        <time>2026-07-08T14:01:16.000Z</time>
      </trkpt>
      <trkpt lat="46.98456" lon="16.10942">
        <ele>358.73543</ele>
        <time>2026-07-08T14:01:17.000Z</time>
      </trkpt>
      <trkpt lat="46.98454" lon="16.10939">
        <ele>358.730103</ele>
        <time>2026-07-08T14:01:18.000Z</time>
      </trkpt>
      <trkpt lat="46.98451" lon="16.10935">
        <ele>358.723976</ele>
        <time>2026-07-08T14:01:19.000Z</time>
      </trkpt>
      <trkpt lat="46.98449" lon="16.10931">
        <ele>358.717966</ele>
        <time>2026-07-08T14:01:20.000Z</time>
      </trkpt>
      <trkpt lat="46.98447" lon="16.10928">
        <ele>358.711682</ele>
        <time>2026-07-08T14:01:21.000Z</time>
      </trkpt>
      <trkpt lat="46.98444" lon="16.10924">
        <ele>358.705028</ele>
        <time>2026-07-08T14:01:22.000Z</time>
      </trkpt>
      <trkpt lat="46.98441" lon="16.10922">
        <ele>358.699028</ele>
        <time>2026-07-08T14:01:23.000Z</time>
      </trkpt>
      <trkpt lat="46.98438" lon="16.1092">
        <ele>358.692879</ele>
        <time>2026-07-08T14:01:24.000Z</time>
      </trkpt>
      <trkpt lat="46.98435" lon="16.10919">
        <ele>358.686892</ele>
        <time>2026-07-08T14:01:25.000Z</time>
      </trkpt>
      <trkpt lat="46.98432" lon="16.10919">
        <ele>358.681184</ele>
        <time>2026-07-08T14:01:26.000Z</time>
      </trkpt>
      <trkpt lat="46.98428" lon="16.10919">
        <ele>358.674957</ele>
        <time>2026-07-08T14:01:27.000Z</time>
      </trkpt>
      <trkpt lat="46.98425" lon="16.1092">
        <ele>358.669376</ele>
        <time>2026-07-08T14:01:28.000Z</time>
      </trkpt>
      <trkpt lat="46.98423" lon="16.10921">
        <ele>358.66413</ele>
        <time>2026-07-08T14:01:29.000Z</time>
      </trkpt>
      <trkpt lat="46.9842" lon="16.10921">
        <ele>358.658968</ele>
        <time>2026-07-08T14:01:30.000Z</time>
      </trkpt>
      <trkpt lat="46.98417" lon="16.10921">
        <ele>358.653476</ele>
        <time>2026-07-08T14:01:31.000Z</time>
      </trkpt>
      <trkpt lat="46.98414" lon="16.10921">
        <ele>358.647608</ele>
        <time>2026-07-08T14:01:32.000Z</time>
      </trkpt>
      <trkpt lat="46.9841" lon="16.1092">
        <ele>358.641487</ele>
        <time>2026-07-08T14:01:33.000Z</time>
      </trkpt>
      <trkpt lat="46.98407" lon="16.10919">
        <ele>358.635499</ele>
        <time>2026-07-08T14:01:34.000Z</time>
      </trkpt>
      <trkpt lat="46.98404" lon="16.10918">
        <ele>358.629454</ele>
        <time>2026-07-08T14:01:35.000Z</time>
      </trkpt>
      <trkpt lat="46.98401" lon="16.10917">
        <ele>358.656949</ele>
        <time>2026-07-08T14:01:36.000Z</time>
      </trkpt>
      <trkpt lat="46.98398" lon="16.10915">
        <ele>358.761556</ele>
        <time>2026-07-08T14:01:37.000Z</time>
      </trkpt>
      <trkpt lat="46.98395" lon="16.10913">
        <ele>358.869129</ele>
        <time>2026-07-08T14:01:38.000Z</time>
      </trkpt>
      <trkpt lat="46.98391" lon="16.10912">
        <ele>358.97531</ele>
        <time>2026-07-08T14:01:39.000Z</time>
      </trkpt>
      <trkpt lat="46.98388" lon="16.10911">
        <ele>359.076115</ele>
        <time>2026-07-08T14:01:40.000Z</time>
      </trkpt>
      <trkpt lat="46.98385" lon="16.10909">
        <ele>359.18166</ele>
        <time>2026-07-08T14:01:41.000Z</time>
      </trkpt>
      <trkpt lat="46.98382" lon="16.10908">
        <ele>359.279396</ele>
        <time>2026-07-08T14:01:42.000Z</time>
      </trkpt>
      <trkpt lat="46.98379" lon="16.10907">
        <ele>359.382804</ele>
        <time>2026-07-08T14:01:43.000Z</time>
      </trkpt>
      <trkpt lat="46.98376" lon="16.10906">
        <ele>359.480039</ele>
        <time>2026-07-08T14:01:44.000Z</time>
      </trkpt>
      <trkpt lat="46.98373" lon="16.10905">
        <ele>359.576819</ele>
        <time>2026-07-08T14:01:45.000Z</time>
      </trkpt>
      <trkpt lat="46.9837" lon="16.10905">
        <ele>359.682532</ele>
        <time>2026-07-08T14:01:46.000Z</time>
      </trkpt>
      <trkpt lat="46.98367" lon="16.10904">
        <ele>359.778903</ele>
        <time>2026-07-08T14:01:47.000Z</time>
      </trkpt>
      <trkpt lat="46.98364" lon="16.10903">
        <ele>359.874329</ele>
        <time>2026-07-08T14:01:48.000Z</time>
      </trkpt>
      <trkpt lat="46.98361" lon="16.10903">
        <ele>359.962823</ele>
        <time>2026-07-08T14:01:49.000Z</time>
      </trkpt>
      <trkpt lat="46.98358" lon="16.10903">
        <ele>360.048265</ele>
        <time>2026-07-08T14:01:50.000Z</time>
      </trkpt>
      <trkpt lat="46.98355" lon="16.10903">
        <ele>360.136864</ele>
        <time>2026-07-08T14:01:51.000Z</time>
      </trkpt>
      <trkpt lat="46.98353" lon="16.10903">
        <ele>360.222306</ele>
        <time>2026-07-08T14:01:52.000Z</time>
      </trkpt>
      <trkpt lat="46.9835" lon="16.10903">
        <ele>360.301582</ele>
        <time>2026-07-08T14:01:53.000Z</time>
      </trkpt>
      <trkpt lat="46.98347" lon="16.10904">
        <ele>360.38824</ele>
        <time>2026-07-08T14:01:54.000Z</time>
      </trkpt>
      <trkpt lat="46.98345" lon="16.10905">
        <ele>360.466148</ele>
        <time>2026-07-08T14:01:55.000Z</time>
      </trkpt>
      <trkpt lat="46.98343" lon="16.10907">
        <ele>360.543307</ele>
        <time>2026-07-08T14:01:56.000Z</time>
      </trkpt>
      <trkpt lat="46.9834" lon="16.10908">
        <ele>360.627144</ele>
        <time>2026-07-08T14:01:57.000Z</time>
      </trkpt>
      <trkpt lat="46.98338" lon="16.10909">
        <ele>360.701332</ele>
        <time>2026-07-08T14:01:58.000Z</time>
      </trkpt>
      <trkpt lat="46.98336" lon="16.1091">
        <ele>360.777154</ele>
        <time>2026-07-08T14:01:59.000Z</time>
      </trkpt>
      <trkpt lat="46.98333" lon="16.10911">
        <ele>360.854493</ele>
        <time>2026-07-08T14:02:00.000Z</time>
      </trkpt>
      <trkpt lat="46.98331" lon="16.10911">
        <ele>360.928326</ele>
        <time>2026-07-08T14:02:01.000Z</time>
      </trkpt>
      <trkpt lat="46.98329" lon="16.10912">
        <ele>360.998688</ele>
        <time>2026-07-08T14:02:02.000Z</time>
      </trkpt>
      <trkpt lat="46.98327" lon="16.10912">
        <ele>361.071889</ele>
        <time>2026-07-08T14:02:03.000Z</time>
      </trkpt>
      <trkpt lat="46.98325" lon="16.10913">
        <ele>361.12979</ele>
        <time>2026-07-08T14:02:04.000Z</time>
      </trkpt>
      <trkpt lat="46.98323" lon="16.10913">
        <ele>361.189839</ele>
        <time>2026-07-08T14:02:05.000Z</time>
      </trkpt>
      <trkpt lat="46.98321" lon="16.10913">
        <ele>361.256245</ele>
        <time>2026-07-08T14:02:06.000Z</time>
      </trkpt>
      <trkpt lat="46.98319" lon="16.10913">
        <ele>361.316294</ele>
        <time>2026-07-08T14:02:07.000Z</time>
      </trkpt>
      <trkpt lat="46.98317" lon="16.10913">
        <ele>361.373833</ele>
        <time>2026-07-08T14:02:08.000Z</time>
      </trkpt>
      <trkpt lat="46.98315" lon="16.10914">
        <ele>361.431088</ele>
        <time>2026-07-08T14:02:09.000Z</time>
      </trkpt>
      <trkpt lat="46.98313" lon="16.10914">
        <ele>361.492098</ele>
        <time>2026-07-08T14:02:10.000Z</time>
      </trkpt>
      <trkpt lat="46.98312" lon="16.10915">
        <ele>361.54487</ele>
        <time>2026-07-08T14:02:11.000Z</time>
      </trkpt>
      <trkpt lat="46.9831" lon="16.10915">
        <ele>361.599669</ele>
        <time>2026-07-08T14:02:12.000Z</time>
      </trkpt>
      <trkpt lat="46.98308" lon="16.10916">
        <ele>361.654933</ele>
        <time>2026-07-08T14:02:13.000Z</time>
      </trkpt>
      <trkpt lat="46.98307" lon="16.10917">
        <ele>361.704685</ele>
        <time>2026-07-08T14:02:14.000Z</time>
      </trkpt>
      <trkpt lat="46.98305" lon="16.10917">
        <ele>361.754437</ele>
        <time>2026-07-08T14:02:15.000Z</time>
      </trkpt>
      <trkpt lat="46.98304" lon="16.10918">
        <ele>361.803578</ele>
        <time>2026-07-08T14:02:16.000Z</time>
      </trkpt>
      <trkpt lat="46.98302" lon="16.10918">
        <ele>361.851763</ele>
        <time>2026-07-08T14:02:17.000Z</time>
      </trkpt>
      <trkpt lat="46.98301" lon="16.10919">
        <ele>361.903467</ele>
        <time>2026-07-08T14:02:18.000Z</time>
      </trkpt>
      <trkpt lat="46.98299" lon="16.10919">
        <ele>361.973298</ele>
        <time>2026-07-08T14:02:19.000Z</time>
      </trkpt>
      <trkpt lat="46.98297" lon="16.1092">
        <ele>362.028098</ele>
        <time>2026-07-08T14:02:20.000Z</time>
      </trkpt>
      <trkpt lat="46.98295" lon="16.1092">
        <ele>362.078849</ele>
        <time>2026-07-08T14:02:21.000Z</time>
      </trkpt>
      <trkpt lat="46.98294" lon="16.1092">
        <ele>362.126452</ele>
        <time>2026-07-08T14:02:22.000Z</time>
      </trkpt>
      <trkpt lat="46.98292" lon="16.1092">
        <ele>362.17386</ele>
        <time>2026-07-08T14:02:23.000Z</time>
      </trkpt>
      <trkpt lat="46.98291" lon="16.10919">
        <ele>362.227976</ele>
        <time>2026-07-08T14:02:24.000Z</time>
      </trkpt>
      <trkpt lat="46.98289" lon="16.10919">
        <ele>362.269958</ele>
        <time>2026-07-08T14:02:25.000Z</time>
      </trkpt>
      <trkpt lat="46.98288" lon="16.10918">
        <ele>362.326387</ele>
        <time>2026-07-08T14:02:26.000Z</time>
      </trkpt>
      <trkpt lat="46.98286" lon="16.10917">
        <ele>362.388883</ele>
        <time>2026-07-08T14:02:27.000Z</time>
      </trkpt>
      <trkpt lat="46.98284" lon="16.10915">
        <ele>362.457088</ele>
        <time>2026-07-08T14:02:28.000Z</time>
      </trkpt>
      <trkpt lat="46.98282" lon="16.10914">
        <ele>362.525955</ele>
        <time>2026-07-08T14:02:29.000Z</time>
      </trkpt>
      <trkpt lat="46.9828" lon="16.10912">
        <ele>362.594822</ele>
        <time>2026-07-08T14:02:30.000Z</time>
      </trkpt>
      <trkpt lat="46.98278" lon="16.1091">
        <ele>362.668751</ele>
        <time>2026-07-08T14:02:31.000Z</time>
      </trkpt>
      <trkpt lat="46.98276" lon="16.10908">
        <ele>362.745269</ele>
        <time>2026-07-08T14:02:32.000Z</time>
      </trkpt>
      <trkpt lat="46.98274" lon="16.10905">
        <ele>362.834498</ele>
        <time>2026-07-08T14:02:33.000Z</time>
      </trkpt>
      <trkpt lat="46.98272" lon="16.10903">
        <ele>362.924995</ele>
        <time>2026-07-08T14:02:34.000Z</time>
      </trkpt>
      <trkpt lat="46.98269" lon="16.109">
        <ele>363.024432</ele>
        <time>2026-07-08T14:02:35.000Z</time>
      </trkpt>
      <trkpt lat="46.98267" lon="16.10897">
        <ele>363.134169</ele>
        <time>2026-07-08T14:02:36.000Z</time>
      </trkpt>
      <trkpt lat="46.98264" lon="16.10893">
        <ele>363.249524</ele>
        <time>2026-07-08T14:02:37.000Z</time>
      </trkpt>
      <trkpt lat="46.98261" lon="16.1089">
        <ele>363.37189</ele>
        <time>2026-07-08T14:02:38.000Z</time>
      </trkpt>
      <trkpt lat="46.98257" lon="16.10886">
        <ele>363.505797</ele>
        <time>2026-07-08T14:02:39.000Z</time>
      </trkpt>
      <trkpt lat="46.98254" lon="16.10882">
        <ele>363.655031</ele>
        <time>2026-07-08T14:02:40.000Z</time>
      </trkpt>
      <trkpt lat="46.9825" lon="16.10877">
        <ele>363.806025</ele>
        <time>2026-07-08T14:02:41.000Z</time>
      </trkpt>
      <trkpt lat="46.98247" lon="16.10871">
        <ele>363.959851</ele>
        <time>2026-07-08T14:02:42.000Z</time>
      </trkpt>
      <trkpt lat="46.98244" lon="16.10865">
        <ele>364.124061</ele>
        <time>2026-07-08T14:02:43.000Z</time>
      </trkpt>
      <trkpt lat="46.9824" lon="16.10859">
        <ele>364.30825</ele>
        <time>2026-07-08T14:02:44.000Z</time>
      </trkpt>
      <trkpt lat="46.98237" lon="16.10851">
        <ele>364.079743</ele>
        <time>2026-07-08T14:02:45.000Z</time>
      </trkpt>
      <trkpt lat="46.98234" lon="16.10843">
        <ele>363.850627</ele>
        <time>2026-07-08T14:02:46.000Z</time>
      </trkpt>
      <trkpt lat="46.9823" lon="16.10833">
        <ele>363.581063</ele>
        <time>2026-07-08T14:02:47.000Z</time>
      </trkpt>
      <trkpt lat="46.98226" lon="16.10823">
        <ele>363.290599</ele>
        <time>2026-07-08T14:02:48.000Z</time>
      </trkpt>
      <trkpt lat="46.98223" lon="16.10812">
        <ele>363.013563</ele>
        <time>2026-07-08T14:02:49.000Z</time>
      </trkpt>
      <trkpt lat="46.98221" lon="16.10802">
        <ele>362.743621</ele>
        <time>2026-07-08T14:02:50.000Z</time>
      </trkpt>
      <trkpt lat="46.98219" lon="16.10791">
        <ele>362.469926</ele>
        <time>2026-07-08T14:02:51.000Z</time>
      </trkpt>
      <trkpt lat="46.98219" lon="16.1078">
        <ele>362.205563</ele>
        <time>2026-07-08T14:02:52.000Z</time>
      </trkpt>
      <trkpt lat="46.9822" lon="16.10769">
        <ele>361.923495</ele>
        <time>2026-07-08T14:02:53.000Z</time>
      </trkpt>
      <trkpt lat="46.9822" lon="16.10756">
        <ele>361.623808</ele>
        <time>2026-07-08T14:02:54.000Z</time>
      </trkpt>
      <trkpt lat="46.98222" lon="16.10745">
        <ele>361.348127</ele>
        <time>2026-07-08T14:02:55.000Z</time>
      </trkpt>
      <trkpt lat="46.98224" lon="16.10734">
        <ele>361.062836</ele>
        <time>2026-07-08T14:02:56.000Z</time>
      </trkpt>
      <trkpt lat="46.98227" lon="16.10723">
        <ele>360.768555</ele>
        <time>2026-07-08T14:02:57.000Z</time>
      </trkpt>
      <trkpt lat="46.9823" lon="16.10712">
        <ele>360.478579</ele>
        <time>2026-07-08T14:02:58.000Z</time>
      </trkpt>
      <trkpt lat="46.98232" lon="16.107">
        <ele>360.175076</ele>
        <time>2026-07-08T14:02:59.000Z</time>
      </trkpt>
      <trkpt lat="46.98235" lon="16.10689">
        <ele>359.874965</ele>
        <time>2026-07-08T14:03:00.000Z</time>
      </trkpt>
      <trkpt lat="46.98237" lon="16.10676">
        <ele>359.562248</ele>
        <time>2026-07-08T14:03:01.000Z</time>
      </trkpt>
      <trkpt lat="46.98238" lon="16.10664">
        <ele>359.258106</ele>
        <time>2026-07-08T14:03:02.000Z</time>
      </trkpt>
      <trkpt lat="46.98239" lon="16.10651">
        <ele>358.946719</ele>
        <time>2026-07-08T14:03:03.000Z</time>
      </trkpt>
      <trkpt lat="46.98239" lon="16.10638">
        <ele>358.635766</ele>
        <time>2026-07-08T14:03:04.000Z</time>
      </trkpt>
      <trkpt lat="46.98238" lon="16.10626">
        <ele>358.325263</ele>
        <time>2026-07-08T14:03:05.000Z</time>
      </trkpt>
      <trkpt lat="46.98235" lon="16.10614">
        <ele>358.027218</ele>
        <time>2026-07-08T14:03:06.000Z</time>
      </trkpt>
      <trkpt lat="46.98232" lon="16.10602">
        <ele>357.838815</ele>
        <time>2026-07-08T14:03:07.000Z</time>
      </trkpt>
      <trkpt lat="46.98228" lon="16.10591">
        <ele>357.801743</ele>
        <time>2026-07-08T14:03:08.000Z</time>
      </trkpt>
      <trkpt lat="46.98224" lon="16.10581">
        <ele>357.764798</ele>
        <time>2026-07-08T14:03:09.000Z</time>
      </trkpt>
      <trkpt lat="46.98218" lon="16.10571">
        <ele>357.725577</ele>
        <time>2026-07-08T14:03:10.000Z</time>
      </trkpt>
      <trkpt lat="46.98213" lon="16.10561">
        <ele>357.687645</ele>
        <time>2026-07-08T14:03:11.000Z</time>
      </trkpt>
      <trkpt lat="46.98208" lon="16.1055">
        <ele>357.648966</ele>
        <time>2026-07-08T14:03:12.000Z</time>
      </trkpt>
      <trkpt lat="46.98203" lon="16.1054">
        <ele>357.61031</ele>
        <time>2026-07-08T14:03:13.000Z</time>
      </trkpt>
      <trkpt lat="46.98197" lon="16.1053">
        <ele>357.5703</ele>
        <time>2026-07-08T14:03:14.000Z</time>
      </trkpt>
      <trkpt lat="46.98191" lon="16.10519">
        <ele>357.530365</ele>
        <time>2026-07-08T14:03:15.000Z</time>
      </trkpt>
      <trkpt lat="46.98187" lon="16.10509">
        <ele>357.492235</ele>
        <time>2026-07-08T14:03:16.000Z</time>
      </trkpt>
      <trkpt lat="46.98182" lon="16.10499">
        <ele>357.455591</ele>
        <time>2026-07-08T14:03:17.000Z</time>
      </trkpt>
      <trkpt lat="46.98178" lon="16.10488">
        <ele>357.420474</ele>
        <time>2026-07-08T14:03:18.000Z</time>
      </trkpt>
      <trkpt lat="46.98175" lon="16.10478">
        <ele>357.386962</ele>
        <time>2026-07-08T14:03:19.000Z</time>
      </trkpt>
      <trkpt lat="46.98172" lon="16.10469">
        <ele>357.355358</ele>
        <time>2026-07-08T14:03:20.000Z</time>
      </trkpt>
      <trkpt lat="46.9817" lon="16.10459">
        <ele>357.325202</ele>
        <time>2026-07-08T14:03:21.000Z</time>
      </trkpt>
      <trkpt lat="46.98168" lon="16.10451">
        <ele>357.297616</ele>
        <time>2026-07-08T14:03:22.000Z</time>
      </trkpt>
      <trkpt lat="46.98166" lon="16.10443">
        <ele>357.271913</ele>
        <time>2026-07-08T14:03:23.000Z</time>
      </trkpt>
      <trkpt lat="46.98164" lon="16.10435">
        <ele>357.247057</ele>
        <time>2026-07-08T14:03:24.000Z</time>
      </trkpt>
      <trkpt lat="46.98162" lon="16.10428">
        <ele>357.224072</ele>
        <time>2026-07-08T14:03:25.000Z</time>
      </trkpt>
      <trkpt lat="46.98161" lon="16.10421">
        <ele>357.203348</ele>
        <time>2026-07-08T14:03:26.000Z</time>
      </trkpt>
      <trkpt lat="46.9816" lon="16.10415">
        <ele>357.18372</ele>
        <time>2026-07-08T14:03:27.000Z</time>
      </trkpt>
      <trkpt lat="46.98159" lon="16.10409">
        <ele>357.166083</ele>
        <time>2026-07-08T14:03:28.000Z</time>
      </trkpt>
      <trkpt lat="46.98159" lon="16.10404">
        <ele>357.149205</ele>
        <time>2026-07-08T14:03:29.000Z</time>
      </trkpt>
      <trkpt lat="46.98158" lon="16.10398">
        <ele>357.133123</ele>
        <time>2026-07-08T14:03:30.000Z</time>
      </trkpt>
      <trkpt lat="46.98157" lon="16.10393">
        <ele>357.117725</ele>
        <time>2026-07-08T14:03:31.000Z</time>
      </trkpt>
      <trkpt lat="46.98157" lon="16.10388">
        <ele>357.102283</ele>
        <time>2026-07-08T14:03:32.000Z</time>
      </trkpt>
      <trkpt lat="46.98156" lon="16.10383">
        <ele>357.087395</ele>
        <time>2026-07-08T14:03:33.000Z</time>
      </trkpt>
      <trkpt lat="46.98156" lon="16.10379">
        <ele>357.072908</ele>
        <time>2026-07-08T14:03:34.000Z</time>
      </trkpt>
      <trkpt lat="46.98156" lon="16.10373">
        <ele>357.104858</ele>
        <time>2026-07-08T14:03:35.000Z</time>
      </trkpt>
      <trkpt lat="46.98157" lon="16.10368">
        <ele>357.265973</ele>
        <time>2026-07-08T14:03:36.000Z</time>
      </trkpt>
      <trkpt lat="46.98157" lon="16.10364">
        <ele>357.422148</ele>
        <time>2026-07-08T14:03:37.000Z</time>
      </trkpt>
      <trkpt lat="46.98158" lon="16.10359">
        <ele>357.577546</ele>
        <time>2026-07-08T14:03:38.000Z</time>
      </trkpt>
      <trkpt lat="46.98158" lon="16.10353">
        <ele>357.75195</ele>
        <time>2026-07-08T14:03:39.000Z</time>
      </trkpt>
      <trkpt lat="46.98159" lon="16.10348">
        <ele>357.916846</ele>
        <time>2026-07-08T14:03:40.000Z</time>
      </trkpt>
      <trkpt lat="46.9816" lon="16.10343">
        <ele>358.086474</ele>
        <time>2026-07-08T14:03:41.000Z</time>
      </trkpt>
      <trkpt lat="46.9816" lon="16.10338">
        <ele>358.257072</ele>
        <time>2026-07-08T14:03:42.000Z</time>
      </trkpt>
      <trkpt lat="46.98161" lon="16.10332">
        <ele>358.438084</ele>
        <time>2026-07-08T14:03:43.000Z</time>
      </trkpt>
      <trkpt lat="46.98162" lon="16.10327">
        <ele>358.611806</ele>
        <time>2026-07-08T14:03:44.000Z</time>
      </trkpt>
      <trkpt lat="46.98163" lon="16.10322">
        <ele>358.790862</ele>
        <time>2026-07-08T14:03:45.000Z</time>
      </trkpt>
      <trkpt lat="46.98163" lon="16.10316">
        <ele>358.958926</ele>
        <time>2026-07-08T14:03:46.000Z</time>
      </trkpt>
      <trkpt lat="46.98164" lon="16.10311">
        <ele>359.123286</ele>
        <time>2026-07-08T14:03:47.000Z</time>
      </trkpt>
      <trkpt lat="46.98165" lon="16.10306">
        <ele>359.302002</ele>
        <time>2026-07-08T14:03:48.000Z</time>
      </trkpt>
      <trkpt lat="46.98166" lon="16.10301">
        <ele>359.475724</ele>
        <time>2026-07-08T14:03:49.000Z</time>
      </trkpt>
      <trkpt lat="46.98167" lon="16.10295">
        <ele>359.651635</ele>
        <time>2026-07-08T14:03:50.000Z</time>
      </trkpt>
      <trkpt lat="46.98167" lon="16.1029">
        <ele>359.823574</ele>
        <time>2026-07-08T14:03:51.000Z</time>
      </trkpt>
      <trkpt lat="46.98168" lon="16.10285">
        <ele>359.998368</ele>
        <time>2026-07-08T14:03:52.000Z</time>
      </trkpt>
      <trkpt lat="46.98169" lon="16.1028">
        <ele>360.165121</ele>
        <time>2026-07-08T14:03:53.000Z</time>
      </trkpt>
      <trkpt lat="46.9817" lon="16.10275">
        <ele>360.335718</ele>
        <time>2026-07-08T14:03:54.000Z</time>
      </trkpt>
      <trkpt lat="46.98171" lon="16.1027">
        <ele>360.492806</ele>
        <time>2026-07-08T14:03:55.000Z</time>
      </trkpt>
      <trkpt lat="46.98172" lon="16.10265">
        <ele>360.657166</ele>
        <time>2026-07-08T14:03:56.000Z</time>
      </trkpt>
      <trkpt lat="46.98172" lon="16.1026">
        <ele>360.817385</ele>
        <time>2026-07-08T14:03:57.000Z</time>
      </trkpt>
      <trkpt lat="46.98173" lon="16.10255">
        <ele>360.979437</ele>
        <time>2026-07-08T14:03:58.000Z</time>
      </trkpt>
      <trkpt lat="46.98174" lon="16.10251">
        <ele>361.129514</ele>
        <time>2026-07-08T14:03:59.000Z</time>
      </trkpt>
      <trkpt lat="46.98175" lon="16.10246">
        <ele>361.274905</ele>
        <time>2026-07-08T14:04:00.000Z</time>
      </trkpt>
      <trkpt lat="46.98176" lon="16.10242">
        <ele>361.408307</ele>
        <time>2026-07-08T14:04:01.000Z</time>
      </trkpt>
      <trkpt lat="46.98177" lon="16.10238">
        <ele>361.544645</ele>
        <time>2026-07-08T14:04:02.000Z</time>
      </trkpt>
      <trkpt lat="46.98178" lon="16.10235">
        <ele>361.675758</ele>
        <time>2026-07-08T14:04:03.000Z</time>
      </trkpt>
      <trkpt lat="46.98179" lon="16.10231">
        <ele>361.799084</ele>
        <time>2026-07-08T14:04:04.000Z</time>
      </trkpt>
      <trkpt lat="46.9818" lon="16.10228">
        <ele>361.920523</ele>
        <time>2026-07-08T14:04:05.000Z</time>
      </trkpt>
      <trkpt lat="46.98181" lon="16.10224">
        <ele>362.031122</ele>
        <time>2026-07-08T14:04:06.000Z</time>
      </trkpt>
      <trkpt lat="46.98182" lon="16.10221">
        <ele>362.142433</ele>
        <time>2026-07-08T14:04:07.000Z</time>
      </trkpt>
      <trkpt lat="46.98182" lon="16.10218">
        <ele>362.254514</ele>
        <time>2026-07-08T14:04:08.000Z</time>
      </trkpt>
      <trkpt lat="46.98183" lon="16.10214">
        <ele>362.370076</ele>
        <time>2026-07-08T14:04:09.000Z</time>
      </trkpt>
      <trkpt lat="46.98184" lon="16.10211">
        <ele>362.482719</ele>
        <time>2026-07-08T14:04:10.000Z</time>
      </trkpt>
      <trkpt lat="46.98185" lon="16.10208">
        <ele>362.598281</ele>
        <time>2026-07-08T14:04:11.000Z</time>
      </trkpt>
      <trkpt lat="46.98186" lon="16.10205">
        <ele>362.702272</ele>
        <time>2026-07-08T14:04:12.000Z</time>
      </trkpt>
      <trkpt lat="46.98188" lon="16.10202">
        <ele>362.821251</ele>
        <time>2026-07-08T14:04:13.000Z</time>
      </trkpt>
      <trkpt lat="46.98189" lon="16.10199">
        <ele>362.93025</ele>
        <time>2026-07-08T14:04:14.000Z</time>
      </trkpt>
      <trkpt lat="46.9819" lon="16.10196">
        <ele>363.028571</ele>
        <time>2026-07-08T14:04:15.000Z</time>
      </trkpt>
      <trkpt lat="46.98191" lon="16.10193">
        <ele>363.137105</ele>
        <time>2026-07-08T14:04:16.000Z</time>
      </trkpt>
      <trkpt lat="46.98192" lon="16.1019">
        <ele>363.246104</ele>
        <time>2026-07-08T14:04:17.000Z</time>
      </trkpt>
      <trkpt lat="46.98193" lon="16.10188">
        <ele>363.341625</ele>
        <time>2026-07-08T14:04:18.000Z</time>
      </trkpt>
      <trkpt lat="46.98194" lon="16.10185">
        <ele>363.439947</ele>
        <time>2026-07-08T14:04:19.000Z</time>
      </trkpt>
      <trkpt lat="46.98195" lon="16.10182">
        <ele>363.535384</ele>
        <time>2026-07-08T14:04:20.000Z</time>
      </trkpt>
      <trkpt lat="46.98196" lon="16.10179">
        <ele>363.640446</ele>
        <time>2026-07-08T14:04:21.000Z</time>
      </trkpt>
      <trkpt lat="46.98196" lon="16.10176">
        <ele>363.733075</ele>
        <time>2026-07-08T14:04:22.000Z</time>
      </trkpt>
      <trkpt lat="46.98197" lon="16.10174">
        <ele>363.81956</ele>
        <time>2026-07-08T14:04:23.000Z</time>
      </trkpt>
      <trkpt lat="46.98197" lon="16.10171">
        <ele>363.904375</ele>
        <time>2026-07-08T14:04:24.000Z</time>
      </trkpt>
      <trkpt lat="46.98199" lon="16.10169">
        <ele>364.012909</ele>
        <time>2026-07-08T14:04:25.000Z</time>
      </trkpt>
      <trkpt lat="46.98199" lon="16.10166">
        <ele>364.103787</ele>
        <time>2026-07-08T14:04:26.000Z</time>
      </trkpt>
      <trkpt lat="46.982" lon="16.10163">
        <ele>364.199308</ele>
        <time>2026-07-08T14:04:27.000Z</time>
      </trkpt>
      <trkpt lat="46.98201" lon="16.1016">
        <ele>364.303299</ele>
        <time>2026-07-08T14:04:28.000Z</time>
      </trkpt>
      <trkpt lat="46.98202" lon="16.10158">
        <ele>364.402357</ele>
        <time>2026-07-08T14:04:29.000Z</time>
      </trkpt>
      <trkpt lat="46.98203" lon="16.10155">
        <ele>364.503502</ele>
        <time>2026-07-08T14:04:30.000Z</time>
      </trkpt>
      <trkpt lat="46.98204" lon="16.10152">
        <ele>364.600486</ele>
        <time>2026-07-08T14:04:31.000Z</time>
      </trkpt>
      <trkpt lat="46.98205" lon="16.10149">
        <ele>364.707344</ele>
        <time>2026-07-08T14:04:32.000Z</time>
      </trkpt>
      <trkpt lat="46.98207" lon="16.10146">
        <ele>364.822597</ele>
        <time>2026-07-08T14:04:33.000Z</time>
      </trkpt>
      <trkpt lat="46.98208" lon="16.10144">
        <ele>364.928359</ele>
        <time>2026-07-08T14:04:34.000Z</time>
      </trkpt>
      <trkpt lat="46.98209" lon="16.10141">
        <ele>365.021024</ele>
        <time>2026-07-08T14:04:35.000Z</time>
      </trkpt>
      <trkpt lat="46.9821" lon="16.10139">
        <ele>365.119346</ele>
        <time>2026-07-08T14:04:36.000Z</time>
      </trkpt>
      <trkpt lat="46.98211" lon="16.10136">
        <ele>365.222429</ele>
        <time>2026-07-08T14:04:37.000Z</time>
      </trkpt>
      <trkpt lat="46.98212" lon="16.10133">
        <ele>365.329287</ele>
        <time>2026-07-08T14:04:38.000Z</time>
      </trkpt>
      <trkpt lat="46.98213" lon="16.1013">
        <ele>365.428344</ele>
        <time>2026-07-08T14:04:39.000Z</time>
      </trkpt>
      <trkpt lat="46.98214" lon="16.10127">
        <ele>365.522418</ele>
        <time>2026-07-08T14:04:40.000Z</time>
      </trkpt>
      <trkpt lat="46.98215" lon="16.10124">
        <ele>365.585567</ele>
        <time>2026-07-08T14:04:41.000Z</time>
      </trkpt>
      <trkpt lat="46.98216" lon="16.10122">
        <ele>365.650241</ele>
        <time>2026-07-08T14:04:42.000Z</time>
      </trkpt>
      <trkpt lat="46.98217" lon="16.10119">
        <ele>365.718419</ele>
        <time>2026-07-08T14:04:43.000Z</time>
      </trkpt>
      <trkpt lat="46.98218" lon="16.10116">
        <ele>365.784955</ele>
        <time>2026-07-08T14:04:44.000Z</time>
      </trkpt>
      <trkpt lat="46.9822" lon="16.10114">
        <ele>365.856997</ele>
        <time>2026-07-08T14:04:45.000Z</time>
      </trkpt>
      <trkpt lat="46.98222" lon="16.10111">
        <ele>365.942065</ele>
        <time>2026-07-08T14:04:46.000Z</time>
      </trkpt>
      <trkpt lat="46.98223" lon="16.10108">
        <ele>366.019342</ele>
        <time>2026-07-08T14:04:47.000Z</time>
      </trkpt>
      <trkpt lat="46.98224" lon="16.10106">
        <ele>366.079148</ele>
        <time>2026-07-08T14:04:48.000Z</time>
      </trkpt>
      <trkpt lat="46.98226" lon="16.10103">
        <ele>366.149587</ele>
        <time>2026-07-08T14:04:49.000Z</time>
      </trkpt>
      <trkpt lat="46.98227" lon="16.10101">
        <ele>366.207292</ele>
        <time>2026-07-08T14:04:50.000Z</time>
      </trkpt>
      <trkpt lat="46.98228" lon="16.10099">
        <ele>366.263223</ele>
        <time>2026-07-08T14:04:51.000Z</time>
      </trkpt>
      <trkpt lat="46.98229" lon="16.10096">
        <ele>366.324802</ele>
        <time>2026-07-08T14:04:52.000Z</time>
      </trkpt>
      <trkpt lat="46.98231" lon="16.10094">
        <ele>366.396148</ele>
        <time>2026-07-08T14:04:53.000Z</time>
      </trkpt>
      <trkpt lat="46.98232" lon="16.10092">
        <ele>366.455743</ele>
        <time>2026-07-08T14:04:54.000Z</time>
      </trkpt>
      <trkpt lat="46.98233" lon="16.1009">
        <ele>366.510364</ele>
        <time>2026-07-08T14:04:55.000Z</time>
      </trkpt>
      <trkpt lat="46.98234" lon="16.10087">
        <ele>366.56754</ele>
        <time>2026-07-08T14:04:56.000Z</time>
      </trkpt>
      <trkpt lat="46.98234" lon="16.10085">
        <ele>366.618899</ele>
        <time>2026-07-08T14:04:57.000Z</time>
      </trkpt>
      <trkpt lat="46.98236" lon="16.10083">
        <ele>366.674359</ele>
        <time>2026-07-08T14:04:58.000Z</time>
      </trkpt>
      <trkpt lat="46.98237" lon="16.10081">
        <ele>366.739195</ele>
        <time>2026-07-08T14:04:59.000Z</time>
      </trkpt>
      <trkpt lat="46.98238" lon="16.10079">
        <ele>366.7969</ele>
        <time>2026-07-08T14:05:00.000Z</time>
      </trkpt>
      <trkpt lat="46.98239" lon="16.10076">
        <ele>366.85801</ele>
        <time>2026-07-08T14:05:01.000Z</time>
      </trkpt>
      <trkpt lat="46.98239" lon="16.10073">
        <ele>366.918356</ele>
        <time>2026-07-08T14:05:02.000Z</time>
      </trkpt>
      <trkpt lat="46.9824" lon="16.10071">
        <ele>366.983356</ele>
        <time>2026-07-08T14:05:03.000Z</time>
      </trkpt>
      <trkpt lat="46.98241" lon="16.10068">
        <ele>367.04106</ele>
        <time>2026-07-08T14:05:04.000Z</time>
      </trkpt>
      <trkpt lat="46.98243" lon="16.10066">
        <ele>367.107869</ele>
        <time>2026-07-08T14:05:05.000Z</time>
      </trkpt>
      <trkpt lat="46.98244" lon="16.10064">
        <ele>367.171063</ele>
        <time>2026-07-08T14:05:06.000Z</time>
      </trkpt>
      <trkpt lat="46.98246" lon="16.10062">
        <ele>367.238665</ele>
        <time>2026-07-08T14:05:07.000Z</time>
      </trkpt>
      <trkpt lat="46.98247" lon="16.1006">
        <ele>367.297111</ele>
        <time>2026-07-08T14:05:08.000Z</time>
      </trkpt>
      <trkpt lat="46.98248" lon="16.10057">
        <ele>367.358372</ele>
        <time>2026-07-08T14:05:09.000Z</time>
      </trkpt>
      <trkpt lat="46.98249" lon="16.10055">
        <ele>367.419545</ele>
        <time>2026-07-08T14:05:10.000Z</time>
      </trkpt>
      <trkpt lat="46.9825" lon="16.10053">
        <ele>367.475643</ele>
        <time>2026-07-08T14:05:11.000Z</time>
      </trkpt>
      <trkpt lat="46.98251" lon="16.1005">
        <ele>367.530265</ele>
        <time>2026-07-08T14:05:12.000Z</time>
      </trkpt>
      <trkpt lat="46.98252" lon="16.10048">
        <ele>367.589764</ele>
        <time>2026-07-08T14:05:13.000Z</time>
      </trkpt>
      <trkpt lat="46.98253" lon="16.10045">
        <ele>367.652913</ele>
        <time>2026-07-08T14:05:14.000Z</time>
      </trkpt>
      <trkpt lat="46.98254" lon="16.10043">
        <ele>367.709428</ele>
        <time>2026-07-08T14:05:15.000Z</time>
      </trkpt>
      <trkpt lat="46.98255" lon="16.1004">
        <ele>367.771113</ele>
        <time>2026-07-08T14:05:16.000Z</time>
      </trkpt>
      <trkpt lat="46.98255" lon="16.10038">
        <ele>367.830305</ele>
        <time>2026-07-08T14:05:17.000Z</time>
      </trkpt>
      <trkpt lat="46.98256" lon="16.10035">
        <ele>367.890384</ele>
        <time>2026-07-08T14:05:18.000Z</time>
      </trkpt>
      <trkpt lat="46.98257" lon="16.10032">
        <ele>367.947559</ele>
        <time>2026-07-08T14:05:19.000Z</time>
      </trkpt>
      <trkpt lat="46.98257" lon="16.1003">
        <ele>368.007904</ele>
        <time>2026-07-08T14:05:20.000Z</time>
      </trkpt>
      <trkpt lat="46.98258" lon="16.10027">
        <ele>368.072987</ele>
        <time>2026-07-08T14:05:21.000Z</time>
      </trkpt>
      <trkpt lat="46.98258" lon="16.10024">
        <ele>368.132552</ele>
        <time>2026-07-08T14:05:22.000Z</time>
      </trkpt>
      <trkpt lat="46.98259" lon="16.10021">
        <ele>368.190429</ele>
        <time>2026-07-08T14:05:23.000Z</time>
      </trkpt>
      <trkpt lat="46.98259" lon="16.10015">
        <ele>368.32372</ele>
        <time>2026-07-08T14:05:24.000Z</time>
      </trkpt>
      <trkpt lat="46.98258" lon="16.10012">
        <ele>368.398353</ele>
        <time>2026-07-08T14:05:26.000Z</time>
      </trkpt>
      <trkpt lat="46.98257" lon="16.10004">
        <ele>368.557222</ele>
        <time>2026-07-08T14:05:27.000Z</time>
      </trkpt>
      <trkpt lat="46.98256" lon="16.1">
        <ele>368.642544</ele>
        <time>2026-07-08T14:05:28.000Z</time>
      </trkpt>
      <trkpt lat="46.98256" lon="16.09997">
        <ele>368.722649</ele>
        <time>2026-07-08T14:05:29.000Z</time>
      </trkpt>
      <trkpt lat="46.98255" lon="16.09993">
        <ele>368.812853</ele>
        <time>2026-07-08T14:05:30.000Z</time>
      </trkpt>
      <trkpt lat="46.98255" lon="16.09989">
        <ele>368.894732</ele>
        <time>2026-07-08T14:05:32.000Z</time>
      </trkpt>
      <trkpt lat="46.98253" lon="16.0998">
        <ele>369.082139</ele>
        <time>2026-07-08T14:05:33.000Z</time>
      </trkpt>
      <trkpt lat="46.98252" lon="16.09976">
        <ele>369.183304</ele>
        <time>2026-07-08T14:05:34.000Z</time>
      </trkpt>
      <trkpt lat="46.98251" lon="16.09971">
        <ele>369.295007</ele>
        <time>2026-07-08T14:05:35.000Z</time>
      </trkpt>
      <trkpt lat="46.98249" lon="16.09966">
        <ele>369.408636</ele>
        <time>2026-07-08T14:05:36.000Z</time>
      </trkpt>
      <trkpt lat="46.98248" lon="16.09961">
        <ele>369.530037</ele>
        <time>2026-07-08T14:05:37.000Z</time>
      </trkpt>
      <trkpt lat="46.98246" lon="16.09955">
        <ele>369.674154</ele>
        <time>2026-07-08T14:05:38.000Z</time>
      </trkpt>
      <trkpt lat="46.98244" lon="16.09948">
        <ele>369.815528</ele>
        <time>2026-07-08T14:05:39.000Z</time>
      </trkpt>
      <trkpt lat="46.98243" lon="16.09942">
        <ele>369.964941</ele>
        <time>2026-07-08T14:05:40.000Z</time>
      </trkpt>
      <trkpt lat="46.98241" lon="16.09935">
        <ele>370.119261</ele>
        <time>2026-07-08T14:05:41.000Z</time>
      </trkpt>
      <trkpt lat="46.98239" lon="16.09927">
        <ele>370.299794</ele>
        <time>2026-07-08T14:05:42.000Z</time>
      </trkpt>
      <trkpt lat="46.98237" lon="16.09919">
        <ele>370.467184</ele>
        <time>2026-07-08T14:05:43.000Z</time>
      </trkpt>
      <trkpt lat="46.98235" lon="16.09911">
        <ele>370.651429</ele>
        <time>2026-07-08T14:05:44.000Z</time>
      </trkpt>
      <trkpt lat="46.98233" lon="16.09902">
        <ele>370.847736</ele>
        <time>2026-07-08T14:05:45.000Z</time>
      </trkpt>
      <trkpt lat="46.98232" lon="16.09892">
        <ele>371.069356</ele>
        <time>2026-07-08T14:05:46.000Z</time>
      </trkpt>
      <trkpt lat="46.9823" lon="16.09882">
        <ele>370.918494</ele>
        <time>2026-07-08T14:05:47.000Z</time>
      </trkpt>
      <trkpt lat="46.98229" lon="16.09872">
        <ele>370.753915</ele>
        <time>2026-07-08T14:05:48.000Z</time>
      </trkpt>
      <trkpt lat="46.98228" lon="16.09861">
        <ele>370.576026</ele>
        <time>2026-07-08T14:05:49.000Z</time>
      </trkpt>
      <trkpt lat="46.98228" lon="16.0985">
        <ele>370.413949</ele>
        <time>2026-07-08T14:05:50.000Z</time>
      </trkpt>
      <trkpt lat="46.98228" lon="16.0984">
        <ele>370.242779</ele>
        <time>2026-07-08T14:05:51.000Z</time>
      </trkpt>
      <trkpt lat="46.98229" lon="16.09829">
        <ele>370.078726</ele>
        <time>2026-07-08T14:05:52.000Z</time>
      </trkpt>
      <trkpt lat="46.9823" lon="16.09819">
        <ele>369.906865</ele>
        <time>2026-07-08T14:05:53.000Z</time>
      </trkpt>
      <trkpt lat="46.98231" lon="16.09807">
        <ele>369.726805</ele>
        <time>2026-07-08T14:05:54.000Z</time>
      </trkpt>
      <trkpt lat="46.98233" lon="16.09796">
        <ele>369.54598</ele>
        <time>2026-07-08T14:05:55.000Z</time>
      </trkpt>
      <trkpt lat="46.98235" lon="16.09786">
        <ele>369.370745</ele>
        <time>2026-07-08T14:05:56.000Z</time>
      </trkpt>
      <trkpt lat="46.98237" lon="16.09774">
        <ele>369.183976</ele>
        <time>2026-07-08T14:05:57.000Z</time>
      </trkpt>
      <trkpt lat="46.9824" lon="16.09764">
        <ele>368.999162</ele>
        <time>2026-07-08T14:05:58.000Z</time>
      </trkpt>
      <trkpt lat="46.98243" lon="16.09753">
        <ele>368.810534</ele>
        <time>2026-07-08T14:05:59.000Z</time>
      </trkpt>
      <trkpt lat="46.98247" lon="16.09742">
        <ele>368.625371</ele>
        <time>2026-07-08T14:06:00.000Z</time>
      </trkpt>
      <trkpt lat="46.9825" lon="16.09731">
        <ele>368.444952</ele>
        <time>2026-07-08T14:06:01.000Z</time>
      </trkpt>
      <trkpt lat="46.98253" lon="16.09721">
        <ele>368.268457</ele>
        <time>2026-07-08T14:06:02.000Z</time>
      </trkpt>
      <trkpt lat="46.98256" lon="16.09712">
        <ele>368.096667</ele>
        <time>2026-07-08T14:06:03.000Z</time>
      </trkpt>
      <trkpt lat="46.98259" lon="16.09702">
        <ele>367.927708</ele>
        <time>2026-07-08T14:06:04.000Z</time>
      </trkpt>
      <trkpt lat="46.98263" lon="16.09693">
        <ele>367.760483</ele>
        <time>2026-07-08T14:06:05.000Z</time>
      </trkpt>
      <trkpt lat="46.98266" lon="16.09684">
        <ele>367.59994</ele>
        <time>2026-07-08T14:06:06.000Z</time>
      </trkpt>
      <trkpt lat="46.9827" lon="16.09675">
        <ele>367.441229</ele>
        <time>2026-07-08T14:06:07.000Z</time>
      </trkpt>
      <trkpt lat="46.98273" lon="16.09666">
        <ele>367.280686</ele>
        <time>2026-07-08T14:06:08.000Z</time>
      </trkpt>
      <trkpt lat="46.98276" lon="16.09658">
        <ele>367.124522</ele>
        <time>2026-07-08T14:06:09.000Z</time>
      </trkpt>
      <trkpt lat="46.9828" lon="16.0965">
        <ele>366.968641</ele>
        <time>2026-07-08T14:06:10.000Z</time>
      </trkpt>
      <trkpt lat="46.98284" lon="16.09641">
        <ele>367.027899</ele>
        <time>2026-07-08T14:06:11.000Z</time>
      </trkpt>
      <trkpt lat="46.98287" lon="16.09634">
        <ele>367.252188</ele>
        <time>2026-07-08T14:06:12.000Z</time>
      </trkpt>
      <trkpt lat="46.98291" lon="16.09626">
        <ele>367.474473</ele>
        <time>2026-07-08T14:06:13.000Z</time>
      </trkpt>
      <trkpt lat="46.98294" lon="16.09618">
        <ele>367.690901</ele>
        <time>2026-07-08T14:06:14.000Z</time>
      </trkpt>
      <trkpt lat="46.98297" lon="16.09611">
        <ele>367.903295</ele>
        <time>2026-07-08T14:06:15.000Z</time>
      </trkpt>
      <trkpt lat="46.98301" lon="16.09604">
        <ele>368.101754</ele>
        <time>2026-07-08T14:06:16.000Z</time>
      </trkpt>
      <trkpt lat="46.98303" lon="16.09598">
        <ele>368.290516</ele>
        <time>2026-07-08T14:06:17.000Z</time>
      </trkpt>
      <trkpt lat="46.98306" lon="16.09591">
        <ele>368.476091</ele>
        <time>2026-07-08T14:06:18.000Z</time>
      </trkpt>
      <trkpt lat="46.98308" lon="16.09584">
        <ele>368.662853</ele>
        <time>2026-07-08T14:06:19.000Z</time>
      </trkpt>
      <trkpt lat="46.98309" lon="16.09576">
        <ele>368.845026</ele>
        <time>2026-07-08T14:06:20.000Z</time>
      </trkpt>
      <trkpt lat="46.9831" lon="16.09569">
        <ele>369.017599</ele>
        <time>2026-07-08T14:06:21.000Z</time>
      </trkpt>
      <trkpt lat="46.98311" lon="16.09562">
        <ele>369.186367</ele>
        <time>2026-07-08T14:06:22.000Z</time>
      </trkpt>
      <trkpt lat="46.98312" lon="16.09556">
        <ele>369.348789</ele>
        <time>2026-07-08T14:06:23.000Z</time>
      </trkpt>
      <trkpt lat="46.98313" lon="16.09549">
        <ele>369.508867</ele>
        <time>2026-07-08T14:06:24.000Z</time>
      </trkpt>
      <trkpt lat="46.98314" lon="16.09543">
        <ele>369.659307</ele>
        <time>2026-07-08T14:06:25.000Z</time>
      </trkpt>
      <trkpt lat="46.98314" lon="16.09537">
        <ele>369.809293</ele>
        <time>2026-07-08T14:06:26.000Z</time>
      </trkpt>
      <trkpt lat="46.98315" lon="16.09531">
        <ele>369.94974</ele>
        <time>2026-07-08T14:06:27.000Z</time>
      </trkpt>
      <trkpt lat="46.98315" lon="16.09526">
        <ele>370.075457</ele>
        <time>2026-07-08T14:06:28.000Z</time>
      </trkpt>
      <trkpt lat="46.98316" lon="16.09521">
        <ele>370.191255</ele>
        <time>2026-07-08T14:06:29.000Z</time>
      </trkpt>
      <trkpt lat="46.98316" lon="16.09516">
        <ele>370.304661</ele>
        <time>2026-07-08T14:06:30.000Z</time>
      </trkpt>
      <trkpt lat="46.98316" lon="16.09512">
        <ele>370.413683</ele>
        <time>2026-07-08T14:06:31.000Z</time>
      </trkpt>
      <trkpt lat="46.98317" lon="16.09507">
        <ele>370.524698</ele>
        <time>2026-07-08T14:06:32.000Z</time>
      </trkpt>
      <trkpt lat="46.98317" lon="16.09503">
        <ele>370.63186</ele>
        <time>2026-07-08T14:06:33.000Z</time>
      </trkpt>
      <trkpt lat="46.98317" lon="16.09499">
        <ele>370.735702</ele>
        <time>2026-07-08T14:06:34.000Z</time>
      </trkpt>
      <trkpt lat="46.98318" lon="16.09494">
        <ele>370.841905</ele>
        <time>2026-07-08T14:06:35.000Z</time>
      </trkpt>
      <trkpt lat="46.98319" lon="16.0949">
        <ele>370.939601</ele>
        <time>2026-07-08T14:06:36.000Z</time>
      </trkpt>
      <trkpt lat="46.98319" lon="16.09486">
        <ele>371.037297</ele>
        <time>2026-07-08T14:06:37.000Z</time>
      </trkpt>
      <trkpt lat="46.9832" lon="16.09482">
        <ele>371.134993</ele>
        <time>2026-07-08T14:06:38.000Z</time>
      </trkpt>
      <trkpt lat="46.9832" lon="16.09478">
        <ele>371.22928</ele>
        <time>2026-07-08T14:06:39.000Z</time>
      </trkpt>
      <trkpt lat="46.9832" lon="16.09475">
        <ele>371.316053</ele>
        <time>2026-07-08T14:06:40.000Z</time>
      </trkpt>
      <trkpt lat="46.9832" lon="16.09471">
        <ele>371.404942</ele>
        <time>2026-07-08T14:06:41.000Z</time>
      </trkpt>
      <trkpt lat="46.9832" lon="16.09468">
        <ele>371.48932</ele>
        <time>2026-07-08T14:06:42.000Z</time>
      </trkpt>
      <trkpt lat="46.9832" lon="16.09464">
        <ele>371.568677</ele>
        <time>2026-07-08T14:06:43.000Z</time>
      </trkpt>
      <trkpt lat="46.98321" lon="16.09461">
        <ele>371.6563</ele>
        <time>2026-07-08T14:06:44.000Z</time>
      </trkpt>
      <trkpt lat="46.98321" lon="16.09457">
        <ele>371.738662</ele>
        <time>2026-07-08T14:06:45.000Z</time>
      </trkpt>
      <trkpt lat="46.98322" lon="16.09454">
        <ele>371.823918</ele>
        <time>2026-07-08T14:06:46.000Z</time>
      </trkpt>
      <trkpt lat="46.98322" lon="16.09451">
        <ele>371.903197</ele>
        <time>2026-07-08T14:06:47.000Z</time>
      </trkpt>
      <trkpt lat="46.98322" lon="16.09447">
        <ele>371.982476</ele>
        <time>2026-07-08T14:06:48.000Z</time>
      </trkpt>
      <trkpt lat="46.98322" lon="16.09444">
        <ele>372.06656</ele>
        <time>2026-07-08T14:06:49.000Z</time>
      </trkpt>
      <trkpt lat="46.98322" lon="16.0944">
        <ele>372.150718</ele>
        <time>2026-07-08T14:06:50.000Z</time>
      </trkpt>
      <trkpt lat="46.98322" lon="16.09437">
        <ele>372.233605</ele>
        <time>2026-07-08T14:06:51.000Z</time>
      </trkpt>
      <trkpt lat="46.98322" lon="16.09434">
        <ele>372.312963</ele>
        <time>2026-07-08T14:06:52.000Z</time>
      </trkpt>
      <trkpt lat="46.98322" lon="16.0943">
        <ele>372.39232</ele>
        <time>2026-07-08T14:06:53.000Z</time>
      </trkpt>
      <trkpt lat="46.98322" lon="16.09427">
        <ele>372.474305</ele>
        <time>2026-07-08T14:06:54.000Z</time>
      </trkpt>
      <trkpt lat="46.98322" lon="16.09424">
        <ele>372.553584</ele>
        <time>2026-07-08T14:06:55.000Z</time>
      </trkpt>
      <trkpt lat="46.98322" lon="16.0942">
        <ele>372.630782</ele>
        <time>2026-07-08T14:06:56.000Z</time>
      </trkpt>
      <trkpt lat="46.98322" lon="16.09417">
        <ele>372.710374</ele>
        <time>2026-07-08T14:06:57.000Z</time>
      </trkpt>
      <trkpt lat="46.98322" lon="16.09414">
        <ele>372.787573</ele>
        <time>2026-07-08T14:06:58.000Z</time>
      </trkpt>
      <trkpt lat="46.98322" lon="16.09411">
        <ele>372.862793</ele>
        <time>2026-07-08T14:06:59.000Z</time>
      </trkpt>
      <trkpt lat="46.98321" lon="16.09408">
        <ele>372.94166</ele>
        <time>2026-07-08T14:07:00.000Z</time>
      </trkpt>
      <trkpt lat="46.98321" lon="16.09404">
        <ele>373.019259</ele>
        <time>2026-07-08T14:07:01.000Z</time>
      </trkpt>
      <trkpt lat="46.9832" lon="16.09401">
        <ele>373.093451</ele>
        <time>2026-07-08T14:07:02.000Z</time>
      </trkpt>
      <trkpt lat="46.9832" lon="16.09398">
        <ele>373.167642</ele>
        <time>2026-07-08T14:07:03.000Z</time>
      </trkpt>
      <trkpt lat="46.98319" lon="16.09396">
        <ele>373.236661</ele>
        <time>2026-07-08T14:07:04.000Z</time>
      </trkpt>
      <trkpt lat="46.98319" lon="16.09393">
        <ele>373.298999</ele>
        <time>2026-07-08T14:07:05.000Z</time>
      </trkpt>
      <trkpt lat="46.98318" lon="16.0939">
        <ele>373.361209</ele>
        <time>2026-07-08T14:07:06.000Z</time>
      </trkpt>
      <trkpt lat="46.98317" lon="16.09387">
        <ele>373.426591</ele>
        <time>2026-07-08T14:07:07.000Z</time>
      </trkpt>
      <trkpt lat="46.98316" lon="16.09384">
        <ele>373.496576</ele>
        <time>2026-07-08T14:07:08.000Z</time>
      </trkpt>
      <trkpt lat="46.98315" lon="16.09382">
        <ele>373.559371</ele>
        <time>2026-07-08T14:07:09.000Z</time>
      </trkpt>
      <trkpt lat="46.98314" lon="16.09379">
        <ele>373.625541</ele>
        <time>2026-07-08T14:07:10.000Z</time>
      </trkpt>
      <trkpt lat="46.98314" lon="16.09376">
        <ele>373.690922</ele>
        <time>2026-07-08T14:07:11.000Z</time>
      </trkpt>
      <trkpt lat="46.98313" lon="16.09373">
        <ele>373.758295</ele>
        <time>2026-07-08T14:07:12.000Z</time>
      </trkpt>
      <trkpt lat="46.98312" lon="16.09371">
        <ele>373.82496</ele>
        <time>2026-07-08T14:07:13.000Z</time>
      </trkpt>
      <trkpt lat="46.98311" lon="16.09368">
        <ele>373.890341</ele>
        <time>2026-07-08T14:07:14.000Z</time>
      </trkpt>
      <trkpt lat="46.9831" lon="16.09365">
        <ele>373.959746</ele>
        <time>2026-07-08T14:07:15.000Z</time>
      </trkpt>
      <trkpt lat="46.98309" lon="16.09362">
        <ele>374.030923</ele>
        <time>2026-07-08T14:07:16.000Z</time>
      </trkpt>
      <trkpt lat="46.98307" lon="16.0936">
        <ele>374.100351</ele>
        <time>2026-07-08T14:07:17.000Z</time>
      </trkpt>
      <trkpt lat="46.98306" lon="16.09357">
        <ele>374.166188</ele>
        <time>2026-07-08T14:07:18.000Z</time>
      </trkpt>
      <trkpt lat="46.98305" lon="16.09355">
        <ele>374.232025</ele>
        <time>2026-07-08T14:07:19.000Z</time>
      </trkpt>
      <trkpt lat="46.98304" lon="16.09352">
        <ele>374.298028</ele>
        <time>2026-07-08T14:07:20.000Z</time>
      </trkpt>
      <trkpt lat="46.98302" lon="16.0935">
        <ele>374.363514</ele>
        <time>2026-07-08T14:07:21.000Z</time>
      </trkpt>
      <trkpt lat="46.98301" lon="16.09348">
        <ele>374.4262</ele>
        <time>2026-07-08T14:07:22.000Z</time>
      </trkpt>
      <trkpt lat="46.98299" lon="16.09346">
        <ele>374.492589</ele>
        <time>2026-07-08T14:07:23.000Z</time>
      </trkpt>
      <trkpt lat="46.98298" lon="16.09343">
        <ele>374.554863</ele>
        <time>2026-07-08T14:07:24.000Z</time>
      </trkpt>
      <trkpt lat="46.98297" lon="16.09341">
        <ele>374.624525</ele>
        <time>2026-07-08T14:07:25.000Z</time>
      </trkpt>
      <trkpt lat="46.98296" lon="16.09339">
        <ele>374.685023</ele>
        <time>2026-07-08T14:07:26.000Z</time>
      </trkpt>
      <trkpt lat="46.98295" lon="16.09336">
        <ele>374.74569</ele>
        <time>2026-07-08T14:07:27.000Z</time>
      </trkpt>
      <trkpt lat="46.98293" lon="16.09334">
        <ele>374.809706</ele>
        <time>2026-07-08T14:07:28.000Z</time>
      </trkpt>
      <trkpt lat="46.98292" lon="16.09332">
        <ele>374.873723</ele>
        <time>2026-07-08T14:07:29.000Z</time>
      </trkpt>
      <trkpt lat="46.9829" lon="16.09331">
        <ele>374.934924</ele>
        <time>2026-07-08T14:07:30.000Z</time>
      </trkpt>
      <trkpt lat="46.98289" lon="16.09328">
        <ele>374.999255</ele>
        <time>2026-07-08T14:07:31.000Z</time>
      </trkpt>
      <trkpt lat="46.98287" lon="16.09326">
        <ele>375.066246</ele>
        <time>2026-07-08T14:07:32.000Z</time>
      </trkpt>
      <trkpt lat="46.98286" lon="16.09324">
        <ele>375.131044</ele>
        <time>2026-07-08T14:07:33.000Z</time>
      </trkpt>
      <trkpt lat="46.98284" lon="16.09322">
        <ele>375.19506</ele>
        <time>2026-07-08T14:07:34.000Z</time>
      </trkpt>
      <trkpt lat="46.98283" lon="16.0932">
        <ele>375.260546</ele>
        <time>2026-07-08T14:07:35.000Z</time>
      </trkpt>
      <trkpt lat="46.98281" lon="16.09318">
        <ele>375.327537</ele>
        <time>2026-07-08T14:07:36.000Z</time>
      </trkpt>
      <trkpt lat="46.9828" lon="16.09316">
        <ele>375.388738</ele>
        <time>2026-07-08T14:07:37.000Z</time>
      </trkpt>
      <trkpt lat="46.98278" lon="16.09314">
        <ele>375.455729</ele>
        <time>2026-07-08T14:07:38.000Z</time>
      </trkpt>
      <trkpt lat="46.98277" lon="16.09311">
        <ele>375.524988</ele>
        <time>2026-07-08T14:07:39.000Z</time>
      </trkpt>
      <trkpt lat="46.98275" lon="16.09309">
        <ele>375.594651</ele>
        <time>2026-07-08T14:07:40.000Z</time>
      </trkpt>
      <trkpt lat="46.98274" lon="16.09306">
        <ele>375.662354</ele>
        <time>2026-07-08T14:07:41.000Z</time>
      </trkpt>
      <trkpt lat="46.98273" lon="16.09304">
        <ele>375.735301</ele>
        <time>2026-07-08T14:07:42.000Z</time>
      </trkpt>
      <trkpt lat="46.98271" lon="16.09301">
        <ele>375.808339</ele>
        <time>2026-07-08T14:07:43.000Z</time>
      </trkpt>
      <trkpt lat="46.98269" lon="16.09299">
        <ele>375.882854</ele>
        <time>2026-07-08T14:07:44.000Z</time>
      </trkpt>
      <trkpt lat="46.98268" lon="16.09296">
        <ele>375.956684</ele>
        <time>2026-07-08T14:07:45.000Z</time>
      </trkpt>
      <trkpt lat="46.98266" lon="16.09294">
        <ele>376.030022</ele>
        <time>2026-07-08T14:07:46.000Z</time>
      </trkpt>
      <trkpt lat="46.98265" lon="16.09291">
        <ele>376.105018</ele>
        <time>2026-07-08T14:07:47.000Z</time>
      </trkpt>
      <trkpt lat="46.98263" lon="16.09288">
        <ele>376.180014</ele>
        <time>2026-07-08T14:07:48.000Z</time>
      </trkpt>
      <trkpt lat="46.98262" lon="16.09286">
        <ele>376.256039</ele>
        <time>2026-07-08T14:07:49.000Z</time>
      </trkpt>
      <trkpt lat="46.9826" lon="16.09283">
        <ele>376.332717</ele>
        <time>2026-07-08T14:07:50.000Z</time>
      </trkpt>
      <trkpt lat="46.98258" lon="16.09281">
        <ele>376.408742</ele>
        <time>2026-07-08T14:07:51.000Z</time>
      </trkpt>
      <trkpt lat="46.98257" lon="16.09278">
        <ele>376.48542</ele>
        <time>2026-07-08T14:07:52.000Z</time>
      </trkpt>
      <trkpt lat="46.98255" lon="16.09275">
        <ele>376.566728</ele>
        <time>2026-07-08T14:07:53.000Z</time>
      </trkpt>
      <trkpt lat="46.98253" lon="16.09272">
        <ele>376.654043</ele>
        <time>2026-07-08T14:07:54.000Z</time>
      </trkpt>
      <trkpt lat="46.98251" lon="16.09269">
        <ele>376.743371</ele>
        <time>2026-07-08T14:07:55.000Z</time>
      </trkpt>
      <trkpt lat="46.98249" lon="16.09266">
        <ele>376.836844</ele>
        <time>2026-07-08T14:07:56.000Z</time>
      </trkpt>
      <trkpt lat="46.98247" lon="16.09263">
        <ele>376.936221</ele>
        <time>2026-07-08T14:07:57.000Z</time>
      </trkpt>
      <trkpt lat="46.98244" lon="16.09259">
        <ele>377.047207</ele>
        <time>2026-07-08T14:07:58.000Z</time>
      </trkpt>
      <trkpt lat="46.98241" lon="16.09256">
        <ele>377.166927</ele>
        <time>2026-07-08T14:07:59.000Z</time>
      </trkpt>
      <trkpt lat="46.98238" lon="16.09252">
        <ele>377.30069</ele>
        <time>2026-07-08T14:08:00.000Z</time>
      </trkpt>
      <trkpt lat="46.98234" lon="16.09249">
        <ele>377.434452</ele>
        <time>2026-07-08T14:08:01.000Z</time>
      </trkpt>
      <trkpt lat="46.98231" lon="16.09246">
        <ele>377.568501</ele>
        <time>2026-07-08T14:08:02.000Z</time>
      </trkpt>
      <trkpt lat="46.98227" lon="16.09242">
        <ele>377.715573</ele>
        <time>2026-07-08T14:08:03.000Z</time>
      </trkpt>
      <trkpt lat="46.98223" lon="16.09238">
        <ele>377.868444</ele>
        <time>2026-07-08T14:08:04.000Z</time>
      </trkpt>
      <trkpt lat="46.98218" lon="16.09234">
        <ele>378.034594</ele>
        <time>2026-07-08T14:08:05.000Z</time>
      </trkpt>
      <trkpt lat="46.98213" lon="16.0923">
        <ele>378.217145</ele>
        <time>2026-07-08T14:08:06.000Z</time>
      </trkpt>
      <trkpt lat="46.98209" lon="16.09224">
        <ele>378.405581</ele>
        <time>2026-07-08T14:08:07.000Z</time>
      </trkpt>
      <trkpt lat="46.98204" lon="16.09219">
        <ele>378.600385</ele>
        <time>2026-07-08T14:08:08.000Z</time>
      </trkpt>
      <trkpt lat="46.98198" lon="16.09214">
        <ele>378.801734</ele>
        <time>2026-07-08T14:08:09.000Z</time>
      </trkpt>
      <trkpt lat="46.98192" lon="16.09209">
        <ele>378.803903</ele>
        <time>2026-07-08T14:08:10.000Z</time>
      </trkpt>
      <trkpt lat="46.98187" lon="16.09203">
        <ele>378.594874</ele>
        <time>2026-07-08T14:08:11.000Z</time>
      </trkpt>
      <trkpt lat="46.98181" lon="16.09197">
        <ele>378.379627</ele>
        <time>2026-07-08T14:08:12.000Z</time>
      </trkpt>
      <trkpt lat="46.98176" lon="16.09191">
        <ele>378.161796</ele>
        <time>2026-07-08T14:08:13.000Z</time>
      </trkpt>
      <trkpt lat="46.98171" lon="16.09185">
        <ele>377.947565</ele>
        <time>2026-07-08T14:08:14.000Z</time>
      </trkpt>
      <trkpt lat="46.98165" lon="16.09179">
        <ele>377.739798</ele>
        <time>2026-07-08T14:08:15.000Z</time>
      </trkpt>
      <trkpt lat="46.9816" lon="16.09173">
        <ele>377.538448</ele>
        <time>2026-07-08T14:08:16.000Z</time>
      </trkpt>
      <trkpt lat="46.98155" lon="16.09167">
        <ele>377.334592</ele>
        <time>2026-07-08T14:08:17.000Z</time>
      </trkpt>
      <trkpt lat="46.9815" lon="16.09162">
        <ele>377.137037</ele>
        <time>2026-07-08T14:08:18.000Z</time>
      </trkpt>
      <trkpt lat="46.98145" lon="16.09156">
        <ele>376.92927</ele>
        <time>2026-07-08T14:08:19.000Z</time>
      </trkpt>
      <trkpt lat="46.9814" lon="16.0915">
        <ele>376.721251</ele>
        <time>2026-07-08T14:08:20.000Z</time>
      </trkpt>
      <trkpt lat="46.98135" lon="16.09143">
        <ele>376.509449</ele>
        <time>2026-07-08T14:08:21.000Z</time>
      </trkpt>
      <trkpt lat="46.98129" lon="16.09137">
        <ele>376.28972</ele>
        <time>2026-07-08T14:08:22.000Z</time>
      </trkpt>
      <trkpt lat="46.98124" lon="16.0913">
        <ele>376.061038</ele>
        <time>2026-07-08T14:08:23.000Z</time>
      </trkpt>
      <trkpt lat="46.98118" lon="16.09123">
        <ele>375.822732</ele>
        <time>2026-07-08T14:08:24.000Z</time>
      </trkpt>
      <trkpt lat="46.98112" lon="16.09116">
        <ele>375.577102</ele>
        <time>2026-07-08T14:08:25.000Z</time>
      </trkpt>
      <trkpt lat="46.98105" lon="16.09109">
        <ele>375.327627</ele>
        <time>2026-07-08T14:08:26.000Z</time>
      </trkpt>
      <trkpt lat="46.98098" lon="16.09103">
        <ele>375.069741</ele>
        <time>2026-07-08T14:08:27.000Z</time>
      </trkpt>
      <trkpt lat="46.98091" lon="16.09097">
        <ele>374.81077</ele>
        <time>2026-07-08T14:08:28.000Z</time>
      </trkpt>
      <trkpt lat="46.98084" lon="16.09092">
        <ele>374.555013</ele>
        <time>2026-07-08T14:08:29.000Z</time>
      </trkpt>
      <trkpt lat="46.98077" lon="16.09087">
        <ele>374.313287</ele>
        <time>2026-07-08T14:08:30.000Z</time>
      </trkpt>
      <trkpt lat="46.9807" lon="16.09082">
        <ele>374.076335</ele>
        <time>2026-07-08T14:08:31.000Z</time>
      </trkpt>
      <trkpt lat="46.98063" lon="16.09077">
        <ele>373.83832</ele>
        <time>2026-07-08T14:08:32.000Z</time>
      </trkpt>
      <trkpt lat="46.98057" lon="16.09071">
        <ele>373.601612</ele>
        <time>2026-07-08T14:08:33.000Z</time>
      </trkpt>
      <trkpt lat="46.9805" lon="16.09065">
        <ele>373.363536</ele>
        <time>2026-07-08T14:08:34.000Z</time>
      </trkpt>
      <trkpt lat="46.98045" lon="16.09058">
        <ele>373.214967</ele>
        <time>2026-07-08T14:08:35.000Z</time>
      </trkpt>
      <trkpt lat="46.9804" lon="16.0905">
        <ele>373.128504</ele>
        <time>2026-07-08T14:08:36.000Z</time>
      </trkpt>
      <trkpt lat="46.98036" lon="16.09041">
        <ele>373.040342</ele>
        <time>2026-07-08T14:08:37.000Z</time>
      </trkpt>
      <trkpt lat="46.98031" lon="16.09032">
        <ele>372.950854</ele>
        <time>2026-07-08T14:08:38.000Z</time>
      </trkpt>
      <trkpt lat="46.98028" lon="16.09022">
        <ele>372.862492</ele>
        <time>2026-07-08T14:08:39.000Z</time>
      </trkpt>
      <trkpt lat="46.98024" lon="16.09013">
        <ele>372.774131</ele>
        <time>2026-07-08T14:08:40.000Z</time>
      </trkpt>
      <trkpt lat="46.9802" lon="16.09003">
        <ele>372.686358</ele>
        <time>2026-07-08T14:08:41.000Z</time>
      </trkpt>
      <trkpt lat="46.98017" lon="16.08993">
        <ele>372.598312</ele>
        <time>2026-07-08T14:08:42.000Z</time>
      </trkpt>
      <trkpt lat="46.98013" lon="16.08984">
        <ele>372.512581</ele>
        <time>2026-07-08T14:08:43.000Z</time>
      </trkpt>
      <trkpt lat="46.98011" lon="16.08974">
        <ele>372.42659</ele>
        <time>2026-07-08T14:08:44.000Z</time>
      </trkpt>
      <trkpt lat="46.98008" lon="16.08964">
        <ele>372.343273</ele>
        <time>2026-07-08T14:08:45.000Z</time>
      </trkpt>
      <trkpt lat="46.98005" lon="16.08954">
        <ele>372.258154</ele>
        <time>2026-07-08T14:08:46.000Z</time>
      </trkpt>
      <trkpt lat="46.98003" lon="16.08945">
        <ele>372.173351</ele>
        <time>2026-07-08T14:08:47.000Z</time>
      </trkpt>
      <trkpt lat="46.98" lon="16.08935">
        <ele>372.092467</ele>
        <time>2026-07-08T14:08:48.000Z</time>
      </trkpt>
      <trkpt lat="46.97998" lon="16.08925">
        <ele>372.011159</ele>
        <time>2026-07-08T14:08:49.000Z</time>
      </trkpt>
      <trkpt lat="46.97996" lon="16.08916">
        <ele>371.931386</ele>
        <time>2026-07-08T14:08:50.000Z</time>
      </trkpt>
      <trkpt lat="46.97994" lon="16.08907">
        <ele>371.85392</ele>
        <time>2026-07-08T14:08:51.000Z</time>
      </trkpt>
      <trkpt lat="46.97992" lon="16.08898">
        <ele>371.778666</ele>
        <time>2026-07-08T14:08:52.000Z</time>
      </trkpt>
      <trkpt lat="46.9799" lon="16.08889">
        <ele>371.702711</ele>
        <time>2026-07-08T14:08:53.000Z</time>
      </trkpt>
      <trkpt lat="46.97988" lon="16.08881">
        <ele>371.632081</ele>
        <time>2026-07-08T14:08:54.000Z</time>
      </trkpt>
      <trkpt lat="46.97986" lon="16.08873">
        <ele>371.564489</ele>
        <time>2026-07-08T14:08:55.000Z</time>
      </trkpt>
      <trkpt lat="46.97985" lon="16.08865">
        <ele>371.497256</ele>
        <time>2026-07-08T14:08:56.000Z</time>
      </trkpt>
      <trkpt lat="46.97983" lon="16.08857">
        <ele>371.429665</ele>
        <time>2026-07-08T14:08:57.000Z</time>
      </trkpt>
      <trkpt lat="46.97981" lon="16.08848">
        <ele>371.359791</ele>
        <time>2026-07-08T14:08:58.000Z</time>
      </trkpt>
      <trkpt lat="46.97979" lon="16.08841">
        <ele>371.292067</ele>
        <time>2026-07-08T14:08:59.000Z</time>
      </trkpt>
      <trkpt lat="46.97976" lon="16.08833">
        <ele>371.222918</ele>
        <time>2026-07-08T14:09:00.000Z</time>
      </trkpt>
      <trkpt lat="46.97973" lon="16.08825">
        <ele>371.153452</ele>
        <time>2026-07-08T14:09:01.000Z</time>
      </trkpt>
      <trkpt lat="46.97971" lon="16.08818">
        <ele>371.149707</ele>
        <time>2026-07-08T14:09:02.000Z</time>
      </trkpt>
      <trkpt lat="46.97968" lon="16.0881">
        <ele>371.151039</ele>
        <time>2026-07-08T14:09:03.000Z</time>
      </trkpt>
      <trkpt lat="46.97966" lon="16.08803">
        <ele>371.152339</ele>
        <time>2026-07-08T14:09:04.000Z</time>
      </trkpt>
      <trkpt lat="46.97963" lon="16.08797">
        <ele>371.153592</ele>
        <time>2026-07-08T14:09:05.000Z</time>
      </trkpt>
      <trkpt lat="46.9796" lon="16.08791">
        <ele>371.154739</ele>
        <time>2026-07-08T14:09:06.000Z</time>
      </trkpt>
      <trkpt lat="46.97958" lon="16.08785">
        <ele>371.155885</ele>
        <time>2026-07-08T14:09:07.000Z</time>
      </trkpt>
      <trkpt lat="46.97956" lon="16.08779">
        <ele>371.157008</ele>
        <time>2026-07-08T14:09:08.000Z</time>
      </trkpt>
      <trkpt lat="46.97953" lon="16.08773">
        <ele>371.158144</ele>
        <time>2026-07-08T14:09:09.000Z</time>
      </trkpt>
      <trkpt lat="46.97951" lon="16.08767">
        <ele>371.159284</ele>
        <time>2026-07-08T14:09:10.000Z</time>
      </trkpt>
      <trkpt lat="46.9795" lon="16.0876">
        <ele>371.160357</ele>
        <time>2026-07-08T14:09:11.000Z</time>
      </trkpt>
      <trkpt lat="46.97948" lon="16.08754">
        <ele>371.161414</ele>
        <time>2026-07-08T14:09:12.000Z</time>
      </trkpt>
      <trkpt lat="46.97947" lon="16.08748">
        <ele>371.162518</ele>
        <time>2026-07-08T14:09:13.000Z</time>
      </trkpt>
      <trkpt lat="46.97945" lon="16.08741">
        <ele>371.163653</ele>
        <time>2026-07-08T14:09:14.000Z</time>
      </trkpt>
      <trkpt lat="46.97943" lon="16.08735">
        <ele>371.164772</ele>
        <time>2026-07-08T14:09:15.000Z</time>
      </trkpt>
      <trkpt lat="46.97942" lon="16.08729">
        <ele>371.165868</ele>
        <time>2026-07-08T14:09:16.000Z</time>
      </trkpt>
      <trkpt lat="46.9794" lon="16.08723">
        <ele>371.166979</ele>
        <time>2026-07-08T14:09:17.000Z</time>
      </trkpt>
      <trkpt lat="46.97938" lon="16.08717">
        <ele>371.168039</ele>
        <time>2026-07-08T14:09:18.000Z</time>
      </trkpt>
      <trkpt lat="46.97935" lon="16.08711">
        <ele>371.169119</ele>
        <time>2026-07-08T14:09:19.000Z</time>
      </trkpt>
      <trkpt lat="46.97933" lon="16.08706">
        <ele>371.170159</ele>
        <time>2026-07-08T14:09:20.000Z</time>
      </trkpt>
      <trkpt lat="46.97931" lon="16.087">
        <ele>371.171248</ele>
        <time>2026-07-08T14:09:21.000Z</time>
      </trkpt>
      <trkpt lat="46.97929" lon="16.08693">
        <ele>371.172387</ele>
        <time>2026-07-08T14:09:22.000Z</time>
      </trkpt>
      <trkpt lat="46.97927" lon="16.08687">
        <ele>371.173502</ele>
        <time>2026-07-08T14:09:23.000Z</time>
      </trkpt>
      <trkpt lat="46.97924" lon="16.08681">
        <ele>371.174693</ele>
        <time>2026-07-08T14:09:24.000Z</time>
      </trkpt>
      <trkpt lat="46.97922" lon="16.08675">
        <ele>371.175797</ele>
        <time>2026-07-08T14:09:25.000Z</time>
      </trkpt>
      <trkpt lat="46.97919" lon="16.08669">
        <ele>371.177011</ele>
        <time>2026-07-08T14:09:26.000Z</time>
      </trkpt>
      <trkpt lat="46.97915" lon="16.08663">
        <ele>371.178346</ele>
        <time>2026-07-08T14:09:27.000Z</time>
      </trkpt>
      <trkpt lat="46.97913" lon="16.08656">
        <ele>371.179656</ele>
        <time>2026-07-08T14:09:28.000Z</time>
      </trkpt>
      <trkpt lat="46.9791" lon="16.08649">
        <ele>371.180853</ele>
        <time>2026-07-08T14:09:29.000Z</time>
      </trkpt>
      <trkpt lat="46.97909" lon="16.08641">
        <ele>371.182195</ele>
        <time>2026-07-08T14:09:30.000Z</time>
      </trkpt>
      <trkpt lat="46.97908" lon="16.08633">
        <ele>371.18361</ele>
        <time>2026-07-08T14:09:31.000Z</time>
      </trkpt>
      <trkpt lat="46.97907" lon="16.08624">
        <ele>371.185021</ele>
        <time>2026-07-08T14:09:32.000Z</time>
      </trkpt>
      <trkpt lat="46.97906" lon="16.08615">
        <ele>371.186498</ele>
        <time>2026-07-08T14:09:33.000Z</time>
      </trkpt>
      <trkpt lat="46.97905" lon="16.08606">
        <ele>371.188063</ele>
        <time>2026-07-08T14:09:34.000Z</time>
      </trkpt>
      <trkpt lat="46.97903" lon="16.08597">
        <ele>371.18956</ele>
        <time>2026-07-08T14:09:35.000Z</time>
      </trkpt>
      <trkpt lat="46.979" lon="16.08589">
        <ele>371.191074</ele>
        <time>2026-07-08T14:09:36.000Z</time>
      </trkpt>
      <trkpt lat="46.97898" lon="16.0858">
        <ele>371.189515</ele>
        <time>2026-07-08T14:09:37.000Z</time>
      </trkpt>
      <trkpt lat="46.97895" lon="16.08572">
        <ele>371.187019</ele>
        <time>2026-07-08T14:09:38.000Z</time>
      </trkpt>
      <trkpt lat="46.97892" lon="16.08563">
        <ele>371.184386</ele>
        <time>2026-07-08T14:09:39.000Z</time>
      </trkpt>
      <trkpt lat="46.97889" lon="16.08556">
        <ele>371.181947</ele>
        <time>2026-07-08T14:09:40.000Z</time>
      </trkpt>
      <trkpt lat="46.97886" lon="16.08548">
        <ele>371.179446</ele>
        <time>2026-07-08T14:09:41.000Z</time>
      </trkpt>
      <trkpt lat="46.97882" lon="16.0854">
        <ele>371.176827</ele>
        <time>2026-07-08T14:09:42.000Z</time>
      </trkpt>
      <trkpt lat="46.97878" lon="16.08534">
        <ele>371.174419</ele>
        <time>2026-07-08T14:09:43.000Z</time>
      </trkpt>
      <trkpt lat="46.97874" lon="16.08528">
        <ele>371.172056</ele>
        <time>2026-07-08T14:09:44.000Z</time>
      </trkpt>
      <trkpt lat="46.97868" lon="16.08522">
        <ele>371.169305</ele>
        <time>2026-07-08T14:09:45.000Z</time>
      </trkpt>
      <trkpt lat="46.97863" lon="16.08516">
        <ele>371.166573</ele>
        <time>2026-07-08T14:09:46.000Z</time>
      </trkpt>
      <trkpt lat="46.97858" lon="16.08511">
        <ele>371.163986</ele>
        <time>2026-07-08T14:09:47.000Z</time>
      </trkpt>
      <trkpt lat="46.97852" lon="16.08506">
        <ele>371.161488</ele>
        <time>2026-07-08T14:09:48.000Z</time>
      </trkpt>
      <trkpt lat="46.97847" lon="16.08501">
        <ele>371.158921</ele>
        <time>2026-07-08T14:09:49.000Z</time>
      </trkpt>
      <trkpt lat="46.97841" lon="16.08497">
        <ele>371.156336</ele>
        <time>2026-07-08T14:09:50.000Z</time>
      </trkpt>
      <trkpt lat="46.97835" lon="16.08493">
        <ele>371.153823</ele>
        <time>2026-07-08T14:09:51.000Z</time>
      </trkpt>
      <trkpt lat="46.9783" lon="16.0849">
        <ele>371.151501</ele>
        <time>2026-07-08T14:09:52.000Z</time>
      </trkpt>
      <trkpt lat="46.97824" lon="16.08487">
        <ele>371.149009</ele>
        <time>2026-07-08T14:09:53.000Z</time>
      </trkpt>
      <trkpt lat="46.97819" lon="16.08483">
        <ele>371.146613</ele>
        <time>2026-07-08T14:09:54.000Z</time>
      </trkpt>
      <trkpt lat="46.97813" lon="16.0848">
        <ele>371.144206</ele>
        <time>2026-07-08T14:09:55.000Z</time>
      </trkpt>
      <trkpt lat="46.97809" lon="16.08476">
        <ele>371.142112</ele>
        <time>2026-07-08T14:09:56.000Z</time>
      </trkpt>
      <trkpt lat="46.97805" lon="16.08472">
        <ele>371.140088</ele>
        <time>2026-07-08T14:09:57.000Z</time>
      </trkpt>
      <trkpt lat="46.978" lon="16.08468">
        <ele>371.138006</ele>
        <time>2026-07-08T14:09:58.000Z</time>
      </trkpt>
      <trkpt lat="46.97797" lon="16.08463">
        <ele>371.136036</ele>
        <time>2026-07-08T14:09:59.000Z</time>
      </trkpt>
      <trkpt lat="46.97794" lon="16.08458">
        <ele>371.134309</ele>
        <time>2026-07-08T14:10:00.000Z</time>
      </trkpt>
      <trkpt lat="46.97791" lon="16.08453">
        <ele>371.132421</ele>
        <time>2026-07-08T14:10:01.000Z</time>
      </trkpt>
      <trkpt lat="46.97789" lon="16.08447">
        <ele>371.130658</ele>
        <time>2026-07-08T14:10:02.000Z</time>
      </trkpt>
      <trkpt lat="46.97788" lon="16.08441">
        <ele>371.128921</ele>
        <time>2026-07-08T14:10:03.000Z</time>
      </trkpt>
      <trkpt lat="46.97786" lon="16.08435">
        <ele>371.127032</ele>
        <time>2026-07-08T14:10:04.000Z</time>
      </trkpt>
      <trkpt lat="46.97785" lon="16.08429">
        <ele>371.125306</ele>
        <time>2026-07-08T14:10:05.000Z</time>
      </trkpt>
      <trkpt lat="46.97784" lon="16.08422">
        <ele>371.123442</ele>
        <time>2026-07-08T14:10:06.000Z</time>
      </trkpt>
      <trkpt lat="46.97783" lon="16.08416">
        <ele>371.121652</ele>
        <time>2026-07-08T14:10:07.000Z</time>
      </trkpt>
      <trkpt lat="46.97782" lon="16.08409">
        <ele>371.119842</ele>
        <time>2026-07-08T14:10:08.000Z</time>
      </trkpt>
      <trkpt lat="46.97781" lon="16.08402">
        <ele>371.133172</ele>
        <time>2026-07-08T14:10:09.000Z</time>
      </trkpt>
      <trkpt lat="46.9778" lon="16.08397">
        <ele>371.153609</ele>
        <time>2026-07-08T14:10:10.000Z</time>
      </trkpt>
      <trkpt lat="46.9778" lon="16.0839">
        <ele>371.175722</ele>
        <time>2026-07-08T14:10:11.000Z</time>
      </trkpt>
      <trkpt lat="46.97781" lon="16.08382">
        <ele>371.204275</ele>
        <time>2026-07-08T14:10:12.000Z</time>
      </trkpt>
      <trkpt lat="46.97781" lon="16.08374">
        <ele>371.233184</ele>
        <time>2026-07-08T14:10:13.000Z</time>
      </trkpt>
      <trkpt lat="46.97781" lon="16.08365">
        <ele>371.265997</ele>
        <time>2026-07-08T14:10:14.000Z</time>
      </trkpt>
      <trkpt lat="46.97781" lon="16.08357">
        <ele>371.295642</ele>
        <time>2026-07-08T14:10:15.000Z</time>
      </trkpt>
      <trkpt lat="46.97781" lon="16.08349">
        <ele>371.324176</ele>
        <time>2026-07-08T14:10:16.000Z</time>
      </trkpt>
      <trkpt lat="46.9778" lon="16.0834">
        <ele>371.354713</ele>
        <time>2026-07-08T14:10:17.000Z</time>
      </trkpt>
      <trkpt lat="46.9778" lon="16.08332">
        <ele>371.384714</ele>
        <time>2026-07-08T14:10:18.000Z</time>
      </trkpt>
      <trkpt lat="46.97778" lon="16.08324">
        <ele>371.413919</ele>
        <time>2026-07-08T14:10:19.000Z</time>
      </trkpt>
      <trkpt lat="46.97777" lon="16.08317">
        <ele>371.441518</ele>
        <time>2026-07-08T14:10:20.000Z</time>
      </trkpt>
      <trkpt lat="46.97775" lon="16.0831">
        <ele>371.466347</ele>
        <time>2026-07-08T14:10:21.000Z</time>
      </trkpt>
      <trkpt lat="46.97774" lon="16.08303">
        <ele>371.491665</ele>
        <time>2026-07-08T14:10:22.000Z</time>
      </trkpt>
      <trkpt lat="46.97772" lon="16.08297">
        <ele>371.517495</ele>
        <time>2026-07-08T14:10:23.000Z</time>
      </trkpt>
      <trkpt lat="46.9777" lon="16.0829">
        <ele>371.542738</ele>
        <time>2026-07-08T14:10:24.000Z</time>
      </trkpt>
      <trkpt lat="46.97768" lon="16.08284">
        <ele>371.567426</ele>
        <time>2026-07-08T14:10:25.000Z</time>
      </trkpt>
      <trkpt lat="46.97766" lon="16.08278">
        <ele>371.592668</ele>
        <time>2026-07-08T14:10:26.000Z</time>
      </trkpt>
      <trkpt lat="46.97763" lon="16.08271">
        <ele>371.621039</ele>
        <time>2026-07-08T14:10:27.000Z</time>
      </trkpt>
      <trkpt lat="46.9776" lon="16.08263">
        <ele>371.653399</ele>
        <time>2026-07-08T14:10:28.000Z</time>
      </trkpt>
      <trkpt lat="46.97757" lon="16.08255">
        <ele>371.685024</ele>
        <time>2026-07-08T14:10:29.000Z</time>
      </trkpt>
      <trkpt lat="46.97755" lon="16.08247">
        <ele>371.717093</ele>
        <time>2026-07-08T14:10:30.000Z</time>
      </trkpt>
      <trkpt lat="46.97753" lon="16.08239">
        <ele>371.746813</ele>
        <time>2026-07-08T14:10:31.000Z</time>
      </trkpt>
      <trkpt lat="46.97751" lon="16.0823">
        <ele>371.779091</ele>
        <time>2026-07-08T14:10:32.000Z</time>
      </trkpt>
      <trkpt lat="46.97751" lon="16.08222">
        <ele>371.809448</ele>
        <time>2026-07-08T14:10:33.000Z</time>
      </trkpt>
      <trkpt lat="46.9775" lon="16.08214">
        <ele>371.839071</ele>
        <time>2026-07-08T14:10:34.000Z</time>
      </trkpt>
      <trkpt lat="46.97751" lon="16.08206">
        <ele>371.867378</ele>
        <time>2026-07-08T14:10:35.000Z</time>
      </trkpt>
      <trkpt lat="46.97753" lon="16.08199">
        <ele>371.893121</ele>
        <time>2026-07-08T14:10:36.000Z</time>
      </trkpt>
      <trkpt lat="46.97754" lon="16.08192">
        <ele>371.918863</ele>
        <time>2026-07-08T14:10:37.000Z</time>
      </trkpt>
      <trkpt lat="46.97755" lon="16.08185">
        <ele>371.94351</ele>
        <time>2026-07-08T14:10:38.000Z</time>
      </trkpt>
      <trkpt lat="46.97757" lon="16.08179">
        <ele>371.968005</ele>
        <time>2026-07-08T14:10:39.000Z</time>
      </trkpt>
      <trkpt lat="46.97759" lon="16.08173">
        <ele>371.991177</ele>
        <time>2026-07-08T14:10:40.000Z</time>
      </trkpt>
      <trkpt lat="46.9776" lon="16.08167">
        <ele>372.011584</ele>
        <time>2026-07-08T14:10:41.000Z</time>
      </trkpt>
      <trkpt lat="46.97761" lon="16.08162">
        <ele>372.030739</ele>
        <time>2026-07-08T14:10:42.000Z</time>
      </trkpt>
      <trkpt lat="46.97763" lon="16.08158">
        <ele>372.049894</ele>
        <time>2026-07-08T14:10:43.000Z</time>
      </trkpt>
      <trkpt lat="46.97766" lon="16.08154">
        <ele>372.006101</ele>
        <time>2026-07-08T14:10:44.000Z</time>
      </trkpt>
      <trkpt lat="46.97769" lon="16.0815">
        <ele>371.900994</ele>
        <time>2026-07-08T14:10:45.000Z</time>
      </trkpt>
      <trkpt lat="46.97772" lon="16.08146">
        <ele>371.791697</ele>
        <time>2026-07-08T14:10:46.000Z</time>
      </trkpt>
      <trkpt lat="46.97777" lon="16.08143">
        <ele>371.672458</ele>
        <time>2026-07-08T14:10:47.000Z</time>
      </trkpt>
      <trkpt lat="46.97781" lon="16.0814">
        <ele>371.545561</ele>
        <time>2026-07-08T14:10:48.000Z</time>
      </trkpt>
      <trkpt lat="46.97786" lon="16.08137">
        <ele>371.413062</ele>
        <time>2026-07-08T14:10:49.000Z</time>
      </trkpt>
      <trkpt lat="46.97791" lon="16.08135">
        <ele>371.271682</ele>
        <time>2026-07-08T14:10:50.000Z</time>
      </trkpt>
      <trkpt lat="46.97797" lon="16.08131">
        <ele>371.115276</ele>
        <time>2026-07-08T14:10:51.000Z</time>
      </trkpt>
      <trkpt lat="46.97803" lon="16.08127">
        <ele>370.952421</ele>
        <time>2026-07-08T14:10:52.000Z</time>
      </trkpt>
      <trkpt lat="46.97809" lon="16.08124">
        <ele>370.785612</ele>
        <time>2026-07-08T14:10:53.000Z</time>
      </trkpt>
      <trkpt lat="46.97815" lon="16.0812">
        <ele>370.612732</ele>
        <time>2026-07-08T14:10:54.000Z</time>
      </trkpt>
      <trkpt lat="46.97821" lon="16.08116">
        <ele>370.432819</ele>
        <time>2026-07-08T14:10:55.000Z</time>
      </trkpt>
      <trkpt lat="46.97828" lon="16.0811">
        <ele>370.242951</ele>
        <time>2026-07-08T14:10:56.000Z</time>
      </trkpt>
      <trkpt lat="46.97834" lon="16.08103">
        <ele>370.04322</ele>
        <time>2026-07-08T14:10:57.000Z</time>
      </trkpt>
      <trkpt lat="46.97839" lon="16.08094">
        <ele>369.836209</ele>
        <time>2026-07-08T14:10:58.000Z</time>
      </trkpt>
      <trkpt lat="46.97844" lon="16.08083">
        <ele>369.620304</ele>
        <time>2026-07-08T14:10:59.000Z</time>
      </trkpt>
      <trkpt lat="46.97847" lon="16.08072">
        <ele>369.401045</ele>
        <time>2026-07-08T14:11:00.000Z</time>
      </trkpt>
      <trkpt lat="46.97849" lon="16.08059">
        <ele>369.177953</ele>
        <time>2026-07-08T14:11:01.000Z</time>
      </trkpt>
      <trkpt lat="46.97851" lon="16.08047">
        <ele>368.958913</ele>
        <time>2026-07-08T14:11:02.000Z</time>
      </trkpt>
      <trkpt lat="46.97853" lon="16.08034">
        <ele>368.734489</ele>
        <time>2026-07-08T14:11:03.000Z</time>
      </trkpt>
      <trkpt lat="46.97854" lon="16.08022">
        <ele>368.517766</ele>
        <time>2026-07-08T14:11:04.000Z</time>
      </trkpt>
      <trkpt lat="46.97855" lon="16.0801">
        <ele>368.306588</ele>
        <time>2026-07-08T14:11:05.000Z</time>
      </trkpt>
      <trkpt lat="46.97856" lon="16.07998">
        <ele>368.101845</ele>
        <time>2026-07-08T14:11:06.000Z</time>
      </trkpt>
      <trkpt lat="46.97857" lon="16.07987">
        <ele>367.908939</ele>
        <time>2026-07-08T14:11:07.000Z</time>
      </trkpt>
      <trkpt lat="46.97858" lon="16.07976">
        <ele>367.716321</ele>
        <time>2026-07-08T14:11:08.000Z</time>
      </trkpt>
      <trkpt lat="46.97859" lon="16.07965">
        <ele>367.523095</ele>
        <time>2026-07-08T14:11:09.000Z</time>
      </trkpt>
      <trkpt lat="46.97859" lon="16.07954">
        <ele>367.482054</ele>
        <time>2026-07-08T14:11:10.000Z</time>
      </trkpt>
      <trkpt lat="46.9786" lon="16.07943">
        <ele>367.500117</ele>
        <time>2026-07-08T14:11:11.000Z</time>
      </trkpt>
      <trkpt lat="46.9786" lon="16.07932">
        <ele>367.518142</ele>
        <time>2026-07-08T14:11:12.000Z</time>
      </trkpt>
      <trkpt lat="46.9786" lon="16.07921">
        <ele>367.536008</ele>
        <time>2026-07-08T14:11:13.000Z</time>
      </trkpt>
      <trkpt lat="46.9786" lon="16.07911">
        <ele>367.553718</ele>
        <time>2026-07-08T14:11:14.000Z</time>
      </trkpt>
      <trkpt lat="46.97859" lon="16.079">
        <ele>367.570678</ele>
        <time>2026-07-08T14:11:15.000Z</time>
      </trkpt>
      <trkpt lat="46.97858" lon="16.0789">
        <ele>367.587358</ele>
        <time>2026-07-08T14:11:16.000Z</time>
      </trkpt>
      <trkpt lat="46.97856" lon="16.0788">
        <ele>367.604366</ele>
        <time>2026-07-08T14:11:17.000Z</time>
      </trkpt>
      <trkpt lat="46.97854" lon="16.07871">
        <ele>367.62104</ele>
        <time>2026-07-08T14:11:18.000Z</time>
      </trkpt>
      <trkpt lat="46.97851" lon="16.07861">
        <ele>367.637332</ele>
        <time>2026-07-08T14:11:19.000Z</time>
      </trkpt>
      <trkpt lat="46.97849" lon="16.07852">
        <ele>367.65339</ele>
        <time>2026-07-08T14:11:20.000Z</time>
      </trkpt>
      <trkpt lat="46.97845" lon="16.07844">
        <ele>367.66901</ele>
        <time>2026-07-08T14:11:21.000Z</time>
      </trkpt>
      <trkpt lat="46.97842" lon="16.07836">
        <ele>367.684085</ele>
        <time>2026-07-08T14:11:22.000Z</time>
      </trkpt>
      <trkpt lat="46.97839" lon="16.07828">
        <ele>367.699381</ele>
        <time>2026-07-08T14:11:23.000Z</time>
      </trkpt>
      <trkpt lat="46.97835" lon="16.07821">
        <ele>367.714813</ele>
        <time>2026-07-08T14:11:24.000Z</time>
      </trkpt>
      <trkpt lat="46.97831" lon="16.07813">
        <ele>367.729977</ele>
        <time>2026-07-08T14:11:25.000Z</time>
      </trkpt>
      <trkpt lat="46.97828" lon="16.07805">
        <ele>367.745137</ele>
        <time>2026-07-08T14:11:26.000Z</time>
      </trkpt>
      <trkpt lat="46.97824" lon="16.07798">
        <ele>367.760161</ele>
        <time>2026-07-08T14:11:27.000Z</time>
      </trkpt>
      <trkpt lat="46.97821" lon="16.0779">
        <ele>367.774914</ele>
        <time>2026-07-08T14:11:28.000Z</time>
      </trkpt>
      <trkpt lat="46.97817" lon="16.07783">
        <ele>367.789134</ele>
        <time>2026-07-08T14:11:29.000Z</time>
      </trkpt>
      <trkpt lat="46.97814" lon="16.07777">
        <ele>367.802541</ele>
        <time>2026-07-08T14:11:30.000Z</time>
      </trkpt>
      <trkpt lat="46.97811" lon="16.07771">
        <ele>367.815019</ele>
        <time>2026-07-08T14:11:31.000Z</time>
      </trkpt>
      <trkpt lat="46.97808" lon="16.07765">
        <ele>367.826527</ele>
        <time>2026-07-08T14:11:32.000Z</time>
      </trkpt>
      <trkpt lat="46.97805" lon="16.07759">
        <ele>367.837897</ele>
        <time>2026-07-08T14:11:33.000Z</time>
      </trkpt>
      <trkpt lat="46.97803" lon="16.07754">
        <ele>367.84886</ele>
        <time>2026-07-08T14:11:34.000Z</time>
      </trkpt>
      <trkpt lat="46.978" lon="16.07749">
        <ele>367.859738</ele>
        <time>2026-07-08T14:11:35.000Z</time>
      </trkpt>
      <trkpt lat="46.97797" lon="16.07744">
        <ele>367.870211</ele>
        <time>2026-07-08T14:11:36.000Z</time>
      </trkpt>
      <trkpt lat="46.97794" lon="16.0774">
        <ele>367.880636</ele>
        <time>2026-07-08T14:11:37.000Z</time>
      </trkpt>
      <trkpt lat="46.97791" lon="16.07735">
        <ele>367.890376</ele>
        <time>2026-07-08T14:11:38.000Z</time>
      </trkpt>
      <trkpt lat="46.97788" lon="16.07731">
        <ele>367.899997</ele>
        <time>2026-07-08T14:11:39.000Z</time>
      </trkpt>
      <trkpt lat="46.97785" lon="16.07727">
        <ele>367.875621</ele>
        <time>2026-07-08T14:11:40.000Z</time>
      </trkpt>
      <trkpt lat="46.97782" lon="16.07724">
        <ele>367.847398</ele>
        <time>2026-07-08T14:11:41.000Z</time>
      </trkpt>
      <trkpt lat="46.97779" lon="16.07721">
        <ele>367.817986</ele>
        <time>2026-07-08T14:11:42.000Z</time>
      </trkpt>
      <trkpt lat="46.97775" lon="16.07718">
        <ele>367.788118</ele>
        <time>2026-07-08T14:11:43.000Z</time>
      </trkpt>
      <trkpt lat="46.97772" lon="16.07715">
        <ele>367.759591</ele>
        <time>2026-07-08T14:11:44.000Z</time>
      </trkpt>
      <trkpt lat="46.97768" lon="16.07713">
        <ele>367.72927</ele>
        <time>2026-07-08T14:11:45.000Z</time>
      </trkpt>
      <trkpt lat="46.97764" lon="16.0771">
        <ele>367.699802</ele>
        <time>2026-07-08T14:11:46.000Z</time>
      </trkpt>
      <trkpt lat="46.9776" lon="16.07708">
        <ele>367.670681</ele>
        <time>2026-07-08T14:11:47.000Z</time>
      </trkpt>
      <trkpt lat="46.97756" lon="16.07707">
        <ele>367.640902</ele>
        <time>2026-07-08T14:11:48.000Z</time>
      </trkpt>
      <trkpt lat="46.97752" lon="16.07705">
        <ele>367.610997</ele>
        <time>2026-07-08T14:11:49.000Z</time>
      </trkpt>
      <trkpt lat="46.97748" lon="16.07704">
        <ele>367.57957</ele>
        <time>2026-07-08T14:11:50.000Z</time>
      </trkpt>
      <trkpt lat="46.97744" lon="16.07702">
        <ele>367.547448</ele>
        <time>2026-07-08T14:11:51.000Z</time>
      </trkpt>
      <trkpt lat="46.97739" lon="16.077">
        <ele>367.514073</ele>
        <time>2026-07-08T14:11:52.000Z</time>
      </trkpt>
      <trkpt lat="46.97735" lon="16.07698">
        <ele>367.481681</ele>
        <time>2026-07-08T14:11:53.000Z</time>
      </trkpt>
      <trkpt lat="46.9773" lon="16.07696">
        <ele>367.446644</ele>
        <time>2026-07-08T14:11:54.000Z</time>
      </trkpt>
      <trkpt lat="46.97726" lon="16.07694">
        <ele>367.412728</ele>
        <time>2026-07-08T14:11:55.000Z</time>
      </trkpt>
      <trkpt lat="46.97721" lon="16.07692">
        <ele>367.378514</ele>
        <time>2026-07-08T14:11:56.000Z</time>
      </trkpt>
      <trkpt lat="46.97717" lon="16.0769">
        <ele>367.345499</ele>
        <time>2026-07-08T14:11:57.000Z</time>
      </trkpt>
      <trkpt lat="46.97713" lon="16.07687">
        <ele>367.310429</ele>
        <time>2026-07-08T14:11:58.000Z</time>
      </trkpt>
      <trkpt lat="46.97708" lon="16.07684">
        <ele>367.272793</ele>
        <time>2026-07-08T14:11:59.000Z</time>
      </trkpt>
      <trkpt lat="46.97703" lon="16.07681">
        <ele>367.234299</ele>
        <time>2026-07-08T14:12:00.000Z</time>
      </trkpt>
      <trkpt lat="46.97698" lon="16.07677">
        <ele>367.194335</ele>
        <time>2026-07-08T14:12:01.000Z</time>
      </trkpt>
      <trkpt lat="46.97693" lon="16.07674">
        <ele>367.153925</ele>
        <time>2026-07-08T14:12:02.000Z</time>
      </trkpt>
      <trkpt lat="46.97687" lon="16.0767">
        <ele>367.111138</ele>
        <time>2026-07-08T14:12:03.000Z</time>
      </trkpt>
      <trkpt lat="46.97682" lon="16.07666">
        <ele>367.066854</ele>
        <time>2026-07-08T14:12:04.000Z</time>
      </trkpt>
      <trkpt lat="46.97676" lon="16.07662">
        <ele>367.021483</ele>
        <time>2026-07-08T14:12:05.000Z</time>
      </trkpt>
      <trkpt lat="46.9767" lon="16.07657">
        <ele>366.972813</ele>
        <time>2026-07-08T14:12:06.000Z</time>
      </trkpt>
      <trkpt lat="46.97664" lon="16.07652">
        <ele>366.922403</ele>
        <time>2026-07-08T14:12:07.000Z</time>
      </trkpt>
      <trkpt lat="46.97658" lon="16.07647">
        <ele>366.871361</ele>
        <time>2026-07-08T14:12:08.000Z</time>
      </trkpt>
      <trkpt lat="46.97652" lon="16.07641">
        <ele>366.816829</ele>
        <time>2026-07-08T14:12:09.000Z</time>
      </trkpt>
      <trkpt lat="46.97646" lon="16.07635">
        <ele>366.761822</ele>
        <time>2026-07-08T14:12:10.000Z</time>
      </trkpt>
      <trkpt lat="46.97639" lon="16.07628">
        <ele>366.705887</ele>
        <time>2026-07-08T14:12:11.000Z</time>
      </trkpt>
      <trkpt lat="46.97632" lon="16.07622">
        <ele>366.647662</ele>
        <time>2026-07-08T14:12:12.000Z</time>
      </trkpt>
      <trkpt lat="46.97625" lon="16.07615">
        <ele>366.454025</ele>
        <time>2026-07-08T14:12:13.000Z</time>
      </trkpt>
      <trkpt lat="46.97618" lon="16.07608">
        <ele>365.891923</ele>
        <time>2026-07-08T14:12:14.000Z</time>
      </trkpt>
      <trkpt lat="46.97611" lon="16.07602">
        <ele>365.316502</ele>
        <time>2026-07-08T14:12:15.000Z</time>
      </trkpt>
      <trkpt lat="46.97602" lon="16.07595">
        <ele>364.677733</ele>
        <time>2026-07-08T14:12:16.000Z</time>
      </trkpt>
      <trkpt lat="46.97594" lon="16.07588">
        <ele>364.002391</ele>
        <time>2026-07-08T14:12:17.000Z</time>
      </trkpt>
      <trkpt lat="46.97584" lon="16.0758">
        <ele>363.272368</ele>
        <time>2026-07-08T14:12:18.000Z</time>
      </trkpt>
      <trkpt lat="46.97574" lon="16.07572">
        <ele>362.494284</ele>
        <time>2026-07-08T14:12:19.000Z</time>
      </trkpt>
      <trkpt lat="46.97563" lon="16.07564">
        <ele>361.695821</ele>
        <time>2026-07-08T14:12:20.000Z</time>
      </trkpt>
      <trkpt lat="46.97552" lon="16.07555">
        <ele>360.858347</ele>
        <time>2026-07-08T14:12:21.000Z</time>
      </trkpt>
      <trkpt lat="46.97541" lon="16.07547">
        <ele>360.052841</ele>
        <time>2026-07-08T14:12:22.000Z</time>
      </trkpt>
      <trkpt lat="46.97529" lon="16.07539">
        <ele>359.175615</ele>
        <time>2026-07-08T14:12:23.000Z</time>
      </trkpt>
      <trkpt lat="46.97518" lon="16.0753">
        <ele>358.298152</ele>
        <time>2026-07-08T14:12:24.000Z</time>
      </trkpt>
      <trkpt lat="46.97506" lon="16.0752">
        <ele>357.436767</ele>
        <time>2026-07-08T14:12:25.000Z</time>
      </trkpt>
      <trkpt lat="46.97496" lon="16.07511">
        <ele>356.624249</ele>
        <time>2026-07-08T14:12:26.000Z</time>
      </trkpt>
      <trkpt lat="46.97486" lon="16.07502">
        <ele>355.826023</ele>
        <time>2026-07-08T14:12:27.000Z</time>
      </trkpt>
      <trkpt lat="46.97475" lon="16.07493">
        <ele>354.982251</ele>
        <time>2026-07-08T14:12:28.000Z</time>
      </trkpt>
      <trkpt lat="46.97463" lon="16.07485">
        <ele>353.95073</ele>
        <time>2026-07-08T14:12:29.000Z</time>
      </trkpt>
      <trkpt lat="46.9745" lon="16.07477">
        <ele>352.75422</ele>
        <time>2026-07-08T14:12:30.000Z</time>
      </trkpt>
      <trkpt lat="46.97438" lon="16.0747">
        <ele>351.583935</ele>
        <time>2026-07-08T14:12:31.000Z</time>
      </trkpt>
      <trkpt lat="46.97426" lon="16.07463">
        <ele>350.462799</ele>
        <time>2026-07-08T14:12:32.000Z</time>
      </trkpt>
      <trkpt lat="46.97415" lon="16.07456">
        <ele>349.380807</ele>
        <time>2026-07-08T14:12:33.000Z</time>
      </trkpt>
      <trkpt lat="46.97404" lon="16.07448">
        <ele>348.309777</ele>
        <time>2026-07-08T14:12:34.000Z</time>
      </trkpt>
      <trkpt lat="46.97393" lon="16.07439">
        <ele>347.195459</ele>
        <time>2026-07-08T14:12:35.000Z</time>
      </trkpt>
      <trkpt lat="46.97382" lon="16.0743">
        <ele>346.108696</ele>
        <time>2026-07-08T14:12:36.000Z</time>
      </trkpt>
      <trkpt lat="46.97372" lon="16.0742">
        <ele>345.066528</ele>
        <time>2026-07-08T14:12:37.000Z</time>
      </trkpt>
      <trkpt lat="46.97363" lon="16.07411">
        <ele>344.060372</ele>
        <time>2026-07-08T14:12:38.000Z</time>
      </trkpt>
      <trkpt lat="46.97355" lon="16.07401">
        <ele>343.127624</ele>
        <time>2026-07-08T14:12:39.000Z</time>
      </trkpt>
      <trkpt lat="46.97348" lon="16.0739">
        <ele>342.232482</ele>
        <time>2026-07-08T14:12:40.000Z</time>
      </trkpt>
      <trkpt lat="46.97342" lon="16.07378">
        <ele>341.338474</ele>
        <time>2026-07-08T14:12:41.000Z</time>
      </trkpt>
      <trkpt lat="46.97337" lon="16.07365">
        <ele>340.443732</ele>
        <time>2026-07-08T14:12:42.000Z</time>
      </trkpt>
      <trkpt lat="46.97333" lon="16.07351">
        <ele>339.520543</ele>
        <time>2026-07-08T14:12:43.000Z</time>
      </trkpt>
      <trkpt lat="46.97328" lon="16.07337">
        <ele>338.588271</ele>
        <time>2026-07-08T14:12:44.000Z</time>
      </trkpt>
      <trkpt lat="46.97322" lon="16.07324">
        <ele>337.620598</ele>
        <time>2026-07-08T14:12:45.000Z</time>
      </trkpt>
      <trkpt lat="46.97317" lon="16.0731">
        <ele>336.642964</ele>
        <time>2026-07-08T14:12:46.000Z</time>
      </trkpt>
      <trkpt lat="46.9731" lon="16.07297">
        <ele>335.650774</ele>
        <time>2026-07-08T14:12:47.000Z</time>
      </trkpt>
      <trkpt lat="46.97304" lon="16.07284">
        <ele>334.627781</ele>
        <time>2026-07-08T14:12:48.000Z</time>
      </trkpt>
      <trkpt lat="46.97296" lon="16.0727">
        <ele>333.577745</ele>
        <time>2026-07-08T14:12:49.000Z</time>
      </trkpt>
      <trkpt lat="46.97289" lon="16.07256">
        <ele>332.512521</ele>
        <time>2026-07-08T14:12:50.000Z</time>
      </trkpt>
      <trkpt lat="46.97281" lon="16.07244">
        <ele>331.44879</ele>
        <time>2026-07-08T14:12:51.000Z</time>
      </trkpt>
      <trkpt lat="46.97272" lon="16.0723">
        <ele>330.251782</ele>
        <time>2026-07-08T14:12:52.000Z</time>
      </trkpt>
      <trkpt lat="46.97262" lon="16.07217">
        <ele>329.08027</ele>
        <time>2026-07-08T14:12:53.000Z</time>
      </trkpt>
      <trkpt lat="46.97253" lon="16.07204">
        <ele>327.925417</ele>
        <time>2026-07-08T14:12:54.000Z</time>
      </trkpt>
      <trkpt lat="46.97243" lon="16.07191">
        <ele>326.704333</ele>
        <time>2026-07-08T14:12:55.000Z</time>
      </trkpt>
      <trkpt lat="46.97232" lon="16.07177">
        <ele>325.461728</ele>
        <time>2026-07-08T14:12:56.000Z</time>
      </trkpt>
      <trkpt lat="46.97222" lon="16.07163">
        <ele>324.180171</ele>
        <time>2026-07-08T14:12:57.000Z</time>
      </trkpt>
      <trkpt lat="46.97211" lon="16.07149">
        <ele>322.859578</ele>
        <time>2026-07-08T14:12:58.000Z</time>
      </trkpt>
      <trkpt lat="46.972" lon="16.07134">
        <ele>321.163654</ele>
        <time>2026-07-08T14:12:59.000Z</time>
      </trkpt>
      <trkpt lat="46.9719" lon="16.0712">
        <ele>319.394714</ele>
        <time>2026-07-08T14:13:00.000Z</time>
      </trkpt>
      <trkpt lat="46.97179" lon="16.07106">
        <ele>317.608996</ele>
        <time>2026-07-08T14:13:01.000Z</time>
      </trkpt>
      <trkpt lat="46.97169" lon="16.07093">
        <ele>315.994556</ele>
        <time>2026-07-08T14:13:02.000Z</time>
      </trkpt>
      <trkpt lat="46.9716" lon="16.07079">
        <ele>314.388626</ele>
        <time>2026-07-08T14:13:03.000Z</time>
      </trkpt>
      <trkpt lat="46.97152" lon="16.07066">
        <ele>312.888476</ele>
        <time>2026-07-08T14:13:04.000Z</time>
      </trkpt>
      <trkpt lat="46.97146" lon="16.07052">
        <ele>311.553548</ele>
        <time>2026-07-08T14:13:05.000Z</time>
      </trkpt>
      <trkpt lat="46.97142" lon="16.07039">
        <ele>310.315034</ele>
        <time>2026-07-08T14:13:06.000Z</time>
      </trkpt>
      <trkpt lat="46.97139" lon="16.07027">
        <ele>309.210672</ele>
        <time>2026-07-08T14:13:07.000Z</time>
      </trkpt>
      <trkpt lat="46.97136" lon="16.07016">
        <ele>308.227572</ele>
        <time>2026-07-08T14:13:08.000Z</time>
      </trkpt>
      <trkpt lat="46.97133" lon="16.07006">
        <ele>307.318588</ele>
        <time>2026-07-08T14:13:09.000Z</time>
      </trkpt>
      <trkpt lat="46.9713" lon="16.06997">
        <ele>306.442802</ele>
        <time>2026-07-08T14:13:10.000Z</time>
      </trkpt>
      <trkpt lat="46.97128" lon="16.06989">
        <ele>305.721497</ele>
        <time>2026-07-08T14:13:11.000Z</time>
      </trkpt>
      <trkpt lat="46.97126" lon="16.06981">
        <ele>305.056454</ele>
        <time>2026-07-08T14:13:12.000Z</time>
      </trkpt>
      <trkpt lat="46.97124" lon="16.06974">
        <ele>304.402286</ele>
        <time>2026-07-08T14:13:13.000Z</time>
      </trkpt>
      <trkpt lat="46.97122" lon="16.06966">
        <ele>303.715307</ele>
        <time>2026-07-08T14:13:14.000Z</time>
      </trkpt>
      <trkpt lat="46.97121" lon="16.06959">
        <ele>303.05477</ele>
        <time>2026-07-08T14:13:15.000Z</time>
      </trkpt>
      <trkpt lat="46.97122" lon="16.06951">
        <ele>302.439352</ele>
        <time>2026-07-08T14:13:16.000Z</time>
      </trkpt>
      <trkpt lat="46.97122" lon="16.06945">
        <ele>301.868968</ele>
        <time>2026-07-08T14:13:18.000Z</time>
      </trkpt>
      <trkpt lat="46.97124" lon="16.06939">
        <ele>301.355235</ele>
        <time>2026-07-08T14:13:19.000Z</time>
      </trkpt>
      <trkpt lat="46.97125" lon="16.06933">
        <ele>300.841138</ele>
        <time>2026-07-08T14:13:20.000Z</time>
      </trkpt>
      <trkpt lat="46.97126" lon="16.06927">
        <ele>300.439812</ele>
        <time>2026-07-08T14:13:21.000Z</time>
      </trkpt>
      <trkpt lat="46.97128" lon="16.06922">
        <ele>300.375565</ele>
        <time>2026-07-08T14:13:22.000Z</time>
      </trkpt>
      <trkpt lat="46.97129" lon="16.06916">
        <ele>300.310273</ele>
        <time>2026-07-08T14:13:23.000Z</time>
      </trkpt>
      <trkpt lat="46.97131" lon="16.06911">
        <ele>300.243627</ele>
        <time>2026-07-08T14:13:24.000Z</time>
      </trkpt>
      <trkpt lat="46.97133" lon="16.06905">
        <ele>300.170911</ele>
        <time>2026-07-08T14:13:25.000Z</time>
      </trkpt>
      <trkpt lat="46.97134" lon="16.06899">
        <ele>300.097554</ele>
        <time>2026-07-08T14:13:26.000Z</time>
      </trkpt>
      <trkpt lat="46.97136" lon="16.06893">
        <ele>300.023801</ele>
        <time>2026-07-08T14:13:27.000Z</time>
      </trkpt>
      <trkpt lat="46.97138" lon="16.06886">
        <ele>299.946666</ele>
        <time>2026-07-08T14:13:28.000Z</time>
      </trkpt>
      <trkpt lat="46.9714" lon="16.0688">
        <ele>299.867963</ele>
        <time>2026-07-08T14:13:29.000Z</time>
      </trkpt>
      <trkpt lat="46.97142" lon="16.06873">
        <ele>299.78951</ele>
        <time>2026-07-08T14:13:30.000Z</time>
      </trkpt>
      <trkpt lat="46.97144" lon="16.06866">
        <ele>299.707973</ele>
        <time>2026-07-08T14:13:31.000Z</time>
      </trkpt>
      <trkpt lat="46.97145" lon="16.06859">
        <ele>299.627458</ele>
        <time>2026-07-08T14:13:32.000Z</time>
      </trkpt>
      <trkpt lat="46.97146" lon="16.06852">
        <ele>299.54817</ele>
        <time>2026-07-08T14:13:33.000Z</time>
      </trkpt>
      <trkpt lat="46.97148" lon="16.06846">
        <ele>299.469103</ele>
        <time>2026-07-08T14:13:34.000Z</time>
      </trkpt>
      <trkpt lat="46.9715" lon="16.06839">
        <ele>299.389721</ele>
        <time>2026-07-08T14:13:35.000Z</time>
      </trkpt>
      <trkpt lat="46.97153" lon="16.06833">
        <ele>299.310622</ele>
        <time>2026-07-08T14:13:36.000Z</time>
      </trkpt>
      <trkpt lat="46.97155" lon="16.06827">
        <ele>299.233926</ele>
        <time>2026-07-08T14:13:37.000Z</time>
      </trkpt>
      <trkpt lat="46.97157" lon="16.0682">
        <ele>299.156032</ele>
        <time>2026-07-08T14:13:38.000Z</time>
      </trkpt>
      <trkpt lat="46.97159" lon="16.06814">
        <ele>299.077917</ele>
        <time>2026-07-08T14:13:39.000Z</time>
      </trkpt>
      <trkpt lat="46.97161" lon="16.06808">
        <ele>298.99783</ele>
        <time>2026-07-08T14:13:40.000Z</time>
      </trkpt>
      <trkpt lat="46.97163" lon="16.06801">
        <ele>298.916448</ele>
        <time>2026-07-08T14:13:41.000Z</time>
      </trkpt>
      <trkpt lat="46.97166" lon="16.06794">
        <ele>298.831945</ele>
        <time>2026-07-08T14:13:42.000Z</time>
      </trkpt>
      <trkpt lat="46.97168" lon="16.06787">
        <ele>298.748173</ele>
        <time>2026-07-08T14:13:43.000Z</time>
      </trkpt>
      <trkpt lat="46.9717" lon="16.0678">
        <ele>298.662418</ele>
        <time>2026-07-08T14:13:44.000Z</time>
      </trkpt>
      <trkpt lat="46.97173" lon="16.06773">
        <ele>298.573248</ele>
        <time>2026-07-08T14:13:45.000Z</time>
      </trkpt>
      <trkpt lat="46.97175" lon="16.06766">
        <ele>298.486041</ele>
        <time>2026-07-08T14:13:46.000Z</time>
      </trkpt>
      <trkpt lat="46.97178" lon="16.06759">
        <ele>298.397286</ele>
        <time>2026-07-08T14:13:47.000Z</time>
      </trkpt>
      <trkpt lat="46.97181" lon="16.06752">
        <ele>298.312028</ele>
        <time>2026-07-08T14:13:48.000Z</time>
      </trkpt>
      <trkpt lat="46.97183" lon="16.06745">
        <ele>298.222859</ele>
        <time>2026-07-08T14:13:49.000Z</time>
      </trkpt>
      <trkpt lat="46.97186" lon="16.06738">
        <ele>298.132177</ele>
        <time>2026-07-08T14:13:50.000Z</time>
      </trkpt>
      <trkpt lat="46.97188" lon="16.06731">
        <ele>298.04399</ele>
        <time>2026-07-08T14:13:51.000Z</time>
      </trkpt>
      <trkpt lat="46.97191" lon="16.06724">
        <ele>297.954821</ele>
        <time>2026-07-08T14:13:52.000Z</time>
      </trkpt>
      <trkpt lat="46.97193" lon="16.06716">
        <ele>297.865651</ele>
        <time>2026-07-08T14:13:53.000Z</time>
      </trkpt>
      <trkpt lat="46.97196" lon="16.06709">
        <ele>297.776711</ele>
        <time>2026-07-08T14:13:54.000Z</time>
      </trkpt>
      <trkpt lat="46.97199" lon="16.06702">
        <ele>297.687957</ele>
        <time>2026-07-08T14:13:55.000Z</time>
      </trkpt>
      <trkpt lat="46.97201" lon="16.06695">
        <ele>297.596485</ele>
        <time>2026-07-08T14:13:56.000Z</time>
      </trkpt>
      <trkpt lat="46.97204" lon="16.06688">
        <ele>297.551897</ele>
        <time>2026-07-08T14:13:57.000Z</time>
      </trkpt>
      <trkpt lat="46.97206" lon="16.06681">
        <ele>297.567171</ele>
        <time>2026-07-08T14:13:58.000Z</time>
      </trkpt>
      <trkpt lat="46.97209" lon="16.06673">
        <ele>297.581825</ele>
        <time>2026-07-08T14:13:59.000Z</time>
      </trkpt>
      <trkpt lat="46.97211" lon="16.06666">
        <ele>297.596502</ele>
        <time>2026-07-08T14:14:00.000Z</time>
      </trkpt>
      <trkpt lat="46.97214" lon="16.0666">
        <ele>297.610524</ele>
        <time>2026-07-08T14:14:01.000Z</time>
      </trkpt>
      <trkpt lat="46.97216" lon="16.06653">
        <ele>297.624789</ele>
        <time>2026-07-08T14:14:02.000Z</time>
      </trkpt>
      <trkpt lat="46.97218" lon="16.06646">
        <ele>297.639137</ele>
        <time>2026-07-08T14:14:03.000Z</time>
      </trkpt>
      <trkpt lat="46.97221" lon="16.06639">
        <ele>297.65369</ele>
        <time>2026-07-08T14:14:04.000Z</time>
      </trkpt>
      <trkpt lat="46.97223" lon="16.06632">
        <ele>297.668406</ele>
        <time>2026-07-08T14:14:05.000Z</time>
      </trkpt>
      <trkpt lat="46.97225" lon="16.06625">
        <ele>297.683412</ele>
        <time>2026-07-08T14:14:06.000Z</time>
      </trkpt>
      <trkpt lat="46.97228" lon="16.06618">
        <ele>297.698089</ele>
        <time>2026-07-08T14:14:07.000Z</time>
      </trkpt>
      <trkpt lat="46.9723" lon="16.0661">
        <ele>297.713261</ele>
        <time>2026-07-08T14:14:08.000Z</time>
      </trkpt>
      <trkpt lat="46.97233" lon="16.06603">
        <ele>297.7286</ele>
        <time>2026-07-08T14:14:09.000Z</time>
      </trkpt>
      <trkpt lat="46.97235" lon="16.06596">
        <ele>297.743652</ele>
        <time>2026-07-08T14:14:10.000Z</time>
      </trkpt>
      <trkpt lat="46.97238" lon="16.06588">
        <ele>297.758588</ele>
        <time>2026-07-08T14:14:11.000Z</time>
      </trkpt>
      <trkpt lat="46.9724" lon="16.06581">
        <ele>297.773693</ele>
        <time>2026-07-08T14:14:12.000Z</time>
      </trkpt>
      <trkpt lat="46.97242" lon="16.06574">
        <ele>297.788865</ele>
        <time>2026-07-08T14:14:13.000Z</time>
      </trkpt>
      <trkpt lat="46.97245" lon="16.06566">
        <ele>297.80375</ele>
        <time>2026-07-08T14:14:14.000Z</time>
      </trkpt>
      <trkpt lat="46.97247" lon="16.06559">
        <ele>297.818686</ele>
        <time>2026-07-08T14:14:15.000Z</time>
      </trkpt>
      <trkpt lat="46.97249" lon="16.06552">
        <ele>297.833622</ele>
        <time>2026-07-08T14:14:16.000Z</time>
      </trkpt>
      <trkpt lat="46.97252" lon="16.06544">
        <ele>297.848842</ele>
        <time>2026-07-08T14:14:17.000Z</time>
      </trkpt>
      <trkpt lat="46.97254" lon="16.06537">
        <ele>297.863442</ele>
        <time>2026-07-08T14:14:18.000Z</time>
      </trkpt>
      <trkpt lat="46.97256" lon="16.0653">
        <ele>297.878546</ele>
        <time>2026-07-08T14:14:19.000Z</time>
      </trkpt>
      <trkpt lat="46.97259" lon="16.06523">
        <ele>297.89337</ele>
        <time>2026-07-08T14:14:20.000Z</time>
      </trkpt>
      <trkpt lat="46.97261" lon="16.06515">
        <ele>297.908194</ele>
        <time>2026-07-08T14:14:21.000Z</time>
      </trkpt>
      <trkpt lat="46.97263" lon="16.06508">
        <ele>297.923082</ele>
        <time>2026-07-08T14:14:22.000Z</time>
      </trkpt>
      <trkpt lat="46.97265" lon="16.06501">
        <ele>297.938134</ele>
        <time>2026-07-08T14:14:23.000Z</time>
      </trkpt>
      <trkpt lat="46.97267" lon="16.06493">
        <ele>297.952679</ele>
        <time>2026-07-08T14:14:24.000Z</time>
      </trkpt>
      <trkpt lat="46.9727" lon="16.06486">
        <ele>297.967231</ele>
        <time>2026-07-08T14:14:25.000Z</time>
      </trkpt>
      <trkpt lat="46.97272" lon="16.06479">
        <ele>297.981663</ele>
        <time>2026-07-08T14:14:26.000Z</time>
      </trkpt>
      <trkpt lat="46.97274" lon="16.06473">
        <ele>297.995077</ele>
        <time>2026-07-08T14:14:27.000Z</time>
      </trkpt>
      <trkpt lat="46.97276" lon="16.06466">
        <ele>298.008555</ele>
        <time>2026-07-08T14:14:28.000Z</time>
      </trkpt>
      <trkpt lat="46.97278" lon="16.0646">
        <ele>298.021914</ele>
        <time>2026-07-08T14:14:29.000Z</time>
      </trkpt>
      <trkpt lat="46.9728" lon="16.06453">
        <ele>298.035609</ele>
        <time>2026-07-08T14:14:30.000Z</time>
      </trkpt>
      <trkpt lat="46.97283" lon="16.06446">
        <ele>298.054237</ele>
        <time>2026-07-08T14:14:31.000Z</time>
      </trkpt>
      <trkpt lat="46.97285" lon="16.0644">
        <ele>298.072788</ele>
        <time>2026-07-08T14:14:32.000Z</time>
      </trkpt>
      <trkpt lat="46.97287" lon="16.06433">
        <ele>298.091642</ele>
        <time>2026-07-08T14:14:33.000Z</time>
      </trkpt>
      <trkpt lat="46.97289" lon="16.06426">
        <ele>298.110569</ele>
        <time>2026-07-08T14:14:34.000Z</time>
      </trkpt>
      <trkpt lat="46.97291" lon="16.06419">
        <ele>298.129423</ele>
        <time>2026-07-08T14:14:35.000Z</time>
      </trkpt>
      <trkpt lat="46.97293" lon="16.06412">
        <ele>298.148277</ele>
        <time>2026-07-08T14:14:36.000Z</time>
      </trkpt>
      <trkpt lat="46.97295" lon="16.06405">
        <ele>298.167433</ele>
        <time>2026-07-08T14:14:37.000Z</time>
      </trkpt>
      <trkpt lat="46.97298" lon="16.06398">
        <ele>298.186514</ele>
        <time>2026-07-08T14:14:38.000Z</time>
      </trkpt>
      <trkpt lat="46.973" lon="16.06391">
        <ele>298.205821</ele>
        <time>2026-07-08T14:14:39.000Z</time>
      </trkpt>
      <trkpt lat="46.97302" lon="16.06384">
        <ele>298.225285</ele>
        <time>2026-07-08T14:14:40.000Z</time>
      </trkpt>
      <trkpt lat="46.97305" lon="16.06378">
        <ele>298.244636</ele>
        <time>2026-07-08T14:14:41.000Z</time>
      </trkpt>
      <trkpt lat="46.97307" lon="16.06371">
        <ele>298.26443</ele>
        <time>2026-07-08T14:14:42.000Z</time>
      </trkpt>
      <trkpt lat="46.97309" lon="16.06364">
        <ele>298.283894</ele>
        <time>2026-07-08T14:14:43.000Z</time>
      </trkpt>
      <trkpt lat="46.97312" lon="16.06357">
        <ele>298.303201</ele>
        <time>2026-07-08T14:14:44.000Z</time>
      </trkpt>
      <trkpt lat="46.97314" lon="16.0635">
        <ele>298.322215</ele>
        <time>2026-07-08T14:14:45.000Z</time>
      </trkpt>
      <trkpt lat="46.97316" lon="16.06343">
        <ele>298.341172</ele>
        <time>2026-07-08T14:14:46.000Z</time>
      </trkpt>
      <trkpt lat="46.97319" lon="16.06337">
        <ele>298.35943</ele>
        <time>2026-07-08T14:14:47.000Z</time>
      </trkpt>
      <trkpt lat="46.97322" lon="16.06331">
        <ele>298.378057</ele>
        <time>2026-07-08T14:14:48.000Z</time>
      </trkpt>
      <trkpt lat="46.97325" lon="16.06325">
        <ele>298.397135</ele>
        <time>2026-07-08T14:14:49.000Z</time>
      </trkpt>
      <trkpt lat="46.97328" lon="16.06319">
        <ele>298.416442</ele>
        <time>2026-07-08T14:14:50.000Z</time>
      </trkpt>
      <trkpt lat="46.97332" lon="16.06313">
        <ele>298.435791</ele>
        <time>2026-07-08T14:14:51.000Z</time>
      </trkpt>
      <trkpt lat="46.97336" lon="16.06308">
        <ele>298.455422</ele>
        <time>2026-07-08T14:14:52.000Z</time>
      </trkpt>
      <trkpt lat="46.9734" lon="16.06303">
        <ele>298.473936</ele>
        <time>2026-07-08T14:14:53.000Z</time>
      </trkpt>
      <trkpt lat="46.97344" lon="16.06299">
        <ele>298.492636</ele>
        <time>2026-07-08T14:14:54.000Z</time>
      </trkpt>
      <trkpt lat="46.97348" lon="16.06296">
        <ele>298.510758</ele>
        <time>2026-07-08T14:14:55.000Z</time>
      </trkpt>
      <trkpt lat="46.97352" lon="16.06292">
        <ele>298.528179</ele>
        <time>2026-07-08T14:14:56.000Z</time>
      </trkpt>
      <trkpt lat="46.97357" lon="16.06289">
        <ele>298.546326</ele>
        <time>2026-07-08T14:14:57.000Z</time>
      </trkpt>
      <trkpt lat="46.97361" lon="16.06286">
        <ele>298.56469</ele>
        <time>2026-07-08T14:14:58.000Z</time>
      </trkpt>
      <trkpt lat="46.97366" lon="16.06282">
        <ele>298.583494</ele>
        <time>2026-07-08T14:14:59.000Z</time>
      </trkpt>
      <trkpt lat="46.9737" lon="16.06279">
        <ele>298.602082</ele>
        <time>2026-07-08T14:15:00.000Z</time>
      </trkpt>
      <trkpt lat="46.97375" lon="16.06275">
        <ele>298.620787</ele>
        <time>2026-07-08T14:15:01.000Z</time>
      </trkpt>
      <trkpt lat="46.9738" lon="16.06272">
        <ele>298.640143</ele>
        <time>2026-07-08T14:15:02.000Z</time>
      </trkpt>
      <trkpt lat="46.97384" lon="16.06269">
        <ele>298.659402</ele>
        <time>2026-07-08T14:15:03.000Z</time>
      </trkpt>
      <trkpt lat="46.97389" lon="16.06265">
        <ele>298.678646</ele>
        <time>2026-07-08T14:15:04.000Z</time>
      </trkpt>
      <trkpt lat="46.97394" lon="16.06262">
        <ele>298.698495</ele>
        <time>2026-07-08T14:15:05.000Z</time>
      </trkpt>
      <trkpt lat="46.97398" lon="16.06259">
        <ele>298.723355</ele>
        <time>2026-07-08T14:15:06.000Z</time>
      </trkpt>
      <trkpt lat="46.97403" lon="16.06255">
        <ele>298.748083</ele>
        <time>2026-07-08T14:15:07.000Z</time>
      </trkpt>
      <trkpt lat="46.97408" lon="16.06252">
        <ele>298.773673</ele>
        <time>2026-07-08T14:15:08.000Z</time>
      </trkpt>
      <trkpt lat="46.97412" lon="16.06248">
        <ele>298.797876</ele>
        <time>2026-07-08T14:15:09.000Z</time>
      </trkpt>
      <trkpt lat="46.97416" lon="16.06244">
        <ele>298.822556</ele>
        <time>2026-07-08T14:15:10.000Z</time>
      </trkpt>
      <trkpt lat="46.9742" lon="16.06239">
        <ele>298.847033</ele>
        <time>2026-07-08T14:15:11.000Z</time>
      </trkpt>
      <trkpt lat="46.97424" lon="16.06235">
        <ele>298.870584</ele>
        <time>2026-07-08T14:15:12.000Z</time>
      </trkpt>
      <trkpt lat="46.97427" lon="16.0623">
        <ele>298.894658</ele>
        <time>2026-07-08T14:15:13.000Z</time>
      </trkpt>
      <trkpt lat="46.97431" lon="16.06225">
        <ele>298.919541</ele>
        <time>2026-07-08T14:15:14.000Z</time>
      </trkpt>
      <trkpt lat="46.97435" lon="16.06219">
        <ele>298.945465</ele>
        <time>2026-07-08T14:15:15.000Z</time>
      </trkpt>
      <trkpt lat="46.97439" lon="16.06214">
        <ele>298.971736</ele>
        <time>2026-07-08T14:15:16.000Z</time>
      </trkpt>
      <trkpt lat="46.97442" lon="16.06208">
        <ele>298.997133</ele>
        <time>2026-07-08T14:15:17.000Z</time>
      </trkpt>
      <trkpt lat="46.97446" lon="16.06202">
        <ele>299.022145</ele>
        <time>2026-07-08T14:15:18.000Z</time>
      </trkpt>
      <trkpt lat="46.97449" lon="16.06196">
        <ele>299.046848</ele>
        <time>2026-07-08T14:15:19.000Z</time>
      </trkpt>
      <trkpt lat="46.97452" lon="16.06191">
        <ele>299.07099</ele>
        <time>2026-07-08T14:15:20.000Z</time>
      </trkpt>
      <trkpt lat="46.97455" lon="16.06185">
        <ele>299.096315</ele>
        <time>2026-07-08T14:15:21.000Z</time>
      </trkpt>
      <trkpt lat="46.97458" lon="16.06179">
        <ele>299.120456</ele>
        <time>2026-07-08T14:15:22.000Z</time>
      </trkpt>
      <trkpt lat="46.97462" lon="16.06173">
        <ele>299.14516</ele>
        <time>2026-07-08T14:15:23.000Z</time>
      </trkpt>
      <trkpt lat="46.97465" lon="16.06168">
        <ele>299.169918</ele>
        <time>2026-07-08T14:15:24.000Z</time>
      </trkpt>
      <trkpt lat="46.97468" lon="16.06162">
        <ele>299.194365</ele>
        <time>2026-07-08T14:15:25.000Z</time>
      </trkpt>
      <trkpt lat="46.97471" lon="16.06156">
        <ele>299.219376</ele>
        <time>2026-07-08T14:15:26.000Z</time>
      </trkpt>
      <trkpt lat="46.97475" lon="16.0615">
        <ele>299.244701</ele>
        <time>2026-07-08T14:15:27.000Z</time>
      </trkpt>
      <trkpt lat="46.97478" lon="16.06145">
        <ele>299.269459</ele>
        <time>2026-07-08T14:15:28.000Z</time>
      </trkpt>
      <trkpt lat="46.97482" lon="16.06139">
        <ele>299.29504</ele>
        <time>2026-07-08T14:15:29.000Z</time>
      </trkpt>
      <trkpt lat="46.97485" lon="16.06134">
        <ele>299.320282</ele>
        <time>2026-07-08T14:15:30.000Z</time>
      </trkpt>
      <trkpt lat="46.97489" lon="16.06128">
        <ele>299.345874</ele>
        <time>2026-07-08T14:15:31.000Z</time>
      </trkpt>
      <trkpt lat="46.97493" lon="16.06123">
        <ele>299.370885</ele>
        <time>2026-07-08T14:15:32.000Z</time>
      </trkpt>
      <trkpt lat="46.97497" lon="16.06118">
        <ele>299.395673</ele>
        <time>2026-07-08T14:15:33.000Z</time>
      </trkpt>
      <trkpt lat="46.97501" lon="16.06113">
        <ele>299.421191</ele>
        <time>2026-07-08T14:15:34.000Z</time>
      </trkpt>
      <trkpt lat="46.97505" lon="16.06109">
        <ele>299.4457</ele>
        <time>2026-07-08T14:15:35.000Z</time>
      </trkpt>
      <trkpt lat="46.97509" lon="16.06104">
        <ele>299.470585</ele>
        <time>2026-07-08T14:15:36.000Z</time>
      </trkpt>
      <trkpt lat="46.97513" lon="16.06099">
        <ele>299.494508</ele>
        <time>2026-07-08T14:15:37.000Z</time>
      </trkpt>
      <trkpt lat="46.97517" lon="16.06095">
        <ele>299.519393</ele>
        <time>2026-07-08T14:15:38.000Z</time>
      </trkpt>
      <trkpt lat="46.97521" lon="16.0609">
        <ele>299.54387</ele>
        <time>2026-07-08T14:15:39.000Z</time>
      </trkpt>
      <trkpt lat="46.97524" lon="16.06085">
        <ele>299.56822</ele>
        <time>2026-07-08T14:15:40.000Z</time>
      </trkpt>
      <trkpt lat="46.97528" lon="16.06081">
        <ele>299.591504</ele>
        <time>2026-07-08T14:15:41.000Z</time>
      </trkpt>
      <trkpt lat="46.97532" lon="16.06076">
        <ele>299.614414</ele>
        <time>2026-07-08T14:15:42.000Z</time>
      </trkpt>
      <trkpt lat="46.97536" lon="16.06071">
        <ele>299.637122</ele>
        <time>2026-07-08T14:15:43.000Z</time>
      </trkpt>
      <trkpt lat="46.9754" lon="16.06067">
        <ele>299.659275</ele>
        <time>2026-07-08T14:15:44.000Z</time>
      </trkpt>
      <trkpt lat="46.97543" lon="16.06062">
        <ele>299.681785</ele>
        <time>2026-07-08T14:15:45.000Z</time>
      </trkpt>
      <trkpt lat="46.97547" lon="16.06058">
        <ele>299.704457</ele>
        <time>2026-07-08T14:15:46.000Z</time>
      </trkpt>
      <trkpt lat="46.97551" lon="16.06054">
        <ele>299.727313</ele>
        <time>2026-07-08T14:15:47.000Z</time>
      </trkpt>
      <trkpt lat="46.97555" lon="16.0605">
        <ele>299.749611</ele>
        <time>2026-07-08T14:15:48.000Z</time>
      </trkpt>
      <trkpt lat="46.97559" lon="16.06045">
        <ele>299.77154</ele>
        <time>2026-07-08T14:15:49.000Z</time>
      </trkpt>
      <trkpt lat="46.97563" lon="16.06041">
        <ele>299.793097</ele>
        <time>2026-07-08T14:15:50.000Z</time>
      </trkpt>
      <trkpt lat="46.97567" lon="16.06037">
        <ele>299.815029</ele>
        <time>2026-07-08T14:15:51.000Z</time>
      </trkpt>
      <trkpt lat="46.97571" lon="16.06033">
        <ele>299.83734</ele>
        <time>2026-07-08T14:15:52.000Z</time>
      </trkpt>
      <trkpt lat="46.97575" lon="16.06029">
        <ele>299.860976</ele>
        <time>2026-07-08T14:15:53.000Z</time>
      </trkpt>
      <trkpt lat="46.97579" lon="16.06025">
        <ele>299.883287</ele>
        <time>2026-07-08T14:15:54.000Z</time>
      </trkpt>
      <trkpt lat="46.97583" lon="16.06021">
        <ele>299.906366</ele>
        <time>2026-07-08T14:15:55.000Z</time>
      </trkpt>
      <trkpt lat="46.97587" lon="16.06017">
        <ele>299.929059</ele>
        <time>2026-07-08T14:15:56.000Z</time>
      </trkpt>
      <trkpt lat="46.97592" lon="16.06013">
        <ele>299.952137</ele>
        <time>2026-07-08T14:15:57.000Z</time>
      </trkpt>
      <trkpt lat="46.97596" lon="16.06009">
        <ele>299.975046</ele>
        <time>2026-07-08T14:15:58.000Z</time>
      </trkpt>
      <trkpt lat="46.976" lon="16.06006">
        <ele>299.998667</ele>
        <time>2026-07-08T14:15:59.000Z</time>
      </trkpt>
      <trkpt lat="46.97605" lon="16.06002">
        <ele>300.021994</ele>
        <time>2026-07-08T14:16:00.000Z</time>
      </trkpt>
      <trkpt lat="46.97609" lon="16.06">
        <ele>300.04428</ele>
        <time>2026-07-08T14:16:01.000Z</time>
      </trkpt>
      <trkpt lat="46.97614" lon="16.05997">
        <ele>300.066684</ele>
        <time>2026-07-08T14:16:02.000Z</time>
      </trkpt>
      <trkpt lat="46.97618" lon="16.05994">
        <ele>300.088238</ele>
        <time>2026-07-08T14:16:03.000Z</time>
      </trkpt>
      <trkpt lat="46.97622" lon="16.05992">
        <ele>300.109497</ele>
        <time>2026-07-08T14:16:04.000Z</time>
      </trkpt>
      <trkpt lat="46.97627" lon="16.05988">
        <ele>300.131717</ele>
        <time>2026-07-08T14:16:05.000Z</time>
      </trkpt>
      <trkpt lat="46.97631" lon="16.05985">
        <ele>300.154081</ele>
        <time>2026-07-08T14:16:06.000Z</time>
      </trkpt>
      <trkpt lat="46.97635" lon="16.05981">
        <ele>300.176823</ele>
        <time>2026-07-08T14:16:07.000Z</time>
      </trkpt>
      <trkpt lat="46.97639" lon="16.05977">
        <ele>300.198958</ele>
        <time>2026-07-08T14:16:08.000Z</time>
      </trkpt>
      <trkpt lat="46.97643" lon="16.05973">
        <ele>300.220515</ele>
        <time>2026-07-08T14:16:09.000Z</time>
      </trkpt>
      <trkpt lat="46.97647" lon="16.0597">
        <ele>300.242477</ele>
        <time>2026-07-08T14:16:10.000Z</time>
      </trkpt>
      <trkpt lat="46.97651" lon="16.05966">
        <ele>300.263883</ele>
        <time>2026-07-08T14:16:11.000Z</time>
      </trkpt>
      <trkpt lat="46.97655" lon="16.05962">
        <ele>300.285347</ele>
        <time>2026-07-08T14:16:12.000Z</time>
      </trkpt>
      <trkpt lat="46.97659" lon="16.0596">
        <ele>300.305771</ele>
        <time>2026-07-08T14:16:13.000Z</time>
      </trkpt>
      <trkpt lat="46.97663" lon="16.05957">
        <ele>300.325999</ele>
        <time>2026-07-08T14:16:14.000Z</time>
      </trkpt>
      <trkpt lat="46.97666" lon="16.05955">
        <ele>300.343386</ele>
        <time>2026-07-08T14:16:15.000Z</time>
      </trkpt>
      <trkpt lat="46.9767" lon="16.05952">
        <ele>300.361278</ele>
        <time>2026-07-08T14:16:16.000Z</time>
      </trkpt>
      <trkpt lat="46.97673" lon="16.05949">
        <ele>300.378541</ele>
        <time>2026-07-08T14:16:17.000Z</time>
      </trkpt>
      <trkpt lat="46.97676" lon="16.05947">
        <ele>300.396067</ele>
        <time>2026-07-08T14:16:18.000Z</time>
      </trkpt>
      <trkpt lat="46.9768" lon="16.05944">
        <ele>300.411392</ele>
        <time>2026-07-08T14:16:19.000Z</time>
      </trkpt>
      <trkpt lat="46.97683" lon="16.05941">
        <ele>300.42696</ele>
        <time>2026-07-08T14:16:20.000Z</time>
      </trkpt>
      <trkpt lat="46.97687" lon="16.05939">
        <ele>300.44322</ele>
        <time>2026-07-08T14:16:21.000Z</time>
      </trkpt>
      <trkpt lat="46.97691" lon="16.05936">
        <ele>300.458437</ele>
        <time>2026-07-08T14:16:22.000Z</time>
      </trkpt>
      <trkpt lat="46.97695" lon="16.05934">
        <ele>300.474226</ele>
        <time>2026-07-08T14:16:23.000Z</time>
      </trkpt>
      <trkpt lat="46.97698" lon="16.0593">
        <ele>300.490637</ele>
        <time>2026-07-08T14:16:24.000Z</time>
      </trkpt>
      <trkpt lat="46.97702" lon="16.05927">
        <ele>300.506856</ele>
        <time>2026-07-08T14:16:25.000Z</time>
      </trkpt>
      <trkpt lat="46.97706" lon="16.05924">
        <ele>300.52393</ele>
        <time>2026-07-08T14:16:26.000Z</time>
      </trkpt>
      <trkpt lat="46.97709" lon="16.05921">
        <ele>300.539879</ele>
        <time>2026-07-08T14:16:27.000Z</time>
      </trkpt>
      <trkpt lat="46.97713" lon="16.05917">
        <ele>300.557347</ele>
        <time>2026-07-08T14:16:28.000Z</time>
      </trkpt>
      <trkpt lat="46.97717" lon="16.05914">
        <ele>300.573849</ele>
        <time>2026-07-08T14:16:29.000Z</time>
      </trkpt>
      <trkpt lat="46.97721" lon="16.0591">
        <ele>300.591258</ele>
        <time>2026-07-08T14:16:30.000Z</time>
      </trkpt>
      <trkpt lat="46.97724" lon="16.05906">
        <ele>300.608517</ele>
        <time>2026-07-08T14:16:31.000Z</time>
      </trkpt>
      <trkpt lat="46.97728" lon="16.05902">
        <ele>300.625312</ele>
        <time>2026-07-08T14:16:32.000Z</time>
      </trkpt>
      <trkpt lat="46.97732" lon="16.05899">
        <ele>300.642277</ele>
        <time>2026-07-08T14:16:33.000Z</time>
      </trkpt>
      <trkpt lat="46.97735" lon="16.05895">
        <ele>300.659387</ele>
        <time>2026-07-08T14:16:34.000Z</time>
      </trkpt>
      <trkpt lat="46.97739" lon="16.05891">
        <ele>300.676959</ele>
        <time>2026-07-08T14:16:35.000Z</time>
      </trkpt>
      <trkpt lat="46.97743" lon="16.05887">
        <ele>300.694521</ele>
        <time>2026-07-08T14:16:36.000Z</time>
      </trkpt>
      <trkpt lat="46.97746" lon="16.05884">
        <ele>300.711023</ele>
        <time>2026-07-08T14:16:37.000Z</time>
      </trkpt>
      <trkpt lat="46.9775" lon="16.0588">
        <ele>300.728133</ele>
        <time>2026-07-08T14:16:38.000Z</time>
      </trkpt>
      <trkpt lat="46.97753" lon="16.05876">
        <ele>300.744004</ele>
        <time>2026-07-08T14:16:39.000Z</time>
      </trkpt>
      <trkpt lat="46.97757" lon="16.05873">
        <ele>300.760969</ele>
        <time>2026-07-08T14:16:40.000Z</time>
      </trkpt>
      <trkpt lat="46.97761" lon="16.05869">
        <ele>300.777154</ele>
        <time>2026-07-08T14:16:41.000Z</time>
      </trkpt>
      <trkpt lat="46.97765" lon="16.05866">
        <ele>300.794817</ele>
        <time>2026-07-08T14:16:42.000Z</time>
      </trkpt>
      <trkpt lat="46.97768" lon="16.05862">
        <ele>300.811961</ele>
        <time>2026-07-08T14:16:43.000Z</time>
      </trkpt>
      <trkpt lat="46.97772" lon="16.05859">
        <ele>300.828505</ele>
        <time>2026-07-08T14:16:44.000Z</time>
      </trkpt>
      <trkpt lat="46.97776" lon="16.05856">
        <ele>300.844402</ele>
        <time>2026-07-08T14:16:45.000Z</time>
      </trkpt>
      <trkpt lat="46.97779" lon="16.05853">
        <ele>300.85989</ele>
        <time>2026-07-08T14:16:46.000Z</time>
      </trkpt>
      <trkpt lat="46.97783" lon="16.0585">
        <ele>300.874999</ele>
        <time>2026-07-08T14:16:47.000Z</time>
      </trkpt>
      <trkpt lat="46.97786" lon="16.05847">
        <ele>300.889564</ele>
        <time>2026-07-08T14:16:48.000Z</time>
      </trkpt>
      <trkpt lat="46.97789" lon="16.05844">
        <ele>300.904724</ele>
        <time>2026-07-08T14:16:49.000Z</time>
      </trkpt>
      <trkpt lat="46.97793" lon="16.05841">
        <ele>300.919421</ele>
        <time>2026-07-08T14:16:50.000Z</time>
      </trkpt>
      <trkpt lat="46.97796" lon="16.05839">
        <ele>300.934985</ele>
        <time>2026-07-08T14:16:51.000Z</time>
      </trkpt>
      <trkpt lat="46.978" lon="16.05836">
        <ele>300.950202</ele>
        <time>2026-07-08T14:16:52.000Z</time>
      </trkpt>
      <trkpt lat="46.97803" lon="16.05833">
        <ele>300.96569</ele>
        <time>2026-07-08T14:16:53.000Z</time>
      </trkpt>
      <trkpt lat="46.97807" lon="16.0583">
        <ele>300.981311</ele>
        <time>2026-07-08T14:16:54.000Z</time>
      </trkpt>
      <trkpt lat="46.97811" lon="16.05827">
        <ele>300.997338</ele>
        <time>2026-07-08T14:16:55.000Z</time>
      </trkpt>
      <trkpt lat="46.97814" lon="16.05824">
        <ele>301.01349</ele>
        <time>2026-07-08T14:16:56.000Z</time>
      </trkpt>
      <trkpt lat="46.97818" lon="16.05821">
        <ele>301.028978</ele>
        <time>2026-07-08T14:16:57.000Z</time>
      </trkpt>
      <trkpt lat="46.97821" lon="16.05819">
        <ele>301.04421</ele>
        <time>2026-07-08T14:16:58.000Z</time>
      </trkpt>
      <trkpt lat="46.97825" lon="16.05816">
        <ele>301.060029</ele>
        <time>2026-07-08T14:16:59.000Z</time>
      </trkpt>
      <trkpt lat="46.97828" lon="16.05812">
        <ele>301.075464</ele>
        <time>2026-07-08T14:17:00.000Z</time>
      </trkpt>
      <trkpt lat="46.97831" lon="16.05808">
        <ele>301.094351</ele>
        <time>2026-07-08T14:17:01.000Z</time>
      </trkpt>
      <trkpt lat="46.97834" lon="16.05804">
        <ele>301.118128</ele>
        <time>2026-07-08T14:17:02.000Z</time>
      </trkpt>
      <trkpt lat="46.97837" lon="16.058">
        <ele>301.141811</ele>
        <time>2026-07-08T14:17:03.000Z</time>
      </trkpt>
      <trkpt lat="46.97841" lon="16.05797">
        <ele>301.166597</ele>
        <time>2026-07-08T14:17:04.000Z</time>
      </trkpt>
      <trkpt lat="46.97844" lon="16.05793">
        <ele>301.190938</ele>
        <time>2026-07-08T14:17:05.000Z</time>
      </trkpt>
      <trkpt lat="46.97848" lon="16.0579">
        <ele>301.2155</ele>
        <time>2026-07-08T14:17:06.000Z</time>
      </trkpt>
      <trkpt lat="46.97851" lon="16.05787">
        <ele>301.238181</ele>
        <time>2026-07-08T14:17:07.000Z</time>
      </trkpt>
      <trkpt lat="46.97854" lon="16.05783">
        <ele>301.260637</ele>
        <time>2026-07-08T14:17:08.000Z</time>
      </trkpt>
      <trkpt lat="46.97857" lon="16.0578">
        <ele>301.281915</ele>
        <time>2026-07-08T14:17:09.000Z</time>
      </trkpt>
      <trkpt lat="46.9786" lon="16.05777">
        <ele>301.302923</ele>
        <time>2026-07-08T14:17:10.000Z</time>
      </trkpt>
      <trkpt lat="46.97862" lon="16.05773">
        <ele>301.322199</ele>
        <time>2026-07-08T14:17:11.000Z</time>
      </trkpt>
      <trkpt lat="46.97863" lon="16.05768">
        <ele>301.341527</ele>
        <time>2026-07-08T14:17:12.000Z</time>
      </trkpt>
      <trkpt lat="46.97863" lon="16.05763">
        <ele>301.360151</ele>
        <time>2026-07-08T14:17:13.000Z</time>
      </trkpt>
      <trkpt lat="46.97862" lon="16.05759">
        <ele>301.378119</ele>
        <time>2026-07-08T14:17:14.000Z</time>
      </trkpt>
      <trkpt lat="46.97861" lon="16.05755">
        <ele>301.395762</ele>
        <time>2026-07-08T14:17:15.000Z</time>
      </trkpt>
      <trkpt lat="46.97859" lon="16.05752">
        <ele>301.411562</ele>
        <time>2026-07-08T14:17:16.000Z</time>
      </trkpt>
      <trkpt lat="46.97857" lon="16.0575">
        <ele>301.425805</ele>
        <time>2026-07-08T14:17:17.000Z</time>
      </trkpt>
      <trkpt lat="46.97855" lon="16.05747">
        <ele>301.443224</ele>
        <time>2026-07-08T14:17:18.000Z</time>
      </trkpt>
      <trkpt lat="46.97853" lon="16.05743">
        <ele>301.46216</ele>
        <time>2026-07-08T14:17:19.000Z</time>
      </trkpt>
      <trkpt lat="46.9785" lon="16.0574">
        <ele>301.483039</ele>
        <time>2026-07-08T14:17:20.000Z</time>
      </trkpt>
      <trkpt lat="46.97848" lon="16.05736">
        <ele>301.503728</ele>
        <time>2026-07-08T14:17:21.000Z</time>
      </trkpt>
      <trkpt lat="46.97845" lon="16.05731">
        <ele>301.525396</ele>
        <time>2026-07-08T14:17:22.000Z</time>
      </trkpt>
      <trkpt lat="46.97843" lon="16.05727">
        <ele>301.547534</ele>
        <time>2026-07-08T14:17:23.000Z</time>
      </trkpt>
      <trkpt lat="46.9784" lon="16.05723">
        <ele>301.570181</ele>
        <time>2026-07-08T14:17:24.000Z</time>
      </trkpt>
      <trkpt lat="46.97838" lon="16.05718">
        <ele>301.593084</ele>
        <time>2026-07-08T14:17:25.000Z</time>
      </trkpt>
      <trkpt lat="46.97836" lon="16.05714">
        <ele>301.614992</ele>
        <time>2026-07-08T14:17:26.000Z</time>
      </trkpt>
      <trkpt lat="46.97834" lon="16.05709">
        <ele>301.635873</ele>
        <time>2026-07-08T14:17:27.000Z</time>
      </trkpt>
      <trkpt lat="46.97834" lon="16.05704">
        <ele>301.656184</ele>
        <time>2026-07-08T14:17:28.000Z</time>
      </trkpt>
      <trkpt lat="46.97833" lon="16.05698">
        <ele>301.678129</ele>
        <time>2026-07-08T14:17:29.000Z</time>
      </trkpt>
      <trkpt lat="46.97833" lon="16.05693">
        <ele>301.70074</ele>
        <time>2026-07-08T14:17:30.000Z</time>
      </trkpt>
      <trkpt lat="46.97834" lon="16.05687">
        <ele>301.723646</ele>
        <time>2026-07-08T14:17:31.000Z</time>
      </trkpt>
      <trkpt lat="46.97835" lon="16.05681">
        <ele>301.746768</ele>
        <time>2026-07-08T14:17:32.000Z</time>
      </trkpt>
      <trkpt lat="46.97835" lon="16.05675">
        <ele>301.769498</ele>
        <time>2026-07-08T14:17:33.000Z</time>
      </trkpt>
      <trkpt lat="46.97836" lon="16.0567">
        <ele>301.792015</ele>
        <time>2026-07-08T14:17:34.000Z</time>
      </trkpt>
      <trkpt lat="46.97836" lon="16.05664">
        <ele>301.814744</ele>
        <time>2026-07-08T14:17:35.000Z</time>
      </trkpt>
      <trkpt lat="46.97837" lon="16.05658">
        <ele>301.837866</ele>
        <time>2026-07-08T14:17:36.000Z</time>
      </trkpt>
      <trkpt lat="46.97838" lon="16.05653">
        <ele>301.860107</ele>
        <time>2026-07-08T14:17:37.000Z</time>
      </trkpt>
      <trkpt lat="46.97839" lon="16.05647">
        <ele>301.882619</ele>
        <time>2026-07-08T14:17:38.000Z</time>
      </trkpt>
      <trkpt lat="46.9784" lon="16.05642">
        <ele>301.903227</ele>
        <time>2026-07-08T14:17:39.000Z</time>
      </trkpt>
      <trkpt lat="46.97841" lon="16.05637">
        <ele>301.924595</ele>
        <time>2026-07-08T14:17:40.000Z</time>
      </trkpt>
      <trkpt lat="46.97841" lon="16.05632">
        <ele>301.944906</ele>
        <time>2026-07-08T14:17:41.000Z</time>
      </trkpt>
      <trkpt lat="46.97842" lon="16.05627">
        <ele>301.965358</ele>
        <time>2026-07-08T14:17:42.000Z</time>
      </trkpt>
      <trkpt lat="46.97843" lon="16.05622">
        <ele>301.985966</ele>
        <time>2026-07-08T14:17:43.000Z</time>
      </trkpt>
      <trkpt lat="46.97845" lon="16.05617">
        <ele>302.006024</ele>
        <time>2026-07-08T14:17:44.000Z</time>
      </trkpt>
      <trkpt lat="46.97846" lon="16.05613">
        <ele>302.026243</ele>
        <time>2026-07-08T14:17:45.000Z</time>
      </trkpt>
      <trkpt lat="46.97847" lon="16.05608">
        <ele>302.045895</ele>
        <time>2026-07-08T14:17:46.000Z</time>
      </trkpt>
      <trkpt lat="46.97848" lon="16.05603">
        <ele>302.066113</ele>
        <time>2026-07-08T14:17:47.000Z</time>
      </trkpt>
      <trkpt lat="46.97849" lon="16.05598">
        <ele>302.085963</ele>
        <time>2026-07-08T14:17:48.000Z</time>
      </trkpt>
      <trkpt lat="46.9785" lon="16.05593">
        <ele>302.106191</ele>
        <time>2026-07-08T14:17:49.000Z</time>
      </trkpt>
      <trkpt lat="46.97851" lon="16.05589">
        <ele>302.125669</ele>
        <time>2026-07-08T14:17:50.000Z</time>
      </trkpt>
      <trkpt lat="46.97852" lon="16.05584">
        <ele>302.165923</ele>
        <time>2026-07-08T14:17:51.000Z</time>
      </trkpt>
      <trkpt lat="46.97853" lon="16.05579">
        <ele>302.208149</ele>
        <time>2026-07-08T14:17:52.000Z</time>
      </trkpt>
      <trkpt lat="46.97855" lon="16.05575">
        <ele>302.249208</ele>
        <time>2026-07-08T14:17:53.000Z</time>
      </trkpt>
      <trkpt lat="46.97856" lon="16.0557">
        <ele>302.291059</ele>
        <time>2026-07-08T14:17:54.000Z</time>
      </trkpt>
      <trkpt lat="46.97857" lon="16.05566">
        <ele>302.331278</ele>
        <time>2026-07-08T14:17:55.000Z</time>
      </trkpt>
      <trkpt lat="46.97858" lon="16.05561">
        <ele>302.3719</ele>
        <time>2026-07-08T14:17:56.000Z</time>
      </trkpt>
      <trkpt lat="46.97859" lon="16.05557">
        <ele>302.412959</ele>
        <time>2026-07-08T14:17:57.000Z</time>
      </trkpt>
      <trkpt lat="46.9786" lon="16.05552">
        <ele>302.454017</ele>
        <time>2026-07-08T14:17:58.000Z</time>
      </trkpt>
      <trkpt lat="46.97862" lon="16.05548">
        <ele>302.494764</ele>
        <time>2026-07-08T14:17:59.000Z</time>
      </trkpt>
      <trkpt lat="46.97863" lon="16.05544">
        <ele>302.535806</ele>
        <time>2026-07-08T14:18:00.000Z</time>
      </trkpt>
      <trkpt lat="46.97864" lon="16.05539">
        <ele>302.574999</ele>
        <time>2026-07-08T14:18:01.000Z</time>
      </trkpt>
      <trkpt lat="46.97866" lon="16.05535">
        <ele>302.61604</ele>
        <time>2026-07-08T14:18:02.000Z</time>
      </trkpt>
      <trkpt lat="46.97867" lon="16.05531">
        <ele>302.656326</ele>
        <time>2026-07-08T14:18:03.000Z</time>
      </trkpt>
      <trkpt lat="46.97869" lon="16.05527">
        <ele>302.69856</ele>
        <time>2026-07-08T14:18:04.000Z</time>
      </trkpt>
      <trkpt lat="46.97871" lon="16.05522">
        <ele>302.739601</ele>
        <time>2026-07-08T14:18:05.000Z</time>
      </trkpt>
      <trkpt lat="46.97872" lon="16.05518">
        <ele>302.783313</ele>
        <time>2026-07-08T14:18:06.000Z</time>
      </trkpt>
      <trkpt lat="46.97874" lon="16.05513">
        <ele>302.82795</ele>
        <time>2026-07-08T14:18:07.000Z</time>
      </trkpt>
      <trkpt lat="46.97875" lon="16.05508">
        <ele>302.872312</ele>
        <time>2026-07-08T14:18:08.000Z</time>
      </trkpt>
      <trkpt lat="46.97876" lon="16.05503">
        <ele>302.916957</ele>
        <time>2026-07-08T14:18:09.000Z</time>
      </trkpt>
      <trkpt lat="46.97877" lon="16.05498">
        <ele>302.962869</ele>
        <time>2026-07-08T14:18:10.000Z</time>
      </trkpt>
      <trkpt lat="46.97878" lon="16.05493">
        <ele>303.009283</ele>
        <time>2026-07-08T14:18:11.000Z</time>
      </trkpt>
      <trkpt lat="46.97878" lon="16.05487">
        <ele>303.055189</ele>
        <time>2026-07-08T14:18:12.000Z</time>
      </trkpt>
      <trkpt lat="46.97878" lon="16.05482">
        <ele>303.100246</ele>
        <time>2026-07-08T14:18:13.000Z</time>
      </trkpt>
      <trkpt lat="46.97878" lon="16.05477">
        <ele>303.145286</ele>
        <time>2026-07-08T14:18:14.000Z</time>
      </trkpt>
      <trkpt lat="46.97878" lon="16.05471">
        <ele>303.191445</ele>
        <time>2026-07-08T14:18:15.000Z</time>
      </trkpt>
      <trkpt lat="46.97878" lon="16.05466">
        <ele>303.233954</ele>
        <time>2026-07-08T14:18:16.000Z</time>
      </trkpt>
      <trkpt lat="46.97877" lon="16.05461">
        <ele>303.276898</ele>
        <time>2026-07-08T14:18:17.000Z</time>
      </trkpt>
      <trkpt lat="46.97877" lon="16.05456">
        <ele>303.31968</ele>
        <time>2026-07-08T14:18:18.000Z</time>
      </trkpt>
      <trkpt lat="46.97876" lon="16.05452">
        <ele>303.360943</ele>
        <time>2026-07-08T14:18:19.000Z</time>
      </trkpt>
      <trkpt lat="46.97876" lon="16.05446">
        <ele>303.405291</ele>
        <time>2026-07-08T14:18:20.000Z</time>
      </trkpt>
      <trkpt lat="46.97876" lon="16.05441">
        <ele>303.449077</ele>
        <time>2026-07-08T14:18:21.000Z</time>
      </trkpt>
      <trkpt lat="46.97875" lon="16.05436">
        <ele>303.495118</ele>
        <time>2026-07-08T14:18:22.000Z</time>
      </trkpt>
      <trkpt lat="46.97875" lon="16.05431">
        <ele>303.540587</ele>
        <time>2026-07-08T14:18:23.000Z</time>
      </trkpt>
      <trkpt lat="46.97874" lon="16.05425">
        <ele>303.587591</ele>
        <time>2026-07-08T14:18:24.000Z</time>
      </trkpt>
      <trkpt lat="46.97874" lon="16.0542">
        <ele>303.634479</ele>
        <time>2026-07-08T14:18:25.000Z</time>
      </trkpt>
      <trkpt lat="46.97874" lon="16.05414">
        <ele>303.681285</ele>
        <time>2026-07-08T14:18:26.000Z</time>
      </trkpt>
      <trkpt lat="46.97874" lon="16.05409">
        <ele>303.728041</ele>
        <time>2026-07-08T14:18:27.000Z</time>
      </trkpt>
      <trkpt lat="46.97874" lon="16.05403">
        <ele>303.77648</ele>
        <time>2026-07-08T14:18:28.000Z</time>
      </trkpt>
      <trkpt lat="46.97874" lon="16.05397">
        <ele>303.824135</ele>
        <time>2026-07-08T14:18:29.000Z</time>
      </trkpt>
      <trkpt lat="46.97873" lon="16.05392">
        <ele>303.872638</ele>
        <time>2026-07-08T14:18:30.000Z</time>
      </trkpt>
      <trkpt lat="46.97873" lon="16.05386">
        <ele>303.921093</ele>
        <time>2026-07-08T14:18:31.000Z</time>
      </trkpt>
      <trkpt lat="46.97873" lon="16.0538">
        <ele>303.968682</ele>
        <time>2026-07-08T14:18:32.000Z</time>
      </trkpt>
      <trkpt lat="46.97873" lon="16.05375">
        <ele>304.015422</ele>
        <time>2026-07-08T14:18:33.000Z</time>
      </trkpt>
      <trkpt lat="46.97873" lon="16.05369">
        <ele>304.062178</ele>
        <time>2026-07-08T14:18:34.000Z</time>
      </trkpt>
      <trkpt lat="46.97874" lon="16.05364">
        <ele>304.108984</ele>
        <time>2026-07-08T14:18:35.000Z</time>
      </trkpt>
      <trkpt lat="46.97874" lon="16.05358">
        <ele>304.155025</ele>
        <time>2026-07-08T14:18:36.000Z</time>
      </trkpt>
      <trkpt lat="46.97874" lon="16.05353">
        <ele>304.201831</ele>
        <time>2026-07-08T14:18:37.000Z</time>
      </trkpt>
      <trkpt lat="46.97874" lon="16.05348">
        <ele>304.24694</ele>
        <time>2026-07-08T14:18:38.000Z</time>
      </trkpt>
      <trkpt lat="46.97875" lon="16.05342">
        <ele>304.292135</ele>
        <time>2026-07-08T14:18:39.000Z</time>
      </trkpt>
      <trkpt lat="46.97875" lon="16.05337">
        <ele>304.338445</ele>
        <time>2026-07-08T14:18:40.000Z</time>
      </trkpt>
      <trkpt lat="46.97876" lon="16.05332">
        <ele>304.415112</ele>
        <time>2026-07-08T14:18:41.000Z</time>
      </trkpt>
      <trkpt lat="46.97876" lon="16.05326">
        <ele>304.543891</ele>
        <time>2026-07-08T14:18:42.000Z</time>
      </trkpt>
      <trkpt lat="46.97877" lon="16.05321">
        <ele>304.670242</ele>
        <time>2026-07-08T14:18:43.000Z</time>
      </trkpt>
      <trkpt lat="46.97877" lon="16.05316">
        <ele>304.80286</ele>
        <time>2026-07-08T14:18:44.000Z</time>
      </trkpt>
      <trkpt lat="46.97877" lon="16.05311">
        <ele>304.927978</ele>
        <time>2026-07-08T14:18:45.000Z</time>
      </trkpt>
      <trkpt lat="46.97877" lon="16.05305">
        <ele>305.06118</ele>
        <time>2026-07-08T14:18:46.000Z</time>
      </trkpt>
      <trkpt lat="46.97877" lon="16.053">
        <ele>305.191201</ele>
        <time>2026-07-08T14:18:47.000Z</time>
      </trkpt>
      <trkpt lat="46.97877" lon="16.05295">
        <ele>305.321221</ele>
        <time>2026-07-08T14:18:48.000Z</time>
      </trkpt>
      <trkpt lat="46.97877" lon="16.0529">
        <ele>305.448942</ele>
        <time>2026-07-08T14:18:49.000Z</time>
      </trkpt>
      <trkpt lat="46.97877" lon="16.05284">
        <ele>305.584009</ele>
        <time>2026-07-08T14:18:50.000Z</time>
      </trkpt>
      <trkpt lat="46.97877" lon="16.05279">
        <ele>305.714427</ele>
        <time>2026-07-08T14:18:51.000Z</time>
      </trkpt>
      <trkpt lat="46.97876" lon="16.05273">
        <ele>305.849733</ele>
        <time>2026-07-08T14:18:52.000Z</time>
      </trkpt>
      <trkpt lat="46.97876" lon="16.05268">
        <ele>305.985372</ele>
        <time>2026-07-08T14:18:53.000Z</time>
      </trkpt>
      <trkpt lat="46.97876" lon="16.05262">
        <ele>306.120296</ele>
        <time>2026-07-08T14:18:54.000Z</time>
      </trkpt>
      <trkpt lat="46.97876" lon="16.05257">
        <ele>306.255363</ele>
        <time>2026-07-08T14:18:55.000Z</time>
      </trkpt>
      <trkpt lat="46.97875" lon="16.05252">
        <ele>306.383084</ele>
        <time>2026-07-08T14:18:56.000Z</time>
      </trkpt>
      <trkpt lat="46.97875" lon="16.05246">
        <ele>306.513105</ele>
        <time>2026-07-08T14:18:57.000Z</time>
      </trkpt>
      <trkpt lat="46.97875" lon="16.05241">
        <ele>306.645723</ele>
        <time>2026-07-08T14:18:58.000Z</time>
      </trkpt>
      <trkpt lat="46.97875" lon="16.05236">
        <ele>306.77614</ele>
        <time>2026-07-08T14:18:59.000Z</time>
      </trkpt>
      <trkpt lat="46.97874" lon="16.05231">
        <ele>306.899595</ele>
        <time>2026-07-08T14:19:00.000Z</time>
      </trkpt>
      <trkpt lat="46.97874" lon="16.05225">
        <ele>307.028374</ele>
        <time>2026-07-08T14:19:01.000Z</time>
      </trkpt>
      <trkpt lat="46.97874" lon="16.0522">
        <ele>307.151461</ele>
        <time>2026-07-08T14:19:02.000Z</time>
      </trkpt>
      <trkpt lat="46.97873" lon="16.05215">
        <ele>307.277812</ele>
        <time>2026-07-08T14:19:03.000Z</time>
      </trkpt>
      <trkpt lat="46.97873" lon="16.0521">
        <ele>307.405786</ele>
        <time>2026-07-08T14:19:04.000Z</time>
      </trkpt>
      <trkpt lat="46.97872" lon="16.05205">
        <ele>307.52924</ele>
        <time>2026-07-08T14:19:05.000Z</time>
      </trkpt>
      <trkpt lat="46.97872" lon="16.052">
        <ele>307.652328</ele>
        <time>2026-07-08T14:19:06.000Z</time>
      </trkpt>
      <trkpt lat="46.97872" lon="16.05195">
        <ele>307.77053</ele>
        <time>2026-07-08T14:19:07.000Z</time>
      </trkpt>
      <trkpt lat="46.97871" lon="16.05191">
        <ele>307.886681</ele>
        <time>2026-07-08T14:19:08.000Z</time>
      </trkpt>
      <trkpt lat="46.97871" lon="16.05186">
        <ele>307.998487</ele>
        <time>2026-07-08T14:19:09.000Z</time>
      </trkpt>
      <trkpt lat="46.97871" lon="16.05182">
        <ele>308.101546</ele>
        <time>2026-07-08T14:19:10.000Z</time>
      </trkpt>
      <trkpt lat="46.9787" lon="16.05178">
        <ele>308.203113</ele>
        <time>2026-07-08T14:19:11.000Z</time>
      </trkpt>
      <trkpt lat="46.9787" lon="16.05174">
        <ele>308.299358</ele>
        <time>2026-07-08T14:19:12.000Z</time>
      </trkpt>
      <trkpt lat="46.9787" lon="16.0517">
        <ele>308.385862</ele>
        <time>2026-07-08T14:19:13.000Z</time>
      </trkpt>
      <trkpt lat="46.97869" lon="16.05167">
        <ele>308.472888</ele>
        <time>2026-07-08T14:19:14.000Z</time>
      </trkpt>
      <trkpt lat="46.97869" lon="16.05164">
        <ele>308.554529</ele>
        <time>2026-07-08T14:19:15.000Z</time>
      </trkpt>
      <trkpt lat="46.97869" lon="16.0516">
        <ele>308.633739</ele>
        <time>2026-07-08T14:19:16.000Z</time>
      </trkpt>
      <trkpt lat="46.97869" lon="16.05157">
        <ele>308.710099</ele>
        <time>2026-07-08T14:19:17.000Z</time>
      </trkpt>
      <trkpt lat="46.97868" lon="16.05154">
        <ele>308.790604</ele>
        <time>2026-07-08T14:19:18.000Z</time>
      </trkpt>
      <trkpt lat="46.97868" lon="16.05151">
        <ele>308.866336</ele>
        <time>2026-07-08T14:19:19.000Z</time>
      </trkpt>
      <trkpt lat="46.97867" lon="16.05148">
        <ele>308.937313</ele>
        <time>2026-07-08T14:19:20.000Z</time>
      </trkpt>
      <trkpt lat="46.97866" lon="16.05146">
        <ele>309.008144</ele>
        <time>2026-07-08T14:19:21.000Z</time>
      </trkpt>
      <trkpt lat="46.97865" lon="16.05143">
        <ele>309.083482</ele>
        <time>2026-07-08T14:19:22.000Z</time>
      </trkpt>
      <trkpt lat="46.97864" lon="16.0514">
        <ele>309.165124</ele>
        <time>2026-07-08T14:19:23.000Z</time>
      </trkpt>
      <trkpt lat="46.97862" lon="16.05138">
        <ele>309.245675</ele>
        <time>2026-07-08T14:19:24.000Z</time>
      </trkpt>
      <trkpt lat="46.9786" lon="16.05137">
        <ele>309.339454</ele>
        <time>2026-07-08T14:19:25.000Z</time>
      </trkpt>
      <trkpt lat="46.97857" lon="16.05135">
        <ele>309.453385</ele>
        <time>2026-07-08T14:19:26.000Z</time>
      </trkpt>
      <trkpt lat="46.97854" lon="16.05133">
        <ele>309.569899</ele>
        <time>2026-07-08T14:19:27.000Z</time>
      </trkpt>
      <trkpt lat="46.97851" lon="16.05131">
        <ele>309.688358</ele>
        <time>2026-07-08T14:19:28.000Z</time>
      </trkpt>
      <trkpt lat="46.97848" lon="16.05129">
        <ele>309.793168</ele>
        <time>2026-07-08T14:19:29.000Z</time>
      </trkpt>
      <trkpt lat="46.97846" lon="16.05127">
        <ele>309.893245</ele>
        <time>2026-07-08T14:19:30.000Z</time>
      </trkpt>
      <trkpt lat="46.97844" lon="16.05124">
        <ele>309.993302</ele>
        <time>2026-07-08T14:19:31.000Z</time>
      </trkpt>
      <trkpt lat="46.97842" lon="16.05122">
        <ele>310.091034</ele>
        <time>2026-07-08T14:19:32.000Z</time>
      </trkpt>
      <trkpt lat="46.9784" lon="16.05119">
        <ele>310.196437</ele>
        <time>2026-07-08T14:19:33.000Z</time>
      </trkpt>
      <trkpt lat="46.97838" lon="16.05116">
        <ele>310.299296</ele>
        <time>2026-07-08T14:19:34.000Z</time>
      </trkpt>
      <trkpt lat="46.97836" lon="16.05112">
        <ele>310.405186</ele>
        <time>2026-07-08T14:19:35.000Z</time>
      </trkpt>
      <trkpt lat="46.97834" lon="16.05109">
        <ele>310.506474</ele>
        <time>2026-07-08T14:19:36.000Z</time>
      </trkpt>
      <trkpt lat="46.97833" lon="16.05106">
        <ele>310.607877</ele>
        <time>2026-07-08T14:19:37.000Z</time>
      </trkpt>
      <trkpt lat="46.97831" lon="16.05102">
        <ele>310.709937</ele>
        <time>2026-07-08T14:19:38.000Z</time>
      </trkpt>
      <trkpt lat="46.9783" lon="16.05098">
        <ele>310.813381</ele>
        <time>2026-07-08T14:19:39.000Z</time>
      </trkpt>
      <trkpt lat="46.97829" lon="16.05095">
        <ele>310.953456</ele>
        <time>2026-07-08T14:19:40.000Z</time>
      </trkpt>
      <trkpt lat="46.97828" lon="16.05091">
        <ele>311.110834</ele>
        <time>2026-07-08T14:19:41.000Z</time>
      </trkpt>
      <trkpt lat="46.97827" lon="16.05088">
        <ele>311.251145</ele>
        <time>2026-07-08T14:19:42.000Z</time>
      </trkpt>
      <trkpt lat="46.97826" lon="16.05085">
        <ele>311.387688</ele>
        <time>2026-07-08T14:19:43.000Z</time>
      </trkpt>
      <trkpt lat="46.97825" lon="16.05082">
        <ele>311.518987</ele>
        <time>2026-07-08T14:19:44.000Z</time>
      </trkpt>
      <trkpt lat="46.97824" lon="16.05079">
        <ele>311.645608</ele>
        <time>2026-07-08T14:19:45.000Z</time>
      </trkpt>
      <trkpt lat="46.97824" lon="16.05076">
        <ele>311.770859</ele>
        <time>2026-07-08T14:19:46.000Z</time>
      </trkpt>
      <trkpt lat="46.97823" lon="16.05072">
        <ele>311.910207</ele>
        <time>2026-07-08T14:19:47.000Z</time>
      </trkpt>
      <trkpt lat="46.97823" lon="16.05069">
        <ele>312.037831</ele>
        <time>2026-07-08T14:19:48.000Z</time>
      </trkpt>
      <trkpt lat="46.97822" lon="16.05066">
        <ele>312.177179</ele>
        <time>2026-07-08T14:19:49.000Z</time>
      </trkpt>
      <trkpt lat="46.97822" lon="16.05063">
        <ele>312.300907</ele>
        <time>2026-07-08T14:19:50.000Z</time>
      </trkpt>
      <trkpt lat="46.97821" lon="16.0506">
        <ele>312.424635</ele>
        <time>2026-07-08T14:19:51.000Z</time>
      </trkpt>
      <trkpt lat="46.97821" lon="16.05057">
        <ele>312.540594</ele>
        <time>2026-07-08T14:19:52.000Z</time>
      </trkpt>
      <trkpt lat="46.97821" lon="16.05054">
        <ele>312.66136</ele>
        <time>2026-07-08T14:19:53.000Z</time>
      </trkpt>
      <trkpt lat="46.9782" lon="16.05051">
        <ele>312.77096</ele>
        <time>2026-07-08T14:19:54.000Z</time>
      </trkpt>
      <trkpt lat="46.9782" lon="16.05049">
        <ele>312.886919</ele>
        <time>2026-07-08T14:19:55.000Z</time>
      </trkpt>
      <trkpt lat="46.97819" lon="16.05046">
        <ele>313.001533</ele>
        <time>2026-07-08T14:19:56.000Z</time>
      </trkpt>
      <trkpt lat="46.97819" lon="16.05043">
        <ele>313.125261</ele>
        <time>2026-07-08T14:19:57.000Z</time>
      </trkpt>
      <trkpt lat="46.97818" lon="16.0504">
        <ele>313.250513</ele>
        <time>2026-07-08T14:19:58.000Z</time>
      </trkpt>
      <trkpt lat="46.97818" lon="16.05037">
        <ele>313.370352</ele>
        <time>2026-07-08T14:19:59.000Z</time>
      </trkpt>
      <trkpt lat="46.97817" lon="16.05034">
        <ele>313.486312</ele>
        <time>2026-07-08T14:20:00.000Z</time>
      </trkpt>
      <trkpt lat="46.97817" lon="16.05031">
        <ele>313.605787</ele>
        <time>2026-07-08T14:20:01.000Z</time>
      </trkpt>
      <trkpt lat="46.97816" lon="16.05028">
        <ele>313.723302</ele>
        <time>2026-07-08T14:20:02.000Z</time>
      </trkpt>
      <trkpt lat="46.97816" lon="16.05025">
        <ele>313.84703</ele>
        <time>2026-07-08T14:20:03.000Z</time>
      </trkpt>
      <trkpt lat="46.97815" lon="16.05022">
        <ele>313.974059</ele>
        <time>2026-07-08T14:20:04.000Z</time>
      </trkpt>
      <trkpt lat="46.97815" lon="16.05019">
        <ele>314.097787</ele>
        <time>2026-07-08T14:20:05.000Z</time>
      </trkpt>
      <trkpt lat="46.97814" lon="16.05017">
        <ele>314.213746</ele>
        <time>2026-07-08T14:20:06.000Z</time>
      </trkpt>
      <trkpt lat="46.97813" lon="16.05014">
        <ele>314.340775</ele>
        <time>2026-07-08T14:20:07.000Z</time>
      </trkpt>
      <trkpt lat="46.97813" lon="16.05011">
        <ele>314.462395</ele>
        <time>2026-07-08T14:20:08.000Z</time>
      </trkpt>
      <trkpt lat="46.97812" lon="16.05008">
        <ele>314.586123</ele>
        <time>2026-07-08T14:20:09.000Z</time>
      </trkpt>
      <trkpt lat="46.97812" lon="16.05005">
        <ele>314.705963</ele>
        <time>2026-07-08T14:20:10.000Z</time>
      </trkpt>
      <trkpt lat="46.97811" lon="16.05002">
        <ele>314.820234</ele>
        <time>2026-07-08T14:20:11.000Z</time>
      </trkpt>
      <trkpt lat="46.9781" lon="16.04999">
        <ele>314.940074</ele>
        <time>2026-07-08T14:20:12.000Z</time>
      </trkpt>
      <trkpt lat="46.9781" lon="16.04997">
        <ele>315.056034</ele>
        <time>2026-07-08T14:20:13.000Z</time>
      </trkpt>
      <trkpt lat="46.97809" lon="16.04994">
        <ele>315.171994</ele>
        <time>2026-07-08T14:20:14.000Z</time>
      </trkpt>
      <trkpt lat="46.97809" lon="16.04991">
        <ele>315.291834</ele>
        <time>2026-07-08T14:20:15.000Z</time>
      </trkpt>
      <trkpt lat="46.97808" lon="16.04988">
        <ele>315.403819</ele>
        <time>2026-07-08T14:20:16.000Z</time>
      </trkpt>
      <trkpt lat="46.97808" lon="16.04985">
        <ele>315.523659</ele>
        <time>2026-07-08T14:20:17.000Z</time>
      </trkpt>
      <trkpt lat="46.97807" lon="16.04983">
        <ele>315.631886</ele>
        <time>2026-07-08T14:20:18.000Z</time>
      </trkpt>
      <trkpt lat="46.97806" lon="16.0498">
        <ele>315.757211</ele>
        <time>2026-07-08T14:20:19.000Z</time>
      </trkpt>
      <trkpt lat="46.97806" lon="16.04977">
        <ele>315.869197</ele>
        <time>2026-07-08T14:20:20.000Z</time>
      </trkpt>
      <trkpt lat="46.97805" lon="16.04975">
        <ele>315.984918</ele>
        <time>2026-07-08T14:20:21.000Z</time>
      </trkpt>
      <trkpt lat="46.97804" lon="16.04972">
        <ele>316.098686</ele>
        <time>2026-07-08T14:20:22.000Z</time>
      </trkpt>
      <trkpt lat="46.97803" lon="16.04969">
        <ele>316.222693</ele>
        <time>2026-07-08T14:20:23.000Z</time>
      </trkpt>
      <trkpt lat="46.97803" lon="16.04966">
        <ele>316.340628</ele>
        <time>2026-07-08T14:20:24.000Z</time>
      </trkpt>
      <trkpt lat="46.97802" lon="16.04964">
        <ele>316.454899</ele>
        <time>2026-07-08T14:20:25.000Z</time>
      </trkpt>
      <trkpt lat="46.97801" lon="16.04961">
        <ele>316.564621</ele>
        <time>2026-07-08T14:20:26.000Z</time>
      </trkpt>
      <trkpt lat="46.978" lon="16.04959">
        <ele>316.674587</ele>
        <time>2026-07-08T14:20:27.000Z</time>
      </trkpt>
      <trkpt lat="46.97799" lon="16.04956">
        <ele>316.784309</ele>
        <time>2026-07-08T14:20:28.000Z</time>
      </trkpt>
      <trkpt lat="46.97799" lon="16.04954">
        <ele>316.890487</ele>
        <time>2026-07-08T14:20:29.000Z</time>
      </trkpt>
      <trkpt lat="46.97798" lon="16.04951">
        <ele>317.003737</ele>
        <time>2026-07-08T14:20:30.000Z</time>
      </trkpt>
      <trkpt lat="46.97797" lon="16.04949">
        <ele>317.109915</ele>
        <time>2026-07-08T14:20:31.000Z</time>
      </trkpt>
      <trkpt lat="46.97796" lon="16.04946">
        <ele>317.226021</ele>
        <time>2026-07-08T14:20:32.000Z</time>
      </trkpt>
      <trkpt lat="46.97795" lon="16.04944">
        <ele>317.345601</ele>
        <time>2026-07-08T14:20:33.000Z</time>
      </trkpt>
      <trkpt lat="46.97794" lon="16.04941">
        <ele>317.458851</ele>
        <time>2026-07-08T14:20:34.000Z</time>
      </trkpt>
      <trkpt lat="46.97793" lon="16.04939">
        <ele>317.578035</ele>
        <time>2026-07-08T14:20:35.000Z</time>
      </trkpt>
      <trkpt lat="46.97792" lon="16.04936">
        <ele>317.690703</ele>
        <time>2026-07-08T14:20:36.000Z</time>
      </trkpt>
      <trkpt lat="46.97791" lon="16.04934">
        <ele>317.807512</ele>
        <time>2026-07-08T14:20:37.000Z</time>
      </trkpt>
      <trkpt lat="46.9779" lon="16.04931">
        <ele>317.930597</ele>
        <time>2026-07-08T14:20:38.000Z</time>
      </trkpt>
      <trkpt lat="46.97789" lon="16.04929">
        <ele>318.039875</ele>
        <time>2026-07-08T14:20:39.000Z</time>
      </trkpt>
      <trkpt lat="46.97788" lon="16.04927">
        <ele>318.157507</ele>
        <time>2026-07-08T14:20:40.000Z</time>
      </trkpt>
      <trkpt lat="46.97787" lon="16.04925">
        <ele>318.26818</ele>
        <time>2026-07-08T14:20:41.000Z</time>
      </trkpt>
      <trkpt lat="46.97785" lon="16.04923">
        <ele>318.375986</ele>
        <time>2026-07-08T14:20:42.000Z</time>
      </trkpt>
      <trkpt lat="46.97784" lon="16.04921">
        <ele>318.495064</ele>
        <time>2026-07-08T14:20:43.000Z</time>
      </trkpt>
      <trkpt lat="46.97783" lon="16.04918">
        <ele>318.61753</ele>
        <time>2026-07-08T14:20:44.000Z</time>
      </trkpt>
      <trkpt lat="46.97782" lon="16.04916">
        <ele>318.726799</ele>
        <time>2026-07-08T14:20:45.000Z</time>
      </trkpt>
      <trkpt lat="46.9778" lon="16.04914">
        <ele>318.842803</ele>
        <time>2026-07-08T14:20:46.000Z</time>
      </trkpt>
      <trkpt lat="46.97779" lon="16.04912">
        <ele>318.952081</ele>
        <time>2026-07-08T14:20:47.000Z</time>
      </trkpt>
      <trkpt lat="46.97778" lon="16.0491">
        <ele>319.058787</ele>
        <time>2026-07-08T14:20:48.000Z</time>
      </trkpt>
      <trkpt lat="46.97777" lon="16.04908">
        <ele>319.165494</ele>
        <time>2026-07-08T14:20:49.000Z</time>
      </trkpt>
      <trkpt lat="46.97776" lon="16.04905">
        <ele>319.271406</ele>
        <time>2026-07-08T14:20:50.000Z</time>
      </trkpt>
      <trkpt lat="46.97775" lon="16.04903">
        <ele>319.370749</ele>
        <time>2026-07-08T14:20:51.000Z</time>
      </trkpt>
      <trkpt lat="46.97774" lon="16.04901">
        <ele>319.481422</ele>
        <time>2026-07-08T14:20:52.000Z</time>
      </trkpt>
      <trkpt lat="46.97772" lon="16.049">
        <ele>319.595261</ele>
        <time>2026-07-08T14:20:53.000Z</time>
      </trkpt>
      <trkpt lat="46.97771" lon="16.04898">
        <ele>319.706606</ele>
        <time>2026-07-08T14:20:54.000Z</time>
      </trkpt>
      <trkpt lat="46.97769" lon="16.04896">
        <ele>319.820446</ele>
        <time>2026-07-08T14:20:55.000Z</time>
      </trkpt>
      <trkpt lat="46.97768" lon="16.04894">
        <ele>319.931118</ele>
        <time>2026-07-08T14:20:56.000Z</time>
      </trkpt>
      <trkpt lat="46.97767" lon="16.04892">
        <ele>320.043966</ele>
        <time>2026-07-08T14:20:57.000Z</time>
      </trkpt>
      <trkpt lat="46.97765" lon="16.0489">
        <ele>320.153713</ele>
        <time>2026-07-08T14:20:58.000Z</time>
      </trkpt>
      <trkpt lat="46.97764" lon="16.04888">
        <ele>320.278324</ele>
        <time>2026-07-08T14:20:59.000Z</time>
      </trkpt>
      <trkpt lat="46.97763" lon="16.04885">
        <ele>320.387602</ele>
        <time>2026-07-08T14:21:00.000Z</time>
      </trkpt>
      <trkpt lat="46.97761" lon="16.04883">
        <ele>320.505235</ele>
        <time>2026-07-08T14:21:01.000Z</time>
      </trkpt>
      <trkpt lat="46.9776" lon="16.04881">
        <ele>320.615907</ele>
        <time>2026-07-08T14:21:02.000Z</time>
      </trkpt>
      <trkpt lat="46.97759" lon="16.04879">
        <ele>320.722614</ele>
        <time>2026-07-08T14:21:03.000Z</time>
      </trkpt>
      <trkpt lat="46.97757" lon="16.04877">
        <ele>320.841691</ele>
        <time>2026-07-08T14:21:04.000Z</time>
      </trkpt>
      <trkpt lat="46.97756" lon="16.04875">
        <ele>320.944615</ele>
        <time>2026-07-08T14:21:05.000Z</time>
      </trkpt>
      <trkpt lat="46.97755" lon="16.04873">
        <ele>321.071124</ele>
        <time>2026-07-08T14:21:06.000Z</time>
      </trkpt>
      <trkpt lat="46.97754" lon="16.04871">
        <ele>321.183659</ele>
        <time>2026-07-08T14:21:07.000Z</time>
      </trkpt>
      <trkpt lat="46.97752" lon="16.04869">
        <ele>321.29846</ele>
        <time>2026-07-08T14:21:08.000Z</time>
      </trkpt>
      <trkpt lat="46.97751" lon="16.04866">
        <ele>321.418692</ele>
        <time>2026-07-08T14:21:09.000Z</time>
      </trkpt>
      <trkpt lat="46.9775" lon="16.04864">
        <ele>321.616484</ele>
        <time>2026-07-08T14:21:10.000Z</time>
      </trkpt>
      <trkpt lat="46.97749" lon="16.04862">
        <ele>321.808199</ele>
        <time>2026-07-08T14:21:11.000Z</time>
      </trkpt>
      <trkpt lat="46.97748" lon="16.0486">
        <ele>321.993923</ele>
        <time>2026-07-08T14:21:12.000Z</time>
      </trkpt>
      <trkpt lat="46.97747" lon="16.04857">
        <ele>322.192536</ele>
        <time>2026-07-08T14:21:13.000Z</time>
      </trkpt>
      <trkpt lat="46.97747" lon="16.04855">
        <ele>322.384733</ele>
        <time>2026-07-08T14:21:14.000Z</time>
      </trkpt>
      <trkpt lat="46.97746" lon="16.04852">
        <ele>322.580715</ele>
        <time>2026-07-08T14:21:15.000Z</time>
      </trkpt>
      <trkpt lat="46.97745" lon="16.0485">
        <ele>322.767943</ele>
        <time>2026-07-08T14:21:16.000Z</time>
      </trkpt>
      <trkpt lat="46.97745" lon="16.04848">
        <ele>322.94399</ele>
        <time>2026-07-08T14:21:17.000Z</time>
      </trkpt>
      <trkpt lat="46.97744" lon="16.04846">
        <ele>323.126636</ele>
        <time>2026-07-08T14:21:18.000Z</time>
      </trkpt>
      <trkpt lat="46.97743" lon="16.04843">
        <ele>323.318834</ele>
        <time>2026-07-08T14:21:19.000Z</time>
      </trkpt>
      <trkpt lat="46.97743" lon="16.04841">
        <ele>323.514815</ele>
        <time>2026-07-08T14:21:20.000Z</time>
      </trkpt>
      <trkpt lat="46.97742" lon="16.04838">
        <ele>323.703752</ele>
        <time>2026-07-08T14:21:21.000Z</time>
      </trkpt>
      <trkpt lat="46.97741" lon="16.04836">
        <ele>323.899734</ele>
        <time>2026-07-08T14:21:22.000Z</time>
      </trkpt>
      <trkpt lat="46.97741" lon="16.04833">
        <ele>324.074799</ele>
        <time>2026-07-08T14:21:23.000Z</time>
      </trkpt>
      <trkpt lat="46.97741" lon="16.04831">
        <ele>324.25889</ele>
        <time>2026-07-08T14:21:24.000Z</time>
      </trkpt>
      <trkpt lat="46.9774" lon="16.04828">
        <ele>324.435843</ele>
        <time>2026-07-08T14:21:25.000Z</time>
      </trkpt>
      <trkpt lat="46.9774" lon="16.04826">
        <ele>324.607979</ele>
        <time>2026-07-08T14:21:26.000Z</time>
      </trkpt>
      <trkpt lat="46.97739" lon="16.04824">
        <ele>324.762456</ele>
        <time>2026-07-08T14:21:27.000Z</time>
      </trkpt>
      <trkpt lat="46.97739" lon="16.04822">
        <ele>324.943253</ele>
        <time>2026-07-08T14:21:28.000Z</time>
      </trkpt>
      <trkpt lat="46.97738" lon="16.0482">
        <ele>325.118319</ele>
        <time>2026-07-08T14:21:29.000Z</time>
      </trkpt>
      <trkpt lat="46.97738" lon="16.04817">
        <ele>325.315282</ele>
        <time>2026-07-08T14:21:30.000Z</time>
      </trkpt>
      <trkpt lat="46.97738" lon="16.04815">
        <ele>325.469057</ele>
        <time>2026-07-08T14:21:31.000Z</time>
      </trkpt>
      <trkpt lat="46.97738" lon="16.04813">
        <ele>325.596404</ele>
        <time>2026-07-08T14:21:32.000Z</time>
      </trkpt>
      <trkpt lat="46.97739" lon="16.04811">
        <ele>325.721513</ele>
        <time>2026-07-08T14:21:33.000Z</time>
      </trkpt>
      <trkpt lat="46.97738" lon="16.04809">
        <ele>325.870023</ele>
        <time>2026-07-08T14:21:34.000Z</time>
      </trkpt>
      <trkpt lat="46.97738" lon="16.04807">
        <ele>326.031329</ele>
        <time>2026-07-08T14:21:35.000Z</time>
      </trkpt>
      <trkpt lat="46.97737" lon="16.04805">
        <ele>326.207376</ele>
        <time>2026-07-08T14:21:36.000Z</time>
      </trkpt>
      <trkpt lat="46.97737" lon="16.04803">
        <ele>326.382442</ele>
        <time>2026-07-08T14:21:37.000Z</time>
      </trkpt>
      <trkpt lat="46.97736" lon="16.048">
        <ele>326.564431</ele>
        <time>2026-07-08T14:21:38.000Z</time>
      </trkpt>
      <trkpt lat="46.97736" lon="16.04798">
        <ele>326.718908</ele>
        <time>2026-07-08T14:21:39.000Z</time>
      </trkpt>
      <trkpt lat="46.97735" lon="16.04796">
        <ele>326.880213</ele>
        <time>2026-07-08T14:21:40.000Z</time>
      </trkpt>
      <trkpt lat="46.97735" lon="16.04794">
        <ele>327.048383</ele>
        <time>2026-07-08T14:21:41.000Z</time>
      </trkpt>
      <trkpt lat="46.97734" lon="16.04792">
        <ele>327.209345</ele>
        <time>2026-07-08T14:21:42.000Z</time>
      </trkpt>
      <trkpt lat="46.97734" lon="16.0479">
        <ele>327.362014</ele>
        <time>2026-07-08T14:21:43.000Z</time>
      </trkpt>
      <trkpt lat="46.97734" lon="16.04787">
        <ele>327.537363</ele>
        <time>2026-07-08T14:21:44.000Z</time>
      </trkpt>
      <trkpt lat="46.97734" lon="16.04785">
        <ele>327.685874</ele>
        <time>2026-07-08T14:21:45.000Z</time>
      </trkpt>
      <trkpt lat="46.97734" lon="16.04783">
        <ele>327.83247</ele>
        <time>2026-07-08T14:21:46.000Z</time>
      </trkpt>
      <trkpt lat="46.97733" lon="16.04782">
        <ele>327.952809</ele>
        <time>2026-07-08T14:21:47.000Z</time>
      </trkpt>
      <trkpt lat="46.97732" lon="16.0478">
        <ele>328.120556</ele>
        <time>2026-07-08T14:21:48.000Z</time>
      </trkpt>
      <trkpt lat="46.97731" lon="16.04778">
        <ele>328.30038</ele>
        <time>2026-07-08T14:21:49.000Z</time>
      </trkpt>
      <trkpt lat="46.97731" lon="16.04776">
        <ele>328.445669</ele>
        <time>2026-07-08T14:21:50.000Z</time>
      </trkpt>
      <trkpt lat="46.9773" lon="16.04774">
        <ele>328.607511</ele>
        <time>2026-07-08T14:21:51.000Z</time>
      </trkpt>
      <trkpt lat="46.97729" lon="16.04772">
        <ele>328.759349</ele>
        <time>2026-07-08T14:21:52.000Z</time>
      </trkpt>
      <trkpt lat="46.97729" lon="16.0477">
        <ele>328.922366</ele>
        <time>2026-07-08T14:21:53.000Z</time>
      </trkpt>
      <trkpt lat="46.97728" lon="16.04768">
        <ele>329.083672</ele>
        <time>2026-07-08T14:21:54.000Z</time>
      </trkpt>
      <trkpt lat="46.97728" lon="16.04766">
        <ele>329.225108</ele>
        <time>2026-07-08T14:21:55.000Z</time>
      </trkpt>
      <trkpt lat="46.97727" lon="16.04764">
        <ele>329.379585</ele>
        <time>2026-07-08T14:21:56.000Z</time>
      </trkpt>
      <trkpt lat="46.97727" lon="16.04762">
        <ele>329.537708</ele>
        <time>2026-07-08T14:21:57.000Z</time>
      </trkpt>
      <trkpt lat="46.97726" lon="16.0476">
        <ele>329.692185</ele>
        <time>2026-07-08T14:21:58.000Z</time>
      </trkpt>
      <trkpt lat="46.97726" lon="16.04758">
        <ele>329.844023</ele>
        <time>2026-07-08T14:21:59.000Z</time>
      </trkpt>
      <trkpt lat="46.97725" lon="16.04757">
        <ele>329.988888</ele>
        <time>2026-07-08T14:22:00.000Z</time>
      </trkpt>
      <trkpt lat="46.97724" lon="16.04756">
        <ele>330.13097</ele>
        <time>2026-07-08T14:22:01.000Z</time>
      </trkpt>
      <trkpt lat="46.97723" lon="16.04755">
        <ele>330.268559</ele>
        <time>2026-07-08T14:22:02.000Z</time>
      </trkpt>
      <trkpt lat="46.97722" lon="16.04754">
        <ele>330.405844</ele>
        <time>2026-07-08T14:22:03.000Z</time>
      </trkpt>
      <trkpt lat="46.9772" lon="16.04753">
        <ele>330.545972</ele>
        <time>2026-07-08T14:22:04.000Z</time>
      </trkpt>
      <trkpt lat="46.97719" lon="16.04752">
        <ele>330.66707</ele>
        <time>2026-07-08T14:22:05.000Z</time>
      </trkpt>
      <trkpt lat="46.97718" lon="16.0475">
        <ele>330.940839</ele>
        <time>2026-07-08T14:22:06.000Z</time>
      </trkpt>
      <trkpt lat="46.97717" lon="16.04748">
        <ele>331.078916</ele>
        <time>2026-07-08T14:22:08.000Z</time>
      </trkpt>
      <trkpt lat="46.97714" lon="16.04746">
        <ele>331.372375</ele>
        <time>2026-07-08T14:22:09.000Z</time>
      </trkpt>
      <trkpt lat="46.97713" lon="16.04745">
        <ele>331.539703</ele>
        <time>2026-07-08T14:22:10.000Z</time>
      </trkpt>
      <trkpt lat="46.97712" lon="16.04745">
        <ele>331.689572</ele>
        <time>2026-07-08T14:22:11.000Z</time>
      </trkpt>
      <trkpt lat="46.9771" lon="16.04744">
        <ele>331.864732</ele>
        <time>2026-07-08T14:22:13.000Z</time>
      </trkpt>
      <trkpt lat="46.97709" lon="16.04743">
        <ele>332.004861</ele>
        <time>2026-07-08T14:22:14.000Z</time>
      </trkpt>
      <trkpt lat="46.97706" lon="16.04741">
        <ele>332.292001</ele>
        <time>2026-07-08T14:22:15.000Z</time>
      </trkpt>
      <trkpt lat="46.97705" lon="16.04741">
        <ele>332.452101</ele>
        <time>2026-07-08T14:22:16.000Z</time>
      </trkpt>
      <trkpt lat="46.97703" lon="16.04741">
        <ele>332.612201</ele>
        <time>2026-07-08T14:22:17.000Z</time>
      </trkpt>
      <trkpt lat="46.97702" lon="16.04741">
        <ele>332.750573</ele>
        <time>2026-07-08T14:22:18.000Z</time>
      </trkpt>
      <trkpt lat="46.97701" lon="16.04741">
        <ele>332.888756</ele>
        <time>2026-07-08T14:22:19.000Z</time>
      </trkpt>
      <trkpt lat="46.97699" lon="16.04741">
        <ele>333.048197</ele>
        <time>2026-07-08T14:22:20.000Z</time>
      </trkpt>
      <trkpt lat="46.97698" lon="16.04741">
        <ele>333.17575</ele>
        <time>2026-07-08T14:22:21.000Z</time>
      </trkpt>
      <trkpt lat="46.97697" lon="16.0474">
        <ele>333.337809</ele>
        <time>2026-07-08T14:22:22.000Z</time>
      </trkpt>
      <trkpt lat="46.97695" lon="16.0474">
        <ele>333.476182</ele>
        <time>2026-07-08T14:22:23.000Z</time>
      </trkpt>
      <trkpt lat="46.97694" lon="16.0474">
        <ele>333.625699</ele>
        <time>2026-07-08T14:22:24.000Z</time>
      </trkpt>
      <trkpt lat="46.97693" lon="16.04739">
        <ele>333.772912</ele>
        <time>2026-07-08T14:22:25.000Z</time>
      </trkpt>
      <trkpt lat="46.97691" lon="16.04739">
        <ele>333.936425</ele>
        <time>2026-07-08T14:22:26.000Z</time>
      </trkpt>
      <trkpt lat="46.9769" lon="16.04739">
        <ele>334.074798</ele>
        <time>2026-07-08T14:22:27.000Z</time>
      </trkpt>
      <trkpt lat="46.97688" lon="16.04739">
        <ele>334.223786</ele>
        <time>2026-07-08T14:22:28.000Z</time>
      </trkpt>
      <trkpt lat="46.97687" lon="16.04739">
        <ele>334.383886</ele>
        <time>2026-07-08T14:22:29.000Z</time>
      </trkpt>
      <trkpt lat="46.97685" lon="16.04739">
        <ele>334.554574</ele>
        <time>2026-07-08T14:22:30.000Z</time>
      </trkpt>
      <trkpt lat="46.97684" lon="16.04739">
        <ele>334.703386</ele>
        <time>2026-07-08T14:22:31.000Z</time>
      </trkpt>
      <trkpt lat="46.97683" lon="16.04739">
        <ele>334.841759</ele>
        <time>2026-07-08T14:22:32.000Z</time>
      </trkpt>
      <trkpt lat="46.97682" lon="16.04739">
        <ele>334.927103</ele>
        <time>2026-07-08T14:22:33.000Z</time>
      </trkpt>
      <trkpt lat="46.97682" lon="16.04739">
        <ele>334.948362</ele>
        <time>2026-07-08T14:22:34.000Z</time>
      </trkpt>
      <trkpt lat="46.97677" lon="16.04738">
        <ele>335.40065</ele>
        <time>2026-07-08T14:22:57.000Z</time>
      </trkpt>
      <trkpt lat="46.97676" lon="16.04738">
        <ele>335.560257</ele>
        <time>2026-07-08T14:22:58.000Z</time>
      </trkpt>
      <trkpt lat="46.97674" lon="16.04738">
        <ele>335.719698</ele>
        <time>2026-07-08T14:22:59.000Z</time>
      </trkpt>
      <trkpt lat="46.97673" lon="16.04738">
        <ele>335.879304</ele>
        <time>2026-07-08T14:23:00.000Z</time>
      </trkpt>
      <trkpt lat="46.97671" lon="16.04738">
        <ele>336.039404</ele>
        <time>2026-07-08T14:23:01.000Z</time>
      </trkpt>
      <trkpt lat="46.9767" lon="16.04738">
        <ele>336.178346</ele>
        <time>2026-07-08T14:23:02.000Z</time>
      </trkpt>
      <trkpt lat="46.97668" lon="16.04738">
        <ele>336.359191</ele>
        <time>2026-07-08T14:23:03.000Z</time>
      </trkpt>
      <trkpt lat="46.97667" lon="16.04739">
        <ele>336.519291</ele>
        <time>2026-07-08T14:23:04.000Z</time>
      </trkpt>
      <trkpt lat="46.97665" lon="16.04738">
        <ele>336.679391</ele>
        <time>2026-07-08T14:23:05.000Z</time>
      </trkpt>
      <trkpt lat="46.97664" lon="16.04738">
        <ele>336.849616</ele>
        <time>2026-07-08T14:23:06.000Z</time>
      </trkpt>
      <trkpt lat="46.97662" lon="16.04738">
        <ele>337.009058</ele>
        <time>2026-07-08T14:23:07.000Z</time>
      </trkpt>
      <trkpt lat="46.97661" lon="16.04738">
        <ele>337.168664</ele>
        <time>2026-07-08T14:23:08.000Z</time>
      </trkpt>
      <trkpt lat="46.97659" lon="16.04739">
        <ele>337.318181</ele>
        <time>2026-07-08T14:23:09.000Z</time>
      </trkpt>
      <trkpt lat="46.97658" lon="16.04739">
        <ele>337.478281</ele>
        <time>2026-07-08T14:23:10.000Z</time>
      </trkpt>
      <trkpt lat="46.97657" lon="16.04739">
        <ele>337.618166</ele>
        <time>2026-07-08T14:23:11.000Z</time>
      </trkpt>
      <trkpt lat="46.97655" lon="16.04739">
        <ele>337.778266</ele>
        <time>2026-07-08T14:23:12.000Z</time>
      </trkpt>
      <trkpt lat="46.97653" lon="16.04739">
        <ele>337.959547</ele>
        <time>2026-07-08T14:23:13.000Z</time>
      </trkpt>
      <trkpt lat="46.97652" lon="16.04739">
        <ele>338.130235</ele>
        <time>2026-07-08T14:23:14.000Z</time>
      </trkpt>
      <trkpt lat="46.9765" lon="16.04739">
        <ele>338.311081</ele>
        <time>2026-07-08T14:23:15.000Z</time>
      </trkpt>
      <trkpt lat="46.97648" lon="16.04739">
        <ele>338.491927</ele>
        <time>2026-07-08T14:23:16.000Z</time>
      </trkpt>
      <trkpt lat="46.97647" lon="16.04739">
        <ele>338.662615</ele>
        <time>2026-07-08T14:23:17.000Z</time>
      </trkpt>
      <trkpt lat="46.97645" lon="16.04739">
        <ele>338.822715</ele>
        <time>2026-07-08T14:23:18.000Z</time>
      </trkpt>
      <trkpt lat="46.97644" lon="16.04739">
        <ele>338.971703</ele>
        <time>2026-07-08T14:23:19.000Z</time>
      </trkpt>
      <trkpt lat="46.97642" lon="16.0474">
        <ele>339.133762</ele>
        <time>2026-07-08T14:23:20.000Z</time>
      </trkpt>
      <trkpt lat="46.97641" lon="16.0474">
        <ele>339.305219</ele>
        <time>2026-07-08T14:23:21.000Z</time>
      </trkpt>
      <trkpt lat="46.97639" lon="16.0474">
        <ele>339.485919</ele>
        <time>2026-07-08T14:23:22.000Z</time>
      </trkpt>
      <trkpt lat="46.97638" lon="16.0474">
        <ele>339.646019</ele>
        <time>2026-07-08T14:23:23.000Z</time>
      </trkpt>
      <trkpt lat="46.97636" lon="16.0474">
        <ele>339.805625</ele>
        <time>2026-07-08T14:23:24.000Z</time>
      </trkpt>
      <trkpt lat="46.97635" lon="16.0474">
        <ele>339.943808</ele>
        <time>2026-07-08T14:23:25.000Z</time>
      </trkpt>
      <trkpt lat="46.97633" lon="16.0474">
        <ele>340.103249</ele>
        <time>2026-07-08T14:23:26.000Z</time>
      </trkpt>
      <trkpt lat="46.97632" lon="16.0474">
        <ele>340.262691</ele>
        <time>2026-07-08T14:23:27.000Z</time>
      </trkpt>
      <trkpt lat="46.9763" lon="16.04741">
        <ele>340.412208</ele>
        <time>2026-07-08T14:23:28.000Z</time>
      </trkpt>
      <trkpt lat="46.97629" lon="16.04741">
        <ele>340.55419</ele>
        <time>2026-07-08T14:23:29.000Z</time>
      </trkpt>
      <trkpt lat="46.97628" lon="16.04741">
        <ele>340.690246</ele>
        <time>2026-07-08T14:23:30.000Z</time>
      </trkpt>
      <trkpt lat="46.97626" lon="16.04741">
        <ele>340.846376</ele>
        <time>2026-07-08T14:23:31.000Z</time>
      </trkpt>
      <trkpt lat="46.97625" lon="16.04741">
        <ele>341.00315</ele>
        <time>2026-07-08T14:23:32.000Z</time>
      </trkpt>
      <trkpt lat="46.97623" lon="16.04741">
        <ele>341.148871</ele>
        <time>2026-07-08T14:23:33.000Z</time>
      </trkpt>
      <trkpt lat="46.97622" lon="16.04741">
        <ele>341.306447</ele>
        <time>2026-07-08T14:23:34.000Z</time>
      </trkpt>
      <trkpt lat="46.9762" lon="16.04741">
        <ele>341.466564</ele>
        <time>2026-07-08T14:23:35.000Z</time>
      </trkpt>
      <trkpt lat="46.97619" lon="16.04742">
        <ele>341.59438</ele>
        <time>2026-07-08T14:23:36.000Z</time>
      </trkpt>
      <trkpt lat="46.97618" lon="16.04743">
        <ele>341.763192</ele>
        <time>2026-07-08T14:23:37.000Z</time>
      </trkpt>
      <trkpt lat="46.97617" lon="16.04744">
        <ele>341.885359</ele>
        <time>2026-07-08T14:23:38.000Z</time>
      </trkpt>
      <trkpt lat="46.97615" lon="16.04744">
        <ele>342.04165</ele>
        <time>2026-07-08T14:23:39.000Z</time>
      </trkpt>
      <trkpt lat="46.97614" lon="16.04743">
        <ele>342.195617</ele>
        <time>2026-07-08T14:23:40.000Z</time>
      </trkpt>
      <trkpt lat="46.97613" lon="16.04743">
        <ele>342.335511</ele>
        <time>2026-07-08T14:23:41.000Z</time>
      </trkpt>
      <trkpt lat="46.97611" lon="16.04742">
        <ele>342.475405</ele>
        <time>2026-07-08T14:23:42.000Z</time>
      </trkpt>
      <trkpt lat="46.9761" lon="16.04742">
        <ele>342.635521</ele>
        <time>2026-07-08T14:23:43.000Z</time>
      </trkpt>
      <trkpt lat="46.97609" lon="16.04741">
        <ele>342.76123</ele>
        <time>2026-07-08T14:23:44.000Z</time>
      </trkpt>
      <trkpt lat="46.97607" lon="16.04742">
        <ele>342.897286</ele>
        <time>2026-07-08T14:23:45.000Z</time>
      </trkpt>
      <trkpt lat="46.97606" lon="16.04742">
        <ele>343.043697</ele>
        <time>2026-07-08T14:23:46.000Z</time>
      </trkpt>
      <trkpt lat="46.97605" lon="16.04742">
        <ele>343.180677</ele>
        <time>2026-07-08T14:23:47.000Z</time>
      </trkpt>
      <trkpt lat="46.97603" lon="16.04743">
        <ele>343.32057</ele>
        <time>2026-07-08T14:23:48.000Z</time>
      </trkpt>
      <trkpt lat="46.97602" lon="16.04743">
        <ele>343.476975</ele>
        <time>2026-07-08T14:23:49.000Z</time>
      </trkpt>
      <trkpt lat="46.97601" lon="16.04744">
        <ele>343.611708</ele>
        <time>2026-07-08T14:23:50.000Z</time>
      </trkpt>
      <trkpt lat="46.97599" lon="16.04745">
        <ele>343.77083</ele>
        <time>2026-07-08T14:23:51.000Z</time>
      </trkpt>
      <trkpt lat="46.97598" lon="16.04746">
        <ele>343.928406</ele>
        <time>2026-07-08T14:23:52.000Z</time>
      </trkpt>
      <trkpt lat="46.97597" lon="16.04746">
        <ele>344.063719</ele>
        <time>2026-07-08T14:23:53.000Z</time>
      </trkpt>
      <trkpt lat="46.97595" lon="16.04745">
        <ele>344.199774</ele>
        <time>2026-07-08T14:23:54.000Z</time>
      </trkpt>
      <trkpt lat="46.97594" lon="16.04745">
        <ele>344.355904</ele>
        <time>2026-07-08T14:23:55.000Z</time>
      </trkpt>
      <trkpt lat="46.97592" lon="16.04746">
        <ele>344.512678</ele>
        <time>2026-07-08T14:23:56.000Z</time>
      </trkpt>
      <trkpt lat="46.97591" lon="16.04745">
        <ele>344.669452</ele>
        <time>2026-07-08T14:23:57.000Z</time>
      </trkpt>
      <trkpt lat="46.97589" lon="16.04745">
        <ele>344.816722</ele>
        <time>2026-07-08T14:23:58.000Z</time>
      </trkpt>
      <trkpt lat="46.97588" lon="16.04744">
        <ele>344.960878</ele>
        <time>2026-07-08T14:23:59.000Z</time>
      </trkpt>
      <trkpt lat="46.97587" lon="16.04744">
        <ele>345.102741</ele>
        <time>2026-07-08T14:24:00.000Z</time>
      </trkpt>
      <trkpt lat="46.97585" lon="16.04744">
        <ele>345.259032</ele>
        <time>2026-07-08T14:24:01.000Z</time>
      </trkpt>
      <trkpt lat="46.97584" lon="16.04744">
        <ele>345.417725</ele>
        <time>2026-07-08T14:24:02.000Z</time>
      </trkpt>
      <trkpt lat="46.97582" lon="16.04745">
        <ele>345.564995</ele>
        <time>2026-07-08T14:24:03.000Z</time>
      </trkpt>
      <trkpt lat="46.97581" lon="16.04745">
        <ele>345.70915</ele>
        <time>2026-07-08T14:24:04.000Z</time>
      </trkpt>
      <trkpt lat="46.9758" lon="16.04746">
        <ele>345.851013</ele>
        <time>2026-07-08T14:24:05.000Z</time>
      </trkpt>
      <trkpt lat="46.97578" lon="16.04747">
        <ele>346.010136</ele>
        <time>2026-07-08T14:24:06.000Z</time>
      </trkpt>
      <trkpt lat="46.97577" lon="16.04747">
        <ele>346.178031</ele>
        <time>2026-07-08T14:24:07.000Z</time>
      </trkpt>
      <trkpt lat="46.97575" lon="16.04747">
        <ele>346.334806</ele>
        <time>2026-07-08T14:24:08.000Z</time>
      </trkpt>
      <trkpt lat="46.97574" lon="16.04747">
        <ele>346.481217</ele>
        <time>2026-07-08T14:24:09.000Z</time>
      </trkpt>
      <trkpt lat="46.97573" lon="16.04747">
        <ele>346.621111</ele>
        <time>2026-07-08T14:24:10.000Z</time>
      </trkpt>
      <trkpt lat="46.97571" lon="16.04746">
        <ele>346.784964</ele>
        <time>2026-07-08T14:24:11.000Z</time>
      </trkpt>
      <trkpt lat="46.9757" lon="16.04745">
        <ele>346.946804</ele>
        <time>2026-07-08T14:24:12.000Z</time>
      </trkpt>
      <trkpt lat="46.97568" lon="16.04745">
        <ele>347.105497</ele>
        <time>2026-07-08T14:24:13.000Z</time>
      </trkpt>
      <trkpt lat="46.97566" lon="16.04745">
        <ele>347.283722</ele>
        <time>2026-07-08T14:24:14.000Z</time>
      </trkpt>
      <trkpt lat="46.97565" lon="16.04745">
        <ele>347.420701</ele>
        <time>2026-07-08T14:24:15.000Z</time>
      </trkpt>
      <trkpt lat="46.97564" lon="16.04746">
        <ele>347.555134</ele>
        <time>2026-07-08T14:24:16.000Z</time>
      </trkpt>
      <trkpt lat="46.97562" lon="16.04746">
        <ele>347.718988</ele>
        <time>2026-07-08T14:24:17.000Z</time>
      </trkpt>
      <trkpt lat="46.97561" lon="16.04747">
        <ele>347.885133</ele>
        <time>2026-07-08T14:24:18.000Z</time>
      </trkpt>
      <trkpt lat="46.97559" lon="16.04748">
        <ele>348.058933</ele>
        <time>2026-07-08T14:24:19.000Z</time>
      </trkpt>
      <trkpt lat="46.97558" lon="16.04748">
        <ele>348.21905</ele>
        <time>2026-07-08T14:24:20.000Z</time>
      </trkpt>
      <trkpt lat="46.97556" lon="16.04749">
        <ele>348.379167</ele>
        <time>2026-07-08T14:24:21.000Z</time>
      </trkpt>
      <trkpt lat="46.97555" lon="16.04749">
        <ele>348.505874</ele>
        <time>2026-07-08T14:24:22.000Z</time>
      </trkpt>
      <trkpt lat="46.97554" lon="16.04749">
        <ele>348.662004</ele>
        <time>2026-07-08T14:24:23.000Z</time>
      </trkpt>
      <trkpt lat="46.97552" lon="16.04749">
        <ele>348.801898</ele>
        <time>2026-07-08T14:24:24.000Z</time>
      </trkpt>
      <trkpt lat="46.97551" lon="16.04748">
        <ele>348.965751</ele>
        <time>2026-07-08T14:24:25.000Z</time>
      </trkpt>
      <trkpt lat="46.97549" lon="16.04747">
        <ele>349.125868</ele>
        <time>2026-07-08T14:24:26.000Z</time>
      </trkpt>
      <trkpt lat="46.97548" lon="16.04747">
        <ele>349.283444</ele>
        <time>2026-07-08T14:24:27.000Z</time>
      </trkpt>
      <trkpt lat="46.97546" lon="16.04747">
        <ele>349.433429</ele>
        <time>2026-07-08T14:24:28.000Z</time>
      </trkpt>
      <trkpt lat="46.97545" lon="16.04746">
        <ele>349.570408</ele>
        <time>2026-07-08T14:24:29.000Z</time>
      </trkpt>
      <trkpt lat="46.97544" lon="16.04746">
        <ele>349.727183</ele>
        <time>2026-07-08T14:24:30.000Z</time>
      </trkpt>
      <trkpt lat="46.97542" lon="16.04746">
        <ele>349.883312</ele>
        <time>2026-07-08T14:24:31.000Z</time>
      </trkpt>
      <trkpt lat="46.97541" lon="16.04746">
        <ele>350.040087</ele>
        <time>2026-07-08T14:24:32.000Z</time>
      </trkpt>
      <trkpt lat="46.97539" lon="16.04746">
        <ele>350.196216</ele>
        <time>2026-07-08T14:24:33.000Z</time>
      </trkpt>
      <trkpt lat="46.97538" lon="16.04746">
        <ele>350.321925</ele>
        <time>2026-07-08T14:24:34.000Z</time>
      </trkpt>
      <trkpt lat="46.97536" lon="16.04747">
        <ele>350.485778</ele>
        <time>2026-07-08T14:24:35.000Z</time>
      </trkpt>
      <trkpt lat="46.97535" lon="16.04747">
        <ele>350.627641</ele>
        <time>2026-07-08T14:24:36.000Z</time>
      </trkpt>
      <trkpt lat="46.97534" lon="16.04748">
        <ele>350.787758</ele>
        <time>2026-07-08T14:24:37.000Z</time>
      </trkpt>
      <trkpt lat="46.97532" lon="16.04748">
        <ele>350.968232</ele>
        <time>2026-07-08T14:24:38.000Z</time>
      </trkpt>
      <trkpt lat="46.9753" lon="16.04749">
        <ele>351.128349</ele>
        <time>2026-07-08T14:24:39.000Z</time>
      </trkpt>
      <trkpt lat="46.97529" lon="16.04749">
        <ele>351.287042</ele>
        <time>2026-07-08T14:24:40.000Z</time>
      </trkpt>
      <trkpt lat="46.97527" lon="16.04749">
        <ele>351.443333</ele>
        <time>2026-07-08T14:24:41.000Z</time>
      </trkpt>
      <trkpt lat="46.97526" lon="16.04749">
        <ele>351.599463</ele>
        <time>2026-07-08T14:24:42.000Z</time>
      </trkpt>
      <trkpt lat="46.97524" lon="16.04749">
        <ele>351.755753</ele>
        <time>2026-07-08T14:24:43.000Z</time>
      </trkpt>
      <trkpt lat="46.97523" lon="16.04749">
        <ele>351.91587</ele>
        <time>2026-07-08T14:24:44.000Z</time>
      </trkpt>
      <trkpt lat="46.97521" lon="16.04748">
        <ele>352.086152</ele>
        <time>2026-07-08T14:24:45.000Z</time>
      </trkpt>
      <trkpt lat="46.9752" lon="16.04748">
        <ele>352.246269</ele>
        <time>2026-07-08T14:24:46.000Z</time>
      </trkpt>
      <trkpt lat="46.97518" lon="16.04747">
        <ele>352.425481</ele>
        <time>2026-07-08T14:24:47.000Z</time>
      </trkpt>
      <trkpt lat="46.97516" lon="16.04747">
        <ele>352.602571</ele>
        <time>2026-07-08T14:24:48.000Z</time>
      </trkpt>
      <trkpt lat="46.97515" lon="16.04747">
        <ele>352.790464</ele>
        <time>2026-07-08T14:24:49.000Z</time>
      </trkpt>
      <trkpt lat="46.97513" lon="16.04747">
        <ele>352.947238</ele>
        <time>2026-07-08T14:24:50.000Z</time>
      </trkpt>
      <trkpt lat="46.97511" lon="16.04747">
        <ele>353.124185</ele>
        <time>2026-07-08T14:24:51.000Z</time>
      </trkpt>
      <trkpt lat="46.9751" lon="16.04747">
        <ele>353.282878</ele>
        <time>2026-07-08T14:24:52.000Z</time>
      </trkpt>
      <trkpt lat="46.97508" lon="16.04748">
        <ele>353.454781</ele>
        <time>2026-07-08T14:24:53.000Z</time>
      </trkpt>
      <trkpt lat="46.97507" lon="16.04749">
        <ele>353.623488</ele>
        <time>2026-07-08T14:24:54.000Z</time>
      </trkpt>
      <trkpt lat="46.97505" lon="16.0475">
        <ele>353.798071</ele>
        <time>2026-07-08T14:24:55.000Z</time>
      </trkpt>
      <trkpt lat="46.97504" lon="16.04751">
        <ele>353.969594</ele>
        <time>2026-07-08T14:24:56.000Z</time>
      </trkpt>
      <trkpt lat="46.97502" lon="16.04751">
        <ele>354.167868</ele>
        <time>2026-07-08T14:24:57.000Z</time>
      </trkpt>
      <trkpt lat="46.975" lon="16.0475">
        <ele>354.343831</ele>
        <time>2026-07-08T14:24:58.000Z</time>
      </trkpt>
      <trkpt lat="46.97499" lon="16.04749">
        <ele>354.53307</ele>
        <time>2026-07-08T14:24:59.000Z</time>
      </trkpt>
      <trkpt lat="46.97498" lon="16.04746">
        <ele>354.73176</ele>
        <time>2026-07-08T14:25:00.000Z</time>
      </trkpt>
      <trkpt lat="46.97498" lon="16.04743">
        <ele>354.930888</ele>
        <time>2026-07-08T14:25:01.000Z</time>
      </trkpt>
      <trkpt lat="46.97498" lon="16.0474">
        <ele>355.122925</ele>
        <time>2026-07-08T14:25:02.000Z</time>
      </trkpt>
      <trkpt lat="46.97499" lon="16.04738">
        <ele>355.294361</ele>
        <time>2026-07-08T14:25:03.000Z</time>
      </trkpt>
      <trkpt lat="46.975" lon="16.04736">
        <ele>355.482662</ele>
        <time>2026-07-08T14:25:04.000Z</time>
      </trkpt>
      <trkpt lat="46.975" lon="16.04734">
        <ele>355.650925</ele>
        <time>2026-07-08T14:25:05.000Z</time>
      </trkpt>
      <trkpt lat="46.97501" lon="16.04731">
        <ele>355.815608</ele>
        <time>2026-07-08T14:25:06.000Z</time>
      </trkpt>
      <trkpt lat="46.97501" lon="16.04729">
        <ele>355.966196</ele>
        <time>2026-07-08T14:25:07.000Z</time>
      </trkpt>
      <trkpt lat="46.97501" lon="16.04727">
        <ele>356.13791</ele>
        <time>2026-07-08T14:25:08.000Z</time>
      </trkpt>
      <trkpt lat="46.97501" lon="16.04724">
        <ele>356.31546</ele>
        <time>2026-07-08T14:25:09.000Z</time>
      </trkpt>
      <trkpt lat="46.97501" lon="16.04722">
        <ele>356.494226</ele>
        <time>2026-07-08T14:25:10.000Z</time>
      </trkpt>
      <trkpt lat="46.97501" lon="16.04719">
        <ele>356.671776</ele>
        <time>2026-07-08T14:25:11.000Z</time>
      </trkpt>
      <trkpt lat="46.97501" lon="16.04717">
        <ele>356.849325</ele>
        <time>2026-07-08T14:25:12.000Z</time>
      </trkpt>
      <trkpt lat="46.97501" lon="16.04714">
        <ele>357.028091</ele>
        <time>2026-07-08T14:25:13.000Z</time>
      </trkpt>
      <trkpt lat="46.97501" lon="16.04712">
        <ele>357.191769</ele>
        <time>2026-07-08T14:25:14.000Z</time>
      </trkpt>
      <trkpt lat="46.97501" lon="16.0471">
        <ele>357.369623</ele>
        <time>2026-07-08T14:25:15.000Z</time>
      </trkpt>
      <trkpt lat="46.97501" lon="16.04707">
        <ele>357.525867</ele>
        <time>2026-07-08T14:25:16.000Z</time>
      </trkpt>
      <trkpt lat="46.97501" lon="16.04705">
        <ele>357.689213</ele>
        <time>2026-07-08T14:25:17.000Z</time>
      </trkpt>
      <trkpt lat="46.97501" lon="16.04703">
        <ele>357.866762</ele>
        <time>2026-07-08T14:25:18.000Z</time>
      </trkpt>
      <trkpt lat="46.97501" lon="16.047">
        <ele>358.058799</ele>
        <time>2026-07-08T14:25:19.000Z</time>
      </trkpt>
      <trkpt lat="46.97501" lon="16.04697">
        <ele>358.236348</ele>
        <time>2026-07-08T14:25:20.000Z</time>
      </trkpt>
      <trkpt lat="46.97502" lon="16.04695">
        <ele>358.418714</ele>
        <time>2026-07-08T14:25:21.000Z</time>
      </trkpt>
      <trkpt lat="46.97502" lon="16.04692">
        <ele>358.596569</ele>
        <time>2026-07-08T14:25:22.000Z</time>
      </trkpt>
      <trkpt lat="46.97502" lon="16.0469">
        <ele>358.781221</ele>
        <time>2026-07-08T14:25:23.000Z</time>
      </trkpt>
      <trkpt lat="46.97502" lon="16.04687">
        <ele>358.95877</ele>
        <time>2026-07-08T14:25:24.000Z</time>
      </trkpt>
      <trkpt lat="46.97502" lon="16.04685">
        <ele>359.154992</ele>
        <time>2026-07-08T14:25:25.000Z</time>
      </trkpt>
      <trkpt lat="46.97503" lon="16.04682">
        <ele>359.311052</ele>
        <time>2026-07-08T14:25:26.000Z</time>
      </trkpt>
      <trkpt lat="46.97503" lon="16.0468">
        <ele>359.438075</ele>
        <time>2026-07-08T14:25:27.000Z</time>
      </trkpt>
      <trkpt lat="46.97504" lon="16.04677">
        <ele>359.577477</ele>
        <time>2026-07-08T14:25:28.000Z</time>
      </trkpt>
      <trkpt lat="46.97505" lon="16.04675">
        <ele>359.716878</ele>
        <time>2026-07-08T14:25:29.000Z</time>
      </trkpt>
      <trkpt lat="46.97505" lon="16.04672">
        <ele>359.861199</ele>
        <time>2026-07-08T14:25:30.000Z</time>
      </trkpt>
      <trkpt lat="46.97506" lon="16.04669">
        <ele>360.005519</ele>
        <time>2026-07-08T14:25:31.000Z</time>
      </trkpt>
      <trkpt lat="46.97506" lon="16.04667">
        <ele>360.144868</ele>
        <time>2026-07-08T14:25:32.000Z</time>
      </trkpt>
      <trkpt lat="46.97507" lon="16.04664">
        <ele>360.281578</ele>
        <time>2026-07-08T14:25:33.000Z</time>
      </trkpt>
      <trkpt lat="46.97508" lon="16.04662">
        <ele>360.427392</ele>
        <time>2026-07-08T14:25:34.000Z</time>
      </trkpt>
      <trkpt lat="46.97509" lon="16.0466">
        <ele>360.563759</ele>
        <time>2026-07-08T14:25:35.000Z</time>
      </trkpt>
      <trkpt lat="46.9751" lon="16.04657">
        <ele>360.696933</ele>
        <time>2026-07-08T14:25:36.000Z</time>
      </trkpt>
      <trkpt lat="46.9751" lon="16.04655">
        <ele>360.834723</ele>
        <time>2026-07-08T14:25:37.000Z</time>
      </trkpt>
      <trkpt lat="46.97511" lon="16.04653">
        <ele>360.971497</ele>
        <time>2026-07-08T14:25:38.000Z</time>
      </trkpt>
      <trkpt lat="46.97512" lon="16.0465">
        <ele>361.104672</ele>
        <time>2026-07-08T14:25:39.000Z</time>
      </trkpt>
      <trkpt lat="46.97513" lon="16.04648">
        <ele>361.233272</ele>
        <time>2026-07-08T14:25:40.000Z</time>
      </trkpt>
      <trkpt lat="46.97514" lon="16.04646">
        <ele>361.370659</ele>
        <time>2026-07-08T14:25:41.000Z</time>
      </trkpt>
      <trkpt lat="46.97515" lon="16.04644">
        <ele>361.502381</ele>
        <time>2026-07-08T14:25:42.000Z</time>
      </trkpt>
      <trkpt lat="46.97517" lon="16.04643">
        <ele>361.634131</ele>
        <time>2026-07-08T14:25:43.000Z</time>
      </trkpt>
      <trkpt lat="46.97518" lon="16.04642">
        <ele>361.771421</ele>
        <time>2026-07-08T14:25:44.000Z</time>
      </trkpt>
      <trkpt lat="46.9752" lon="16.0464">
        <ele>361.912223</ele>
        <time>2026-07-08T14:25:45.000Z</time>
      </trkpt>
      <trkpt lat="46.97521" lon="16.04638">
        <ele>362.055581</ele>
        <time>2026-07-08T14:25:46.000Z</time>
      </trkpt>
      <trkpt lat="46.97523" lon="16.04637">
        <ele>362.19287</ele>
        <time>2026-07-08T14:25:47.000Z</time>
      </trkpt>
      <trkpt lat="46.97524" lon="16.04635">
        <ele>362.324592</ele>
        <time>2026-07-08T14:25:48.000Z</time>
      </trkpt>
      <trkpt lat="46.97525" lon="16.04633">
        <ele>362.459802</ele>
        <time>2026-07-08T14:25:49.000Z</time>
      </trkpt>
      <trkpt lat="46.97527" lon="16.04631">
        <ele>362.605097</ele>
        <time>2026-07-08T14:25:50.000Z</time>
      </trkpt>
      <trkpt lat="46.97528" lon="16.04629">
        <ele>362.74759</ele>
        <time>2026-07-08T14:25:51.000Z</time>
      </trkpt>
      <trkpt lat="46.97529" lon="16.04627">
        <ele>362.894161</ele>
        <time>2026-07-08T14:25:52.000Z</time>
      </trkpt>
      <trkpt lat="46.97531" lon="16.04625">
        <ele>363.034963</ele>
        <time>2026-07-08T14:25:53.000Z</time>
      </trkpt>
      <trkpt lat="46.97532" lon="16.04623">
        <ele>363.173766</ele>
        <time>2026-07-08T14:25:54.000Z</time>
      </trkpt>
      <trkpt lat="46.97534" lon="16.04621">
        <ele>363.330598</ele>
        <time>2026-07-08T14:25:55.000Z</time>
      </trkpt>
      <trkpt lat="46.97535" lon="16.04619">
        <ele>363.48073</ele>
        <time>2026-07-08T14:25:56.000Z</time>
      </trkpt>
      <trkpt lat="46.97536" lon="16.04617">
        <ele>363.62854</ele>
        <time>2026-07-08T14:25:57.000Z</time>
      </trkpt>
      <trkpt lat="46.97538" lon="16.04615">
        <ele>363.781854</ele>
        <time>2026-07-08T14:25:58.000Z</time>
      </trkpt>
      <trkpt lat="46.97539" lon="16.04613">
        <ele>363.928424</ele>
        <time>2026-07-08T14:25:59.000Z</time>
      </trkpt>
      <trkpt lat="46.97541" lon="16.04612">
        <ele>364.077834</ele>
        <time>2026-07-08T14:26:00.000Z</time>
      </trkpt>
      <trkpt lat="46.97542" lon="16.0461">
        <ele>364.224404</ele>
        <time>2026-07-08T14:26:01.000Z</time>
      </trkpt>
      <trkpt lat="46.97544" lon="16.04608">
        <ele>364.384842</ele>
        <time>2026-07-08T14:26:02.000Z</time>
      </trkpt>
      <trkpt lat="46.97545" lon="16.04606">
        <ele>364.538157</ele>
        <time>2026-07-08T14:26:03.000Z</time>
      </trkpt>
      <trkpt lat="46.97547" lon="16.04604">
        <ele>364.684727</ele>
        <time>2026-07-08T14:26:04.000Z</time>
      </trkpt>
      <trkpt lat="46.97549" lon="16.04602">
        <ele>364.84954</ele>
        <time>2026-07-08T14:26:05.000Z</time>
      </trkpt>
      <trkpt lat="46.9755" lon="16.046">
        <ele>365.014353</ele>
        <time>2026-07-08T14:26:06.000Z</time>
      </trkpt>
      <trkpt lat="46.97552" lon="16.04598">
        <ele>365.164244</ele>
        <time>2026-07-08T14:26:07.000Z</time>
      </trkpt>
      <trkpt lat="46.97553" lon="16.04596">
        <ele>365.310814</ele>
        <time>2026-07-08T14:26:08.000Z</time>
      </trkpt>
      <trkpt lat="46.97555" lon="16.04594">
        <ele>365.471252</ele>
        <time>2026-07-08T14:26:09.000Z</time>
      </trkpt>
      <trkpt lat="46.97556" lon="16.04592">
        <ele>365.623747</ele>
        <time>2026-07-08T14:26:10.000Z</time>
      </trkpt>
      <trkpt lat="46.97558" lon="16.0459">
        <ele>365.78856</ele>
        <time>2026-07-08T14:26:11.000Z</time>
      </trkpt>
      <trkpt lat="46.9756" lon="16.04588">
        <ele>365.941874</ele>
        <time>2026-07-08T14:26:12.000Z</time>
      </trkpt>
      <trkpt lat="46.97561" lon="16.04586">
        <ele>366.100433</ele>
        <time>2026-07-08T14:26:13.000Z</time>
      </trkpt>
      <trkpt lat="46.97563" lon="16.04585">
        <ele>366.249843</ele>
        <time>2026-07-08T14:26:14.000Z</time>
      </trkpt>
      <trkpt lat="46.97565" lon="16.04583">
        <ele>366.408373</ele>
        <time>2026-07-08T14:26:15.000Z</time>
      </trkpt>
      <trkpt lat="46.97566" lon="16.04582">
        <ele>366.551971</ele>
        <time>2026-07-08T14:26:16.000Z</time>
      </trkpt>
      <trkpt lat="46.97568" lon="16.0458">
        <ele>366.701862</ele>
        <time>2026-07-08T14:26:17.000Z</time>
      </trkpt>
      <trkpt lat="46.97569" lon="16.04578">
        <ele>366.858693</ele>
        <time>2026-07-08T14:26:18.000Z</time>
      </trkpt>
      <trkpt lat="46.97571" lon="16.04576">
        <ele>367.012007</ele>
        <time>2026-07-08T14:26:19.000Z</time>
      </trkpt>
      <trkpt lat="46.97572" lon="16.04574">
        <ele>367.161898</ele>
        <time>2026-07-08T14:26:20.000Z</time>
      </trkpt>
      <trkpt lat="46.97574" lon="16.04572">
        <ele>367.314644</ele>
        <time>2026-07-08T14:26:21.000Z</time>
      </trkpt>
      <trkpt lat="46.97576" lon="16.04571">
        <ele>367.464666</ele>
        <time>2026-07-08T14:26:22.000Z</time>
      </trkpt>
      <trkpt lat="46.97577" lon="16.04569">
        <ele>367.60555</ele>
        <time>2026-07-08T14:26:23.000Z</time>
      </trkpt>
      <trkpt lat="46.97579" lon="16.04568">
        <ele>367.76408</ele>
        <time>2026-07-08T14:26:24.000Z</time>
      </trkpt>
      <trkpt lat="46.97581" lon="16.04567">
        <ele>367.893281</ele>
        <time>2026-07-08T14:26:25.000Z</time>
      </trkpt>
      <trkpt lat="46.97582" lon="16.04565">
        <ele>368.021625</ele>
        <time>2026-07-08T14:26:26.000Z</time>
      </trkpt>
      <trkpt lat="46.97583" lon="16.04563">
        <ele>368.160428</ele>
        <time>2026-07-08T14:26:27.000Z</time>
      </trkpt>
      <trkpt lat="46.97585" lon="16.04562">
        <ele>368.297717</ele>
        <time>2026-07-08T14:26:28.000Z</time>
      </trkpt>
      <trkpt lat="46.97586" lon="16.0456">
        <ele>368.435006</ele>
        <time>2026-07-08T14:26:29.000Z</time>
      </trkpt>
      <trkpt lat="46.97588" lon="16.04559">
        <ele>368.572295</ele>
        <time>2026-07-08T14:26:30.000Z</time>
      </trkpt>
      <trkpt lat="46.97589" lon="16.04557">
        <ele>368.703408</ele>
        <time>2026-07-08T14:26:31.000Z</time>
      </trkpt>
      <trkpt lat="46.97591" lon="16.04556">
        <ele>368.835158</ele>
        <time>2026-07-08T14:26:32.000Z</time>
      </trkpt>
      <trkpt lat="46.97592" lon="16.04555">
        <ele>368.971043</ele>
        <time>2026-07-08T14:26:33.000Z</time>
      </trkpt>
      <trkpt lat="46.97594" lon="16.04554">
        <ele>369.111538</ele>
        <time>2026-07-08T14:26:34.000Z</time>
      </trkpt>
      <trkpt lat="46.97596" lon="16.04553">
        <ele>369.240739</ele>
        <time>2026-07-08T14:26:35.000Z</time>
      </trkpt>
      <trkpt lat="46.97597" lon="16.04551">
        <ele>369.372489</ele>
        <time>2026-07-08T14:26:36.000Z</time>
      </trkpt>
      <trkpt lat="46.97599" lon="16.0455">
        <ele>369.509778</ele>
        <time>2026-07-08T14:26:37.000Z</time>
      </trkpt>
      <trkpt lat="46.976" lon="16.04548">
        <ele>369.659799</ele>
        <time>2026-07-08T14:26:38.000Z</time>
      </trkpt>
      <trkpt lat="46.97602" lon="16.04547">
        <ele>369.800684</ele>
        <time>2026-07-08T14:26:39.000Z</time>
      </trkpt>
      <trkpt lat="46.97604" lon="16.04545">
        <ele>369.950705</ele>
        <time>2026-07-08T14:26:40.000Z</time>
      </trkpt>
      <trkpt lat="46.97605" lon="16.04544">
        <ele>370.090966</ele>
        <time>2026-07-08T14:26:41.000Z</time>
      </trkpt>
      <trkpt lat="46.97607" lon="16.04542">
        <ele>370.24656</ele>
        <time>2026-07-08T14:26:42.000Z</time>
      </trkpt>
      <trkpt lat="46.97609" lon="16.04541">
        <ele>370.398273</ele>
        <time>2026-07-08T14:26:43.000Z</time>
      </trkpt>
      <trkpt lat="46.9761" lon="16.0454">
        <ele>370.547777</ele>
        <time>2026-07-08T14:26:44.000Z</time>
      </trkpt>
      <trkpt lat="46.97612" lon="16.04539">
        <ele>370.704516</ele>
        <time>2026-07-08T14:26:45.000Z</time>
      </trkpt>
      <trkpt lat="46.97614" lon="16.04538">
        <ele>370.849638</ele>
        <time>2026-07-08T14:26:46.000Z</time>
      </trkpt>
      <trkpt lat="46.97616" lon="16.04539">
        <ele>371.008741</ele>
        <time>2026-07-08T14:26:47.000Z</time>
      </trkpt>
      <trkpt lat="46.97618" lon="16.04538">
        <ele>371.162133</ele>
        <time>2026-07-08T14:26:48.000Z</time>
      </trkpt>
      <trkpt lat="46.9762" lon="16.04537">
        <ele>371.314762</ele>
        <time>2026-07-08T14:26:49.000Z</time>
      </trkpt>
      <trkpt lat="46.97622" lon="16.04536">
        <ele>371.4715</ele>
        <time>2026-07-08T14:26:50.000Z</time>
      </trkpt>
      <trkpt lat="46.97624" lon="16.04535">
        <ele>371.621005</ele>
        <time>2026-07-08T14:26:51.000Z</time>
      </trkpt>
      <trkpt lat="46.97626" lon="16.04534">
        <ele>371.784393</ele>
        <time>2026-07-08T14:26:52.000Z</time>
      </trkpt>
      <trkpt lat="46.97628" lon="16.04533">
        <ele>371.936106</ele>
        <time>2026-07-08T14:26:53.000Z</time>
      </trkpt>
      <trkpt lat="46.9763" lon="16.04531">
        <ele>372.099494</ele>
        <time>2026-07-08T14:26:54.000Z</time>
      </trkpt>
      <trkpt lat="46.97632" lon="16.04531">
        <ele>372.253837</ele>
        <time>2026-07-08T14:26:55.000Z</time>
      </trkpt>
      <trkpt lat="46.97634" lon="16.0453">
        <ele>372.407229</ele>
        <time>2026-07-08T14:26:56.000Z</time>
      </trkpt>
      <trkpt lat="46.97636" lon="16.0453">
        <ele>372.555346</ele>
        <time>2026-07-08T14:26:57.000Z</time>
      </trkpt>
      <trkpt lat="46.97638" lon="16.04529">
        <ele>372.710806</ele>
        <time>2026-07-08T14:26:58.000Z</time>
      </trkpt>
      <trkpt lat="46.9764" lon="16.04528">
        <ele>372.854982</ele>
        <time>2026-07-08T14:26:59.000Z</time>
      </trkpt>
      <trkpt lat="46.97641" lon="16.04527">
        <ele>372.992164</ele>
        <time>2026-07-08T14:27:00.000Z</time>
      </trkpt>
      <trkpt lat="46.97643" lon="16.04526">
        <ele>373.133043</ele>
        <time>2026-07-08T14:27:01.000Z</time>
      </trkpt>
      <trkpt lat="46.97645" lon="16.04526">
        <ele>373.263602</ele>
        <time>2026-07-08T14:27:02.000Z</time>
      </trkpt>
      <trkpt lat="46.97647" lon="16.04525">
        <ele>373.397646</ele>
        <time>2026-07-08T14:27:03.000Z</time>
      </trkpt>
      <trkpt lat="46.97649" lon="16.04524">
        <ele>373.528189</ele>
        <time>2026-07-08T14:27:04.000Z</time>
      </trkpt>
      <trkpt lat="46.9765" lon="16.04523">
        <ele>373.658731</ele>
        <time>2026-07-08T14:27:05.000Z</time>
      </trkpt>
      <trkpt lat="46.97652" lon="16.04522">
        <ele>373.782689</ele>
        <time>2026-07-08T14:27:06.000Z</time>
      </trkpt>
      <trkpt lat="46.97654" lon="16.0452">
        <ele>373.93424</ele>
        <time>2026-07-08T14:27:07.000Z</time>
      </trkpt>
      <trkpt lat="46.97655" lon="16.04519">
        <ele>374.060184</ele>
        <time>2026-07-08T14:27:08.000Z</time>
      </trkpt>
      <trkpt lat="46.97657" lon="16.04518">
        <ele>374.207623</ele>
        <time>2026-07-08T14:27:09.000Z</time>
      </trkpt>
      <trkpt lat="46.97659" lon="16.04517">
        <ele>374.348545</ele>
        <time>2026-07-08T14:27:10.000Z</time>
      </trkpt>
      <trkpt lat="46.97661" lon="16.04516">
        <ele>374.479088</ele>
        <time>2026-07-08T14:27:11.000Z</time>
      </trkpt>
      <trkpt lat="46.97662" lon="16.04515">
        <ele>374.603046</ele>
        <time>2026-07-08T14:27:12.000Z</time>
      </trkpt>
      <trkpt lat="46.97664" lon="16.04514">
        <ele>374.735476</ele>
        <time>2026-07-08T14:27:13.000Z</time>
      </trkpt>
      <trkpt lat="46.97666" lon="16.04513">
        <ele>374.869944</ele>
        <time>2026-07-08T14:27:14.000Z</time>
      </trkpt>
      <trkpt lat="46.97667" lon="16.04511">
        <ele>374.991728</ele>
        <time>2026-07-08T14:27:15.000Z</time>
      </trkpt>
      <trkpt lat="46.97669" lon="16.0451">
        <ele>375.1221</ele>
        <time>2026-07-08T14:27:16.000Z</time>
      </trkpt>
      <trkpt lat="46.9767" lon="16.04508">
        <ele>375.251663</ele>
        <time>2026-07-08T14:27:17.000Z</time>
      </trkpt>
      <trkpt lat="46.97672" lon="16.04507">
        <ele>375.37264</ele>
        <time>2026-07-08T14:27:18.000Z</time>
      </trkpt>
      <trkpt lat="46.97673" lon="16.04505">
        <ele>375.490548</ele>
        <time>2026-07-08T14:27:19.000Z</time>
      </trkpt>
      <trkpt lat="46.97674" lon="16.04504">
        <ele>375.609484</ele>
        <time>2026-07-08T14:27:20.000Z</time>
      </trkpt>
      <trkpt lat="46.97675" lon="16.04502">
        <ele>375.72235</ele>
        <time>2026-07-08T14:27:21.000Z</time>
      </trkpt>
      <trkpt lat="46.97676" lon="16.045">
        <ele>375.842913</ele>
        <time>2026-07-08T14:27:22.000Z</time>
      </trkpt>
      <trkpt lat="46.97677" lon="16.04498">
        <ele>375.955639</ele>
        <time>2026-07-08T14:27:23.000Z</time>
      </trkpt>
      <trkpt lat="46.97678" lon="16.04496">
        <ele>376.084175</ele>
        <time>2026-07-08T14:27:24.000Z</time>
      </trkpt>
      <trkpt lat="46.97679" lon="16.04494">
        <ele>376.204738</ele>
        <time>2026-07-08T14:27:25.000Z</time>
      </trkpt>
      <trkpt lat="46.9768" lon="16.04492">
        <ele>376.323674</ele>
        <time>2026-07-08T14:27:26.000Z</time>
      </trkpt>
      <trkpt lat="46.97681" lon="16.0449">
        <ele>376.446039</ele>
        <time>2026-07-08T14:27:27.000Z</time>
      </trkpt>
      <trkpt lat="46.97682" lon="16.04488">
        <ele>376.558905</ele>
        <time>2026-07-08T14:27:28.000Z</time>
      </trkpt>
      <trkpt lat="46.97683" lon="16.04486">
        <ele>376.679468</ele>
        <time>2026-07-08T14:27:29.000Z</time>
      </trkpt>
      <trkpt lat="46.97684" lon="16.04484">
        <ele>376.792194</ele>
        <time>2026-07-08T14:27:30.000Z</time>
      </trkpt>
      <trkpt lat="46.97685" lon="16.04482">
        <ele>376.910225</ele>
        <time>2026-07-08T14:27:31.000Z</time>
      </trkpt>
      <trkpt lat="46.97685" lon="16.0448">
        <ele>377.025426</ele>
        <time>2026-07-08T14:27:32.000Z</time>
      </trkpt>
      <trkpt lat="46.97686" lon="16.04478">
        <ele>377.140835</ele>
        <time>2026-07-08T14:27:33.000Z</time>
      </trkpt>
      <trkpt lat="46.97686" lon="16.04475">
        <ele>377.254693</ele>
        <time>2026-07-08T14:27:34.000Z</time>
      </trkpt>
      <trkpt lat="46.97686" lon="16.04473">
        <ele>377.36378</ele>
        <time>2026-07-08T14:27:35.000Z</time>
      </trkpt>
      <trkpt lat="46.97687" lon="16.04471">
        <ele>377.476529</ele>
        <time>2026-07-08T14:27:36.000Z</time>
      </trkpt>
      <trkpt lat="46.97688" lon="16.04469">
        <ele>377.585824</ele>
        <time>2026-07-08T14:27:37.000Z</time>
      </trkpt>
      <trkpt lat="46.97689" lon="16.04467">
        <ele>377.69869</ele>
        <time>2026-07-08T14:27:38.000Z</time>
      </trkpt>
      <trkpt lat="46.9769" lon="16.04466">
        <ele>377.811085</ele>
        <time>2026-07-08T14:27:39.000Z</time>
      </trkpt>
      <trkpt lat="46.97691" lon="16.04464">
        <ele>377.920223</ele>
        <time>2026-07-08T14:27:40.000Z</time>
      </trkpt>
      <trkpt lat="46.97692" lon="16.04462">
        <ele>378.024676</ele>
        <time>2026-07-08T14:27:41.000Z</time>
      </trkpt>
      <trkpt lat="46.97692" lon="16.0446">
        <ele>378.128245</ele>
        <time>2026-07-08T14:27:42.000Z</time>
      </trkpt>
      <trkpt lat="46.97693" lon="16.04458">
        <ele>378.231813</ele>
        <time>2026-07-08T14:27:43.000Z</time>
      </trkpt>
      <trkpt lat="46.97693" lon="16.04456">
        <ele>378.33973</ele>
        <time>2026-07-08T14:27:44.000Z</time>
      </trkpt>
      <trkpt lat="46.97693" lon="16.04454">
        <ele>378.436976</ele>
        <time>2026-07-08T14:27:45.000Z</time>
      </trkpt>
      <trkpt lat="46.97693" lon="16.04452">
        <ele>378.548809</ele>
        <time>2026-07-08T14:27:46.000Z</time>
      </trkpt>
      <trkpt lat="46.97693" lon="16.04449">
        <ele>378.656017</ele>
        <time>2026-07-08T14:27:47.000Z</time>
      </trkpt>
      <trkpt lat="46.97693" lon="16.04447">
        <ele>378.771426</ele>
        <time>2026-07-08T14:27:48.000Z</time>
      </trkpt>
      <trkpt lat="46.97694" lon="16.04445">
        <ele>378.884175</ele>
        <time>2026-07-08T14:27:49.000Z</time>
      </trkpt>
      <trkpt lat="46.97694" lon="16.04443">
        <ele>378.992322</ele>
        <time>2026-07-08T14:27:50.000Z</time>
      </trkpt>
      <trkpt lat="46.97695" lon="16.04441">
        <ele>379.105072</ele>
        <time>2026-07-08T14:27:51.000Z</time>
      </trkpt>
      <trkpt lat="46.97695" lon="16.04438">
        <ele>379.220272</ele>
        <time>2026-07-08T14:27:52.000Z</time>
      </trkpt>
      <trkpt lat="46.97696" lon="16.04436">
        <ele>379.333914</ele>
        <time>2026-07-08T14:27:53.000Z</time>
      </trkpt>
      <trkpt lat="46.97697" lon="16.04434">
        <ele>379.451945</ele>
        <time>2026-07-08T14:27:54.000Z</time>
      </trkpt>
      <trkpt lat="46.97697" lon="16.04432">
        <ele>379.580804</ele>
        <time>2026-07-08T14:27:55.000Z</time>
      </trkpt>
      <trkpt lat="46.97698" lon="16.04429">
        <ele>379.707477</ele>
        <time>2026-07-08T14:27:56.000Z</time>
      </trkpt>
      <trkpt lat="46.97698" lon="16.04427">
        <ele>379.829243</ele>
        <time>2026-07-08T14:27:57.000Z</time>
      </trkpt>
      <trkpt lat="46.97697" lon="16.04424">
        <ele>379.960638</ele>
        <time>2026-07-08T14:27:58.000Z</time>
      </trkpt>
      <trkpt lat="46.97696" lon="16.04422">
        <ele>380.09495</ele>
        <time>2026-07-08T14:27:59.000Z</time>
      </trkpt>
      <trkpt lat="46.97694" lon="16.04421">
        <ele>380.225493</ele>
        <time>2026-07-08T14:28:00.000Z</time>
      </trkpt>
      <trkpt lat="46.97692" lon="16.04421">
        <ele>380.368353</ele>
        <time>2026-07-08T14:28:01.000Z</time>
      </trkpt>
      <trkpt lat="46.9769" lon="16.04421">
        <ele>380.525134</ele>
        <time>2026-07-08T14:28:02.000Z</time>
      </trkpt>
      <trkpt lat="46.97688" lon="16.04422">
        <ele>380.678611</ele>
        <time>2026-07-08T14:28:03.000Z</time>
      </trkpt>
      <trkpt lat="46.97686" lon="16.04422">
        <ele>380.823198</ele>
        <time>2026-07-08T14:28:04.000Z</time>
      </trkpt>
      <trkpt lat="46.97684" lon="16.04423">
        <ele>380.981853</ele>
        <time>2026-07-08T14:28:05.000Z</time>
      </trkpt>
      <trkpt lat="46.97681" lon="16.04423">
        <ele>381.140509</ele>
        <time>2026-07-08T14:28:06.000Z</time>
      </trkpt>
      <trkpt lat="46.97679" lon="16.04424">
        <ele>381.295136</ele>
        <time>2026-07-08T14:28:07.000Z</time>
      </trkpt>
      <trkpt lat="46.97677" lon="16.04425">
        <ele>381.462423</ele>
        <time>2026-07-08T14:28:08.000Z</time>
      </trkpt>
      <trkpt lat="46.97675" lon="16.04426">
        <ele>381.633391</ele>
        <time>2026-07-08T14:28:09.000Z</time>
      </trkpt>
      <trkpt lat="46.97672" lon="16.04427">
        <ele>381.808793</ele>
        <time>2026-07-08T14:28:10.000Z</time>
      </trkpt>
      <trkpt lat="46.9767" lon="16.04428">
        <ele>381.979761</ele>
        <time>2026-07-08T14:28:11.000Z</time>
      </trkpt>
      <trkpt lat="46.97668" lon="16.04429">
        <ele>382.164438</ele>
        <time>2026-07-08T14:28:12.000Z</time>
      </trkpt>
      <trkpt lat="46.97665" lon="16.0443">
        <ele>382.334087</ele>
        <time>2026-07-08T14:28:13.000Z</time>
      </trkpt>
      <trkpt lat="46.97663" lon="16.04431">
        <ele>382.516445</ele>
        <time>2026-07-08T14:28:14.000Z</time>
      </trkpt>
      <trkpt lat="46.9766" lon="16.04431">
        <ele>382.698802</ele>
        <time>2026-07-08T14:28:15.000Z</time>
      </trkpt>
      <trkpt lat="46.97658" lon="16.04432">
        <ele>382.880185</ele>
        <time>2026-07-08T14:28:16.000Z</time>
      </trkpt>
      <trkpt lat="46.97655" lon="16.04433">
        <ele>383.088277</ele>
        <time>2026-07-08T14:28:17.000Z</time>
      </trkpt>
      <trkpt lat="46.97652" lon="16.04433">
        <ele>383.289293</ele>
        <time>2026-07-08T14:28:18.000Z</time>
      </trkpt>
      <trkpt lat="46.97649" lon="16.04434">
        <ele>383.492589</ele>
        <time>2026-07-08T14:28:19.000Z</time>
      </trkpt>
      <trkpt lat="46.97646" lon="16.04435">
        <ele>383.703838</ele>
        <time>2026-07-08T14:28:20.000Z</time>
      </trkpt>
      <trkpt lat="46.97644" lon="16.04436">
        <ele>383.907134</ele>
        <time>2026-07-08T14:28:21.000Z</time>
      </trkpt>
      <trkpt lat="46.97641" lon="16.04436">
        <ele>384.102535</ele>
        <time>2026-07-08T14:28:22.000Z</time>
      </trkpt>
      <trkpt lat="46.97638" lon="16.04437">
        <ele>384.282347</ele>
        <time>2026-07-08T14:28:23.000Z</time>
      </trkpt>
      <trkpt lat="46.97636" lon="16.04437">
        <ele>384.462158</ele>
        <time>2026-07-08T14:28:24.000Z</time>
      </trkpt>
      <trkpt lat="46.97633" lon="16.04438">
        <ele>384.64197</ele>
        <time>2026-07-08T14:28:25.000Z</time>
      </trkpt>
      <trkpt lat="46.97631" lon="16.04438">
        <ele>384.82954</ele>
        <time>2026-07-08T14:28:26.000Z</time>
      </trkpt>
      <trkpt lat="46.97628" lon="16.04439">
        <ele>385.022199</ele>
        <time>2026-07-08T14:28:27.000Z</time>
      </trkpt>
      <trkpt lat="46.97625" lon="16.04439">
        <ele>385.216143</ele>
        <time>2026-07-08T14:28:28.000Z</time>
      </trkpt>
      <trkpt lat="46.97623" lon="16.0444">
        <ele>385.418565</ele>
        <time>2026-07-08T14:28:29.000Z</time>
      </trkpt>
      <trkpt lat="46.9762" lon="16.0444">
        <ele>385.620227</ele>
        <time>2026-07-08T14:28:30.000Z</time>
      </trkpt>
      <trkpt lat="46.97617" lon="16.04441">
        <ele>385.650552</ele>
        <time>2026-07-08T14:28:31.000Z</time>
      </trkpt>
      <trkpt lat="46.97615" lon="16.04442">
        <ele>385.650552</ele>
        <time>2026-07-08T14:28:32.000Z</time>
      </trkpt>
      <trkpt lat="46.97612" lon="16.04442">
        <ele>385.650552</ele>
        <time>2026-07-08T14:28:33.000Z</time>
      </trkpt>
      <trkpt lat="46.9761" lon="16.04443">
        <ele>385.650552</ele>
        <time>2026-07-08T14:28:34.000Z</time>
      </trkpt>
      <trkpt lat="46.97607" lon="16.04443">
        <ele>385.650552</ele>
        <time>2026-07-08T14:28:35.000Z</time>
      </trkpt>
      <trkpt lat="46.97605" lon="16.04443">
        <ele>385.650552</ele>
        <time>2026-07-08T14:28:36.000Z</time>
      </trkpt>
      <trkpt lat="46.97602" lon="16.04443">
        <ele>385.650552</ele>
        <time>2026-07-08T14:28:37.000Z</time>
      </trkpt>
      <trkpt lat="46.976" lon="16.04444">
        <ele>385.650552</ele>
        <time>2026-07-08T14:28:38.000Z</time>
      </trkpt>
      <trkpt lat="46.97597" lon="16.04444">
        <ele>385.650552</ele>
        <time>2026-07-08T14:28:39.000Z</time>
      </trkpt>
      <trkpt lat="46.97595" lon="16.04445">
        <ele>385.650552</ele>
        <time>2026-07-08T14:28:40.000Z</time>
      </trkpt>
      <trkpt lat="46.97592" lon="16.04445">
        <ele>385.650552</ele>
        <time>2026-07-08T14:28:41.000Z</time>
      </trkpt>
      <trkpt lat="46.9759" lon="16.04446">
        <ele>385.650552</ele>
        <time>2026-07-08T14:28:42.000Z</time>
      </trkpt>
      <trkpt lat="46.97587" lon="16.04446">
        <ele>385.650552</ele>
        <time>2026-07-08T14:28:43.000Z</time>
      </trkpt>
      <trkpt lat="46.97585" lon="16.04447">
        <ele>385.650552</ele>
        <time>2026-07-08T14:28:44.000Z</time>
      </trkpt>
      <trkpt lat="46.97582" lon="16.04447">
        <ele>385.650552</ele>
        <time>2026-07-08T14:28:45.000Z</time>
      </trkpt>
      <trkpt lat="46.9758" lon="16.04447">
        <ele>385.650552</ele>
        <time>2026-07-08T14:28:46.000Z</time>
      </trkpt>
      <trkpt lat="46.97578" lon="16.04448">
        <ele>385.650552</ele>
        <time>2026-07-08T14:28:47.000Z</time>
      </trkpt>
      <trkpt lat="46.97576" lon="16.04449">
        <ele>385.650552</ele>
        <time>2026-07-08T14:28:48.000Z</time>
      </trkpt>
      <trkpt lat="46.97574" lon="16.04449">
        <ele>385.650552</ele>
        <time>2026-07-08T14:28:49.000Z</time>
      </trkpt>
      <trkpt lat="46.97572" lon="16.04449">
        <ele>385.650552</ele>
        <time>2026-07-08T14:28:50.000Z</time>
      </trkpt>
      <trkpt lat="46.9757" lon="16.0445">
        <ele>385.650552</ele>
        <time>2026-07-08T14:28:51.000Z</time>
      </trkpt>
      <trkpt lat="46.97569" lon="16.0445">
        <ele>385.650552</ele>
        <time>2026-07-08T14:28:52.000Z</time>
      </trkpt>
      <trkpt lat="46.97567" lon="16.0445">
        <ele>385.650552</ele>
        <time>2026-07-08T14:28:53.000Z</time>
      </trkpt>
      <trkpt lat="46.97566" lon="16.0445">
        <ele>385.650552</ele>
        <time>2026-07-08T14:28:54.000Z</time>
      </trkpt>
      <trkpt lat="46.97564" lon="16.0445">
        <ele>385.650552</ele>
        <time>2026-07-08T14:28:55.000Z</time>
      </trkpt>
      <trkpt lat="46.97561" lon="16.0445">
        <ele>385.650552</ele>
        <time>2026-07-08T14:28:56.000Z</time>
      </trkpt>
      <trkpt lat="46.97559" lon="16.0445">
        <ele>385.650552</ele>
        <time>2026-07-08T14:28:57.000Z</time>
      </trkpt>
      <trkpt lat="46.97557" lon="16.04451">
        <ele>385.650552</ele>
        <time>2026-07-08T14:28:58.000Z</time>
      </trkpt>
      <trkpt lat="46.97555" lon="16.04452">
        <ele>385.650552</ele>
        <time>2026-07-08T14:28:59.000Z</time>
      </trkpt>
      <trkpt lat="46.97553" lon="16.04452">
        <ele>385.650552</ele>
        <time>2026-07-08T14:29:00.000Z</time>
      </trkpt>
      <trkpt lat="46.9755" lon="16.04452">
        <ele>385.650552</ele>
        <time>2026-07-08T14:29:01.000Z</time>
      </trkpt>
      <trkpt lat="46.97548" lon="16.04453">
        <ele>385.650552</ele>
        <time>2026-07-08T14:29:02.000Z</time>
      </trkpt>
      <trkpt lat="46.97545" lon="16.04453">
        <ele>385.650552</ele>
        <time>2026-07-08T14:29:03.000Z</time>
      </trkpt>
      <trkpt lat="46.97542" lon="16.04454">
        <ele>385.650552</ele>
        <time>2026-07-08T14:29:04.000Z</time>
      </trkpt>
      <trkpt lat="46.9754" lon="16.04455">
        <ele>385.650552</ele>
        <time>2026-07-08T14:29:05.000Z</time>
      </trkpt>
      <trkpt lat="46.97537" lon="16.04456">
        <ele>385.650552</ele>
        <time>2026-07-08T14:29:06.000Z</time>
      </trkpt>
      <trkpt lat="46.97535" lon="16.04456">
        <ele>385.650552</ele>
        <time>2026-07-08T14:29:07.000Z</time>
      </trkpt>
      <trkpt lat="46.97533" lon="16.04457">
        <ele>385.650552</ele>
        <time>2026-07-08T14:29:08.000Z</time>
      </trkpt>
      <trkpt lat="46.9753" lon="16.04458">
        <ele>385.650552</ele>
        <time>2026-07-08T14:29:09.000Z</time>
      </trkpt>
      <trkpt lat="46.97528" lon="16.04458">
        <ele>385.650552</ele>
        <time>2026-07-08T14:29:10.000Z</time>
      </trkpt>
      <trkpt lat="46.97526" lon="16.04459">
        <ele>385.650552</ele>
        <time>2026-07-08T14:29:11.000Z</time>
      </trkpt>
      <trkpt lat="46.97524" lon="16.04459">
        <ele>385.650552</ele>
        <time>2026-07-08T14:29:12.000Z</time>
      </trkpt>
      <trkpt lat="46.97522" lon="16.04458">
        <ele>385.650552</ele>
        <time>2026-07-08T14:29:13.000Z</time>
      </trkpt>
      <trkpt lat="46.9752" lon="16.04459">
        <ele>385.650552</ele>
        <time>2026-07-08T14:29:14.000Z</time>
      </trkpt>
      <trkpt lat="46.97518" lon="16.0446">
        <ele>385.650552</ele>
        <time>2026-07-08T14:29:15.000Z</time>
      </trkpt>
      <trkpt lat="46.97516" lon="16.0446">
        <ele>385.650552</ele>
        <time>2026-07-08T14:29:16.000Z</time>
      </trkpt>
      <trkpt lat="46.97514" lon="16.04461">
        <ele>385.650552</ele>
        <time>2026-07-08T14:29:17.000Z</time>
      </trkpt>
      <trkpt lat="46.97512" lon="16.04461">
        <ele>385.650552</ele>
        <time>2026-07-08T14:29:18.000Z</time>
      </trkpt>
      <trkpt lat="46.9751" lon="16.04462">
        <ele>385.650552</ele>
        <time>2026-07-08T14:29:19.000Z</time>
      </trkpt>
      <trkpt lat="46.97508" lon="16.04462">
        <ele>385.650552</ele>
        <time>2026-07-08T14:29:20.000Z</time>
      </trkpt>
      <trkpt lat="46.97506" lon="16.04463">
        <ele>385.650552</ele>
        <time>2026-07-08T14:29:21.000Z</time>
      </trkpt>
      <trkpt lat="46.97503" lon="16.04463">
        <ele>385.650552</ele>
        <time>2026-07-08T14:29:22.000Z</time>
      </trkpt>
      <trkpt lat="46.97502" lon="16.04462">
        <ele>385.650552</ele>
        <time>2026-07-08T14:29:23.000Z</time>
      </trkpt>
      <trkpt lat="46.97501" lon="16.04462">
        <ele>385.650552</ele>
        <time>2026-07-08T14:29:24.000Z</time>
      </trkpt>
      <trkpt lat="46.97501" lon="16.04462">
        <ele>385.650552</ele>
        <time>2026-07-08T14:29:25.000Z</time>
      </trkpt>
    </trkseg>
  </trk>
</gpx>